<?xml version="1.0" encoding="UTF-8" standalone="no" ?>
<gpx xmlns="http://www.topografix.com/GPX/1/1" xmlns:xsi="http://www.w3.org/2001/XMLSchema-instance" xsi:schemaLocation="http://www.topografix.com/GPX/1/1 http://www.topografix.com/GPX/1/1/gpx.xsd" version="1.1" creator="VisuGPX - https://www.visugpx.com">
  <metadata>
    <name>Que d'eau</name>
    <desc><![CDATA[Juste pour aller chercher un single d'enduro à Mandeure]]></desc>
  </metadata>
  <wpt lat="47.50597" lon="6.76623">
    <ele>398</ele>
    <name><![CDATA[Point de cheminement 1]]></name>
    <desc><![CDATA[]]></desc>
  </wpt>
  <wpt lat="47.48494" lon="6.77014">
    <ele>315</ele>
    <name><![CDATA[Point de cheminement 2]]></name>
    <desc><![CDATA[]]></desc>
  </wpt>
  <wpt lat="47.47125" lon="6.78437">
    <ele>358</ele>
    <name><![CDATA[Point de cheminement 3]]></name>
    <desc><![CDATA[]]></desc>
  </wpt>
  <wpt lat="47.45499" lon="6.78473">
    <ele>348</ele>
    <name><![CDATA[Point de cheminement 4]]></name>
    <desc><![CDATA[]]></desc>
  </wpt>
  <wpt lat="47.44243" lon="6.79924">
    <ele>413</ele>
    <name><![CDATA[Point de cheminement 5]]></name>
    <desc><![CDATA[]]></desc>
  </wpt>
  <wpt lat="47.43087" lon="6.79569">
    <ele>476</ele>
    <name><![CDATA[Point de cheminement 6]]></name>
    <desc><![CDATA[]]></desc>
  </wpt>
  <wpt lat="47.42872" lon="6.81221">
    <ele>468</ele>
    <name><![CDATA[Point de cheminement 7]]></name>
    <desc><![CDATA[]]></desc>
  </wpt>
  <wpt lat="47.44" lon="6.81184">
    <ele>371</ele>
    <name><![CDATA[Point de cheminement 8]]></name>
    <desc><![CDATA[]]></desc>
  </wpt>
  <wpt lat="47.45426" lon="6.78828">
    <ele>332</ele>
    <name><![CDATA[Point de cheminement 9]]></name>
    <desc><![CDATA[]]></desc>
  </wpt>
  <wpt lat="47.47078" lon="6.78499">
    <ele>359</ele>
    <name><![CDATA[Point de cheminement 10]]></name>
    <desc><![CDATA[]]></desc>
  </wpt>
  <wpt lat="47.49176" lon="6.7733">
    <ele>310</ele>
    <name><![CDATA[Point de cheminement 11]]></name>
    <desc><![CDATA[]]></desc>
  </wpt>
  <wpt lat="47.51731" lon="6.77482">
    <ele>389</ele>
    <name><![CDATA[Point de cheminement 12]]></name>
    <desc><![CDATA[]]></desc>
  </wpt>
  <trk>
    <name><![CDATA[Rue Antoine Coysevox]]></name>
    <desc><![CDATA[]]></desc>
    <trkseg>
      <trkpt lat="47.51796" lon="6.77451">
        <ele>388</ele>
        <time>2016-01-31T08:10:49.000Z</time>
      </trkpt>
      <trkpt lat="47.51798" lon="6.77447">
        <ele>388</ele>
        <time>2016-01-31T08:10:52.000Z</time>
      </trkpt>
      <trkpt lat="47.51801" lon="6.77447">
        <ele>388</ele>
        <time>2016-01-31T08:10:53.000Z</time>
      </trkpt>
      <trkpt lat="47.518" lon="6.77453">
        <ele>388</ele>
        <time>2016-01-31T08:11:00.000Z</time>
      </trkpt>
      <trkpt lat="47.51799" lon="6.77456">
        <ele>388</ele>
        <time>2016-01-31T08:11:01.000Z</time>
      </trkpt>
      <trkpt lat="47.51798" lon="6.77457">
        <ele>388</ele>
        <time>2016-01-31T08:11:03.000Z</time>
      </trkpt>
      <trkpt lat="47.51798" lon="6.77464">
        <ele>388</ele>
        <time>2016-01-31T08:11:04.000Z</time>
      </trkpt>
      <trkpt lat="47.51796" lon="6.77471">
        <ele>388</ele>
        <time>2016-01-31T08:11:05.000Z</time>
      </trkpt>
      <trkpt lat="47.518" lon="6.77473">
        <ele>388</ele>
        <time>2016-01-31T08:11:13.000Z</time>
      </trkpt>
      <trkpt lat="47.518" lon="6.77474">
        <ele>388</ele>
        <time>2016-01-31T08:11:14.000Z</time>
      </trkpt>
      <trkpt lat="47.51801" lon="6.77478">
        <ele>388</ele>
        <time>2016-01-31T08:14:11.000Z</time>
      </trkpt>
      <trkpt lat="47.51807" lon="6.77478">
        <ele>388</ele>
        <time>2016-01-31T08:14:12.000Z</time>
      </trkpt>
      <trkpt lat="47.51804" lon="6.7748">
        <ele>388</ele>
        <time>2016-01-31T08:18:19.000Z</time>
      </trkpt>
      <trkpt lat="47.51803" lon="6.77481">
        <ele>388</ele>
        <time>2016-01-31T08:18:20.000Z</time>
      </trkpt>
      <trkpt lat="47.51805" lon="6.77476">
        <ele>388</ele>
        <time>2016-01-31T08:18:24.000Z</time>
      </trkpt>
      <trkpt lat="47.51807" lon="6.77476">
        <ele>388</ele>
        <time>2016-01-31T08:18:25.000Z</time>
      </trkpt>
      <trkpt lat="47.51809" lon="6.7748">
        <ele>388</ele>
        <time>2016-01-31T08:18:27.000Z</time>
      </trkpt>
      <trkpt lat="47.51809" lon="6.77483">
        <ele>388</ele>
        <time>2016-01-31T08:18:28.000Z</time>
      </trkpt>
      <trkpt lat="47.51807" lon="6.77488">
        <ele>388</ele>
        <time>2016-01-31T08:18:30.000Z</time>
      </trkpt>
      <trkpt lat="47.51805" lon="6.7749">
        <ele>388</ele>
        <time>2016-01-31T08:18:31.000Z</time>
      </trkpt>
      <trkpt lat="47.51801" lon="6.77491">
        <ele>388</ele>
        <time>2016-01-31T08:18:32.000Z</time>
      </trkpt>
      <trkpt lat="47.51798" lon="6.77492">
        <ele>388</ele>
        <time>2016-01-31T08:18:33.000Z</time>
      </trkpt>
      <trkpt lat="47.51795" lon="6.77491">
        <ele>388</ele>
        <time>2016-01-31T08:18:34.000Z</time>
      </trkpt>
      <trkpt lat="47.51792" lon="6.7749">
        <ele>388</ele>
        <time>2016-01-31T08:18:35.000Z</time>
      </trkpt>
      <trkpt lat="47.51788" lon="6.77489">
        <ele>388</ele>
        <time>2016-01-31T08:18:36.000Z</time>
      </trkpt>
      <trkpt lat="47.51785" lon="6.77488">
        <ele>388</ele>
        <time>2016-01-31T08:18:37.000Z</time>
      </trkpt>
      <trkpt lat="47.51782" lon="6.77487">
        <ele>388</ele>
        <time>2016-01-31T08:18:38.000Z</time>
      </trkpt>
      <trkpt lat="47.51779" lon="6.77485">
        <ele>388</ele>
        <time>2016-01-31T08:18:39.000Z</time>
      </trkpt>
      <trkpt lat="47.51776" lon="6.77484">
        <ele>388</ele>
        <time>2016-01-31T08:18:40.000Z</time>
      </trkpt>
      <trkpt lat="47.51773" lon="6.77482">
        <ele>388</ele>
        <time>2016-01-31T08:18:41.000Z</time>
      </trkpt>
      <trkpt lat="47.5177" lon="6.77482">
        <ele>388</ele>
        <time>2016-01-31T08:18:42.000Z</time>
      </trkpt>
      <trkpt lat="47.51767" lon="6.77481">
        <ele>389</ele>
        <time>2016-01-31T08:18:43.000Z</time>
      </trkpt>
      <trkpt lat="47.51763" lon="6.77481">
        <ele>389</ele>
        <time>2016-01-31T08:18:44.000Z</time>
      </trkpt>
      <trkpt lat="47.5176" lon="6.77481">
        <ele>389</ele>
        <time>2016-01-31T08:18:45.000Z</time>
      </trkpt>
      <trkpt lat="47.51756" lon="6.7748">
        <ele>389</ele>
        <time>2016-01-31T08:18:46.000Z</time>
      </trkpt>
      <trkpt lat="47.51752" lon="6.77479">
        <ele>389</ele>
        <time>2016-01-31T08:18:47.000Z</time>
      </trkpt>
      <trkpt lat="47.51748" lon="6.77477">
        <ele>389</ele>
        <time>2016-01-31T08:18:48.000Z</time>
      </trkpt>
      <trkpt lat="47.51744" lon="6.77476">
        <ele>389</ele>
        <time>2016-01-31T08:18:49.000Z</time>
      </trkpt>
      <trkpt lat="47.5174" lon="6.77475">
        <ele>389</ele>
        <time>2016-01-31T08:18:50.000Z</time>
      </trkpt>
      <trkpt lat="47.51736" lon="6.77475">
        <ele>389</ele>
        <time>2016-01-31T08:18:51.000Z</time>
      </trkpt>
      <trkpt lat="47.51732" lon="6.77477">
        <ele>389</ele>
        <time>2016-01-31T08:18:52.000Z</time>
      </trkpt>
      <trkpt lat="47.5173" lon="6.7748">
        <ele>389</ele>
        <time>2016-01-31T08:18:53.000Z</time>
      </trkpt>
      <trkpt lat="47.51729" lon="6.77485">
        <ele>389</ele>
        <time>2016-01-31T08:18:54.000Z</time>
      </trkpt>
      <trkpt lat="47.51728" lon="6.77491">
        <ele>389</ele>
        <time>2016-01-31T08:18:55.000Z</time>
      </trkpt>
      <trkpt lat="47.51726" lon="6.77496">
        <ele>389</ele>
        <time>2016-01-31T08:18:56.000Z</time>
      </trkpt>
      <trkpt lat="47.51725" lon="6.77501">
        <ele>390</ele>
        <time>2016-01-31T08:18:57.000Z</time>
      </trkpt>
      <trkpt lat="47.51723" lon="6.77507">
        <ele>390</ele>
        <time>2016-01-31T08:18:58.000Z</time>
      </trkpt>
      <trkpt lat="47.51722" lon="6.77512">
        <ele>390</ele>
        <time>2016-01-31T08:18:59.000Z</time>
      </trkpt>
      <trkpt lat="47.5172" lon="6.77518">
        <ele>390</ele>
        <time>2016-01-31T08:19:00.000Z</time>
      </trkpt>
      <trkpt lat="47.51719" lon="6.77523">
        <ele>390</ele>
        <time>2016-01-31T08:19:01.000Z</time>
      </trkpt>
      <trkpt lat="47.51717" lon="6.77529">
        <ele>390</ele>
        <time>2016-01-31T08:19:02.000Z</time>
      </trkpt>
      <trkpt lat="47.51716" lon="6.77534">
        <ele>390</ele>
        <time>2016-01-31T08:19:03.000Z</time>
      </trkpt>
      <trkpt lat="47.51715" lon="6.77538">
        <ele>390</ele>
        <time>2016-01-31T08:19:04.000Z</time>
      </trkpt>
      <trkpt lat="47.51714" lon="6.77542">
        <ele>390</ele>
        <time>2016-01-31T08:19:05.000Z</time>
      </trkpt>
      <trkpt lat="47.51713" lon="6.77546">
        <ele>390</ele>
        <time>2016-01-31T08:19:06.000Z</time>
      </trkpt>
      <trkpt lat="47.51711" lon="6.77549">
        <ele>390</ele>
        <time>2016-01-31T08:19:07.000Z</time>
      </trkpt>
      <trkpt lat="47.51708" lon="6.7755">
        <ele>390</ele>
        <time>2016-01-31T08:19:08.000Z</time>
      </trkpt>
      <trkpt lat="47.51705" lon="6.77549">
        <ele>390</ele>
        <time>2016-01-31T08:19:09.000Z</time>
      </trkpt>
      <trkpt lat="47.51701" lon="6.77547">
        <ele>390</ele>
        <time>2016-01-31T08:19:10.000Z</time>
      </trkpt>
      <trkpt lat="47.51694" lon="6.77537">
        <ele>390</ele>
        <time>2016-01-31T08:19:11.000Z</time>
      </trkpt>
      <trkpt lat="47.5169" lon="6.77533">
        <ele>390</ele>
        <time>2016-01-31T08:19:12.000Z</time>
      </trkpt>
      <trkpt lat="47.51686" lon="6.77529">
        <ele>390</ele>
        <time>2016-01-31T08:19:13.000Z</time>
      </trkpt>
      <trkpt lat="47.51682" lon="6.77525">
        <ele>390</ele>
        <time>2016-01-31T08:19:14.000Z</time>
      </trkpt>
      <trkpt lat="47.51679" lon="6.77521">
        <ele>390</ele>
        <time>2016-01-31T08:19:15.000Z</time>
      </trkpt>
      <trkpt lat="47.51675" lon="6.77516">
        <ele>389</ele>
        <time>2016-01-31T08:19:16.000Z</time>
      </trkpt>
      <trkpt lat="47.51672" lon="6.7751">
        <ele>389</ele>
        <time>2016-01-31T08:19:17.000Z</time>
      </trkpt>
      <trkpt lat="47.51668" lon="6.77505">
        <ele>389</ele>
        <time>2016-01-31T08:19:18.000Z</time>
      </trkpt>
      <trkpt lat="47.51664" lon="6.775">
        <ele>389</ele>
        <time>2016-01-31T08:19:19.000Z</time>
      </trkpt>
      <trkpt lat="47.5166" lon="6.77495">
        <ele>388</ele>
        <time>2016-01-31T08:19:20.000Z</time>
      </trkpt>
      <trkpt lat="47.51656" lon="6.7749">
        <ele>388</ele>
        <time>2016-01-31T08:19:21.000Z</time>
      </trkpt>
      <trkpt lat="47.51652" lon="6.77486">
        <ele>387</ele>
        <time>2016-01-31T08:19:22.000Z</time>
      </trkpt>
      <trkpt lat="47.51648" lon="6.7748">
        <ele>387</ele>
        <time>2016-01-31T08:19:23.000Z</time>
      </trkpt>
      <trkpt lat="47.51643" lon="6.77475">
        <ele>387</ele>
        <time>2016-01-31T08:19:24.000Z</time>
      </trkpt>
      <trkpt lat="47.51639" lon="6.7747">
        <ele>386</ele>
        <time>2016-01-31T08:19:25.000Z</time>
      </trkpt>
      <trkpt lat="47.51635" lon="6.77465">
        <ele>386</ele>
        <time>2016-01-31T08:19:26.000Z</time>
      </trkpt>
      <trkpt lat="47.51631" lon="6.7746">
        <ele>386</ele>
        <time>2016-01-31T08:19:27.000Z</time>
      </trkpt>
      <trkpt lat="47.51626" lon="6.77455">
        <ele>386</ele>
        <time>2016-01-31T08:19:28.000Z</time>
      </trkpt>
      <trkpt lat="47.51622" lon="6.7745">
        <ele>386</ele>
        <time>2016-01-31T08:19:29.000Z</time>
      </trkpt>
      <trkpt lat="47.51618" lon="6.77445">
        <ele>385</ele>
        <time>2016-01-31T08:19:30.000Z</time>
      </trkpt>
      <trkpt lat="47.51613" lon="6.77439">
        <ele>385</ele>
        <time>2016-01-31T08:19:31.000Z</time>
      </trkpt>
      <trkpt lat="47.51609" lon="6.77433">
        <ele>385</ele>
        <time>2016-01-31T08:19:32.000Z</time>
      </trkpt>
      <trkpt lat="47.51603" lon="6.77428">
        <ele>385</ele>
        <time>2016-01-31T08:19:33.000Z</time>
      </trkpt>
      <trkpt lat="47.51599" lon="6.77422">
        <ele>384</ele>
        <time>2016-01-31T08:19:34.000Z</time>
      </trkpt>
      <trkpt lat="47.51594" lon="6.77415">
        <ele>383</ele>
        <time>2016-01-31T08:19:35.000Z</time>
      </trkpt>
      <trkpt lat="47.51589" lon="6.77409">
        <ele>383</ele>
        <time>2016-01-31T08:19:36.000Z</time>
      </trkpt>
      <trkpt lat="47.51584" lon="6.77403">
        <ele>383</ele>
        <time>2016-01-31T08:19:37.000Z</time>
      </trkpt>
      <trkpt lat="47.51579" lon="6.77397">
        <ele>382</ele>
        <time>2016-01-31T08:19:38.000Z</time>
      </trkpt>
      <trkpt lat="47.51574" lon="6.77392">
        <ele>381</ele>
        <time>2016-01-31T08:19:39.000Z</time>
      </trkpt>
      <trkpt lat="47.51569" lon="6.77386">
        <ele>381</ele>
        <time>2016-01-31T08:19:40.000Z</time>
      </trkpt>
      <trkpt lat="47.51564" lon="6.7738">
        <ele>381</ele>
        <time>2016-01-31T08:19:41.000Z</time>
      </trkpt>
      <trkpt lat="47.51558" lon="6.77374">
        <ele>381</ele>
        <time>2016-01-31T08:19:42.000Z</time>
      </trkpt>
      <trkpt lat="47.51553" lon="6.77368">
        <ele>381</ele>
        <time>2016-01-31T08:19:43.000Z</time>
      </trkpt>
      <trkpt lat="47.51548" lon="6.77361">
        <ele>380</ele>
        <time>2016-01-31T08:19:44.000Z</time>
      </trkpt>
      <trkpt lat="47.51542" lon="6.77355">
        <ele>380</ele>
        <time>2016-01-31T08:19:45.000Z</time>
      </trkpt>
      <trkpt lat="47.51536" lon="6.77349">
        <ele>380</ele>
        <time>2016-01-31T08:19:46.000Z</time>
      </trkpt>
      <trkpt lat="47.5153" lon="6.77343">
        <ele>380</ele>
        <time>2016-01-31T08:19:47.000Z</time>
      </trkpt>
      <trkpt lat="47.51526" lon="6.77337">
        <ele>380</ele>
        <time>2016-01-31T08:19:48.000Z</time>
      </trkpt>
      <trkpt lat="47.5152" lon="6.77331">
        <ele>378</ele>
        <time>2016-01-31T08:19:49.000Z</time>
      </trkpt>
      <trkpt lat="47.51514" lon="6.77325">
        <ele>378</ele>
        <time>2016-01-31T08:19:50.000Z</time>
      </trkpt>
      <trkpt lat="47.51509" lon="6.77319">
        <ele>378</ele>
        <time>2016-01-31T08:19:51.000Z</time>
      </trkpt>
      <trkpt lat="47.51503" lon="6.77311">
        <ele>378</ele>
        <time>2016-01-31T08:19:52.000Z</time>
      </trkpt>
      <trkpt lat="47.51498" lon="6.77304">
        <ele>377</ele>
        <time>2016-01-31T08:19:53.000Z</time>
      </trkpt>
      <trkpt lat="47.51494" lon="6.77297">
        <ele>377</ele>
        <time>2016-01-31T08:19:54.000Z</time>
      </trkpt>
      <trkpt lat="47.51491" lon="6.77288">
        <ele>377</ele>
        <time>2016-01-31T08:19:55.000Z</time>
      </trkpt>
      <trkpt lat="47.51488" lon="6.77279">
        <ele>377</ele>
        <time>2016-01-31T08:19:56.000Z</time>
      </trkpt>
      <trkpt lat="47.51487" lon="6.7727">
        <ele>377</ele>
        <time>2016-01-31T08:19:57.000Z</time>
      </trkpt>
      <trkpt lat="47.51486" lon="6.7726">
        <ele>376</ele>
        <time>2016-01-31T08:19:58.000Z</time>
      </trkpt>
      <trkpt lat="47.51485" lon="6.77251">
        <ele>376</ele>
        <time>2016-01-31T08:19:59.000Z</time>
      </trkpt>
      <trkpt lat="47.51485" lon="6.77242">
        <ele>376</ele>
        <time>2016-01-31T08:20:00.000Z</time>
      </trkpt>
      <trkpt lat="47.51484" lon="6.77233">
        <ele>375</ele>
        <time>2016-01-31T08:20:01.000Z</time>
      </trkpt>
      <trkpt lat="47.51483" lon="6.77224">
        <ele>375</ele>
        <time>2016-01-31T08:20:02.000Z</time>
      </trkpt>
      <trkpt lat="47.51481" lon="6.77215">
        <ele>375</ele>
        <time>2016-01-31T08:20:03.000Z</time>
      </trkpt>
      <trkpt lat="47.51479" lon="6.77207">
        <ele>375</ele>
        <time>2016-01-31T08:20:03.998Z</time>
      </trkpt>
      <trkpt lat="47.51473" lon="6.77201">
        <ele>375</ele>
        <time>2016-01-31T08:20:05.000Z</time>
      </trkpt>
      <trkpt lat="47.51467" lon="6.772">
        <ele>375</ele>
        <time>2016-01-31T08:20:06.000Z</time>
      </trkpt>
      <trkpt lat="47.51461" lon="6.772">
        <ele>375</ele>
        <time>2016-01-31T08:20:07.000Z</time>
      </trkpt>
      <trkpt lat="47.51454" lon="6.77203">
        <ele>375</ele>
        <time>2016-01-31T08:20:08.000Z</time>
      </trkpt>
      <trkpt lat="47.51448" lon="6.77206">
        <ele>375</ele>
        <time>2016-01-31T08:20:09.000Z</time>
      </trkpt>
      <trkpt lat="47.51441" lon="6.77209">
        <ele>375</ele>
        <time>2016-01-31T08:20:10.000Z</time>
      </trkpt>
      <trkpt lat="47.51435" lon="6.77212">
        <ele>375</ele>
        <time>2016-01-31T08:20:11.000Z</time>
      </trkpt>
      <trkpt lat="47.51429" lon="6.77215">
        <ele>375</ele>
        <time>2016-01-31T08:20:12.000Z</time>
      </trkpt>
      <trkpt lat="47.51422" lon="6.77218">
        <ele>375</ele>
        <time>2016-01-31T08:20:13.000Z</time>
      </trkpt>
      <trkpt lat="47.51417" lon="6.77221">
        <ele>375</ele>
        <time>2016-01-31T08:20:14.000Z</time>
      </trkpt>
      <trkpt lat="47.51412" lon="6.77223">
        <ele>376</ele>
        <time>2016-01-31T08:20:15.000Z</time>
      </trkpt>
      <trkpt lat="47.51408" lon="6.77226">
        <ele>376</ele>
        <time>2016-01-31T08:20:16.000Z</time>
      </trkpt>
      <trkpt lat="47.51403" lon="6.77229">
        <ele>376</ele>
        <time>2016-01-31T08:20:17.000Z</time>
      </trkpt>
      <trkpt lat="47.51399" lon="6.77232">
        <ele>376</ele>
        <time>2016-01-31T08:20:18.000Z</time>
      </trkpt>
      <trkpt lat="47.51395" lon="6.77234">
        <ele>376</ele>
        <time>2016-01-31T08:20:19.000Z</time>
      </trkpt>
      <trkpt lat="47.51391" lon="6.77237">
        <ele>376</ele>
        <time>2016-01-31T08:20:20.000Z</time>
      </trkpt>
      <trkpt lat="47.51386" lon="6.7724">
        <ele>376</ele>
        <time>2016-01-31T08:20:21.000Z</time>
      </trkpt>
      <trkpt lat="47.51382" lon="6.77243">
        <ele>376</ele>
        <time>2016-01-31T08:20:22.000Z</time>
      </trkpt>
      <trkpt lat="47.51378" lon="6.77245">
        <ele>376</ele>
        <time>2016-01-31T08:20:23.000Z</time>
      </trkpt>
      <trkpt lat="47.51375" lon="6.77248">
        <ele>376</ele>
        <time>2016-01-31T08:20:24.000Z</time>
      </trkpt>
      <trkpt lat="47.51371" lon="6.77254">
        <ele>378</ele>
        <time>2016-01-31T08:20:25.000Z</time>
      </trkpt>
      <trkpt lat="47.51368" lon="6.77258">
        <ele>378</ele>
        <time>2016-01-31T08:20:26.000Z</time>
      </trkpt>
      <trkpt lat="47.51365" lon="6.7726">
        <ele>378</ele>
        <time>2016-01-31T08:20:27.000Z</time>
      </trkpt>
      <trkpt lat="47.51362" lon="6.77261">
        <ele>378</ele>
        <time>2016-01-31T08:20:28.000Z</time>
      </trkpt>
      <trkpt lat="47.5136" lon="6.77264">
        <ele>378</ele>
        <time>2016-01-31T08:20:29.000Z</time>
      </trkpt>
      <trkpt lat="47.51357" lon="6.77265">
        <ele>378</ele>
        <time>2016-01-31T08:20:30.000Z</time>
      </trkpt>
      <trkpt lat="47.51355" lon="6.77268">
        <ele>378</ele>
        <time>2016-01-31T08:20:31.000Z</time>
      </trkpt>
      <trkpt lat="47.51352" lon="6.77269">
        <ele>378</ele>
        <time>2016-01-31T08:20:32.000Z</time>
      </trkpt>
      <trkpt lat="47.5135" lon="6.77271">
        <ele>378</ele>
        <time>2016-01-31T08:20:33.000Z</time>
      </trkpt>
      <trkpt lat="47.51347" lon="6.77273">
        <ele>378</ele>
        <time>2016-01-31T08:20:34.000Z</time>
      </trkpt>
      <trkpt lat="47.51345" lon="6.77275">
        <ele>378</ele>
        <time>2016-01-31T08:20:35.000Z</time>
      </trkpt>
      <trkpt lat="47.51342" lon="6.77277">
        <ele>378</ele>
        <time>2016-01-31T08:20:36.000Z</time>
      </trkpt>
      <trkpt lat="47.5134" lon="6.77278">
        <ele>378</ele>
        <time>2016-01-31T08:20:37.000Z</time>
      </trkpt>
      <trkpt lat="47.51337" lon="6.7728">
        <ele>378</ele>
        <time>2016-01-31T08:20:38.000Z</time>
      </trkpt>
      <trkpt lat="47.51334" lon="6.77282">
        <ele>378</ele>
        <time>2016-01-31T08:20:39.000Z</time>
      </trkpt>
      <trkpt lat="47.51332" lon="6.77283">
        <ele>378</ele>
        <time>2016-01-31T08:20:40.000Z</time>
      </trkpt>
      <trkpt lat="47.51329" lon="6.77283">
        <ele>377</ele>
        <time>2016-01-31T08:20:41.000Z</time>
      </trkpt>
      <trkpt lat="47.51326" lon="6.77282">
        <ele>377</ele>
        <time>2016-01-31T08:20:42.000Z</time>
      </trkpt>
      <trkpt lat="47.51323" lon="6.77281">
        <ele>377</ele>
        <time>2016-01-31T08:20:43.000Z</time>
      </trkpt>
      <trkpt lat="47.5132" lon="6.77281">
        <ele>377</ele>
        <time>2016-01-31T08:20:44.000Z</time>
      </trkpt>
      <trkpt lat="47.51317" lon="6.7728">
        <ele>377</ele>
        <time>2016-01-31T08:20:45.000Z</time>
      </trkpt>
      <trkpt lat="47.51313" lon="6.77279">
        <ele>377</ele>
        <time>2016-01-31T08:20:46.000Z</time>
      </trkpt>
      <trkpt lat="47.5131" lon="6.77277">
        <ele>377</ele>
        <time>2016-01-31T08:20:47.000Z</time>
      </trkpt>
      <trkpt lat="47.51307" lon="6.77275">
        <ele>377</ele>
        <time>2016-01-31T08:20:48.000Z</time>
      </trkpt>
      <trkpt lat="47.51304" lon="6.77273">
        <ele>377</ele>
        <time>2016-01-31T08:20:49.000Z</time>
      </trkpt>
      <trkpt lat="47.51301" lon="6.77271">
        <ele>377</ele>
        <time>2016-01-31T08:20:50.000Z</time>
      </trkpt>
      <trkpt lat="47.51297" lon="6.77269">
        <ele>377</ele>
        <time>2016-01-31T08:20:51.000Z</time>
      </trkpt>
      <trkpt lat="47.51294" lon="6.77267">
        <ele>377</ele>
        <time>2016-01-31T08:20:52.000Z</time>
      </trkpt>
      <trkpt lat="47.51291" lon="6.77266">
        <ele>377</ele>
        <time>2016-01-31T08:20:53.000Z</time>
      </trkpt>
      <trkpt lat="47.51288" lon="6.77264">
        <ele>377</ele>
        <time>2016-01-31T08:20:54.000Z</time>
      </trkpt>
      <trkpt lat="47.51285" lon="6.77262">
        <ele>377</ele>
        <time>2016-01-31T08:20:55.000Z</time>
      </trkpt>
      <trkpt lat="47.51282" lon="6.7726">
        <ele>377</ele>
        <time>2016-01-31T08:20:56.000Z</time>
      </trkpt>
      <trkpt lat="47.51279" lon="6.77258">
        <ele>377</ele>
        <time>2016-01-31T08:20:57.000Z</time>
      </trkpt>
      <trkpt lat="47.51276" lon="6.77256">
        <ele>377</ele>
        <time>2016-01-31T08:20:58.000Z</time>
      </trkpt>
      <trkpt lat="47.51272" lon="6.77254">
        <ele>378</ele>
        <time>2016-01-31T08:20:59.000Z</time>
      </trkpt>
      <trkpt lat="47.51269" lon="6.77252">
        <ele>378</ele>
        <time>2016-01-31T08:21:00.000Z</time>
      </trkpt>
      <trkpt lat="47.51265" lon="6.77249">
        <ele>378</ele>
        <time>2016-01-31T08:21:01.000Z</time>
      </trkpt>
      <trkpt lat="47.51262" lon="6.77246">
        <ele>378</ele>
        <time>2016-01-31T08:21:02.000Z</time>
      </trkpt>
      <trkpt lat="47.51259" lon="6.77242">
        <ele>378</ele>
        <time>2016-01-31T08:21:03.000Z</time>
      </trkpt>
      <trkpt lat="47.51255" lon="6.77238">
        <ele>378</ele>
        <time>2016-01-31T08:21:04.000Z</time>
      </trkpt>
      <trkpt lat="47.51252" lon="6.77233">
        <ele>378</ele>
        <time>2016-01-31T08:21:05.000Z</time>
      </trkpt>
      <trkpt lat="47.51249" lon="6.77226">
        <ele>377</ele>
        <time>2016-01-31T08:21:06.000Z</time>
      </trkpt>
      <trkpt lat="47.51246" lon="6.77221">
        <ele>376</ele>
        <time>2016-01-31T08:21:07.000Z</time>
      </trkpt>
      <trkpt lat="47.51243" lon="6.77215">
        <ele>376</ele>
        <time>2016-01-31T08:21:08.000Z</time>
      </trkpt>
      <trkpt lat="47.5124" lon="6.77209">
        <ele>376</ele>
        <time>2016-01-31T08:21:09.000Z</time>
      </trkpt>
      <trkpt lat="47.51237" lon="6.77203">
        <ele>376</ele>
        <time>2016-01-31T08:21:10.000Z</time>
      </trkpt>
      <trkpt lat="47.51234" lon="6.77197">
        <ele>376</ele>
        <time>2016-01-31T08:21:11.000Z</time>
      </trkpt>
      <trkpt lat="47.5123" lon="6.77191">
        <ele>376</ele>
        <time>2016-01-31T08:21:12.000Z</time>
      </trkpt>
      <trkpt lat="47.51228" lon="6.77184">
        <ele>376</ele>
        <time>2016-01-31T08:21:13.000Z</time>
      </trkpt>
      <trkpt lat="47.51225" lon="6.77179">
        <ele>377</ele>
        <time>2016-01-31T08:21:14.000Z</time>
      </trkpt>
      <trkpt lat="47.51222" lon="6.77172">
        <ele>377</ele>
        <time>2016-01-31T08:21:15.000Z</time>
      </trkpt>
      <trkpt lat="47.51219" lon="6.77166">
        <ele>378</ele>
        <time>2016-01-31T08:21:16.000Z</time>
      </trkpt>
      <trkpt lat="47.51215" lon="6.7716">
        <ele>378</ele>
        <time>2016-01-31T08:21:17.000Z</time>
      </trkpt>
      <trkpt lat="47.51212" lon="6.77153">
        <ele>378</ele>
        <time>2016-01-31T08:21:18.000Z</time>
      </trkpt>
      <trkpt lat="47.51208" lon="6.77146">
        <ele>378</ele>
        <time>2016-01-31T08:21:19.000Z</time>
      </trkpt>
      <trkpt lat="47.51204" lon="6.77139">
        <ele>378</ele>
        <time>2016-01-31T08:21:20.000Z</time>
      </trkpt>
      <trkpt lat="47.512" lon="6.77132">
        <ele>378</ele>
        <time>2016-01-31T08:21:21.000Z</time>
      </trkpt>
      <trkpt lat="47.51196" lon="6.77124">
        <ele>378</ele>
        <time>2016-01-31T08:21:22.000Z</time>
      </trkpt>
      <trkpt lat="47.51192" lon="6.77116">
        <ele>378</ele>
        <time>2016-01-31T08:21:23.000Z</time>
      </trkpt>
      <trkpt lat="47.51188" lon="6.77108">
        <ele>378</ele>
        <time>2016-01-31T08:21:24.000Z</time>
      </trkpt>
      <trkpt lat="47.51184" lon="6.771">
        <ele>378</ele>
        <time>2016-01-31T08:21:25.000Z</time>
      </trkpt>
      <trkpt lat="47.51179" lon="6.77092">
        <ele>378</ele>
        <time>2016-01-31T08:21:26.000Z</time>
      </trkpt>
      <trkpt lat="47.51175" lon="6.77084">
        <ele>378</ele>
        <time>2016-01-31T08:21:27.000Z</time>
      </trkpt>
      <trkpt lat="47.5117" lon="6.77076">
        <ele>377</ele>
        <time>2016-01-31T08:21:28.000Z</time>
      </trkpt>
      <trkpt lat="47.51165" lon="6.7707">
        <ele>377</ele>
        <time>2016-01-31T08:21:29.000Z</time>
      </trkpt>
      <trkpt lat="47.5116" lon="6.77062">
        <ele>376</ele>
        <time>2016-01-31T08:21:30.000Z</time>
      </trkpt>
      <trkpt lat="47.51154" lon="6.77057">
        <ele>376</ele>
        <time>2016-01-31T08:21:31.000Z</time>
      </trkpt>
      <trkpt lat="47.51149" lon="6.77051">
        <ele>376</ele>
        <time>2016-01-31T08:21:31.999Z</time>
      </trkpt>
      <trkpt lat="47.51143" lon="6.77046">
        <ele>376</ele>
        <time>2016-01-31T08:21:33.000Z</time>
      </trkpt>
      <trkpt lat="47.51138" lon="6.77041">
        <ele>375</ele>
        <time>2016-01-31T08:21:34.000Z</time>
      </trkpt>
      <trkpt lat="47.51132" lon="6.77036">
        <ele>375</ele>
        <time>2016-01-31T08:21:35.000Z</time>
      </trkpt>
      <trkpt lat="47.51127" lon="6.77031">
        <ele>375</ele>
        <time>2016-01-31T08:21:36.000Z</time>
      </trkpt>
      <trkpt lat="47.51121" lon="6.77027">
        <ele>375</ele>
        <time>2016-01-31T08:21:37.000Z</time>
      </trkpt>
      <trkpt lat="47.51115" lon="6.77023">
        <ele>375</ele>
        <time>2016-01-31T08:21:38.000Z</time>
      </trkpt>
      <trkpt lat="47.5111" lon="6.77019">
        <ele>375</ele>
        <time>2016-01-31T08:21:39.000Z</time>
      </trkpt>
      <trkpt lat="47.51105" lon="6.77014">
        <ele>375</ele>
        <time>2016-01-31T08:21:40.000Z</time>
      </trkpt>
      <trkpt lat="47.51099" lon="6.77009">
        <ele>375</ele>
        <time>2016-01-31T08:21:41.000Z</time>
      </trkpt>
      <trkpt lat="47.51093" lon="6.77005">
        <ele>375</ele>
        <time>2016-01-31T08:21:42.000Z</time>
      </trkpt>
      <trkpt lat="47.51087" lon="6.77002">
        <ele>375</ele>
        <time>2016-01-31T08:21:43.000Z</time>
      </trkpt>
      <trkpt lat="47.51082" lon="6.76997">
        <ele>375</ele>
        <time>2016-01-31T08:21:44.000Z</time>
      </trkpt>
      <trkpt lat="47.51077" lon="6.76992">
        <ele>375</ele>
        <time>2016-01-31T08:21:45.000Z</time>
      </trkpt>
      <trkpt lat="47.51072" lon="6.76987">
        <ele>375</ele>
        <time>2016-01-31T08:21:46.000Z</time>
      </trkpt>
      <trkpt lat="47.51067" lon="6.76983">
        <ele>375</ele>
        <time>2016-01-31T08:21:47.000Z</time>
      </trkpt>
      <trkpt lat="47.51062" lon="6.76978">
        <ele>375</ele>
        <time>2016-01-31T08:21:48.000Z</time>
      </trkpt>
      <trkpt lat="47.51057" lon="6.76974">
        <ele>375</ele>
        <time>2016-01-31T08:21:49.000Z</time>
      </trkpt>
      <trkpt lat="47.51052" lon="6.7697">
        <ele>375</ele>
        <time>2016-01-31T08:21:50.000Z</time>
      </trkpt>
      <trkpt lat="47.51047" lon="6.76967">
        <ele>375</ele>
        <time>2016-01-31T08:21:51.000Z</time>
      </trkpt>
      <trkpt lat="47.51042" lon="6.76963">
        <ele>375</ele>
        <time>2016-01-31T08:21:52.000Z</time>
      </trkpt>
      <trkpt lat="47.51038" lon="6.7696">
        <ele>375</ele>
        <time>2016-01-31T08:21:53.000Z</time>
      </trkpt>
      <trkpt lat="47.51033" lon="6.76956">
        <ele>375</ele>
        <time>2016-01-31T08:21:54.000Z</time>
      </trkpt>
      <trkpt lat="47.51029" lon="6.76951">
        <ele>375</ele>
        <time>2016-01-31T08:21:55.000Z</time>
      </trkpt>
      <trkpt lat="47.51025" lon="6.76947">
        <ele>375</ele>
        <time>2016-01-31T08:21:56.000Z</time>
      </trkpt>
      <trkpt lat="47.51021" lon="6.76944">
        <ele>375</ele>
        <time>2016-01-31T08:21:57.000Z</time>
      </trkpt>
      <trkpt lat="47.51016" lon="6.76943">
        <ele>375</ele>
        <time>2016-01-31T08:21:58.000Z</time>
      </trkpt>
      <trkpt lat="47.51012" lon="6.7694">
        <ele>375</ele>
        <time>2016-01-31T08:21:59.000Z</time>
      </trkpt>
      <trkpt lat="47.51007" lon="6.76937">
        <ele>375</ele>
        <time>2016-01-31T08:22:00.000Z</time>
      </trkpt>
      <trkpt lat="47.51003" lon="6.76935">
        <ele>375</ele>
        <time>2016-01-31T08:22:01.000Z</time>
      </trkpt>
      <trkpt lat="47.50999" lon="6.76931">
        <ele>375</ele>
        <time>2016-01-31T08:22:02.000Z</time>
      </trkpt>
      <trkpt lat="47.50995" lon="6.76928">
        <ele>375</ele>
        <time>2016-01-31T08:22:03.000Z</time>
      </trkpt>
      <trkpt lat="47.50991" lon="6.76923">
        <ele>375</ele>
        <time>2016-01-31T08:22:04.000Z</time>
      </trkpt>
      <trkpt lat="47.50987" lon="6.7692">
        <ele>375</ele>
        <time>2016-01-31T08:22:05.000Z</time>
      </trkpt>
      <trkpt lat="47.50983" lon="6.76917">
        <ele>375</ele>
        <time>2016-01-31T08:22:06.000Z</time>
      </trkpt>
      <trkpt lat="47.50979" lon="6.76915">
        <ele>377</ele>
        <time>2016-01-31T08:22:07.000Z</time>
      </trkpt>
      <trkpt lat="47.50974" lon="6.76913">
        <ele>377</ele>
        <time>2016-01-31T08:22:08.000Z</time>
      </trkpt>
      <trkpt lat="47.50971" lon="6.76911">
        <ele>377</ele>
        <time>2016-01-31T08:22:09.000Z</time>
      </trkpt>
      <trkpt lat="47.50967" lon="6.76909">
        <ele>377</ele>
        <time>2016-01-31T08:22:10.000Z</time>
      </trkpt>
      <trkpt lat="47.50963" lon="6.76906">
        <ele>377</ele>
        <time>2016-01-31T08:22:11.000Z</time>
      </trkpt>
      <trkpt lat="47.50961" lon="6.769">
        <ele>377</ele>
        <time>2016-01-31T08:22:12.000Z</time>
      </trkpt>
      <trkpt lat="47.50957" lon="6.76895">
        <ele>377</ele>
        <time>2016-01-31T08:22:13.000Z</time>
      </trkpt>
      <trkpt lat="47.50955" lon="6.76892">
        <ele>377</ele>
        <time>2016-01-31T08:22:14.000Z</time>
      </trkpt>
      <trkpt lat="47.50951" lon="6.76888">
        <ele>378</ele>
        <time>2016-01-31T08:22:15.000Z</time>
      </trkpt>
      <trkpt lat="47.50947" lon="6.76883">
        <ele>378</ele>
        <time>2016-01-31T08:22:16.000Z</time>
      </trkpt>
      <trkpt lat="47.50944" lon="6.76881">
        <ele>378</ele>
        <time>2016-01-31T08:22:17.000Z</time>
      </trkpt>
      <trkpt lat="47.50941" lon="6.76877">
        <ele>378</ele>
        <time>2016-01-31T08:22:18.000Z</time>
      </trkpt>
      <trkpt lat="47.50937" lon="6.76874">
        <ele>378</ele>
        <time>2016-01-31T08:22:19.000Z</time>
      </trkpt>
      <trkpt lat="47.50934" lon="6.7687">
        <ele>378</ele>
        <time>2016-01-31T08:22:20.000Z</time>
      </trkpt>
      <trkpt lat="47.50931" lon="6.76867">
        <ele>378</ele>
        <time>2016-01-31T08:22:21.000Z</time>
      </trkpt>
      <trkpt lat="47.50928" lon="6.76863">
        <ele>378</ele>
        <time>2016-01-31T08:22:22.000Z</time>
      </trkpt>
      <trkpt lat="47.50925" lon="6.76859">
        <ele>378</ele>
        <time>2016-01-31T08:22:23.000Z</time>
      </trkpt>
      <trkpt lat="47.50923" lon="6.76854">
        <ele>379</ele>
        <time>2016-01-31T08:22:24.000Z</time>
      </trkpt>
      <trkpt lat="47.50921" lon="6.76849">
        <ele>379</ele>
        <time>2016-01-31T08:22:25.000Z</time>
      </trkpt>
      <trkpt lat="47.50919" lon="6.76843">
        <ele>379</ele>
        <time>2016-01-31T08:22:26.000Z</time>
      </trkpt>
      <trkpt lat="47.50917" lon="6.76838">
        <ele>380</ele>
        <time>2016-01-31T08:22:27.000Z</time>
      </trkpt>
      <trkpt lat="47.50914" lon="6.76833">
        <ele>380</ele>
        <time>2016-01-31T08:22:28.000Z</time>
      </trkpt>
      <trkpt lat="47.50912" lon="6.76828">
        <ele>380</ele>
        <time>2016-01-31T08:22:29.000Z</time>
      </trkpt>
      <trkpt lat="47.5091" lon="6.76823">
        <ele>381</ele>
        <time>2016-01-31T08:22:30.000Z</time>
      </trkpt>
      <trkpt lat="47.50908" lon="6.76818">
        <ele>381</ele>
        <time>2016-01-31T08:22:31.000Z</time>
      </trkpt>
      <trkpt lat="47.50906" lon="6.76813">
        <ele>381</ele>
        <time>2016-01-31T08:22:32.000Z</time>
      </trkpt>
      <trkpt lat="47.50904" lon="6.76808">
        <ele>381</ele>
        <time>2016-01-31T08:22:33.000Z</time>
      </trkpt>
      <trkpt lat="47.50902" lon="6.76803">
        <ele>381</ele>
        <time>2016-01-31T08:22:34.000Z</time>
      </trkpt>
      <trkpt lat="47.509" lon="6.76798">
        <ele>381</ele>
        <time>2016-01-31T08:22:35.000Z</time>
      </trkpt>
      <trkpt lat="47.50898" lon="6.76794">
        <ele>381</ele>
        <time>2016-01-31T08:22:36.000Z</time>
      </trkpt>
      <trkpt lat="47.50896" lon="6.76789">
        <ele>381</ele>
        <time>2016-01-31T08:22:37.000Z</time>
      </trkpt>
      <trkpt lat="47.50894" lon="6.76784">
        <ele>381</ele>
        <time>2016-01-31T08:22:38.000Z</time>
      </trkpt>
      <trkpt lat="47.50892" lon="6.76779">
        <ele>381</ele>
        <time>2016-01-31T08:22:39.000Z</time>
      </trkpt>
      <trkpt lat="47.5089" lon="6.76774">
        <ele>381</ele>
        <time>2016-01-31T08:22:40.000Z</time>
      </trkpt>
      <trkpt lat="47.50888" lon="6.76769">
        <ele>381</ele>
        <time>2016-01-31T08:22:41.000Z</time>
      </trkpt>
      <trkpt lat="47.50887" lon="6.76764">
        <ele>381</ele>
        <time>2016-01-31T08:22:42.000Z</time>
      </trkpt>
      <trkpt lat="47.50885" lon="6.7676">
        <ele>381</ele>
        <time>2016-01-31T08:22:43.000Z</time>
      </trkpt>
      <trkpt lat="47.50883" lon="6.76755">
        <ele>381</ele>
        <time>2016-01-31T08:22:44.000Z</time>
      </trkpt>
      <trkpt lat="47.50882" lon="6.7675">
        <ele>382</ele>
        <time>2016-01-31T08:22:45.000Z</time>
      </trkpt>
      <trkpt lat="47.50881" lon="6.76745">
        <ele>382</ele>
        <time>2016-01-31T08:22:46.000Z</time>
      </trkpt>
      <trkpt lat="47.50879" lon="6.7674">
        <ele>383</ele>
        <time>2016-01-31T08:22:47.000Z</time>
      </trkpt>
      <trkpt lat="47.50878" lon="6.76735">
        <ele>383</ele>
        <time>2016-01-31T08:22:48.000Z</time>
      </trkpt>
      <trkpt lat="47.50877" lon="6.7673">
        <ele>383</ele>
        <time>2016-01-31T08:22:49.000Z</time>
      </trkpt>
      <trkpt lat="47.50875" lon="6.76725">
        <ele>383</ele>
        <time>2016-01-31T08:22:50.000Z</time>
      </trkpt>
      <trkpt lat="47.50874" lon="6.76721">
        <ele>383</ele>
        <time>2016-01-31T08:22:51.000Z</time>
      </trkpt>
      <trkpt lat="47.50873" lon="6.76716">
        <ele>383</ele>
        <time>2016-01-31T08:22:52.000Z</time>
      </trkpt>
      <trkpt lat="47.50871" lon="6.76711">
        <ele>383</ele>
        <time>2016-01-31T08:22:53.000Z</time>
      </trkpt>
      <trkpt lat="47.5087" lon="6.76707">
        <ele>384</ele>
        <time>2016-01-31T08:22:54.000Z</time>
      </trkpt>
      <trkpt lat="47.50868" lon="6.76703">
        <ele>384</ele>
        <time>2016-01-31T08:22:55.000Z</time>
      </trkpt>
      <trkpt lat="47.50866" lon="6.76699">
        <ele>384</ele>
        <time>2016-01-31T08:22:56.000Z</time>
      </trkpt>
      <trkpt lat="47.50865" lon="6.76694">
        <ele>384</ele>
        <time>2016-01-31T08:22:57.000Z</time>
      </trkpt>
      <trkpt lat="47.50863" lon="6.76689">
        <ele>384</ele>
        <time>2016-01-31T08:22:58.000Z</time>
      </trkpt>
      <trkpt lat="47.50861" lon="6.76685">
        <ele>385</ele>
        <time>2016-01-31T08:22:59.000Z</time>
      </trkpt>
      <trkpt lat="47.50859" lon="6.7668">
        <ele>385</ele>
        <time>2016-01-31T08:23:00.000Z</time>
      </trkpt>
      <trkpt lat="47.50858" lon="6.76675">
        <ele>385</ele>
        <time>2016-01-31T08:23:01.000Z</time>
      </trkpt>
      <trkpt lat="47.50856" lon="6.76671">
        <ele>385</ele>
        <time>2016-01-31T08:23:02.000Z</time>
      </trkpt>
      <trkpt lat="47.50854" lon="6.76666">
        <ele>387</ele>
        <time>2016-01-31T08:23:03.000Z</time>
      </trkpt>
      <trkpt lat="47.50852" lon="6.76662">
        <ele>387</ele>
        <time>2016-01-31T08:23:04.000Z</time>
      </trkpt>
      <trkpt lat="47.5085" lon="6.76658">
        <ele>387</ele>
        <time>2016-01-31T08:23:05.000Z</time>
      </trkpt>
      <trkpt lat="47.50848" lon="6.76654">
        <ele>387</ele>
        <time>2016-01-31T08:23:06.000Z</time>
      </trkpt>
      <trkpt lat="47.50846" lon="6.7665">
        <ele>387</ele>
        <time>2016-01-31T08:23:07.000Z</time>
      </trkpt>
      <trkpt lat="47.50844" lon="6.76646">
        <ele>387</ele>
        <time>2016-01-31T08:23:08.000Z</time>
      </trkpt>
      <trkpt lat="47.50843" lon="6.76642">
        <ele>387</ele>
        <time>2016-01-31T08:23:09.000Z</time>
      </trkpt>
      <trkpt lat="47.50841" lon="6.76638">
        <ele>387</ele>
        <time>2016-01-31T08:23:10.000Z</time>
      </trkpt>
      <trkpt lat="47.50839" lon="6.76634">
        <ele>387</ele>
        <time>2016-01-31T08:23:11.000Z</time>
      </trkpt>
      <trkpt lat="47.50837" lon="6.76631">
        <ele>387</ele>
        <time>2016-01-31T08:23:12.000Z</time>
      </trkpt>
      <trkpt lat="47.50835" lon="6.76627">
        <ele>387</ele>
        <time>2016-01-31T08:23:13.000Z</time>
      </trkpt>
      <trkpt lat="47.50833" lon="6.76623">
        <ele>390</ele>
        <time>2016-01-31T08:23:14.000Z</time>
      </trkpt>
      <trkpt lat="47.50832" lon="6.76619">
        <ele>390</ele>
        <time>2016-01-31T08:23:15.000Z</time>
      </trkpt>
      <trkpt lat="47.50831" lon="6.76615">
        <ele>390</ele>
        <time>2016-01-31T08:23:16.000Z</time>
      </trkpt>
      <trkpt lat="47.50829" lon="6.76611">
        <ele>390</ele>
        <time>2016-01-31T08:23:17.000Z</time>
      </trkpt>
      <trkpt lat="47.50828" lon="6.76608">
        <ele>390</ele>
        <time>2016-01-31T08:23:18.000Z</time>
      </trkpt>
      <trkpt lat="47.50826" lon="6.76604">
        <ele>390</ele>
        <time>2016-01-31T08:23:19.000Z</time>
      </trkpt>
      <trkpt lat="47.50825" lon="6.766">
        <ele>390</ele>
        <time>2016-01-31T08:23:20.000Z</time>
      </trkpt>
      <trkpt lat="47.50823" lon="6.76596">
        <ele>390</ele>
        <time>2016-01-31T08:23:21.000Z</time>
      </trkpt>
      <trkpt lat="47.50822" lon="6.76594">
        <ele>390</ele>
        <time>2016-01-31T08:23:22.000Z</time>
      </trkpt>
      <trkpt lat="47.50819" lon="6.7659">
        <ele>390</ele>
        <time>2016-01-31T08:23:24.000Z</time>
      </trkpt>
      <trkpt lat="47.50817" lon="6.7659">
        <ele>390</ele>
        <time>2016-01-31T08:23:25.000Z</time>
      </trkpt>
      <trkpt lat="47.50814" lon="6.7659">
        <ele>390</ele>
        <time>2016-01-31T08:23:26.000Z</time>
      </trkpt>
      <trkpt lat="47.50812" lon="6.76589">
        <ele>390</ele>
        <time>2016-01-31T08:23:27.000Z</time>
      </trkpt>
      <trkpt lat="47.5081" lon="6.76588">
        <ele>390</ele>
        <time>2016-01-31T08:23:27.999Z</time>
      </trkpt>
      <trkpt lat="47.50807" lon="6.76586">
        <ele>390</ele>
        <time>2016-01-31T08:23:29.001Z</time>
      </trkpt>
      <trkpt lat="47.50805" lon="6.76584">
        <ele>390</ele>
        <time>2016-01-31T08:23:30.000Z</time>
      </trkpt>
      <trkpt lat="47.50803" lon="6.76583">
        <ele>391</ele>
        <time>2016-01-31T08:23:31.000Z</time>
      </trkpt>
      <trkpt lat="47.50801" lon="6.76584">
        <ele>391</ele>
        <time>2016-01-31T08:23:32.000Z</time>
      </trkpt>
      <trkpt lat="47.50798" lon="6.76585">
        <ele>391</ele>
        <time>2016-01-31T08:23:33.000Z</time>
      </trkpt>
      <trkpt lat="47.50796" lon="6.76586">
        <ele>391</ele>
        <time>2016-01-31T08:23:34.000Z</time>
      </trkpt>
      <trkpt lat="47.50794" lon="6.76588">
        <ele>391</ele>
        <time>2016-01-31T08:23:35.000Z</time>
      </trkpt>
      <trkpt lat="47.50791" lon="6.7659">
        <ele>391</ele>
        <time>2016-01-31T08:23:36.000Z</time>
      </trkpt>
      <trkpt lat="47.50789" lon="6.76591">
        <ele>391</ele>
        <time>2016-01-31T08:23:37.000Z</time>
      </trkpt>
      <trkpt lat="47.50786" lon="6.76592">
        <ele>391</ele>
        <time>2016-01-31T08:23:51.000Z</time>
      </trkpt>
      <trkpt lat="47.50784" lon="6.76593">
        <ele>391</ele>
        <time>2016-01-31T08:23:52.000Z</time>
      </trkpt>
      <trkpt lat="47.5078" lon="6.76594">
        <ele>391</ele>
        <time>2016-01-31T08:23:54.000Z</time>
      </trkpt>
      <trkpt lat="47.50777" lon="6.76595">
        <ele>392</ele>
        <time>2016-01-31T08:23:55.000Z</time>
      </trkpt>
      <trkpt lat="47.50773" lon="6.76597">
        <ele>392</ele>
        <time>2016-01-31T08:23:56.000Z</time>
      </trkpt>
      <trkpt lat="47.50771" lon="6.76598">
        <ele>392</ele>
        <time>2016-01-31T08:23:57.000Z</time>
      </trkpt>
      <trkpt lat="47.50766" lon="6.76599">
        <ele>392</ele>
        <time>2016-01-31T08:23:59.000Z</time>
      </trkpt>
      <trkpt lat="47.50764" lon="6.76599">
        <ele>392</ele>
        <time>2016-01-31T08:24:00.000Z</time>
      </trkpt>
      <trkpt lat="47.50761" lon="6.76599">
        <ele>392</ele>
        <time>2016-01-31T08:24:01.000Z</time>
      </trkpt>
      <trkpt lat="47.50759" lon="6.76599">
        <ele>392</ele>
        <time>2016-01-31T08:24:02.000Z</time>
      </trkpt>
      <trkpt lat="47.50756" lon="6.76599">
        <ele>392</ele>
        <time>2016-01-31T08:24:03.000Z</time>
      </trkpt>
      <trkpt lat="47.50753" lon="6.76599">
        <ele>392</ele>
        <time>2016-01-31T08:24:04.000Z</time>
      </trkpt>
      <trkpt lat="47.50751" lon="6.76599">
        <ele>392</ele>
        <time>2016-01-31T08:24:05.000Z</time>
      </trkpt>
      <trkpt lat="47.50748" lon="6.76599">
        <ele>394</ele>
        <time>2016-01-31T08:24:06.000Z</time>
      </trkpt>
      <trkpt lat="47.50746" lon="6.76599">
        <ele>394</ele>
        <time>2016-01-31T08:24:07.000Z</time>
      </trkpt>
      <trkpt lat="47.50743" lon="6.76598">
        <ele>394</ele>
        <time>2016-01-31T08:24:08.000Z</time>
      </trkpt>
      <trkpt lat="47.5074" lon="6.76598">
        <ele>394</ele>
        <time>2016-01-31T08:24:09.000Z</time>
      </trkpt>
      <trkpt lat="47.50737" lon="6.76597">
        <ele>394</ele>
        <time>2016-01-31T08:24:10.000Z</time>
      </trkpt>
      <trkpt lat="47.50733" lon="6.76597">
        <ele>394</ele>
        <time>2016-01-31T08:24:11.000Z</time>
      </trkpt>
      <trkpt lat="47.5073" lon="6.76596">
        <ele>394</ele>
        <time>2016-01-31T08:24:12.000Z</time>
      </trkpt>
      <trkpt lat="47.50727" lon="6.76595">
        <ele>394</ele>
        <time>2016-01-31T08:24:13.000Z</time>
      </trkpt>
      <trkpt lat="47.50724" lon="6.76594">
        <ele>394</ele>
        <time>2016-01-31T08:24:14.000Z</time>
      </trkpt>
      <trkpt lat="47.50721" lon="6.76594">
        <ele>394</ele>
        <time>2016-01-31T08:24:15.000Z</time>
      </trkpt>
      <trkpt lat="47.50717" lon="6.76594">
        <ele>394</ele>
        <time>2016-01-31T08:24:16.000Z</time>
      </trkpt>
      <trkpt lat="47.50714" lon="6.76593">
        <ele>395</ele>
        <time>2016-01-31T08:24:17.000Z</time>
      </trkpt>
      <trkpt lat="47.50711" lon="6.76593">
        <ele>395</ele>
        <time>2016-01-31T08:24:18.000Z</time>
      </trkpt>
      <trkpt lat="47.50708" lon="6.76593">
        <ele>395</ele>
        <time>2016-01-31T08:24:18.999Z</time>
      </trkpt>
      <trkpt lat="47.50705" lon="6.76592">
        <ele>395</ele>
        <time>2016-01-31T08:24:20.000Z</time>
      </trkpt>
      <trkpt lat="47.50702" lon="6.76591">
        <ele>395</ele>
        <time>2016-01-31T08:24:21.000Z</time>
      </trkpt>
      <trkpt lat="47.50699" lon="6.76591">
        <ele>395</ele>
        <time>2016-01-31T08:24:22.000Z</time>
      </trkpt>
      <trkpt lat="47.50696" lon="6.76591">
        <ele>395</ele>
        <time>2016-01-31T08:24:23.000Z</time>
      </trkpt>
      <trkpt lat="47.50693" lon="6.76591">
        <ele>395</ele>
        <time>2016-01-31T08:24:24.000Z</time>
      </trkpt>
      <trkpt lat="47.5069" lon="6.76591">
        <ele>395</ele>
        <time>2016-01-31T08:24:25.000Z</time>
      </trkpt>
      <trkpt lat="47.50687" lon="6.76591">
        <ele>395</ele>
        <time>2016-01-31T08:24:25.999Z</time>
      </trkpt>
      <trkpt lat="47.50683" lon="6.76592">
        <ele>396</ele>
        <time>2016-01-31T08:24:27.000Z</time>
      </trkpt>
      <trkpt lat="47.5068" lon="6.76592">
        <ele>396</ele>
        <time>2016-01-31T08:24:28.000Z</time>
      </trkpt>
      <trkpt lat="47.50677" lon="6.76593">
        <ele>396</ele>
        <time>2016-01-31T08:24:28.999Z</time>
      </trkpt>
      <trkpt lat="47.50674" lon="6.76593">
        <ele>396</ele>
        <time>2016-01-31T08:24:30.000Z</time>
      </trkpt>
      <trkpt lat="47.50671" lon="6.76594">
        <ele>396</ele>
        <time>2016-01-31T08:24:31.000Z</time>
      </trkpt>
      <trkpt lat="47.50668" lon="6.76594">
        <ele>396</ele>
        <time>2016-01-31T08:24:31.999Z</time>
      </trkpt>
      <trkpt lat="47.50665" lon="6.76595">
        <ele>397</ele>
        <time>2016-01-31T08:24:33.000Z</time>
      </trkpt>
      <trkpt lat="47.50661" lon="6.76596">
        <ele>397</ele>
        <time>2016-01-31T08:24:34.000Z</time>
      </trkpt>
      <trkpt lat="47.50658" lon="6.76597">
        <ele>397</ele>
        <time>2016-01-31T08:24:35.000Z</time>
      </trkpt>
      <trkpt lat="47.50655" lon="6.76597">
        <ele>397</ele>
        <time>2016-01-31T08:24:36.000Z</time>
      </trkpt>
      <trkpt lat="47.50652" lon="6.76597">
        <ele>397</ele>
        <time>2016-01-31T08:24:37.000Z</time>
      </trkpt>
      <trkpt lat="47.50649" lon="6.76598">
        <ele>397</ele>
        <time>2016-01-31T08:24:38.000Z</time>
      </trkpt>
      <trkpt lat="47.50646" lon="6.76598">
        <ele>397</ele>
        <time>2016-01-31T08:24:39.001Z</time>
      </trkpt>
      <trkpt lat="47.50644" lon="6.76599">
        <ele>397</ele>
        <time>2016-01-31T08:24:40.000Z</time>
      </trkpt>
      <trkpt lat="47.50641" lon="6.766">
        <ele>397</ele>
        <time>2016-01-31T08:24:41.000Z</time>
      </trkpt>
      <trkpt lat="47.50638" lon="6.76601">
        <ele>397</ele>
        <time>2016-01-31T08:24:42.002Z</time>
      </trkpt>
      <trkpt lat="47.50635" lon="6.76603">
        <ele>397</ele>
        <time>2016-01-31T08:24:43.000Z</time>
      </trkpt>
      <trkpt lat="47.50633" lon="6.76604">
        <ele>397</ele>
        <time>2016-01-31T08:24:44.000Z</time>
      </trkpt>
      <trkpt lat="47.5063" lon="6.76606">
        <ele>397</ele>
        <time>2016-01-31T08:24:45.000Z</time>
      </trkpt>
      <trkpt lat="47.50628" lon="6.76609">
        <ele>397</ele>
        <time>2016-01-31T08:24:46.000Z</time>
      </trkpt>
      <trkpt lat="47.50625" lon="6.76611">
        <ele>397</ele>
        <time>2016-01-31T08:24:47.000Z</time>
      </trkpt>
      <trkpt lat="47.50623" lon="6.76613">
        <ele>397</ele>
        <time>2016-01-31T08:24:48.000Z</time>
      </trkpt>
      <trkpt lat="47.5062" lon="6.76615">
        <ele>397</ele>
        <time>2016-01-31T08:24:49.000Z</time>
      </trkpt>
      <trkpt lat="47.50617" lon="6.76616">
        <ele>397</ele>
        <time>2016-01-31T08:24:50.000Z</time>
      </trkpt>
      <trkpt lat="47.50614" lon="6.76618">
        <ele>397</ele>
        <time>2016-01-31T08:24:51.000Z</time>
      </trkpt>
      <trkpt lat="47.50612" lon="6.76619">
        <ele>397</ele>
        <time>2016-01-31T08:24:52.000Z</time>
      </trkpt>
      <trkpt lat="47.50609" lon="6.76619">
        <ele>398</ele>
        <time>2016-01-31T08:24:53.000Z</time>
      </trkpt>
      <trkpt lat="47.50607" lon="6.76619">
        <ele>398</ele>
        <time>2016-01-31T08:24:54.000Z</time>
      </trkpt>
      <trkpt lat="47.50605" lon="6.76619">
        <ele>398</ele>
        <time>2016-01-31T08:24:55.000Z</time>
      </trkpt>
      <trkpt lat="47.50602" lon="6.7662">
        <ele>398</ele>
        <time>2016-01-31T08:24:56.000Z</time>
      </trkpt>
      <trkpt lat="47.50599" lon="6.76622">
        <ele>398</ele>
        <time>2016-01-31T08:24:57.000Z</time>
      </trkpt>
      <trkpt lat="47.50597" lon="6.76623">
        <ele>398</ele>
        <time>2016-01-31T08:24:58.002Z</time>
      </trkpt>
      <trkpt lat="47.50594" lon="6.76623">
        <ele>398</ele>
        <time>2016-01-31T08:24:58.999Z</time>
      </trkpt>
      <trkpt lat="47.50592" lon="6.76624">
        <ele>398</ele>
        <time>2016-01-31T08:25:00.000Z</time>
      </trkpt>
      <trkpt lat="47.50589" lon="6.76624">
        <ele>398</ele>
        <time>2016-01-31T08:25:01.000Z</time>
      </trkpt>
      <trkpt lat="47.50586" lon="6.76625">
        <ele>398</ele>
        <time>2016-01-31T08:25:02.000Z</time>
      </trkpt>
      <trkpt lat="47.50583" lon="6.76626">
        <ele>399</ele>
        <time>2016-01-31T08:25:03.000Z</time>
      </trkpt>
      <trkpt lat="47.5058" lon="6.76627">
        <ele>399</ele>
        <time>2016-01-31T08:25:04.000Z</time>
      </trkpt>
      <trkpt lat="47.50577" lon="6.76628">
        <ele>399</ele>
        <time>2016-01-31T08:25:05.000Z</time>
      </trkpt>
      <trkpt lat="47.50574" lon="6.76628">
        <ele>399</ele>
        <time>2016-01-31T08:25:06.000Z</time>
      </trkpt>
      <trkpt lat="47.50571" lon="6.76629">
        <ele>399</ele>
        <time>2016-01-31T08:25:07.001Z</time>
      </trkpt>
      <trkpt lat="47.50568" lon="6.76629">
        <ele>399</ele>
        <time>2016-01-31T08:25:08.000Z</time>
      </trkpt>
      <trkpt lat="47.50565" lon="6.7663">
        <ele>399</ele>
        <time>2016-01-31T08:25:09.000Z</time>
      </trkpt>
      <trkpt lat="47.50562" lon="6.7663">
        <ele>399</ele>
        <time>2016-01-31T08:25:10.000Z</time>
      </trkpt>
      <trkpt lat="47.50559" lon="6.76631">
        <ele>399</ele>
        <time>2016-01-31T08:25:11.000Z</time>
      </trkpt>
      <trkpt lat="47.50556" lon="6.76632">
        <ele>399</ele>
        <time>2016-01-31T08:25:12.000Z</time>
      </trkpt>
      <trkpt lat="47.50553" lon="6.76633">
        <ele>399</ele>
        <time>2016-01-31T08:25:13.000Z</time>
      </trkpt>
      <trkpt lat="47.5055" lon="6.76634">
        <ele>399</ele>
        <time>2016-01-31T08:25:14.000Z</time>
      </trkpt>
      <trkpt lat="47.50547" lon="6.76635">
        <ele>399</ele>
        <time>2016-01-31T08:25:15.000Z</time>
      </trkpt>
      <trkpt lat="47.50544" lon="6.76636">
        <ele>399</ele>
        <time>2016-01-31T08:25:16.000Z</time>
      </trkpt>
      <trkpt lat="47.50541" lon="6.76638">
        <ele>399</ele>
        <time>2016-01-31T08:25:17.000Z</time>
      </trkpt>
      <trkpt lat="47.50538" lon="6.76639">
        <ele>399</ele>
        <time>2016-01-31T08:25:18.000Z</time>
      </trkpt>
      <trkpt lat="47.50534" lon="6.76641">
        <ele>399</ele>
        <time>2016-01-31T08:25:19.000Z</time>
      </trkpt>
      <trkpt lat="47.50531" lon="6.76642">
        <ele>399</ele>
        <time>2016-01-31T08:25:20.000Z</time>
      </trkpt>
      <trkpt lat="47.50527" lon="6.76644">
        <ele>399</ele>
        <time>2016-01-31T08:25:21.000Z</time>
      </trkpt>
      <trkpt lat="47.50524" lon="6.76646">
        <ele>399</ele>
        <time>2016-01-31T08:25:22.000Z</time>
      </trkpt>
      <trkpt lat="47.5052" lon="6.76648">
        <ele>399</ele>
        <time>2016-01-31T08:25:23.000Z</time>
      </trkpt>
      <trkpt lat="47.50517" lon="6.7665">
        <ele>399</ele>
        <time>2016-01-31T08:25:24.000Z</time>
      </trkpt>
      <trkpt lat="47.50513" lon="6.76651">
        <ele>399</ele>
        <time>2016-01-31T08:25:25.000Z</time>
      </trkpt>
      <trkpt lat="47.5051" lon="6.76652">
        <ele>399</ele>
        <time>2016-01-31T08:25:26.000Z</time>
      </trkpt>
      <trkpt lat="47.50506" lon="6.76653">
        <ele>399</ele>
        <time>2016-01-31T08:25:27.000Z</time>
      </trkpt>
      <trkpt lat="47.50503" lon="6.76654">
        <ele>399</ele>
        <time>2016-01-31T08:25:28.000Z</time>
      </trkpt>
      <trkpt lat="47.50499" lon="6.76655">
        <ele>399</ele>
        <time>2016-01-31T08:25:29.000Z</time>
      </trkpt>
      <trkpt lat="47.50496" lon="6.76656">
        <ele>399</ele>
        <time>2016-01-31T08:25:30.000Z</time>
      </trkpt>
      <trkpt lat="47.50492" lon="6.76657">
        <ele>399</ele>
        <time>2016-01-31T08:25:31.000Z</time>
      </trkpt>
      <trkpt lat="47.50488" lon="6.76659">
        <ele>399</ele>
        <time>2016-01-31T08:25:32.000Z</time>
      </trkpt>
      <trkpt lat="47.50484" lon="6.7666">
        <ele>399</ele>
        <time>2016-01-31T08:25:33.000Z</time>
      </trkpt>
      <trkpt lat="47.5048" lon="6.76662">
        <ele>399</ele>
        <time>2016-01-31T08:25:34.000Z</time>
      </trkpt>
      <trkpt lat="47.50475" lon="6.76664">
        <ele>398</ele>
        <time>2016-01-31T08:25:35.000Z</time>
      </trkpt>
      <trkpt lat="47.50471" lon="6.76665">
        <ele>398</ele>
        <time>2016-01-31T08:25:36.000Z</time>
      </trkpt>
      <trkpt lat="47.50467" lon="6.76667">
        <ele>397</ele>
        <time>2016-01-31T08:25:37.000Z</time>
      </trkpt>
      <trkpt lat="47.50463" lon="6.76669">
        <ele>397</ele>
        <time>2016-01-31T08:25:38.000Z</time>
      </trkpt>
      <trkpt lat="47.50459" lon="6.76671">
        <ele>397</ele>
        <time>2016-01-31T08:25:39.000Z</time>
      </trkpt>
      <trkpt lat="47.50455" lon="6.76673">
        <ele>397</ele>
        <time>2016-01-31T08:25:40.000Z</time>
      </trkpt>
      <trkpt lat="47.50451" lon="6.76674">
        <ele>397</ele>
        <time>2016-01-31T08:25:41.000Z</time>
      </trkpt>
      <trkpt lat="47.50448" lon="6.76674">
        <ele>397</ele>
        <time>2016-01-31T08:25:42.000Z</time>
      </trkpt>
      <trkpt lat="47.50444" lon="6.76675">
        <ele>397</ele>
        <time>2016-01-31T08:25:43.000Z</time>
      </trkpt>
      <trkpt lat="47.50441" lon="6.76677">
        <ele>397</ele>
        <time>2016-01-31T08:25:44.000Z</time>
      </trkpt>
      <trkpt lat="47.50437" lon="6.76679">
        <ele>397</ele>
        <time>2016-01-31T08:25:45.000Z</time>
      </trkpt>
      <trkpt lat="47.50433" lon="6.7668">
        <ele>397</ele>
        <time>2016-01-31T08:25:46.000Z</time>
      </trkpt>
      <trkpt lat="47.5043" lon="6.76682">
        <ele>397</ele>
        <time>2016-01-31T08:25:47.000Z</time>
      </trkpt>
      <trkpt lat="47.50426" lon="6.76683">
        <ele>397</ele>
        <time>2016-01-31T08:25:48.000Z</time>
      </trkpt>
      <trkpt lat="47.50423" lon="6.76684">
        <ele>397</ele>
        <time>2016-01-31T08:25:49.000Z</time>
      </trkpt>
      <trkpt lat="47.50419" lon="6.76686">
        <ele>397</ele>
        <time>2016-01-31T08:25:50.000Z</time>
      </trkpt>
      <trkpt lat="47.50416" lon="6.76688">
        <ele>397</ele>
        <time>2016-01-31T08:25:51.000Z</time>
      </trkpt>
      <trkpt lat="47.50412" lon="6.76689">
        <ele>397</ele>
        <time>2016-01-31T08:25:52.000Z</time>
      </trkpt>
      <trkpt lat="47.50409" lon="6.76691">
        <ele>397</ele>
        <time>2016-01-31T08:25:53.000Z</time>
      </trkpt>
      <trkpt lat="47.50406" lon="6.76692">
        <ele>397</ele>
        <time>2016-01-31T08:25:54.000Z</time>
      </trkpt>
      <trkpt lat="47.50403" lon="6.76693">
        <ele>397</ele>
        <time>2016-01-31T08:25:55.000Z</time>
      </trkpt>
      <trkpt lat="47.504" lon="6.76695">
        <ele>397</ele>
        <time>2016-01-31T08:25:56.000Z</time>
      </trkpt>
      <trkpt lat="47.50398" lon="6.76697">
        <ele>397</ele>
        <time>2016-01-31T08:25:57.000Z</time>
      </trkpt>
      <trkpt lat="47.50395" lon="6.76699">
        <ele>397</ele>
        <time>2016-01-31T08:25:58.000Z</time>
      </trkpt>
      <trkpt lat="47.5039" lon="6.76704">
        <ele>397</ele>
        <time>2016-01-31T08:26:00.000Z</time>
      </trkpt>
      <trkpt lat="47.50386" lon="6.76707">
        <ele>397</ele>
        <time>2016-01-31T08:26:01.000Z</time>
      </trkpt>
      <trkpt lat="47.50383" lon="6.76709">
        <ele>398</ele>
        <time>2016-01-31T08:26:02.000Z</time>
      </trkpt>
      <trkpt lat="47.5038" lon="6.76711">
        <ele>398</ele>
        <time>2016-01-31T08:26:03.000Z</time>
      </trkpt>
      <trkpt lat="47.50377" lon="6.76713">
        <ele>398</ele>
        <time>2016-01-31T08:26:04.000Z</time>
      </trkpt>
      <trkpt lat="47.50374" lon="6.76713">
        <ele>398</ele>
        <time>2016-01-31T08:26:05.000Z</time>
      </trkpt>
      <trkpt lat="47.50371" lon="6.76715">
        <ele>398</ele>
        <time>2016-01-31T08:26:06.000Z</time>
      </trkpt>
      <trkpt lat="47.50368" lon="6.76716">
        <ele>398</ele>
        <time>2016-01-31T08:26:07.000Z</time>
      </trkpt>
      <trkpt lat="47.50365" lon="6.76717">
        <ele>398</ele>
        <time>2016-01-31T08:26:08.000Z</time>
      </trkpt>
      <trkpt lat="47.50361" lon="6.76719">
        <ele>398</ele>
        <time>2016-01-31T08:26:09.000Z</time>
      </trkpt>
      <trkpt lat="47.50358" lon="6.76721">
        <ele>398</ele>
        <time>2016-01-31T08:26:10.000Z</time>
      </trkpt>
      <trkpt lat="47.50354" lon="6.76723">
        <ele>398</ele>
        <time>2016-01-31T08:26:11.000Z</time>
      </trkpt>
      <trkpt lat="47.50351" lon="6.76724">
        <ele>398</ele>
        <time>2016-01-31T08:26:12.000Z</time>
      </trkpt>
      <trkpt lat="47.50347" lon="6.76725">
        <ele>398</ele>
        <time>2016-01-31T08:26:13.000Z</time>
      </trkpt>
      <trkpt lat="47.50343" lon="6.76726">
        <ele>398</ele>
        <time>2016-01-31T08:26:14.000Z</time>
      </trkpt>
      <trkpt lat="47.5034" lon="6.76727">
        <ele>398</ele>
        <time>2016-01-31T08:26:15.000Z</time>
      </trkpt>
      <trkpt lat="47.50336" lon="6.76728">
        <ele>398</ele>
        <time>2016-01-31T08:26:16.000Z</time>
      </trkpt>
      <trkpt lat="47.50332" lon="6.76729">
        <ele>398</ele>
        <time>2016-01-31T08:26:17.000Z</time>
      </trkpt>
      <trkpt lat="47.50329" lon="6.7673">
        <ele>398</ele>
        <time>2016-01-31T08:26:18.000Z</time>
      </trkpt>
      <trkpt lat="47.50326" lon="6.76733">
        <ele>398</ele>
        <time>2016-01-31T08:26:19.000Z</time>
      </trkpt>
      <trkpt lat="47.50323" lon="6.76735">
        <ele>398</ele>
        <time>2016-01-31T08:26:20.000Z</time>
      </trkpt>
      <trkpt lat="47.5032" lon="6.76737">
        <ele>398</ele>
        <time>2016-01-31T08:26:21.000Z</time>
      </trkpt>
      <trkpt lat="47.50318" lon="6.76739">
        <ele>398</ele>
        <time>2016-01-31T08:26:22.000Z</time>
      </trkpt>
      <trkpt lat="47.50315" lon="6.76741">
        <ele>398</ele>
        <time>2016-01-31T08:26:23.000Z</time>
      </trkpt>
      <trkpt lat="47.50311" lon="6.76742">
        <ele>398</ele>
        <time>2016-01-31T08:26:24.000Z</time>
      </trkpt>
      <trkpt lat="47.50308" lon="6.76744">
        <ele>398</ele>
        <time>2016-01-31T08:26:25.000Z</time>
      </trkpt>
      <trkpt lat="47.50304" lon="6.76745">
        <ele>398</ele>
        <time>2016-01-31T08:26:26.000Z</time>
      </trkpt>
      <trkpt lat="47.50301" lon="6.76746">
        <ele>399</ele>
        <time>2016-01-31T08:26:27.000Z</time>
      </trkpt>
      <trkpt lat="47.50297" lon="6.76747">
        <ele>399</ele>
        <time>2016-01-31T08:26:28.000Z</time>
      </trkpt>
      <trkpt lat="47.50293" lon="6.76748">
        <ele>399</ele>
        <time>2016-01-31T08:26:29.000Z</time>
      </trkpt>
      <trkpt lat="47.5029" lon="6.76749">
        <ele>399</ele>
        <time>2016-01-31T08:26:30.000Z</time>
      </trkpt>
      <trkpt lat="47.50286" lon="6.7675">
        <ele>399</ele>
        <time>2016-01-31T08:26:31.000Z</time>
      </trkpt>
      <trkpt lat="47.50283" lon="6.76751">
        <ele>397</ele>
        <time>2016-01-31T08:26:32.000Z</time>
      </trkpt>
      <trkpt lat="47.50279" lon="6.76751">
        <ele>397</ele>
        <time>2016-01-31T08:26:33.000Z</time>
      </trkpt>
      <trkpt lat="47.50276" lon="6.76752">
        <ele>398</ele>
        <time>2016-01-31T08:26:34.000Z</time>
      </trkpt>
      <trkpt lat="47.50273" lon="6.76753">
        <ele>398</ele>
        <time>2016-01-31T08:26:35.000Z</time>
      </trkpt>
      <trkpt lat="47.5027" lon="6.76755">
        <ele>398</ele>
        <time>2016-01-31T08:26:36.000Z</time>
      </trkpt>
      <trkpt lat="47.50267" lon="6.76757">
        <ele>398</ele>
        <time>2016-01-31T08:26:37.000Z</time>
      </trkpt>
      <trkpt lat="47.50264" lon="6.76758">
        <ele>398</ele>
        <time>2016-01-31T08:26:38.000Z</time>
      </trkpt>
      <trkpt lat="47.50261" lon="6.7676">
        <ele>398</ele>
        <time>2016-01-31T08:26:39.000Z</time>
      </trkpt>
      <trkpt lat="47.50258" lon="6.76761">
        <ele>398</ele>
        <time>2016-01-31T08:26:40.000Z</time>
      </trkpt>
      <trkpt lat="47.50256" lon="6.76762">
        <ele>398</ele>
        <time>2016-01-31T08:26:41.000Z</time>
      </trkpt>
      <trkpt lat="47.50253" lon="6.76762">
        <ele>399</ele>
        <time>2016-01-31T08:26:42.000Z</time>
      </trkpt>
      <trkpt lat="47.5025" lon="6.76761">
        <ele>399</ele>
        <time>2016-01-31T08:26:43.000Z</time>
      </trkpt>
      <trkpt lat="47.50248" lon="6.76759">
        <ele>401</ele>
        <time>2016-01-31T08:26:44.000Z</time>
      </trkpt>
      <trkpt lat="47.50246" lon="6.76758">
        <ele>401</ele>
        <time>2016-01-31T08:26:45.000Z</time>
      </trkpt>
      <trkpt lat="47.50244" lon="6.76756">
        <ele>401</ele>
        <time>2016-01-31T08:26:46.000Z</time>
      </trkpt>
      <trkpt lat="47.50242" lon="6.76751">
        <ele>401</ele>
        <time>2016-01-31T08:26:48.000Z</time>
      </trkpt>
      <trkpt lat="47.50241" lon="6.76748">
        <ele>401</ele>
        <time>2016-01-31T08:26:49.000Z</time>
      </trkpt>
      <trkpt lat="47.5024" lon="6.76744">
        <ele>401</ele>
        <time>2016-01-31T08:26:50.000Z</time>
      </trkpt>
      <trkpt lat="47.50238" lon="6.7674">
        <ele>401</ele>
        <time>2016-01-31T08:26:51.000Z</time>
      </trkpt>
      <trkpt lat="47.50237" lon="6.76736">
        <ele>401</ele>
        <time>2016-01-31T08:26:52.000Z</time>
      </trkpt>
      <trkpt lat="47.50235" lon="6.76732">
        <ele>401</ele>
        <time>2016-01-31T08:26:53.000Z</time>
      </trkpt>
      <trkpt lat="47.50233" lon="6.76728">
        <ele>401</ele>
        <time>2016-01-31T08:26:54.000Z</time>
      </trkpt>
      <trkpt lat="47.50231" lon="6.76724">
        <ele>402</ele>
        <time>2016-01-31T08:26:55.000Z</time>
      </trkpt>
      <trkpt lat="47.50229" lon="6.76719">
        <ele>402</ele>
        <time>2016-01-31T08:26:56.000Z</time>
      </trkpt>
      <trkpt lat="47.50227" lon="6.76715">
        <ele>402</ele>
        <time>2016-01-31T08:26:57.000Z</time>
      </trkpt>
      <trkpt lat="47.50226" lon="6.7671">
        <ele>402</ele>
        <time>2016-01-31T08:26:58.000Z</time>
      </trkpt>
      <trkpt lat="47.50224" lon="6.76706">
        <ele>402</ele>
        <time>2016-01-31T08:26:59.000Z</time>
      </trkpt>
      <trkpt lat="47.50223" lon="6.76702">
        <ele>402</ele>
        <time>2016-01-31T08:27:00.000Z</time>
      </trkpt>
      <trkpt lat="47.50221" lon="6.76697">
        <ele>402</ele>
        <time>2016-01-31T08:27:01.000Z</time>
      </trkpt>
      <trkpt lat="47.5022" lon="6.76693">
        <ele>402</ele>
        <time>2016-01-31T08:27:02.000Z</time>
      </trkpt>
      <trkpt lat="47.50218" lon="6.76689">
        <ele>402</ele>
        <time>2016-01-31T08:27:03.000Z</time>
      </trkpt>
      <trkpt lat="47.50217" lon="6.76684">
        <ele>402</ele>
        <time>2016-01-31T08:27:04.000Z</time>
      </trkpt>
      <trkpt lat="47.50216" lon="6.7668">
        <ele>402</ele>
        <time>2016-01-31T08:27:05.000Z</time>
      </trkpt>
      <trkpt lat="47.50215" lon="6.76675">
        <ele>402</ele>
        <time>2016-01-31T08:27:06.000Z</time>
      </trkpt>
      <trkpt lat="47.50213" lon="6.76671">
        <ele>402</ele>
        <time>2016-01-31T08:27:07.000Z</time>
      </trkpt>
      <trkpt lat="47.50212" lon="6.76666">
        <ele>402</ele>
        <time>2016-01-31T08:27:08.000Z</time>
      </trkpt>
      <trkpt lat="47.5021" lon="6.76663">
        <ele>402</ele>
        <time>2016-01-31T08:27:09.001Z</time>
      </trkpt>
      <trkpt lat="47.50209" lon="6.7666">
        <ele>402</ele>
        <time>2016-01-31T08:27:10.000Z</time>
      </trkpt>
      <trkpt lat="47.50207" lon="6.76656">
        <ele>402</ele>
        <time>2016-01-31T08:27:10.999Z</time>
      </trkpt>
      <trkpt lat="47.50206" lon="6.76652">
        <ele>402</ele>
        <time>2016-01-31T08:27:12.000Z</time>
      </trkpt>
      <trkpt lat="47.50206" lon="6.76648">
        <ele>402</ele>
        <time>2016-01-31T08:27:13.000Z</time>
      </trkpt>
      <trkpt lat="47.50205" lon="6.76643">
        <ele>402</ele>
        <time>2016-01-31T08:27:14.000Z</time>
      </trkpt>
      <trkpt lat="47.50203" lon="6.76639">
        <ele>402</ele>
        <time>2016-01-31T08:27:14.999Z</time>
      </trkpt>
      <trkpt lat="47.50202" lon="6.76634">
        <ele>402</ele>
        <time>2016-01-31T08:27:16.000Z</time>
      </trkpt>
      <trkpt lat="47.50201" lon="6.76629">
        <ele>402</ele>
        <time>2016-01-31T08:27:17.000Z</time>
      </trkpt>
      <trkpt lat="47.502" lon="6.76625">
        <ele>402</ele>
        <time>2016-01-31T08:27:18.000Z</time>
      </trkpt>
      <trkpt lat="47.50198" lon="6.7662">
        <ele>402</ele>
        <time>2016-01-31T08:27:18.999Z</time>
      </trkpt>
      <trkpt lat="47.50197" lon="6.76615">
        <ele>403</ele>
        <time>2016-01-31T08:27:20.000Z</time>
      </trkpt>
      <trkpt lat="47.50196" lon="6.76611">
        <ele>403</ele>
        <time>2016-01-31T08:27:21.000Z</time>
      </trkpt>
      <trkpt lat="47.50195" lon="6.76607">
        <ele>403</ele>
        <time>2016-01-31T08:27:22.000Z</time>
      </trkpt>
      <trkpt lat="47.50195" lon="6.76603">
        <ele>403</ele>
        <time>2016-01-31T08:27:23.000Z</time>
      </trkpt>
      <trkpt lat="47.50195" lon="6.76599">
        <ele>403</ele>
        <time>2016-01-31T08:27:24.000Z</time>
      </trkpt>
      <trkpt lat="47.50196" lon="6.76595">
        <ele>403</ele>
        <time>2016-01-31T08:27:25.000Z</time>
      </trkpt>
      <trkpt lat="47.50196" lon="6.76592">
        <ele>403</ele>
        <time>2016-01-31T08:27:26.001Z</time>
      </trkpt>
      <trkpt lat="47.50196" lon="6.76588">
        <ele>403</ele>
        <time>2016-01-31T08:27:27.000Z</time>
      </trkpt>
      <trkpt lat="47.50196" lon="6.76582">
        <ele>403</ele>
        <time>2016-01-31T08:27:29.000Z</time>
      </trkpt>
      <trkpt lat="47.50196" lon="6.76579">
        <ele>403</ele>
        <time>2016-01-31T08:27:30.000Z</time>
      </trkpt>
      <trkpt lat="47.50196" lon="6.76576">
        <ele>402</ele>
        <time>2016-01-31T08:27:31.000Z</time>
      </trkpt>
      <trkpt lat="47.50198" lon="6.76573">
        <ele>402</ele>
        <time>2016-01-31T08:27:32.000Z</time>
      </trkpt>
      <trkpt lat="47.50201" lon="6.7657">
        <ele>402</ele>
        <time>2016-01-31T08:27:34.000Z</time>
      </trkpt>
      <trkpt lat="47.50203" lon="6.76568">
        <ele>402</ele>
        <time>2016-01-31T08:27:35.000Z</time>
      </trkpt>
      <trkpt lat="47.50205" lon="6.76565">
        <ele>401</ele>
        <time>2016-01-31T08:27:37.000Z</time>
      </trkpt>
      <trkpt lat="47.50206" lon="6.7656">
        <ele>401</ele>
        <time>2016-01-31T08:27:38.000Z</time>
      </trkpt>
      <trkpt lat="47.50206" lon="6.76555">
        <ele>401</ele>
        <time>2016-01-31T08:27:39.000Z</time>
      </trkpt>
      <trkpt lat="47.50208" lon="6.7655">
        <ele>401</ele>
        <time>2016-01-31T08:27:40.000Z</time>
      </trkpt>
      <trkpt lat="47.5021" lon="6.76545">
        <ele>401</ele>
        <time>2016-01-31T08:27:41.000Z</time>
      </trkpt>
      <trkpt lat="47.50214" lon="6.76542">
        <ele>400</ele>
        <time>2016-01-31T08:27:42.000Z</time>
      </trkpt>
      <trkpt lat="47.50217" lon="6.7654">
        <ele>400</ele>
        <time>2016-01-31T08:27:43.000Z</time>
      </trkpt>
      <trkpt lat="47.50219" lon="6.76538">
        <ele>400</ele>
        <time>2016-01-31T08:27:44.000Z</time>
      </trkpt>
      <trkpt lat="47.50221" lon="6.76534">
        <ele>400</ele>
        <time>2016-01-31T08:27:45.000Z</time>
      </trkpt>
      <trkpt lat="47.50221" lon="6.7653">
        <ele>399</ele>
        <time>2016-01-31T08:27:46.000Z</time>
      </trkpt>
      <trkpt lat="47.5022" lon="6.76524">
        <ele>399</ele>
        <time>2016-01-31T08:27:47.000Z</time>
      </trkpt>
      <trkpt lat="47.50219" lon="6.76519">
        <ele>399</ele>
        <time>2016-01-31T08:27:48.000Z</time>
      </trkpt>
      <trkpt lat="47.50217" lon="6.76513">
        <ele>399</ele>
        <time>2016-01-31T08:27:49.000Z</time>
      </trkpt>
      <trkpt lat="47.50214" lon="6.76507">
        <ele>399</ele>
        <time>2016-01-31T08:27:50.000Z</time>
      </trkpt>
      <trkpt lat="47.50211" lon="6.76501">
        <ele>400</ele>
        <time>2016-01-31T08:27:51.000Z</time>
      </trkpt>
      <trkpt lat="47.50205" lon="6.76492">
        <ele>397</ele>
        <time>2016-01-31T08:27:52.000Z</time>
      </trkpt>
      <trkpt lat="47.50201" lon="6.76485">
        <ele>397</ele>
        <time>2016-01-31T08:27:53.000Z</time>
      </trkpt>
      <trkpt lat="47.50198" lon="6.76476">
        <ele>397</ele>
        <time>2016-01-31T08:27:54.000Z</time>
      </trkpt>
      <trkpt lat="47.50194" lon="6.76467">
        <ele>397</ele>
        <time>2016-01-31T08:27:55.000Z</time>
      </trkpt>
      <trkpt lat="47.50192" lon="6.76459">
        <ele>397</ele>
        <time>2016-01-31T08:27:56.000Z</time>
      </trkpt>
      <trkpt lat="47.50189" lon="6.76452">
        <ele>397</ele>
        <time>2016-01-31T08:27:57.000Z</time>
      </trkpt>
      <trkpt lat="47.50187" lon="6.76442">
        <ele>396</ele>
        <time>2016-01-31T08:27:58.000Z</time>
      </trkpt>
      <trkpt lat="47.50185" lon="6.76433">
        <ele>397</ele>
        <time>2016-01-31T08:27:59.000Z</time>
      </trkpt>
      <trkpt lat="47.50182" lon="6.76426">
        <ele>397</ele>
        <time>2016-01-31T08:28:00.000Z</time>
      </trkpt>
      <trkpt lat="47.50179" lon="6.76414">
        <ele>395</ele>
        <time>2016-01-31T08:28:01.000Z</time>
      </trkpt>
      <trkpt lat="47.50177" lon="6.76404">
        <ele>394</ele>
        <time>2016-01-31T08:28:02.000Z</time>
      </trkpt>
      <trkpt lat="47.50174" lon="6.76397">
        <ele>393</ele>
        <time>2016-01-31T08:28:03.000Z</time>
      </trkpt>
      <trkpt lat="47.50171" lon="6.76389">
        <ele>392</ele>
        <time>2016-01-31T08:28:04.000Z</time>
      </trkpt>
      <trkpt lat="47.50168" lon="6.76381">
        <ele>392</ele>
        <time>2016-01-31T08:28:05.000Z</time>
      </trkpt>
      <trkpt lat="47.50166" lon="6.76375">
        <ele>400</ele>
        <time>2016-01-31T08:28:06.000Z</time>
      </trkpt>
      <trkpt lat="47.50164" lon="6.76369">
        <ele>399</ele>
        <time>2016-01-31T08:28:07.000Z</time>
      </trkpt>
      <trkpt lat="47.50161" lon="6.76363">
        <ele>399</ele>
        <time>2016-01-31T08:28:08.000Z</time>
      </trkpt>
      <trkpt lat="47.50159" lon="6.76356">
        <ele>398</ele>
        <time>2016-01-31T08:28:09.000Z</time>
      </trkpt>
      <trkpt lat="47.50156" lon="6.76348">
        <ele>397</ele>
        <time>2016-01-31T08:28:10.000Z</time>
      </trkpt>
      <trkpt lat="47.50154" lon="6.76339">
        <ele>396</ele>
        <time>2016-01-31T08:28:11.000Z</time>
      </trkpt>
      <trkpt lat="47.5015" lon="6.76331">
        <ele>394</ele>
        <time>2016-01-31T08:28:12.000Z</time>
      </trkpt>
      <trkpt lat="47.50148" lon="6.76323">
        <ele>395</ele>
        <time>2016-01-31T08:28:13.000Z</time>
      </trkpt>
      <trkpt lat="47.50146" lon="6.76314">
        <ele>395</ele>
        <time>2016-01-31T08:28:14.000Z</time>
      </trkpt>
      <trkpt lat="47.50146" lon="6.76302">
        <ele>395</ele>
        <time>2016-01-31T08:28:15.000Z</time>
      </trkpt>
      <trkpt lat="47.50142" lon="6.76294">
        <ele>396</ele>
        <time>2016-01-31T08:28:16.000Z</time>
      </trkpt>
      <trkpt lat="47.50139" lon="6.76284">
        <ele>395</ele>
        <time>2016-01-31T08:28:17.000Z</time>
      </trkpt>
      <trkpt lat="47.50137" lon="6.76277">
        <ele>395</ele>
        <time>2016-01-31T08:28:18.000Z</time>
      </trkpt>
      <trkpt lat="47.50136" lon="6.76271">
        <ele>395</ele>
        <time>2016-01-31T08:28:19.000Z</time>
      </trkpt>
      <trkpt lat="47.50135" lon="6.76264">
        <ele>395</ele>
        <time>2016-01-31T08:28:20.000Z</time>
      </trkpt>
      <trkpt lat="47.50134" lon="6.76257">
        <ele>395</ele>
        <time>2016-01-31T08:28:21.000Z</time>
      </trkpt>
      <trkpt lat="47.50131" lon="6.76245">
        <ele>391</ele>
        <time>2016-01-31T08:28:22.000Z</time>
      </trkpt>
      <trkpt lat="47.5013" lon="6.76235">
        <ele>391</ele>
        <time>2016-01-31T08:28:23.000Z</time>
      </trkpt>
      <trkpt lat="47.50129" lon="6.76226">
        <ele>391</ele>
        <time>2016-01-31T08:28:24.000Z</time>
      </trkpt>
      <trkpt lat="47.50127" lon="6.76218">
        <ele>391</ele>
        <time>2016-01-31T08:28:25.000Z</time>
      </trkpt>
      <trkpt lat="47.50126" lon="6.76209">
        <ele>390</ele>
        <time>2016-01-31T08:28:26.000Z</time>
      </trkpt>
      <trkpt lat="47.50125" lon="6.76202">
        <ele>390</ele>
        <time>2016-01-31T08:28:27.000Z</time>
      </trkpt>
      <trkpt lat="47.50123" lon="6.76195">
        <ele>390</ele>
        <time>2016-01-31T08:28:28.000Z</time>
      </trkpt>
      <trkpt lat="47.50122" lon="6.76185">
        <ele>390</ele>
        <time>2016-01-31T08:28:29.000Z</time>
      </trkpt>
      <trkpt lat="47.5012" lon="6.76175">
        <ele>390</ele>
        <time>2016-01-31T08:28:30.000Z</time>
      </trkpt>
      <trkpt lat="47.50118" lon="6.76166">
        <ele>386</ele>
        <time>2016-01-31T08:28:31.000Z</time>
      </trkpt>
      <trkpt lat="47.50116" lon="6.76156">
        <ele>386</ele>
        <time>2016-01-31T08:28:32.000Z</time>
      </trkpt>
      <trkpt lat="47.50114" lon="6.76147">
        <ele>386</ele>
        <time>2016-01-31T08:28:33.000Z</time>
      </trkpt>
      <trkpt lat="47.50111" lon="6.76136">
        <ele>386</ele>
        <time>2016-01-31T08:28:34.000Z</time>
      </trkpt>
      <trkpt lat="47.5011" lon="6.76126">
        <ele>386</ele>
        <time>2016-01-31T08:28:35.000Z</time>
      </trkpt>
      <trkpt lat="47.50107" lon="6.76115">
        <ele>385</ele>
        <time>2016-01-31T08:28:36.000Z</time>
      </trkpt>
      <trkpt lat="47.50105" lon="6.76105">
        <ele>386</ele>
        <time>2016-01-31T08:28:37.000Z</time>
      </trkpt>
      <trkpt lat="47.50104" lon="6.76095">
        <ele>386</ele>
        <time>2016-01-31T08:28:38.000Z</time>
      </trkpt>
      <trkpt lat="47.50102" lon="6.76082">
        <ele>383</ele>
        <time>2016-01-31T08:28:39.000Z</time>
      </trkpt>
      <trkpt lat="47.50099" lon="6.76068">
        <ele>383</ele>
        <time>2016-01-31T08:28:40.000Z</time>
      </trkpt>
      <trkpt lat="47.50096" lon="6.76053">
        <ele>381</ele>
        <time>2016-01-31T08:28:41.000Z</time>
      </trkpt>
      <trkpt lat="47.50093" lon="6.76039">
        <ele>380</ele>
        <time>2016-01-31T08:28:42.000Z</time>
      </trkpt>
      <trkpt lat="47.50089" lon="6.76028">
        <ele>380</ele>
        <time>2016-01-31T08:28:43.000Z</time>
      </trkpt>
      <trkpt lat="47.50088" lon="6.76022">
        <ele>380</ele>
        <time>2016-01-31T08:28:44.000Z</time>
      </trkpt>
      <trkpt lat="47.50086" lon="6.76015">
        <ele>380</ele>
        <time>2016-01-31T08:28:45.000Z</time>
      </trkpt>
      <trkpt lat="47.50083" lon="6.76007">
        <ele>380</ele>
        <time>2016-01-31T08:28:46.000Z</time>
      </trkpt>
      <trkpt lat="47.50081" lon="6.76003">
        <ele>381</ele>
        <time>2016-01-31T08:28:47.000Z</time>
      </trkpt>
      <trkpt lat="47.50078" lon="6.75997">
        <ele>380</ele>
        <time>2016-01-31T08:28:48.000Z</time>
      </trkpt>
      <trkpt lat="47.50075" lon="6.75989">
        <ele>379</ele>
        <time>2016-01-31T08:28:49.000Z</time>
      </trkpt>
      <trkpt lat="47.50071" lon="6.75981">
        <ele>379</ele>
        <time>2016-01-31T08:28:50.000Z</time>
      </trkpt>
      <trkpt lat="47.50067" lon="6.75972">
        <ele>379</ele>
        <time>2016-01-31T08:28:51.000Z</time>
      </trkpt>
      <trkpt lat="47.50063" lon="6.75963">
        <ele>379</ele>
        <time>2016-01-31T08:28:52.000Z</time>
      </trkpt>
      <trkpt lat="47.50057" lon="6.75956">
        <ele>378</ele>
        <time>2016-01-31T08:28:53.000Z</time>
      </trkpt>
      <trkpt lat="47.50054" lon="6.75947">
        <ele>378</ele>
        <time>2016-01-31T08:28:54.000Z</time>
      </trkpt>
      <trkpt lat="47.50049" lon="6.7594">
        <ele>378</ele>
        <time>2016-01-31T08:28:55.000Z</time>
      </trkpt>
      <trkpt lat="47.50045" lon="6.75933">
        <ele>378</ele>
        <time>2016-01-31T08:28:56.000Z</time>
      </trkpt>
      <trkpt lat="47.50039" lon="6.75927">
        <ele>378</ele>
        <time>2016-01-31T08:28:57.000Z</time>
      </trkpt>
      <trkpt lat="47.50034" lon="6.75921">
        <ele>378</ele>
        <time>2016-01-31T08:28:58.000Z</time>
      </trkpt>
      <trkpt lat="47.5003" lon="6.75915">
        <ele>376</ele>
        <time>2016-01-31T08:28:59.000Z</time>
      </trkpt>
      <trkpt lat="47.50025" lon="6.75908">
        <ele>377</ele>
        <time>2016-01-31T08:29:00.000Z</time>
      </trkpt>
      <trkpt lat="47.5002" lon="6.75901">
        <ele>377</ele>
        <time>2016-01-31T08:29:01.000Z</time>
      </trkpt>
      <trkpt lat="47.50015" lon="6.75893">
        <ele>377</ele>
        <time>2016-01-31T08:29:02.000Z</time>
      </trkpt>
      <trkpt lat="47.50009" lon="6.75886">
        <ele>377</ele>
        <time>2016-01-31T08:29:03.000Z</time>
      </trkpt>
      <trkpt lat="47.50004" lon="6.75877">
        <ele>377</ele>
        <time>2016-01-31T08:29:04.000Z</time>
      </trkpt>
      <trkpt lat="47.5" lon="6.75868">
        <ele>377</ele>
        <time>2016-01-31T08:29:05.000Z</time>
      </trkpt>
      <trkpt lat="47.49996" lon="6.7586">
        <ele>377</ele>
        <time>2016-01-31T08:29:06.000Z</time>
      </trkpt>
      <trkpt lat="47.49992" lon="6.75852">
        <ele>377</ele>
        <time>2016-01-31T08:29:07.000Z</time>
      </trkpt>
      <trkpt lat="47.49987" lon="6.75844">
        <ele>377</ele>
        <time>2016-01-31T08:29:08.000Z</time>
      </trkpt>
      <trkpt lat="47.49983" lon="6.75838">
        <ele>377</ele>
        <time>2016-01-31T08:29:09.000Z</time>
      </trkpt>
      <trkpt lat="47.49979" lon="6.75829">
        <ele>376</ele>
        <time>2016-01-31T08:29:10.000Z</time>
      </trkpt>
      <trkpt lat="47.49974" lon="6.75822">
        <ele>375</ele>
        <time>2016-01-31T08:29:11.000Z</time>
      </trkpt>
      <trkpt lat="47.49972" lon="6.75815">
        <ele>375</ele>
        <time>2016-01-31T08:29:12.000Z</time>
      </trkpt>
      <trkpt lat="47.49967" lon="6.75808">
        <ele>374</ele>
        <time>2016-01-31T08:29:13.000Z</time>
      </trkpt>
      <trkpt lat="47.49963" lon="6.75799">
        <ele>374</ele>
        <time>2016-01-31T08:29:14.000Z</time>
      </trkpt>
      <trkpt lat="47.49957" lon="6.75792">
        <ele>374</ele>
        <time>2016-01-31T08:29:15.000Z</time>
      </trkpt>
      <trkpt lat="47.4995" lon="6.75783">
        <ele>373</ele>
        <time>2016-01-31T08:29:16.000Z</time>
      </trkpt>
      <trkpt lat="47.49945" lon="6.75772">
        <ele>373</ele>
        <time>2016-01-31T08:29:17.000Z</time>
      </trkpt>
      <trkpt lat="47.49939" lon="6.75767">
        <ele>372</ele>
        <time>2016-01-31T08:29:18.000Z</time>
      </trkpt>
      <trkpt lat="47.49932" lon="6.75761">
        <ele>372</ele>
        <time>2016-01-31T08:29:19.000Z</time>
      </trkpt>
      <trkpt lat="47.49926" lon="6.75754">
        <ele>371</ele>
        <time>2016-01-31T08:29:20.000Z</time>
      </trkpt>
      <trkpt lat="47.4992" lon="6.75747">
        <ele>369</ele>
        <time>2016-01-31T08:29:21.000Z</time>
      </trkpt>
      <trkpt lat="47.49915" lon="6.75743">
        <ele>367</ele>
        <time>2016-01-31T08:29:22.000Z</time>
      </trkpt>
      <trkpt lat="47.49909" lon="6.7574">
        <ele>367</ele>
        <time>2016-01-31T08:29:23.000Z</time>
      </trkpt>
      <trkpt lat="47.49902" lon="6.75738">
        <ele>366</ele>
        <time>2016-01-31T08:29:24.000Z</time>
      </trkpt>
      <trkpt lat="47.49897" lon="6.75737">
        <ele>365</ele>
        <time>2016-01-31T08:29:25.000Z</time>
      </trkpt>
      <trkpt lat="47.49891" lon="6.75737">
        <ele>364</ele>
        <time>2016-01-31T08:29:26.000Z</time>
      </trkpt>
      <trkpt lat="47.49884" lon="6.75739">
        <ele>364</ele>
        <time>2016-01-31T08:29:27.000Z</time>
      </trkpt>
      <trkpt lat="47.49875" lon="6.75739">
        <ele>363</ele>
        <time>2016-01-31T08:29:28.000Z</time>
      </trkpt>
      <trkpt lat="47.49868" lon="6.75739">
        <ele>362</ele>
        <time>2016-01-31T08:29:29.000Z</time>
      </trkpt>
      <trkpt lat="47.49861" lon="6.75739">
        <ele>362</ele>
        <time>2016-01-31T08:29:30.000Z</time>
      </trkpt>
      <trkpt lat="47.49851" lon="6.75737">
        <ele>361</ele>
        <time>2016-01-31T08:29:31.000Z</time>
      </trkpt>
      <trkpt lat="47.49842" lon="6.75736">
        <ele>361</ele>
        <time>2016-01-31T08:29:32.000Z</time>
      </trkpt>
      <trkpt lat="47.49833" lon="6.75739">
        <ele>356</ele>
        <time>2016-01-31T08:29:33.000Z</time>
      </trkpt>
      <trkpt lat="47.49825" lon="6.75741">
        <ele>356</ele>
        <time>2016-01-31T08:29:34.000Z</time>
      </trkpt>
      <trkpt lat="47.49817" lon="6.75743">
        <ele>355</ele>
        <time>2016-01-31T08:29:35.000Z</time>
      </trkpt>
      <trkpt lat="47.49809" lon="6.75744">
        <ele>354</ele>
        <time>2016-01-31T08:29:36.000Z</time>
      </trkpt>
      <trkpt lat="47.49801" lon="6.75746">
        <ele>353</ele>
        <time>2016-01-31T08:29:37.000Z</time>
      </trkpt>
      <trkpt lat="47.49792" lon="6.75746">
        <ele>352</ele>
        <time>2016-01-31T08:29:38.000Z</time>
      </trkpt>
      <trkpt lat="47.49784" lon="6.75752">
        <ele>358</ele>
        <time>2016-01-31T08:29:39.000Z</time>
      </trkpt>
      <trkpt lat="47.49774" lon="6.75756">
        <ele>357</ele>
        <time>2016-01-31T08:29:40.000Z</time>
      </trkpt>
      <trkpt lat="47.49764" lon="6.75758">
        <ele>356</ele>
        <time>2016-01-31T08:29:41.000Z</time>
      </trkpt>
      <trkpt lat="47.49758" lon="6.75759">
        <ele>355</ele>
        <time>2016-01-31T08:29:42.000Z</time>
      </trkpt>
      <trkpt lat="47.4975" lon="6.75762">
        <ele>355</ele>
        <time>2016-01-31T08:29:43.000Z</time>
      </trkpt>
      <trkpt lat="47.49743" lon="6.75764">
        <ele>353</ele>
        <time>2016-01-31T08:29:44.000Z</time>
      </trkpt>
      <trkpt lat="47.49733" lon="6.75766">
        <ele>353</ele>
        <time>2016-01-31T08:29:45.000Z</time>
      </trkpt>
      <trkpt lat="47.49724" lon="6.75768">
        <ele>353</ele>
        <time>2016-01-31T08:29:46.000Z</time>
      </trkpt>
      <trkpt lat="47.49717" lon="6.75774">
        <ele>354</ele>
        <time>2016-01-31T08:29:47.000Z</time>
      </trkpt>
      <trkpt lat="47.49709" lon="6.75778">
        <ele>354</ele>
        <time>2016-01-31T08:29:48.000Z</time>
      </trkpt>
      <trkpt lat="47.49703" lon="6.75779">
        <ele>353</ele>
        <time>2016-01-31T08:29:49.000Z</time>
      </trkpt>
      <trkpt lat="47.49697" lon="6.75781">
        <ele>353</ele>
        <time>2016-01-31T08:29:50.000Z</time>
      </trkpt>
      <trkpt lat="47.49691" lon="6.75782">
        <ele>353</ele>
        <time>2016-01-31T08:29:51.000Z</time>
      </trkpt>
      <trkpt lat="47.49684" lon="6.75784">
        <ele>353</ele>
        <time>2016-01-31T08:29:52.000Z</time>
      </trkpt>
      <trkpt lat="47.49679" lon="6.75786">
        <ele>353</ele>
        <time>2016-01-31T08:29:53.000Z</time>
      </trkpt>
      <trkpt lat="47.49673" lon="6.75787">
        <ele>353</ele>
        <time>2016-01-31T08:29:54.000Z</time>
      </trkpt>
      <trkpt lat="47.49665" lon="6.75788">
        <ele>348</ele>
        <time>2016-01-31T08:29:55.000Z</time>
      </trkpt>
      <trkpt lat="47.4966" lon="6.75789">
        <ele>348</ele>
        <time>2016-01-31T08:29:56.000Z</time>
      </trkpt>
      <trkpt lat="47.49653" lon="6.75789">
        <ele>347</ele>
        <time>2016-01-31T08:29:57.000Z</time>
      </trkpt>
      <trkpt lat="47.49647" lon="6.7579">
        <ele>347</ele>
        <time>2016-01-31T08:29:58.000Z</time>
      </trkpt>
      <trkpt lat="47.49641" lon="6.75787">
        <ele>347</ele>
        <time>2016-01-31T08:29:59.000Z</time>
      </trkpt>
      <trkpt lat="47.49634" lon="6.75789">
        <ele>346</ele>
        <time>2016-01-31T08:30:00.000Z</time>
      </trkpt>
      <trkpt lat="47.49628" lon="6.75791">
        <ele>346</ele>
        <time>2016-01-31T08:30:01.000Z</time>
      </trkpt>
      <trkpt lat="47.4962" lon="6.75792">
        <ele>346</ele>
        <time>2016-01-31T08:30:02.000Z</time>
      </trkpt>
      <trkpt lat="47.49612" lon="6.75793">
        <ele>346</ele>
        <time>2016-01-31T08:30:03.000Z</time>
      </trkpt>
      <trkpt lat="47.49605" lon="6.7579">
        <ele>345</ele>
        <time>2016-01-31T08:30:04.000Z</time>
      </trkpt>
      <trkpt lat="47.49598" lon="6.75789">
        <ele>344</ele>
        <time>2016-01-31T08:30:05.000Z</time>
      </trkpt>
      <trkpt lat="47.49591" lon="6.75787">
        <ele>344</ele>
        <time>2016-01-31T08:30:06.000Z</time>
      </trkpt>
      <trkpt lat="47.49584" lon="6.75785">
        <ele>343</ele>
        <time>2016-01-31T08:30:07.000Z</time>
      </trkpt>
      <trkpt lat="47.49576" lon="6.75785">
        <ele>337</ele>
        <time>2016-01-31T08:30:08.000Z</time>
      </trkpt>
      <trkpt lat="47.49571" lon="6.75776">
        <ele>336</ele>
        <time>2016-01-31T08:30:09.000Z</time>
      </trkpt>
      <trkpt lat="47.49565" lon="6.75769">
        <ele>336</ele>
        <time>2016-01-31T08:30:10.000Z</time>
      </trkpt>
      <trkpt lat="47.4956" lon="6.75767">
        <ele>335</ele>
        <time>2016-01-31T08:30:11.000Z</time>
      </trkpt>
      <trkpt lat="47.4956" lon="6.7576">
        <ele>335</ele>
        <time>2016-01-31T08:30:12.000Z</time>
      </trkpt>
      <trkpt lat="47.49561" lon="6.75753">
        <ele>335</ele>
        <time>2016-01-31T08:30:13.000Z</time>
      </trkpt>
      <trkpt lat="47.49563" lon="6.7575">
        <ele>329</ele>
        <time>2016-01-31T08:30:14.000Z</time>
      </trkpt>
      <trkpt lat="47.49566" lon="6.75746">
        <ele>329</ele>
        <time>2016-01-31T08:30:15.000Z</time>
      </trkpt>
      <trkpt lat="47.49569" lon="6.75744">
        <ele>330</ele>
        <time>2016-01-31T08:30:16.000Z</time>
      </trkpt>
      <trkpt lat="47.49572" lon="6.75741">
        <ele>330</ele>
        <time>2016-01-31T08:30:17.000Z</time>
      </trkpt>
      <trkpt lat="47.49576" lon="6.75735">
        <ele>329</ele>
        <time>2016-01-31T08:30:18.000Z</time>
      </trkpt>
      <trkpt lat="47.49579" lon="6.75732">
        <ele>329</ele>
        <time>2016-01-31T08:30:19.000Z</time>
      </trkpt>
      <trkpt lat="47.49582" lon="6.75729">
        <ele>329</ele>
        <time>2016-01-31T08:30:20.000Z</time>
      </trkpt>
      <trkpt lat="47.49585" lon="6.75725">
        <ele>332</ele>
        <time>2016-01-31T08:30:21.000Z</time>
      </trkpt>
      <trkpt lat="47.49589" lon="6.75721">
        <ele>331</ele>
        <time>2016-01-31T08:30:22.000Z</time>
      </trkpt>
      <trkpt lat="47.49591" lon="6.75715">
        <ele>331</ele>
        <time>2016-01-31T08:30:23.000Z</time>
      </trkpt>
      <trkpt lat="47.49595" lon="6.75709">
        <ele>330</ele>
        <time>2016-01-31T08:30:24.000Z</time>
      </trkpt>
      <trkpt lat="47.49598" lon="6.75705">
        <ele>330</ele>
        <time>2016-01-31T08:30:25.000Z</time>
      </trkpt>
      <trkpt lat="47.49598" lon="6.75697">
        <ele>329</ele>
        <time>2016-01-31T08:30:26.000Z</time>
      </trkpt>
      <trkpt lat="47.49599" lon="6.75689">
        <ele>328</ele>
        <time>2016-01-31T08:30:27.000Z</time>
      </trkpt>
      <trkpt lat="47.49599" lon="6.75682">
        <ele>327</ele>
        <time>2016-01-31T08:30:27.999Z</time>
      </trkpt>
      <trkpt lat="47.4959" lon="6.75679">
        <ele>325</ele>
        <time>2016-01-31T08:30:29.000Z</time>
      </trkpt>
      <trkpt lat="47.49587" lon="6.75673">
        <ele>324</ele>
        <time>2016-01-31T08:30:30.000Z</time>
      </trkpt>
      <trkpt lat="47.49583" lon="6.75667">
        <ele>321</ele>
        <time>2016-01-31T08:30:31.000Z</time>
      </trkpt>
      <trkpt lat="47.49579" lon="6.75664">
        <ele>321</ele>
        <time>2016-01-31T08:30:32.000Z</time>
      </trkpt>
      <trkpt lat="47.49575" lon="6.75664">
        <ele>321</ele>
        <time>2016-01-31T08:30:33.000Z</time>
      </trkpt>
      <trkpt lat="47.49571" lon="6.75666">
        <ele>321</ele>
        <time>2016-01-31T08:30:34.000Z</time>
      </trkpt>
      <trkpt lat="47.49567" lon="6.75672">
        <ele>323</ele>
        <time>2016-01-31T08:30:35.000Z</time>
      </trkpt>
      <trkpt lat="47.49563" lon="6.75678">
        <ele>323</ele>
        <time>2016-01-31T08:30:36.000Z</time>
      </trkpt>
      <trkpt lat="47.49559" lon="6.75683">
        <ele>324</ele>
        <time>2016-01-31T08:30:37.000Z</time>
      </trkpt>
      <trkpt lat="47.49555" lon="6.75689">
        <ele>324</ele>
        <time>2016-01-31T08:30:38.000Z</time>
      </trkpt>
      <trkpt lat="47.49551" lon="6.75694">
        <ele>324</ele>
        <time>2016-01-31T08:30:39.000Z</time>
      </trkpt>
      <trkpt lat="47.49547" lon="6.757">
        <ele>325</ele>
        <time>2016-01-31T08:30:40.000Z</time>
      </trkpt>
      <trkpt lat="47.49543" lon="6.75705">
        <ele>325</ele>
        <time>2016-01-31T08:30:41.000Z</time>
      </trkpt>
      <trkpt lat="47.49539" lon="6.75709">
        <ele>325</ele>
        <time>2016-01-31T08:30:42.000Z</time>
      </trkpt>
      <trkpt lat="47.49534" lon="6.75714">
        <ele>325</ele>
        <time>2016-01-31T08:30:43.000Z</time>
      </trkpt>
      <trkpt lat="47.49529" lon="6.75718">
        <ele>325</ele>
        <time>2016-01-31T08:30:44.000Z</time>
      </trkpt>
      <trkpt lat="47.49525" lon="6.75722">
        <ele>325</ele>
        <time>2016-01-31T08:30:45.000Z</time>
      </trkpt>
      <trkpt lat="47.4952" lon="6.75725">
        <ele>325</ele>
        <time>2016-01-31T08:30:46.000Z</time>
      </trkpt>
      <trkpt lat="47.49515" lon="6.75728">
        <ele>325</ele>
        <time>2016-01-31T08:30:47.000Z</time>
      </trkpt>
      <trkpt lat="47.49509" lon="6.75731">
        <ele>325</ele>
        <time>2016-01-31T08:30:48.000Z</time>
      </trkpt>
      <trkpt lat="47.49504" lon="6.75735">
        <ele>325</ele>
        <time>2016-01-31T08:30:49.000Z</time>
      </trkpt>
      <trkpt lat="47.49499" lon="6.75739">
        <ele>323</ele>
        <time>2016-01-31T08:30:50.000Z</time>
      </trkpt>
      <trkpt lat="47.49493" lon="6.7574">
        <ele>323</ele>
        <time>2016-01-31T08:30:51.000Z</time>
      </trkpt>
      <trkpt lat="47.49487" lon="6.75738">
        <ele>322</ele>
        <time>2016-01-31T08:30:52.000Z</time>
      </trkpt>
      <trkpt lat="47.49483" lon="6.75733">
        <ele>322</ele>
        <time>2016-01-31T08:30:53.000Z</time>
      </trkpt>
      <trkpt lat="47.49479" lon="6.75725">
        <ele>322</ele>
        <time>2016-01-31T08:30:54.000Z</time>
      </trkpt>
      <trkpt lat="47.49476" lon="6.75717">
        <ele>321</ele>
        <time>2016-01-31T08:30:55.000Z</time>
      </trkpt>
      <trkpt lat="47.49474" lon="6.7571">
        <ele>321</ele>
        <time>2016-01-31T08:30:56.000Z</time>
      </trkpt>
      <trkpt lat="47.49471" lon="6.75704">
        <ele>321</ele>
        <time>2016-01-31T08:30:57.000Z</time>
      </trkpt>
      <trkpt lat="47.49469" lon="6.75698">
        <ele>321</ele>
        <time>2016-01-31T08:30:58.000Z</time>
      </trkpt>
      <trkpt lat="47.49465" lon="6.75694">
        <ele>321</ele>
        <time>2016-01-31T08:30:59.000Z</time>
      </trkpt>
      <trkpt lat="47.49461" lon="6.75692">
        <ele>321</ele>
        <time>2016-01-31T08:31:00.000Z</time>
      </trkpt>
      <trkpt lat="47.49456" lon="6.75694">
        <ele>321</ele>
        <time>2016-01-31T08:31:01.000Z</time>
      </trkpt>
      <trkpt lat="47.49452" lon="6.75696">
        <ele>321</ele>
        <time>2016-01-31T08:31:02.000Z</time>
      </trkpt>
      <trkpt lat="47.49448" lon="6.75699">
        <ele>321</ele>
        <time>2016-01-31T08:31:03.000Z</time>
      </trkpt>
      <trkpt lat="47.49444" lon="6.75695">
        <ele>321</ele>
        <time>2016-01-31T08:31:04.000Z</time>
      </trkpt>
      <trkpt lat="47.49441" lon="6.7569">
        <ele>320</ele>
        <time>2016-01-31T08:31:05.000Z</time>
      </trkpt>
      <trkpt lat="47.49439" lon="6.75686">
        <ele>320</ele>
        <time>2016-01-31T08:31:06.000Z</time>
      </trkpt>
      <trkpt lat="47.49437" lon="6.7568">
        <ele>320</ele>
        <time>2016-01-31T08:31:07.000Z</time>
      </trkpt>
      <trkpt lat="47.49436" lon="6.75674">
        <ele>320</ele>
        <time>2016-01-31T08:31:08.000Z</time>
      </trkpt>
      <trkpt lat="47.49433" lon="6.75669">
        <ele>320</ele>
        <time>2016-01-31T08:31:09.000Z</time>
      </trkpt>
      <trkpt lat="47.49431" lon="6.75666">
        <ele>320</ele>
        <time>2016-01-31T08:31:10.000Z</time>
      </trkpt>
      <trkpt lat="47.49428" lon="6.75666">
        <ele>320</ele>
        <time>2016-01-31T08:31:11.000Z</time>
      </trkpt>
      <trkpt lat="47.49425" lon="6.75665">
        <ele>319</ele>
        <time>2016-01-31T08:31:12.000Z</time>
      </trkpt>
      <trkpt lat="47.49422" lon="6.75664">
        <ele>319</ele>
        <time>2016-01-31T08:31:13.000Z</time>
      </trkpt>
      <trkpt lat="47.49416" lon="6.75668">
        <ele>319</ele>
        <time>2016-01-31T08:31:14.000Z</time>
      </trkpt>
      <trkpt lat="47.49412" lon="6.75674">
        <ele>319</ele>
        <time>2016-01-31T08:31:15.000Z</time>
      </trkpt>
      <trkpt lat="47.49408" lon="6.75679">
        <ele>319</ele>
        <time>2016-01-31T08:31:16.000Z</time>
      </trkpt>
      <trkpt lat="47.49404" lon="6.75682">
        <ele>319</ele>
        <time>2016-01-31T08:31:17.000Z</time>
      </trkpt>
      <trkpt lat="47.494" lon="6.75687">
        <ele>319</ele>
        <time>2016-01-31T08:31:18.000Z</time>
      </trkpt>
      <trkpt lat="47.49395" lon="6.75689">
        <ele>319</ele>
        <time>2016-01-31T08:31:19.000Z</time>
      </trkpt>
      <trkpt lat="47.49391" lon="6.75692">
        <ele>319</ele>
        <time>2016-01-31T08:31:20.000Z</time>
      </trkpt>
      <trkpt lat="47.49387" lon="6.75695">
        <ele>319</ele>
        <time>2016-01-31T08:31:21.000Z</time>
      </trkpt>
      <trkpt lat="47.49383" lon="6.75698">
        <ele>319</ele>
        <time>2016-01-31T08:31:22.000Z</time>
      </trkpt>
      <trkpt lat="47.49379" lon="6.75701">
        <ele>319</ele>
        <time>2016-01-31T08:31:23.000Z</time>
      </trkpt>
      <trkpt lat="47.49376" lon="6.75704">
        <ele>319</ele>
        <time>2016-01-31T08:31:24.000Z</time>
      </trkpt>
      <trkpt lat="47.49374" lon="6.75707">
        <ele>319</ele>
        <time>2016-01-31T08:31:25.000Z</time>
      </trkpt>
      <trkpt lat="47.4937" lon="6.7571">
        <ele>319</ele>
        <time>2016-01-31T08:31:26.000Z</time>
      </trkpt>
      <trkpt lat="47.49367" lon="6.75713">
        <ele>319</ele>
        <time>2016-01-31T08:31:27.000Z</time>
      </trkpt>
      <trkpt lat="47.49365" lon="6.75716">
        <ele>319</ele>
        <time>2016-01-31T08:31:28.000Z</time>
      </trkpt>
      <trkpt lat="47.49363" lon="6.75718">
        <ele>319</ele>
        <time>2016-01-31T08:31:30.000Z</time>
      </trkpt>
      <trkpt lat="47.49361" lon="6.7572">
        <ele>319</ele>
        <time>2016-01-31T08:31:31.000Z</time>
      </trkpt>
      <trkpt lat="47.49357" lon="6.75723">
        <ele>319</ele>
        <time>2016-01-31T08:31:33.000Z</time>
      </trkpt>
      <trkpt lat="47.49354" lon="6.75724">
        <ele>319</ele>
        <time>2016-01-31T08:31:34.000Z</time>
      </trkpt>
      <trkpt lat="47.49351" lon="6.75726">
        <ele>319</ele>
        <time>2016-01-31T08:31:35.000Z</time>
      </trkpt>
      <trkpt lat="47.49347" lon="6.75728">
        <ele>318</ele>
        <time>2016-01-31T08:31:36.000Z</time>
      </trkpt>
      <trkpt lat="47.49343" lon="6.75731">
        <ele>318</ele>
        <time>2016-01-31T08:31:37.000Z</time>
      </trkpt>
      <trkpt lat="47.49338" lon="6.75734">
        <ele>318</ele>
        <time>2016-01-31T08:31:38.000Z</time>
      </trkpt>
      <trkpt lat="47.4933" lon="6.75744">
        <ele>318</ele>
        <time>2016-01-31T08:31:39.000Z</time>
      </trkpt>
      <trkpt lat="47.49326" lon="6.75748">
        <ele>318</ele>
        <time>2016-01-31T08:31:40.000Z</time>
      </trkpt>
      <trkpt lat="47.49322" lon="6.75751">
        <ele>318</ele>
        <time>2016-01-31T08:31:41.000Z</time>
      </trkpt>
      <trkpt lat="47.49318" lon="6.75754">
        <ele>318</ele>
        <time>2016-01-31T08:31:42.000Z</time>
      </trkpt>
      <trkpt lat="47.49313" lon="6.75758">
        <ele>318</ele>
        <time>2016-01-31T08:31:43.000Z</time>
      </trkpt>
      <trkpt lat="47.49309" lon="6.75763">
        <ele>318</ele>
        <time>2016-01-31T08:31:44.000Z</time>
      </trkpt>
      <trkpt lat="47.49306" lon="6.75771">
        <ele>318</ele>
        <time>2016-01-31T08:31:45.000Z</time>
      </trkpt>
      <trkpt lat="47.49301" lon="6.75778">
        <ele>318</ele>
        <time>2016-01-31T08:31:46.000Z</time>
      </trkpt>
      <trkpt lat="47.49296" lon="6.75784">
        <ele>318</ele>
        <time>2016-01-31T08:31:47.000Z</time>
      </trkpt>
      <trkpt lat="47.4929" lon="6.7579">
        <ele>318</ele>
        <time>2016-01-31T08:31:48.000Z</time>
      </trkpt>
      <trkpt lat="47.49287" lon="6.75797">
        <ele>318</ele>
        <time>2016-01-31T08:31:49.000Z</time>
      </trkpt>
      <trkpt lat="47.49283" lon="6.75805">
        <ele>318</ele>
        <time>2016-01-31T08:31:50.000Z</time>
      </trkpt>
      <trkpt lat="47.49279" lon="6.75812">
        <ele>317</ele>
        <time>2016-01-31T08:31:51.000Z</time>
      </trkpt>
      <trkpt lat="47.49275" lon="6.75819">
        <ele>317</ele>
        <time>2016-01-31T08:31:52.000Z</time>
      </trkpt>
      <trkpt lat="47.4927" lon="6.75826">
        <ele>316</ele>
        <time>2016-01-31T08:31:53.000Z</time>
      </trkpt>
      <trkpt lat="47.49267" lon="6.75832">
        <ele>316</ele>
        <time>2016-01-31T08:31:54.000Z</time>
      </trkpt>
      <trkpt lat="47.49263" lon="6.7584">
        <ele>316</ele>
        <time>2016-01-31T08:31:55.000Z</time>
      </trkpt>
      <trkpt lat="47.4926" lon="6.75847">
        <ele>316</ele>
        <time>2016-01-31T08:31:56.000Z</time>
      </trkpt>
      <trkpt lat="47.49256" lon="6.75854">
        <ele>317</ele>
        <time>2016-01-31T08:31:57.000Z</time>
      </trkpt>
      <trkpt lat="47.49252" lon="6.75861">
        <ele>318</ele>
        <time>2016-01-31T08:31:58.000Z</time>
      </trkpt>
      <trkpt lat="47.49249" lon="6.75869">
        <ele>317</ele>
        <time>2016-01-31T08:31:59.000Z</time>
      </trkpt>
      <trkpt lat="47.49246" lon="6.75876">
        <ele>318</ele>
        <time>2016-01-31T08:32:00.000Z</time>
      </trkpt>
      <trkpt lat="47.49243" lon="6.75885">
        <ele>318</ele>
        <time>2016-01-31T08:32:01.000Z</time>
      </trkpt>
      <trkpt lat="47.49237" lon="6.75894">
        <ele>318</ele>
        <time>2016-01-31T08:32:02.000Z</time>
      </trkpt>
      <trkpt lat="47.49233" lon="6.75901">
        <ele>318</ele>
        <time>2016-01-31T08:32:03.000Z</time>
      </trkpt>
      <trkpt lat="47.49228" lon="6.75906">
        <ele>318</ele>
        <time>2016-01-31T08:32:04.000Z</time>
      </trkpt>
      <trkpt lat="47.49224" lon="6.75914">
        <ele>318</ele>
        <time>2016-01-31T08:32:05.000Z</time>
      </trkpt>
      <trkpt lat="47.4922" lon="6.75922">
        <ele>319</ele>
        <time>2016-01-31T08:32:06.000Z</time>
      </trkpt>
      <trkpt lat="47.49217" lon="6.7593">
        <ele>320</ele>
        <time>2016-01-31T08:32:07.000Z</time>
      </trkpt>
      <trkpt lat="47.49213" lon="6.75937">
        <ele>320</ele>
        <time>2016-01-31T08:32:08.000Z</time>
      </trkpt>
      <trkpt lat="47.49209" lon="6.75948">
        <ele>320</ele>
        <time>2016-01-31T08:32:09.000Z</time>
      </trkpt>
      <trkpt lat="47.49205" lon="6.75957">
        <ele>320</ele>
        <time>2016-01-31T08:32:10.000Z</time>
      </trkpt>
      <trkpt lat="47.49202" lon="6.75962">
        <ele>320</ele>
        <time>2016-01-31T08:32:11.000Z</time>
      </trkpt>
      <trkpt lat="47.49198" lon="6.75971">
        <ele>320</ele>
        <time>2016-01-31T08:32:12.000Z</time>
      </trkpt>
      <trkpt lat="47.49195" lon="6.75978">
        <ele>320</ele>
        <time>2016-01-31T08:32:13.000Z</time>
      </trkpt>
      <trkpt lat="47.49192" lon="6.75986">
        <ele>320</ele>
        <time>2016-01-31T08:32:14.000Z</time>
      </trkpt>
      <trkpt lat="47.49189" lon="6.75993">
        <ele>320</ele>
        <time>2016-01-31T08:32:15.000Z</time>
      </trkpt>
      <trkpt lat="47.49185" lon="6.76001">
        <ele>320</ele>
        <time>2016-01-31T08:32:16.000Z</time>
      </trkpt>
      <trkpt lat="47.49182" lon="6.76009">
        <ele>320</ele>
        <time>2016-01-31T08:32:17.000Z</time>
      </trkpt>
      <trkpt lat="47.49179" lon="6.76016">
        <ele>320</ele>
        <time>2016-01-31T08:32:18.000Z</time>
      </trkpt>
      <trkpt lat="47.49176" lon="6.76024">
        <ele>320</ele>
        <time>2016-01-31T08:32:19.000Z</time>
      </trkpt>
      <trkpt lat="47.49172" lon="6.76033">
        <ele>320</ele>
        <time>2016-01-31T08:32:20.000Z</time>
      </trkpt>
      <trkpt lat="47.49168" lon="6.76042">
        <ele>320</ele>
        <time>2016-01-31T08:32:21.000Z</time>
      </trkpt>
      <trkpt lat="47.49165" lon="6.76051">
        <ele>322</ele>
        <time>2016-01-31T08:32:22.000Z</time>
      </trkpt>
      <trkpt lat="47.49163" lon="6.76059">
        <ele>322</ele>
        <time>2016-01-31T08:32:23.000Z</time>
      </trkpt>
      <trkpt lat="47.4916" lon="6.76068">
        <ele>321</ele>
        <time>2016-01-31T08:32:24.000Z</time>
      </trkpt>
      <trkpt lat="47.49157" lon="6.76076">
        <ele>320</ele>
        <time>2016-01-31T08:32:25.000Z</time>
      </trkpt>
      <trkpt lat="47.49154" lon="6.76084">
        <ele>320</ele>
        <time>2016-01-31T08:32:26.000Z</time>
      </trkpt>
      <trkpt lat="47.49151" lon="6.76093">
        <ele>320</ele>
        <time>2016-01-31T08:32:27.000Z</time>
      </trkpt>
      <trkpt lat="47.49149" lon="6.76102">
        <ele>321</ele>
        <time>2016-01-31T08:32:28.000Z</time>
      </trkpt>
      <trkpt lat="47.49146" lon="6.76112">
        <ele>321</ele>
        <time>2016-01-31T08:32:29.000Z</time>
      </trkpt>
      <trkpt lat="47.49144" lon="6.76121">
        <ele>321</ele>
        <time>2016-01-31T08:32:30.000Z</time>
      </trkpt>
      <trkpt lat="47.49141" lon="6.76132">
        <ele>322</ele>
        <time>2016-01-31T08:32:31.000Z</time>
      </trkpt>
      <trkpt lat="47.49138" lon="6.76141">
        <ele>322</ele>
        <time>2016-01-31T08:32:32.000Z</time>
      </trkpt>
      <trkpt lat="47.49133" lon="6.76152">
        <ele>322</ele>
        <time>2016-01-31T08:32:33.000Z</time>
      </trkpt>
      <trkpt lat="47.49132" lon="6.76161">
        <ele>322</ele>
        <time>2016-01-31T08:32:34.000Z</time>
      </trkpt>
      <trkpt lat="47.49127" lon="6.7617">
        <ele>321</ele>
        <time>2016-01-31T08:32:35.000Z</time>
      </trkpt>
      <trkpt lat="47.49126" lon="6.7618">
        <ele>321</ele>
        <time>2016-01-31T08:32:36.000Z</time>
      </trkpt>
      <trkpt lat="47.49126" lon="6.76189">
        <ele>321</ele>
        <time>2016-01-31T08:32:37.000Z</time>
      </trkpt>
      <trkpt lat="47.49126" lon="6.76198">
        <ele>321</ele>
        <time>2016-01-31T08:32:38.000Z</time>
      </trkpt>
      <trkpt lat="47.49126" lon="6.76208">
        <ele>321</ele>
        <time>2016-01-31T08:32:39.000Z</time>
      </trkpt>
      <trkpt lat="47.49125" lon="6.76217">
        <ele>321</ele>
        <time>2016-01-31T08:32:40.000Z</time>
      </trkpt>
      <trkpt lat="47.49125" lon="6.76226">
        <ele>321</ele>
        <time>2016-01-31T08:32:41.000Z</time>
      </trkpt>
      <trkpt lat="47.49125" lon="6.76235">
        <ele>321</ele>
        <time>2016-01-31T08:32:42.000Z</time>
      </trkpt>
      <trkpt lat="47.49126" lon="6.76244">
        <ele>321</ele>
        <time>2016-01-31T08:32:43.000Z</time>
      </trkpt>
      <trkpt lat="47.49127" lon="6.76253">
        <ele>320</ele>
        <time>2016-01-31T08:32:44.000Z</time>
      </trkpt>
      <trkpt lat="47.49127" lon="6.76261">
        <ele>320</ele>
        <time>2016-01-31T08:32:45.000Z</time>
      </trkpt>
      <trkpt lat="47.49128" lon="6.76268">
        <ele>320</ele>
        <time>2016-01-31T08:32:46.000Z</time>
      </trkpt>
      <trkpt lat="47.49128" lon="6.76276">
        <ele>319</ele>
        <time>2016-01-31T08:32:47.000Z</time>
      </trkpt>
      <trkpt lat="47.49129" lon="6.76286">
        <ele>319</ele>
        <time>2016-01-31T08:32:48.000Z</time>
      </trkpt>
      <trkpt lat="47.4913" lon="6.76295">
        <ele>319</ele>
        <time>2016-01-31T08:32:49.000Z</time>
      </trkpt>
      <trkpt lat="47.49131" lon="6.76304">
        <ele>319</ele>
        <time>2016-01-31T08:32:50.000Z</time>
      </trkpt>
      <trkpt lat="47.49132" lon="6.76315">
        <ele>319</ele>
        <time>2016-01-31T08:32:51.000Z</time>
      </trkpt>
      <trkpt lat="47.49131" lon="6.76324">
        <ele>319</ele>
        <time>2016-01-31T08:32:52.000Z</time>
      </trkpt>
      <trkpt lat="47.49132" lon="6.76333">
        <ele>319</ele>
        <time>2016-01-31T08:32:53.000Z</time>
      </trkpt>
      <trkpt lat="47.49132" lon="6.76341">
        <ele>317</ele>
        <time>2016-01-31T08:32:54.000Z</time>
      </trkpt>
      <trkpt lat="47.49131" lon="6.76351">
        <ele>318</ele>
        <time>2016-01-31T08:32:55.000Z</time>
      </trkpt>
      <trkpt lat="47.49132" lon="6.7636">
        <ele>317</ele>
        <time>2016-01-31T08:32:56.000Z</time>
      </trkpt>
      <trkpt lat="47.49132" lon="6.7637">
        <ele>317</ele>
        <time>2016-01-31T08:32:57.000Z</time>
      </trkpt>
      <trkpt lat="47.49131" lon="6.76379">
        <ele>317</ele>
        <time>2016-01-31T08:32:58.000Z</time>
      </trkpt>
      <trkpt lat="47.4913" lon="6.7639">
        <ele>317</ele>
        <time>2016-01-31T08:32:59.000Z</time>
      </trkpt>
      <trkpt lat="47.4913" lon="6.76399">
        <ele>317</ele>
        <time>2016-01-31T08:33:00.000Z</time>
      </trkpt>
      <trkpt lat="47.49131" lon="6.76408">
        <ele>317</ele>
        <time>2016-01-31T08:33:01.000Z</time>
      </trkpt>
      <trkpt lat="47.4913" lon="6.76417">
        <ele>317</ele>
        <time>2016-01-31T08:33:02.000Z</time>
      </trkpt>
      <trkpt lat="47.4913" lon="6.76426">
        <ele>317</ele>
        <time>2016-01-31T08:33:03.000Z</time>
      </trkpt>
      <trkpt lat="47.49131" lon="6.76435">
        <ele>317</ele>
        <time>2016-01-31T08:33:04.000Z</time>
      </trkpt>
      <trkpt lat="47.49131" lon="6.76442">
        <ele>317</ele>
        <time>2016-01-31T08:33:05.000Z</time>
      </trkpt>
      <trkpt lat="47.4913" lon="6.76451">
        <ele>317</ele>
        <time>2016-01-31T08:33:06.000Z</time>
      </trkpt>
      <trkpt lat="47.4913" lon="6.76459">
        <ele>317</ele>
        <time>2016-01-31T08:33:07.000Z</time>
      </trkpt>
      <trkpt lat="47.4913" lon="6.76467">
        <ele>317</ele>
        <time>2016-01-31T08:33:08.000Z</time>
      </trkpt>
      <trkpt lat="47.4913" lon="6.76474">
        <ele>317</ele>
        <time>2016-01-31T08:33:09.000Z</time>
      </trkpt>
      <trkpt lat="47.4913" lon="6.76481">
        <ele>317</ele>
        <time>2016-01-31T08:33:10.000Z</time>
      </trkpt>
      <trkpt lat="47.4913" lon="6.76489">
        <ele>317</ele>
        <time>2016-01-31T08:33:11.000Z</time>
      </trkpt>
      <trkpt lat="47.49129" lon="6.76497">
        <ele>317</ele>
        <time>2016-01-31T08:33:12.000Z</time>
      </trkpt>
      <trkpt lat="47.49128" lon="6.76505">
        <ele>316</ele>
        <time>2016-01-31T08:33:13.000Z</time>
      </trkpt>
      <trkpt lat="47.4913" lon="6.76513">
        <ele>316</ele>
        <time>2016-01-31T08:33:14.000Z</time>
      </trkpt>
      <trkpt lat="47.49133" lon="6.76516">
        <ele>316</ele>
        <time>2016-01-31T08:33:15.000Z</time>
      </trkpt>
      <trkpt lat="47.49137" lon="6.76517">
        <ele>315</ele>
        <time>2016-01-31T08:33:16.000Z</time>
      </trkpt>
      <trkpt lat="47.49143" lon="6.76516">
        <ele>315</ele>
        <time>2016-01-31T08:33:17.000Z</time>
      </trkpt>
      <trkpt lat="47.49148" lon="6.76516">
        <ele>315</ele>
        <time>2016-01-31T08:33:18.000Z</time>
      </trkpt>
      <trkpt lat="47.49153" lon="6.76515">
        <ele>315</ele>
        <time>2016-01-31T08:33:19.000Z</time>
      </trkpt>
      <trkpt lat="47.49159" lon="6.76514">
        <ele>314</ele>
        <time>2016-01-31T08:33:20.000Z</time>
      </trkpt>
      <trkpt lat="47.49164" lon="6.76512">
        <ele>314</ele>
        <time>2016-01-31T08:33:21.000Z</time>
      </trkpt>
      <trkpt lat="47.49166" lon="6.76506">
        <ele>314</ele>
        <time>2016-01-31T08:33:22.000Z</time>
      </trkpt>
      <trkpt lat="47.49169" lon="6.76502">
        <ele>313</ele>
        <time>2016-01-31T08:33:23.000Z</time>
      </trkpt>
      <trkpt lat="47.49172" lon="6.765">
        <ele>314</ele>
        <time>2016-01-31T08:33:24.000Z</time>
      </trkpt>
      <trkpt lat="47.49174" lon="6.76499">
        <ele>314</ele>
        <time>2016-01-31T08:33:25.000Z</time>
      </trkpt>
      <trkpt lat="47.49171" lon="6.76503">
        <ele>314</ele>
        <time>2016-01-31T08:33:51.000Z</time>
      </trkpt>
      <trkpt lat="47.49169" lon="6.76505">
        <ele>314</ele>
        <time>2016-01-31T08:33:52.000Z</time>
      </trkpt>
      <trkpt lat="47.49166" lon="6.76507">
        <ele>314</ele>
        <time>2016-01-31T08:33:53.000Z</time>
      </trkpt>
      <trkpt lat="47.4916" lon="6.76512">
        <ele>314</ele>
        <time>2016-01-31T08:33:54.000Z</time>
      </trkpt>
      <trkpt lat="47.49155" lon="6.76515">
        <ele>314</ele>
        <time>2016-01-31T08:33:55.000Z</time>
      </trkpt>
      <trkpt lat="47.4915" lon="6.76518">
        <ele>315</ele>
        <time>2016-01-31T08:33:56.000Z</time>
      </trkpt>
      <trkpt lat="47.49144" lon="6.7652">
        <ele>315</ele>
        <time>2016-01-31T08:33:57.000Z</time>
      </trkpt>
      <trkpt lat="47.49139" lon="6.7652">
        <ele>315</ele>
        <time>2016-01-31T08:33:58.000Z</time>
      </trkpt>
      <trkpt lat="47.49133" lon="6.7652">
        <ele>316</ele>
        <time>2016-01-31T08:33:59.000Z</time>
      </trkpt>
      <trkpt lat="47.49129" lon="6.76521">
        <ele>316</ele>
        <time>2016-01-31T08:34:00.000Z</time>
      </trkpt>
      <trkpt lat="47.49126" lon="6.76524">
        <ele>316</ele>
        <time>2016-01-31T08:34:01.000Z</time>
      </trkpt>
      <trkpt lat="47.49124" lon="6.76531">
        <ele>316</ele>
        <time>2016-01-31T08:34:02.000Z</time>
      </trkpt>
      <trkpt lat="47.49124" lon="6.76538">
        <ele>316</ele>
        <time>2016-01-31T08:34:03.000Z</time>
      </trkpt>
      <trkpt lat="47.49124" lon="6.76545">
        <ele>316</ele>
        <time>2016-01-31T08:34:04.000Z</time>
      </trkpt>
      <trkpt lat="47.49125" lon="6.76552">
        <ele>316</ele>
        <time>2016-01-31T08:34:05.000Z</time>
      </trkpt>
      <trkpt lat="47.49126" lon="6.76559">
        <ele>315</ele>
        <time>2016-01-31T08:34:06.000Z</time>
      </trkpt>
      <trkpt lat="47.49127" lon="6.76565">
        <ele>315</ele>
        <time>2016-01-31T08:34:07.000Z</time>
      </trkpt>
      <trkpt lat="47.49128" lon="6.76571">
        <ele>315</ele>
        <time>2016-01-31T08:34:08.000Z</time>
      </trkpt>
      <trkpt lat="47.49128" lon="6.76578">
        <ele>315</ele>
        <time>2016-01-31T08:34:09.000Z</time>
      </trkpt>
      <trkpt lat="47.49129" lon="6.76584">
        <ele>314</ele>
        <time>2016-01-31T08:34:10.000Z</time>
      </trkpt>
      <trkpt lat="47.4913" lon="6.76591">
        <ele>314</ele>
        <time>2016-01-31T08:34:11.000Z</time>
      </trkpt>
      <trkpt lat="47.49132" lon="6.76597">
        <ele>314</ele>
        <time>2016-01-31T08:34:12.000Z</time>
      </trkpt>
      <trkpt lat="47.49133" lon="6.76604">
        <ele>314</ele>
        <time>2016-01-31T08:34:13.000Z</time>
      </trkpt>
      <trkpt lat="47.49134" lon="6.7661">
        <ele>314</ele>
        <time>2016-01-31T08:34:14.000Z</time>
      </trkpt>
      <trkpt lat="47.49135" lon="6.76617">
        <ele>314</ele>
        <time>2016-01-31T08:34:15.000Z</time>
      </trkpt>
      <trkpt lat="47.49136" lon="6.76625">
        <ele>314</ele>
        <time>2016-01-31T08:34:16.000Z</time>
      </trkpt>
      <trkpt lat="47.49137" lon="6.76633">
        <ele>314</ele>
        <time>2016-01-31T08:34:17.000Z</time>
      </trkpt>
      <trkpt lat="47.49138" lon="6.7664">
        <ele>314</ele>
        <time>2016-01-31T08:34:18.000Z</time>
      </trkpt>
      <trkpt lat="47.49139" lon="6.76647">
        <ele>314</ele>
        <time>2016-01-31T08:34:19.000Z</time>
      </trkpt>
      <trkpt lat="47.4914" lon="6.76654">
        <ele>314</ele>
        <time>2016-01-31T08:34:20.000Z</time>
      </trkpt>
      <trkpt lat="47.4914" lon="6.76661">
        <ele>314</ele>
        <time>2016-01-31T08:34:21.000Z</time>
      </trkpt>
      <trkpt lat="47.4914" lon="6.76668">
        <ele>314</ele>
        <time>2016-01-31T08:34:22.000Z</time>
      </trkpt>
      <trkpt lat="47.49141" lon="6.76676">
        <ele>314</ele>
        <time>2016-01-31T08:34:23.000Z</time>
      </trkpt>
      <trkpt lat="47.49142" lon="6.76683">
        <ele>314</ele>
        <time>2016-01-31T08:34:24.000Z</time>
      </trkpt>
      <trkpt lat="47.49142" lon="6.7669">
        <ele>313</ele>
        <time>2016-01-31T08:34:25.000Z</time>
      </trkpt>
      <trkpt lat="47.49143" lon="6.76697">
        <ele>313</ele>
        <time>2016-01-31T08:34:26.000Z</time>
      </trkpt>
      <trkpt lat="47.49143" lon="6.76703">
        <ele>313</ele>
        <time>2016-01-31T08:34:27.000Z</time>
      </trkpt>
      <trkpt lat="47.49145" lon="6.76709">
        <ele>313</ele>
        <time>2016-01-31T08:34:28.000Z</time>
      </trkpt>
      <trkpt lat="47.49145" lon="6.76717">
        <ele>313</ele>
        <time>2016-01-31T08:34:29.000Z</time>
      </trkpt>
      <trkpt lat="47.49146" lon="6.76724">
        <ele>313</ele>
        <time>2016-01-31T08:34:30.000Z</time>
      </trkpt>
      <trkpt lat="47.49147" lon="6.7673">
        <ele>313</ele>
        <time>2016-01-31T08:34:31.000Z</time>
      </trkpt>
      <trkpt lat="47.49149" lon="6.76736">
        <ele>313</ele>
        <time>2016-01-31T08:34:32.000Z</time>
      </trkpt>
      <trkpt lat="47.49149" lon="6.76744">
        <ele>313</ele>
        <time>2016-01-31T08:34:33.000Z</time>
      </trkpt>
      <trkpt lat="47.4915" lon="6.76751">
        <ele>313</ele>
        <time>2016-01-31T08:34:34.000Z</time>
      </trkpt>
      <trkpt lat="47.49151" lon="6.76759">
        <ele>313</ele>
        <time>2016-01-31T08:34:35.000Z</time>
      </trkpt>
      <trkpt lat="47.49152" lon="6.76766">
        <ele>313</ele>
        <time>2016-01-31T08:34:36.000Z</time>
      </trkpt>
      <trkpt lat="47.49152" lon="6.76773">
        <ele>313</ele>
        <time>2016-01-31T08:34:37.000Z</time>
      </trkpt>
      <trkpt lat="47.49153" lon="6.7678">
        <ele>313</ele>
        <time>2016-01-31T08:34:38.000Z</time>
      </trkpt>
      <trkpt lat="47.49152" lon="6.76787">
        <ele>312</ele>
        <time>2016-01-31T08:34:39.000Z</time>
      </trkpt>
      <trkpt lat="47.49153" lon="6.76794">
        <ele>312</ele>
        <time>2016-01-31T08:34:40.000Z</time>
      </trkpt>
      <trkpt lat="47.49153" lon="6.768">
        <ele>312</ele>
        <time>2016-01-31T08:34:41.000Z</time>
      </trkpt>
      <trkpt lat="47.49154" lon="6.76807">
        <ele>312</ele>
        <time>2016-01-31T08:34:42.000Z</time>
      </trkpt>
      <trkpt lat="47.49153" lon="6.76813">
        <ele>313</ele>
        <time>2016-01-31T08:34:43.000Z</time>
      </trkpt>
      <trkpt lat="47.49153" lon="6.7682">
        <ele>313</ele>
        <time>2016-01-31T08:34:44.000Z</time>
      </trkpt>
      <trkpt lat="47.49152" lon="6.76828">
        <ele>313</ele>
        <time>2016-01-31T08:34:45.000Z</time>
      </trkpt>
      <trkpt lat="47.49152" lon="6.76835">
        <ele>313</ele>
        <time>2016-01-31T08:34:46.000Z</time>
      </trkpt>
      <trkpt lat="47.49153" lon="6.76842">
        <ele>313</ele>
        <time>2016-01-31T08:34:47.000Z</time>
      </trkpt>
      <trkpt lat="47.49152" lon="6.7685">
        <ele>312</ele>
        <time>2016-01-31T08:34:48.000Z</time>
      </trkpt>
      <trkpt lat="47.49151" lon="6.76857">
        <ele>312</ele>
        <time>2016-01-31T08:34:49.000Z</time>
      </trkpt>
      <trkpt lat="47.49151" lon="6.76865">
        <ele>312</ele>
        <time>2016-01-31T08:34:50.000Z</time>
      </trkpt>
      <trkpt lat="47.49151" lon="6.76871">
        <ele>312</ele>
        <time>2016-01-31T08:34:51.000Z</time>
      </trkpt>
      <trkpt lat="47.49152" lon="6.76878">
        <ele>312</ele>
        <time>2016-01-31T08:34:52.000Z</time>
      </trkpt>
      <trkpt lat="47.49152" lon="6.76885">
        <ele>312</ele>
        <time>2016-01-31T08:34:53.000Z</time>
      </trkpt>
      <trkpt lat="47.49152" lon="6.76892">
        <ele>312</ele>
        <time>2016-01-31T08:34:54.000Z</time>
      </trkpt>
      <trkpt lat="47.49152" lon="6.76899">
        <ele>312</ele>
        <time>2016-01-31T08:34:55.000Z</time>
      </trkpt>
      <trkpt lat="47.49151" lon="6.76905">
        <ele>312</ele>
        <time>2016-01-31T08:34:56.000Z</time>
      </trkpt>
      <trkpt lat="47.49151" lon="6.76913">
        <ele>313</ele>
        <time>2016-01-31T08:34:57.000Z</time>
      </trkpt>
      <trkpt lat="47.49151" lon="6.76919">
        <ele>312</ele>
        <time>2016-01-31T08:34:58.000Z</time>
      </trkpt>
      <trkpt lat="47.49152" lon="6.76926">
        <ele>312</ele>
        <time>2016-01-31T08:34:59.000Z</time>
      </trkpt>
      <trkpt lat="47.49152" lon="6.76934">
        <ele>312</ele>
        <time>2016-01-31T08:35:00.000Z</time>
      </trkpt>
      <trkpt lat="47.49151" lon="6.7694">
        <ele>312</ele>
        <time>2016-01-31T08:35:01.000Z</time>
      </trkpt>
      <trkpt lat="47.49151" lon="6.76946">
        <ele>312</ele>
        <time>2016-01-31T08:35:02.000Z</time>
      </trkpt>
      <trkpt lat="47.49152" lon="6.7695">
        <ele>312</ele>
        <time>2016-01-31T08:35:03.000Z</time>
      </trkpt>
      <trkpt lat="47.49153" lon="6.76954">
        <ele>312</ele>
        <time>2016-01-31T08:35:04.000Z</time>
      </trkpt>
      <trkpt lat="47.49153" lon="6.76958">
        <ele>312</ele>
        <time>2016-01-31T08:35:05.000Z</time>
      </trkpt>
      <trkpt lat="47.49153" lon="6.76962">
        <ele>312</ele>
        <time>2016-01-31T08:35:06.000Z</time>
      </trkpt>
      <trkpt lat="47.49154" lon="6.76973">
        <ele>312</ele>
        <time>2016-01-31T08:35:07.000Z</time>
      </trkpt>
      <trkpt lat="47.49155" lon="6.76982">
        <ele>312</ele>
        <time>2016-01-31T08:35:08.000Z</time>
      </trkpt>
      <trkpt lat="47.49158" lon="6.76987">
        <ele>312</ele>
        <time>2016-01-31T08:35:09.000Z</time>
      </trkpt>
      <trkpt lat="47.49161" lon="6.76993">
        <ele>312</ele>
        <time>2016-01-31T08:35:10.000Z</time>
      </trkpt>
      <trkpt lat="47.49164" lon="6.77">
        <ele>312</ele>
        <time>2016-01-31T08:35:11.000Z</time>
      </trkpt>
      <trkpt lat="47.49165" lon="6.77008">
        <ele>312</ele>
        <time>2016-01-31T08:35:12.000Z</time>
      </trkpt>
      <trkpt lat="47.49167" lon="6.77016">
        <ele>313</ele>
        <time>2016-01-31T08:35:13.000Z</time>
      </trkpt>
      <trkpt lat="47.49169" lon="6.77025">
        <ele>313</ele>
        <time>2016-01-31T08:35:14.000Z</time>
      </trkpt>
      <trkpt lat="47.4917" lon="6.77034">
        <ele>313</ele>
        <time>2016-01-31T08:35:15.000Z</time>
      </trkpt>
      <trkpt lat="47.49171" lon="6.77041">
        <ele>313</ele>
        <time>2016-01-31T08:35:16.000Z</time>
      </trkpt>
      <trkpt lat="47.49173" lon="6.77049">
        <ele>313</ele>
        <time>2016-01-31T08:35:17.000Z</time>
      </trkpt>
      <trkpt lat="47.49173" lon="6.77057">
        <ele>313</ele>
        <time>2016-01-31T08:35:18.000Z</time>
      </trkpt>
      <trkpt lat="47.49174" lon="6.77064">
        <ele>313</ele>
        <time>2016-01-31T08:35:19.000Z</time>
      </trkpt>
      <trkpt lat="47.49175" lon="6.77071">
        <ele>313</ele>
        <time>2016-01-31T08:35:20.000Z</time>
      </trkpt>
      <trkpt lat="47.49176" lon="6.77076">
        <ele>312</ele>
        <time>2016-01-31T08:35:21.000Z</time>
      </trkpt>
      <trkpt lat="47.49178" lon="6.77081">
        <ele>312</ele>
        <time>2016-01-31T08:35:22.000Z</time>
      </trkpt>
      <trkpt lat="47.49178" lon="6.77088">
        <ele>312</ele>
        <time>2016-01-31T08:35:23.000Z</time>
      </trkpt>
      <trkpt lat="47.49179" lon="6.77094">
        <ele>312</ele>
        <time>2016-01-31T08:35:24.000Z</time>
      </trkpt>
      <trkpt lat="47.49181" lon="6.771">
        <ele>312</ele>
        <time>2016-01-31T08:35:25.000Z</time>
      </trkpt>
      <trkpt lat="47.49181" lon="6.77105">
        <ele>313</ele>
        <time>2016-01-31T08:35:26.000Z</time>
      </trkpt>
      <trkpt lat="47.49181" lon="6.7711">
        <ele>313</ele>
        <time>2016-01-31T08:35:27.000Z</time>
      </trkpt>
      <trkpt lat="47.49181" lon="6.77116">
        <ele>313</ele>
        <time>2016-01-31T08:35:28.000Z</time>
      </trkpt>
      <trkpt lat="47.49183" lon="6.77118">
        <ele>313</ele>
        <time>2016-01-31T08:35:29.000Z</time>
      </trkpt>
      <trkpt lat="47.49183" lon="6.77123">
        <ele>313</ele>
        <time>2016-01-31T08:35:30.000Z</time>
      </trkpt>
      <trkpt lat="47.49184" lon="6.77126">
        <ele>313</ele>
        <time>2016-01-31T08:35:31.000Z</time>
      </trkpt>
      <trkpt lat="47.49184" lon="6.7713">
        <ele>313</ele>
        <time>2016-01-31T08:35:32.000Z</time>
      </trkpt>
      <trkpt lat="47.49185" lon="6.77134">
        <ele>313</ele>
        <time>2016-01-31T08:35:33.000Z</time>
      </trkpt>
      <trkpt lat="47.49186" lon="6.77139">
        <ele>313</ele>
        <time>2016-01-31T08:35:34.000Z</time>
      </trkpt>
      <trkpt lat="47.49187" lon="6.77144">
        <ele>313</ele>
        <time>2016-01-31T08:35:35.000Z</time>
      </trkpt>
      <trkpt lat="47.49189" lon="6.77156">
        <ele>313</ele>
        <time>2016-01-31T08:35:36.000Z</time>
      </trkpt>
      <trkpt lat="47.4919" lon="6.77162">
        <ele>313</ele>
        <time>2016-01-31T08:35:37.000Z</time>
      </trkpt>
      <trkpt lat="47.49191" lon="6.77168">
        <ele>313</ele>
        <time>2016-01-31T08:35:38.000Z</time>
      </trkpt>
      <trkpt lat="47.49191" lon="6.77175">
        <ele>313</ele>
        <time>2016-01-31T08:35:39.000Z</time>
      </trkpt>
      <trkpt lat="47.4919" lon="6.77183">
        <ele>313</ele>
        <time>2016-01-31T08:35:40.000Z</time>
      </trkpt>
      <trkpt lat="47.4919" lon="6.77189">
        <ele>312</ele>
        <time>2016-01-31T08:35:41.000Z</time>
      </trkpt>
      <trkpt lat="47.49191" lon="6.77195">
        <ele>312</ele>
        <time>2016-01-31T08:35:42.000Z</time>
      </trkpt>
      <trkpt lat="47.49191" lon="6.77202">
        <ele>312</ele>
        <time>2016-01-31T08:35:43.000Z</time>
      </trkpt>
      <trkpt lat="47.49192" lon="6.77208">
        <ele>312</ele>
        <time>2016-01-31T08:35:44.000Z</time>
      </trkpt>
      <trkpt lat="47.49192" lon="6.77215">
        <ele>312</ele>
        <time>2016-01-31T08:35:45.000Z</time>
      </trkpt>
      <trkpt lat="47.49192" lon="6.77221">
        <ele>312</ele>
        <time>2016-01-31T08:35:46.000Z</time>
      </trkpt>
      <trkpt lat="47.49191" lon="6.77228">
        <ele>312</ele>
        <time>2016-01-31T08:35:47.000Z</time>
      </trkpt>
      <trkpt lat="47.49192" lon="6.77234">
        <ele>312</ele>
        <time>2016-01-31T08:35:48.000Z</time>
      </trkpt>
      <trkpt lat="47.49193" lon="6.7724">
        <ele>312</ele>
        <time>2016-01-31T08:35:49.000Z</time>
      </trkpt>
      <trkpt lat="47.49193" lon="6.77247">
        <ele>312</ele>
        <time>2016-01-31T08:35:50.000Z</time>
      </trkpt>
      <trkpt lat="47.49193" lon="6.77255">
        <ele>311</ele>
        <time>2016-01-31T08:35:51.000Z</time>
      </trkpt>
      <trkpt lat="47.49192" lon="6.77262">
        <ele>311</ele>
        <time>2016-01-31T08:35:52.000Z</time>
      </trkpt>
      <trkpt lat="47.49192" lon="6.77269">
        <ele>311</ele>
        <time>2016-01-31T08:35:53.000Z</time>
      </trkpt>
      <trkpt lat="47.49191" lon="6.77277">
        <ele>311</ele>
        <time>2016-01-31T08:35:54.000Z</time>
      </trkpt>
      <trkpt lat="47.49191" lon="6.77285">
        <ele>311</ele>
        <time>2016-01-31T08:35:55.000Z</time>
      </trkpt>
      <trkpt lat="47.49191" lon="6.77292">
        <ele>311</ele>
        <time>2016-01-31T08:35:56.000Z</time>
      </trkpt>
      <trkpt lat="47.49191" lon="6.773">
        <ele>311</ele>
        <time>2016-01-31T08:35:57.000Z</time>
      </trkpt>
      <trkpt lat="47.4919" lon="6.77308">
        <ele>311</ele>
        <time>2016-01-31T08:35:58.000Z</time>
      </trkpt>
      <trkpt lat="47.49189" lon="6.77316">
        <ele>311</ele>
        <time>2016-01-31T08:35:59.000Z</time>
      </trkpt>
      <trkpt lat="47.49186" lon="6.77322">
        <ele>310</ele>
        <time>2016-01-31T08:36:00.000Z</time>
      </trkpt>
      <trkpt lat="47.49182" lon="6.77328">
        <ele>310</ele>
        <time>2016-01-31T08:36:01.000Z</time>
      </trkpt>
      <trkpt lat="47.49179" lon="6.77331">
        <ele>310</ele>
        <time>2016-01-31T08:36:02.000Z</time>
      </trkpt>
      <trkpt lat="47.49175" lon="6.77333">
        <ele>310</ele>
        <time>2016-01-31T08:36:03.000Z</time>
      </trkpt>
      <trkpt lat="47.49171" lon="6.77334">
        <ele>310</ele>
        <time>2016-01-31T08:36:04.000Z</time>
      </trkpt>
      <trkpt lat="47.49167" lon="6.77333">
        <ele>310</ele>
        <time>2016-01-31T08:36:05.000Z</time>
      </trkpt>
      <trkpt lat="47.49164" lon="6.77333">
        <ele>310</ele>
        <time>2016-01-31T08:36:06.000Z</time>
      </trkpt>
      <trkpt lat="47.4916" lon="6.77333">
        <ele>310</ele>
        <time>2016-01-31T08:36:07.000Z</time>
      </trkpt>
      <trkpt lat="47.49157" lon="6.77334">
        <ele>310</ele>
        <time>2016-01-31T08:36:08.000Z</time>
      </trkpt>
      <trkpt lat="47.49154" lon="6.77334">
        <ele>310</ele>
        <time>2016-01-31T08:36:09.000Z</time>
      </trkpt>
      <trkpt lat="47.49151" lon="6.77337">
        <ele>310</ele>
        <time>2016-01-31T08:36:10.000Z</time>
      </trkpt>
      <trkpt lat="47.49149" lon="6.77338">
        <ele>310</ele>
        <time>2016-01-31T08:36:11.000Z</time>
      </trkpt>
      <trkpt lat="47.49146" lon="6.77332">
        <ele>311</ele>
        <time>2016-01-31T08:36:34.000Z</time>
      </trkpt>
      <trkpt lat="47.49146" lon="6.77332">
        <ele>311</ele>
        <time>2016-01-31T08:36:35.000Z</time>
      </trkpt>
      <trkpt lat="47.49143" lon="6.77332">
        <ele>311</ele>
        <time>2016-01-31T08:37:33.000Z</time>
      </trkpt>
      <trkpt lat="47.49141" lon="6.77332">
        <ele>311</ele>
        <time>2016-01-31T08:37:34.000Z</time>
      </trkpt>
      <trkpt lat="47.49139" lon="6.77333">
        <ele>311</ele>
        <time>2016-01-31T08:37:34.999Z</time>
      </trkpt>
      <trkpt lat="47.49136" lon="6.77333">
        <ele>311</ele>
        <time>2016-01-31T08:37:36.000Z</time>
      </trkpt>
      <trkpt lat="47.49133" lon="6.77334">
        <ele>310</ele>
        <time>2016-01-31T08:37:37.000Z</time>
      </trkpt>
      <trkpt lat="47.49131" lon="6.77334">
        <ele>310</ele>
        <time>2016-01-31T08:37:37.999Z</time>
      </trkpt>
      <trkpt lat="47.49127" lon="6.77334">
        <ele>310</ele>
        <time>2016-01-31T08:37:39.000Z</time>
      </trkpt>
      <trkpt lat="47.49123" lon="6.77334">
        <ele>310</ele>
        <time>2016-01-31T08:37:40.001Z</time>
      </trkpt>
      <trkpt lat="47.49119" lon="6.77333">
        <ele>311</ele>
        <time>2016-01-31T08:37:41.000Z</time>
      </trkpt>
      <trkpt lat="47.49114" lon="6.77333">
        <ele>311</ele>
        <time>2016-01-31T08:37:42.000Z</time>
      </trkpt>
      <trkpt lat="47.4911" lon="6.77332">
        <ele>311</ele>
        <time>2016-01-31T08:37:43.000Z</time>
      </trkpt>
      <trkpt lat="47.49106" lon="6.77332">
        <ele>311</ele>
        <time>2016-01-31T08:37:44.000Z</time>
      </trkpt>
      <trkpt lat="47.49101" lon="6.77332">
        <ele>311</ele>
        <time>2016-01-31T08:37:45.000Z</time>
      </trkpt>
      <trkpt lat="47.49097" lon="6.77332">
        <ele>311</ele>
        <time>2016-01-31T08:37:46.000Z</time>
      </trkpt>
      <trkpt lat="47.49092" lon="6.77332">
        <ele>311</ele>
        <time>2016-01-31T08:37:47.000Z</time>
      </trkpt>
      <trkpt lat="47.49086" lon="6.77332">
        <ele>311</ele>
        <time>2016-01-31T08:37:48.000Z</time>
      </trkpt>
      <trkpt lat="47.49081" lon="6.77332">
        <ele>311</ele>
        <time>2016-01-31T08:37:48.999Z</time>
      </trkpt>
      <trkpt lat="47.49078" lon="6.77331">
        <ele>311</ele>
        <time>2016-01-31T08:37:50.000Z</time>
      </trkpt>
      <trkpt lat="47.49073" lon="6.7733">
        <ele>311</ele>
        <time>2016-01-31T08:37:51.000Z</time>
      </trkpt>
      <trkpt lat="47.49069" lon="6.7733">
        <ele>311</ele>
        <time>2016-01-31T08:37:52.000Z</time>
      </trkpt>
      <trkpt lat="47.49064" lon="6.77331">
        <ele>311</ele>
        <time>2016-01-31T08:37:53.000Z</time>
      </trkpt>
      <trkpt lat="47.49059" lon="6.77331">
        <ele>311</ele>
        <time>2016-01-31T08:37:54.000Z</time>
      </trkpt>
      <trkpt lat="47.49054" lon="6.77331">
        <ele>311</ele>
        <time>2016-01-31T08:37:55.000Z</time>
      </trkpt>
      <trkpt lat="47.49049" lon="6.77334">
        <ele>311</ele>
        <time>2016-01-31T08:37:56.000Z</time>
      </trkpt>
      <trkpt lat="47.49044" lon="6.77336">
        <ele>311</ele>
        <time>2016-01-31T08:37:57.000Z</time>
      </trkpt>
      <trkpt lat="47.49039" lon="6.77335">
        <ele>311</ele>
        <time>2016-01-31T08:37:58.000Z</time>
      </trkpt>
      <trkpt lat="47.49034" lon="6.77335">
        <ele>311</ele>
        <time>2016-01-31T08:37:59.000Z</time>
      </trkpt>
      <trkpt lat="47.4903" lon="6.77334">
        <ele>311</ele>
        <time>2016-01-31T08:38:00.000Z</time>
      </trkpt>
      <trkpt lat="47.49026" lon="6.77334">
        <ele>311</ele>
        <time>2016-01-31T08:38:01.000Z</time>
      </trkpt>
      <trkpt lat="47.49022" lon="6.77334">
        <ele>311</ele>
        <time>2016-01-31T08:38:02.001Z</time>
      </trkpt>
      <trkpt lat="47.49018" lon="6.77333">
        <ele>311</ele>
        <time>2016-01-31T08:38:03.000Z</time>
      </trkpt>
      <trkpt lat="47.49012" lon="6.77333">
        <ele>311</ele>
        <time>2016-01-31T08:38:04.000Z</time>
      </trkpt>
      <trkpt lat="47.49007" lon="6.77333">
        <ele>311</ele>
        <time>2016-01-31T08:38:05.000Z</time>
      </trkpt>
      <trkpt lat="47.49002" lon="6.77333">
        <ele>311</ele>
        <time>2016-01-31T08:38:06.000Z</time>
      </trkpt>
      <trkpt lat="47.48997" lon="6.77332">
        <ele>311</ele>
        <time>2016-01-31T08:38:07.000Z</time>
      </trkpt>
      <trkpt lat="47.48992" lon="6.77332">
        <ele>311</ele>
        <time>2016-01-31T08:38:08.000Z</time>
      </trkpt>
      <trkpt lat="47.48987" lon="6.77332">
        <ele>311</ele>
        <time>2016-01-31T08:38:09.000Z</time>
      </trkpt>
      <trkpt lat="47.48983" lon="6.77333">
        <ele>311</ele>
        <time>2016-01-31T08:38:10.000Z</time>
      </trkpt>
      <trkpt lat="47.48977" lon="6.77333">
        <ele>311</ele>
        <time>2016-01-31T08:38:11.000Z</time>
      </trkpt>
      <trkpt lat="47.48972" lon="6.77332">
        <ele>311</ele>
        <time>2016-01-31T08:38:12.000Z</time>
      </trkpt>
      <trkpt lat="47.48967" lon="6.77331">
        <ele>311</ele>
        <time>2016-01-31T08:38:13.000Z</time>
      </trkpt>
      <trkpt lat="47.48962" lon="6.77329">
        <ele>311</ele>
        <time>2016-01-31T08:38:14.000Z</time>
      </trkpt>
      <trkpt lat="47.48958" lon="6.77328">
        <ele>311</ele>
        <time>2016-01-31T08:38:15.000Z</time>
      </trkpt>
      <trkpt lat="47.48952" lon="6.77328">
        <ele>311</ele>
        <time>2016-01-31T08:38:16.000Z</time>
      </trkpt>
      <trkpt lat="47.48947" lon="6.77329">
        <ele>311</ele>
        <time>2016-01-31T08:38:17.000Z</time>
      </trkpt>
      <trkpt lat="47.48942" lon="6.77327">
        <ele>311</ele>
        <time>2016-01-31T08:38:18.000Z</time>
      </trkpt>
      <trkpt lat="47.48937" lon="6.77325">
        <ele>310</ele>
        <time>2016-01-31T08:38:19.000Z</time>
      </trkpt>
      <trkpt lat="47.48933" lon="6.77324">
        <ele>310</ele>
        <time>2016-01-31T08:38:20.000Z</time>
      </trkpt>
      <trkpt lat="47.48928" lon="6.77322">
        <ele>310</ele>
        <time>2016-01-31T08:38:21.000Z</time>
      </trkpt>
      <trkpt lat="47.48923" lon="6.7732">
        <ele>310</ele>
        <time>2016-01-31T08:38:22.000Z</time>
      </trkpt>
      <trkpt lat="47.48918" lon="6.77317">
        <ele>310</ele>
        <time>2016-01-31T08:38:23.000Z</time>
      </trkpt>
      <trkpt lat="47.48914" lon="6.77314">
        <ele>310</ele>
        <time>2016-01-31T08:38:24.000Z</time>
      </trkpt>
      <trkpt lat="47.4891" lon="6.77312">
        <ele>310</ele>
        <time>2016-01-31T08:38:25.000Z</time>
      </trkpt>
      <trkpt lat="47.48907" lon="6.7731">
        <ele>310</ele>
        <time>2016-01-31T08:38:26.000Z</time>
      </trkpt>
      <trkpt lat="47.48903" lon="6.77308">
        <ele>310</ele>
        <time>2016-01-31T08:38:27.000Z</time>
      </trkpt>
      <trkpt lat="47.489" lon="6.77307">
        <ele>310</ele>
        <time>2016-01-31T08:38:28.000Z</time>
      </trkpt>
      <trkpt lat="47.48896" lon="6.77306">
        <ele>310</ele>
        <time>2016-01-31T08:38:29.000Z</time>
      </trkpt>
      <trkpt lat="47.48892" lon="6.77305">
        <ele>310</ele>
        <time>2016-01-31T08:38:30.000Z</time>
      </trkpt>
      <trkpt lat="47.48888" lon="6.77304">
        <ele>310</ele>
        <time>2016-01-31T08:38:31.000Z</time>
      </trkpt>
      <trkpt lat="47.48884" lon="6.77304">
        <ele>310</ele>
        <time>2016-01-31T08:38:32.000Z</time>
      </trkpt>
      <trkpt lat="47.4888" lon="6.77303">
        <ele>310</ele>
        <time>2016-01-31T08:38:33.000Z</time>
      </trkpt>
      <trkpt lat="47.48876" lon="6.77302">
        <ele>310</ele>
        <time>2016-01-31T08:38:34.000Z</time>
      </trkpt>
      <trkpt lat="47.48872" lon="6.77301">
        <ele>310</ele>
        <time>2016-01-31T08:38:35.000Z</time>
      </trkpt>
      <trkpt lat="47.48868" lon="6.77296">
        <ele>310</ele>
        <time>2016-01-31T08:38:36.000Z</time>
      </trkpt>
      <trkpt lat="47.48863" lon="6.77296">
        <ele>310</ele>
        <time>2016-01-31T08:38:37.000Z</time>
      </trkpt>
      <trkpt lat="47.48858" lon="6.77294">
        <ele>310</ele>
        <time>2016-01-31T08:38:38.000Z</time>
      </trkpt>
      <trkpt lat="47.48853" lon="6.77293">
        <ele>310</ele>
        <time>2016-01-31T08:38:39.000Z</time>
      </trkpt>
      <trkpt lat="47.48848" lon="6.77292">
        <ele>310</ele>
        <time>2016-01-31T08:38:40.000Z</time>
      </trkpt>
      <trkpt lat="47.48844" lon="6.77289">
        <ele>310</ele>
        <time>2016-01-31T08:38:41.000Z</time>
      </trkpt>
      <trkpt lat="47.48839" lon="6.77287">
        <ele>310</ele>
        <time>2016-01-31T08:38:42.000Z</time>
      </trkpt>
      <trkpt lat="47.48835" lon="6.77284">
        <ele>310</ele>
        <time>2016-01-31T08:38:43.000Z</time>
      </trkpt>
      <trkpt lat="47.48831" lon="6.7728">
        <ele>310</ele>
        <time>2016-01-31T08:38:44.000Z</time>
      </trkpt>
      <trkpt lat="47.48826" lon="6.77275">
        <ele>310</ele>
        <time>2016-01-31T08:38:45.000Z</time>
      </trkpt>
      <trkpt lat="47.48821" lon="6.77272">
        <ele>310</ele>
        <time>2016-01-31T08:38:46.000Z</time>
      </trkpt>
      <trkpt lat="47.48817" lon="6.77268">
        <ele>310</ele>
        <time>2016-01-31T08:38:47.000Z</time>
      </trkpt>
      <trkpt lat="47.48812" lon="6.77265">
        <ele>310</ele>
        <time>2016-01-31T08:38:48.000Z</time>
      </trkpt>
      <trkpt lat="47.48807" lon="6.77262">
        <ele>310</ele>
        <time>2016-01-31T08:38:49.000Z</time>
      </trkpt>
      <trkpt lat="47.48802" lon="6.7726">
        <ele>310</ele>
        <time>2016-01-31T08:38:50.000Z</time>
      </trkpt>
      <trkpt lat="47.48798" lon="6.77255">
        <ele>310</ele>
        <time>2016-01-31T08:38:51.000Z</time>
      </trkpt>
      <trkpt lat="47.48793" lon="6.77251">
        <ele>310</ele>
        <time>2016-01-31T08:38:52.000Z</time>
      </trkpt>
      <trkpt lat="47.48789" lon="6.77248">
        <ele>310</ele>
        <time>2016-01-31T08:38:53.000Z</time>
      </trkpt>
      <trkpt lat="47.48784" lon="6.77245">
        <ele>310</ele>
        <time>2016-01-31T08:38:54.000Z</time>
      </trkpt>
      <trkpt lat="47.4878" lon="6.7724">
        <ele>310</ele>
        <time>2016-01-31T08:38:55.000Z</time>
      </trkpt>
      <trkpt lat="47.48775" lon="6.77237">
        <ele>310</ele>
        <time>2016-01-31T08:38:56.000Z</time>
      </trkpt>
      <trkpt lat="47.48771" lon="6.77233">
        <ele>310</ele>
        <time>2016-01-31T08:38:57.000Z</time>
      </trkpt>
      <trkpt lat="47.48766" lon="6.7723">
        <ele>310</ele>
        <time>2016-01-31T08:38:58.000Z</time>
      </trkpt>
      <trkpt lat="47.48762" lon="6.77227">
        <ele>310</ele>
        <time>2016-01-31T08:38:59.000Z</time>
      </trkpt>
      <trkpt lat="47.48757" lon="6.77224">
        <ele>310</ele>
        <time>2016-01-31T08:39:00.000Z</time>
      </trkpt>
      <trkpt lat="47.48753" lon="6.7722">
        <ele>310</ele>
        <time>2016-01-31T08:39:01.000Z</time>
      </trkpt>
      <trkpt lat="47.48748" lon="6.77215">
        <ele>310</ele>
        <time>2016-01-31T08:39:02.000Z</time>
      </trkpt>
      <trkpt lat="47.48743" lon="6.77212">
        <ele>310</ele>
        <time>2016-01-31T08:39:03.000Z</time>
      </trkpt>
      <trkpt lat="47.48739" lon="6.77208">
        <ele>310</ele>
        <time>2016-01-31T08:39:04.000Z</time>
      </trkpt>
      <trkpt lat="47.48734" lon="6.77205">
        <ele>310</ele>
        <time>2016-01-31T08:39:05.000Z</time>
      </trkpt>
      <trkpt lat="47.4873" lon="6.77201">
        <ele>310</ele>
        <time>2016-01-31T08:39:06.000Z</time>
      </trkpt>
      <trkpt lat="47.48726" lon="6.77198">
        <ele>310</ele>
        <time>2016-01-31T08:39:07.000Z</time>
      </trkpt>
      <trkpt lat="47.48721" lon="6.77194">
        <ele>310</ele>
        <time>2016-01-31T08:39:08.000Z</time>
      </trkpt>
      <trkpt lat="47.48717" lon="6.77191">
        <ele>310</ele>
        <time>2016-01-31T08:39:09.000Z</time>
      </trkpt>
      <trkpt lat="47.48712" lon="6.77186">
        <ele>310</ele>
        <time>2016-01-31T08:39:10.000Z</time>
      </trkpt>
      <trkpt lat="47.48708" lon="6.77181">
        <ele>310</ele>
        <time>2016-01-31T08:39:11.000Z</time>
      </trkpt>
      <trkpt lat="47.48704" lon="6.77178">
        <ele>310</ele>
        <time>2016-01-31T08:39:12.000Z</time>
      </trkpt>
      <trkpt lat="47.48699" lon="6.77176">
        <ele>311</ele>
        <time>2016-01-31T08:39:13.000Z</time>
      </trkpt>
      <trkpt lat="47.48695" lon="6.77172">
        <ele>311</ele>
        <time>2016-01-31T08:39:14.000Z</time>
      </trkpt>
      <trkpt lat="47.4869" lon="6.77168">
        <ele>311</ele>
        <time>2016-01-31T08:39:15.000Z</time>
      </trkpt>
      <trkpt lat="47.48686" lon="6.77163">
        <ele>311</ele>
        <time>2016-01-31T08:39:16.000Z</time>
      </trkpt>
      <trkpt lat="47.48682" lon="6.77159">
        <ele>311</ele>
        <time>2016-01-31T08:39:17.000Z</time>
      </trkpt>
      <trkpt lat="47.48678" lon="6.77155">
        <ele>311</ele>
        <time>2016-01-31T08:39:18.000Z</time>
      </trkpt>
      <trkpt lat="47.48674" lon="6.77151">
        <ele>311</ele>
        <time>2016-01-31T08:39:19.000Z</time>
      </trkpt>
      <trkpt lat="47.4867" lon="6.77147">
        <ele>311</ele>
        <time>2016-01-31T08:39:20.000Z</time>
      </trkpt>
      <trkpt lat="47.48666" lon="6.77143">
        <ele>312</ele>
        <time>2016-01-31T08:39:21.000Z</time>
      </trkpt>
      <trkpt lat="47.48662" lon="6.77138">
        <ele>312</ele>
        <time>2016-01-31T08:39:22.000Z</time>
      </trkpt>
      <trkpt lat="47.48658" lon="6.77133">
        <ele>312</ele>
        <time>2016-01-31T08:39:23.000Z</time>
      </trkpt>
      <trkpt lat="47.48654" lon="6.77129">
        <ele>312</ele>
        <time>2016-01-31T08:39:24.000Z</time>
      </trkpt>
      <trkpt lat="47.4865" lon="6.77125">
        <ele>312</ele>
        <time>2016-01-31T08:39:25.000Z</time>
      </trkpt>
      <trkpt lat="47.48646" lon="6.77121">
        <ele>312</ele>
        <time>2016-01-31T08:39:26.001Z</time>
      </trkpt>
      <trkpt lat="47.48642" lon="6.77115">
        <ele>312</ele>
        <time>2016-01-31T08:39:27.000Z</time>
      </trkpt>
      <trkpt lat="47.48638" lon="6.7711">
        <ele>312</ele>
        <time>2016-01-31T08:39:28.000Z</time>
      </trkpt>
      <trkpt lat="47.48634" lon="6.77105">
        <ele>312</ele>
        <time>2016-01-31T08:39:29.000Z</time>
      </trkpt>
      <trkpt lat="47.48631" lon="6.771">
        <ele>312</ele>
        <time>2016-01-31T08:39:30.000Z</time>
      </trkpt>
      <trkpt lat="47.48627" lon="6.77096">
        <ele>312</ele>
        <time>2016-01-31T08:39:31.000Z</time>
      </trkpt>
      <trkpt lat="47.48623" lon="6.77093">
        <ele>312</ele>
        <time>2016-01-31T08:39:31.999Z</time>
      </trkpt>
      <trkpt lat="47.48619" lon="6.77091">
        <ele>312</ele>
        <time>2016-01-31T08:39:33.000Z</time>
      </trkpt>
      <trkpt lat="47.48615" lon="6.7709">
        <ele>312</ele>
        <time>2016-01-31T08:39:34.000Z</time>
      </trkpt>
      <trkpt lat="47.48611" lon="6.77087">
        <ele>312</ele>
        <time>2016-01-31T08:39:35.000Z</time>
      </trkpt>
      <trkpt lat="47.48607" lon="6.77083">
        <ele>313</ele>
        <time>2016-01-31T08:39:36.000Z</time>
      </trkpt>
      <trkpt lat="47.48602" lon="6.77079">
        <ele>313</ele>
        <time>2016-01-31T08:39:37.000Z</time>
      </trkpt>
      <trkpt lat="47.48598" lon="6.77073">
        <ele>313</ele>
        <time>2016-01-31T08:39:38.000Z</time>
      </trkpt>
      <trkpt lat="47.48593" lon="6.7707">
        <ele>313</ele>
        <time>2016-01-31T08:39:39.000Z</time>
      </trkpt>
      <trkpt lat="47.48588" lon="6.77067">
        <ele>313</ele>
        <time>2016-01-31T08:39:40.000Z</time>
      </trkpt>
      <trkpt lat="47.48584" lon="6.77065">
        <ele>313</ele>
        <time>2016-01-31T08:39:41.000Z</time>
      </trkpt>
      <trkpt lat="47.48579" lon="6.77064">
        <ele>314</ele>
        <time>2016-01-31T08:39:42.000Z</time>
      </trkpt>
      <trkpt lat="47.48575" lon="6.77061">
        <ele>314</ele>
        <time>2016-01-31T08:39:43.000Z</time>
      </trkpt>
      <trkpt lat="47.4857" lon="6.77061">
        <ele>314</ele>
        <time>2016-01-31T08:39:44.000Z</time>
      </trkpt>
      <trkpt lat="47.48566" lon="6.77059">
        <ele>314</ele>
        <time>2016-01-31T08:39:45.000Z</time>
      </trkpt>
      <trkpt lat="47.48561" lon="6.77057">
        <ele>314</ele>
        <time>2016-01-31T08:39:45.999Z</time>
      </trkpt>
      <trkpt lat="47.48555" lon="6.77058">
        <ele>314</ele>
        <time>2016-01-31T08:39:47.000Z</time>
      </trkpt>
      <trkpt lat="47.48549" lon="6.7706">
        <ele>314</ele>
        <time>2016-01-31T08:39:47.999Z</time>
      </trkpt>
      <trkpt lat="47.48543" lon="6.77054">
        <ele>314</ele>
        <time>2016-01-31T08:39:49.000Z</time>
      </trkpt>
      <trkpt lat="47.48538" lon="6.77052">
        <ele>314</ele>
        <time>2016-01-31T08:39:50.000Z</time>
      </trkpt>
      <trkpt lat="47.48532" lon="6.77049">
        <ele>314</ele>
        <time>2016-01-31T08:39:50.999Z</time>
      </trkpt>
      <trkpt lat="47.48527" lon="6.77045">
        <ele>314</ele>
        <time>2016-01-31T08:39:52.000Z</time>
      </trkpt>
      <trkpt lat="47.48522" lon="6.77041">
        <ele>314</ele>
        <time>2016-01-31T08:39:53.000Z</time>
      </trkpt>
      <trkpt lat="47.48517" lon="6.77037">
        <ele>314</ele>
        <time>2016-01-31T08:39:54.000Z</time>
      </trkpt>
      <trkpt lat="47.48512" lon="6.77033">
        <ele>314</ele>
        <time>2016-01-31T08:39:55.000Z</time>
      </trkpt>
      <trkpt lat="47.48507" lon="6.77028">
        <ele>314</ele>
        <time>2016-01-31T08:39:56.000Z</time>
      </trkpt>
      <trkpt lat="47.48502" lon="6.77024">
        <ele>315</ele>
        <time>2016-01-31T08:39:57.000Z</time>
      </trkpt>
      <trkpt lat="47.48499" lon="6.77018">
        <ele>315</ele>
        <time>2016-01-31T08:39:58.000Z</time>
      </trkpt>
      <trkpt lat="47.48494" lon="6.77014">
        <ele>315</ele>
        <time>2016-01-31T08:39:59.000Z</time>
      </trkpt>
      <trkpt lat="47.48489" lon="6.77011">
        <ele>315</ele>
        <time>2016-01-31T08:40:00.001Z</time>
      </trkpt>
      <trkpt lat="47.48483" lon="6.77007">
        <ele>315</ele>
        <time>2016-01-31T08:40:01.000Z</time>
      </trkpt>
      <trkpt lat="47.48479" lon="6.77004">
        <ele>314</ele>
        <time>2016-01-31T08:40:02.000Z</time>
      </trkpt>
      <trkpt lat="47.48474" lon="6.77001">
        <ele>314</ele>
        <time>2016-01-31T08:40:03.000Z</time>
      </trkpt>
      <trkpt lat="47.48469" lon="6.76997">
        <ele>315</ele>
        <time>2016-01-31T08:40:04.000Z</time>
      </trkpt>
      <trkpt lat="47.48463" lon="6.76994">
        <ele>315</ele>
        <time>2016-01-31T08:40:05.000Z</time>
      </trkpt>
      <trkpt lat="47.48458" lon="6.76991">
        <ele>315</ele>
        <time>2016-01-31T08:40:06.000Z</time>
      </trkpt>
      <trkpt lat="47.48453" lon="6.76987">
        <ele>315</ele>
        <time>2016-01-31T08:40:07.000Z</time>
      </trkpt>
      <trkpt lat="47.48448" lon="6.76984">
        <ele>315</ele>
        <time>2016-01-31T08:40:07.998Z</time>
      </trkpt>
      <trkpt lat="47.48443" lon="6.76982">
        <ele>314</ele>
        <time>2016-01-31T08:40:09.000Z</time>
      </trkpt>
      <trkpt lat="47.48438" lon="6.7698">
        <ele>314</ele>
        <time>2016-01-31T08:40:10.000Z</time>
      </trkpt>
      <trkpt lat="47.48433" lon="6.76978">
        <ele>314</ele>
        <time>2016-01-31T08:40:11.000Z</time>
      </trkpt>
      <trkpt lat="47.48428" lon="6.76976">
        <ele>314</ele>
        <time>2016-01-31T08:40:12.000Z</time>
      </trkpt>
      <trkpt lat="47.48423" lon="6.76973">
        <ele>314</ele>
        <time>2016-01-31T08:40:13.000Z</time>
      </trkpt>
      <trkpt lat="47.48418" lon="6.7697">
        <ele>314</ele>
        <time>2016-01-31T08:40:14.000Z</time>
      </trkpt>
      <trkpt lat="47.48413" lon="6.76968">
        <ele>312</ele>
        <time>2016-01-31T08:40:15.000Z</time>
      </trkpt>
      <trkpt lat="47.48408" lon="6.76966">
        <ele>312</ele>
        <time>2016-01-31T08:40:16.000Z</time>
      </trkpt>
      <trkpt lat="47.48403" lon="6.76965">
        <ele>312</ele>
        <time>2016-01-31T08:40:17.000Z</time>
      </trkpt>
      <trkpt lat="47.48397" lon="6.76964">
        <ele>312</ele>
        <time>2016-01-31T08:40:17.999Z</time>
      </trkpt>
      <trkpt lat="47.48392" lon="6.7696">
        <ele>312</ele>
        <time>2016-01-31T08:40:19.000Z</time>
      </trkpt>
      <trkpt lat="47.48386" lon="6.76957">
        <ele>312</ele>
        <time>2016-01-31T08:40:20.000Z</time>
      </trkpt>
      <trkpt lat="47.48381" lon="6.76954">
        <ele>312</ele>
        <time>2016-01-31T08:40:21.000Z</time>
      </trkpt>
      <trkpt lat="47.48376" lon="6.76951">
        <ele>312</ele>
        <time>2016-01-31T08:40:22.000Z</time>
      </trkpt>
      <trkpt lat="47.48371" lon="6.76949">
        <ele>312</ele>
        <time>2016-01-31T08:40:23.000Z</time>
      </trkpt>
      <trkpt lat="47.48366" lon="6.76947">
        <ele>312</ele>
        <time>2016-01-31T08:40:24.000Z</time>
      </trkpt>
      <trkpt lat="47.48361" lon="6.76943">
        <ele>312</ele>
        <time>2016-01-31T08:40:25.000Z</time>
      </trkpt>
      <trkpt lat="47.48357" lon="6.7694">
        <ele>311</ele>
        <time>2016-01-31T08:40:25.999Z</time>
      </trkpt>
      <trkpt lat="47.48353" lon="6.76935">
        <ele>311</ele>
        <time>2016-01-31T08:40:27.000Z</time>
      </trkpt>
      <trkpt lat="47.48349" lon="6.76931">
        <ele>311</ele>
        <time>2016-01-31T08:40:28.000Z</time>
      </trkpt>
      <trkpt lat="47.48345" lon="6.76928">
        <ele>310</ele>
        <time>2016-01-31T08:40:29.000Z</time>
      </trkpt>
      <trkpt lat="47.4834" lon="6.76924">
        <ele>310</ele>
        <time>2016-01-31T08:40:30.000Z</time>
      </trkpt>
      <trkpt lat="47.48336" lon="6.76922">
        <ele>310</ele>
        <time>2016-01-31T08:40:31.000Z</time>
      </trkpt>
      <trkpt lat="47.48331" lon="6.76918">
        <ele>309</ele>
        <time>2016-01-31T08:40:32.000Z</time>
      </trkpt>
      <trkpt lat="47.48327" lon="6.76913">
        <ele>309</ele>
        <time>2016-01-31T08:40:33.000Z</time>
      </trkpt>
      <trkpt lat="47.4832" lon="6.76905">
        <ele>310</ele>
        <time>2016-01-31T08:40:34.000Z</time>
      </trkpt>
      <trkpt lat="47.48314" lon="6.769">
        <ele>310</ele>
        <time>2016-01-31T08:40:34.999Z</time>
      </trkpt>
      <trkpt lat="47.48311" lon="6.76895">
        <ele>310</ele>
        <time>2016-01-31T08:40:36.000Z</time>
      </trkpt>
      <trkpt lat="47.48306" lon="6.76892">
        <ele>310</ele>
        <time>2016-01-31T08:40:37.000Z</time>
      </trkpt>
      <trkpt lat="47.48302" lon="6.76888">
        <ele>310</ele>
        <time>2016-01-31T08:40:37.999Z</time>
      </trkpt>
      <trkpt lat="47.48295" lon="6.76882">
        <ele>310</ele>
        <time>2016-01-31T08:40:39.000Z</time>
      </trkpt>
      <trkpt lat="47.48291" lon="6.76878">
        <ele>310</ele>
        <time>2016-01-31T08:40:40.000Z</time>
      </trkpt>
      <trkpt lat="47.48286" lon="6.76872">
        <ele>310</ele>
        <time>2016-01-31T08:40:41.000Z</time>
      </trkpt>
      <trkpt lat="47.48282" lon="6.76866">
        <ele>310</ele>
        <time>2016-01-31T08:40:42.000Z</time>
      </trkpt>
      <trkpt lat="47.48278" lon="6.76858">
        <ele>310</ele>
        <time>2016-01-31T08:40:43.000Z</time>
      </trkpt>
      <trkpt lat="47.48275" lon="6.76852">
        <ele>311</ele>
        <time>2016-01-31T08:40:44.000Z</time>
      </trkpt>
      <trkpt lat="47.48271" lon="6.76846">
        <ele>311</ele>
        <time>2016-01-31T08:40:45.000Z</time>
      </trkpt>
      <trkpt lat="47.48267" lon="6.76842">
        <ele>311</ele>
        <time>2016-01-31T08:40:46.000Z</time>
      </trkpt>
      <trkpt lat="47.48262" lon="6.76837">
        <ele>311</ele>
        <time>2016-01-31T08:40:47.000Z</time>
      </trkpt>
      <trkpt lat="47.48258" lon="6.76832">
        <ele>312</ele>
        <time>2016-01-31T08:40:48.000Z</time>
      </trkpt>
      <trkpt lat="47.48254" lon="6.76828">
        <ele>312</ele>
        <time>2016-01-31T08:40:49.000Z</time>
      </trkpt>
      <trkpt lat="47.48251" lon="6.76822">
        <ele>312</ele>
        <time>2016-01-31T08:40:50.000Z</time>
      </trkpt>
      <trkpt lat="47.48247" lon="6.76816">
        <ele>311</ele>
        <time>2016-01-31T08:40:50.999Z</time>
      </trkpt>
      <trkpt lat="47.48242" lon="6.76812">
        <ele>312</ele>
        <time>2016-01-31T08:40:52.000Z</time>
      </trkpt>
      <trkpt lat="47.48238" lon="6.76809">
        <ele>312</ele>
        <time>2016-01-31T08:40:53.000Z</time>
      </trkpt>
      <trkpt lat="47.48233" lon="6.76806">
        <ele>312</ele>
        <time>2016-01-31T08:40:54.000Z</time>
      </trkpt>
      <trkpt lat="47.48227" lon="6.76802">
        <ele>312</ele>
        <time>2016-01-31T08:40:55.000Z</time>
      </trkpt>
      <trkpt lat="47.48223" lon="6.76799">
        <ele>312</ele>
        <time>2016-01-31T08:40:56.000Z</time>
      </trkpt>
      <trkpt lat="47.48217" lon="6.76797">
        <ele>312</ele>
        <time>2016-01-31T08:40:57.000Z</time>
      </trkpt>
      <trkpt lat="47.48212" lon="6.76795">
        <ele>312</ele>
        <time>2016-01-31T08:40:58.000Z</time>
      </trkpt>
      <trkpt lat="47.48207" lon="6.76792">
        <ele>312</ele>
        <time>2016-01-31T08:40:59.000Z</time>
      </trkpt>
      <trkpt lat="47.48201" lon="6.7679">
        <ele>312</ele>
        <time>2016-01-31T08:41:00.000Z</time>
      </trkpt>
      <trkpt lat="47.48196" lon="6.76787">
        <ele>312</ele>
        <time>2016-01-31T08:41:01.000Z</time>
      </trkpt>
      <trkpt lat="47.48191" lon="6.76784">
        <ele>312</ele>
        <time>2016-01-31T08:41:02.000Z</time>
      </trkpt>
      <trkpt lat="47.48186" lon="6.76781">
        <ele>312</ele>
        <time>2016-01-31T08:41:03.000Z</time>
      </trkpt>
      <trkpt lat="47.48181" lon="6.76777">
        <ele>312</ele>
        <time>2016-01-31T08:41:04.000Z</time>
      </trkpt>
      <trkpt lat="47.48177" lon="6.76773">
        <ele>312</ele>
        <time>2016-01-31T08:41:05.000Z</time>
      </trkpt>
      <trkpt lat="47.48173" lon="6.76767">
        <ele>312</ele>
        <time>2016-01-31T08:41:06.000Z</time>
      </trkpt>
      <trkpt lat="47.48168" lon="6.76763">
        <ele>313</ele>
        <time>2016-01-31T08:41:07.000Z</time>
      </trkpt>
      <trkpt lat="47.48164" lon="6.76757">
        <ele>313</ele>
        <time>2016-01-31T08:41:08.000Z</time>
      </trkpt>
      <trkpt lat="47.4816" lon="6.76751">
        <ele>313</ele>
        <time>2016-01-31T08:41:09.000Z</time>
      </trkpt>
      <trkpt lat="47.48157" lon="6.76744">
        <ele>313</ele>
        <time>2016-01-31T08:41:10.000Z</time>
      </trkpt>
      <trkpt lat="47.48153" lon="6.76738">
        <ele>312</ele>
        <time>2016-01-31T08:41:11.000Z</time>
      </trkpt>
      <trkpt lat="47.48151" lon="6.7673">
        <ele>312</ele>
        <time>2016-01-31T08:41:12.000Z</time>
      </trkpt>
      <trkpt lat="47.48147" lon="6.76724">
        <ele>312</ele>
        <time>2016-01-31T08:41:13.000Z</time>
      </trkpt>
      <trkpt lat="47.48144" lon="6.76718">
        <ele>312</ele>
        <time>2016-01-31T08:41:14.000Z</time>
      </trkpt>
      <trkpt lat="47.48141" lon="6.7671">
        <ele>312</ele>
        <time>2016-01-31T08:41:15.000Z</time>
      </trkpt>
      <trkpt lat="47.48138" lon="6.76703">
        <ele>312</ele>
        <time>2016-01-31T08:41:16.000Z</time>
      </trkpt>
      <trkpt lat="47.48135" lon="6.76696">
        <ele>312</ele>
        <time>2016-01-31T08:41:17.000Z</time>
      </trkpt>
      <trkpt lat="47.48132" lon="6.7669">
        <ele>312</ele>
        <time>2016-01-31T08:41:18.000Z</time>
      </trkpt>
      <trkpt lat="47.48129" lon="6.76685">
        <ele>312</ele>
        <time>2016-01-31T08:41:19.000Z</time>
      </trkpt>
      <trkpt lat="47.48125" lon="6.7668">
        <ele>312</ele>
        <time>2016-01-31T08:41:20.000Z</time>
      </trkpt>
      <trkpt lat="47.48122" lon="6.76675">
        <ele>312</ele>
        <time>2016-01-31T08:41:21.000Z</time>
      </trkpt>
      <trkpt lat="47.48119" lon="6.7667">
        <ele>312</ele>
        <time>2016-01-31T08:41:22.000Z</time>
      </trkpt>
      <trkpt lat="47.48116" lon="6.76667">
        <ele>312</ele>
        <time>2016-01-31T08:41:23.000Z</time>
      </trkpt>
      <trkpt lat="47.48114" lon="6.76662">
        <ele>312</ele>
        <time>2016-01-31T08:41:24.000Z</time>
      </trkpt>
      <trkpt lat="47.4811" lon="6.76657">
        <ele>312</ele>
        <time>2016-01-31T08:41:25.000Z</time>
      </trkpt>
      <trkpt lat="47.48108" lon="6.76652">
        <ele>312</ele>
        <time>2016-01-31T08:41:26.000Z</time>
      </trkpt>
      <trkpt lat="47.48105" lon="6.76646">
        <ele>312</ele>
        <time>2016-01-31T08:41:27.000Z</time>
      </trkpt>
      <trkpt lat="47.48103" lon="6.76641">
        <ele>313</ele>
        <time>2016-01-31T08:41:28.000Z</time>
      </trkpt>
      <trkpt lat="47.481" lon="6.76635">
        <ele>313</ele>
        <time>2016-01-31T08:41:29.000Z</time>
      </trkpt>
      <trkpt lat="47.48098" lon="6.76629">
        <ele>313</ele>
        <time>2016-01-31T08:41:30.000Z</time>
      </trkpt>
      <trkpt lat="47.48097" lon="6.76621">
        <ele>313</ele>
        <time>2016-01-31T08:41:31.000Z</time>
      </trkpt>
      <trkpt lat="47.48097" lon="6.76612">
        <ele>313</ele>
        <time>2016-01-31T08:41:32.000Z</time>
      </trkpt>
      <trkpt lat="47.48097" lon="6.76606">
        <ele>313</ele>
        <time>2016-01-31T08:41:33.000Z</time>
      </trkpt>
      <trkpt lat="47.48098" lon="6.76599">
        <ele>313</ele>
        <time>2016-01-31T08:41:34.000Z</time>
      </trkpt>
      <trkpt lat="47.48099" lon="6.76593">
        <ele>313</ele>
        <time>2016-01-31T08:41:35.000Z</time>
      </trkpt>
      <trkpt lat="47.48101" lon="6.76587">
        <ele>313</ele>
        <time>2016-01-31T08:41:36.000Z</time>
      </trkpt>
      <trkpt lat="47.48104" lon="6.76584">
        <ele>313</ele>
        <time>2016-01-31T08:41:37.000Z</time>
      </trkpt>
      <trkpt lat="47.48106" lon="6.76579">
        <ele>316</ele>
        <time>2016-01-31T08:41:38.000Z</time>
      </trkpt>
      <trkpt lat="47.4811" lon="6.76572">
        <ele>317</ele>
        <time>2016-01-31T08:41:39.000Z</time>
      </trkpt>
      <trkpt lat="47.48114" lon="6.76567">
        <ele>318</ele>
        <time>2016-01-31T08:41:40.000Z</time>
      </trkpt>
      <trkpt lat="47.48117" lon="6.76561">
        <ele>318</ele>
        <time>2016-01-31T08:41:41.000Z</time>
      </trkpt>
      <trkpt lat="47.48119" lon="6.76555">
        <ele>319</ele>
        <time>2016-01-31T08:41:42.000Z</time>
      </trkpt>
      <trkpt lat="47.48119" lon="6.7655">
        <ele>319</ele>
        <time>2016-01-31T08:41:43.000Z</time>
      </trkpt>
      <trkpt lat="47.4812" lon="6.76546">
        <ele>319</ele>
        <time>2016-01-31T08:41:44.000Z</time>
      </trkpt>
      <trkpt lat="47.48117" lon="6.76542">
        <ele>319</ele>
        <time>2016-01-31T08:41:45.000Z</time>
      </trkpt>
      <trkpt lat="47.48115" lon="6.76538">
        <ele>319</ele>
        <time>2016-01-31T08:41:46.000Z</time>
      </trkpt>
      <trkpt lat="47.48113" lon="6.76534">
        <ele>319</ele>
        <time>2016-01-31T08:41:47.000Z</time>
      </trkpt>
      <trkpt lat="47.48111" lon="6.76531">
        <ele>319</ele>
        <time>2016-01-31T08:41:48.000Z</time>
      </trkpt>
      <trkpt lat="47.48109" lon="6.76527">
        <ele>319</ele>
        <time>2016-01-31T08:41:49.000Z</time>
      </trkpt>
      <trkpt lat="47.48107" lon="6.76523">
        <ele>319</ele>
        <time>2016-01-31T08:41:50.000Z</time>
      </trkpt>
      <trkpt lat="47.48105" lon="6.7652">
        <ele>318</ele>
        <time>2016-01-31T08:41:51.000Z</time>
      </trkpt>
      <trkpt lat="47.48101" lon="6.76518">
        <ele>318</ele>
        <time>2016-01-31T08:41:53.000Z</time>
      </trkpt>
      <trkpt lat="47.48099" lon="6.76519">
        <ele>318</ele>
        <time>2016-01-31T08:41:54.000Z</time>
      </trkpt>
      <trkpt lat="47.48097" lon="6.76521">
        <ele>318</ele>
        <time>2016-01-31T08:41:55.000Z</time>
      </trkpt>
      <trkpt lat="47.48095" lon="6.76524">
        <ele>317</ele>
        <time>2016-01-31T08:41:56.000Z</time>
      </trkpt>
      <trkpt lat="47.48092" lon="6.76527">
        <ele>317</ele>
        <time>2016-01-31T08:41:57.000Z</time>
      </trkpt>
      <trkpt lat="47.4809" lon="6.7653">
        <ele>317</ele>
        <time>2016-01-31T08:41:58.000Z</time>
      </trkpt>
      <trkpt lat="47.48087" lon="6.76533">
        <ele>317</ele>
        <time>2016-01-31T08:41:59.000Z</time>
      </trkpt>
      <trkpt lat="47.48085" lon="6.76536">
        <ele>317</ele>
        <time>2016-01-31T08:42:00.000Z</time>
      </trkpt>
      <trkpt lat="47.48082" lon="6.76538">
        <ele>312</ele>
        <time>2016-01-31T08:42:01.000Z</time>
      </trkpt>
      <trkpt lat="47.48078" lon="6.76541">
        <ele>312</ele>
        <time>2016-01-31T08:42:02.000Z</time>
      </trkpt>
      <trkpt lat="47.48075" lon="6.76544">
        <ele>312</ele>
        <time>2016-01-31T08:42:03.000Z</time>
      </trkpt>
      <trkpt lat="47.48071" lon="6.76548">
        <ele>312</ele>
        <time>2016-01-31T08:42:04.000Z</time>
      </trkpt>
      <trkpt lat="47.48067" lon="6.76551">
        <ele>312</ele>
        <time>2016-01-31T08:42:05.000Z</time>
      </trkpt>
      <trkpt lat="47.48064" lon="6.76554">
        <ele>312</ele>
        <time>2016-01-31T08:42:06.000Z</time>
      </trkpt>
      <trkpt lat="47.4806" lon="6.76558">
        <ele>312</ele>
        <time>2016-01-31T08:42:07.000Z</time>
      </trkpt>
      <trkpt lat="47.48057" lon="6.76561">
        <ele>312</ele>
        <time>2016-01-31T08:42:08.000Z</time>
      </trkpt>
      <trkpt lat="47.48053" lon="6.76564">
        <ele>312</ele>
        <time>2016-01-31T08:42:09.000Z</time>
      </trkpt>
      <trkpt lat="47.4805" lon="6.76568">
        <ele>312</ele>
        <time>2016-01-31T08:42:10.000Z</time>
      </trkpt>
      <trkpt lat="47.48046" lon="6.76571">
        <ele>312</ele>
        <time>2016-01-31T08:42:11.000Z</time>
      </trkpt>
      <trkpt lat="47.48043" lon="6.76575">
        <ele>312</ele>
        <time>2016-01-31T08:42:12.000Z</time>
      </trkpt>
      <trkpt lat="47.4804" lon="6.76579">
        <ele>312</ele>
        <time>2016-01-31T08:42:12.999Z</time>
      </trkpt>
      <trkpt lat="47.48036" lon="6.76583">
        <ele>312</ele>
        <time>2016-01-31T08:42:14.000Z</time>
      </trkpt>
      <trkpt lat="47.48033" lon="6.76586">
        <ele>312</ele>
        <time>2016-01-31T08:42:15.000Z</time>
      </trkpt>
      <trkpt lat="47.48029" lon="6.76589">
        <ele>312</ele>
        <time>2016-01-31T08:42:16.000Z</time>
      </trkpt>
      <trkpt lat="47.48026" lon="6.76591">
        <ele>312</ele>
        <time>2016-01-31T08:42:17.000Z</time>
      </trkpt>
      <trkpt lat="47.48022" lon="6.76593">
        <ele>312</ele>
        <time>2016-01-31T08:42:18.000Z</time>
      </trkpt>
      <trkpt lat="47.48019" lon="6.76595">
        <ele>312</ele>
        <time>2016-01-31T08:42:18.999Z</time>
      </trkpt>
      <trkpt lat="47.48016" lon="6.76596">
        <ele>312</ele>
        <time>2016-01-31T08:42:20.000Z</time>
      </trkpt>
      <trkpt lat="47.48012" lon="6.76598">
        <ele>312</ele>
        <time>2016-01-31T08:42:21.000Z</time>
      </trkpt>
      <trkpt lat="47.48009" lon="6.766">
        <ele>312</ele>
        <time>2016-01-31T08:42:22.000Z</time>
      </trkpt>
      <trkpt lat="47.48006" lon="6.76602">
        <ele>312</ele>
        <time>2016-01-31T08:42:23.000Z</time>
      </trkpt>
      <trkpt lat="47.48003" lon="6.76604">
        <ele>312</ele>
        <time>2016-01-31T08:42:24.000Z</time>
      </trkpt>
      <trkpt lat="47.47999" lon="6.76607">
        <ele>312</ele>
        <time>2016-01-31T08:42:25.000Z</time>
      </trkpt>
      <trkpt lat="47.47995" lon="6.76609">
        <ele>312</ele>
        <time>2016-01-31T08:42:26.000Z</time>
      </trkpt>
      <trkpt lat="47.4799" lon="6.76612">
        <ele>312</ele>
        <time>2016-01-31T08:42:27.000Z</time>
      </trkpt>
      <trkpt lat="47.47985" lon="6.76615">
        <ele>311</ele>
        <time>2016-01-31T08:42:28.000Z</time>
      </trkpt>
      <trkpt lat="47.47978" lon="6.76621">
        <ele>311</ele>
        <time>2016-01-31T08:42:29.000Z</time>
      </trkpt>
      <trkpt lat="47.47973" lon="6.76621">
        <ele>311</ele>
        <time>2016-01-31T08:42:30.000Z</time>
      </trkpt>
      <trkpt lat="47.47969" lon="6.76622">
        <ele>311</ele>
        <time>2016-01-31T08:42:31.000Z</time>
      </trkpt>
      <trkpt lat="47.47965" lon="6.76625">
        <ele>311</ele>
        <time>2016-01-31T08:42:32.000Z</time>
      </trkpt>
      <trkpt lat="47.4796" lon="6.76627">
        <ele>311</ele>
        <time>2016-01-31T08:42:33.000Z</time>
      </trkpt>
      <trkpt lat="47.47957" lon="6.76629">
        <ele>311</ele>
        <time>2016-01-31T08:42:34.000Z</time>
      </trkpt>
      <trkpt lat="47.47954" lon="6.76631">
        <ele>311</ele>
        <time>2016-01-31T08:42:35.000Z</time>
      </trkpt>
      <trkpt lat="47.4795" lon="6.76633">
        <ele>311</ele>
        <time>2016-01-31T08:42:36.000Z</time>
      </trkpt>
      <trkpt lat="47.47948" lon="6.76634">
        <ele>311</ele>
        <time>2016-01-31T08:42:37.000Z</time>
      </trkpt>
      <trkpt lat="47.47945" lon="6.76635">
        <ele>311</ele>
        <time>2016-01-31T08:42:38.000Z</time>
      </trkpt>
      <trkpt lat="47.47942" lon="6.76636">
        <ele>311</ele>
        <time>2016-01-31T08:42:39.000Z</time>
      </trkpt>
      <trkpt lat="47.47939" lon="6.76638">
        <ele>311</ele>
        <time>2016-01-31T08:42:40.000Z</time>
      </trkpt>
      <trkpt lat="47.47936" lon="6.76639">
        <ele>311</ele>
        <time>2016-01-31T08:42:41.000Z</time>
      </trkpt>
      <trkpt lat="47.47932" lon="6.76641">
        <ele>311</ele>
        <time>2016-01-31T08:42:42.000Z</time>
      </trkpt>
      <trkpt lat="47.47928" lon="6.76643">
        <ele>311</ele>
        <time>2016-01-31T08:42:43.000Z</time>
      </trkpt>
      <trkpt lat="47.4792" lon="6.76649">
        <ele>311</ele>
        <time>2016-01-31T08:42:44.000Z</time>
      </trkpt>
      <trkpt lat="47.47916" lon="6.76652">
        <ele>310</ele>
        <time>2016-01-31T08:42:45.000Z</time>
      </trkpt>
      <trkpt lat="47.47911" lon="6.76658">
        <ele>311</ele>
        <time>2016-01-31T08:42:46.000Z</time>
      </trkpt>
      <trkpt lat="47.47907" lon="6.76664">
        <ele>311</ele>
        <time>2016-01-31T08:42:47.000Z</time>
      </trkpt>
      <trkpt lat="47.47901" lon="6.76669">
        <ele>311</ele>
        <time>2016-01-31T08:42:48.000Z</time>
      </trkpt>
      <trkpt lat="47.47896" lon="6.76675">
        <ele>311</ele>
        <time>2016-01-31T08:42:49.000Z</time>
      </trkpt>
      <trkpt lat="47.47893" lon="6.76681">
        <ele>310</ele>
        <time>2016-01-31T08:42:50.000Z</time>
      </trkpt>
      <trkpt lat="47.47889" lon="6.76688">
        <ele>310</ele>
        <time>2016-01-31T08:42:51.000Z</time>
      </trkpt>
      <trkpt lat="47.47886" lon="6.76695">
        <ele>310</ele>
        <time>2016-01-31T08:42:52.000Z</time>
      </trkpt>
      <trkpt lat="47.47882" lon="6.76702">
        <ele>310</ele>
        <time>2016-01-31T08:42:53.000Z</time>
      </trkpt>
      <trkpt lat="47.47879" lon="6.7671">
        <ele>310</ele>
        <time>2016-01-31T08:42:54.000Z</time>
      </trkpt>
      <trkpt lat="47.47876" lon="6.76717">
        <ele>310</ele>
        <time>2016-01-31T08:42:55.000Z</time>
      </trkpt>
      <trkpt lat="47.47872" lon="6.76723">
        <ele>310</ele>
        <time>2016-01-31T08:42:56.000Z</time>
      </trkpt>
      <trkpt lat="47.4787" lon="6.7673">
        <ele>310</ele>
        <time>2016-01-31T08:42:57.000Z</time>
      </trkpt>
      <trkpt lat="47.47867" lon="6.76737">
        <ele>310</ele>
        <time>2016-01-31T08:42:58.000Z</time>
      </trkpt>
      <trkpt lat="47.47864" lon="6.76742">
        <ele>310</ele>
        <time>2016-01-31T08:42:59.000Z</time>
      </trkpt>
      <trkpt lat="47.4786" lon="6.76748">
        <ele>310</ele>
        <time>2016-01-31T08:43:00.000Z</time>
      </trkpt>
      <trkpt lat="47.47857" lon="6.76754">
        <ele>311</ele>
        <time>2016-01-31T08:43:01.000Z</time>
      </trkpt>
      <trkpt lat="47.47854" lon="6.7676">
        <ele>311</ele>
        <time>2016-01-31T08:43:02.000Z</time>
      </trkpt>
      <trkpt lat="47.47851" lon="6.76766">
        <ele>311</ele>
        <time>2016-01-31T08:43:03.000Z</time>
      </trkpt>
      <trkpt lat="47.47849" lon="6.76772">
        <ele>311</ele>
        <time>2016-01-31T08:43:04.000Z</time>
      </trkpt>
      <trkpt lat="47.47846" lon="6.76779">
        <ele>311</ele>
        <time>2016-01-31T08:43:05.000Z</time>
      </trkpt>
      <trkpt lat="47.47843" lon="6.76786">
        <ele>311</ele>
        <time>2016-01-31T08:43:06.000Z</time>
      </trkpt>
      <trkpt lat="47.47839" lon="6.76792">
        <ele>311</ele>
        <time>2016-01-31T08:43:07.000Z</time>
      </trkpt>
      <trkpt lat="47.47836" lon="6.76797">
        <ele>311</ele>
        <time>2016-01-31T08:43:08.000Z</time>
      </trkpt>
      <trkpt lat="47.47831" lon="6.76801">
        <ele>310</ele>
        <time>2016-01-31T08:43:09.000Z</time>
      </trkpt>
      <trkpt lat="47.47828" lon="6.76804">
        <ele>310</ele>
        <time>2016-01-31T08:43:10.000Z</time>
      </trkpt>
      <trkpt lat="47.47823" lon="6.76805">
        <ele>310</ele>
        <time>2016-01-31T08:43:11.000Z</time>
      </trkpt>
      <trkpt lat="47.47817" lon="6.76803">
        <ele>310</ele>
        <time>2016-01-31T08:43:12.000Z</time>
      </trkpt>
      <trkpt lat="47.47812" lon="6.76801">
        <ele>310</ele>
        <time>2016-01-31T08:43:13.000Z</time>
      </trkpt>
      <trkpt lat="47.47807" lon="6.768">
        <ele>310</ele>
        <time>2016-01-31T08:43:14.000Z</time>
      </trkpt>
      <trkpt lat="47.47801" lon="6.76799">
        <ele>310</ele>
        <time>2016-01-31T08:43:15.000Z</time>
      </trkpt>
      <trkpt lat="47.47797" lon="6.76797">
        <ele>310</ele>
        <time>2016-01-31T08:43:16.000Z</time>
      </trkpt>
      <trkpt lat="47.47792" lon="6.76796">
        <ele>310</ele>
        <time>2016-01-31T08:43:17.000Z</time>
      </trkpt>
      <trkpt lat="47.47788" lon="6.76794">
        <ele>311</ele>
        <time>2016-01-31T08:43:18.000Z</time>
      </trkpt>
      <trkpt lat="47.47783" lon="6.76792">
        <ele>311</ele>
        <time>2016-01-31T08:43:19.000Z</time>
      </trkpt>
      <trkpt lat="47.47779" lon="6.76792">
        <ele>311</ele>
        <time>2016-01-31T08:43:20.000Z</time>
      </trkpt>
      <trkpt lat="47.47775" lon="6.76789">
        <ele>311</ele>
        <time>2016-01-31T08:43:21.000Z</time>
      </trkpt>
      <trkpt lat="47.47771" lon="6.76787">
        <ele>311</ele>
        <time>2016-01-31T08:43:22.000Z</time>
      </trkpt>
      <trkpt lat="47.47767" lon="6.76789">
        <ele>311</ele>
        <time>2016-01-31T08:43:23.000Z</time>
      </trkpt>
      <trkpt lat="47.47763" lon="6.76788">
        <ele>311</ele>
        <time>2016-01-31T08:43:24.000Z</time>
      </trkpt>
      <trkpt lat="47.47759" lon="6.76788">
        <ele>311</ele>
        <time>2016-01-31T08:43:25.000Z</time>
      </trkpt>
      <trkpt lat="47.47755" lon="6.76788">
        <ele>311</ele>
        <time>2016-01-31T08:43:26.000Z</time>
      </trkpt>
      <trkpt lat="47.47751" lon="6.76788">
        <ele>311</ele>
        <time>2016-01-31T08:43:27.000Z</time>
      </trkpt>
      <trkpt lat="47.47747" lon="6.7679">
        <ele>311</ele>
        <time>2016-01-31T08:43:28.000Z</time>
      </trkpt>
      <trkpt lat="47.47743" lon="6.76791">
        <ele>311</ele>
        <time>2016-01-31T08:43:29.000Z</time>
      </trkpt>
      <trkpt lat="47.47739" lon="6.76793">
        <ele>311</ele>
        <time>2016-01-31T08:43:30.000Z</time>
      </trkpt>
      <trkpt lat="47.47734" lon="6.76801">
        <ele>311</ele>
        <time>2016-01-31T08:43:31.000Z</time>
      </trkpt>
      <trkpt lat="47.4773" lon="6.76805">
        <ele>311</ele>
        <time>2016-01-31T08:43:32.000Z</time>
      </trkpt>
      <trkpt lat="47.47727" lon="6.76812">
        <ele>311</ele>
        <time>2016-01-31T08:43:33.000Z</time>
      </trkpt>
      <trkpt lat="47.47723" lon="6.76819">
        <ele>311</ele>
        <time>2016-01-31T08:43:34.000Z</time>
      </trkpt>
      <trkpt lat="47.47721" lon="6.76826">
        <ele>311</ele>
        <time>2016-01-31T08:43:35.000Z</time>
      </trkpt>
      <trkpt lat="47.47717" lon="6.76832">
        <ele>311</ele>
        <time>2016-01-31T08:43:36.000Z</time>
      </trkpt>
      <trkpt lat="47.47714" lon="6.7684">
        <ele>311</ele>
        <time>2016-01-31T08:43:37.000Z</time>
      </trkpt>
      <trkpt lat="47.47714" lon="6.76847">
        <ele>311</ele>
        <time>2016-01-31T08:43:38.000Z</time>
      </trkpt>
      <trkpt lat="47.47714" lon="6.76855">
        <ele>311</ele>
        <time>2016-01-31T08:43:39.000Z</time>
      </trkpt>
      <trkpt lat="47.4771" lon="6.76861">
        <ele>311</ele>
        <time>2016-01-31T08:43:40.000Z</time>
      </trkpt>
      <trkpt lat="47.47708" lon="6.76868">
        <ele>311</ele>
        <time>2016-01-31T08:43:41.000Z</time>
      </trkpt>
      <trkpt lat="47.47706" lon="6.76874">
        <ele>311</ele>
        <time>2016-01-31T08:43:42.000Z</time>
      </trkpt>
      <trkpt lat="47.47703" lon="6.76882">
        <ele>311</ele>
        <time>2016-01-31T08:43:43.000Z</time>
      </trkpt>
      <trkpt lat="47.477" lon="6.76889">
        <ele>311</ele>
        <time>2016-01-31T08:43:44.000Z</time>
      </trkpt>
      <trkpt lat="47.47695" lon="6.76896">
        <ele>311</ele>
        <time>2016-01-31T08:43:45.000Z</time>
      </trkpt>
      <trkpt lat="47.47693" lon="6.76903">
        <ele>311</ele>
        <time>2016-01-31T08:43:46.000Z</time>
      </trkpt>
      <trkpt lat="47.4769" lon="6.7691">
        <ele>311</ele>
        <time>2016-01-31T08:43:47.000Z</time>
      </trkpt>
      <trkpt lat="47.47688" lon="6.76917">
        <ele>311</ele>
        <time>2016-01-31T08:43:48.000Z</time>
      </trkpt>
      <trkpt lat="47.47686" lon="6.76923">
        <ele>311</ele>
        <time>2016-01-31T08:43:49.000Z</time>
      </trkpt>
      <trkpt lat="47.47683" lon="6.76931">
        <ele>311</ele>
        <time>2016-01-31T08:43:50.000Z</time>
      </trkpt>
      <trkpt lat="47.47681" lon="6.76938">
        <ele>311</ele>
        <time>2016-01-31T08:43:51.000Z</time>
      </trkpt>
      <trkpt lat="47.47679" lon="6.76945">
        <ele>311</ele>
        <time>2016-01-31T08:43:52.000Z</time>
      </trkpt>
      <trkpt lat="47.47676" lon="6.76952">
        <ele>311</ele>
        <time>2016-01-31T08:43:53.000Z</time>
      </trkpt>
      <trkpt lat="47.47673" lon="6.76959">
        <ele>311</ele>
        <time>2016-01-31T08:43:54.000Z</time>
      </trkpt>
      <trkpt lat="47.4767" lon="6.76967">
        <ele>311</ele>
        <time>2016-01-31T08:43:55.000Z</time>
      </trkpt>
      <trkpt lat="47.47668" lon="6.76973">
        <ele>311</ele>
        <time>2016-01-31T08:43:56.000Z</time>
      </trkpt>
      <trkpt lat="47.47665" lon="6.7698">
        <ele>311</ele>
        <time>2016-01-31T08:43:57.000Z</time>
      </trkpt>
      <trkpt lat="47.47663" lon="6.76986">
        <ele>311</ele>
        <time>2016-01-31T08:43:58.000Z</time>
      </trkpt>
      <trkpt lat="47.47662" lon="6.76992">
        <ele>311</ele>
        <time>2016-01-31T08:43:59.000Z</time>
      </trkpt>
      <trkpt lat="47.4766" lon="6.76997">
        <ele>311</ele>
        <time>2016-01-31T08:44:00.000Z</time>
      </trkpt>
      <trkpt lat="47.47659" lon="6.77003">
        <ele>311</ele>
        <time>2016-01-31T08:44:01.000Z</time>
      </trkpt>
      <trkpt lat="47.47658" lon="6.77008">
        <ele>311</ele>
        <time>2016-01-31T08:44:02.000Z</time>
      </trkpt>
      <trkpt lat="47.47658" lon="6.77013">
        <ele>311</ele>
        <time>2016-01-31T08:44:03.000Z</time>
      </trkpt>
      <trkpt lat="47.47657" lon="6.77019">
        <ele>311</ele>
        <time>2016-01-31T08:44:04.000Z</time>
      </trkpt>
      <trkpt lat="47.47656" lon="6.77024">
        <ele>311</ele>
        <time>2016-01-31T08:44:05.000Z</time>
      </trkpt>
      <trkpt lat="47.47655" lon="6.7703">
        <ele>311</ele>
        <time>2016-01-31T08:44:06.000Z</time>
      </trkpt>
      <trkpt lat="47.47654" lon="6.77035">
        <ele>311</ele>
        <time>2016-01-31T08:44:07.000Z</time>
      </trkpt>
      <trkpt lat="47.47653" lon="6.77041">
        <ele>311</ele>
        <time>2016-01-31T08:44:08.000Z</time>
      </trkpt>
      <trkpt lat="47.47652" lon="6.77047">
        <ele>311</ele>
        <time>2016-01-31T08:44:09.000Z</time>
      </trkpt>
      <trkpt lat="47.47651" lon="6.77052">
        <ele>311</ele>
        <time>2016-01-31T08:44:10.000Z</time>
      </trkpt>
      <trkpt lat="47.47649" lon="6.77057">
        <ele>311</ele>
        <time>2016-01-31T08:44:11.000Z</time>
      </trkpt>
      <trkpt lat="47.47648" lon="6.77062">
        <ele>311</ele>
        <time>2016-01-31T08:44:12.000Z</time>
      </trkpt>
      <trkpt lat="47.47647" lon="6.77067">
        <ele>311</ele>
        <time>2016-01-31T08:44:13.000Z</time>
      </trkpt>
      <trkpt lat="47.47644" lon="6.77076">
        <ele>311</ele>
        <time>2016-01-31T08:44:14.000Z</time>
      </trkpt>
      <trkpt lat="47.47644" lon="6.77083">
        <ele>311</ele>
        <time>2016-01-31T08:44:15.000Z</time>
      </trkpt>
      <trkpt lat="47.47643" lon="6.7709">
        <ele>311</ele>
        <time>2016-01-31T08:44:16.000Z</time>
      </trkpt>
      <trkpt lat="47.47641" lon="6.77098">
        <ele>311</ele>
        <time>2016-01-31T08:44:17.000Z</time>
      </trkpt>
      <trkpt lat="47.4764" lon="6.77106">
        <ele>310</ele>
        <time>2016-01-31T08:44:18.000Z</time>
      </trkpt>
      <trkpt lat="47.47639" lon="6.77115">
        <ele>310</ele>
        <time>2016-01-31T08:44:19.000Z</time>
      </trkpt>
      <trkpt lat="47.47637" lon="6.77125">
        <ele>310</ele>
        <time>2016-01-31T08:44:20.000Z</time>
      </trkpt>
      <trkpt lat="47.47633" lon="6.77136">
        <ele>310</ele>
        <time>2016-01-31T08:44:21.000Z</time>
      </trkpt>
      <trkpt lat="47.4763" lon="6.77146">
        <ele>310</ele>
        <time>2016-01-31T08:44:22.000Z</time>
      </trkpt>
      <trkpt lat="47.47626" lon="6.77155">
        <ele>310</ele>
        <time>2016-01-31T08:44:22.999Z</time>
      </trkpt>
      <trkpt lat="47.47623" lon="6.77164">
        <ele>310</ele>
        <time>2016-01-31T08:44:24.000Z</time>
      </trkpt>
      <trkpt lat="47.4762" lon="6.77172">
        <ele>310</ele>
        <time>2016-01-31T08:44:25.000Z</time>
      </trkpt>
      <trkpt lat="47.47615" lon="6.77179">
        <ele>310</ele>
        <time>2016-01-31T08:44:26.000Z</time>
      </trkpt>
      <trkpt lat="47.4761" lon="6.77185">
        <ele>310</ele>
        <time>2016-01-31T08:44:27.000Z</time>
      </trkpt>
      <trkpt lat="47.47603" lon="6.77186">
        <ele>310</ele>
        <time>2016-01-31T08:44:28.000Z</time>
      </trkpt>
      <trkpt lat="47.47596" lon="6.77186">
        <ele>310</ele>
        <time>2016-01-31T08:44:29.000Z</time>
      </trkpt>
      <trkpt lat="47.4759" lon="6.77184">
        <ele>310</ele>
        <time>2016-01-31T08:44:30.000Z</time>
      </trkpt>
      <trkpt lat="47.47585" lon="6.77182">
        <ele>310</ele>
        <time>2016-01-31T08:44:31.000Z</time>
      </trkpt>
      <trkpt lat="47.4758" lon="6.77176">
        <ele>310</ele>
        <time>2016-01-31T08:44:32.000Z</time>
      </trkpt>
      <trkpt lat="47.47574" lon="6.77172">
        <ele>310</ele>
        <time>2016-01-31T08:44:33.000Z</time>
      </trkpt>
      <trkpt lat="47.47569" lon="6.77168">
        <ele>310</ele>
        <time>2016-01-31T08:44:34.000Z</time>
      </trkpt>
      <trkpt lat="47.47563" lon="6.77164">
        <ele>310</ele>
        <time>2016-01-31T08:44:35.000Z</time>
      </trkpt>
      <trkpt lat="47.47558" lon="6.7716">
        <ele>310</ele>
        <time>2016-01-31T08:44:36.000Z</time>
      </trkpt>
      <trkpt lat="47.47553" lon="6.77156">
        <ele>310</ele>
        <time>2016-01-31T08:44:37.000Z</time>
      </trkpt>
      <trkpt lat="47.47547" lon="6.77152">
        <ele>310</ele>
        <time>2016-01-31T08:44:38.000Z</time>
      </trkpt>
      <trkpt lat="47.47542" lon="6.77148">
        <ele>310</ele>
        <time>2016-01-31T08:44:39.000Z</time>
      </trkpt>
      <trkpt lat="47.47538" lon="6.77145">
        <ele>310</ele>
        <time>2016-01-31T08:44:40.000Z</time>
      </trkpt>
      <trkpt lat="47.47533" lon="6.77142">
        <ele>310</ele>
        <time>2016-01-31T08:44:41.000Z</time>
      </trkpt>
      <trkpt lat="47.47529" lon="6.77143">
        <ele>310</ele>
        <time>2016-01-31T08:44:42.000Z</time>
      </trkpt>
      <trkpt lat="47.47524" lon="6.77147">
        <ele>310</ele>
        <time>2016-01-31T08:44:43.000Z</time>
      </trkpt>
      <trkpt lat="47.4752" lon="6.7715">
        <ele>310</ele>
        <time>2016-01-31T08:44:44.000Z</time>
      </trkpt>
      <trkpt lat="47.47516" lon="6.77154">
        <ele>310</ele>
        <time>2016-01-31T08:44:45.000Z</time>
      </trkpt>
      <trkpt lat="47.47515" lon="6.77162">
        <ele>309</ele>
        <time>2016-01-31T08:44:46.000Z</time>
      </trkpt>
      <trkpt lat="47.47516" lon="6.77175">
        <ele>310</ele>
        <time>2016-01-31T08:44:47.000Z</time>
      </trkpt>
      <trkpt lat="47.4752" lon="6.7718">
        <ele>310</ele>
        <time>2016-01-31T08:44:48.000Z</time>
      </trkpt>
      <trkpt lat="47.47523" lon="6.77184">
        <ele>310</ele>
        <time>2016-01-31T08:44:49.000Z</time>
      </trkpt>
      <trkpt lat="47.47526" lon="6.77188">
        <ele>310</ele>
        <time>2016-01-31T08:44:50.000Z</time>
      </trkpt>
      <trkpt lat="47.47531" lon="6.7719">
        <ele>310</ele>
        <time>2016-01-31T08:44:51.000Z</time>
      </trkpt>
      <trkpt lat="47.47535" lon="6.77193">
        <ele>310</ele>
        <time>2016-01-31T08:44:52.000Z</time>
      </trkpt>
      <trkpt lat="47.47541" lon="6.77196">
        <ele>310</ele>
        <time>2016-01-31T08:44:53.000Z</time>
      </trkpt>
      <trkpt lat="47.47546" lon="6.77198">
        <ele>310</ele>
        <time>2016-01-31T08:44:54.000Z</time>
      </trkpt>
      <trkpt lat="47.47551" lon="6.77201">
        <ele>310</ele>
        <time>2016-01-31T08:44:55.000Z</time>
      </trkpt>
      <trkpt lat="47.47556" lon="6.77204">
        <ele>310</ele>
        <time>2016-01-31T08:44:56.000Z</time>
      </trkpt>
      <trkpt lat="47.47562" lon="6.77207">
        <ele>310</ele>
        <time>2016-01-31T08:44:57.000Z</time>
      </trkpt>
      <trkpt lat="47.47567" lon="6.77212">
        <ele>311</ele>
        <time>2016-01-31T08:44:58.000Z</time>
      </trkpt>
      <trkpt lat="47.47572" lon="6.77216">
        <ele>311</ele>
        <time>2016-01-31T08:44:59.000Z</time>
      </trkpt>
      <trkpt lat="47.47577" lon="6.7722">
        <ele>311</ele>
        <time>2016-01-31T08:45:00.000Z</time>
      </trkpt>
      <trkpt lat="47.47582" lon="6.77225">
        <ele>311</ele>
        <time>2016-01-31T08:45:01.000Z</time>
      </trkpt>
      <trkpt lat="47.47587" lon="6.77229">
        <ele>311</ele>
        <time>2016-01-31T08:45:02.000Z</time>
      </trkpt>
      <trkpt lat="47.47591" lon="6.77233">
        <ele>311</ele>
        <time>2016-01-31T08:45:03.000Z</time>
      </trkpt>
      <trkpt lat="47.47596" lon="6.77237">
        <ele>311</ele>
        <time>2016-01-31T08:45:04.000Z</time>
      </trkpt>
      <trkpt lat="47.476" lon="6.77242">
        <ele>311</ele>
        <time>2016-01-31T08:45:05.000Z</time>
      </trkpt>
      <trkpt lat="47.47605" lon="6.77245">
        <ele>311</ele>
        <time>2016-01-31T08:45:06.001Z</time>
      </trkpt>
      <trkpt lat="47.4761" lon="6.77249">
        <ele>311</ele>
        <time>2016-01-31T08:45:07.000Z</time>
      </trkpt>
      <trkpt lat="47.47614" lon="6.77252">
        <ele>311</ele>
        <time>2016-01-31T08:45:08.000Z</time>
      </trkpt>
      <trkpt lat="47.47618" lon="6.77256">
        <ele>311</ele>
        <time>2016-01-31T08:45:09.000Z</time>
      </trkpt>
      <trkpt lat="47.47623" lon="6.7726">
        <ele>311</ele>
        <time>2016-01-31T08:45:10.000Z</time>
      </trkpt>
      <trkpt lat="47.47627" lon="6.77265">
        <ele>311</ele>
        <time>2016-01-31T08:45:11.000Z</time>
      </trkpt>
      <trkpt lat="47.47632" lon="6.77269">
        <ele>311</ele>
        <time>2016-01-31T08:45:12.000Z</time>
      </trkpt>
      <trkpt lat="47.47636" lon="6.77273">
        <ele>310</ele>
        <time>2016-01-31T08:45:13.000Z</time>
      </trkpt>
      <trkpt lat="47.47639" lon="6.77278">
        <ele>310</ele>
        <time>2016-01-31T08:45:14.000Z</time>
      </trkpt>
      <trkpt lat="47.47641" lon="6.77285">
        <ele>310</ele>
        <time>2016-01-31T08:45:15.000Z</time>
      </trkpt>
      <trkpt lat="47.47642" lon="6.77292">
        <ele>311</ele>
        <time>2016-01-31T08:45:16.000Z</time>
      </trkpt>
      <trkpt lat="47.47643" lon="6.773">
        <ele>311</ele>
        <time>2016-01-31T08:45:17.000Z</time>
      </trkpt>
      <trkpt lat="47.47641" lon="6.77308">
        <ele>311</ele>
        <time>2016-01-31T08:45:18.000Z</time>
      </trkpt>
      <trkpt lat="47.47639" lon="6.77316">
        <ele>311</ele>
        <time>2016-01-31T08:45:18.999Z</time>
      </trkpt>
      <trkpt lat="47.47637" lon="6.77322">
        <ele>311</ele>
        <time>2016-01-31T08:45:20.000Z</time>
      </trkpt>
      <trkpt lat="47.47634" lon="6.77329">
        <ele>311</ele>
        <time>2016-01-31T08:45:21.000Z</time>
      </trkpt>
      <trkpt lat="47.47631" lon="6.77335">
        <ele>312</ele>
        <time>2016-01-31T08:45:22.000Z</time>
      </trkpt>
      <trkpt lat="47.47629" lon="6.77342">
        <ele>312</ele>
        <time>2016-01-31T08:45:23.000Z</time>
      </trkpt>
      <trkpt lat="47.47626" lon="6.77348">
        <ele>312</ele>
        <time>2016-01-31T08:45:24.000Z</time>
      </trkpt>
      <trkpt lat="47.47624" lon="6.77356">
        <ele>312</ele>
        <time>2016-01-31T08:45:25.000Z</time>
      </trkpt>
      <trkpt lat="47.47622" lon="6.77363">
        <ele>312</ele>
        <time>2016-01-31T08:45:26.000Z</time>
      </trkpt>
      <trkpt lat="47.47619" lon="6.7737">
        <ele>312</ele>
        <time>2016-01-31T08:45:27.000Z</time>
      </trkpt>
      <trkpt lat="47.47616" lon="6.77376">
        <ele>312</ele>
        <time>2016-01-31T08:45:28.000Z</time>
      </trkpt>
      <trkpt lat="47.47613" lon="6.77383">
        <ele>312</ele>
        <time>2016-01-31T08:45:29.001Z</time>
      </trkpt>
      <trkpt lat="47.4761" lon="6.77389">
        <ele>312</ele>
        <time>2016-01-31T08:45:30.000Z</time>
      </trkpt>
      <trkpt lat="47.47609" lon="6.77396">
        <ele>313</ele>
        <time>2016-01-31T08:45:31.000Z</time>
      </trkpt>
      <trkpt lat="47.47607" lon="6.77402">
        <ele>313</ele>
        <time>2016-01-31T08:45:32.000Z</time>
      </trkpt>
      <trkpt lat="47.47605" lon="6.77409">
        <ele>313</ele>
        <time>2016-01-31T08:45:33.000Z</time>
      </trkpt>
      <trkpt lat="47.47605" lon="6.77417">
        <ele>314</ele>
        <time>2016-01-31T08:45:34.000Z</time>
      </trkpt>
      <trkpt lat="47.47602" lon="6.77421">
        <ele>314</ele>
        <time>2016-01-31T08:45:35.000Z</time>
      </trkpt>
      <trkpt lat="47.47601" lon="6.77428">
        <ele>314</ele>
        <time>2016-01-31T08:45:36.000Z</time>
      </trkpt>
      <trkpt lat="47.47599" lon="6.77434">
        <ele>314</ele>
        <time>2016-01-31T08:45:37.000Z</time>
      </trkpt>
      <trkpt lat="47.47597" lon="6.77439">
        <ele>314</ele>
        <time>2016-01-31T08:45:38.000Z</time>
      </trkpt>
      <trkpt lat="47.47596" lon="6.77443">
        <ele>314</ele>
        <time>2016-01-31T08:45:39.000Z</time>
      </trkpt>
      <trkpt lat="47.47594" lon="6.77447">
        <ele>314</ele>
        <time>2016-01-31T08:45:42.000Z</time>
      </trkpt>
      <trkpt lat="47.47592" lon="6.77447">
        <ele>314</ele>
        <time>2016-01-31T08:45:43.000Z</time>
      </trkpt>
      <trkpt lat="47.47592" lon="6.77452">
        <ele>314</ele>
        <time>2016-01-31T08:45:45.000Z</time>
      </trkpt>
      <trkpt lat="47.47593" lon="6.77455">
        <ele>314</ele>
        <time>2016-01-31T08:45:46.000Z</time>
      </trkpt>
      <trkpt lat="47.47594" lon="6.77458">
        <ele>314</ele>
        <time>2016-01-31T08:45:47.000Z</time>
      </trkpt>
      <trkpt lat="47.47596" lon="6.77461">
        <ele>314</ele>
        <time>2016-01-31T08:45:48.000Z</time>
      </trkpt>
      <trkpt lat="47.47599" lon="6.77465">
        <ele>314</ele>
        <time>2016-01-31T08:45:49.000Z</time>
      </trkpt>
      <trkpt lat="47.47602" lon="6.77468">
        <ele>314</ele>
        <time>2016-01-31T08:45:50.000Z</time>
      </trkpt>
      <trkpt lat="47.47605" lon="6.77472">
        <ele>314</ele>
        <time>2016-01-31T08:45:51.000Z</time>
      </trkpt>
      <trkpt lat="47.47609" lon="6.77475">
        <ele>314</ele>
        <time>2016-01-31T08:45:52.000Z</time>
      </trkpt>
      <trkpt lat="47.47612" lon="6.77479">
        <ele>314</ele>
        <time>2016-01-31T08:45:53.000Z</time>
      </trkpt>
      <trkpt lat="47.47616" lon="6.77483">
        <ele>314</ele>
        <time>2016-01-31T08:45:54.000Z</time>
      </trkpt>
      <trkpt lat="47.4762" lon="6.77487">
        <ele>314</ele>
        <time>2016-01-31T08:45:55.000Z</time>
      </trkpt>
      <trkpt lat="47.47625" lon="6.7749">
        <ele>314</ele>
        <time>2016-01-31T08:45:56.000Z</time>
      </trkpt>
      <trkpt lat="47.47628" lon="6.77493">
        <ele>314</ele>
        <time>2016-01-31T08:45:57.000Z</time>
      </trkpt>
      <trkpt lat="47.47632" lon="6.77497">
        <ele>314</ele>
        <time>2016-01-31T08:45:58.000Z</time>
      </trkpt>
      <trkpt lat="47.47635" lon="6.77501">
        <ele>315</ele>
        <time>2016-01-31T08:45:59.000Z</time>
      </trkpt>
      <trkpt lat="47.47638" lon="6.77505">
        <ele>315</ele>
        <time>2016-01-31T08:46:00.000Z</time>
      </trkpt>
      <trkpt lat="47.47641" lon="6.7751">
        <ele>315</ele>
        <time>2016-01-31T08:46:01.000Z</time>
      </trkpt>
      <trkpt lat="47.47645" lon="6.77515">
        <ele>315</ele>
        <time>2016-01-31T08:46:02.000Z</time>
      </trkpt>
      <trkpt lat="47.47648" lon="6.77519">
        <ele>315</ele>
        <time>2016-01-31T08:46:03.000Z</time>
      </trkpt>
      <trkpt lat="47.47651" lon="6.77525">
        <ele>315</ele>
        <time>2016-01-31T08:46:04.000Z</time>
      </trkpt>
      <trkpt lat="47.47654" lon="6.7753">
        <ele>315</ele>
        <time>2016-01-31T08:46:05.000Z</time>
      </trkpt>
      <trkpt lat="47.47658" lon="6.77535">
        <ele>315</ele>
        <time>2016-01-31T08:46:06.000Z</time>
      </trkpt>
      <trkpt lat="47.47661" lon="6.7754">
        <ele>315</ele>
        <time>2016-01-31T08:46:07.000Z</time>
      </trkpt>
      <trkpt lat="47.47664" lon="6.77546">
        <ele>315</ele>
        <time>2016-01-31T08:46:08.000Z</time>
      </trkpt>
      <trkpt lat="47.47667" lon="6.77551">
        <ele>314</ele>
        <time>2016-01-31T08:46:09.000Z</time>
      </trkpt>
      <trkpt lat="47.47671" lon="6.77556">
        <ele>314</ele>
        <time>2016-01-31T08:46:10.000Z</time>
      </trkpt>
      <trkpt lat="47.47674" lon="6.77561">
        <ele>314</ele>
        <time>2016-01-31T08:46:10.999Z</time>
      </trkpt>
      <trkpt lat="47.47677" lon="6.77567">
        <ele>314</ele>
        <time>2016-01-31T08:46:12.000Z</time>
      </trkpt>
      <trkpt lat="47.4768" lon="6.77572">
        <ele>314</ele>
        <time>2016-01-31T08:46:13.000Z</time>
      </trkpt>
      <trkpt lat="47.47683" lon="6.77577">
        <ele>314</ele>
        <time>2016-01-31T08:46:14.000Z</time>
      </trkpt>
      <trkpt lat="47.47686" lon="6.77582">
        <ele>314</ele>
        <time>2016-01-31T08:46:15.000Z</time>
      </trkpt>
      <trkpt lat="47.4769" lon="6.77587">
        <ele>314</ele>
        <time>2016-01-31T08:46:16.000Z</time>
      </trkpt>
      <trkpt lat="47.47692" lon="6.77592">
        <ele>314</ele>
        <time>2016-01-31T08:46:17.000Z</time>
      </trkpt>
      <trkpt lat="47.47695" lon="6.77597">
        <ele>314</ele>
        <time>2016-01-31T08:46:18.000Z</time>
      </trkpt>
      <trkpt lat="47.47698" lon="6.77603">
        <ele>314</ele>
        <time>2016-01-31T08:46:18.999Z</time>
      </trkpt>
      <trkpt lat="47.47699" lon="6.77609">
        <ele>314</ele>
        <time>2016-01-31T08:46:20.000Z</time>
      </trkpt>
      <trkpt lat="47.47701" lon="6.77615">
        <ele>314</ele>
        <time>2016-01-31T08:46:21.000Z</time>
      </trkpt>
      <trkpt lat="47.47703" lon="6.77621">
        <ele>314</ele>
        <time>2016-01-31T08:46:21.999Z</time>
      </trkpt>
      <trkpt lat="47.47702" lon="6.77628">
        <ele>314</ele>
        <time>2016-01-31T08:46:23.000Z</time>
      </trkpt>
      <trkpt lat="47.47702" lon="6.77635">
        <ele>314</ele>
        <time>2016-01-31T08:46:24.000Z</time>
      </trkpt>
      <trkpt lat="47.47703" lon="6.77642">
        <ele>314</ele>
        <time>2016-01-31T08:46:25.000Z</time>
      </trkpt>
      <trkpt lat="47.47704" lon="6.77647">
        <ele>314</ele>
        <time>2016-01-31T08:46:26.000Z</time>
      </trkpt>
      <trkpt lat="47.47705" lon="6.77653">
        <ele>314</ele>
        <time>2016-01-31T08:46:27.000Z</time>
      </trkpt>
      <trkpt lat="47.47706" lon="6.7766">
        <ele>314</ele>
        <time>2016-01-31T08:46:28.000Z</time>
      </trkpt>
      <trkpt lat="47.47707" lon="6.77666">
        <ele>314</ele>
        <time>2016-01-31T08:46:29.000Z</time>
      </trkpt>
      <trkpt lat="47.47708" lon="6.77672">
        <ele>315</ele>
        <time>2016-01-31T08:46:30.000Z</time>
      </trkpt>
      <trkpt lat="47.47709" lon="6.77678">
        <ele>315</ele>
        <time>2016-01-31T08:46:31.000Z</time>
      </trkpt>
      <trkpt lat="47.47711" lon="6.77683">
        <ele>315</ele>
        <time>2016-01-31T08:46:32.000Z</time>
      </trkpt>
      <trkpt lat="47.47713" lon="6.77689">
        <ele>315</ele>
        <time>2016-01-31T08:46:33.000Z</time>
      </trkpt>
      <trkpt lat="47.47715" lon="6.77694">
        <ele>315</ele>
        <time>2016-01-31T08:46:34.000Z</time>
      </trkpt>
      <trkpt lat="47.47716" lon="6.777">
        <ele>315</ele>
        <time>2016-01-31T08:46:35.000Z</time>
      </trkpt>
      <trkpt lat="47.47717" lon="6.77705">
        <ele>315</ele>
        <time>2016-01-31T08:46:36.000Z</time>
      </trkpt>
      <trkpt lat="47.47717" lon="6.77711">
        <ele>315</ele>
        <time>2016-01-31T08:46:37.000Z</time>
      </trkpt>
      <trkpt lat="47.47717" lon="6.77717">
        <ele>315</ele>
        <time>2016-01-31T08:46:38.000Z</time>
      </trkpt>
      <trkpt lat="47.47715" lon="6.77722">
        <ele>316</ele>
        <time>2016-01-31T08:46:39.000Z</time>
      </trkpt>
      <trkpt lat="47.47713" lon="6.77728">
        <ele>316</ele>
        <time>2016-01-31T08:46:40.000Z</time>
      </trkpt>
      <trkpt lat="47.47711" lon="6.77733">
        <ele>316</ele>
        <time>2016-01-31T08:46:41.000Z</time>
      </trkpt>
      <trkpt lat="47.47709" lon="6.77738">
        <ele>316</ele>
        <time>2016-01-31T08:46:42.000Z</time>
      </trkpt>
      <trkpt lat="47.47707" lon="6.77744">
        <ele>316</ele>
        <time>2016-01-31T08:46:43.000Z</time>
      </trkpt>
      <trkpt lat="47.47706" lon="6.77749">
        <ele>316</ele>
        <time>2016-01-31T08:46:44.000Z</time>
      </trkpt>
      <trkpt lat="47.47705" lon="6.77755">
        <ele>316</ele>
        <time>2016-01-31T08:46:45.000Z</time>
      </trkpt>
      <trkpt lat="47.47705" lon="6.77761">
        <ele>316</ele>
        <time>2016-01-31T08:46:46.000Z</time>
      </trkpt>
      <trkpt lat="47.47704" lon="6.77767">
        <ele>316</ele>
        <time>2016-01-31T08:46:47.000Z</time>
      </trkpt>
      <trkpt lat="47.47704" lon="6.77773">
        <ele>316</ele>
        <time>2016-01-31T08:46:48.000Z</time>
      </trkpt>
      <trkpt lat="47.47703" lon="6.77779">
        <ele>316</ele>
        <time>2016-01-31T08:46:49.000Z</time>
      </trkpt>
      <trkpt lat="47.47703" lon="6.77785">
        <ele>317</ele>
        <time>2016-01-31T08:46:50.000Z</time>
      </trkpt>
      <trkpt lat="47.47703" lon="6.77791">
        <ele>317</ele>
        <time>2016-01-31T08:46:51.000Z</time>
      </trkpt>
      <trkpt lat="47.47703" lon="6.77798">
        <ele>317</ele>
        <time>2016-01-31T08:46:52.000Z</time>
      </trkpt>
      <trkpt lat="47.47703" lon="6.77804">
        <ele>317</ele>
        <time>2016-01-31T08:46:53.000Z</time>
      </trkpt>
      <trkpt lat="47.47703" lon="6.7781">
        <ele>317</ele>
        <time>2016-01-31T08:46:54.000Z</time>
      </trkpt>
      <trkpt lat="47.47703" lon="6.77816">
        <ele>317</ele>
        <time>2016-01-31T08:46:55.000Z</time>
      </trkpt>
      <trkpt lat="47.47703" lon="6.77823">
        <ele>317</ele>
        <time>2016-01-31T08:46:56.000Z</time>
      </trkpt>
      <trkpt lat="47.47703" lon="6.77829">
        <ele>317</ele>
        <time>2016-01-31T08:46:57.000Z</time>
      </trkpt>
      <trkpt lat="47.47703" lon="6.77835">
        <ele>318</ele>
        <time>2016-01-31T08:46:58.000Z</time>
      </trkpt>
      <trkpt lat="47.47703" lon="6.77842">
        <ele>318</ele>
        <time>2016-01-31T08:46:59.000Z</time>
      </trkpt>
      <trkpt lat="47.47703" lon="6.77848">
        <ele>318</ele>
        <time>2016-01-31T08:47:00.000Z</time>
      </trkpt>
      <trkpt lat="47.47703" lon="6.77854">
        <ele>318</ele>
        <time>2016-01-31T08:47:01.000Z</time>
      </trkpt>
      <trkpt lat="47.47704" lon="6.77861">
        <ele>318</ele>
        <time>2016-01-31T08:47:02.000Z</time>
      </trkpt>
      <trkpt lat="47.47704" lon="6.77867">
        <ele>318</ele>
        <time>2016-01-31T08:47:03.000Z</time>
      </trkpt>
      <trkpt lat="47.47705" lon="6.77873">
        <ele>318</ele>
        <time>2016-01-31T08:47:04.000Z</time>
      </trkpt>
      <trkpt lat="47.47706" lon="6.7788">
        <ele>318</ele>
        <time>2016-01-31T08:47:05.000Z</time>
      </trkpt>
      <trkpt lat="47.47706" lon="6.77886">
        <ele>318</ele>
        <time>2016-01-31T08:47:06.000Z</time>
      </trkpt>
      <trkpt lat="47.47707" lon="6.77893">
        <ele>318</ele>
        <time>2016-01-31T08:47:07.000Z</time>
      </trkpt>
      <trkpt lat="47.47708" lon="6.77899">
        <ele>318</ele>
        <time>2016-01-31T08:47:08.000Z</time>
      </trkpt>
      <trkpt lat="47.47709" lon="6.77905">
        <ele>318</ele>
        <time>2016-01-31T08:47:09.000Z</time>
      </trkpt>
      <trkpt lat="47.4771" lon="6.77911">
        <ele>318</ele>
        <time>2016-01-31T08:47:10.000Z</time>
      </trkpt>
      <trkpt lat="47.47712" lon="6.77917">
        <ele>320</ele>
        <time>2016-01-31T08:47:11.000Z</time>
      </trkpt>
      <trkpt lat="47.47713" lon="6.77923">
        <ele>320</ele>
        <time>2016-01-31T08:47:12.000Z</time>
      </trkpt>
      <trkpt lat="47.47714" lon="6.77929">
        <ele>320</ele>
        <time>2016-01-31T08:47:13.000Z</time>
      </trkpt>
      <trkpt lat="47.47715" lon="6.77936">
        <ele>320</ele>
        <time>2016-01-31T08:47:14.000Z</time>
      </trkpt>
      <trkpt lat="47.47716" lon="6.77942">
        <ele>320</ele>
        <time>2016-01-31T08:47:15.000Z</time>
      </trkpt>
      <trkpt lat="47.47718" lon="6.77948">
        <ele>320</ele>
        <time>2016-01-31T08:47:16.000Z</time>
      </trkpt>
      <trkpt lat="47.47719" lon="6.77954">
        <ele>320</ele>
        <time>2016-01-31T08:47:17.000Z</time>
      </trkpt>
      <trkpt lat="47.4772" lon="6.77959">
        <ele>320</ele>
        <time>2016-01-31T08:47:18.000Z</time>
      </trkpt>
      <trkpt lat="47.47721" lon="6.77965">
        <ele>320</ele>
        <time>2016-01-31T08:47:19.000Z</time>
      </trkpt>
      <trkpt lat="47.47722" lon="6.77971">
        <ele>320</ele>
        <time>2016-01-31T08:47:20.000Z</time>
      </trkpt>
      <trkpt lat="47.47723" lon="6.77977">
        <ele>320</ele>
        <time>2016-01-31T08:47:21.000Z</time>
      </trkpt>
      <trkpt lat="47.47724" lon="6.77983">
        <ele>320</ele>
        <time>2016-01-31T08:47:22.000Z</time>
      </trkpt>
      <trkpt lat="47.47726" lon="6.7799">
        <ele>320</ele>
        <time>2016-01-31T08:47:23.000Z</time>
      </trkpt>
      <trkpt lat="47.47726" lon="6.77996">
        <ele>320</ele>
        <time>2016-01-31T08:47:24.000Z</time>
      </trkpt>
      <trkpt lat="47.47727" lon="6.78002">
        <ele>321</ele>
        <time>2016-01-31T08:47:25.000Z</time>
      </trkpt>
      <trkpt lat="47.47728" lon="6.78008">
        <ele>321</ele>
        <time>2016-01-31T08:47:26.000Z</time>
      </trkpt>
      <trkpt lat="47.47729" lon="6.78014">
        <ele>321</ele>
        <time>2016-01-31T08:47:27.000Z</time>
      </trkpt>
      <trkpt lat="47.4773" lon="6.7802">
        <ele>321</ele>
        <time>2016-01-31T08:47:28.000Z</time>
      </trkpt>
      <trkpt lat="47.47731" lon="6.78026">
        <ele>321</ele>
        <time>2016-01-31T08:47:29.000Z</time>
      </trkpt>
      <trkpt lat="47.47732" lon="6.78032">
        <ele>321</ele>
        <time>2016-01-31T08:47:30.000Z</time>
      </trkpt>
      <trkpt lat="47.47732" lon="6.78038">
        <ele>322</ele>
        <time>2016-01-31T08:47:31.000Z</time>
      </trkpt>
      <trkpt lat="47.47732" lon="6.78044">
        <ele>322</ele>
        <time>2016-01-31T08:47:32.000Z</time>
      </trkpt>
      <trkpt lat="47.47731" lon="6.78051">
        <ele>322</ele>
        <time>2016-01-31T08:47:33.000Z</time>
      </trkpt>
      <trkpt lat="47.4773" lon="6.78057">
        <ele>322</ele>
        <time>2016-01-31T08:47:34.000Z</time>
      </trkpt>
      <trkpt lat="47.47728" lon="6.78063">
        <ele>322</ele>
        <time>2016-01-31T08:47:35.000Z</time>
      </trkpt>
      <trkpt lat="47.47727" lon="6.78068">
        <ele>322</ele>
        <time>2016-01-31T08:47:36.000Z</time>
      </trkpt>
      <trkpt lat="47.47725" lon="6.78074">
        <ele>322</ele>
        <time>2016-01-31T08:47:37.000Z</time>
      </trkpt>
      <trkpt lat="47.47723" lon="6.7808">
        <ele>322</ele>
        <time>2016-01-31T08:47:38.000Z</time>
      </trkpt>
      <trkpt lat="47.4772" lon="6.78085">
        <ele>325</ele>
        <time>2016-01-31T08:47:39.000Z</time>
      </trkpt>
      <trkpt lat="47.47718" lon="6.7809">
        <ele>325</ele>
        <time>2016-01-31T08:47:40.000Z</time>
      </trkpt>
      <trkpt lat="47.47716" lon="6.78095">
        <ele>325</ele>
        <time>2016-01-31T08:47:41.000Z</time>
      </trkpt>
      <trkpt lat="47.47714" lon="6.78099">
        <ele>325</ele>
        <time>2016-01-31T08:47:42.000Z</time>
      </trkpt>
      <trkpt lat="47.47712" lon="6.78103">
        <ele>325</ele>
        <time>2016-01-31T08:47:43.000Z</time>
      </trkpt>
      <trkpt lat="47.4771" lon="6.78107">
        <ele>326</ele>
        <time>2016-01-31T08:47:44.000Z</time>
      </trkpt>
      <trkpt lat="47.47709" lon="6.78111">
        <ele>326</ele>
        <time>2016-01-31T08:47:45.000Z</time>
      </trkpt>
      <trkpt lat="47.47707" lon="6.78115">
        <ele>326</ele>
        <time>2016-01-31T08:47:46.000Z</time>
      </trkpt>
      <trkpt lat="47.47705" lon="6.78119">
        <ele>326</ele>
        <time>2016-01-31T08:47:47.000Z</time>
      </trkpt>
      <trkpt lat="47.47704" lon="6.78122">
        <ele>326</ele>
        <time>2016-01-31T08:47:48.000Z</time>
      </trkpt>
      <trkpt lat="47.47702" lon="6.78126">
        <ele>326</ele>
        <time>2016-01-31T08:47:49.000Z</time>
      </trkpt>
      <trkpt lat="47.47701" lon="6.7813">
        <ele>327</ele>
        <time>2016-01-31T08:47:50.000Z</time>
      </trkpt>
      <trkpt lat="47.477" lon="6.78133">
        <ele>327</ele>
        <time>2016-01-31T08:47:51.000Z</time>
      </trkpt>
      <trkpt lat="47.47699" lon="6.78137">
        <ele>327</ele>
        <time>2016-01-31T08:47:52.000Z</time>
      </trkpt>
      <trkpt lat="47.47698" lon="6.7814">
        <ele>327</ele>
        <time>2016-01-31T08:47:53.000Z</time>
      </trkpt>
      <trkpt lat="47.47697" lon="6.78144">
        <ele>327</ele>
        <time>2016-01-31T08:47:54.000Z</time>
      </trkpt>
      <trkpt lat="47.47696" lon="6.78147">
        <ele>328</ele>
        <time>2016-01-31T08:47:55.000Z</time>
      </trkpt>
      <trkpt lat="47.47695" lon="6.78151">
        <ele>328</ele>
        <time>2016-01-31T08:47:56.000Z</time>
      </trkpt>
      <trkpt lat="47.47694" lon="6.78155">
        <ele>328</ele>
        <time>2016-01-31T08:47:57.000Z</time>
      </trkpt>
      <trkpt lat="47.47693" lon="6.78158">
        <ele>328</ele>
        <time>2016-01-31T08:47:58.000Z</time>
      </trkpt>
      <trkpt lat="47.47692" lon="6.78162">
        <ele>328</ele>
        <time>2016-01-31T08:47:59.000Z</time>
      </trkpt>
      <trkpt lat="47.47691" lon="6.78165">
        <ele>328</ele>
        <time>2016-01-31T08:48:00.000Z</time>
      </trkpt>
      <trkpt lat="47.47691" lon="6.78169">
        <ele>332</ele>
        <time>2016-01-31T08:48:01.000Z</time>
      </trkpt>
      <trkpt lat="47.4769" lon="6.78173">
        <ele>332</ele>
        <time>2016-01-31T08:48:02.000Z</time>
      </trkpt>
      <trkpt lat="47.4769" lon="6.78177">
        <ele>332</ele>
        <time>2016-01-31T08:48:03.000Z</time>
      </trkpt>
      <trkpt lat="47.47689" lon="6.78181">
        <ele>332</ele>
        <time>2016-01-31T08:48:04.000Z</time>
      </trkpt>
      <trkpt lat="47.47688" lon="6.78185">
        <ele>332</ele>
        <time>2016-01-31T08:48:05.000Z</time>
      </trkpt>
      <trkpt lat="47.47687" lon="6.78189">
        <ele>332</ele>
        <time>2016-01-31T08:48:06.000Z</time>
      </trkpt>
      <trkpt lat="47.47687" lon="6.78193">
        <ele>332</ele>
        <time>2016-01-31T08:48:07.000Z</time>
      </trkpt>
      <trkpt lat="47.47687" lon="6.78197">
        <ele>332</ele>
        <time>2016-01-31T08:48:08.001Z</time>
      </trkpt>
      <trkpt lat="47.47687" lon="6.78201">
        <ele>332</ele>
        <time>2016-01-31T08:48:09.000Z</time>
      </trkpt>
      <trkpt lat="47.47687" lon="6.78204">
        <ele>333</ele>
        <time>2016-01-31T08:48:10.000Z</time>
      </trkpt>
      <trkpt lat="47.47688" lon="6.78208">
        <ele>333</ele>
        <time>2016-01-31T08:48:11.000Z</time>
      </trkpt>
      <trkpt lat="47.47688" lon="6.78212">
        <ele>333</ele>
        <time>2016-01-31T08:48:12.000Z</time>
      </trkpt>
      <trkpt lat="47.47688" lon="6.78216">
        <ele>333</ele>
        <time>2016-01-31T08:48:12.999Z</time>
      </trkpt>
      <trkpt lat="47.47688" lon="6.7822">
        <ele>333</ele>
        <time>2016-01-31T08:48:14.000Z</time>
      </trkpt>
      <trkpt lat="47.47689" lon="6.78224">
        <ele>334</ele>
        <time>2016-01-31T08:48:14.999Z</time>
      </trkpt>
      <trkpt lat="47.4769" lon="6.78228">
        <ele>334</ele>
        <time>2016-01-31T08:48:16.000Z</time>
      </trkpt>
      <trkpt lat="47.47691" lon="6.78233">
        <ele>334</ele>
        <time>2016-01-31T08:48:17.000Z</time>
      </trkpt>
      <trkpt lat="47.47692" lon="6.78236">
        <ele>334</ele>
        <time>2016-01-31T08:48:18.000Z</time>
      </trkpt>
      <trkpt lat="47.47693" lon="6.7824">
        <ele>334</ele>
        <time>2016-01-31T08:48:19.000Z</time>
      </trkpt>
      <trkpt lat="47.47695" lon="6.78244">
        <ele>334</ele>
        <time>2016-01-31T08:48:20.000Z</time>
      </trkpt>
      <trkpt lat="47.47696" lon="6.78248">
        <ele>334</ele>
        <time>2016-01-31T08:48:21.000Z</time>
      </trkpt>
      <trkpt lat="47.47698" lon="6.78252">
        <ele>337</ele>
        <time>2016-01-31T08:48:22.000Z</time>
      </trkpt>
      <trkpt lat="47.47699" lon="6.78255">
        <ele>337</ele>
        <time>2016-01-31T08:48:23.000Z</time>
      </trkpt>
      <trkpt lat="47.47701" lon="6.78259">
        <ele>337</ele>
        <time>2016-01-31T08:48:24.000Z</time>
      </trkpt>
      <trkpt lat="47.47702" lon="6.78262">
        <ele>337</ele>
        <time>2016-01-31T08:48:25.000Z</time>
      </trkpt>
      <trkpt lat="47.47704" lon="6.78265">
        <ele>337</ele>
        <time>2016-01-31T08:48:26.000Z</time>
      </trkpt>
      <trkpt lat="47.47706" lon="6.78268">
        <ele>337</ele>
        <time>2016-01-31T08:48:27.000Z</time>
      </trkpt>
      <trkpt lat="47.47707" lon="6.78272">
        <ele>337</ele>
        <time>2016-01-31T08:48:28.000Z</time>
      </trkpt>
      <trkpt lat="47.47709" lon="6.78276">
        <ele>337</ele>
        <time>2016-01-31T08:48:29.000Z</time>
      </trkpt>
      <trkpt lat="47.4771" lon="6.7828">
        <ele>337</ele>
        <time>2016-01-31T08:48:30.000Z</time>
      </trkpt>
      <trkpt lat="47.47711" lon="6.78284">
        <ele>337</ele>
        <time>2016-01-31T08:48:31.000Z</time>
      </trkpt>
      <trkpt lat="47.47713" lon="6.78288">
        <ele>337</ele>
        <time>2016-01-31T08:48:32.000Z</time>
      </trkpt>
      <trkpt lat="47.47714" lon="6.78291">
        <ele>337</ele>
        <time>2016-01-31T08:48:33.000Z</time>
      </trkpt>
      <trkpt lat="47.47714" lon="6.78295">
        <ele>337</ele>
        <time>2016-01-31T08:48:34.000Z</time>
      </trkpt>
      <trkpt lat="47.47715" lon="6.78299">
        <ele>337</ele>
        <time>2016-01-31T08:48:35.000Z</time>
      </trkpt>
      <trkpt lat="47.47715" lon="6.78303">
        <ele>338</ele>
        <time>2016-01-31T08:48:36.000Z</time>
      </trkpt>
      <trkpt lat="47.47715" lon="6.78308">
        <ele>338</ele>
        <time>2016-01-31T08:48:37.000Z</time>
      </trkpt>
      <trkpt lat="47.47714" lon="6.78313">
        <ele>338</ele>
        <time>2016-01-31T08:48:38.000Z</time>
      </trkpt>
      <trkpt lat="47.47714" lon="6.78317">
        <ele>338</ele>
        <time>2016-01-31T08:48:39.000Z</time>
      </trkpt>
      <trkpt lat="47.47713" lon="6.78322">
        <ele>338</ele>
        <time>2016-01-31T08:48:40.000Z</time>
      </trkpt>
      <trkpt lat="47.47712" lon="6.78326">
        <ele>338</ele>
        <time>2016-01-31T08:48:41.000Z</time>
      </trkpt>
      <trkpt lat="47.47711" lon="6.78331">
        <ele>338</ele>
        <time>2016-01-31T08:48:42.000Z</time>
      </trkpt>
      <trkpt lat="47.47709" lon="6.78335">
        <ele>340</ele>
        <time>2016-01-31T08:48:43.000Z</time>
      </trkpt>
      <trkpt lat="47.47708" lon="6.78339">
        <ele>340</ele>
        <time>2016-01-31T08:48:44.000Z</time>
      </trkpt>
      <trkpt lat="47.47706" lon="6.78344">
        <ele>340</ele>
        <time>2016-01-31T08:48:45.000Z</time>
      </trkpt>
      <trkpt lat="47.47704" lon="6.78348">
        <ele>341</ele>
        <time>2016-01-31T08:48:46.000Z</time>
      </trkpt>
      <trkpt lat="47.47702" lon="6.78352">
        <ele>341</ele>
        <time>2016-01-31T08:48:47.000Z</time>
      </trkpt>
      <trkpt lat="47.477" lon="6.78357">
        <ele>341</ele>
        <time>2016-01-31T08:48:48.000Z</time>
      </trkpt>
      <trkpt lat="47.47698" lon="6.78361">
        <ele>341</ele>
        <time>2016-01-31T08:48:49.000Z</time>
      </trkpt>
      <trkpt lat="47.47696" lon="6.78366">
        <ele>341</ele>
        <time>2016-01-31T08:48:50.000Z</time>
      </trkpt>
      <trkpt lat="47.47694" lon="6.7837">
        <ele>341</ele>
        <time>2016-01-31T08:48:51.000Z</time>
      </trkpt>
      <trkpt lat="47.47692" lon="6.78374">
        <ele>341</ele>
        <time>2016-01-31T08:48:52.000Z</time>
      </trkpt>
      <trkpt lat="47.47689" lon="6.78378">
        <ele>341</ele>
        <time>2016-01-31T08:48:53.000Z</time>
      </trkpt>
      <trkpt lat="47.47687" lon="6.78383">
        <ele>341</ele>
        <time>2016-01-31T08:48:54.000Z</time>
      </trkpt>
      <trkpt lat="47.47684" lon="6.78386">
        <ele>341</ele>
        <time>2016-01-31T08:48:55.000Z</time>
      </trkpt>
      <trkpt lat="47.47681" lon="6.7839">
        <ele>341</ele>
        <time>2016-01-31T08:48:56.000Z</time>
      </trkpt>
      <trkpt lat="47.47678" lon="6.78394">
        <ele>341</ele>
        <time>2016-01-31T08:48:57.000Z</time>
      </trkpt>
      <trkpt lat="47.47675" lon="6.78397">
        <ele>341</ele>
        <time>2016-01-31T08:48:58.000Z</time>
      </trkpt>
      <trkpt lat="47.47673" lon="6.78401">
        <ele>341</ele>
        <time>2016-01-31T08:48:59.000Z</time>
      </trkpt>
      <trkpt lat="47.4767" lon="6.78405">
        <ele>341</ele>
        <time>2016-01-31T08:49:00.000Z</time>
      </trkpt>
      <trkpt lat="47.47667" lon="6.78409">
        <ele>341</ele>
        <time>2016-01-31T08:49:01.000Z</time>
      </trkpt>
      <trkpt lat="47.47664" lon="6.78413">
        <ele>342</ele>
        <time>2016-01-31T08:49:02.000Z</time>
      </trkpt>
      <trkpt lat="47.47661" lon="6.78418">
        <ele>342</ele>
        <time>2016-01-31T08:49:03.000Z</time>
      </trkpt>
      <trkpt lat="47.47659" lon="6.78422">
        <ele>343</ele>
        <time>2016-01-31T08:49:04.000Z</time>
      </trkpt>
      <trkpt lat="47.47658" lon="6.78424">
        <ele>343</ele>
        <time>2016-01-31T08:49:05.000Z</time>
      </trkpt>
      <trkpt lat="47.47663" lon="6.7842">
        <ele>342</ele>
        <time>2016-01-31T08:49:06.000Z</time>
      </trkpt>
      <trkpt lat="47.47661" lon="6.78415">
        <ele>342</ele>
        <time>2016-01-31T08:49:26.000Z</time>
      </trkpt>
      <trkpt lat="47.47661" lon="6.78414">
        <ele>342</ele>
        <time>2016-01-31T08:49:27.000Z</time>
      </trkpt>
      <trkpt lat="47.47658" lon="6.7841">
        <ele>343</ele>
        <time>2016-01-31T08:49:38.000Z</time>
      </trkpt>
      <trkpt lat="47.47658" lon="6.78409">
        <ele>343</ele>
        <time>2016-01-31T08:49:39.000Z</time>
      </trkpt>
      <trkpt lat="47.47655" lon="6.78406">
        <ele>344</ele>
        <time>2016-01-31T08:49:43.000Z</time>
      </trkpt>
      <trkpt lat="47.47653" lon="6.78406">
        <ele>344</ele>
        <time>2016-01-31T08:49:44.000Z</time>
      </trkpt>
      <trkpt lat="47.4765" lon="6.78405">
        <ele>345</ele>
        <time>2016-01-31T08:49:47.000Z</time>
      </trkpt>
      <trkpt lat="47.47648" lon="6.78405">
        <ele>345</ele>
        <time>2016-01-31T08:49:48.000Z</time>
      </trkpt>
      <trkpt lat="47.47644" lon="6.78403">
        <ele>345</ele>
        <time>2016-01-31T08:49:52.000Z</time>
      </trkpt>
      <trkpt lat="47.47643" lon="6.78403">
        <ele>345</ele>
        <time>2016-01-31T08:49:53.000Z</time>
      </trkpt>
      <trkpt lat="47.47639" lon="6.78401">
        <ele>346</ele>
        <time>2016-01-31T08:50:03.000Z</time>
      </trkpt>
      <trkpt lat="47.47639" lon="6.78402">
        <ele>346</ele>
        <time>2016-01-31T08:50:04.000Z</time>
      </trkpt>
      <trkpt lat="47.47637" lon="6.78398">
        <ele>346</ele>
        <time>2016-01-31T08:50:18.000Z</time>
      </trkpt>
      <trkpt lat="47.47636" lon="6.78397">
        <ele>346</ele>
        <time>2016-01-31T08:50:19.000Z</time>
      </trkpt>
      <trkpt lat="47.47634" lon="6.78392">
        <ele>346</ele>
        <time>2016-01-31T08:50:22.000Z</time>
      </trkpt>
      <trkpt lat="47.47633" lon="6.7839">
        <ele>346</ele>
        <time>2016-01-31T08:50:23.000Z</time>
      </trkpt>
      <trkpt lat="47.47632" lon="6.78384">
        <ele>347</ele>
        <time>2016-01-31T08:50:26.000Z</time>
      </trkpt>
      <trkpt lat="47.47632" lon="6.78382">
        <ele>347</ele>
        <time>2016-01-31T08:50:27.000Z</time>
      </trkpt>
      <trkpt lat="47.4763" lon="6.78377">
        <ele>347</ele>
        <time>2016-01-31T08:50:30.000Z</time>
      </trkpt>
      <trkpt lat="47.47629" lon="6.78375">
        <ele>347</ele>
        <time>2016-01-31T08:50:31.000Z</time>
      </trkpt>
      <trkpt lat="47.47626" lon="6.7837">
        <ele>347</ele>
        <time>2016-01-31T08:50:33.000Z</time>
      </trkpt>
      <trkpt lat="47.47624" lon="6.78367">
        <ele>347</ele>
        <time>2016-01-31T08:50:34.000Z</time>
      </trkpt>
      <trkpt lat="47.47623" lon="6.78364">
        <ele>347</ele>
        <time>2016-01-31T08:50:35.000Z</time>
      </trkpt>
      <trkpt lat="47.47621" lon="6.78361">
        <ele>347</ele>
        <time>2016-01-31T08:50:36.000Z</time>
      </trkpt>
      <trkpt lat="47.47619" lon="6.78358">
        <ele>347</ele>
        <time>2016-01-31T08:50:37.000Z</time>
      </trkpt>
      <trkpt lat="47.47617" lon="6.78354">
        <ele>348</ele>
        <time>2016-01-31T08:50:38.000Z</time>
      </trkpt>
      <trkpt lat="47.47615" lon="6.78351">
        <ele>348</ele>
        <time>2016-01-31T08:50:39.000Z</time>
      </trkpt>
      <trkpt lat="47.47613" lon="6.78347">
        <ele>348</ele>
        <time>2016-01-31T08:50:40.000Z</time>
      </trkpt>
      <trkpt lat="47.47611" lon="6.78344">
        <ele>348</ele>
        <time>2016-01-31T08:50:41.000Z</time>
      </trkpt>
      <trkpt lat="47.47609" lon="6.78341">
        <ele>348</ele>
        <time>2016-01-31T08:50:42.000Z</time>
      </trkpt>
      <trkpt lat="47.47607" lon="6.78338">
        <ele>348</ele>
        <time>2016-01-31T08:50:43.000Z</time>
      </trkpt>
      <trkpt lat="47.47606" lon="6.78335">
        <ele>349</ele>
        <time>2016-01-31T08:50:44.000Z</time>
      </trkpt>
      <trkpt lat="47.47604" lon="6.78333">
        <ele>348</ele>
        <time>2016-01-31T08:50:45.000Z</time>
      </trkpt>
      <trkpt lat="47.47602" lon="6.7833">
        <ele>348</ele>
        <time>2016-01-31T08:50:46.000Z</time>
      </trkpt>
      <trkpt lat="47.47601" lon="6.78328">
        <ele>348</ele>
        <time>2016-01-31T08:50:47.000Z</time>
      </trkpt>
      <trkpt lat="47.47599" lon="6.78325">
        <ele>348</ele>
        <time>2016-01-31T08:50:48.000Z</time>
      </trkpt>
      <trkpt lat="47.47597" lon="6.78322">
        <ele>348</ele>
        <time>2016-01-31T08:50:49.000Z</time>
      </trkpt>
      <trkpt lat="47.47595" lon="6.7832">
        <ele>348</ele>
        <time>2016-01-31T08:50:50.000Z</time>
      </trkpt>
      <trkpt lat="47.47593" lon="6.78317">
        <ele>348</ele>
        <time>2016-01-31T08:50:51.000Z</time>
      </trkpt>
      <trkpt lat="47.47591" lon="6.78314">
        <ele>348</ele>
        <time>2016-01-31T08:50:52.000Z</time>
      </trkpt>
      <trkpt lat="47.47589" lon="6.7831">
        <ele>348</ele>
        <time>2016-01-31T08:50:54.000Z</time>
      </trkpt>
      <trkpt lat="47.47587" lon="6.78307">
        <ele>347</ele>
        <time>2016-01-31T08:50:55.000Z</time>
      </trkpt>
      <trkpt lat="47.47585" lon="6.78305">
        <ele>347</ele>
        <time>2016-01-31T08:50:56.000Z</time>
      </trkpt>
      <trkpt lat="47.47583" lon="6.78302">
        <ele>352</ele>
        <time>2016-01-31T08:50:57.000Z</time>
      </trkpt>
      <trkpt lat="47.47581" lon="6.783">
        <ele>352</ele>
        <time>2016-01-31T08:50:58.000Z</time>
      </trkpt>
      <trkpt lat="47.47579" lon="6.78297">
        <ele>352</ele>
        <time>2016-01-31T08:50:59.000Z</time>
      </trkpt>
      <trkpt lat="47.47577" lon="6.78294">
        <ele>352</ele>
        <time>2016-01-31T08:51:00.000Z</time>
      </trkpt>
      <trkpt lat="47.47575" lon="6.78291">
        <ele>351</ele>
        <time>2016-01-31T08:51:01.000Z</time>
      </trkpt>
      <trkpt lat="47.47573" lon="6.78287">
        <ele>351</ele>
        <time>2016-01-31T08:51:02.000Z</time>
      </trkpt>
      <trkpt lat="47.47571" lon="6.78283">
        <ele>351</ele>
        <time>2016-01-31T08:51:03.000Z</time>
      </trkpt>
      <trkpt lat="47.47569" lon="6.78279">
        <ele>351</ele>
        <time>2016-01-31T08:51:04.000Z</time>
      </trkpt>
      <trkpt lat="47.47567" lon="6.78275">
        <ele>351</ele>
        <time>2016-01-31T08:51:05.000Z</time>
      </trkpt>
      <trkpt lat="47.47565" lon="6.78271">
        <ele>351</ele>
        <time>2016-01-31T08:51:06.000Z</time>
      </trkpt>
      <trkpt lat="47.47563" lon="6.78266">
        <ele>351</ele>
        <time>2016-01-31T08:51:07.000Z</time>
      </trkpt>
      <trkpt lat="47.4756" lon="6.78261">
        <ele>351</ele>
        <time>2016-01-31T08:51:08.000Z</time>
      </trkpt>
      <trkpt lat="47.47557" lon="6.78257">
        <ele>351</ele>
        <time>2016-01-31T08:51:09.000Z</time>
      </trkpt>
      <trkpt lat="47.47554" lon="6.78252">
        <ele>351</ele>
        <time>2016-01-31T08:51:10.000Z</time>
      </trkpt>
      <trkpt lat="47.47551" lon="6.78247">
        <ele>348</ele>
        <time>2016-01-31T08:51:11.000Z</time>
      </trkpt>
      <trkpt lat="47.47548" lon="6.78243">
        <ele>349</ele>
        <time>2016-01-31T08:51:12.001Z</time>
      </trkpt>
      <trkpt lat="47.47545" lon="6.78238">
        <ele>349</ele>
        <time>2016-01-31T08:51:13.000Z</time>
      </trkpt>
      <trkpt lat="47.47542" lon="6.78233">
        <ele>349</ele>
        <time>2016-01-31T08:51:14.000Z</time>
      </trkpt>
      <trkpt lat="47.47539" lon="6.78229">
        <ele>349</ele>
        <time>2016-01-31T08:51:15.000Z</time>
      </trkpt>
      <trkpt lat="47.47536" lon="6.78224">
        <ele>349</ele>
        <time>2016-01-31T08:51:16.000Z</time>
      </trkpt>
      <trkpt lat="47.47533" lon="6.7822">
        <ele>349</ele>
        <time>2016-01-31T08:51:16.999Z</time>
      </trkpt>
      <trkpt lat="47.47529" lon="6.78215">
        <ele>349</ele>
        <time>2016-01-31T08:51:18.000Z</time>
      </trkpt>
      <trkpt lat="47.47526" lon="6.7821">
        <ele>349</ele>
        <time>2016-01-31T08:51:19.000Z</time>
      </trkpt>
      <trkpt lat="47.47523" lon="6.78206">
        <ele>349</ele>
        <time>2016-01-31T08:51:19.999Z</time>
      </trkpt>
      <trkpt lat="47.4752" lon="6.782">
        <ele>349</ele>
        <time>2016-01-31T08:51:21.000Z</time>
      </trkpt>
      <trkpt lat="47.47517" lon="6.78195">
        <ele>349</ele>
        <time>2016-01-31T08:51:22.000Z</time>
      </trkpt>
      <trkpt lat="47.47514" lon="6.78191">
        <ele>349</ele>
        <time>2016-01-31T08:51:23.000Z</time>
      </trkpt>
      <trkpt lat="47.47511" lon="6.78183">
        <ele>349</ele>
        <time>2016-01-31T08:51:24.000Z</time>
      </trkpt>
      <trkpt lat="47.47508" lon="6.78178">
        <ele>349</ele>
        <time>2016-01-31T08:51:25.000Z</time>
      </trkpt>
      <trkpt lat="47.47504" lon="6.78173">
        <ele>349</ele>
        <time>2016-01-31T08:51:26.000Z</time>
      </trkpt>
      <trkpt lat="47.47501" lon="6.78167">
        <ele>349</ele>
        <time>2016-01-31T08:51:27.000Z</time>
      </trkpt>
      <trkpt lat="47.47499" lon="6.78162">
        <ele>349</ele>
        <time>2016-01-31T08:51:28.000Z</time>
      </trkpt>
      <trkpt lat="47.47496" lon="6.78157">
        <ele>349</ele>
        <time>2016-01-31T08:51:29.000Z</time>
      </trkpt>
      <trkpt lat="47.47492" lon="6.78152">
        <ele>348</ele>
        <time>2016-01-31T08:51:30.000Z</time>
      </trkpt>
      <trkpt lat="47.47489" lon="6.78148">
        <ele>348</ele>
        <time>2016-01-31T08:51:31.000Z</time>
      </trkpt>
      <trkpt lat="47.47485" lon="6.78142">
        <ele>348</ele>
        <time>2016-01-31T08:51:32.000Z</time>
      </trkpt>
      <trkpt lat="47.47482" lon="6.78137">
        <ele>348</ele>
        <time>2016-01-31T08:51:33.000Z</time>
      </trkpt>
      <trkpt lat="47.47478" lon="6.78132">
        <ele>348</ele>
        <time>2016-01-31T08:51:34.000Z</time>
      </trkpt>
      <trkpt lat="47.47474" lon="6.78128">
        <ele>347</ele>
        <time>2016-01-31T08:51:35.000Z</time>
      </trkpt>
      <trkpt lat="47.4747" lon="6.78123">
        <ele>347</ele>
        <time>2016-01-31T08:51:36.000Z</time>
      </trkpt>
      <trkpt lat="47.47467" lon="6.78118">
        <ele>347</ele>
        <time>2016-01-31T08:51:37.000Z</time>
      </trkpt>
      <trkpt lat="47.47463" lon="6.78112">
        <ele>347</ele>
        <time>2016-01-31T08:51:38.000Z</time>
      </trkpt>
      <trkpt lat="47.47459" lon="6.78107">
        <ele>347</ele>
        <time>2016-01-31T08:51:39.000Z</time>
      </trkpt>
      <trkpt lat="47.47456" lon="6.78102">
        <ele>347</ele>
        <time>2016-01-31T08:51:40.000Z</time>
      </trkpt>
      <trkpt lat="47.47452" lon="6.78096">
        <ele>347</ele>
        <time>2016-01-31T08:51:40.999Z</time>
      </trkpt>
      <trkpt lat="47.47448" lon="6.78091">
        <ele>347</ele>
        <time>2016-01-31T08:51:42.000Z</time>
      </trkpt>
      <trkpt lat="47.47444" lon="6.78084">
        <ele>347</ele>
        <time>2016-01-31T08:51:43.000Z</time>
      </trkpt>
      <trkpt lat="47.47441" lon="6.78079">
        <ele>343</ele>
        <time>2016-01-31T08:51:43.999Z</time>
      </trkpt>
      <trkpt lat="47.47437" lon="6.78073">
        <ele>343</ele>
        <time>2016-01-31T08:51:45.000Z</time>
      </trkpt>
      <trkpt lat="47.47433" lon="6.78067">
        <ele>343</ele>
        <time>2016-01-31T08:51:46.000Z</time>
      </trkpt>
      <trkpt lat="47.47429" lon="6.7806">
        <ele>343</ele>
        <time>2016-01-31T08:51:47.000Z</time>
      </trkpt>
      <trkpt lat="47.47424" lon="6.78057">
        <ele>343</ele>
        <time>2016-01-31T08:51:48.000Z</time>
      </trkpt>
      <trkpt lat="47.47419" lon="6.78052">
        <ele>342</ele>
        <time>2016-01-31T08:51:49.000Z</time>
      </trkpt>
      <trkpt lat="47.47414" lon="6.78048">
        <ele>345</ele>
        <time>2016-01-31T08:51:50.000Z</time>
      </trkpt>
      <trkpt lat="47.47409" lon="6.78043">
        <ele>345</ele>
        <time>2016-01-31T08:51:51.000Z</time>
      </trkpt>
      <trkpt lat="47.47405" lon="6.78039">
        <ele>345</ele>
        <time>2016-01-31T08:51:52.000Z</time>
      </trkpt>
      <trkpt lat="47.47401" lon="6.78033">
        <ele>344</ele>
        <time>2016-01-31T08:51:53.000Z</time>
      </trkpt>
      <trkpt lat="47.47398" lon="6.78027">
        <ele>344</ele>
        <time>2016-01-31T08:51:54.000Z</time>
      </trkpt>
      <trkpt lat="47.47395" lon="6.78019">
        <ele>344</ele>
        <time>2016-01-31T08:51:55.000Z</time>
      </trkpt>
      <trkpt lat="47.47392" lon="6.78012">
        <ele>344</ele>
        <time>2016-01-31T08:51:56.000Z</time>
      </trkpt>
      <trkpt lat="47.47391" lon="6.78002">
        <ele>343</ele>
        <time>2016-01-31T08:51:57.000Z</time>
      </trkpt>
      <trkpt lat="47.47386" lon="6.77998">
        <ele>341</ele>
        <time>2016-01-31T08:51:58.000Z</time>
      </trkpt>
      <trkpt lat="47.47383" lon="6.77993">
        <ele>341</ele>
        <time>2016-01-31T08:51:59.000Z</time>
      </trkpt>
      <trkpt lat="47.47377" lon="6.77996">
        <ele>341</ele>
        <time>2016-01-31T08:52:00.000Z</time>
      </trkpt>
      <trkpt lat="47.47373" lon="6.77998">
        <ele>341</ele>
        <time>2016-01-31T08:52:01.000Z</time>
      </trkpt>
      <trkpt lat="47.4737" lon="6.78">
        <ele>344</ele>
        <time>2016-01-31T08:52:01.999Z</time>
      </trkpt>
      <trkpt lat="47.47368" lon="6.78006">
        <ele>344</ele>
        <time>2016-01-31T08:52:03.000Z</time>
      </trkpt>
      <trkpt lat="47.47365" lon="6.78009">
        <ele>344</ele>
        <time>2016-01-31T08:52:04.000Z</time>
      </trkpt>
      <trkpt lat="47.47365" lon="6.78013">
        <ele>344</ele>
        <time>2016-01-31T08:52:05.000Z</time>
      </trkpt>
      <trkpt lat="47.47364" lon="6.78017">
        <ele>345</ele>
        <time>2016-01-31T08:52:06.000Z</time>
      </trkpt>
      <trkpt lat="47.47363" lon="6.78021">
        <ele>345</ele>
        <time>2016-01-31T08:52:07.000Z</time>
      </trkpt>
      <trkpt lat="47.47361" lon="6.78025">
        <ele>345</ele>
        <time>2016-01-31T08:52:08.000Z</time>
      </trkpt>
      <trkpt lat="47.4736" lon="6.78029">
        <ele>345</ele>
        <time>2016-01-31T08:52:09.000Z</time>
      </trkpt>
      <trkpt lat="47.47359" lon="6.78033">
        <ele>345</ele>
        <time>2016-01-31T08:52:10.000Z</time>
      </trkpt>
      <trkpt lat="47.47357" lon="6.78036">
        <ele>345</ele>
        <time>2016-01-31T08:52:11.000Z</time>
      </trkpt>
      <trkpt lat="47.47356" lon="6.7804">
        <ele>345</ele>
        <time>2016-01-31T08:52:12.000Z</time>
      </trkpt>
      <trkpt lat="47.47355" lon="6.78043">
        <ele>345</ele>
        <time>2016-01-31T08:52:13.000Z</time>
      </trkpt>
      <trkpt lat="47.47354" lon="6.78046">
        <ele>345</ele>
        <time>2016-01-31T08:52:14.000Z</time>
      </trkpt>
      <trkpt lat="47.47353" lon="6.78052">
        <ele>346</ele>
        <time>2016-01-31T08:52:16.000Z</time>
      </trkpt>
      <trkpt lat="47.47353" lon="6.78055">
        <ele>346</ele>
        <time>2016-01-31T08:52:17.000Z</time>
      </trkpt>
      <trkpt lat="47.47351" lon="6.7806">
        <ele>346</ele>
        <time>2016-01-31T08:52:19.000Z</time>
      </trkpt>
      <trkpt lat="47.47351" lon="6.78063">
        <ele>346</ele>
        <time>2016-01-31T08:52:20.000Z</time>
      </trkpt>
      <trkpt lat="47.4735" lon="6.78067">
        <ele>346</ele>
        <time>2016-01-31T08:52:21.000Z</time>
      </trkpt>
      <trkpt lat="47.47349" lon="6.78071">
        <ele>346</ele>
        <time>2016-01-31T08:52:22.000Z</time>
      </trkpt>
      <trkpt lat="47.47348" lon="6.78075">
        <ele>347</ele>
        <time>2016-01-31T08:52:23.000Z</time>
      </trkpt>
      <trkpt lat="47.47347" lon="6.78078">
        <ele>347</ele>
        <time>2016-01-31T08:52:24.000Z</time>
      </trkpt>
      <trkpt lat="47.47346" lon="6.78082">
        <ele>347</ele>
        <time>2016-01-31T08:52:25.000Z</time>
      </trkpt>
      <trkpt lat="47.47345" lon="6.78086">
        <ele>349</ele>
        <time>2016-01-31T08:52:26.000Z</time>
      </trkpt>
      <trkpt lat="47.47344" lon="6.78089">
        <ele>349</ele>
        <time>2016-01-31T08:52:27.000Z</time>
      </trkpt>
      <trkpt lat="47.47343" lon="6.78092">
        <ele>349</ele>
        <time>2016-01-31T08:52:28.000Z</time>
      </trkpt>
      <trkpt lat="47.47342" lon="6.78096">
        <ele>349</ele>
        <time>2016-01-31T08:52:29.000Z</time>
      </trkpt>
      <trkpt lat="47.47341" lon="6.78099">
        <ele>349</ele>
        <time>2016-01-31T08:52:30.000Z</time>
      </trkpt>
      <trkpt lat="47.4734" lon="6.78103">
        <ele>349</ele>
        <time>2016-01-31T08:52:31.000Z</time>
      </trkpt>
      <trkpt lat="47.47339" lon="6.78106">
        <ele>349</ele>
        <time>2016-01-31T08:52:32.000Z</time>
      </trkpt>
      <trkpt lat="47.47338" lon="6.7811">
        <ele>350</ele>
        <time>2016-01-31T08:52:33.000Z</time>
      </trkpt>
      <trkpt lat="47.47337" lon="6.78113">
        <ele>350</ele>
        <time>2016-01-31T08:52:34.000Z</time>
      </trkpt>
      <trkpt lat="47.47336" lon="6.78116">
        <ele>350</ele>
        <time>2016-01-31T08:52:35.000Z</time>
      </trkpt>
      <trkpt lat="47.47335" lon="6.78119">
        <ele>350</ele>
        <time>2016-01-31T08:52:36.000Z</time>
      </trkpt>
      <trkpt lat="47.47334" lon="6.78122">
        <ele>350</ele>
        <time>2016-01-31T08:52:37.000Z</time>
      </trkpt>
      <trkpt lat="47.47334" lon="6.78126">
        <ele>350</ele>
        <time>2016-01-31T08:52:38.000Z</time>
      </trkpt>
      <trkpt lat="47.47333" lon="6.78129">
        <ele>352</ele>
        <time>2016-01-31T08:52:39.000Z</time>
      </trkpt>
      <trkpt lat="47.47333" lon="6.78133">
        <ele>352</ele>
        <time>2016-01-31T08:52:40.000Z</time>
      </trkpt>
      <trkpt lat="47.47332" lon="6.78137">
        <ele>352</ele>
        <time>2016-01-31T08:52:41.000Z</time>
      </trkpt>
      <trkpt lat="47.47331" lon="6.78141">
        <ele>352</ele>
        <time>2016-01-31T08:52:42.000Z</time>
      </trkpt>
      <trkpt lat="47.4733" lon="6.78145">
        <ele>352</ele>
        <time>2016-01-31T08:52:43.000Z</time>
      </trkpt>
      <trkpt lat="47.47329" lon="6.78149">
        <ele>352</ele>
        <time>2016-01-31T08:52:44.000Z</time>
      </trkpt>
      <trkpt lat="47.47328" lon="6.78153">
        <ele>353</ele>
        <time>2016-01-31T08:52:45.000Z</time>
      </trkpt>
      <trkpt lat="47.47327" lon="6.78157">
        <ele>353</ele>
        <time>2016-01-31T08:52:46.000Z</time>
      </trkpt>
      <trkpt lat="47.47326" lon="6.78161">
        <ele>353</ele>
        <time>2016-01-31T08:52:47.000Z</time>
      </trkpt>
      <trkpt lat="47.47325" lon="6.78165">
        <ele>353</ele>
        <time>2016-01-31T08:52:48.000Z</time>
      </trkpt>
      <trkpt lat="47.47323" lon="6.78169">
        <ele>354</ele>
        <time>2016-01-31T08:52:49.000Z</time>
      </trkpt>
      <trkpt lat="47.47322" lon="6.78174">
        <ele>354</ele>
        <time>2016-01-31T08:52:50.000Z</time>
      </trkpt>
      <trkpt lat="47.47321" lon="6.78178">
        <ele>354</ele>
        <time>2016-01-31T08:52:51.000Z</time>
      </trkpt>
      <trkpt lat="47.47319" lon="6.78182">
        <ele>354</ele>
        <time>2016-01-31T08:52:52.000Z</time>
      </trkpt>
      <trkpt lat="47.47318" lon="6.78186">
        <ele>355</ele>
        <time>2016-01-31T08:52:53.000Z</time>
      </trkpt>
      <trkpt lat="47.47317" lon="6.78189">
        <ele>355</ele>
        <time>2016-01-31T08:52:54.000Z</time>
      </trkpt>
      <trkpt lat="47.47315" lon="6.78193">
        <ele>355</ele>
        <time>2016-01-31T08:52:55.000Z</time>
      </trkpt>
      <trkpt lat="47.47314" lon="6.78197">
        <ele>355</ele>
        <time>2016-01-31T08:52:56.000Z</time>
      </trkpt>
      <trkpt lat="47.47313" lon="6.782">
        <ele>355</ele>
        <time>2016-01-31T08:52:57.000Z</time>
      </trkpt>
      <trkpt lat="47.47312" lon="6.78204">
        <ele>355</ele>
        <time>2016-01-31T08:52:58.000Z</time>
      </trkpt>
      <trkpt lat="47.47311" lon="6.78207">
        <ele>355</ele>
        <time>2016-01-31T08:52:59.000Z</time>
      </trkpt>
      <trkpt lat="47.4731" lon="6.78211">
        <ele>356</ele>
        <time>2016-01-31T08:53:00.000Z</time>
      </trkpt>
      <trkpt lat="47.4731" lon="6.78215">
        <ele>356</ele>
        <time>2016-01-31T08:53:01.000Z</time>
      </trkpt>
      <trkpt lat="47.47308" lon="6.78219">
        <ele>356</ele>
        <time>2016-01-31T08:53:02.000Z</time>
      </trkpt>
      <trkpt lat="47.47307" lon="6.78224">
        <ele>356</ele>
        <time>2016-01-31T08:53:03.000Z</time>
      </trkpt>
      <trkpt lat="47.47306" lon="6.78229">
        <ele>356</ele>
        <time>2016-01-31T08:53:04.000Z</time>
      </trkpt>
      <trkpt lat="47.47305" lon="6.78234">
        <ele>356</ele>
        <time>2016-01-31T08:53:05.000Z</time>
      </trkpt>
      <trkpt lat="47.47304" lon="6.78239">
        <ele>356</ele>
        <time>2016-01-31T08:53:06.000Z</time>
      </trkpt>
      <trkpt lat="47.47303" lon="6.78244">
        <ele>356</ele>
        <time>2016-01-31T08:53:07.000Z</time>
      </trkpt>
      <trkpt lat="47.47302" lon="6.78248">
        <ele>356</ele>
        <time>2016-01-31T08:53:08.000Z</time>
      </trkpt>
      <trkpt lat="47.473" lon="6.78253">
        <ele>358</ele>
        <time>2016-01-31T08:53:09.000Z</time>
      </trkpt>
      <trkpt lat="47.47299" lon="6.78258">
        <ele>358</ele>
        <time>2016-01-31T08:53:10.000Z</time>
      </trkpt>
      <trkpt lat="47.47297" lon="6.78262">
        <ele>358</ele>
        <time>2016-01-31T08:53:11.000Z</time>
      </trkpt>
      <trkpt lat="47.47295" lon="6.78266">
        <ele>358</ele>
        <time>2016-01-31T08:53:12.000Z</time>
      </trkpt>
      <trkpt lat="47.47294" lon="6.7827">
        <ele>358</ele>
        <time>2016-01-31T08:53:13.000Z</time>
      </trkpt>
      <trkpt lat="47.47293" lon="6.78274">
        <ele>358</ele>
        <time>2016-01-31T08:53:14.000Z</time>
      </trkpt>
      <trkpt lat="47.47292" lon="6.78278">
        <ele>358</ele>
        <time>2016-01-31T08:53:15.000Z</time>
      </trkpt>
      <trkpt lat="47.47291" lon="6.78282">
        <ele>358</ele>
        <time>2016-01-31T08:53:16.000Z</time>
      </trkpt>
      <trkpt lat="47.4729" lon="6.78286">
        <ele>358</ele>
        <time>2016-01-31T08:53:17.000Z</time>
      </trkpt>
      <trkpt lat="47.47289" lon="6.7829">
        <ele>358</ele>
        <time>2016-01-31T08:53:18.000Z</time>
      </trkpt>
      <trkpt lat="47.47287" lon="6.78293">
        <ele>358</ele>
        <time>2016-01-31T08:53:19.000Z</time>
      </trkpt>
      <trkpt lat="47.47286" lon="6.78297">
        <ele>358</ele>
        <time>2016-01-31T08:53:20.000Z</time>
      </trkpt>
      <trkpt lat="47.47285" lon="6.783">
        <ele>358</ele>
        <time>2016-01-31T08:53:21.000Z</time>
      </trkpt>
      <trkpt lat="47.47284" lon="6.78303">
        <ele>358</ele>
        <time>2016-01-31T08:53:22.000Z</time>
      </trkpt>
      <trkpt lat="47.47283" lon="6.78306">
        <ele>358</ele>
        <time>2016-01-31T08:53:23.000Z</time>
      </trkpt>
      <trkpt lat="47.47282" lon="6.7831">
        <ele>358</ele>
        <time>2016-01-31T08:53:24.000Z</time>
      </trkpt>
      <trkpt lat="47.47281" lon="6.78313">
        <ele>358</ele>
        <time>2016-01-31T08:53:25.000Z</time>
      </trkpt>
      <trkpt lat="47.4728" lon="6.78316">
        <ele>358</ele>
        <time>2016-01-31T08:53:26.000Z</time>
      </trkpt>
      <trkpt lat="47.47279" lon="6.7832">
        <ele>358</ele>
        <time>2016-01-31T08:53:27.000Z</time>
      </trkpt>
      <trkpt lat="47.47279" lon="6.78323">
        <ele>358</ele>
        <time>2016-01-31T08:53:28.000Z</time>
      </trkpt>
      <trkpt lat="47.47278" lon="6.78326">
        <ele>358</ele>
        <time>2016-01-31T08:53:29.000Z</time>
      </trkpt>
      <trkpt lat="47.47278" lon="6.7833">
        <ele>358</ele>
        <time>2016-01-31T08:53:30.000Z</time>
      </trkpt>
      <trkpt lat="47.47277" lon="6.78334">
        <ele>360</ele>
        <time>2016-01-31T08:53:31.000Z</time>
      </trkpt>
      <trkpt lat="47.47276" lon="6.78338">
        <ele>360</ele>
        <time>2016-01-31T08:53:32.000Z</time>
      </trkpt>
      <trkpt lat="47.47275" lon="6.78341">
        <ele>360</ele>
        <time>2016-01-31T08:53:33.000Z</time>
      </trkpt>
      <trkpt lat="47.47274" lon="6.78345">
        <ele>360</ele>
        <time>2016-01-31T08:53:34.000Z</time>
      </trkpt>
      <trkpt lat="47.47273" lon="6.78349">
        <ele>360</ele>
        <time>2016-01-31T08:53:35.000Z</time>
      </trkpt>
      <trkpt lat="47.47272" lon="6.78352">
        <ele>360</ele>
        <time>2016-01-31T08:53:36.000Z</time>
      </trkpt>
      <trkpt lat="47.47271" lon="6.78356">
        <ele>360</ele>
        <time>2016-01-31T08:53:37.000Z</time>
      </trkpt>
      <trkpt lat="47.4727" lon="6.78359">
        <ele>360</ele>
        <time>2016-01-31T08:53:38.000Z</time>
      </trkpt>
      <trkpt lat="47.47269" lon="6.78363">
        <ele>360</ele>
        <time>2016-01-31T08:53:39.000Z</time>
      </trkpt>
      <trkpt lat="47.47268" lon="6.78366">
        <ele>360</ele>
        <time>2016-01-31T08:53:40.000Z</time>
      </trkpt>
      <trkpt lat="47.47267" lon="6.78369">
        <ele>360</ele>
        <time>2016-01-31T08:53:41.000Z</time>
      </trkpt>
      <trkpt lat="47.47265" lon="6.78372">
        <ele>360</ele>
        <time>2016-01-31T08:53:42.000Z</time>
      </trkpt>
      <trkpt lat="47.47264" lon="6.78376">
        <ele>360</ele>
        <time>2016-01-31T08:53:43.000Z</time>
      </trkpt>
      <trkpt lat="47.47263" lon="6.78379">
        <ele>360</ele>
        <time>2016-01-31T08:53:44.000Z</time>
      </trkpt>
      <trkpt lat="47.47262" lon="6.78382">
        <ele>360</ele>
        <time>2016-01-31T08:53:45.000Z</time>
      </trkpt>
      <trkpt lat="47.47261" lon="6.78385">
        <ele>360</ele>
        <time>2016-01-31T08:53:46.000Z</time>
      </trkpt>
      <trkpt lat="47.47259" lon="6.7839">
        <ele>360</ele>
        <time>2016-01-31T08:53:48.000Z</time>
      </trkpt>
      <trkpt lat="47.47258" lon="6.78393">
        <ele>360</ele>
        <time>2016-01-31T08:53:49.000Z</time>
      </trkpt>
      <trkpt lat="47.47256" lon="6.78397">
        <ele>360</ele>
        <time>2016-01-31T08:53:51.000Z</time>
      </trkpt>
      <trkpt lat="47.47256" lon="6.78399">
        <ele>360</ele>
        <time>2016-01-31T08:53:52.000Z</time>
      </trkpt>
      <trkpt lat="47.47254" lon="6.78405">
        <ele>360</ele>
        <time>2016-01-31T08:53:54.000Z</time>
      </trkpt>
      <trkpt lat="47.47253" lon="6.78408">
        <ele>360</ele>
        <time>2016-01-31T08:53:55.000Z</time>
      </trkpt>
      <trkpt lat="47.47252" lon="6.78412">
        <ele>360</ele>
        <time>2016-01-31T08:53:56.000Z</time>
      </trkpt>
      <trkpt lat="47.47251" lon="6.78415">
        <ele>360</ele>
        <time>2016-01-31T08:53:57.000Z</time>
      </trkpt>
      <trkpt lat="47.4725" lon="6.78421">
        <ele>360</ele>
        <time>2016-01-31T08:53:59.000Z</time>
      </trkpt>
      <trkpt lat="47.47249" lon="6.78424">
        <ele>360</ele>
        <time>2016-01-31T08:54:00.000Z</time>
      </trkpt>
      <trkpt lat="47.47248" lon="6.78428">
        <ele>360</ele>
        <time>2016-01-31T08:54:01.000Z</time>
      </trkpt>
      <trkpt lat="47.47247" lon="6.78431">
        <ele>360</ele>
        <time>2016-01-31T08:54:02.000Z</time>
      </trkpt>
      <trkpt lat="47.47246" lon="6.78434">
        <ele>360</ele>
        <time>2016-01-31T08:54:03.000Z</time>
      </trkpt>
      <trkpt lat="47.47245" lon="6.78437">
        <ele>360</ele>
        <time>2016-01-31T08:54:04.000Z</time>
      </trkpt>
      <trkpt lat="47.47243" lon="6.78441">
        <ele>360</ele>
        <time>2016-01-31T08:54:05.000Z</time>
      </trkpt>
      <trkpt lat="47.47242" lon="6.78444">
        <ele>360</ele>
        <time>2016-01-31T08:54:06.000Z</time>
      </trkpt>
      <trkpt lat="47.47241" lon="6.78447">
        <ele>360</ele>
        <time>2016-01-31T08:54:07.000Z</time>
      </trkpt>
      <trkpt lat="47.4724" lon="6.7845">
        <ele>360</ele>
        <time>2016-01-31T08:54:08.000Z</time>
      </trkpt>
      <trkpt lat="47.47239" lon="6.78456">
        <ele>360</ele>
        <time>2016-01-31T08:54:10.000Z</time>
      </trkpt>
      <trkpt lat="47.47238" lon="6.78458">
        <ele>360</ele>
        <time>2016-01-31T08:54:11.000Z</time>
      </trkpt>
      <trkpt lat="47.47236" lon="6.78461">
        <ele>360</ele>
        <time>2016-01-31T08:54:13.000Z</time>
      </trkpt>
      <trkpt lat="47.47235" lon="6.78464">
        <ele>360</ele>
        <time>2016-01-31T08:54:14.000Z</time>
      </trkpt>
      <trkpt lat="47.47234" lon="6.78469">
        <ele>360</ele>
        <time>2016-01-31T08:54:16.000Z</time>
      </trkpt>
      <trkpt lat="47.47233" lon="6.78473">
        <ele>361</ele>
        <time>2016-01-31T08:54:17.000Z</time>
      </trkpt>
      <trkpt lat="47.47232" lon="6.78476">
        <ele>361</ele>
        <time>2016-01-31T08:54:18.000Z</time>
      </trkpt>
      <trkpt lat="47.47231" lon="6.78479">
        <ele>361</ele>
        <time>2016-01-31T08:54:19.000Z</time>
      </trkpt>
      <trkpt lat="47.47228" lon="6.78483">
        <ele>361</ele>
        <time>2016-01-31T08:54:21.000Z</time>
      </trkpt>
      <trkpt lat="47.47226" lon="6.78483">
        <ele>361</ele>
        <time>2016-01-31T08:54:22.000Z</time>
      </trkpt>
      <trkpt lat="47.47224" lon="6.78483">
        <ele>361</ele>
        <time>2016-01-31T08:54:23.000Z</time>
      </trkpt>
      <trkpt lat="47.47222" lon="6.78481">
        <ele>360</ele>
        <time>2016-01-31T08:54:24.000Z</time>
      </trkpt>
      <trkpt lat="47.47219" lon="6.7848">
        <ele>360</ele>
        <time>2016-01-31T08:54:25.000Z</time>
      </trkpt>
      <trkpt lat="47.47217" lon="6.78479">
        <ele>360</ele>
        <time>2016-01-31T08:54:25.999Z</time>
      </trkpt>
      <trkpt lat="47.47215" lon="6.78477">
        <ele>360</ele>
        <time>2016-01-31T08:54:27.000Z</time>
      </trkpt>
      <trkpt lat="47.47213" lon="6.78476">
        <ele>360</ele>
        <time>2016-01-31T08:54:28.000Z</time>
      </trkpt>
      <trkpt lat="47.4721" lon="6.78475">
        <ele>360</ele>
        <time>2016-01-31T08:54:29.000Z</time>
      </trkpt>
      <trkpt lat="47.47207" lon="6.78474">
        <ele>360</ele>
        <time>2016-01-31T08:54:30.000Z</time>
      </trkpt>
      <trkpt lat="47.47204" lon="6.78473">
        <ele>360</ele>
        <time>2016-01-31T08:54:31.000Z</time>
      </trkpt>
      <trkpt lat="47.47201" lon="6.78472">
        <ele>360</ele>
        <time>2016-01-31T08:54:32.000Z</time>
      </trkpt>
      <trkpt lat="47.47198" lon="6.7847">
        <ele>360</ele>
        <time>2016-01-31T08:54:33.000Z</time>
      </trkpt>
      <trkpt lat="47.47196" lon="6.78469">
        <ele>360</ele>
        <time>2016-01-31T08:54:34.000Z</time>
      </trkpt>
      <trkpt lat="47.47193" lon="6.78467">
        <ele>360</ele>
        <time>2016-01-31T08:54:35.000Z</time>
      </trkpt>
      <trkpt lat="47.47191" lon="6.78465">
        <ele>360</ele>
        <time>2016-01-31T08:54:35.999Z</time>
      </trkpt>
      <trkpt lat="47.47188" lon="6.78463">
        <ele>360</ele>
        <time>2016-01-31T08:54:37.000Z</time>
      </trkpt>
      <trkpt lat="47.47184" lon="6.78461">
        <ele>360</ele>
        <time>2016-01-31T08:54:38.000Z</time>
      </trkpt>
      <trkpt lat="47.47181" lon="6.78459">
        <ele>360</ele>
        <time>2016-01-31T08:54:39.001Z</time>
      </trkpt>
      <trkpt lat="47.47177" lon="6.78458">
        <ele>360</ele>
        <time>2016-01-31T08:54:40.000Z</time>
      </trkpt>
      <trkpt lat="47.47174" lon="6.78457">
        <ele>360</ele>
        <time>2016-01-31T08:54:41.000Z</time>
      </trkpt>
      <trkpt lat="47.4717" lon="6.78456">
        <ele>360</ele>
        <time>2016-01-31T08:54:42.000Z</time>
      </trkpt>
      <trkpt lat="47.47167" lon="6.78455">
        <ele>360</ele>
        <time>2016-01-31T08:54:43.000Z</time>
      </trkpt>
      <trkpt lat="47.47164" lon="6.78454">
        <ele>358</ele>
        <time>2016-01-31T08:54:44.000Z</time>
      </trkpt>
      <trkpt lat="47.47161" lon="6.78452">
        <ele>358</ele>
        <time>2016-01-31T08:54:45.000Z</time>
      </trkpt>
      <trkpt lat="47.47157" lon="6.7845">
        <ele>358</ele>
        <time>2016-01-31T08:54:46.000Z</time>
      </trkpt>
      <trkpt lat="47.47154" lon="6.78449">
        <ele>358</ele>
        <time>2016-01-31T08:54:47.000Z</time>
      </trkpt>
      <trkpt lat="47.47151" lon="6.78447">
        <ele>358</ele>
        <time>2016-01-31T08:54:48.000Z</time>
      </trkpt>
      <trkpt lat="47.47147" lon="6.78446">
        <ele>358</ele>
        <time>2016-01-31T08:54:50.000Z</time>
      </trkpt>
      <trkpt lat="47.47145" lon="6.78445">
        <ele>358</ele>
        <time>2016-01-31T08:54:51.000Z</time>
      </trkpt>
      <trkpt lat="47.47143" lon="6.78444">
        <ele>358</ele>
        <time>2016-01-31T08:54:52.000Z</time>
      </trkpt>
      <trkpt lat="47.47141" lon="6.78443">
        <ele>358</ele>
        <time>2016-01-31T08:54:53.000Z</time>
      </trkpt>
      <trkpt lat="47.47138" lon="6.78441">
        <ele>358</ele>
        <time>2016-01-31T08:54:54.000Z</time>
      </trkpt>
      <trkpt lat="47.47135" lon="6.7844">
        <ele>358</ele>
        <time>2016-01-31T08:54:55.000Z</time>
      </trkpt>
      <trkpt lat="47.47132" lon="6.78438">
        <ele>358</ele>
        <time>2016-01-31T08:54:56.000Z</time>
      </trkpt>
      <trkpt lat="47.47129" lon="6.78437">
        <ele>358</ele>
        <time>2016-01-31T08:54:57.000Z</time>
      </trkpt>
      <trkpt lat="47.47125" lon="6.78437">
        <ele>358</ele>
        <time>2016-01-31T08:54:58.000Z</time>
      </trkpt>
      <trkpt lat="47.47122" lon="6.78436">
        <ele>358</ele>
        <time>2016-01-31T08:54:59.000Z</time>
      </trkpt>
      <trkpt lat="47.47119" lon="6.78435">
        <ele>358</ele>
        <time>2016-01-31T08:55:00.000Z</time>
      </trkpt>
      <trkpt lat="47.47115" lon="6.78435">
        <ele>358</ele>
        <time>2016-01-31T08:55:01.000Z</time>
      </trkpt>
      <trkpt lat="47.47111" lon="6.78435">
        <ele>357</ele>
        <time>2016-01-31T08:55:02.000Z</time>
      </trkpt>
      <trkpt lat="47.47108" lon="6.78435">
        <ele>357</ele>
        <time>2016-01-31T08:55:03.000Z</time>
      </trkpt>
      <trkpt lat="47.47105" lon="6.78435">
        <ele>357</ele>
        <time>2016-01-31T08:55:04.000Z</time>
      </trkpt>
      <trkpt lat="47.47102" lon="6.78435">
        <ele>357</ele>
        <time>2016-01-31T08:55:05.000Z</time>
      </trkpt>
      <trkpt lat="47.47099" lon="6.78436">
        <ele>357</ele>
        <time>2016-01-31T08:55:06.000Z</time>
      </trkpt>
      <trkpt lat="47.47095" lon="6.78437">
        <ele>357</ele>
        <time>2016-01-31T08:55:07.000Z</time>
      </trkpt>
      <trkpt lat="47.47085" lon="6.78437">
        <ele>357</ele>
        <time>2016-01-31T08:55:08.000Z</time>
      </trkpt>
      <trkpt lat="47.4708" lon="6.78436">
        <ele>355</ele>
        <time>2016-01-31T08:55:09.000Z</time>
      </trkpt>
      <trkpt lat="47.47074" lon="6.78434">
        <ele>355</ele>
        <time>2016-01-31T08:55:10.000Z</time>
      </trkpt>
      <trkpt lat="47.47068" lon="6.78434">
        <ele>355</ele>
        <time>2016-01-31T08:55:11.000Z</time>
      </trkpt>
      <trkpt lat="47.47063" lon="6.78433">
        <ele>355</ele>
        <time>2016-01-31T08:55:12.000Z</time>
      </trkpt>
      <trkpt lat="47.47053" lon="6.78426">
        <ele>355</ele>
        <time>2016-01-31T08:55:13.000Z</time>
      </trkpt>
      <trkpt lat="47.47047" lon="6.78423">
        <ele>355</ele>
        <time>2016-01-31T08:55:14.000Z</time>
      </trkpt>
      <trkpt lat="47.47039" lon="6.78417">
        <ele>350</ele>
        <time>2016-01-31T08:55:15.000Z</time>
      </trkpt>
      <trkpt lat="47.47032" lon="6.78412">
        <ele>350</ele>
        <time>2016-01-31T08:55:16.000Z</time>
      </trkpt>
      <trkpt lat="47.47026" lon="6.78405">
        <ele>349</ele>
        <time>2016-01-31T08:55:17.000Z</time>
      </trkpt>
      <trkpt lat="47.47023" lon="6.78398">
        <ele>349</ele>
        <time>2016-01-31T08:55:18.000Z</time>
      </trkpt>
      <trkpt lat="47.47016" lon="6.78393">
        <ele>349</ele>
        <time>2016-01-31T08:55:19.000Z</time>
      </trkpt>
      <trkpt lat="47.47011" lon="6.78391">
        <ele>349</ele>
        <time>2016-01-31T08:55:20.000Z</time>
      </trkpt>
      <trkpt lat="47.47006" lon="6.78391">
        <ele>349</ele>
        <time>2016-01-31T08:55:21.000Z</time>
      </trkpt>
      <trkpt lat="47.47001" lon="6.78394">
        <ele>349</ele>
        <time>2016-01-31T08:55:22.000Z</time>
      </trkpt>
      <trkpt lat="47.46996" lon="6.78396">
        <ele>347</ele>
        <time>2016-01-31T08:55:23.000Z</time>
      </trkpt>
      <trkpt lat="47.46991" lon="6.784">
        <ele>348</ele>
        <time>2016-01-31T08:55:24.000Z</time>
      </trkpt>
      <trkpt lat="47.46987" lon="6.78404">
        <ele>348</ele>
        <time>2016-01-31T08:55:25.000Z</time>
      </trkpt>
      <trkpt lat="47.46983" lon="6.78408">
        <ele>348</ele>
        <time>2016-01-31T08:55:26.000Z</time>
      </trkpt>
      <trkpt lat="47.46981" lon="6.78412">
        <ele>348</ele>
        <time>2016-01-31T08:55:27.000Z</time>
      </trkpt>
      <trkpt lat="47.46978" lon="6.78415">
        <ele>348</ele>
        <time>2016-01-31T08:55:28.000Z</time>
      </trkpt>
      <trkpt lat="47.46975" lon="6.78418">
        <ele>350</ele>
        <time>2016-01-31T08:55:29.000Z</time>
      </trkpt>
      <trkpt lat="47.46972" lon="6.7842">
        <ele>350</ele>
        <time>2016-01-31T08:55:30.000Z</time>
      </trkpt>
      <trkpt lat="47.4697" lon="6.78424">
        <ele>350</ele>
        <time>2016-01-31T08:55:31.000Z</time>
      </trkpt>
      <trkpt lat="47.46967" lon="6.78426">
        <ele>350</ele>
        <time>2016-01-31T08:55:32.000Z</time>
      </trkpt>
      <trkpt lat="47.46965" lon="6.78429">
        <ele>350</ele>
        <time>2016-01-31T08:55:33.000Z</time>
      </trkpt>
      <trkpt lat="47.46963" lon="6.78432">
        <ele>350</ele>
        <time>2016-01-31T08:55:34.000Z</time>
      </trkpt>
      <trkpt lat="47.4696" lon="6.78435">
        <ele>350</ele>
        <time>2016-01-31T08:55:35.000Z</time>
      </trkpt>
      <trkpt lat="47.46958" lon="6.78438">
        <ele>350</ele>
        <time>2016-01-31T08:55:36.000Z</time>
      </trkpt>
      <trkpt lat="47.46957" lon="6.78441">
        <ele>350</ele>
        <time>2016-01-31T08:55:37.000Z</time>
      </trkpt>
      <trkpt lat="47.46955" lon="6.78444">
        <ele>350</ele>
        <time>2016-01-31T08:55:38.000Z</time>
      </trkpt>
      <trkpt lat="47.46953" lon="6.78447">
        <ele>350</ele>
        <time>2016-01-31T08:55:39.000Z</time>
      </trkpt>
      <trkpt lat="47.46951" lon="6.78449">
        <ele>350</ele>
        <time>2016-01-31T08:55:40.000Z</time>
      </trkpt>
      <trkpt lat="47.4695" lon="6.78453">
        <ele>350</ele>
        <time>2016-01-31T08:55:41.000Z</time>
      </trkpt>
      <trkpt lat="47.46948" lon="6.78456">
        <ele>350</ele>
        <time>2016-01-31T08:55:42.000Z</time>
      </trkpt>
      <trkpt lat="47.46947" lon="6.7846">
        <ele>350</ele>
        <time>2016-01-31T08:55:43.000Z</time>
      </trkpt>
      <trkpt lat="47.46946" lon="6.78463">
        <ele>350</ele>
        <time>2016-01-31T08:55:44.000Z</time>
      </trkpt>
      <trkpt lat="47.46945" lon="6.78469">
        <ele>350</ele>
        <time>2016-01-31T08:55:46.000Z</time>
      </trkpt>
      <trkpt lat="47.46944" lon="6.78472">
        <ele>350</ele>
        <time>2016-01-31T08:55:47.000Z</time>
      </trkpt>
      <trkpt lat="47.46943" lon="6.78477">
        <ele>350</ele>
        <time>2016-01-31T08:55:49.000Z</time>
      </trkpt>
      <trkpt lat="47.46943" lon="6.78481">
        <ele>350</ele>
        <time>2016-01-31T08:55:50.000Z</time>
      </trkpt>
      <trkpt lat="47.46942" lon="6.78484">
        <ele>350</ele>
        <time>2016-01-31T08:55:51.000Z</time>
      </trkpt>
      <trkpt lat="47.46942" lon="6.78487">
        <ele>350</ele>
        <time>2016-01-31T08:55:52.000Z</time>
      </trkpt>
      <trkpt lat="47.46941" lon="6.78491">
        <ele>350</ele>
        <time>2016-01-31T08:55:53.000Z</time>
      </trkpt>
      <trkpt lat="47.4694" lon="6.78495">
        <ele>350</ele>
        <time>2016-01-31T08:55:54.000Z</time>
      </trkpt>
      <trkpt lat="47.4694" lon="6.78499">
        <ele>350</ele>
        <time>2016-01-31T08:55:55.000Z</time>
      </trkpt>
      <trkpt lat="47.46939" lon="6.78503">
        <ele>351</ele>
        <time>2016-01-31T08:55:56.000Z</time>
      </trkpt>
      <trkpt lat="47.46939" lon="6.78507">
        <ele>351</ele>
        <time>2016-01-31T08:55:57.000Z</time>
      </trkpt>
      <trkpt lat="47.46939" lon="6.78512">
        <ele>351</ele>
        <time>2016-01-31T08:55:58.000Z</time>
      </trkpt>
      <trkpt lat="47.46938" lon="6.78516">
        <ele>352</ele>
        <time>2016-01-31T08:55:59.000Z</time>
      </trkpt>
      <trkpt lat="47.46937" lon="6.78521">
        <ele>352</ele>
        <time>2016-01-31T08:56:00.000Z</time>
      </trkpt>
      <trkpt lat="47.46936" lon="6.78525">
        <ele>352</ele>
        <time>2016-01-31T08:56:01.000Z</time>
      </trkpt>
      <trkpt lat="47.46935" lon="6.7853">
        <ele>352</ele>
        <time>2016-01-31T08:56:02.000Z</time>
      </trkpt>
      <trkpt lat="47.46935" lon="6.78534">
        <ele>352</ele>
        <time>2016-01-31T08:56:03.000Z</time>
      </trkpt>
      <trkpt lat="47.46935" lon="6.78538">
        <ele>352</ele>
        <time>2016-01-31T08:56:04.000Z</time>
      </trkpt>
      <trkpt lat="47.46934" lon="6.78542">
        <ele>352</ele>
        <time>2016-01-31T08:56:05.000Z</time>
      </trkpt>
      <trkpt lat="47.46934" lon="6.78547">
        <ele>352</ele>
        <time>2016-01-31T08:56:06.000Z</time>
      </trkpt>
      <trkpt lat="47.46934" lon="6.78551">
        <ele>352</ele>
        <time>2016-01-31T08:56:07.000Z</time>
      </trkpt>
      <trkpt lat="47.46933" lon="6.78555">
        <ele>352</ele>
        <time>2016-01-31T08:56:08.000Z</time>
      </trkpt>
      <trkpt lat="47.46933" lon="6.78558">
        <ele>352</ele>
        <time>2016-01-31T08:56:09.000Z</time>
      </trkpt>
      <trkpt lat="47.46932" lon="6.78561">
        <ele>352</ele>
        <time>2016-01-31T08:56:10.000Z</time>
      </trkpt>
      <trkpt lat="47.46932" lon="6.78564">
        <ele>352</ele>
        <time>2016-01-31T08:56:11.000Z</time>
      </trkpt>
      <trkpt lat="47.46931" lon="6.78568">
        <ele>351</ele>
        <time>2016-01-31T08:56:12.000Z</time>
      </trkpt>
      <trkpt lat="47.46929" lon="6.78571">
        <ele>351</ele>
        <time>2016-01-31T08:56:13.000Z</time>
      </trkpt>
      <trkpt lat="47.46926" lon="6.78574">
        <ele>350</ele>
        <time>2016-01-31T08:56:14.000Z</time>
      </trkpt>
      <trkpt lat="47.46922" lon="6.78575">
        <ele>350</ele>
        <time>2016-01-31T08:56:15.000Z</time>
      </trkpt>
      <trkpt lat="47.4692" lon="6.78575">
        <ele>350</ele>
        <time>2016-01-31T08:56:15.998Z</time>
      </trkpt>
      <trkpt lat="47.46914" lon="6.78574">
        <ele>350</ele>
        <time>2016-01-31T08:56:17.000Z</time>
      </trkpt>
      <trkpt lat="47.4691" lon="6.78573">
        <ele>350</ele>
        <time>2016-01-31T08:56:18.000Z</time>
      </trkpt>
      <trkpt lat="47.46907" lon="6.78572">
        <ele>351</ele>
        <time>2016-01-31T08:56:19.000Z</time>
      </trkpt>
      <trkpt lat="47.46905" lon="6.78571">
        <ele>351</ele>
        <time>2016-01-31T08:56:20.000Z</time>
      </trkpt>
      <trkpt lat="47.46903" lon="6.7857">
        <ele>351</ele>
        <time>2016-01-31T08:56:21.000Z</time>
      </trkpt>
      <trkpt lat="47.46898" lon="6.78571">
        <ele>352</ele>
        <time>2016-01-31T08:56:23.000Z</time>
      </trkpt>
      <trkpt lat="47.46897" lon="6.78571">
        <ele>352</ele>
        <time>2016-01-31T08:56:24.000Z</time>
      </trkpt>
      <trkpt lat="47.46893" lon="6.78573">
        <ele>352</ele>
        <time>2016-01-31T08:56:26.000Z</time>
      </trkpt>
      <trkpt lat="47.46891" lon="6.78575">
        <ele>352</ele>
        <time>2016-01-31T08:56:27.000Z</time>
      </trkpt>
      <trkpt lat="47.46889" lon="6.78577">
        <ele>352</ele>
        <time>2016-01-31T08:56:28.000Z</time>
      </trkpt>
      <trkpt lat="47.46887" lon="6.78579">
        <ele>353</ele>
        <time>2016-01-31T08:56:29.000Z</time>
      </trkpt>
      <trkpt lat="47.46883" lon="6.78581">
        <ele>353</ele>
        <time>2016-01-31T08:56:33.000Z</time>
      </trkpt>
      <trkpt lat="47.46882" lon="6.78581">
        <ele>353</ele>
        <time>2016-01-31T08:56:34.000Z</time>
      </trkpt>
      <trkpt lat="47.46879" lon="6.78582">
        <ele>354</ele>
        <time>2016-01-31T08:56:37.000Z</time>
      </trkpt>
      <trkpt lat="47.46877" lon="6.78583">
        <ele>354</ele>
        <time>2016-01-31T08:56:38.000Z</time>
      </trkpt>
      <trkpt lat="47.46875" lon="6.78583">
        <ele>355</ele>
        <time>2016-01-31T08:56:40.000Z</time>
      </trkpt>
      <trkpt lat="47.46872" lon="6.78584">
        <ele>356</ele>
        <time>2016-01-31T08:56:41.000Z</time>
      </trkpt>
      <trkpt lat="47.4687" lon="6.78585">
        <ele>356</ele>
        <time>2016-01-31T08:56:42.000Z</time>
      </trkpt>
      <trkpt lat="47.46868" lon="6.78586">
        <ele>356</ele>
        <time>2016-01-31T08:56:43.000Z</time>
      </trkpt>
      <trkpt lat="47.46864" lon="6.78588">
        <ele>356</ele>
        <time>2016-01-31T08:56:45.000Z</time>
      </trkpt>
      <trkpt lat="47.46863" lon="6.78589">
        <ele>357</ele>
        <time>2016-01-31T08:56:46.000Z</time>
      </trkpt>
      <trkpt lat="47.46859" lon="6.7859">
        <ele>357</ele>
        <time>2016-01-31T08:56:49.000Z</time>
      </trkpt>
      <trkpt lat="47.46857" lon="6.7859">
        <ele>357</ele>
        <time>2016-01-31T08:56:50.000Z</time>
      </trkpt>
      <trkpt lat="47.46853" lon="6.78591">
        <ele>357</ele>
        <time>2016-01-31T08:56:52.000Z</time>
      </trkpt>
      <trkpt lat="47.46851" lon="6.78591">
        <ele>358</ele>
        <time>2016-01-31T08:56:53.000Z</time>
      </trkpt>
      <trkpt lat="47.46847" lon="6.78592">
        <ele>358</ele>
        <time>2016-01-31T08:56:55.000Z</time>
      </trkpt>
      <trkpt lat="47.46846" lon="6.78593">
        <ele>358</ele>
        <time>2016-01-31T08:56:56.000Z</time>
      </trkpt>
      <trkpt lat="47.46843" lon="6.78595">
        <ele>358</ele>
        <time>2016-01-31T08:56:58.000Z</time>
      </trkpt>
      <trkpt lat="47.46842" lon="6.78596">
        <ele>358</ele>
        <time>2016-01-31T08:56:59.000Z</time>
      </trkpt>
      <trkpt lat="47.46838" lon="6.786">
        <ele>358</ele>
        <time>2016-01-31T08:57:02.000Z</time>
      </trkpt>
      <trkpt lat="47.46837" lon="6.786">
        <ele>358</ele>
        <time>2016-01-31T08:57:03.000Z</time>
      </trkpt>
      <trkpt lat="47.46833" lon="6.78601">
        <ele>358</ele>
        <time>2016-01-31T08:57:06.000Z</time>
      </trkpt>
      <trkpt lat="47.46832" lon="6.78602">
        <ele>364</ele>
        <time>2016-01-31T08:57:07.000Z</time>
      </trkpt>
      <trkpt lat="47.46829" lon="6.78605">
        <ele>364</ele>
        <time>2016-01-31T08:57:10.000Z</time>
      </trkpt>
      <trkpt lat="47.46829" lon="6.78607">
        <ele>364</ele>
        <time>2016-01-31T08:57:11.000Z</time>
      </trkpt>
      <trkpt lat="47.46826" lon="6.78611">
        <ele>365</ele>
        <time>2016-01-31T08:57:16.000Z</time>
      </trkpt>
      <trkpt lat="47.46826" lon="6.78612">
        <ele>365</ele>
        <time>2016-01-31T08:57:17.000Z</time>
      </trkpt>
      <trkpt lat="47.46823" lon="6.78614">
        <ele>365</ele>
        <time>2016-01-31T08:57:20.000Z</time>
      </trkpt>
      <trkpt lat="47.46822" lon="6.78615">
        <ele>365</ele>
        <time>2016-01-31T08:57:21.000Z</time>
      </trkpt>
      <trkpt lat="47.4682" lon="6.7862">
        <ele>365</ele>
        <time>2016-01-31T08:57:25.000Z</time>
      </trkpt>
      <trkpt lat="47.4682" lon="6.78622">
        <ele>365</ele>
        <time>2016-01-31T08:57:26.000Z</time>
      </trkpt>
      <trkpt lat="47.46819" lon="6.78627">
        <ele>366</ele>
        <time>2016-01-31T08:57:29.000Z</time>
      </trkpt>
      <trkpt lat="47.46819" lon="6.7863">
        <ele>366</ele>
        <time>2016-01-31T08:57:30.000Z</time>
      </trkpt>
      <trkpt lat="47.46817" lon="6.78636">
        <ele>366</ele>
        <time>2016-01-31T08:57:33.000Z</time>
      </trkpt>
      <trkpt lat="47.46817" lon="6.78637">
        <ele>366</ele>
        <time>2016-01-31T08:57:34.000Z</time>
      </trkpt>
      <trkpt lat="47.46815" lon="6.78642">
        <ele>366</ele>
        <time>2016-01-31T08:57:37.000Z</time>
      </trkpt>
      <trkpt lat="47.46814" lon="6.78644">
        <ele>366</ele>
        <time>2016-01-31T08:57:38.000Z</time>
      </trkpt>
      <trkpt lat="47.46811" lon="6.78648">
        <ele>366</ele>
        <time>2016-01-31T08:57:41.000Z</time>
      </trkpt>
      <trkpt lat="47.46811" lon="6.78649">
        <ele>366</ele>
        <time>2016-01-31T08:57:42.000Z</time>
      </trkpt>
      <trkpt lat="47.46809" lon="6.78654">
        <ele>366</ele>
        <time>2016-01-31T08:57:47.000Z</time>
      </trkpt>
      <trkpt lat="47.46808" lon="6.78655">
        <ele>366</ele>
        <time>2016-01-31T08:57:48.000Z</time>
      </trkpt>
      <trkpt lat="47.46806" lon="6.7866">
        <ele>366</ele>
        <time>2016-01-31T08:57:51.000Z</time>
      </trkpt>
      <trkpt lat="47.46805" lon="6.78661">
        <ele>366</ele>
        <time>2016-01-31T08:57:52.000Z</time>
      </trkpt>
      <trkpt lat="47.46802" lon="6.78664">
        <ele>366</ele>
        <time>2016-01-31T08:57:54.000Z</time>
      </trkpt>
      <trkpt lat="47.468" lon="6.78664">
        <ele>367</ele>
        <time>2016-01-31T08:57:55.000Z</time>
      </trkpt>
      <trkpt lat="47.46798" lon="6.78665">
        <ele>367</ele>
        <time>2016-01-31T08:57:56.000Z</time>
      </trkpt>
      <trkpt lat="47.46796" lon="6.78665">
        <ele>367</ele>
        <time>2016-01-31T08:57:57.000Z</time>
      </trkpt>
      <trkpt lat="47.46793" lon="6.78665">
        <ele>367</ele>
        <time>2016-01-31T08:57:58.000Z</time>
      </trkpt>
      <trkpt lat="47.46791" lon="6.78664">
        <ele>367</ele>
        <time>2016-01-31T08:57:59.000Z</time>
      </trkpt>
      <trkpt lat="47.46787" lon="6.78662">
        <ele>368</ele>
        <time>2016-01-31T08:58:01.000Z</time>
      </trkpt>
      <trkpt lat="47.46785" lon="6.78661">
        <ele>368</ele>
        <time>2016-01-31T08:58:02.000Z</time>
      </trkpt>
      <trkpt lat="47.46781" lon="6.7866">
        <ele>368</ele>
        <time>2016-01-31T08:58:04.000Z</time>
      </trkpt>
      <trkpt lat="47.4678" lon="6.78661">
        <ele>368</ele>
        <time>2016-01-31T08:58:05.000Z</time>
      </trkpt>
      <trkpt lat="47.46778" lon="6.78666">
        <ele>369</ele>
        <time>2016-01-31T08:58:08.000Z</time>
      </trkpt>
      <trkpt lat="47.46777" lon="6.78668">
        <ele>368</ele>
        <time>2016-01-31T08:58:09.000Z</time>
      </trkpt>
      <trkpt lat="47.46776" lon="6.78673">
        <ele>368</ele>
        <time>2016-01-31T08:58:12.000Z</time>
      </trkpt>
      <trkpt lat="47.46775" lon="6.78675">
        <ele>368</ele>
        <time>2016-01-31T08:58:13.000Z</time>
      </trkpt>
      <trkpt lat="47.46774" lon="6.78679">
        <ele>368</ele>
        <time>2016-01-31T08:58:16.000Z</time>
      </trkpt>
      <trkpt lat="47.46774" lon="6.78681">
        <ele>368</ele>
        <time>2016-01-31T08:58:17.000Z</time>
      </trkpt>
      <trkpt lat="47.46773" lon="6.78687">
        <ele>368</ele>
        <time>2016-01-31T08:58:20.000Z</time>
      </trkpt>
      <trkpt lat="47.46773" lon="6.78689">
        <ele>367</ele>
        <time>2016-01-31T08:58:21.000Z</time>
      </trkpt>
      <trkpt lat="47.4677" lon="6.78691">
        <ele>368</ele>
        <time>2016-01-31T08:58:31.000Z</time>
      </trkpt>
      <trkpt lat="47.46769" lon="6.78691">
        <ele>368</ele>
        <time>2016-01-31T08:58:32.000Z</time>
      </trkpt>
      <trkpt lat="47.46765" lon="6.78689">
        <ele>368</ele>
        <time>2016-01-31T08:58:34.000Z</time>
      </trkpt>
      <trkpt lat="47.46763" lon="6.78689">
        <ele>368</ele>
        <time>2016-01-31T08:58:35.000Z</time>
      </trkpt>
      <trkpt lat="47.46761" lon="6.78688">
        <ele>368</ele>
        <time>2016-01-31T08:58:36.000Z</time>
      </trkpt>
      <trkpt lat="47.46758" lon="6.78686">
        <ele>369</ele>
        <time>2016-01-31T08:58:37.000Z</time>
      </trkpt>
      <trkpt lat="47.46755" lon="6.78685">
        <ele>369</ele>
        <time>2016-01-31T08:58:38.000Z</time>
      </trkpt>
      <trkpt lat="47.46753" lon="6.78686">
        <ele>369</ele>
        <time>2016-01-31T08:58:39.000Z</time>
      </trkpt>
      <trkpt lat="47.4675" lon="6.78686">
        <ele>369</ele>
        <time>2016-01-31T08:58:40.000Z</time>
      </trkpt>
      <trkpt lat="47.46748" lon="6.78688">
        <ele>373</ele>
        <time>2016-01-31T08:58:41.000Z</time>
      </trkpt>
      <trkpt lat="47.46745" lon="6.78693">
        <ele>373</ele>
        <time>2016-01-31T08:58:43.000Z</time>
      </trkpt>
      <trkpt lat="47.46743" lon="6.78694">
        <ele>373</ele>
        <time>2016-01-31T08:58:44.000Z</time>
      </trkpt>
      <trkpt lat="47.4674" lon="6.78697">
        <ele>373</ele>
        <time>2016-01-31T08:58:47.000Z</time>
      </trkpt>
      <trkpt lat="47.46739" lon="6.78697">
        <ele>373</ele>
        <time>2016-01-31T08:58:48.000Z</time>
      </trkpt>
      <trkpt lat="47.46735" lon="6.787">
        <ele>373</ele>
        <time>2016-01-31T08:58:51.000Z</time>
      </trkpt>
      <trkpt lat="47.46735" lon="6.78702">
        <ele>373</ele>
        <time>2016-01-31T08:58:52.000Z</time>
      </trkpt>
      <trkpt lat="47.46732" lon="6.78706">
        <ele>373</ele>
        <time>2016-01-31T08:59:37.000Z</time>
      </trkpt>
      <trkpt lat="47.46732" lon="6.78707">
        <ele>373</ele>
        <time>2016-01-31T08:59:38.000Z</time>
      </trkpt>
      <trkpt lat="47.46727" lon="6.78706">
        <ele>373</ele>
        <time>2016-01-31T08:59:43.000Z</time>
      </trkpt>
      <trkpt lat="47.46726" lon="6.78707">
        <ele>373</ele>
        <time>2016-01-31T08:59:44.000Z</time>
      </trkpt>
      <trkpt lat="47.46722" lon="6.78707">
        <ele>373</ele>
        <time>2016-01-31T08:59:47.000Z</time>
      </trkpt>
      <trkpt lat="47.46721" lon="6.78707">
        <ele>373</ele>
        <time>2016-01-31T08:59:48.000Z</time>
      </trkpt>
      <trkpt lat="47.46718" lon="6.78704">
        <ele>374</ele>
        <time>2016-01-31T08:59:50.000Z</time>
      </trkpt>
      <trkpt lat="47.46716" lon="6.78704">
        <ele>374</ele>
        <time>2016-01-31T08:59:51.000Z</time>
      </trkpt>
      <trkpt lat="47.46713" lon="6.78704">
        <ele>374</ele>
        <time>2016-01-31T08:59:53.000Z</time>
      </trkpt>
      <trkpt lat="47.46711" lon="6.78705">
        <ele>374</ele>
        <time>2016-01-31T08:59:54.000Z</time>
      </trkpt>
      <trkpt lat="47.46708" lon="6.78705">
        <ele>374</ele>
        <time>2016-01-31T08:59:56.000Z</time>
      </trkpt>
      <trkpt lat="47.46706" lon="6.78705">
        <ele>374</ele>
        <time>2016-01-31T08:59:57.000Z</time>
      </trkpt>
      <trkpt lat="47.46703" lon="6.78706">
        <ele>374</ele>
        <time>2016-01-31T08:59:59.000Z</time>
      </trkpt>
      <trkpt lat="47.46702" lon="6.78706">
        <ele>374</ele>
        <time>2016-01-31T09:00:00.000Z</time>
      </trkpt>
      <trkpt lat="47.46698" lon="6.78706">
        <ele>375</ele>
        <time>2016-01-31T09:00:03.000Z</time>
      </trkpt>
      <trkpt lat="47.46696" lon="6.78706">
        <ele>375</ele>
        <time>2016-01-31T09:00:04.000Z</time>
      </trkpt>
      <trkpt lat="47.46693" lon="6.78707">
        <ele>375</ele>
        <time>2016-01-31T09:00:06.000Z</time>
      </trkpt>
      <trkpt lat="47.46691" lon="6.78707">
        <ele>375</ele>
        <time>2016-01-31T09:00:07.000Z</time>
      </trkpt>
      <trkpt lat="47.46688" lon="6.78708">
        <ele>375</ele>
        <time>2016-01-31T09:00:09.000Z</time>
      </trkpt>
      <trkpt lat="47.46686" lon="6.78708">
        <ele>375</ele>
        <time>2016-01-31T09:00:10.000Z</time>
      </trkpt>
      <trkpt lat="47.46683" lon="6.78708">
        <ele>375</ele>
        <time>2016-01-31T09:00:12.000Z</time>
      </trkpt>
      <trkpt lat="47.46682" lon="6.78708">
        <ele>375</ele>
        <time>2016-01-31T09:00:13.000Z</time>
      </trkpt>
      <trkpt lat="47.46677" lon="6.78707">
        <ele>376</ele>
        <time>2016-01-31T09:00:17.000Z</time>
      </trkpt>
      <trkpt lat="47.46677" lon="6.78707">
        <ele>376</ele>
        <time>2016-01-31T09:00:18.000Z</time>
      </trkpt>
      <trkpt lat="47.46673" lon="6.78706">
        <ele>376</ele>
        <time>2016-01-31T09:00:21.000Z</time>
      </trkpt>
      <trkpt lat="47.46672" lon="6.78706">
        <ele>376</ele>
        <time>2016-01-31T09:00:22.000Z</time>
      </trkpt>
      <trkpt lat="47.46668" lon="6.78706">
        <ele>376</ele>
        <time>2016-01-31T09:00:26.000Z</time>
      </trkpt>
      <trkpt lat="47.46667" lon="6.78706">
        <ele>376</ele>
        <time>2016-01-31T09:00:27.000Z</time>
      </trkpt>
      <trkpt lat="47.46663" lon="6.78705">
        <ele>381</ele>
        <time>2016-01-31T09:00:33.000Z</time>
      </trkpt>
      <trkpt lat="47.46662" lon="6.78706">
        <ele>381</ele>
        <time>2016-01-31T09:00:34.000Z</time>
      </trkpt>
      <trkpt lat="47.46658" lon="6.78706">
        <ele>381</ele>
        <time>2016-01-31T09:00:39.000Z</time>
      </trkpt>
      <trkpt lat="47.46658" lon="6.78705">
        <ele>381</ele>
        <time>2016-01-31T09:00:40.000Z</time>
      </trkpt>
      <trkpt lat="47.46654" lon="6.78705">
        <ele>381</ele>
        <time>2016-01-31T09:00:44.000Z</time>
      </trkpt>
      <trkpt lat="47.46653" lon="6.78706">
        <ele>381</ele>
        <time>2016-01-31T09:00:45.000Z</time>
      </trkpt>
      <trkpt lat="47.46649" lon="6.78706">
        <ele>381</ele>
        <time>2016-01-31T09:00:49.000Z</time>
      </trkpt>
      <trkpt lat="47.46647" lon="6.78706">
        <ele>381</ele>
        <time>2016-01-31T09:00:50.000Z</time>
      </trkpt>
      <trkpt lat="47.46644" lon="6.78706">
        <ele>381</ele>
        <time>2016-01-31T09:00:52.000Z</time>
      </trkpt>
      <trkpt lat="47.46643" lon="6.78707">
        <ele>381</ele>
        <time>2016-01-31T09:00:53.000Z</time>
      </trkpt>
      <trkpt lat="47.46639" lon="6.78707">
        <ele>381</ele>
        <time>2016-01-31T09:00:56.000Z</time>
      </trkpt>
      <trkpt lat="47.46638" lon="6.78707">
        <ele>381</ele>
        <time>2016-01-31T09:00:57.000Z</time>
      </trkpt>
      <trkpt lat="47.46634" lon="6.78708">
        <ele>381</ele>
        <time>2016-01-31T09:01:00.000Z</time>
      </trkpt>
      <trkpt lat="47.46632" lon="6.78708">
        <ele>381</ele>
        <time>2016-01-31T09:01:01.000Z</time>
      </trkpt>
      <trkpt lat="47.46629" lon="6.78706">
        <ele>381</ele>
        <time>2016-01-31T09:01:05.000Z</time>
      </trkpt>
      <trkpt lat="47.46628" lon="6.78706">
        <ele>381</ele>
        <time>2016-01-31T09:01:06.000Z</time>
      </trkpt>
      <trkpt lat="47.46624" lon="6.78707">
        <ele>382</ele>
        <time>2016-01-31T09:01:11.000Z</time>
      </trkpt>
      <trkpt lat="47.46623" lon="6.78707">
        <ele>382</ele>
        <time>2016-01-31T09:01:12.000Z</time>
      </trkpt>
      <trkpt lat="47.46619" lon="6.78707">
        <ele>382</ele>
        <time>2016-01-31T09:01:15.000Z</time>
      </trkpt>
      <trkpt lat="47.46618" lon="6.78706">
        <ele>382</ele>
        <time>2016-01-31T09:01:16.000Z</time>
      </trkpt>
      <trkpt lat="47.46614" lon="6.78706">
        <ele>382</ele>
        <time>2016-01-31T09:01:21.000Z</time>
      </trkpt>
      <trkpt lat="47.46613" lon="6.78706">
        <ele>382</ele>
        <time>2016-01-31T09:01:22.000Z</time>
      </trkpt>
      <trkpt lat="47.46609" lon="6.78706">
        <ele>382</ele>
        <time>2016-01-31T09:01:25.000Z</time>
      </trkpt>
      <trkpt lat="47.46608" lon="6.78706">
        <ele>382</ele>
        <time>2016-01-31T09:01:26.000Z</time>
      </trkpt>
      <trkpt lat="47.46605" lon="6.78707">
        <ele>382</ele>
        <time>2016-01-31T09:01:29.000Z</time>
      </trkpt>
      <trkpt lat="47.46603" lon="6.78708">
        <ele>382</ele>
        <time>2016-01-31T09:01:30.000Z</time>
      </trkpt>
      <trkpt lat="47.46599" lon="6.78708">
        <ele>382</ele>
        <time>2016-01-31T09:01:33.000Z</time>
      </trkpt>
      <trkpt lat="47.46598" lon="6.78709">
        <ele>382</ele>
        <time>2016-01-31T09:01:34.000Z</time>
      </trkpt>
      <trkpt lat="47.46595" lon="6.78709">
        <ele>382</ele>
        <time>2016-01-31T09:01:38.000Z</time>
      </trkpt>
      <trkpt lat="47.46594" lon="6.78709">
        <ele>382</ele>
        <time>2016-01-31T09:01:39.000Z</time>
      </trkpt>
      <trkpt lat="47.46589" lon="6.78709">
        <ele>383</ele>
        <time>2016-01-31T09:01:43.000Z</time>
      </trkpt>
      <trkpt lat="47.46588" lon="6.78709">
        <ele>383</ele>
        <time>2016-01-31T09:01:44.000Z</time>
      </trkpt>
      <trkpt lat="47.46585" lon="6.78708">
        <ele>383</ele>
        <time>2016-01-31T09:01:47.000Z</time>
      </trkpt>
      <trkpt lat="47.46583" lon="6.78708">
        <ele>383</ele>
        <time>2016-01-31T09:01:48.000Z</time>
      </trkpt>
      <trkpt lat="47.4658" lon="6.78708">
        <ele>390</ele>
        <time>2016-01-31T09:01:50.000Z</time>
      </trkpt>
      <trkpt lat="47.46579" lon="6.78708">
        <ele>390</ele>
        <time>2016-01-31T09:01:51.000Z</time>
      </trkpt>
      <trkpt lat="47.46575" lon="6.78709">
        <ele>390</ele>
        <time>2016-01-31T09:01:54.000Z</time>
      </trkpt>
      <trkpt lat="47.46573" lon="6.78709">
        <ele>390</ele>
        <time>2016-01-31T09:01:55.000Z</time>
      </trkpt>
      <trkpt lat="47.46569" lon="6.78709">
        <ele>391</ele>
        <time>2016-01-31T09:01:58.000Z</time>
      </trkpt>
      <trkpt lat="47.46568" lon="6.78709">
        <ele>391</ele>
        <time>2016-01-31T09:01:59.000Z</time>
      </trkpt>
      <trkpt lat="47.46564" lon="6.78708">
        <ele>391</ele>
        <time>2016-01-31T09:02:02.000Z</time>
      </trkpt>
      <trkpt lat="47.46563" lon="6.78706">
        <ele>391</ele>
        <time>2016-01-31T09:02:03.000Z</time>
      </trkpt>
      <trkpt lat="47.46561" lon="6.78701">
        <ele>391</ele>
        <time>2016-01-31T09:02:05.000Z</time>
      </trkpt>
      <trkpt lat="47.4656" lon="6.78698">
        <ele>392</ele>
        <time>2016-01-31T09:02:06.000Z</time>
      </trkpt>
      <trkpt lat="47.46559" lon="6.78692">
        <ele>392</ele>
        <time>2016-01-31T09:02:08.000Z</time>
      </trkpt>
      <trkpt lat="47.46559" lon="6.78689">
        <ele>392</ele>
        <time>2016-01-31T09:02:09.000Z</time>
      </trkpt>
      <trkpt lat="47.46559" lon="6.78685">
        <ele>391</ele>
        <time>2016-01-31T09:02:10.000Z</time>
      </trkpt>
      <trkpt lat="47.46559" lon="6.78681">
        <ele>391</ele>
        <time>2016-01-31T09:02:11.000Z</time>
      </trkpt>
      <trkpt lat="47.46559" lon="6.78676">
        <ele>391</ele>
        <time>2016-01-31T09:02:12.000Z</time>
      </trkpt>
      <trkpt lat="47.46559" lon="6.78672">
        <ele>391</ele>
        <time>2016-01-31T09:02:13.000Z</time>
      </trkpt>
      <trkpt lat="47.46559" lon="6.78666">
        <ele>392</ele>
        <time>2016-01-31T09:02:14.000Z</time>
      </trkpt>
      <trkpt lat="47.46558" lon="6.78661">
        <ele>393</ele>
        <time>2016-01-31T09:02:15.000Z</time>
      </trkpt>
      <trkpt lat="47.46558" lon="6.78656">
        <ele>393</ele>
        <time>2016-01-31T09:02:16.000Z</time>
      </trkpt>
      <trkpt lat="47.46557" lon="6.78651">
        <ele>393</ele>
        <time>2016-01-31T09:02:17.000Z</time>
      </trkpt>
      <trkpt lat="47.46557" lon="6.78645">
        <ele>393</ele>
        <time>2016-01-31T09:02:18.000Z</time>
      </trkpt>
      <trkpt lat="47.46557" lon="6.7864">
        <ele>394</ele>
        <time>2016-01-31T09:02:19.000Z</time>
      </trkpt>
      <trkpt lat="47.46557" lon="6.78635">
        <ele>394</ele>
        <time>2016-01-31T09:02:20.000Z</time>
      </trkpt>
      <trkpt lat="47.46556" lon="6.78631">
        <ele>394</ele>
        <time>2016-01-31T09:02:21.000Z</time>
      </trkpt>
      <trkpt lat="47.46556" lon="6.78626">
        <ele>394</ele>
        <time>2016-01-31T09:02:22.000Z</time>
      </trkpt>
      <trkpt lat="47.46555" lon="6.78622">
        <ele>394</ele>
        <time>2016-01-31T09:02:23.000Z</time>
      </trkpt>
      <trkpt lat="47.46554" lon="6.78616">
        <ele>394</ele>
        <time>2016-01-31T09:02:24.000Z</time>
      </trkpt>
      <trkpt lat="47.46554" lon="6.78611">
        <ele>394</ele>
        <time>2016-01-31T09:02:25.001Z</time>
      </trkpt>
      <trkpt lat="47.46553" lon="6.78606">
        <ele>394</ele>
        <time>2016-01-31T09:02:26.000Z</time>
      </trkpt>
      <trkpt lat="47.46552" lon="6.78601">
        <ele>394</ele>
        <time>2016-01-31T09:02:27.000Z</time>
      </trkpt>
      <trkpt lat="47.46552" lon="6.78596">
        <ele>394</ele>
        <time>2016-01-31T09:02:28.000Z</time>
      </trkpt>
      <trkpt lat="47.46551" lon="6.78591">
        <ele>394</ele>
        <time>2016-01-31T09:02:29.000Z</time>
      </trkpt>
      <trkpt lat="47.46551" lon="6.78587">
        <ele>394</ele>
        <time>2016-01-31T09:02:30.000Z</time>
      </trkpt>
      <trkpt lat="47.4655" lon="6.78582">
        <ele>394</ele>
        <time>2016-01-31T09:02:31.000Z</time>
      </trkpt>
      <trkpt lat="47.46549" lon="6.78578">
        <ele>394</ele>
        <time>2016-01-31T09:02:32.000Z</time>
      </trkpt>
      <trkpt lat="47.46548" lon="6.78574">
        <ele>394</ele>
        <time>2016-01-31T09:02:33.000Z</time>
      </trkpt>
      <trkpt lat="47.46547" lon="6.7857">
        <ele>394</ele>
        <time>2016-01-31T09:02:34.000Z</time>
      </trkpt>
      <trkpt lat="47.46546" lon="6.78565">
        <ele>394</ele>
        <time>2016-01-31T09:02:35.000Z</time>
      </trkpt>
      <trkpt lat="47.46545" lon="6.78561">
        <ele>394</ele>
        <time>2016-01-31T09:02:36.000Z</time>
      </trkpt>
      <trkpt lat="47.46546" lon="6.78557">
        <ele>394</ele>
        <time>2016-01-31T09:02:37.000Z</time>
      </trkpt>
      <trkpt lat="47.46547" lon="6.78552">
        <ele>394</ele>
        <time>2016-01-31T09:02:38.000Z</time>
      </trkpt>
      <trkpt lat="47.46547" lon="6.78548">
        <ele>394</ele>
        <time>2016-01-31T09:02:39.000Z</time>
      </trkpt>
      <trkpt lat="47.46548" lon="6.78542">
        <ele>394</ele>
        <time>2016-01-31T09:02:40.000Z</time>
      </trkpt>
      <trkpt lat="47.46549" lon="6.78536">
        <ele>393</ele>
        <time>2016-01-31T09:02:41.000Z</time>
      </trkpt>
      <trkpt lat="47.46549" lon="6.78531">
        <ele>393</ele>
        <time>2016-01-31T09:02:42.000Z</time>
      </trkpt>
      <trkpt lat="47.4655" lon="6.78526">
        <ele>393</ele>
        <time>2016-01-31T09:02:43.000Z</time>
      </trkpt>
      <trkpt lat="47.46551" lon="6.78521">
        <ele>393</ele>
        <time>2016-01-31T09:02:44.000Z</time>
      </trkpt>
      <trkpt lat="47.46552" lon="6.78516">
        <ele>393</ele>
        <time>2016-01-31T09:02:45.000Z</time>
      </trkpt>
      <trkpt lat="47.46552" lon="6.7851">
        <ele>392</ele>
        <time>2016-01-31T09:02:46.000Z</time>
      </trkpt>
      <trkpt lat="47.46553" lon="6.78505">
        <ele>392</ele>
        <time>2016-01-31T09:02:46.999Z</time>
      </trkpt>
      <trkpt lat="47.46554" lon="6.78498">
        <ele>391</ele>
        <time>2016-01-31T09:02:48.000Z</time>
      </trkpt>
      <trkpt lat="47.46555" lon="6.78491">
        <ele>391</ele>
        <time>2016-01-31T09:02:49.000Z</time>
      </trkpt>
      <trkpt lat="47.46556" lon="6.78484">
        <ele>391</ele>
        <time>2016-01-31T09:02:50.000Z</time>
      </trkpt>
      <trkpt lat="47.46558" lon="6.78473">
        <ele>391</ele>
        <time>2016-01-31T09:02:51.000Z</time>
      </trkpt>
      <trkpt lat="47.46558" lon="6.78466">
        <ele>391</ele>
        <time>2016-01-31T09:02:52.000Z</time>
      </trkpt>
      <trkpt lat="47.46558" lon="6.78459">
        <ele>391</ele>
        <time>2016-01-31T09:02:53.000Z</time>
      </trkpt>
      <trkpt lat="47.46559" lon="6.78453">
        <ele>390</ele>
        <time>2016-01-31T09:02:54.001Z</time>
      </trkpt>
      <trkpt lat="47.46559" lon="6.78443">
        <ele>390</ele>
        <time>2016-01-31T09:02:55.000Z</time>
      </trkpt>
      <trkpt lat="47.46559" lon="6.78435">
        <ele>390</ele>
        <time>2016-01-31T09:02:56.000Z</time>
      </trkpt>
      <trkpt lat="47.46558" lon="6.78428">
        <ele>390</ele>
        <time>2016-01-31T09:02:57.000Z</time>
      </trkpt>
      <trkpt lat="47.46558" lon="6.7842">
        <ele>390</ele>
        <time>2016-01-31T09:02:57.998Z</time>
      </trkpt>
      <trkpt lat="47.46553" lon="6.78412">
        <ele>388</ele>
        <time>2016-01-31T09:02:59.000Z</time>
      </trkpt>
      <trkpt lat="47.46549" lon="6.78405">
        <ele>388</ele>
        <time>2016-01-31T09:03:00.000Z</time>
      </trkpt>
      <trkpt lat="47.46546" lon="6.78399">
        <ele>388</ele>
        <time>2016-01-31T09:03:01.000Z</time>
      </trkpt>
      <trkpt lat="47.46542" lon="6.78395">
        <ele>388</ele>
        <time>2016-01-31T09:03:02.000Z</time>
      </trkpt>
      <trkpt lat="47.46539" lon="6.78395">
        <ele>388</ele>
        <time>2016-01-31T09:03:03.000Z</time>
      </trkpt>
      <trkpt lat="47.46535" lon="6.78393">
        <ele>388</ele>
        <time>2016-01-31T09:03:04.000Z</time>
      </trkpt>
      <trkpt lat="47.46533" lon="6.7839">
        <ele>388</ele>
        <time>2016-01-31T09:03:05.000Z</time>
      </trkpt>
      <trkpt lat="47.46531" lon="6.78387">
        <ele>388</ele>
        <time>2016-01-31T09:03:06.000Z</time>
      </trkpt>
      <trkpt lat="47.46528" lon="6.78384">
        <ele>388</ele>
        <time>2016-01-31T09:03:07.000Z</time>
      </trkpt>
      <trkpt lat="47.46526" lon="6.78381">
        <ele>388</ele>
        <time>2016-01-31T09:03:08.000Z</time>
      </trkpt>
      <trkpt lat="47.46524" lon="6.78379">
        <ele>388</ele>
        <time>2016-01-31T09:03:09.000Z</time>
      </trkpt>
      <trkpt lat="47.46521" lon="6.78377">
        <ele>388</ele>
        <time>2016-01-31T09:03:10.000Z</time>
      </trkpt>
      <trkpt lat="47.46519" lon="6.78375">
        <ele>388</ele>
        <time>2016-01-31T09:03:11.000Z</time>
      </trkpt>
      <trkpt lat="47.46516" lon="6.78374">
        <ele>388</ele>
        <time>2016-01-31T09:03:12.000Z</time>
      </trkpt>
      <trkpt lat="47.46514" lon="6.78372">
        <ele>388</ele>
        <time>2016-01-31T09:03:13.000Z</time>
      </trkpt>
      <trkpt lat="47.46512" lon="6.7837">
        <ele>388</ele>
        <time>2016-01-31T09:03:14.000Z</time>
      </trkpt>
      <trkpt lat="47.46509" lon="6.78369">
        <ele>388</ele>
        <time>2016-01-31T09:03:15.000Z</time>
      </trkpt>
      <trkpt lat="47.46507" lon="6.78368">
        <ele>388</ele>
        <time>2016-01-31T09:03:16.000Z</time>
      </trkpt>
      <trkpt lat="47.46505" lon="6.78366">
        <ele>388</ele>
        <time>2016-01-31T09:03:17.000Z</time>
      </trkpt>
      <trkpt lat="47.46502" lon="6.78364">
        <ele>388</ele>
        <time>2016-01-31T09:03:18.000Z</time>
      </trkpt>
      <trkpt lat="47.465" lon="6.78362">
        <ele>391</ele>
        <time>2016-01-31T09:03:19.000Z</time>
      </trkpt>
      <trkpt lat="47.46497" lon="6.7836">
        <ele>391</ele>
        <time>2016-01-31T09:03:20.000Z</time>
      </trkpt>
      <trkpt lat="47.46495" lon="6.78358">
        <ele>391</ele>
        <time>2016-01-31T09:03:21.000Z</time>
      </trkpt>
      <trkpt lat="47.46494" lon="6.78355">
        <ele>391</ele>
        <time>2016-01-31T09:03:22.000Z</time>
      </trkpt>
      <trkpt lat="47.46492" lon="6.78352">
        <ele>390</ele>
        <time>2016-01-31T09:03:23.000Z</time>
      </trkpt>
      <trkpt lat="47.46489" lon="6.78349">
        <ele>390</ele>
        <time>2016-01-31T09:03:24.000Z</time>
      </trkpt>
      <trkpt lat="47.46487" lon="6.78346">
        <ele>390</ele>
        <time>2016-01-31T09:03:25.000Z</time>
      </trkpt>
      <trkpt lat="47.46484" lon="6.78344">
        <ele>390</ele>
        <time>2016-01-31T09:03:26.000Z</time>
      </trkpt>
      <trkpt lat="47.46482" lon="6.78342">
        <ele>390</ele>
        <time>2016-01-31T09:03:27.000Z</time>
      </trkpt>
      <trkpt lat="47.46479" lon="6.7834">
        <ele>390</ele>
        <time>2016-01-31T09:03:28.000Z</time>
      </trkpt>
      <trkpt lat="47.46477" lon="6.78338">
        <ele>390</ele>
        <time>2016-01-31T09:03:29.000Z</time>
      </trkpt>
      <trkpt lat="47.46475" lon="6.78336">
        <ele>390</ele>
        <time>2016-01-31T09:03:30.000Z</time>
      </trkpt>
      <trkpt lat="47.46473" lon="6.78334">
        <ele>390</ele>
        <time>2016-01-31T09:03:31.000Z</time>
      </trkpt>
      <trkpt lat="47.4647" lon="6.78332">
        <ele>385</ele>
        <time>2016-01-31T09:03:32.000Z</time>
      </trkpt>
      <trkpt lat="47.46468" lon="6.7833">
        <ele>385</ele>
        <time>2016-01-31T09:03:33.000Z</time>
      </trkpt>
      <trkpt lat="47.46466" lon="6.78329">
        <ele>385</ele>
        <time>2016-01-31T09:03:34.000Z</time>
      </trkpt>
      <trkpt lat="47.46462" lon="6.78326">
        <ele>385</ele>
        <time>2016-01-31T09:03:36.000Z</time>
      </trkpt>
      <trkpt lat="47.4646" lon="6.78325">
        <ele>385</ele>
        <time>2016-01-31T09:03:37.000Z</time>
      </trkpt>
      <trkpt lat="47.46457" lon="6.78324">
        <ele>385</ele>
        <time>2016-01-31T09:03:39.000Z</time>
      </trkpt>
      <trkpt lat="47.46455" lon="6.78324">
        <ele>385</ele>
        <time>2016-01-31T09:03:40.000Z</time>
      </trkpt>
      <trkpt lat="47.46451" lon="6.78323">
        <ele>385</ele>
        <time>2016-01-31T09:03:44.000Z</time>
      </trkpt>
      <trkpt lat="47.4645" lon="6.78323">
        <ele>385</ele>
        <time>2016-01-31T09:03:45.000Z</time>
      </trkpt>
      <trkpt lat="47.46453" lon="6.78327">
        <ele>385</ele>
        <time>2016-01-31T09:04:15.000Z</time>
      </trkpt>
      <trkpt lat="47.46452" lon="6.78329">
        <ele>385</ele>
        <time>2016-01-31T09:04:16.000Z</time>
      </trkpt>
      <trkpt lat="47.46451" lon="6.78332">
        <ele>385</ele>
        <time>2016-01-31T09:04:17.000Z</time>
      </trkpt>
      <trkpt lat="47.46449" lon="6.78334">
        <ele>391</ele>
        <time>2016-01-31T09:04:18.000Z</time>
      </trkpt>
      <trkpt lat="47.46447" lon="6.78336">
        <ele>391</ele>
        <time>2016-01-31T09:04:19.000Z</time>
      </trkpt>
      <trkpt lat="47.46445" lon="6.78338">
        <ele>391</ele>
        <time>2016-01-31T09:04:20.000Z</time>
      </trkpt>
      <trkpt lat="47.46441" lon="6.7834">
        <ele>391</ele>
        <time>2016-01-31T09:04:22.000Z</time>
      </trkpt>
      <trkpt lat="47.4644" lon="6.78341">
        <ele>391</ele>
        <time>2016-01-31T09:04:23.000Z</time>
      </trkpt>
      <trkpt lat="47.46436" lon="6.78343">
        <ele>391</ele>
        <time>2016-01-31T09:04:26.000Z</time>
      </trkpt>
      <trkpt lat="47.46435" lon="6.78345">
        <ele>391</ele>
        <time>2016-01-31T09:04:27.000Z</time>
      </trkpt>
      <trkpt lat="47.46432" lon="6.78348">
        <ele>391</ele>
        <time>2016-01-31T09:04:31.000Z</time>
      </trkpt>
      <trkpt lat="47.46431" lon="6.78349">
        <ele>391</ele>
        <time>2016-01-31T09:04:32.000Z</time>
      </trkpt>
      <trkpt lat="47.46428" lon="6.78352">
        <ele>391</ele>
        <time>2016-01-31T09:04:34.000Z</time>
      </trkpt>
      <trkpt lat="47.46427" lon="6.78354">
        <ele>391</ele>
        <time>2016-01-31T09:04:35.000Z</time>
      </trkpt>
      <trkpt lat="47.46423" lon="6.78358">
        <ele>392</ele>
        <time>2016-01-31T09:04:38.000Z</time>
      </trkpt>
      <trkpt lat="47.46423" lon="6.78359">
        <ele>392</ele>
        <time>2016-01-31T09:04:39.000Z</time>
      </trkpt>
      <trkpt lat="47.46419" lon="6.78362">
        <ele>392</ele>
        <time>2016-01-31T09:04:42.000Z</time>
      </trkpt>
      <trkpt lat="47.46418" lon="6.78364">
        <ele>392</ele>
        <time>2016-01-31T09:04:43.000Z</time>
      </trkpt>
      <trkpt lat="47.46415" lon="6.78367">
        <ele>394</ele>
        <time>2016-01-31T09:04:46.000Z</time>
      </trkpt>
      <trkpt lat="47.46414" lon="6.78369">
        <ele>394</ele>
        <time>2016-01-31T09:04:47.000Z</time>
      </trkpt>
      <trkpt lat="47.46411" lon="6.78373">
        <ele>395</ele>
        <time>2016-01-31T09:04:50.000Z</time>
      </trkpt>
      <trkpt lat="47.4641" lon="6.78374">
        <ele>395</ele>
        <time>2016-01-31T09:04:51.000Z</time>
      </trkpt>
      <trkpt lat="47.46407" lon="6.78378">
        <ele>395</ele>
        <time>2016-01-31T09:04:54.000Z</time>
      </trkpt>
      <trkpt lat="47.46406" lon="6.78379">
        <ele>396</ele>
        <time>2016-01-31T09:04:55.000Z</time>
      </trkpt>
      <trkpt lat="47.46404" lon="6.78383">
        <ele>396</ele>
        <time>2016-01-31T09:04:59.000Z</time>
      </trkpt>
      <trkpt lat="47.46403" lon="6.78384">
        <ele>396</ele>
        <time>2016-01-31T09:05:00.000Z</time>
      </trkpt>
      <trkpt lat="47.46399" lon="6.78388">
        <ele>396</ele>
        <time>2016-01-31T09:05:03.000Z</time>
      </trkpt>
      <trkpt lat="47.46398" lon="6.7839">
        <ele>397</ele>
        <time>2016-01-31T09:05:04.000Z</time>
      </trkpt>
      <trkpt lat="47.46396" lon="6.78393">
        <ele>397</ele>
        <time>2016-01-31T09:05:06.000Z</time>
      </trkpt>
      <trkpt lat="47.46395" lon="6.78395">
        <ele>397</ele>
        <time>2016-01-31T09:05:07.000Z</time>
      </trkpt>
      <trkpt lat="47.46394" lon="6.78401">
        <ele>397</ele>
        <time>2016-01-31T09:05:10.000Z</time>
      </trkpt>
      <trkpt lat="47.46394" lon="6.78403">
        <ele>397</ele>
        <time>2016-01-31T09:05:11.000Z</time>
      </trkpt>
      <trkpt lat="47.46395" lon="6.78408">
        <ele>398</ele>
        <time>2016-01-31T09:05:15.000Z</time>
      </trkpt>
      <trkpt lat="47.46395" lon="6.78409">
        <ele>398</ele>
        <time>2016-01-31T09:05:16.000Z</time>
      </trkpt>
      <trkpt lat="47.46393" lon="6.78415">
        <ele>398</ele>
        <time>2016-01-31T09:05:20.000Z</time>
      </trkpt>
      <trkpt lat="47.46393" lon="6.78417">
        <ele>398</ele>
        <time>2016-01-31T09:05:21.000Z</time>
      </trkpt>
      <trkpt lat="47.46392" lon="6.78423">
        <ele>402</ele>
        <time>2016-01-31T09:05:27.000Z</time>
      </trkpt>
      <trkpt lat="47.46391" lon="6.78423">
        <ele>402</ele>
        <time>2016-01-31T09:05:28.000Z</time>
      </trkpt>
      <trkpt lat="47.46388" lon="6.78422">
        <ele>402</ele>
        <time>2016-01-31T09:05:30.000Z</time>
      </trkpt>
      <trkpt lat="47.46386" lon="6.78421">
        <ele>402</ele>
        <time>2016-01-31T09:05:31.000Z</time>
      </trkpt>
      <trkpt lat="47.46383" lon="6.7842">
        <ele>402</ele>
        <time>2016-01-31T09:05:33.000Z</time>
      </trkpt>
      <trkpt lat="47.46381" lon="6.7842">
        <ele>402</ele>
        <time>2016-01-31T09:05:34.000Z</time>
      </trkpt>
      <trkpt lat="47.46377" lon="6.78422">
        <ele>402</ele>
        <time>2016-01-31T09:05:37.000Z</time>
      </trkpt>
      <trkpt lat="47.46376" lon="6.78423">
        <ele>402</ele>
        <time>2016-01-31T09:05:38.000Z</time>
      </trkpt>
      <trkpt lat="47.46373" lon="6.78425">
        <ele>402</ele>
        <time>2016-01-31T09:05:40.000Z</time>
      </trkpt>
      <trkpt lat="47.46372" lon="6.78426">
        <ele>402</ele>
        <time>2016-01-31T09:05:41.000Z</time>
      </trkpt>
      <trkpt lat="47.46369" lon="6.78429">
        <ele>402</ele>
        <time>2016-01-31T09:05:43.000Z</time>
      </trkpt>
      <trkpt lat="47.46367" lon="6.7843">
        <ele>402</ele>
        <time>2016-01-31T09:05:44.000Z</time>
      </trkpt>
      <trkpt lat="47.46363" lon="6.78433">
        <ele>402</ele>
        <time>2016-01-31T09:05:46.000Z</time>
      </trkpt>
      <trkpt lat="47.46361" lon="6.78434">
        <ele>402</ele>
        <time>2016-01-31T09:05:47.000Z</time>
      </trkpt>
      <trkpt lat="47.46358" lon="6.78437">
        <ele>402</ele>
        <time>2016-01-31T09:05:49.000Z</time>
      </trkpt>
      <trkpt lat="47.46357" lon="6.78438">
        <ele>402</ele>
        <time>2016-01-31T09:05:50.000Z</time>
      </trkpt>
      <trkpt lat="47.46353" lon="6.7844">
        <ele>402</ele>
        <time>2016-01-31T09:05:52.000Z</time>
      </trkpt>
      <trkpt lat="47.46352" lon="6.7844">
        <ele>402</ele>
        <time>2016-01-31T09:05:52.998Z</time>
      </trkpt>
      <trkpt lat="47.4635" lon="6.78442">
        <ele>402</ele>
        <time>2016-01-31T09:05:54.000Z</time>
      </trkpt>
      <trkpt lat="47.46348" lon="6.78443">
        <ele>402</ele>
        <time>2016-01-31T09:05:55.000Z</time>
      </trkpt>
      <trkpt lat="47.46346" lon="6.78445">
        <ele>402</ele>
        <time>2016-01-31T09:05:56.000Z</time>
      </trkpt>
      <trkpt lat="47.46344" lon="6.78447">
        <ele>402</ele>
        <time>2016-01-31T09:05:57.000Z</time>
      </trkpt>
      <trkpt lat="47.46341" lon="6.78448">
        <ele>402</ele>
        <time>2016-01-31T09:05:58.000Z</time>
      </trkpt>
      <trkpt lat="47.46339" lon="6.7845">
        <ele>402</ele>
        <time>2016-01-31T09:05:59.000Z</time>
      </trkpt>
      <trkpt lat="47.46335" lon="6.78451">
        <ele>402</ele>
        <time>2016-01-31T09:06:01.000Z</time>
      </trkpt>
      <trkpt lat="47.46333" lon="6.78452">
        <ele>402</ele>
        <time>2016-01-31T09:06:02.000Z</time>
      </trkpt>
      <trkpt lat="47.46329" lon="6.78454">
        <ele>402</ele>
        <time>2016-01-31T09:06:04.000Z</time>
      </trkpt>
      <trkpt lat="47.46327" lon="6.78455">
        <ele>402</ele>
        <time>2016-01-31T09:06:05.000Z</time>
      </trkpt>
      <trkpt lat="47.46325" lon="6.78456">
        <ele>402</ele>
        <time>2016-01-31T09:06:06.000Z</time>
      </trkpt>
      <trkpt lat="47.46323" lon="6.78457">
        <ele>402</ele>
        <time>2016-01-31T09:06:07.000Z</time>
      </trkpt>
      <trkpt lat="47.46318" lon="6.7846">
        <ele>402</ele>
        <time>2016-01-31T09:06:09.000Z</time>
      </trkpt>
      <trkpt lat="47.46316" lon="6.78461">
        <ele>402</ele>
        <time>2016-01-31T09:06:10.000Z</time>
      </trkpt>
      <trkpt lat="47.46314" lon="6.78463">
        <ele>402</ele>
        <time>2016-01-31T09:06:11.000Z</time>
      </trkpt>
      <trkpt lat="47.46311" lon="6.78463">
        <ele>402</ele>
        <time>2016-01-31T09:06:12.000Z</time>
      </trkpt>
      <trkpt lat="47.46308" lon="6.78464">
        <ele>402</ele>
        <time>2016-01-31T09:06:13.000Z</time>
      </trkpt>
      <trkpt lat="47.46305" lon="6.78465">
        <ele>402</ele>
        <time>2016-01-31T09:06:14.000Z</time>
      </trkpt>
      <trkpt lat="47.46303" lon="6.78466">
        <ele>402</ele>
        <time>2016-01-31T09:06:15.000Z</time>
      </trkpt>
      <trkpt lat="47.463" lon="6.78467">
        <ele>402</ele>
        <time>2016-01-31T09:06:16.000Z</time>
      </trkpt>
      <trkpt lat="47.46296" lon="6.78468">
        <ele>403</ele>
        <time>2016-01-31T09:06:17.000Z</time>
      </trkpt>
      <trkpt lat="47.46294" lon="6.78469">
        <ele>403</ele>
        <time>2016-01-31T09:06:18.000Z</time>
      </trkpt>
      <trkpt lat="47.46291" lon="6.7847">
        <ele>403</ele>
        <time>2016-01-31T09:06:19.000Z</time>
      </trkpt>
      <trkpt lat="47.46289" lon="6.78471">
        <ele>403</ele>
        <time>2016-01-31T09:06:20.000Z</time>
      </trkpt>
      <trkpt lat="47.46286" lon="6.78472">
        <ele>403</ele>
        <time>2016-01-31T09:06:21.000Z</time>
      </trkpt>
      <trkpt lat="47.46283" lon="6.78472">
        <ele>403</ele>
        <time>2016-01-31T09:06:22.000Z</time>
      </trkpt>
      <trkpt lat="47.46281" lon="6.78473">
        <ele>403</ele>
        <time>2016-01-31T09:06:23.000Z</time>
      </trkpt>
      <trkpt lat="47.46278" lon="6.78474">
        <ele>403</ele>
        <time>2016-01-31T09:06:24.000Z</time>
      </trkpt>
      <trkpt lat="47.46274" lon="6.78475">
        <ele>403</ele>
        <time>2016-01-31T09:06:26.000Z</time>
      </trkpt>
      <trkpt lat="47.46272" lon="6.78476">
        <ele>403</ele>
        <time>2016-01-31T09:06:27.000Z</time>
      </trkpt>
      <trkpt lat="47.46269" lon="6.78477">
        <ele>403</ele>
        <time>2016-01-31T09:06:28.998Z</time>
      </trkpt>
      <trkpt lat="47.46266" lon="6.78478">
        <ele>403</ele>
        <time>2016-01-31T09:06:30.000Z</time>
      </trkpt>
      <trkpt lat="47.46264" lon="6.7848">
        <ele>403</ele>
        <time>2016-01-31T09:06:32.000Z</time>
      </trkpt>
      <trkpt lat="47.46262" lon="6.78481">
        <ele>403</ele>
        <time>2016-01-31T09:06:33.000Z</time>
      </trkpt>
      <trkpt lat="47.46258" lon="6.78482">
        <ele>403</ele>
        <time>2016-01-31T09:06:36.000Z</time>
      </trkpt>
      <trkpt lat="47.46257" lon="6.78482">
        <ele>403</ele>
        <time>2016-01-31T09:06:37.000Z</time>
      </trkpt>
      <trkpt lat="47.46253" lon="6.78483">
        <ele>403</ele>
        <time>2016-01-31T09:06:39.000Z</time>
      </trkpt>
      <trkpt lat="47.46251" lon="6.78484">
        <ele>403</ele>
        <time>2016-01-31T09:06:40.000Z</time>
      </trkpt>
      <trkpt lat="47.46248" lon="6.78485">
        <ele>405</ele>
        <time>2016-01-31T09:06:42.000Z</time>
      </trkpt>
      <trkpt lat="47.46246" lon="6.78486">
        <ele>405</ele>
        <time>2016-01-31T09:06:43.000Z</time>
      </trkpt>
      <trkpt lat="47.46243" lon="6.78488">
        <ele>405</ele>
        <time>2016-01-31T09:06:45.000Z</time>
      </trkpt>
      <trkpt lat="47.46241" lon="6.78489">
        <ele>405</ele>
        <time>2016-01-31T09:06:46.000Z</time>
      </trkpt>
      <trkpt lat="47.46237" lon="6.78489">
        <ele>405</ele>
        <time>2016-01-31T09:06:48.000Z</time>
      </trkpt>
      <trkpt lat="47.46235" lon="6.7849">
        <ele>405</ele>
        <time>2016-01-31T09:06:49.000Z</time>
      </trkpt>
      <trkpt lat="47.46231" lon="6.7849">
        <ele>405</ele>
        <time>2016-01-31T09:06:51.000Z</time>
      </trkpt>
      <trkpt lat="47.46229" lon="6.78491">
        <ele>405</ele>
        <time>2016-01-31T09:06:52.000Z</time>
      </trkpt>
      <trkpt lat="47.46228" lon="6.78492">
        <ele>406</ele>
        <time>2016-01-31T09:06:53.000Z</time>
      </trkpt>
      <trkpt lat="47.46225" lon="6.78493">
        <ele>406</ele>
        <time>2016-01-31T09:06:54.000Z</time>
      </trkpt>
      <trkpt lat="47.46223" lon="6.78494">
        <ele>406</ele>
        <time>2016-01-31T09:06:55.000Z</time>
      </trkpt>
      <trkpt lat="47.4622" lon="6.78495">
        <ele>406</ele>
        <time>2016-01-31T09:06:56.000Z</time>
      </trkpt>
      <trkpt lat="47.46217" lon="6.78497">
        <ele>406</ele>
        <time>2016-01-31T09:06:57.000Z</time>
      </trkpt>
      <trkpt lat="47.46214" lon="6.78498">
        <ele>406</ele>
        <time>2016-01-31T09:06:58.000Z</time>
      </trkpt>
      <trkpt lat="47.46211" lon="6.78499">
        <ele>406</ele>
        <time>2016-01-31T09:06:59.000Z</time>
      </trkpt>
      <trkpt lat="47.46209" lon="6.78501">
        <ele>406</ele>
        <time>2016-01-31T09:07:00.000Z</time>
      </trkpt>
      <trkpt lat="47.46207" lon="6.78502">
        <ele>406</ele>
        <time>2016-01-31T09:07:01.000Z</time>
      </trkpt>
      <trkpt lat="47.46204" lon="6.78503">
        <ele>406</ele>
        <time>2016-01-31T09:07:02.000Z</time>
      </trkpt>
      <trkpt lat="47.46201" lon="6.78506">
        <ele>406</ele>
        <time>2016-01-31T09:07:04.000Z</time>
      </trkpt>
      <trkpt lat="47.462" lon="6.78506">
        <ele>406</ele>
        <time>2016-01-31T09:07:05.000Z</time>
      </trkpt>
      <trkpt lat="47.46196" lon="6.78508">
        <ele>406</ele>
        <time>2016-01-31T09:07:08.000Z</time>
      </trkpt>
      <trkpt lat="47.46195" lon="6.78508">
        <ele>407</ele>
        <time>2016-01-31T09:07:09.000Z</time>
      </trkpt>
      <trkpt lat="47.46192" lon="6.7851">
        <ele>407</ele>
        <time>2016-01-31T09:07:11.000Z</time>
      </trkpt>
      <trkpt lat="47.4619" lon="6.78511">
        <ele>407</ele>
        <time>2016-01-31T09:07:12.000Z</time>
      </trkpt>
      <trkpt lat="47.46186" lon="6.78512">
        <ele>407</ele>
        <time>2016-01-31T09:07:14.000Z</time>
      </trkpt>
      <trkpt lat="47.46184" lon="6.78513">
        <ele>407</ele>
        <time>2016-01-31T09:07:15.000Z</time>
      </trkpt>
      <trkpt lat="47.46182" lon="6.78515">
        <ele>407</ele>
        <time>2016-01-31T09:07:16.000Z</time>
      </trkpt>
      <trkpt lat="47.46179" lon="6.78516">
        <ele>407</ele>
        <time>2016-01-31T09:07:17.000Z</time>
      </trkpt>
      <trkpt lat="47.46176" lon="6.78517">
        <ele>407</ele>
        <time>2016-01-31T09:07:18.000Z</time>
      </trkpt>
      <trkpt lat="47.46173" lon="6.78519">
        <ele>407</ele>
        <time>2016-01-31T09:07:19.000Z</time>
      </trkpt>
      <trkpt lat="47.4617" lon="6.78521">
        <ele>407</ele>
        <time>2016-01-31T09:07:20.000Z</time>
      </trkpt>
      <trkpt lat="47.46167" lon="6.78522">
        <ele>407</ele>
        <time>2016-01-31T09:07:21.000Z</time>
      </trkpt>
      <trkpt lat="47.46164" lon="6.78523">
        <ele>408</ele>
        <time>2016-01-31T09:07:22.000Z</time>
      </trkpt>
      <trkpt lat="47.46162" lon="6.78524">
        <ele>408</ele>
        <time>2016-01-31T09:07:23.000Z</time>
      </trkpt>
      <trkpt lat="47.46159" lon="6.78525">
        <ele>408</ele>
        <time>2016-01-31T09:07:24.000Z</time>
      </trkpt>
      <trkpt lat="47.46156" lon="6.78526">
        <ele>408</ele>
        <time>2016-01-31T09:07:25.000Z</time>
      </trkpt>
      <trkpt lat="47.46154" lon="6.78528">
        <ele>408</ele>
        <time>2016-01-31T09:07:26.000Z</time>
      </trkpt>
      <trkpt lat="47.46151" lon="6.7853">
        <ele>408</ele>
        <time>2016-01-31T09:07:27.000Z</time>
      </trkpt>
      <trkpt lat="47.46148" lon="6.78531">
        <ele>408</ele>
        <time>2016-01-31T09:07:28.000Z</time>
      </trkpt>
      <trkpt lat="47.46145" lon="6.78532">
        <ele>408</ele>
        <time>2016-01-31T09:07:29.000Z</time>
      </trkpt>
      <trkpt lat="47.46142" lon="6.78533">
        <ele>408</ele>
        <time>2016-01-31T09:07:30.000Z</time>
      </trkpt>
      <trkpt lat="47.46139" lon="6.78534">
        <ele>408</ele>
        <time>2016-01-31T09:07:31.000Z</time>
      </trkpt>
      <trkpt lat="47.46136" lon="6.78534">
        <ele>408</ele>
        <time>2016-01-31T09:07:32.000Z</time>
      </trkpt>
      <trkpt lat="47.46134" lon="6.78535">
        <ele>408</ele>
        <time>2016-01-31T09:07:33.000Z</time>
      </trkpt>
      <trkpt lat="47.46131" lon="6.78535">
        <ele>408</ele>
        <time>2016-01-31T09:07:34.000Z</time>
      </trkpt>
      <trkpt lat="47.46129" lon="6.78535">
        <ele>408</ele>
        <time>2016-01-31T09:07:35.000Z</time>
      </trkpt>
      <trkpt lat="47.46126" lon="6.78535">
        <ele>408</ele>
        <time>2016-01-31T09:07:36.000Z</time>
      </trkpt>
      <trkpt lat="47.46123" lon="6.78536">
        <ele>408</ele>
        <time>2016-01-31T09:07:37.000Z</time>
      </trkpt>
      <trkpt lat="47.4612" lon="6.78537">
        <ele>408</ele>
        <time>2016-01-31T09:07:38.000Z</time>
      </trkpt>
      <trkpt lat="47.46118" lon="6.78538">
        <ele>408</ele>
        <time>2016-01-31T09:07:39.000Z</time>
      </trkpt>
      <trkpt lat="47.46114" lon="6.7854">
        <ele>408</ele>
        <time>2016-01-31T09:07:40.000Z</time>
      </trkpt>
      <trkpt lat="47.46111" lon="6.78541">
        <ele>408</ele>
        <time>2016-01-31T09:07:41.000Z</time>
      </trkpt>
      <trkpt lat="47.46106" lon="6.78543">
        <ele>407</ele>
        <time>2016-01-31T09:07:42.000Z</time>
      </trkpt>
      <trkpt lat="47.46102" lon="6.78544">
        <ele>407</ele>
        <time>2016-01-31T09:07:43.000Z</time>
      </trkpt>
      <trkpt lat="47.46097" lon="6.78545">
        <ele>407</ele>
        <time>2016-01-31T09:07:44.000Z</time>
      </trkpt>
      <trkpt lat="47.46093" lon="6.78545">
        <ele>407</ele>
        <time>2016-01-31T09:07:45.000Z</time>
      </trkpt>
      <trkpt lat="47.46089" lon="6.78545">
        <ele>407</ele>
        <time>2016-01-31T09:07:46.000Z</time>
      </trkpt>
      <trkpt lat="47.46085" lon="6.78544">
        <ele>407</ele>
        <time>2016-01-31T09:07:47.000Z</time>
      </trkpt>
      <trkpt lat="47.46081" lon="6.78543">
        <ele>404</ele>
        <time>2016-01-31T09:07:48.000Z</time>
      </trkpt>
      <trkpt lat="47.46078" lon="6.78541">
        <ele>404</ele>
        <time>2016-01-31T09:07:49.000Z</time>
      </trkpt>
      <trkpt lat="47.46074" lon="6.78538">
        <ele>405</ele>
        <time>2016-01-31T09:07:50.000Z</time>
      </trkpt>
      <trkpt lat="47.4607" lon="6.78534">
        <ele>405</ele>
        <time>2016-01-31T09:07:51.000Z</time>
      </trkpt>
      <trkpt lat="47.46066" lon="6.7853">
        <ele>405</ele>
        <time>2016-01-31T09:07:52.000Z</time>
      </trkpt>
      <trkpt lat="47.46062" lon="6.78526">
        <ele>405</ele>
        <time>2016-01-31T09:07:53.000Z</time>
      </trkpt>
      <trkpt lat="47.46058" lon="6.78523">
        <ele>405</ele>
        <time>2016-01-31T09:07:54.000Z</time>
      </trkpt>
      <trkpt lat="47.46054" lon="6.78521">
        <ele>404</ele>
        <time>2016-01-31T09:07:55.000Z</time>
      </trkpt>
      <trkpt lat="47.46051" lon="6.78519">
        <ele>404</ele>
        <time>2016-01-31T09:07:56.000Z</time>
      </trkpt>
      <trkpt lat="47.46047" lon="6.78518">
        <ele>404</ele>
        <time>2016-01-31T09:07:57.000Z</time>
      </trkpt>
      <trkpt lat="47.46044" lon="6.78517">
        <ele>404</ele>
        <time>2016-01-31T09:07:58.000Z</time>
      </trkpt>
      <trkpt lat="47.4604" lon="6.78516">
        <ele>403</ele>
        <time>2016-01-31T09:07:59.000Z</time>
      </trkpt>
      <trkpt lat="47.46037" lon="6.78515">
        <ele>403</ele>
        <time>2016-01-31T09:08:00.000Z</time>
      </trkpt>
      <trkpt lat="47.46033" lon="6.78514">
        <ele>403</ele>
        <time>2016-01-31T09:08:01.000Z</time>
      </trkpt>
      <trkpt lat="47.46029" lon="6.78513">
        <ele>403</ele>
        <time>2016-01-31T09:08:02.000Z</time>
      </trkpt>
      <trkpt lat="47.46024" lon="6.78511">
        <ele>402</ele>
        <time>2016-01-31T09:08:03.000Z</time>
      </trkpt>
      <trkpt lat="47.4602" lon="6.78509">
        <ele>402</ele>
        <time>2016-01-31T09:08:04.000Z</time>
      </trkpt>
      <trkpt lat="47.46016" lon="6.78508">
        <ele>402</ele>
        <time>2016-01-31T09:08:05.000Z</time>
      </trkpt>
      <trkpt lat="47.46012" lon="6.78507">
        <ele>401</ele>
        <time>2016-01-31T09:08:06.000Z</time>
      </trkpt>
      <trkpt lat="47.46009" lon="6.78506">
        <ele>401</ele>
        <time>2016-01-31T09:08:07.000Z</time>
      </trkpt>
      <trkpt lat="47.46005" lon="6.78506">
        <ele>401</ele>
        <time>2016-01-31T09:08:08.000Z</time>
      </trkpt>
      <trkpt lat="47.46002" lon="6.78507">
        <ele>401</ele>
        <time>2016-01-31T09:08:09.000Z</time>
      </trkpt>
      <trkpt lat="47.45999" lon="6.78508">
        <ele>397</ele>
        <time>2016-01-31T09:08:10.000Z</time>
      </trkpt>
      <trkpt lat="47.45997" lon="6.78509">
        <ele>397</ele>
        <time>2016-01-31T09:08:11.000Z</time>
      </trkpt>
      <trkpt lat="47.45994" lon="6.78507">
        <ele>397</ele>
        <time>2016-01-31T09:08:12.000Z</time>
      </trkpt>
      <trkpt lat="47.45992" lon="6.78503">
        <ele>397</ele>
        <time>2016-01-31T09:08:13.000Z</time>
      </trkpt>
      <trkpt lat="47.4599" lon="6.78496">
        <ele>397</ele>
        <time>2016-01-31T09:08:14.000Z</time>
      </trkpt>
      <trkpt lat="47.45989" lon="6.78489">
        <ele>397</ele>
        <time>2016-01-31T09:08:15.000Z</time>
      </trkpt>
      <trkpt lat="47.45987" lon="6.78483">
        <ele>396</ele>
        <time>2016-01-31T09:08:16.000Z</time>
      </trkpt>
      <trkpt lat="47.45986" lon="6.78478">
        <ele>395</ele>
        <time>2016-01-31T09:08:17.000Z</time>
      </trkpt>
      <trkpt lat="47.45985" lon="6.78474">
        <ele>395</ele>
        <time>2016-01-31T09:08:17.988Z</time>
      </trkpt>
      <trkpt lat="47.45984" lon="6.78469">
        <ele>395</ele>
        <time>2016-01-31T09:08:19.000Z</time>
      </trkpt>
      <trkpt lat="47.45983" lon="6.78465">
        <ele>395</ele>
        <time>2016-01-31T09:08:20.000Z</time>
      </trkpt>
      <trkpt lat="47.45982" lon="6.78462">
        <ele>395</ele>
        <time>2016-01-31T09:08:21.000Z</time>
      </trkpt>
      <trkpt lat="47.4598" lon="6.78458">
        <ele>395</ele>
        <time>2016-01-31T09:08:22.000Z</time>
      </trkpt>
      <trkpt lat="47.45978" lon="6.78455">
        <ele>395</ele>
        <time>2016-01-31T09:08:23.000Z</time>
      </trkpt>
      <trkpt lat="47.45976" lon="6.78451">
        <ele>395</ele>
        <time>2016-01-31T09:08:24.000Z</time>
      </trkpt>
      <trkpt lat="47.45975" lon="6.78447">
        <ele>395</ele>
        <time>2016-01-31T09:08:25.000Z</time>
      </trkpt>
      <trkpt lat="47.45974" lon="6.78443">
        <ele>395</ele>
        <time>2016-01-31T09:08:26.000Z</time>
      </trkpt>
      <trkpt lat="47.45972" lon="6.7844">
        <ele>395</ele>
        <time>2016-01-31T09:08:27.000Z</time>
      </trkpt>
      <trkpt lat="47.45969" lon="6.78436">
        <ele>394</ele>
        <time>2016-01-31T09:08:30.000Z</time>
      </trkpt>
      <trkpt lat="47.45968" lon="6.78436">
        <ele>394</ele>
        <time>2016-01-31T09:08:31.000Z</time>
      </trkpt>
      <trkpt lat="47.45965" lon="6.78436">
        <ele>394</ele>
        <time>2016-01-31T09:08:33.000Z</time>
      </trkpt>
      <trkpt lat="47.45963" lon="6.78437">
        <ele>394</ele>
        <time>2016-01-31T09:08:34.000Z</time>
      </trkpt>
      <trkpt lat="47.4596" lon="6.78438">
        <ele>393</ele>
        <time>2016-01-31T09:08:35.999Z</time>
      </trkpt>
      <trkpt lat="47.45957" lon="6.78439">
        <ele>393</ele>
        <time>2016-01-31T09:08:37.000Z</time>
      </trkpt>
      <trkpt lat="47.45955" lon="6.7844">
        <ele>393</ele>
        <time>2016-01-31T09:08:38.000Z</time>
      </trkpt>
      <trkpt lat="47.45953" lon="6.78442">
        <ele>392</ele>
        <time>2016-01-31T09:08:39.000Z</time>
      </trkpt>
      <trkpt lat="47.45949" lon="6.78445">
        <ele>392</ele>
        <time>2016-01-31T09:08:41.000Z</time>
      </trkpt>
      <trkpt lat="47.45948" lon="6.78448">
        <ele>392</ele>
        <time>2016-01-31T09:08:42.000Z</time>
      </trkpt>
      <trkpt lat="47.45945" lon="6.78453">
        <ele>392</ele>
        <time>2016-01-31T09:08:44.000Z</time>
      </trkpt>
      <trkpt lat="47.45944" lon="6.78456">
        <ele>391</ele>
        <time>2016-01-31T09:08:45.000Z</time>
      </trkpt>
      <trkpt lat="47.45943" lon="6.7846">
        <ele>391</ele>
        <time>2016-01-31T09:08:46.000Z</time>
      </trkpt>
      <trkpt lat="47.45943" lon="6.78465">
        <ele>391</ele>
        <time>2016-01-31T09:08:47.000Z</time>
      </trkpt>
      <trkpt lat="47.45944" lon="6.78479">
        <ele>391</ele>
        <time>2016-01-31T09:08:48.000Z</time>
      </trkpt>
      <trkpt lat="47.45944" lon="6.78486">
        <ele>390</ele>
        <time>2016-01-31T09:08:49.000Z</time>
      </trkpt>
      <trkpt lat="47.45945" lon="6.78492">
        <ele>390</ele>
        <time>2016-01-31T09:08:50.000Z</time>
      </trkpt>
      <trkpt lat="47.45945" lon="6.785">
        <ele>390</ele>
        <time>2016-01-31T09:08:51.000Z</time>
      </trkpt>
      <trkpt lat="47.45945" lon="6.78507">
        <ele>388</ele>
        <time>2016-01-31T09:08:52.000Z</time>
      </trkpt>
      <trkpt lat="47.45946" lon="6.78513">
        <ele>388</ele>
        <time>2016-01-31T09:08:53.000Z</time>
      </trkpt>
      <trkpt lat="47.45944" lon="6.78521">
        <ele>388</ele>
        <time>2016-01-31T09:08:54.000Z</time>
      </trkpt>
      <trkpt lat="47.45943" lon="6.78528">
        <ele>388</ele>
        <time>2016-01-31T09:08:55.000Z</time>
      </trkpt>
      <trkpt lat="47.45938" lon="6.78532">
        <ele>387</ele>
        <time>2016-01-31T09:08:56.000Z</time>
      </trkpt>
      <trkpt lat="47.45932" lon="6.78536">
        <ele>387</ele>
        <time>2016-01-31T09:08:57.000Z</time>
      </trkpt>
      <trkpt lat="47.45927" lon="6.78537">
        <ele>387</ele>
        <time>2016-01-31T09:08:58.000Z</time>
      </trkpt>
      <trkpt lat="47.45922" lon="6.78538">
        <ele>386</ele>
        <time>2016-01-31T09:08:59.000Z</time>
      </trkpt>
      <trkpt lat="47.45917" lon="6.78535">
        <ele>386</ele>
        <time>2016-01-31T09:09:00.000Z</time>
      </trkpt>
      <trkpt lat="47.45913" lon="6.78531">
        <ele>377</ele>
        <time>2016-01-31T09:09:01.000Z</time>
      </trkpt>
      <trkpt lat="47.45907" lon="6.78526">
        <ele>377</ele>
        <time>2016-01-31T09:09:02.000Z</time>
      </trkpt>
      <trkpt lat="47.45902" lon="6.7852">
        <ele>377</ele>
        <time>2016-01-31T09:09:03.000Z</time>
      </trkpt>
      <trkpt lat="47.45897" lon="6.78515">
        <ele>377</ele>
        <time>2016-01-31T09:09:04.000Z</time>
      </trkpt>
      <trkpt lat="47.45892" lon="6.78508">
        <ele>377</ele>
        <time>2016-01-31T09:09:05.000Z</time>
      </trkpt>
      <trkpt lat="47.45886" lon="6.78502">
        <ele>376</ele>
        <time>2016-01-31T09:09:06.000Z</time>
      </trkpt>
      <trkpt lat="47.45879" lon="6.78496">
        <ele>377</ele>
        <time>2016-01-31T09:09:07.000Z</time>
      </trkpt>
      <trkpt lat="47.45873" lon="6.78489">
        <ele>376</ele>
        <time>2016-01-31T09:09:08.000Z</time>
      </trkpt>
      <trkpt lat="47.45866" lon="6.78484">
        <ele>375</ele>
        <time>2016-01-31T09:09:09.000Z</time>
      </trkpt>
      <trkpt lat="47.4586" lon="6.78477">
        <ele>375</ele>
        <time>2016-01-31T09:09:10.000Z</time>
      </trkpt>
      <trkpt lat="47.45853" lon="6.78471">
        <ele>375</ele>
        <time>2016-01-31T09:09:11.000Z</time>
      </trkpt>
      <trkpt lat="47.45846" lon="6.78465">
        <ele>374</ele>
        <time>2016-01-31T09:09:12.000Z</time>
      </trkpt>
      <trkpt lat="47.45839" lon="6.7846">
        <ele>374</ele>
        <time>2016-01-31T09:09:13.000Z</time>
      </trkpt>
      <trkpt lat="47.45833" lon="6.78454">
        <ele>366</ele>
        <time>2016-01-31T09:09:14.000Z</time>
      </trkpt>
      <trkpt lat="47.45827" lon="6.78447">
        <ele>367</ele>
        <time>2016-01-31T09:09:15.000Z</time>
      </trkpt>
      <trkpt lat="47.4582" lon="6.7844">
        <ele>367</ele>
        <time>2016-01-31T09:09:16.000Z</time>
      </trkpt>
      <trkpt lat="47.45813" lon="6.78433">
        <ele>366</ele>
        <time>2016-01-31T09:09:17.000Z</time>
      </trkpt>
      <trkpt lat="47.45806" lon="6.78426">
        <ele>366</ele>
        <time>2016-01-31T09:09:18.000Z</time>
      </trkpt>
      <trkpt lat="47.45799" lon="6.7842">
        <ele>365</ele>
        <time>2016-01-31T09:09:19.000Z</time>
      </trkpt>
      <trkpt lat="47.45791" lon="6.78412">
        <ele>367</ele>
        <time>2016-01-31T09:09:20.000Z</time>
      </trkpt>
      <trkpt lat="47.45783" lon="6.78407">
        <ele>366</ele>
        <time>2016-01-31T09:09:21.000Z</time>
      </trkpt>
      <trkpt lat="47.45774" lon="6.78403">
        <ele>365</ele>
        <time>2016-01-31T09:09:22.000Z</time>
      </trkpt>
      <trkpt lat="47.45766" lon="6.78398">
        <ele>365</ele>
        <time>2016-01-31T09:09:23.000Z</time>
      </trkpt>
      <trkpt lat="47.45756" lon="6.78395">
        <ele>364</ele>
        <time>2016-01-31T09:09:24.000Z</time>
      </trkpt>
      <trkpt lat="47.45747" lon="6.78393">
        <ele>360</ele>
        <time>2016-01-31T09:09:25.000Z</time>
      </trkpt>
      <trkpt lat="47.45738" lon="6.78392">
        <ele>360</ele>
        <time>2016-01-31T09:09:26.000Z</time>
      </trkpt>
      <trkpt lat="47.45729" lon="6.7839">
        <ele>359</ele>
        <time>2016-01-31T09:09:27.000Z</time>
      </trkpt>
      <trkpt lat="47.45719" lon="6.78389">
        <ele>359</ele>
        <time>2016-01-31T09:09:28.000Z</time>
      </trkpt>
      <trkpt lat="47.4571" lon="6.78389">
        <ele>359</ele>
        <time>2016-01-31T09:09:29.000Z</time>
      </trkpt>
      <trkpt lat="47.45701" lon="6.7839">
        <ele>359</ele>
        <time>2016-01-31T09:09:30.000Z</time>
      </trkpt>
      <trkpt lat="47.45692" lon="6.7839">
        <ele>358</ele>
        <time>2016-01-31T09:09:31.000Z</time>
      </trkpt>
      <trkpt lat="47.45683" lon="6.78391">
        <ele>358</ele>
        <time>2016-01-31T09:09:32.000Z</time>
      </trkpt>
      <trkpt lat="47.45674" lon="6.78392">
        <ele>358</ele>
        <time>2016-01-31T09:09:33.000Z</time>
      </trkpt>
      <trkpt lat="47.45666" lon="6.78394">
        <ele>356</ele>
        <time>2016-01-31T09:09:34.000Z</time>
      </trkpt>
      <trkpt lat="47.45657" lon="6.78396">
        <ele>356</ele>
        <time>2016-01-31T09:09:35.000Z</time>
      </trkpt>
      <trkpt lat="47.45649" lon="6.78399">
        <ele>356</ele>
        <time>2016-01-31T09:09:36.000Z</time>
      </trkpt>
      <trkpt lat="47.45642" lon="6.78401">
        <ele>355</ele>
        <time>2016-01-31T09:09:37.000Z</time>
      </trkpt>
      <trkpt lat="47.45634" lon="6.78404">
        <ele>355</ele>
        <time>2016-01-31T09:09:38.000Z</time>
      </trkpt>
      <trkpt lat="47.45627" lon="6.78408">
        <ele>355</ele>
        <time>2016-01-31T09:09:39.000Z</time>
      </trkpt>
      <trkpt lat="47.45619" lon="6.78412">
        <ele>355</ele>
        <time>2016-01-31T09:09:40.000Z</time>
      </trkpt>
      <trkpt lat="47.45612" lon="6.78415">
        <ele>355</ele>
        <time>2016-01-31T09:09:41.000Z</time>
      </trkpt>
      <trkpt lat="47.45605" lon="6.78419">
        <ele>354</ele>
        <time>2016-01-31T09:09:42.000Z</time>
      </trkpt>
      <trkpt lat="47.45598" lon="6.78422">
        <ele>354</ele>
        <time>2016-01-31T09:09:43.000Z</time>
      </trkpt>
      <trkpt lat="47.45592" lon="6.78426">
        <ele>354</ele>
        <time>2016-01-31T09:09:44.000Z</time>
      </trkpt>
      <trkpt lat="47.45585" lon="6.78429">
        <ele>354</ele>
        <time>2016-01-31T09:09:45.000Z</time>
      </trkpt>
      <trkpt lat="47.45578" lon="6.78433">
        <ele>352</ele>
        <time>2016-01-31T09:09:46.000Z</time>
      </trkpt>
      <trkpt lat="47.45571" lon="6.78436">
        <ele>352</ele>
        <time>2016-01-31T09:09:47.000Z</time>
      </trkpt>
      <trkpt lat="47.45564" lon="6.7844">
        <ele>352</ele>
        <time>2016-01-31T09:09:48.000Z</time>
      </trkpt>
      <trkpt lat="47.45558" lon="6.78443">
        <ele>352</ele>
        <time>2016-01-31T09:09:49.000Z</time>
      </trkpt>
      <trkpt lat="47.45551" lon="6.78446">
        <ele>351</ele>
        <time>2016-01-31T09:09:50.000Z</time>
      </trkpt>
      <trkpt lat="47.45544" lon="6.7845">
        <ele>351</ele>
        <time>2016-01-31T09:09:51.000Z</time>
      </trkpt>
      <trkpt lat="47.45537" lon="6.78452">
        <ele>351</ele>
        <time>2016-01-31T09:09:52.000Z</time>
      </trkpt>
      <trkpt lat="47.4553" lon="6.78456">
        <ele>351</ele>
        <time>2016-01-31T09:09:53.000Z</time>
      </trkpt>
      <trkpt lat="47.45523" lon="6.7846">
        <ele>351</ele>
        <time>2016-01-31T09:09:54.000Z</time>
      </trkpt>
      <trkpt lat="47.45516" lon="6.78464">
        <ele>351</ele>
        <time>2016-01-31T09:09:55.000Z</time>
      </trkpt>
      <trkpt lat="47.45509" lon="6.78468">
        <ele>350</ele>
        <time>2016-01-31T09:09:56.000Z</time>
      </trkpt>
      <trkpt lat="47.45504" lon="6.78471">
        <ele>350</ele>
        <time>2016-01-31T09:09:57.000Z</time>
      </trkpt>
      <trkpt lat="47.45499" lon="6.78473">
        <ele>348</ele>
        <time>2016-01-31T09:09:58.000Z</time>
      </trkpt>
      <trkpt lat="47.45496" lon="6.78476">
        <ele>348</ele>
        <time>2016-01-31T09:09:59.000Z</time>
      </trkpt>
      <trkpt lat="47.45492" lon="6.78481">
        <ele>348</ele>
        <time>2016-01-31T09:10:00.000Z</time>
      </trkpt>
      <trkpt lat="47.45489" lon="6.78485">
        <ele>348</ele>
        <time>2016-01-31T09:10:01.000Z</time>
      </trkpt>
      <trkpt lat="47.45485" lon="6.78488">
        <ele>348</ele>
        <time>2016-01-31T09:10:02.000Z</time>
      </trkpt>
      <trkpt lat="47.45484" lon="6.78491">
        <ele>348</ele>
        <time>2016-01-31T09:10:03.000Z</time>
      </trkpt>
      <trkpt lat="47.45482" lon="6.78493">
        <ele>348</ele>
        <time>2016-01-31T09:10:04.000Z</time>
      </trkpt>
      <trkpt lat="47.4548" lon="6.78498">
        <ele>348</ele>
        <time>2016-01-31T09:10:06.000Z</time>
      </trkpt>
      <trkpt lat="47.45479" lon="6.78501">
        <ele>345</ele>
        <time>2016-01-31T09:10:07.000Z</time>
      </trkpt>
      <trkpt lat="47.45477" lon="6.78504">
        <ele>345</ele>
        <time>2016-01-31T09:10:08.000Z</time>
      </trkpt>
      <trkpt lat="47.45477" lon="6.78509">
        <ele>345</ele>
        <time>2016-01-31T09:10:09.000Z</time>
      </trkpt>
      <trkpt lat="47.45478" lon="6.78515">
        <ele>345</ele>
        <time>2016-01-31T09:10:10.000Z</time>
      </trkpt>
      <trkpt lat="47.45478" lon="6.7852">
        <ele>345</ele>
        <time>2016-01-31T09:10:11.000Z</time>
      </trkpt>
      <trkpt lat="47.45478" lon="6.78525">
        <ele>345</ele>
        <time>2016-01-31T09:10:12.000Z</time>
      </trkpt>
      <trkpt lat="47.45479" lon="6.7853">
        <ele>344</ele>
        <time>2016-01-31T09:10:13.000Z</time>
      </trkpt>
      <trkpt lat="47.45479" lon="6.78535">
        <ele>344</ele>
        <time>2016-01-31T09:10:14.000Z</time>
      </trkpt>
      <trkpt lat="47.4548" lon="6.7854">
        <ele>344</ele>
        <time>2016-01-31T09:10:14.999Z</time>
      </trkpt>
      <trkpt lat="47.45481" lon="6.78544">
        <ele>344</ele>
        <time>2016-01-31T09:10:16.000Z</time>
      </trkpt>
      <trkpt lat="47.45481" lon="6.78549">
        <ele>344</ele>
        <time>2016-01-31T09:10:17.000Z</time>
      </trkpt>
      <trkpt lat="47.45482" lon="6.78554">
        <ele>344</ele>
        <time>2016-01-31T09:10:18.000Z</time>
      </trkpt>
      <trkpt lat="47.45482" lon="6.78559">
        <ele>343</ele>
        <time>2016-01-31T09:10:19.000Z</time>
      </trkpt>
      <trkpt lat="47.45482" lon="6.78564">
        <ele>343</ele>
        <time>2016-01-31T09:10:20.000Z</time>
      </trkpt>
      <trkpt lat="47.45481" lon="6.78569">
        <ele>343</ele>
        <time>2016-01-31T09:10:21.000Z</time>
      </trkpt>
      <trkpt lat="47.45481" lon="6.78574">
        <ele>343</ele>
        <time>2016-01-31T09:10:22.000Z</time>
      </trkpt>
      <trkpt lat="47.4548" lon="6.78579">
        <ele>343</ele>
        <time>2016-01-31T09:10:23.000Z</time>
      </trkpt>
      <trkpt lat="47.45477" lon="6.78586">
        <ele>340</ele>
        <time>2016-01-31T09:10:24.000Z</time>
      </trkpt>
      <trkpt lat="47.45476" lon="6.78593">
        <ele>340</ele>
        <time>2016-01-31T09:10:25.000Z</time>
      </trkpt>
      <trkpt lat="47.45474" lon="6.78601">
        <ele>340</ele>
        <time>2016-01-31T09:10:26.000Z</time>
      </trkpt>
      <trkpt lat="47.45473" lon="6.78609">
        <ele>339</ele>
        <time>2016-01-31T09:10:27.000Z</time>
      </trkpt>
      <trkpt lat="47.45473" lon="6.78619">
        <ele>339</ele>
        <time>2016-01-31T09:10:28.000Z</time>
      </trkpt>
      <trkpt lat="47.45474" lon="6.78628">
        <ele>339</ele>
        <time>2016-01-31T09:10:29.000Z</time>
      </trkpt>
      <trkpt lat="47.45474" lon="6.78639">
        <ele>338</ele>
        <time>2016-01-31T09:10:30.000Z</time>
      </trkpt>
      <trkpt lat="47.45474" lon="6.78649">
        <ele>338</ele>
        <time>2016-01-31T09:10:31.000Z</time>
      </trkpt>
      <trkpt lat="47.45475" lon="6.78658">
        <ele>338</ele>
        <time>2016-01-31T09:10:32.000Z</time>
      </trkpt>
      <trkpt lat="47.45476" lon="6.78667">
        <ele>336</ele>
        <time>2016-01-31T09:10:33.000Z</time>
      </trkpt>
      <trkpt lat="47.45477" lon="6.78674">
        <ele>336</ele>
        <time>2016-01-31T09:10:34.000Z</time>
      </trkpt>
      <trkpt lat="47.45478" lon="6.7868">
        <ele>336</ele>
        <time>2016-01-31T09:10:35.000Z</time>
      </trkpt>
      <trkpt lat="47.45478" lon="6.78686">
        <ele>335</ele>
        <time>2016-01-31T09:10:36.000Z</time>
      </trkpt>
      <trkpt lat="47.45478" lon="6.78693">
        <ele>335</ele>
        <time>2016-01-31T09:10:37.000Z</time>
      </trkpt>
      <trkpt lat="47.45479" lon="6.78699">
        <ele>335</ele>
        <time>2016-01-31T09:10:38.000Z</time>
      </trkpt>
      <trkpt lat="47.45478" lon="6.78704">
        <ele>335</ele>
        <time>2016-01-31T09:10:39.000Z</time>
      </trkpt>
      <trkpt lat="47.45478" lon="6.78707">
        <ele>335</ele>
        <time>2016-01-31T09:10:40.000Z</time>
      </trkpt>
      <trkpt lat="47.45478" lon="6.78711">
        <ele>335</ele>
        <time>2016-01-31T09:10:41.000Z</time>
      </trkpt>
      <trkpt lat="47.45477" lon="6.78716">
        <ele>335</ele>
        <time>2016-01-31T09:10:43.999Z</time>
      </trkpt>
      <trkpt lat="47.45478" lon="6.78718">
        <ele>335</ele>
        <time>2016-01-31T09:10:45.000Z</time>
      </trkpt>
      <trkpt lat="47.4548" lon="6.78723">
        <ele>335</ele>
        <time>2016-01-31T09:10:48.000Z</time>
      </trkpt>
      <trkpt lat="47.4548" lon="6.78724">
        <ele>335</ele>
        <time>2016-01-31T09:10:49.000Z</time>
      </trkpt>
      <trkpt lat="47.45481" lon="6.7873">
        <ele>335</ele>
        <time>2016-01-31T09:10:51.000Z</time>
      </trkpt>
      <trkpt lat="47.45482" lon="6.78732">
        <ele>335</ele>
        <time>2016-01-31T09:10:52.000Z</time>
      </trkpt>
      <trkpt lat="47.45482" lon="6.78737">
        <ele>335</ele>
        <time>2016-01-31T09:10:53.000Z</time>
      </trkpt>
      <trkpt lat="47.45483" lon="6.78741">
        <ele>335</ele>
        <time>2016-01-31T09:10:54.000Z</time>
      </trkpt>
      <trkpt lat="47.45484" lon="6.78745">
        <ele>335</ele>
        <time>2016-01-31T09:10:55.000Z</time>
      </trkpt>
      <trkpt lat="47.45485" lon="6.78748">
        <ele>335</ele>
        <time>2016-01-31T09:10:56.000Z</time>
      </trkpt>
      <trkpt lat="47.45487" lon="6.78752">
        <ele>334</ele>
        <time>2016-01-31T09:10:57.000Z</time>
      </trkpt>
      <trkpt lat="47.45488" lon="6.78756">
        <ele>334</ele>
        <time>2016-01-31T09:10:58.000Z</time>
      </trkpt>
      <trkpt lat="47.45489" lon="6.78759">
        <ele>334</ele>
        <time>2016-01-31T09:10:58.999Z</time>
      </trkpt>
      <trkpt lat="47.45485" lon="6.78768">
        <ele>334</ele>
        <time>2016-01-31T09:11:01.000Z</time>
      </trkpt>
      <trkpt lat="47.45482" lon="6.78773">
        <ele>334</ele>
        <time>2016-01-31T09:11:02.000Z</time>
      </trkpt>
      <trkpt lat="47.45479" lon="6.78777">
        <ele>334</ele>
        <time>2016-01-31T09:11:02.999Z</time>
      </trkpt>
      <trkpt lat="47.45474" lon="6.78781">
        <ele>334</ele>
        <time>2016-01-31T09:11:04.000Z</time>
      </trkpt>
      <trkpt lat="47.45471" lon="6.78785">
        <ele>333</ele>
        <time>2016-01-31T09:11:04.999Z</time>
      </trkpt>
      <trkpt lat="47.45466" lon="6.78789">
        <ele>333</ele>
        <time>2016-01-31T09:11:06.000Z</time>
      </trkpt>
      <trkpt lat="47.45462" lon="6.78792">
        <ele>333</ele>
        <time>2016-01-31T09:11:07.000Z</time>
      </trkpt>
      <trkpt lat="47.45458" lon="6.78796">
        <ele>333</ele>
        <time>2016-01-31T09:11:08.001Z</time>
      </trkpt>
      <trkpt lat="47.45455" lon="6.78799">
        <ele>333</ele>
        <time>2016-01-31T09:11:09.000Z</time>
      </trkpt>
      <trkpt lat="47.45452" lon="6.78803">
        <ele>333</ele>
        <time>2016-01-31T09:11:09.999Z</time>
      </trkpt>
      <trkpt lat="47.4545" lon="6.78809">
        <ele>333</ele>
        <time>2016-01-31T09:11:11.000Z</time>
      </trkpt>
      <trkpt lat="47.45448" lon="6.78813">
        <ele>333</ele>
        <time>2016-01-31T09:11:12.000Z</time>
      </trkpt>
      <trkpt lat="47.45445" lon="6.78817">
        <ele>333</ele>
        <time>2016-01-31T09:11:13.000Z</time>
      </trkpt>
      <trkpt lat="47.45441" lon="6.78822">
        <ele>333</ele>
        <time>2016-01-31T09:11:14.000Z</time>
      </trkpt>
      <trkpt lat="47.45439" lon="6.78826">
        <ele>333</ele>
        <time>2016-01-31T09:11:15.000Z</time>
      </trkpt>
      <trkpt lat="47.45437" lon="6.7883">
        <ele>333</ele>
        <time>2016-01-31T09:11:16.000Z</time>
      </trkpt>
      <trkpt lat="47.4543" lon="6.78835">
        <ele>332</ele>
        <time>2016-01-31T09:11:17.000Z</time>
      </trkpt>
      <trkpt lat="47.45426" lon="6.7884">
        <ele>332</ele>
        <time>2016-01-31T09:11:18.000Z</time>
      </trkpt>
      <trkpt lat="47.45422" lon="6.78844">
        <ele>332</ele>
        <time>2016-01-31T09:11:19.000Z</time>
      </trkpt>
      <trkpt lat="47.45418" lon="6.78848">
        <ele>332</ele>
        <time>2016-01-31T09:11:20.000Z</time>
      </trkpt>
      <trkpt lat="47.45414" lon="6.78851">
        <ele>332</ele>
        <time>2016-01-31T09:11:21.001Z</time>
      </trkpt>
      <trkpt lat="47.4541" lon="6.78854">
        <ele>332</ele>
        <time>2016-01-31T09:11:22.000Z</time>
      </trkpt>
      <trkpt lat="47.45406" lon="6.78858">
        <ele>332</ele>
        <time>2016-01-31T09:11:23.000Z</time>
      </trkpt>
      <trkpt lat="47.45403" lon="6.78863">
        <ele>332</ele>
        <time>2016-01-31T09:11:24.000Z</time>
      </trkpt>
      <trkpt lat="47.454" lon="6.78868">
        <ele>332</ele>
        <time>2016-01-31T09:11:25.000Z</time>
      </trkpt>
      <trkpt lat="47.45398" lon="6.78872">
        <ele>332</ele>
        <time>2016-01-31T09:11:26.000Z</time>
      </trkpt>
      <trkpt lat="47.45395" lon="6.78876">
        <ele>332</ele>
        <time>2016-01-31T09:11:27.000Z</time>
      </trkpt>
      <trkpt lat="47.45393" lon="6.78881">
        <ele>332</ele>
        <time>2016-01-31T09:11:28.000Z</time>
      </trkpt>
      <trkpt lat="47.4539" lon="6.78884">
        <ele>332</ele>
        <time>2016-01-31T09:11:29.000Z</time>
      </trkpt>
      <trkpt lat="47.45388" lon="6.78887">
        <ele>332</ele>
        <time>2016-01-31T09:11:29.999Z</time>
      </trkpt>
      <trkpt lat="47.45387" lon="6.78888">
        <ele>332</ele>
        <time>2016-01-31T09:11:31.000Z</time>
      </trkpt>
      <trkpt lat="47.45384" lon="6.7889">
        <ele>332</ele>
        <time>2016-01-31T09:11:32.000Z</time>
      </trkpt>
      <trkpt lat="47.45382" lon="6.78891">
        <ele>332</ele>
        <time>2016-01-31T09:11:33.000Z</time>
      </trkpt>
      <trkpt lat="47.4538" lon="6.78892">
        <ele>332</ele>
        <time>2016-01-31T09:11:34.000Z</time>
      </trkpt>
      <trkpt lat="47.45378" lon="6.78894">
        <ele>332</ele>
        <time>2016-01-31T09:11:35.000Z</time>
      </trkpt>
      <trkpt lat="47.45376" lon="6.78897">
        <ele>332</ele>
        <time>2016-01-31T09:11:36.000Z</time>
      </trkpt>
      <trkpt lat="47.45373" lon="6.789">
        <ele>332</ele>
        <time>2016-01-31T09:11:37.000Z</time>
      </trkpt>
      <trkpt lat="47.45371" lon="6.78903">
        <ele>332</ele>
        <time>2016-01-31T09:11:38.000Z</time>
      </trkpt>
      <trkpt lat="47.45368" lon="6.78905">
        <ele>332</ele>
        <time>2016-01-31T09:11:39.000Z</time>
      </trkpt>
      <trkpt lat="47.45365" lon="6.78908">
        <ele>332</ele>
        <time>2016-01-31T09:11:40.000Z</time>
      </trkpt>
      <trkpt lat="47.45363" lon="6.7891">
        <ele>332</ele>
        <time>2016-01-31T09:11:40.999Z</time>
      </trkpt>
      <trkpt lat="47.4536" lon="6.78913">
        <ele>332</ele>
        <time>2016-01-31T09:11:42.002Z</time>
      </trkpt>
      <trkpt lat="47.45357" lon="6.78919">
        <ele>331</ele>
        <time>2016-01-31T09:11:43.000Z</time>
      </trkpt>
      <trkpt lat="47.45355" lon="6.78923">
        <ele>331</ele>
        <time>2016-01-31T09:11:44.000Z</time>
      </trkpt>
      <trkpt lat="47.45353" lon="6.78928">
        <ele>331</ele>
        <time>2016-01-31T09:11:45.000Z</time>
      </trkpt>
      <trkpt lat="47.45351" lon="6.78933">
        <ele>331</ele>
        <time>2016-01-31T09:11:46.000Z</time>
      </trkpt>
      <trkpt lat="47.45349" lon="6.78937">
        <ele>331</ele>
        <time>2016-01-31T09:11:47.000Z</time>
      </trkpt>
      <trkpt lat="47.45347" lon="6.78941">
        <ele>331</ele>
        <time>2016-01-31T09:11:48.000Z</time>
      </trkpt>
      <trkpt lat="47.45344" lon="6.78945">
        <ele>331</ele>
        <time>2016-01-31T09:11:49.000Z</time>
      </trkpt>
      <trkpt lat="47.45342" lon="6.78949">
        <ele>331</ele>
        <time>2016-01-31T09:11:50.000Z</time>
      </trkpt>
      <trkpt lat="47.4534" lon="6.78953">
        <ele>331</ele>
        <time>2016-01-31T09:11:51.000Z</time>
      </trkpt>
      <trkpt lat="47.45337" lon="6.78956">
        <ele>331</ele>
        <time>2016-01-31T09:11:52.000Z</time>
      </trkpt>
      <trkpt lat="47.45334" lon="6.78958">
        <ele>331</ele>
        <time>2016-01-31T09:11:53.000Z</time>
      </trkpt>
      <trkpt lat="47.45331" lon="6.7896">
        <ele>331</ele>
        <time>2016-01-31T09:11:54.000Z</time>
      </trkpt>
      <trkpt lat="47.45328" lon="6.78962">
        <ele>331</ele>
        <time>2016-01-31T09:11:55.000Z</time>
      </trkpt>
      <trkpt lat="47.45324" lon="6.78964">
        <ele>331</ele>
        <time>2016-01-31T09:11:56.000Z</time>
      </trkpt>
      <trkpt lat="47.45321" lon="6.78967">
        <ele>331</ele>
        <time>2016-01-31T09:11:57.000Z</time>
      </trkpt>
      <trkpt lat="47.45319" lon="6.78971">
        <ele>331</ele>
        <time>2016-01-31T09:11:58.000Z</time>
      </trkpt>
      <trkpt lat="47.45316" lon="6.78975">
        <ele>331</ele>
        <time>2016-01-31T09:11:59.000Z</time>
      </trkpt>
      <trkpt lat="47.45314" lon="6.78978">
        <ele>331</ele>
        <time>2016-01-31T09:12:00.000Z</time>
      </trkpt>
      <trkpt lat="47.45312" lon="6.78982">
        <ele>331</ele>
        <time>2016-01-31T09:12:01.000Z</time>
      </trkpt>
      <trkpt lat="47.4531" lon="6.78985">
        <ele>331</ele>
        <time>2016-01-31T09:12:02.000Z</time>
      </trkpt>
      <trkpt lat="47.45308" lon="6.78988">
        <ele>331</ele>
        <time>2016-01-31T09:12:02.999Z</time>
      </trkpt>
      <trkpt lat="47.45305" lon="6.78992">
        <ele>331</ele>
        <time>2016-01-31T09:12:04.000Z</time>
      </trkpt>
      <trkpt lat="47.45303" lon="6.78995">
        <ele>331</ele>
        <time>2016-01-31T09:12:05.000Z</time>
      </trkpt>
      <trkpt lat="47.45301" lon="6.78999">
        <ele>331</ele>
        <time>2016-01-31T09:12:06.000Z</time>
      </trkpt>
      <trkpt lat="47.45299" lon="6.79003">
        <ele>331</ele>
        <time>2016-01-31T09:12:07.000Z</time>
      </trkpt>
      <trkpt lat="47.45297" lon="6.79007">
        <ele>331</ele>
        <time>2016-01-31T09:12:08.000Z</time>
      </trkpt>
      <trkpt lat="47.45295" lon="6.79012">
        <ele>331</ele>
        <time>2016-01-31T09:12:09.000Z</time>
      </trkpt>
      <trkpt lat="47.45292" lon="6.79016">
        <ele>331</ele>
        <time>2016-01-31T09:12:10.001Z</time>
      </trkpt>
      <trkpt lat="47.45289" lon="6.7902">
        <ele>331</ele>
        <time>2016-01-31T09:12:11.000Z</time>
      </trkpt>
      <trkpt lat="47.45286" lon="6.79023">
        <ele>331</ele>
        <time>2016-01-31T09:12:12.000Z</time>
      </trkpt>
      <trkpt lat="47.45283" lon="6.79027">
        <ele>331</ele>
        <time>2016-01-31T09:12:13.001Z</time>
      </trkpt>
      <trkpt lat="47.45281" lon="6.79031">
        <ele>331</ele>
        <time>2016-01-31T09:12:14.000Z</time>
      </trkpt>
      <trkpt lat="47.45279" lon="6.79034">
        <ele>331</ele>
        <time>2016-01-31T09:12:15.000Z</time>
      </trkpt>
      <trkpt lat="47.45277" lon="6.79038">
        <ele>331</ele>
        <time>2016-01-31T09:12:16.000Z</time>
      </trkpt>
      <trkpt lat="47.45275" lon="6.79041">
        <ele>331</ele>
        <time>2016-01-31T09:12:17.000Z</time>
      </trkpt>
      <trkpt lat="47.45274" lon="6.79045">
        <ele>331</ele>
        <time>2016-01-31T09:12:18.000Z</time>
      </trkpt>
      <trkpt lat="47.45273" lon="6.79048">
        <ele>331</ele>
        <time>2016-01-31T09:12:19.000Z</time>
      </trkpt>
      <trkpt lat="47.45272" lon="6.79052">
        <ele>331</ele>
        <time>2016-01-31T09:12:20.000Z</time>
      </trkpt>
      <trkpt lat="47.45271" lon="6.79056">
        <ele>331</ele>
        <time>2016-01-31T09:12:21.000Z</time>
      </trkpt>
      <trkpt lat="47.4527" lon="6.7906">
        <ele>331</ele>
        <time>2016-01-31T09:12:22.000Z</time>
      </trkpt>
      <trkpt lat="47.45269" lon="6.79064">
        <ele>332</ele>
        <time>2016-01-31T09:12:23.000Z</time>
      </trkpt>
      <trkpt lat="47.45268" lon="6.79068">
        <ele>332</ele>
        <time>2016-01-31T09:12:24.000Z</time>
      </trkpt>
      <trkpt lat="47.45267" lon="6.79072">
        <ele>332</ele>
        <time>2016-01-31T09:12:25.000Z</time>
      </trkpt>
      <trkpt lat="47.45265" lon="6.79076">
        <ele>332</ele>
        <time>2016-01-31T09:12:26.000Z</time>
      </trkpt>
      <trkpt lat="47.45264" lon="6.7908">
        <ele>332</ele>
        <time>2016-01-31T09:12:27.000Z</time>
      </trkpt>
      <trkpt lat="47.45263" lon="6.79084">
        <ele>332</ele>
        <time>2016-01-31T09:12:28.000Z</time>
      </trkpt>
      <trkpt lat="47.45262" lon="6.79088">
        <ele>332</ele>
        <time>2016-01-31T09:12:29.000Z</time>
      </trkpt>
      <trkpt lat="47.4526" lon="6.79092">
        <ele>332</ele>
        <time>2016-01-31T09:12:30.000Z</time>
      </trkpt>
      <trkpt lat="47.45259" lon="6.79096">
        <ele>332</ele>
        <time>2016-01-31T09:12:31.000Z</time>
      </trkpt>
      <trkpt lat="47.45258" lon="6.791">
        <ele>332</ele>
        <time>2016-01-31T09:12:32.000Z</time>
      </trkpt>
      <trkpt lat="47.45256" lon="6.79105">
        <ele>332</ele>
        <time>2016-01-31T09:12:33.000Z</time>
      </trkpt>
      <trkpt lat="47.45254" lon="6.79108">
        <ele>332</ele>
        <time>2016-01-31T09:12:34.000Z</time>
      </trkpt>
      <trkpt lat="47.45252" lon="6.79112">
        <ele>332</ele>
        <time>2016-01-31T09:12:34.999Z</time>
      </trkpt>
      <trkpt lat="47.4525" lon="6.79116">
        <ele>332</ele>
        <time>2016-01-31T09:12:36.000Z</time>
      </trkpt>
      <trkpt lat="47.45248" lon="6.7912">
        <ele>333</ele>
        <time>2016-01-31T09:12:37.000Z</time>
      </trkpt>
      <trkpt lat="47.45246" lon="6.79123">
        <ele>333</ele>
        <time>2016-01-31T09:12:38.000Z</time>
      </trkpt>
      <trkpt lat="47.45244" lon="6.79127">
        <ele>333</ele>
        <time>2016-01-31T09:12:38.999Z</time>
      </trkpt>
      <trkpt lat="47.45241" lon="6.79129">
        <ele>333</ele>
        <time>2016-01-31T09:12:40.000Z</time>
      </trkpt>
      <trkpt lat="47.45238" lon="6.79132">
        <ele>333</ele>
        <time>2016-01-31T09:12:41.000Z</time>
      </trkpt>
      <trkpt lat="47.45235" lon="6.79133">
        <ele>333</ele>
        <time>2016-01-31T09:12:42.000Z</time>
      </trkpt>
      <trkpt lat="47.45232" lon="6.79134">
        <ele>333</ele>
        <time>2016-01-31T09:12:43.000Z</time>
      </trkpt>
      <trkpt lat="47.45229" lon="6.79135">
        <ele>333</ele>
        <time>2016-01-31T09:12:44.000Z</time>
      </trkpt>
      <trkpt lat="47.45226" lon="6.79135">
        <ele>333</ele>
        <time>2016-01-31T09:12:45.000Z</time>
      </trkpt>
      <trkpt lat="47.45224" lon="6.79136">
        <ele>333</ele>
        <time>2016-01-31T09:12:46.000Z</time>
      </trkpt>
      <trkpt lat="47.45222" lon="6.79139">
        <ele>333</ele>
        <time>2016-01-31T09:12:47.000Z</time>
      </trkpt>
      <trkpt lat="47.4522" lon="6.79142">
        <ele>333</ele>
        <time>2016-01-31T09:12:48.000Z</time>
      </trkpt>
      <trkpt lat="47.45219" lon="6.79145">
        <ele>333</ele>
        <time>2016-01-31T09:12:49.000Z</time>
      </trkpt>
      <trkpt lat="47.45217" lon="6.79149">
        <ele>333</ele>
        <time>2016-01-31T09:12:49.999Z</time>
      </trkpt>
      <trkpt lat="47.45217" lon="6.79153">
        <ele>333</ele>
        <time>2016-01-31T09:12:51.000Z</time>
      </trkpt>
      <trkpt lat="47.45216" lon="6.79157">
        <ele>333</ele>
        <time>2016-01-31T09:12:52.000Z</time>
      </trkpt>
      <trkpt lat="47.45216" lon="6.79161">
        <ele>333</ele>
        <time>2016-01-31T09:12:53.000Z</time>
      </trkpt>
      <trkpt lat="47.45215" lon="6.79165">
        <ele>333</ele>
        <time>2016-01-31T09:12:54.000Z</time>
      </trkpt>
      <trkpt lat="47.45215" lon="6.7917">
        <ele>333</ele>
        <time>2016-01-31T09:12:55.000Z</time>
      </trkpt>
      <trkpt lat="47.45214" lon="6.79174">
        <ele>333</ele>
        <time>2016-01-31T09:12:56.000Z</time>
      </trkpt>
      <trkpt lat="47.45213" lon="6.79179">
        <ele>333</ele>
        <time>2016-01-31T09:12:57.000Z</time>
      </trkpt>
      <trkpt lat="47.45212" lon="6.79183">
        <ele>333</ele>
        <time>2016-01-31T09:12:58.000Z</time>
      </trkpt>
      <trkpt lat="47.45212" lon="6.79188">
        <ele>334</ele>
        <time>2016-01-31T09:12:59.000Z</time>
      </trkpt>
      <trkpt lat="47.45211" lon="6.79193">
        <ele>334</ele>
        <time>2016-01-31T09:13:00.000Z</time>
      </trkpt>
      <trkpt lat="47.45209" lon="6.79198">
        <ele>334</ele>
        <time>2016-01-31T09:13:01.000Z</time>
      </trkpt>
      <trkpt lat="47.45208" lon="6.79202">
        <ele>334</ele>
        <time>2016-01-31T09:13:02.000Z</time>
      </trkpt>
      <trkpt lat="47.45207" lon="6.79207">
        <ele>334</ele>
        <time>2016-01-31T09:13:03.000Z</time>
      </trkpt>
      <trkpt lat="47.45206" lon="6.79212">
        <ele>334</ele>
        <time>2016-01-31T09:13:04.000Z</time>
      </trkpt>
      <trkpt lat="47.45205" lon="6.79217">
        <ele>334</ele>
        <time>2016-01-31T09:13:05.000Z</time>
      </trkpt>
      <trkpt lat="47.45204" lon="6.79223">
        <ele>334</ele>
        <time>2016-01-31T09:13:06.000Z</time>
      </trkpt>
      <trkpt lat="47.45203" lon="6.79228">
        <ele>334</ele>
        <time>2016-01-31T09:13:06.999Z</time>
      </trkpt>
      <trkpt lat="47.45202" lon="6.79235">
        <ele>334</ele>
        <time>2016-01-31T09:13:08.000Z</time>
      </trkpt>
      <trkpt lat="47.45202" lon="6.79241">
        <ele>334</ele>
        <time>2016-01-31T09:13:09.000Z</time>
      </trkpt>
      <trkpt lat="47.45202" lon="6.79246">
        <ele>334</ele>
        <time>2016-01-31T09:13:09.999Z</time>
      </trkpt>
      <trkpt lat="47.45202" lon="6.79252">
        <ele>334</ele>
        <time>2016-01-31T09:13:11.000Z</time>
      </trkpt>
      <trkpt lat="47.45198" lon="6.7926">
        <ele>334</ele>
        <time>2016-01-31T09:13:12.000Z</time>
      </trkpt>
      <trkpt lat="47.45195" lon="6.79266">
        <ele>334</ele>
        <time>2016-01-31T09:13:13.000Z</time>
      </trkpt>
      <trkpt lat="47.45193" lon="6.79271">
        <ele>334</ele>
        <time>2016-01-31T09:13:14.000Z</time>
      </trkpt>
      <trkpt lat="47.45191" lon="6.79277">
        <ele>334</ele>
        <time>2016-01-31T09:13:15.000Z</time>
      </trkpt>
      <trkpt lat="47.45188" lon="6.79283">
        <ele>334</ele>
        <time>2016-01-31T09:13:16.000Z</time>
      </trkpt>
      <trkpt lat="47.45186" lon="6.79289">
        <ele>334</ele>
        <time>2016-01-31T09:13:17.000Z</time>
      </trkpt>
      <trkpt lat="47.45183" lon="6.79296">
        <ele>334</ele>
        <time>2016-01-31T09:13:18.000Z</time>
      </trkpt>
      <trkpt lat="47.4518" lon="6.79302">
        <ele>334</ele>
        <time>2016-01-31T09:13:19.000Z</time>
      </trkpt>
      <trkpt lat="47.45177" lon="6.79309">
        <ele>334</ele>
        <time>2016-01-31T09:13:20.001Z</time>
      </trkpt>
      <trkpt lat="47.45176" lon="6.79315">
        <ele>334</ele>
        <time>2016-01-31T09:13:21.000Z</time>
      </trkpt>
      <trkpt lat="47.45175" lon="6.79323">
        <ele>335</ele>
        <time>2016-01-31T09:13:22.000Z</time>
      </trkpt>
      <trkpt lat="47.45173" lon="6.79331">
        <ele>335</ele>
        <time>2016-01-31T09:13:23.000Z</time>
      </trkpt>
      <trkpt lat="47.45171" lon="6.79339">
        <ele>334</ele>
        <time>2016-01-31T09:13:24.000Z</time>
      </trkpt>
      <trkpt lat="47.45169" lon="6.79347">
        <ele>334</ele>
        <time>2016-01-31T09:13:25.000Z</time>
      </trkpt>
      <trkpt lat="47.45168" lon="6.79354">
        <ele>334</ele>
        <time>2016-01-31T09:13:26.000Z</time>
      </trkpt>
      <trkpt lat="47.45166" lon="6.79362">
        <ele>334</ele>
        <time>2016-01-31T09:13:27.000Z</time>
      </trkpt>
      <trkpt lat="47.45165" lon="6.79369">
        <ele>334</ele>
        <time>2016-01-31T09:13:28.000Z</time>
      </trkpt>
      <trkpt lat="47.45163" lon="6.79375">
        <ele>334</ele>
        <time>2016-01-31T09:13:29.000Z</time>
      </trkpt>
      <trkpt lat="47.45161" lon="6.79382">
        <ele>334</ele>
        <time>2016-01-31T09:13:30.000Z</time>
      </trkpt>
      <trkpt lat="47.4516" lon="6.79389">
        <ele>334</ele>
        <time>2016-01-31T09:13:31.000Z</time>
      </trkpt>
      <trkpt lat="47.45158" lon="6.79396">
        <ele>334</ele>
        <time>2016-01-31T09:13:32.000Z</time>
      </trkpt>
      <trkpt lat="47.45156" lon="6.79402">
        <ele>333</ele>
        <time>2016-01-31T09:13:33.000Z</time>
      </trkpt>
      <trkpt lat="47.45154" lon="6.79409">
        <ele>333</ele>
        <time>2016-01-31T09:13:34.000Z</time>
      </trkpt>
      <trkpt lat="47.45153" lon="6.79416">
        <ele>333</ele>
        <time>2016-01-31T09:13:35.000Z</time>
      </trkpt>
      <trkpt lat="47.45152" lon="6.79422">
        <ele>333</ele>
        <time>2016-01-31T09:13:36.000Z</time>
      </trkpt>
      <trkpt lat="47.4515" lon="6.79429">
        <ele>333</ele>
        <time>2016-01-31T09:13:37.000Z</time>
      </trkpt>
      <trkpt lat="47.45149" lon="6.79435">
        <ele>333</ele>
        <time>2016-01-31T09:13:38.000Z</time>
      </trkpt>
      <trkpt lat="47.45147" lon="6.79442">
        <ele>333</ele>
        <time>2016-01-31T09:13:39.000Z</time>
      </trkpt>
      <trkpt lat="47.45146" lon="6.79448">
        <ele>333</ele>
        <time>2016-01-31T09:13:40.000Z</time>
      </trkpt>
      <trkpt lat="47.45144" lon="6.79455">
        <ele>333</ele>
        <time>2016-01-31T09:13:41.000Z</time>
      </trkpt>
      <trkpt lat="47.45142" lon="6.79462">
        <ele>333</ele>
        <time>2016-01-31T09:13:42.000Z</time>
      </trkpt>
      <trkpt lat="47.45141" lon="6.79469">
        <ele>333</ele>
        <time>2016-01-31T09:13:43.000Z</time>
      </trkpt>
      <trkpt lat="47.4514" lon="6.79475">
        <ele>333</ele>
        <time>2016-01-31T09:13:44.000Z</time>
      </trkpt>
      <trkpt lat="47.45138" lon="6.79482">
        <ele>333</ele>
        <time>2016-01-31T09:13:45.000Z</time>
      </trkpt>
      <trkpt lat="47.45137" lon="6.79488">
        <ele>333</ele>
        <time>2016-01-31T09:13:46.000Z</time>
      </trkpt>
      <trkpt lat="47.45136" lon="6.79496">
        <ele>333</ele>
        <time>2016-01-31T09:13:47.000Z</time>
      </trkpt>
      <trkpt lat="47.45135" lon="6.79501">
        <ele>333</ele>
        <time>2016-01-31T09:13:48.000Z</time>
      </trkpt>
      <trkpt lat="47.45133" lon="6.79508">
        <ele>333</ele>
        <time>2016-01-31T09:13:49.000Z</time>
      </trkpt>
      <trkpt lat="47.45132" lon="6.79514">
        <ele>333</ele>
        <time>2016-01-31T09:13:50.000Z</time>
      </trkpt>
      <trkpt lat="47.45131" lon="6.79519">
        <ele>333</ele>
        <time>2016-01-31T09:13:51.000Z</time>
      </trkpt>
      <trkpt lat="47.45131" lon="6.79524">
        <ele>333</ele>
        <time>2016-01-31T09:13:52.000Z</time>
      </trkpt>
      <trkpt lat="47.45131" lon="6.79528">
        <ele>333</ele>
        <time>2016-01-31T09:13:53.000Z</time>
      </trkpt>
      <trkpt lat="47.4513" lon="6.79534">
        <ele>333</ele>
        <time>2016-01-31T09:13:55.000Z</time>
      </trkpt>
      <trkpt lat="47.45129" lon="6.79535">
        <ele>333</ele>
        <time>2016-01-31T09:13:56.000Z</time>
      </trkpt>
      <trkpt lat="47.45127" lon="6.79538">
        <ele>333</ele>
        <time>2016-01-31T09:13:58.000Z</time>
      </trkpt>
      <trkpt lat="47.45125" lon="6.7954">
        <ele>333</ele>
        <time>2016-01-31T09:13:59.000Z</time>
      </trkpt>
      <trkpt lat="47.45122" lon="6.79543">
        <ele>333</ele>
        <time>2016-01-31T09:14:00.000Z</time>
      </trkpt>
      <trkpt lat="47.45117" lon="6.79552">
        <ele>333</ele>
        <time>2016-01-31T09:14:01.000Z</time>
      </trkpt>
      <trkpt lat="47.45114" lon="6.79556">
        <ele>333</ele>
        <time>2016-01-31T09:14:02.000Z</time>
      </trkpt>
      <trkpt lat="47.45111" lon="6.7956">
        <ele>333</ele>
        <time>2016-01-31T09:14:03.001Z</time>
      </trkpt>
      <trkpt lat="47.45108" lon="6.79564">
        <ele>333</ele>
        <time>2016-01-31T09:14:04.000Z</time>
      </trkpt>
      <trkpt lat="47.45104" lon="6.79569">
        <ele>333</ele>
        <time>2016-01-31T09:14:05.000Z</time>
      </trkpt>
      <trkpt lat="47.45099" lon="6.79573">
        <ele>333</ele>
        <time>2016-01-31T09:14:06.000Z</time>
      </trkpt>
      <trkpt lat="47.45096" lon="6.79578">
        <ele>333</ele>
        <time>2016-01-31T09:14:07.000Z</time>
      </trkpt>
      <trkpt lat="47.45093" lon="6.79582">
        <ele>333</ele>
        <time>2016-01-31T09:14:08.000Z</time>
      </trkpt>
      <trkpt lat="47.45089" lon="6.79584">
        <ele>333</ele>
        <time>2016-01-31T09:14:09.000Z</time>
      </trkpt>
      <trkpt lat="47.45086" lon="6.79588">
        <ele>333</ele>
        <time>2016-01-31T09:14:10.000Z</time>
      </trkpt>
      <trkpt lat="47.45082" lon="6.79592">
        <ele>333</ele>
        <time>2016-01-31T09:14:11.000Z</time>
      </trkpt>
      <trkpt lat="47.45079" lon="6.79596">
        <ele>334</ele>
        <time>2016-01-31T09:14:11.999Z</time>
      </trkpt>
      <trkpt lat="47.45076" lon="6.796">
        <ele>334</ele>
        <time>2016-01-31T09:14:13.000Z</time>
      </trkpt>
      <trkpt lat="47.45073" lon="6.79604">
        <ele>334</ele>
        <time>2016-01-31T09:14:14.001Z</time>
      </trkpt>
      <trkpt lat="47.45071" lon="6.79607">
        <ele>334</ele>
        <time>2016-01-31T09:14:15.000Z</time>
      </trkpt>
      <trkpt lat="47.45069" lon="6.79611">
        <ele>334</ele>
        <time>2016-01-31T09:14:16.000Z</time>
      </trkpt>
      <trkpt lat="47.45067" lon="6.79614">
        <ele>334</ele>
        <time>2016-01-31T09:14:17.000Z</time>
      </trkpt>
      <trkpt lat="47.45064" lon="6.79616">
        <ele>334</ele>
        <time>2016-01-31T09:14:18.000Z</time>
      </trkpt>
      <trkpt lat="47.45062" lon="6.79618">
        <ele>334</ele>
        <time>2016-01-31T09:14:18.999Z</time>
      </trkpt>
      <trkpt lat="47.4506" lon="6.79621">
        <ele>334</ele>
        <time>2016-01-31T09:14:20.000Z</time>
      </trkpt>
      <trkpt lat="47.45057" lon="6.79624">
        <ele>334</ele>
        <time>2016-01-31T09:14:20.999Z</time>
      </trkpt>
      <trkpt lat="47.45054" lon="6.79627">
        <ele>334</ele>
        <time>2016-01-31T09:14:23.001Z</time>
      </trkpt>
      <trkpt lat="47.45053" lon="6.79629">
        <ele>334</ele>
        <time>2016-01-31T09:14:24.000Z</time>
      </trkpt>
      <trkpt lat="47.45051" lon="6.79634">
        <ele>335</ele>
        <time>2016-01-31T09:14:26.000Z</time>
      </trkpt>
      <trkpt lat="47.45051" lon="6.79637">
        <ele>335</ele>
        <time>2016-01-31T09:14:27.000Z</time>
      </trkpt>
      <trkpt lat="47.45049" lon="6.79642">
        <ele>335</ele>
        <time>2016-01-31T09:14:28.000Z</time>
      </trkpt>
      <trkpt lat="47.45047" lon="6.79646">
        <ele>335</ele>
        <time>2016-01-31T09:14:29.000Z</time>
      </trkpt>
      <trkpt lat="47.45046" lon="6.7965">
        <ele>335</ele>
        <time>2016-01-31T09:14:30.000Z</time>
      </trkpt>
      <trkpt lat="47.45044" lon="6.79654">
        <ele>335</ele>
        <time>2016-01-31T09:14:31.000Z</time>
      </trkpt>
      <trkpt lat="47.45043" lon="6.79658">
        <ele>335</ele>
        <time>2016-01-31T09:14:32.000Z</time>
      </trkpt>
      <trkpt lat="47.45042" lon="6.79661">
        <ele>335</ele>
        <time>2016-01-31T09:14:33.000Z</time>
      </trkpt>
      <trkpt lat="47.45041" lon="6.79667">
        <ele>338</ele>
        <time>2016-01-31T09:14:35.000Z</time>
      </trkpt>
      <trkpt lat="47.4504" lon="6.79671">
        <ele>338</ele>
        <time>2016-01-31T09:14:36.000Z</time>
      </trkpt>
      <trkpt lat="47.4504" lon="6.79674">
        <ele>338</ele>
        <time>2016-01-31T09:14:37.000Z</time>
      </trkpt>
      <trkpt lat="47.45039" lon="6.79677">
        <ele>338</ele>
        <time>2016-01-31T09:14:37.998Z</time>
      </trkpt>
      <trkpt lat="47.4504" lon="6.79682">
        <ele>338</ele>
        <time>2016-01-31T09:14:39.000Z</time>
      </trkpt>
      <trkpt lat="47.4504" lon="6.79687">
        <ele>338</ele>
        <time>2016-01-31T09:14:40.000Z</time>
      </trkpt>
      <trkpt lat="47.4504" lon="6.79691">
        <ele>338</ele>
        <time>2016-01-31T09:14:41.000Z</time>
      </trkpt>
      <trkpt lat="47.4504" lon="6.79695">
        <ele>339</ele>
        <time>2016-01-31T09:14:41.999Z</time>
      </trkpt>
      <trkpt lat="47.4504" lon="6.79699">
        <ele>339</ele>
        <time>2016-01-31T09:14:43.000Z</time>
      </trkpt>
      <trkpt lat="47.45039" lon="6.79702">
        <ele>339</ele>
        <time>2016-01-31T09:14:44.000Z</time>
      </trkpt>
      <trkpt lat="47.45038" lon="6.79708">
        <ele>339</ele>
        <time>2016-01-31T09:14:47.000Z</time>
      </trkpt>
      <trkpt lat="47.45038" lon="6.7971">
        <ele>339</ele>
        <time>2016-01-31T09:14:48.000Z</time>
      </trkpt>
      <trkpt lat="47.45035" lon="6.79715">
        <ele>339</ele>
        <time>2016-01-31T09:14:54.000Z</time>
      </trkpt>
      <trkpt lat="47.45034" lon="6.79716">
        <ele>340</ele>
        <time>2016-01-31T09:14:55.000Z</time>
      </trkpt>
      <trkpt lat="47.45031" lon="6.79718">
        <ele>340</ele>
        <time>2016-01-31T09:14:57.001Z</time>
      </trkpt>
      <trkpt lat="47.45029" lon="6.79718">
        <ele>340</ele>
        <time>2016-01-31T09:14:58.000Z</time>
      </trkpt>
      <trkpt lat="47.45026" lon="6.79716">
        <ele>340</ele>
        <time>2016-01-31T09:15:01.000Z</time>
      </trkpt>
      <trkpt lat="47.45025" lon="6.79715">
        <ele>340</ele>
        <time>2016-01-31T09:15:02.000Z</time>
      </trkpt>
      <trkpt lat="47.45022" lon="6.7971">
        <ele>340</ele>
        <time>2016-01-31T09:15:05.000Z</time>
      </trkpt>
      <trkpt lat="47.45022" lon="6.79709">
        <ele>339</ele>
        <time>2016-01-31T09:15:06.000Z</time>
      </trkpt>
      <trkpt lat="47.45019" lon="6.79706">
        <ele>339</ele>
        <time>2016-01-31T09:15:09.000Z</time>
      </trkpt>
      <trkpt lat="47.45018" lon="6.79705">
        <ele>339</ele>
        <time>2016-01-31T09:15:10.000Z</time>
      </trkpt>
      <trkpt lat="47.45014" lon="6.79702">
        <ele>339</ele>
        <time>2016-01-31T09:15:14.000Z</time>
      </trkpt>
      <trkpt lat="47.45013" lon="6.79701">
        <ele>339</ele>
        <time>2016-01-31T09:15:15.000Z</time>
      </trkpt>
      <trkpt lat="47.45011" lon="6.79696">
        <ele>339</ele>
        <time>2016-01-31T09:15:19.000Z</time>
      </trkpt>
      <trkpt lat="47.4501" lon="6.79694">
        <ele>339</ele>
        <time>2016-01-31T09:15:20.000Z</time>
      </trkpt>
      <trkpt lat="47.45006" lon="6.79695">
        <ele>339</ele>
        <time>2016-01-31T09:15:24.000Z</time>
      </trkpt>
      <trkpt lat="47.45005" lon="6.79696">
        <ele>339</ele>
        <time>2016-01-31T09:15:25.000Z</time>
      </trkpt>
      <trkpt lat="47.45001" lon="6.79698">
        <ele>339</ele>
        <time>2016-01-31T09:15:29.000Z</time>
      </trkpt>
      <trkpt lat="47.44999" lon="6.79698">
        <ele>342</ele>
        <time>2016-01-31T09:15:30.000Z</time>
      </trkpt>
      <trkpt lat="47.44995" lon="6.79695">
        <ele>342</ele>
        <time>2016-01-31T09:15:33.000Z</time>
      </trkpt>
      <trkpt lat="47.44994" lon="6.79694">
        <ele>342</ele>
        <time>2016-01-31T09:15:34.000Z</time>
      </trkpt>
      <trkpt lat="47.44991" lon="6.79691">
        <ele>341</ele>
        <time>2016-01-31T09:15:37.000Z</time>
      </trkpt>
      <trkpt lat="47.4499" lon="6.7969">
        <ele>341</ele>
        <time>2016-01-31T09:15:38.000Z</time>
      </trkpt>
      <trkpt lat="47.44986" lon="6.79688">
        <ele>341</ele>
        <time>2016-01-31T09:15:41.000Z</time>
      </trkpt>
      <trkpt lat="47.44985" lon="6.79688">
        <ele>341</ele>
        <time>2016-01-31T09:15:42.000Z</time>
      </trkpt>
      <trkpt lat="47.44981" lon="6.79688">
        <ele>342</ele>
        <time>2016-01-31T09:15:44.000Z</time>
      </trkpt>
      <trkpt lat="47.4498" lon="6.79689">
        <ele>342</ele>
        <time>2016-01-31T09:15:45.000Z</time>
      </trkpt>
      <trkpt lat="47.44977" lon="6.7969">
        <ele>342</ele>
        <time>2016-01-31T09:15:47.000Z</time>
      </trkpt>
      <trkpt lat="47.44975" lon="6.79691">
        <ele>342</ele>
        <time>2016-01-31T09:15:48.000Z</time>
      </trkpt>
      <trkpt lat="47.44972" lon="6.79692">
        <ele>342</ele>
        <time>2016-01-31T09:15:50.000Z</time>
      </trkpt>
      <trkpt lat="47.4497" lon="6.79694">
        <ele>343</ele>
        <time>2016-01-31T09:15:51.000Z</time>
      </trkpt>
      <trkpt lat="47.44967" lon="6.79696">
        <ele>343</ele>
        <time>2016-01-31T09:15:53.000Z</time>
      </trkpt>
      <trkpt lat="47.44965" lon="6.79698">
        <ele>343</ele>
        <time>2016-01-31T09:15:54.000Z</time>
      </trkpt>
      <trkpt lat="47.44963" lon="6.79701">
        <ele>343</ele>
        <time>2016-01-31T09:15:56.000Z</time>
      </trkpt>
      <trkpt lat="47.44962" lon="6.79702">
        <ele>343</ele>
        <time>2016-01-31T09:15:56.999Z</time>
      </trkpt>
      <trkpt lat="47.44959" lon="6.79707">
        <ele>344</ele>
        <time>2016-01-31T09:16:00.000Z</time>
      </trkpt>
      <trkpt lat="47.44959" lon="6.7971">
        <ele>344</ele>
        <time>2016-01-31T09:16:01.000Z</time>
      </trkpt>
      <trkpt lat="47.44957" lon="6.79714">
        <ele>344</ele>
        <time>2016-01-31T09:16:03.000Z</time>
      </trkpt>
      <trkpt lat="47.44955" lon="6.79716">
        <ele>344</ele>
        <time>2016-01-31T09:16:04.000Z</time>
      </trkpt>
      <trkpt lat="47.44953" lon="6.79719">
        <ele>344</ele>
        <time>2016-01-31T09:16:05.000Z</time>
      </trkpt>
      <trkpt lat="47.44951" lon="6.7972">
        <ele>345</ele>
        <time>2016-01-31T09:16:06.000Z</time>
      </trkpt>
      <trkpt lat="47.44949" lon="6.79723">
        <ele>345</ele>
        <time>2016-01-31T09:16:07.000Z</time>
      </trkpt>
      <trkpt lat="47.44947" lon="6.79724">
        <ele>345</ele>
        <time>2016-01-31T09:16:08.000Z</time>
      </trkpt>
      <trkpt lat="47.44944" lon="6.79727">
        <ele>345</ele>
        <time>2016-01-31T09:16:10.000Z</time>
      </trkpt>
      <trkpt lat="47.44942" lon="6.79728">
        <ele>345</ele>
        <time>2016-01-31T09:16:11.000Z</time>
      </trkpt>
      <trkpt lat="47.44938" lon="6.79729">
        <ele>346</ele>
        <time>2016-01-31T09:16:13.000Z</time>
      </trkpt>
      <trkpt lat="47.44937" lon="6.79729">
        <ele>346</ele>
        <time>2016-01-31T09:16:14.000Z</time>
      </trkpt>
      <trkpt lat="47.44933" lon="6.79732">
        <ele>346</ele>
        <time>2016-01-31T09:16:18.000Z</time>
      </trkpt>
      <trkpt lat="47.44931" lon="6.79734">
        <ele>346</ele>
        <time>2016-01-31T09:16:19.000Z</time>
      </trkpt>
      <trkpt lat="47.44929" lon="6.79737">
        <ele>347</ele>
        <time>2016-01-31T09:16:21.000Z</time>
      </trkpt>
      <trkpt lat="47.44927" lon="6.79738">
        <ele>347</ele>
        <time>2016-01-31T09:16:22.000Z</time>
      </trkpt>
      <trkpt lat="47.44924" lon="6.79741">
        <ele>348</ele>
        <time>2016-01-31T09:16:24.000Z</time>
      </trkpt>
      <trkpt lat="47.44922" lon="6.79742">
        <ele>348</ele>
        <time>2016-01-31T09:16:25.000Z</time>
      </trkpt>
      <trkpt lat="47.44919" lon="6.79744">
        <ele>349</ele>
        <time>2016-01-31T09:16:27.000Z</time>
      </trkpt>
      <trkpt lat="47.44917" lon="6.79746">
        <ele>349</ele>
        <time>2016-01-31T09:16:28.000Z</time>
      </trkpt>
      <trkpt lat="47.44913" lon="6.79748">
        <ele>349</ele>
        <time>2016-01-31T09:16:30.000Z</time>
      </trkpt>
      <trkpt lat="47.44911" lon="6.79749">
        <ele>349</ele>
        <time>2016-01-31T09:16:31.000Z</time>
      </trkpt>
      <trkpt lat="47.44909" lon="6.79749">
        <ele>349</ele>
        <time>2016-01-31T09:16:32.000Z</time>
      </trkpt>
      <trkpt lat="47.44907" lon="6.7975">
        <ele>349</ele>
        <time>2016-01-31T09:16:33.000Z</time>
      </trkpt>
      <trkpt lat="47.44902" lon="6.79749">
        <ele>349</ele>
        <time>2016-01-31T09:16:35.000Z</time>
      </trkpt>
      <trkpt lat="47.449" lon="6.79748">
        <ele>348</ele>
        <time>2016-01-31T09:16:36.000Z</time>
      </trkpt>
      <trkpt lat="47.44898" lon="6.79749">
        <ele>348</ele>
        <time>2016-01-31T09:16:37.000Z</time>
      </trkpt>
      <trkpt lat="47.44895" lon="6.79749">
        <ele>348</ele>
        <time>2016-01-31T09:16:38.000Z</time>
      </trkpt>
      <trkpt lat="47.44893" lon="6.79749">
        <ele>348</ele>
        <time>2016-01-31T09:16:39.000Z</time>
      </trkpt>
      <trkpt lat="47.44891" lon="6.79748">
        <ele>348</ele>
        <time>2016-01-31T09:16:40.000Z</time>
      </trkpt>
      <trkpt lat="47.44887" lon="6.79746">
        <ele>348</ele>
        <time>2016-01-31T09:16:42.000Z</time>
      </trkpt>
      <trkpt lat="47.44885" lon="6.79744">
        <ele>348</ele>
        <time>2016-01-31T09:16:43.000Z</time>
      </trkpt>
      <trkpt lat="47.44882" lon="6.79743">
        <ele>348</ele>
        <time>2016-01-31T09:16:45.000Z</time>
      </trkpt>
      <trkpt lat="47.4488" lon="6.79741">
        <ele>348</ele>
        <time>2016-01-31T09:16:46.000Z</time>
      </trkpt>
      <trkpt lat="47.44877" lon="6.79738">
        <ele>348</ele>
        <time>2016-01-31T09:16:48.000Z</time>
      </trkpt>
      <trkpt lat="47.44876" lon="6.79735">
        <ele>347</ele>
        <time>2016-01-31T09:16:49.000Z</time>
      </trkpt>
      <trkpt lat="47.44873" lon="6.79732">
        <ele>347</ele>
        <time>2016-01-31T09:16:51.000Z</time>
      </trkpt>
      <trkpt lat="47.44871" lon="6.79731">
        <ele>347</ele>
        <time>2016-01-31T09:16:52.000Z</time>
      </trkpt>
      <trkpt lat="47.44868" lon="6.79729">
        <ele>347</ele>
        <time>2016-01-31T09:16:54.000Z</time>
      </trkpt>
      <trkpt lat="47.44865" lon="6.79728">
        <ele>347</ele>
        <time>2016-01-31T09:16:55.000Z</time>
      </trkpt>
      <trkpt lat="47.44863" lon="6.79727">
        <ele>347</ele>
        <time>2016-01-31T09:16:56.000Z</time>
      </trkpt>
      <trkpt lat="47.4486" lon="6.79725">
        <ele>347</ele>
        <time>2016-01-31T09:16:57.000Z</time>
      </trkpt>
      <trkpt lat="47.44858" lon="6.79723">
        <ele>347</ele>
        <time>2016-01-31T09:16:58.000Z</time>
      </trkpt>
      <trkpt lat="47.44855" lon="6.79721">
        <ele>347</ele>
        <time>2016-01-31T09:16:59.000Z</time>
      </trkpt>
      <trkpt lat="47.44853" lon="6.79721">
        <ele>347</ele>
        <time>2016-01-31T09:17:00.000Z</time>
      </trkpt>
      <trkpt lat="47.4485" lon="6.79721">
        <ele>347</ele>
        <time>2016-01-31T09:17:01.000Z</time>
      </trkpt>
      <trkpt lat="47.44847" lon="6.79721">
        <ele>347</ele>
        <time>2016-01-31T09:17:02.000Z</time>
      </trkpt>
      <trkpt lat="47.44844" lon="6.79721">
        <ele>347</ele>
        <time>2016-01-31T09:17:03.000Z</time>
      </trkpt>
      <trkpt lat="47.4484" lon="6.79721">
        <ele>347</ele>
        <time>2016-01-31T09:17:04.000Z</time>
      </trkpt>
      <trkpt lat="47.44837" lon="6.79722">
        <ele>347</ele>
        <time>2016-01-31T09:17:05.000Z</time>
      </trkpt>
      <trkpt lat="47.44834" lon="6.79723">
        <ele>347</ele>
        <time>2016-01-31T09:17:06.000Z</time>
      </trkpt>
      <trkpt lat="47.44831" lon="6.79724">
        <ele>348</ele>
        <time>2016-01-31T09:17:07.000Z</time>
      </trkpt>
      <trkpt lat="47.44828" lon="6.79726">
        <ele>348</ele>
        <time>2016-01-31T09:17:08.000Z</time>
      </trkpt>
      <trkpt lat="47.44825" lon="6.79727">
        <ele>348</ele>
        <time>2016-01-31T09:17:09.000Z</time>
      </trkpt>
      <trkpt lat="47.44823" lon="6.79729">
        <ele>348</ele>
        <time>2016-01-31T09:17:10.000Z</time>
      </trkpt>
      <trkpt lat="47.44821" lon="6.79731">
        <ele>348</ele>
        <time>2016-01-31T09:17:11.000Z</time>
      </trkpt>
      <trkpt lat="47.44819" lon="6.79734">
        <ele>348</ele>
        <time>2016-01-31T09:17:12.000Z</time>
      </trkpt>
      <trkpt lat="47.44818" lon="6.79738">
        <ele>349</ele>
        <time>2016-01-31T09:17:13.000Z</time>
      </trkpt>
      <trkpt lat="47.44817" lon="6.79742">
        <ele>349</ele>
        <time>2016-01-31T09:17:14.000Z</time>
      </trkpt>
      <trkpt lat="47.44817" lon="6.79747">
        <ele>349</ele>
        <time>2016-01-31T09:17:15.000Z</time>
      </trkpt>
      <trkpt lat="47.44817" lon="6.79751">
        <ele>352</ele>
        <time>2016-01-31T09:17:16.000Z</time>
      </trkpt>
      <trkpt lat="47.44817" lon="6.79756">
        <ele>352</ele>
        <time>2016-01-31T09:17:17.000Z</time>
      </trkpt>
      <trkpt lat="47.44816" lon="6.7976">
        <ele>352</ele>
        <time>2016-01-31T09:17:18.000Z</time>
      </trkpt>
      <trkpt lat="47.44816" lon="6.79764">
        <ele>352</ele>
        <time>2016-01-31T09:17:19.000Z</time>
      </trkpt>
      <trkpt lat="47.44815" lon="6.79768">
        <ele>352</ele>
        <time>2016-01-31T09:17:20.000Z</time>
      </trkpt>
      <trkpt lat="47.44815" lon="6.79772">
        <ele>352</ele>
        <time>2016-01-31T09:17:21.000Z</time>
      </trkpt>
      <trkpt lat="47.44814" lon="6.79776">
        <ele>352</ele>
        <time>2016-01-31T09:17:22.000Z</time>
      </trkpt>
      <trkpt lat="47.44813" lon="6.79781">
        <ele>353</ele>
        <time>2016-01-31T09:17:23.000Z</time>
      </trkpt>
      <trkpt lat="47.44813" lon="6.79785">
        <ele>353</ele>
        <time>2016-01-31T09:17:24.000Z</time>
      </trkpt>
      <trkpt lat="47.44813" lon="6.79788">
        <ele>353</ele>
        <time>2016-01-31T09:17:25.000Z</time>
      </trkpt>
      <trkpt lat="47.44813" lon="6.79792">
        <ele>353</ele>
        <time>2016-01-31T09:17:26.000Z</time>
      </trkpt>
      <trkpt lat="47.44812" lon="6.79795">
        <ele>353</ele>
        <time>2016-01-31T09:17:27.000Z</time>
      </trkpt>
      <trkpt lat="47.44812" lon="6.79799">
        <ele>353</ele>
        <time>2016-01-31T09:17:28.000Z</time>
      </trkpt>
      <trkpt lat="47.44811" lon="6.79802">
        <ele>353</ele>
        <time>2016-01-31T09:17:29.000Z</time>
      </trkpt>
      <trkpt lat="47.44811" lon="6.79806">
        <ele>353</ele>
        <time>2016-01-31T09:17:30.000Z</time>
      </trkpt>
      <trkpt lat="47.4481" lon="6.7981">
        <ele>353</ele>
        <time>2016-01-31T09:17:31.000Z</time>
      </trkpt>
      <trkpt lat="47.4481" lon="6.79813">
        <ele>353</ele>
        <time>2016-01-31T09:17:32.000Z</time>
      </trkpt>
      <trkpt lat="47.44809" lon="6.79817">
        <ele>353</ele>
        <time>2016-01-31T09:17:33.000Z</time>
      </trkpt>
      <trkpt lat="47.44809" lon="6.79821">
        <ele>353</ele>
        <time>2016-01-31T09:17:34.000Z</time>
      </trkpt>
      <trkpt lat="47.44808" lon="6.79825">
        <ele>353</ele>
        <time>2016-01-31T09:17:35.000Z</time>
      </trkpt>
      <trkpt lat="47.44808" lon="6.79829">
        <ele>353</ele>
        <time>2016-01-31T09:17:36.000Z</time>
      </trkpt>
      <trkpt lat="47.44807" lon="6.79833">
        <ele>353</ele>
        <time>2016-01-31T09:17:36.999Z</time>
      </trkpt>
      <trkpt lat="47.44807" lon="6.79837">
        <ele>354</ele>
        <time>2016-01-31T09:17:38.000Z</time>
      </trkpt>
      <trkpt lat="47.44806" lon="6.79841">
        <ele>354</ele>
        <time>2016-01-31T09:17:39.000Z</time>
      </trkpt>
      <trkpt lat="47.44805" lon="6.79846">
        <ele>354</ele>
        <time>2016-01-31T09:17:40.000Z</time>
      </trkpt>
      <trkpt lat="47.44804" lon="6.7985">
        <ele>354</ele>
        <time>2016-01-31T09:17:41.000Z</time>
      </trkpt>
      <trkpt lat="47.44803" lon="6.79854">
        <ele>354</ele>
        <time>2016-01-31T09:17:42.000Z</time>
      </trkpt>
      <trkpt lat="47.44803" lon="6.79857">
        <ele>354</ele>
        <time>2016-01-31T09:17:43.000Z</time>
      </trkpt>
      <trkpt lat="47.44803" lon="6.79861">
        <ele>354</ele>
        <time>2016-01-31T09:17:44.000Z</time>
      </trkpt>
      <trkpt lat="47.44802" lon="6.79865">
        <ele>355</ele>
        <time>2016-01-31T09:17:44.999Z</time>
      </trkpt>
      <trkpt lat="47.44802" lon="6.79869">
        <ele>355</ele>
        <time>2016-01-31T09:17:46.000Z</time>
      </trkpt>
      <trkpt lat="47.44802" lon="6.79873">
        <ele>355</ele>
        <time>2016-01-31T09:17:47.000Z</time>
      </trkpt>
      <trkpt lat="47.44802" lon="6.79877">
        <ele>355</ele>
        <time>2016-01-31T09:17:48.000Z</time>
      </trkpt>
      <trkpt lat="47.44801" lon="6.79881">
        <ele>355</ele>
        <time>2016-01-31T09:17:48.999Z</time>
      </trkpt>
      <trkpt lat="47.448" lon="6.79884">
        <ele>355</ele>
        <time>2016-01-31T09:17:50.000Z</time>
      </trkpt>
      <trkpt lat="47.44799" lon="6.79887">
        <ele>355</ele>
        <time>2016-01-31T09:17:51.000Z</time>
      </trkpt>
      <trkpt lat="47.44799" lon="6.79891">
        <ele>355</ele>
        <time>2016-01-31T09:17:52.000Z</time>
      </trkpt>
      <trkpt lat="47.44798" lon="6.79895">
        <ele>355</ele>
        <time>2016-01-31T09:17:53.000Z</time>
      </trkpt>
      <trkpt lat="47.44797" lon="6.79898">
        <ele>355</ele>
        <time>2016-01-31T09:17:54.000Z</time>
      </trkpt>
      <trkpt lat="47.44797" lon="6.79902">
        <ele>355</ele>
        <time>2016-01-31T09:17:55.000Z</time>
      </trkpt>
      <trkpt lat="47.44796" lon="6.79905">
        <ele>355</ele>
        <time>2016-01-31T09:17:56.000Z</time>
      </trkpt>
      <trkpt lat="47.44795" lon="6.79909">
        <ele>355</ele>
        <time>2016-01-31T09:17:57.000Z</time>
      </trkpt>
      <trkpt lat="47.44795" lon="6.79913">
        <ele>355</ele>
        <time>2016-01-31T09:17:58.000Z</time>
      </trkpt>
      <trkpt lat="47.44794" lon="6.79917">
        <ele>356</ele>
        <time>2016-01-31T09:17:58.999Z</time>
      </trkpt>
      <trkpt lat="47.44794" lon="6.79925">
        <ele>356</ele>
        <time>2016-01-31T09:18:01.000Z</time>
      </trkpt>
      <trkpt lat="47.44794" lon="6.79929">
        <ele>356</ele>
        <time>2016-01-31T09:18:02.000Z</time>
      </trkpt>
      <trkpt lat="47.44793" lon="6.79933">
        <ele>356</ele>
        <time>2016-01-31T09:18:03.001Z</time>
      </trkpt>
      <trkpt lat="47.44793" lon="6.79937">
        <ele>356</ele>
        <time>2016-01-31T09:18:04.000Z</time>
      </trkpt>
      <trkpt lat="47.44793" lon="6.79941">
        <ele>356</ele>
        <time>2016-01-31T09:18:05.000Z</time>
      </trkpt>
      <trkpt lat="47.44793" lon="6.79945">
        <ele>356</ele>
        <time>2016-01-31T09:18:06.000Z</time>
      </trkpt>
      <trkpt lat="47.44793" lon="6.79948">
        <ele>356</ele>
        <time>2016-01-31T09:18:07.000Z</time>
      </trkpt>
      <trkpt lat="47.44793" lon="6.79952">
        <ele>356</ele>
        <time>2016-01-31T09:18:08.000Z</time>
      </trkpt>
      <trkpt lat="47.44793" lon="6.79956">
        <ele>356</ele>
        <time>2016-01-31T09:18:09.000Z</time>
      </trkpt>
      <trkpt lat="47.44792" lon="6.79959">
        <ele>356</ele>
        <time>2016-01-31T09:18:10.000Z</time>
      </trkpt>
      <trkpt lat="47.44791" lon="6.79962">
        <ele>356</ele>
        <time>2016-01-31T09:18:11.000Z</time>
      </trkpt>
      <trkpt lat="47.4479" lon="6.79968">
        <ele>356</ele>
        <time>2016-01-31T09:18:13.000Z</time>
      </trkpt>
      <trkpt lat="47.4479" lon="6.7997">
        <ele>356</ele>
        <time>2016-01-31T09:18:14.000Z</time>
      </trkpt>
      <trkpt lat="47.44789" lon="6.79977">
        <ele>356</ele>
        <time>2016-01-31T09:18:17.000Z</time>
      </trkpt>
      <trkpt lat="47.44789" lon="6.79978">
        <ele>356</ele>
        <time>2016-01-31T09:18:18.000Z</time>
      </trkpt>
      <trkpt lat="47.44786" lon="6.79983">
        <ele>356</ele>
        <time>2016-01-31T09:18:21.000Z</time>
      </trkpt>
      <trkpt lat="47.44784" lon="6.79984">
        <ele>356</ele>
        <time>2016-01-31T09:18:22.000Z</time>
      </trkpt>
      <trkpt lat="47.44781" lon="6.79984">
        <ele>356</ele>
        <time>2016-01-31T09:18:23.000Z</time>
      </trkpt>
      <trkpt lat="47.44778" lon="6.79983">
        <ele>356</ele>
        <time>2016-01-31T09:18:24.000Z</time>
      </trkpt>
      <trkpt lat="47.44775" lon="6.79983">
        <ele>356</ele>
        <time>2016-01-31T09:18:25.000Z</time>
      </trkpt>
      <trkpt lat="47.44773" lon="6.79982">
        <ele>356</ele>
        <time>2016-01-31T09:18:26.000Z</time>
      </trkpt>
      <trkpt lat="47.4477" lon="6.79981">
        <ele>356</ele>
        <time>2016-01-31T09:18:27.000Z</time>
      </trkpt>
      <trkpt lat="47.44768" lon="6.79981">
        <ele>357</ele>
        <time>2016-01-31T09:18:28.000Z</time>
      </trkpt>
      <trkpt lat="47.44764" lon="6.79981">
        <ele>357</ele>
        <time>2016-01-31T09:18:29.999Z</time>
      </trkpt>
      <trkpt lat="47.44761" lon="6.79981">
        <ele>357</ele>
        <time>2016-01-31T09:18:31.000Z</time>
      </trkpt>
      <trkpt lat="47.44757" lon="6.79981">
        <ele>357</ele>
        <time>2016-01-31T09:18:33.000Z</time>
      </trkpt>
      <trkpt lat="47.44755" lon="6.7998">
        <ele>357</ele>
        <time>2016-01-31T09:18:34.000Z</time>
      </trkpt>
      <trkpt lat="47.44752" lon="6.79979">
        <ele>357</ele>
        <time>2016-01-31T09:18:36.000Z</time>
      </trkpt>
      <trkpt lat="47.4475" lon="6.79979">
        <ele>358</ele>
        <time>2016-01-31T09:18:37.000Z</time>
      </trkpt>
      <trkpt lat="47.44745" lon="6.79978">
        <ele>358</ele>
        <time>2016-01-31T09:18:39.000Z</time>
      </trkpt>
      <trkpt lat="47.44743" lon="6.79978">
        <ele>358</ele>
        <time>2016-01-31T09:18:40.000Z</time>
      </trkpt>
      <trkpt lat="47.44739" lon="6.79977">
        <ele>359</ele>
        <time>2016-01-31T09:18:42.000Z</time>
      </trkpt>
      <trkpt lat="47.44737" lon="6.79976">
        <ele>359</ele>
        <time>2016-01-31T09:18:43.000Z</time>
      </trkpt>
      <trkpt lat="47.44733" lon="6.79975">
        <ele>359</ele>
        <time>2016-01-31T09:18:45.000Z</time>
      </trkpt>
      <trkpt lat="47.44731" lon="6.79975">
        <ele>359</ele>
        <time>2016-01-31T09:18:46.000Z</time>
      </trkpt>
      <trkpt lat="47.44727" lon="6.79974">
        <ele>359</ele>
        <time>2016-01-31T09:18:48.000Z</time>
      </trkpt>
      <trkpt lat="47.44725" lon="6.79973">
        <ele>359</ele>
        <time>2016-01-31T09:18:49.000Z</time>
      </trkpt>
      <trkpt lat="47.44722" lon="6.79972">
        <ele>359</ele>
        <time>2016-01-31T09:18:51.000Z</time>
      </trkpt>
      <trkpt lat="47.4472" lon="6.79972">
        <ele>359</ele>
        <time>2016-01-31T09:18:52.000Z</time>
      </trkpt>
      <trkpt lat="47.44717" lon="6.79971">
        <ele>359</ele>
        <time>2016-01-31T09:18:54.000Z</time>
      </trkpt>
      <trkpt lat="47.44715" lon="6.79971">
        <ele>359</ele>
        <time>2016-01-31T09:18:55.000Z</time>
      </trkpt>
      <trkpt lat="47.4471" lon="6.79971">
        <ele>359</ele>
        <time>2016-01-31T09:18:57.000Z</time>
      </trkpt>
      <trkpt lat="47.44708" lon="6.7997">
        <ele>359</ele>
        <time>2016-01-31T09:18:58.000Z</time>
      </trkpt>
      <trkpt lat="47.44704" lon="6.7997">
        <ele>359</ele>
        <time>2016-01-31T09:19:00.000Z</time>
      </trkpt>
      <trkpt lat="47.44702" lon="6.79969">
        <ele>359</ele>
        <time>2016-01-31T09:19:01.000Z</time>
      </trkpt>
      <trkpt lat="47.44698" lon="6.79968">
        <ele>359</ele>
        <time>2016-01-31T09:19:03.000Z</time>
      </trkpt>
      <trkpt lat="47.44696" lon="6.79968">
        <ele>359</ele>
        <time>2016-01-31T09:19:04.000Z</time>
      </trkpt>
      <trkpt lat="47.44692" lon="6.79966">
        <ele>359</ele>
        <time>2016-01-31T09:19:06.000Z</time>
      </trkpt>
      <trkpt lat="47.44689" lon="6.79966">
        <ele>359</ele>
        <time>2016-01-31T09:19:07.000Z</time>
      </trkpt>
      <trkpt lat="47.44687" lon="6.79966">
        <ele>359</ele>
        <time>2016-01-31T09:19:08.000Z</time>
      </trkpt>
      <trkpt lat="47.44685" lon="6.79966">
        <ele>359</ele>
        <time>2016-01-31T09:19:09.000Z</time>
      </trkpt>
      <trkpt lat="47.44682" lon="6.79966">
        <ele>359</ele>
        <time>2016-01-31T09:19:10.000Z</time>
      </trkpt>
      <trkpt lat="47.4468" lon="6.79965">
        <ele>359</ele>
        <time>2016-01-31T09:19:11.000Z</time>
      </trkpt>
      <trkpt lat="47.44677" lon="6.79965">
        <ele>359</ele>
        <time>2016-01-31T09:19:12.000Z</time>
      </trkpt>
      <trkpt lat="47.44675" lon="6.79964">
        <ele>359</ele>
        <time>2016-01-31T09:19:13.000Z</time>
      </trkpt>
      <trkpt lat="47.44672" lon="6.79963">
        <ele>360</ele>
        <time>2016-01-31T09:19:14.000Z</time>
      </trkpt>
      <trkpt lat="47.4467" lon="6.79963">
        <ele>360</ele>
        <time>2016-01-31T09:19:15.000Z</time>
      </trkpt>
      <trkpt lat="47.44667" lon="6.79962">
        <ele>360</ele>
        <time>2016-01-31T09:19:16.000Z</time>
      </trkpt>
      <trkpt lat="47.44664" lon="6.79961">
        <ele>361</ele>
        <time>2016-01-31T09:19:17.000Z</time>
      </trkpt>
      <trkpt lat="47.44662" lon="6.79961">
        <ele>361</ele>
        <time>2016-01-31T09:19:18.000Z</time>
      </trkpt>
      <trkpt lat="47.44659" lon="6.7996">
        <ele>361</ele>
        <time>2016-01-31T09:19:19.000Z</time>
      </trkpt>
      <trkpt lat="47.44657" lon="6.7996">
        <ele>361</ele>
        <time>2016-01-31T09:19:20.000Z</time>
      </trkpt>
      <trkpt lat="47.44654" lon="6.79959">
        <ele>361</ele>
        <time>2016-01-31T09:19:21.000Z</time>
      </trkpt>
      <trkpt lat="47.44651" lon="6.79959">
        <ele>361</ele>
        <time>2016-01-31T09:19:22.000Z</time>
      </trkpt>
      <trkpt lat="47.44649" lon="6.79958">
        <ele>361</ele>
        <time>2016-01-31T09:19:23.000Z</time>
      </trkpt>
      <trkpt lat="47.44646" lon="6.79958">
        <ele>361</ele>
        <time>2016-01-31T09:19:24.000Z</time>
      </trkpt>
      <trkpt lat="47.44644" lon="6.79957">
        <ele>361</ele>
        <time>2016-01-31T09:19:25.000Z</time>
      </trkpt>
      <trkpt lat="47.44641" lon="6.79956">
        <ele>362</ele>
        <time>2016-01-31T09:19:26.000Z</time>
      </trkpt>
      <trkpt lat="47.44638" lon="6.79955">
        <ele>362</ele>
        <time>2016-01-31T09:19:27.000Z</time>
      </trkpt>
      <trkpt lat="47.44635" lon="6.79955">
        <ele>362</ele>
        <time>2016-01-31T09:19:28.000Z</time>
      </trkpt>
      <trkpt lat="47.44633" lon="6.79954">
        <ele>362</ele>
        <time>2016-01-31T09:19:29.000Z</time>
      </trkpt>
      <trkpt lat="47.4463" lon="6.79953">
        <ele>362</ele>
        <time>2016-01-31T09:19:30.000Z</time>
      </trkpt>
      <trkpt lat="47.44628" lon="6.79952">
        <ele>362</ele>
        <time>2016-01-31T09:19:31.000Z</time>
      </trkpt>
      <trkpt lat="47.44625" lon="6.79951">
        <ele>362</ele>
        <time>2016-01-31T09:19:32.000Z</time>
      </trkpt>
      <trkpt lat="47.44623" lon="6.79949">
        <ele>362</ele>
        <time>2016-01-31T09:19:33.000Z</time>
      </trkpt>
      <trkpt lat="47.4462" lon="6.79948">
        <ele>362</ele>
        <time>2016-01-31T09:19:34.000Z</time>
      </trkpt>
      <trkpt lat="47.44617" lon="6.79947">
        <ele>362</ele>
        <time>2016-01-31T09:19:35.000Z</time>
      </trkpt>
      <trkpt lat="47.44615" lon="6.79947">
        <ele>362</ele>
        <time>2016-01-31T09:19:36.000Z</time>
      </trkpt>
      <trkpt lat="47.44612" lon="6.79946">
        <ele>362</ele>
        <time>2016-01-31T09:19:37.000Z</time>
      </trkpt>
      <trkpt lat="47.4461" lon="6.79945">
        <ele>362</ele>
        <time>2016-01-31T09:19:38.000Z</time>
      </trkpt>
      <trkpt lat="47.44607" lon="6.79944">
        <ele>362</ele>
        <time>2016-01-31T09:19:39.000Z</time>
      </trkpt>
      <trkpt lat="47.44605" lon="6.79942">
        <ele>362</ele>
        <time>2016-01-31T09:19:40.000Z</time>
      </trkpt>
      <trkpt lat="47.44602" lon="6.79942">
        <ele>362</ele>
        <time>2016-01-31T09:19:41.000Z</time>
      </trkpt>
      <trkpt lat="47.446" lon="6.79941">
        <ele>362</ele>
        <time>2016-01-31T09:19:42.000Z</time>
      </trkpt>
      <trkpt lat="47.44597" lon="6.79939">
        <ele>362</ele>
        <time>2016-01-31T09:19:43.000Z</time>
      </trkpt>
      <trkpt lat="47.44595" lon="6.79938">
        <ele>362</ele>
        <time>2016-01-31T09:19:44.000Z</time>
      </trkpt>
      <trkpt lat="47.44592" lon="6.79937">
        <ele>362</ele>
        <time>2016-01-31T09:19:45.000Z</time>
      </trkpt>
      <trkpt lat="47.44589" lon="6.79937">
        <ele>362</ele>
        <time>2016-01-31T09:19:46.000Z</time>
      </trkpt>
      <trkpt lat="47.44587" lon="6.79936">
        <ele>362</ele>
        <time>2016-01-31T09:19:47.000Z</time>
      </trkpt>
      <trkpt lat="47.44584" lon="6.79936">
        <ele>362</ele>
        <time>2016-01-31T09:19:48.000Z</time>
      </trkpt>
      <trkpt lat="47.44581" lon="6.79935">
        <ele>364</ele>
        <time>2016-01-31T09:19:49.000Z</time>
      </trkpt>
      <trkpt lat="47.44578" lon="6.79934">
        <ele>364</ele>
        <time>2016-01-31T09:19:50.000Z</time>
      </trkpt>
      <trkpt lat="47.44576" lon="6.79933">
        <ele>364</ele>
        <time>2016-01-31T09:19:51.000Z</time>
      </trkpt>
      <trkpt lat="47.44573" lon="6.79933">
        <ele>364</ele>
        <time>2016-01-31T09:19:52.000Z</time>
      </trkpt>
      <trkpt lat="47.4457" lon="6.79932">
        <ele>364</ele>
        <time>2016-01-31T09:19:53.000Z</time>
      </trkpt>
      <trkpt lat="47.44568" lon="6.79931">
        <ele>364</ele>
        <time>2016-01-31T09:19:54.000Z</time>
      </trkpt>
      <trkpt lat="47.44565" lon="6.79931">
        <ele>364</ele>
        <time>2016-01-31T09:19:55.000Z</time>
      </trkpt>
      <trkpt lat="47.44562" lon="6.7993">
        <ele>364</ele>
        <time>2016-01-31T09:19:56.000Z</time>
      </trkpt>
      <trkpt lat="47.4456" lon="6.79929">
        <ele>364</ele>
        <time>2016-01-31T09:19:57.000Z</time>
      </trkpt>
      <trkpt lat="47.44557" lon="6.79928">
        <ele>364</ele>
        <time>2016-01-31T09:19:58.000Z</time>
      </trkpt>
      <trkpt lat="47.44555" lon="6.79927">
        <ele>364</ele>
        <time>2016-01-31T09:19:59.000Z</time>
      </trkpt>
      <trkpt lat="47.44552" lon="6.79926">
        <ele>364</ele>
        <time>2016-01-31T09:20:00.000Z</time>
      </trkpt>
      <trkpt lat="47.44549" lon="6.79926">
        <ele>364</ele>
        <time>2016-01-31T09:20:01.000Z</time>
      </trkpt>
      <trkpt lat="47.44547" lon="6.79925">
        <ele>364</ele>
        <time>2016-01-31T09:20:02.000Z</time>
      </trkpt>
      <trkpt lat="47.44544" lon="6.79925">
        <ele>364</ele>
        <time>2016-01-31T09:20:03.000Z</time>
      </trkpt>
      <trkpt lat="47.44542" lon="6.79925">
        <ele>364</ele>
        <time>2016-01-31T09:20:04.000Z</time>
      </trkpt>
      <trkpt lat="47.44539" lon="6.79924">
        <ele>364</ele>
        <time>2016-01-31T09:20:05.000Z</time>
      </trkpt>
      <trkpt lat="47.44537" lon="6.79924">
        <ele>364</ele>
        <time>2016-01-31T09:20:06.000Z</time>
      </trkpt>
      <trkpt lat="47.44534" lon="6.79923">
        <ele>365</ele>
        <time>2016-01-31T09:20:07.000Z</time>
      </trkpt>
      <trkpt lat="47.44532" lon="6.79921">
        <ele>365</ele>
        <time>2016-01-31T09:20:08.000Z</time>
      </trkpt>
      <trkpt lat="47.4453" lon="6.7992">
        <ele>365</ele>
        <time>2016-01-31T09:20:09.000Z</time>
      </trkpt>
      <trkpt lat="47.44527" lon="6.79919">
        <ele>365</ele>
        <time>2016-01-31T09:20:10.000Z</time>
      </trkpt>
      <trkpt lat="47.44525" lon="6.79918">
        <ele>365</ele>
        <time>2016-01-31T09:20:11.000Z</time>
      </trkpt>
      <trkpt lat="47.44521" lon="6.79917">
        <ele>365</ele>
        <time>2016-01-31T09:20:13.000Z</time>
      </trkpt>
      <trkpt lat="47.44519" lon="6.79917">
        <ele>365</ele>
        <time>2016-01-31T09:20:14.000Z</time>
      </trkpt>
      <trkpt lat="47.44515" lon="6.79917">
        <ele>365</ele>
        <time>2016-01-31T09:20:16.000Z</time>
      </trkpt>
      <trkpt lat="47.44513" lon="6.79917">
        <ele>365</ele>
        <time>2016-01-31T09:20:17.000Z</time>
      </trkpt>
      <trkpt lat="47.44508" lon="6.79917">
        <ele>366</ele>
        <time>2016-01-31T09:20:19.000Z</time>
      </trkpt>
      <trkpt lat="47.44506" lon="6.79917">
        <ele>366</ele>
        <time>2016-01-31T09:20:20.000Z</time>
      </trkpt>
      <trkpt lat="47.44501" lon="6.79917">
        <ele>366</ele>
        <time>2016-01-31T09:20:22.000Z</time>
      </trkpt>
      <trkpt lat="47.44499" lon="6.79917">
        <ele>366</ele>
        <time>2016-01-31T09:20:23.000Z</time>
      </trkpt>
      <trkpt lat="47.44495" lon="6.79917">
        <ele>367</ele>
        <time>2016-01-31T09:20:25.000Z</time>
      </trkpt>
      <trkpt lat="47.44493" lon="6.79917">
        <ele>367</ele>
        <time>2016-01-31T09:20:26.000Z</time>
      </trkpt>
      <trkpt lat="47.44491" lon="6.79916">
        <ele>368</ele>
        <time>2016-01-31T09:20:27.000Z</time>
      </trkpt>
      <trkpt lat="47.44488" lon="6.79916">
        <ele>368</ele>
        <time>2016-01-31T09:20:28.000Z</time>
      </trkpt>
      <trkpt lat="47.44486" lon="6.79915">
        <ele>368</ele>
        <time>2016-01-31T09:20:29.000Z</time>
      </trkpt>
      <trkpt lat="47.44483" lon="6.79914">
        <ele>369</ele>
        <time>2016-01-31T09:20:30.000Z</time>
      </trkpt>
      <trkpt lat="47.44481" lon="6.79914">
        <ele>369</ele>
        <time>2016-01-31T09:20:31.000Z</time>
      </trkpt>
      <trkpt lat="47.44478" lon="6.79912">
        <ele>369</ele>
        <time>2016-01-31T09:20:32.000Z</time>
      </trkpt>
      <trkpt lat="47.44476" lon="6.79912">
        <ele>370</ele>
        <time>2016-01-31T09:20:32.999Z</time>
      </trkpt>
      <trkpt lat="47.44473" lon="6.79911">
        <ele>370</ele>
        <time>2016-01-31T09:20:34.000Z</time>
      </trkpt>
      <trkpt lat="47.44469" lon="6.79909">
        <ele>370</ele>
        <time>2016-01-31T09:20:36.000Z</time>
      </trkpt>
      <trkpt lat="47.44467" lon="6.79908">
        <ele>370</ele>
        <time>2016-01-31T09:20:37.000Z</time>
      </trkpt>
      <trkpt lat="47.44464" lon="6.79906">
        <ele>371</ele>
        <time>2016-01-31T09:20:39.000Z</time>
      </trkpt>
      <trkpt lat="47.44462" lon="6.79905">
        <ele>371</ele>
        <time>2016-01-31T09:20:40.000Z</time>
      </trkpt>
      <trkpt lat="47.44458" lon="6.79903">
        <ele>371</ele>
        <time>2016-01-31T09:20:42.000Z</time>
      </trkpt>
      <trkpt lat="47.44456" lon="6.79901">
        <ele>371</ele>
        <time>2016-01-31T09:20:43.000Z</time>
      </trkpt>
      <trkpt lat="47.44453" lon="6.79899">
        <ele>372</ele>
        <time>2016-01-31T09:20:45.000Z</time>
      </trkpt>
      <trkpt lat="47.44451" lon="6.79898">
        <ele>372</ele>
        <time>2016-01-31T09:20:46.000Z</time>
      </trkpt>
      <trkpt lat="47.44448" lon="6.79897">
        <ele>372</ele>
        <time>2016-01-31T09:20:48.000Z</time>
      </trkpt>
      <trkpt lat="47.44446" lon="6.79896">
        <ele>372</ele>
        <time>2016-01-31T09:20:49.000Z</time>
      </trkpt>
      <trkpt lat="47.44443" lon="6.79895">
        <ele>372</ele>
        <time>2016-01-31T09:20:51.000Z</time>
      </trkpt>
      <trkpt lat="47.44441" lon="6.79895">
        <ele>372</ele>
        <time>2016-01-31T09:20:52.000Z</time>
      </trkpt>
      <trkpt lat="47.44437" lon="6.79893">
        <ele>373</ele>
        <time>2016-01-31T09:20:54.000Z</time>
      </trkpt>
      <trkpt lat="47.44435" lon="6.79893">
        <ele>373</ele>
        <time>2016-01-31T09:20:55.000Z</time>
      </trkpt>
      <trkpt lat="47.44431" lon="6.79892">
        <ele>373</ele>
        <time>2016-01-31T09:20:57.000Z</time>
      </trkpt>
      <trkpt lat="47.44429" lon="6.79891">
        <ele>373</ele>
        <time>2016-01-31T09:20:58.000Z</time>
      </trkpt>
      <trkpt lat="47.44427" lon="6.7989">
        <ele>373</ele>
        <time>2016-01-31T09:20:59.000Z</time>
      </trkpt>
      <trkpt lat="47.44425" lon="6.79889">
        <ele>373</ele>
        <time>2016-01-31T09:21:00.000Z</time>
      </trkpt>
      <trkpt lat="47.44421" lon="6.79888">
        <ele>373</ele>
        <time>2016-01-31T09:21:02.000Z</time>
      </trkpt>
      <trkpt lat="47.44419" lon="6.79887">
        <ele>373</ele>
        <time>2016-01-31T09:21:03.000Z</time>
      </trkpt>
      <trkpt lat="47.44416" lon="6.79886">
        <ele>380</ele>
        <time>2016-01-31T09:21:04.000Z</time>
      </trkpt>
      <trkpt lat="47.44414" lon="6.79885">
        <ele>381</ele>
        <time>2016-01-31T09:21:05.000Z</time>
      </trkpt>
      <trkpt lat="47.44412" lon="6.79885">
        <ele>381</ele>
        <time>2016-01-31T09:21:06.000Z</time>
      </trkpt>
      <trkpt lat="47.4441" lon="6.79884">
        <ele>381</ele>
        <time>2016-01-31T09:21:07.000Z</time>
      </trkpt>
      <trkpt lat="47.44406" lon="6.79883">
        <ele>381</ele>
        <time>2016-01-31T09:21:09.000Z</time>
      </trkpt>
      <trkpt lat="47.44404" lon="6.79882">
        <ele>381</ele>
        <time>2016-01-31T09:21:10.000Z</time>
      </trkpt>
      <trkpt lat="47.444" lon="6.79881">
        <ele>381</ele>
        <time>2016-01-31T09:21:12.000Z</time>
      </trkpt>
      <trkpt lat="47.44398" lon="6.7988">
        <ele>382</ele>
        <time>2016-01-31T09:21:13.000Z</time>
      </trkpt>
      <trkpt lat="47.44394" lon="6.79878">
        <ele>382</ele>
        <time>2016-01-31T09:21:15.000Z</time>
      </trkpt>
      <trkpt lat="47.44393" lon="6.79877">
        <ele>382</ele>
        <time>2016-01-31T09:21:16.000Z</time>
      </trkpt>
      <trkpt lat="47.44389" lon="6.79875">
        <ele>382</ele>
        <time>2016-01-31T09:21:18.000Z</time>
      </trkpt>
      <trkpt lat="47.44387" lon="6.79874">
        <ele>383</ele>
        <time>2016-01-31T09:21:19.000Z</time>
      </trkpt>
      <trkpt lat="47.44384" lon="6.79871">
        <ele>383</ele>
        <time>2016-01-31T09:21:21.000Z</time>
      </trkpt>
      <trkpt lat="47.44382" lon="6.79869">
        <ele>383</ele>
        <time>2016-01-31T09:21:22.000Z</time>
      </trkpt>
      <trkpt lat="47.44381" lon="6.79863">
        <ele>383</ele>
        <time>2016-01-31T09:21:24.000Z</time>
      </trkpt>
      <trkpt lat="47.44381" lon="6.7986">
        <ele>383</ele>
        <time>2016-01-31T09:21:25.000Z</time>
      </trkpt>
      <trkpt lat="47.44381" lon="6.79854">
        <ele>383</ele>
        <time>2016-01-31T09:21:27.000Z</time>
      </trkpt>
      <trkpt lat="47.44381" lon="6.79852">
        <ele>383</ele>
        <time>2016-01-31T09:21:28.000Z</time>
      </trkpt>
      <trkpt lat="47.44383" lon="6.79847">
        <ele>383</ele>
        <time>2016-01-31T09:21:31.000Z</time>
      </trkpt>
      <trkpt lat="47.44384" lon="6.79846">
        <ele>383</ele>
        <time>2016-01-31T09:21:32.000Z</time>
      </trkpt>
      <trkpt lat="47.44387" lon="6.79842">
        <ele>382</ele>
        <time>2016-01-31T09:21:34.000Z</time>
      </trkpt>
      <trkpt lat="47.44387" lon="6.7984">
        <ele>382</ele>
        <time>2016-01-31T09:21:35.000Z</time>
      </trkpt>
      <trkpt lat="47.44386" lon="6.79835">
        <ele>382</ele>
        <time>2016-01-31T09:21:38.000Z</time>
      </trkpt>
      <trkpt lat="47.44386" lon="6.79833">
        <ele>385</ele>
        <time>2016-01-31T09:21:39.000Z</time>
      </trkpt>
      <trkpt lat="47.44386" lon="6.79829">
        <ele>385</ele>
        <time>2016-01-31T09:21:43.000Z</time>
      </trkpt>
      <trkpt lat="47.44387" lon="6.79827">
        <ele>385</ele>
        <time>2016-01-31T09:21:44.000Z</time>
      </trkpt>
      <trkpt lat="47.44389" lon="6.79821">
        <ele>384</ele>
        <time>2016-01-31T09:21:46.000Z</time>
      </trkpt>
      <trkpt lat="47.4439" lon="6.79819">
        <ele>384</ele>
        <time>2016-01-31T09:21:47.000Z</time>
      </trkpt>
      <trkpt lat="47.4439" lon="6.79814">
        <ele>385</ele>
        <time>2016-01-31T09:21:49.000Z</time>
      </trkpt>
      <trkpt lat="47.4439" lon="6.79812">
        <ele>385</ele>
        <time>2016-01-31T09:21:50.000Z</time>
      </trkpt>
      <trkpt lat="47.44391" lon="6.79805">
        <ele>385</ele>
        <time>2016-01-31T09:21:53.000Z</time>
      </trkpt>
      <trkpt lat="47.44391" lon="6.79804">
        <ele>385</ele>
        <time>2016-01-31T09:21:54.000Z</time>
      </trkpt>
      <trkpt lat="47.44392" lon="6.79798">
        <ele>386</ele>
        <time>2016-01-31T09:21:58.000Z</time>
      </trkpt>
      <trkpt lat="47.44392" lon="6.79796">
        <ele>386</ele>
        <time>2016-01-31T09:21:59.000Z</time>
      </trkpt>
      <trkpt lat="47.44392" lon="6.7979">
        <ele>386</ele>
        <time>2016-01-31T09:22:02.000Z</time>
      </trkpt>
      <trkpt lat="47.44391" lon="6.79789">
        <ele>386</ele>
        <time>2016-01-31T09:22:03.000Z</time>
      </trkpt>
      <trkpt lat="47.44388" lon="6.79786">
        <ele>386</ele>
        <time>2016-01-31T09:22:07.000Z</time>
      </trkpt>
      <trkpt lat="47.44387" lon="6.79786">
        <ele>387</ele>
        <time>2016-01-31T09:22:08.000Z</time>
      </trkpt>
      <trkpt lat="47.44382" lon="6.79786">
        <ele>387</ele>
        <time>2016-01-31T09:22:12.000Z</time>
      </trkpt>
      <trkpt lat="47.44382" lon="6.79787">
        <ele>387</ele>
        <time>2016-01-31T09:22:13.000Z</time>
      </trkpt>
      <trkpt lat="47.44379" lon="6.79791">
        <ele>387</ele>
        <time>2016-01-31T09:22:17.000Z</time>
      </trkpt>
      <trkpt lat="47.44378" lon="6.79792">
        <ele>387</ele>
        <time>2016-01-31T09:22:18.000Z</time>
      </trkpt>
      <trkpt lat="47.44375" lon="6.79796">
        <ele>388</ele>
        <time>2016-01-31T09:22:22.000Z</time>
      </trkpt>
      <trkpt lat="47.44374" lon="6.79797">
        <ele>388</ele>
        <time>2016-01-31T09:22:23.000Z</time>
      </trkpt>
      <trkpt lat="47.44371" lon="6.79801">
        <ele>388</ele>
        <time>2016-01-31T09:22:27.000Z</time>
      </trkpt>
      <trkpt lat="47.4437" lon="6.79801">
        <ele>388</ele>
        <time>2016-01-31T09:22:28.000Z</time>
      </trkpt>
      <trkpt lat="47.44367" lon="6.79805">
        <ele>388</ele>
        <time>2016-01-31T09:22:32.000Z</time>
      </trkpt>
      <trkpt lat="47.44366" lon="6.79805">
        <ele>388</ele>
        <time>2016-01-31T09:22:33.000Z</time>
      </trkpt>
      <trkpt lat="47.44363" lon="6.79808">
        <ele>389</ele>
        <time>2016-01-31T09:22:39.000Z</time>
      </trkpt>
      <trkpt lat="47.44362" lon="6.79809">
        <ele>389</ele>
        <time>2016-01-31T09:22:40.000Z</time>
      </trkpt>
      <trkpt lat="47.44359" lon="6.79813">
        <ele>389</ele>
        <time>2016-01-31T09:22:44.000Z</time>
      </trkpt>
      <trkpt lat="47.44358" lon="6.79814">
        <ele>390</ele>
        <time>2016-01-31T09:22:45.000Z</time>
      </trkpt>
      <trkpt lat="47.44354" lon="6.79817">
        <ele>390</ele>
        <time>2016-01-31T09:22:48.000Z</time>
      </trkpt>
      <trkpt lat="47.44353" lon="6.79818">
        <ele>390</ele>
        <time>2016-01-31T09:22:49.000Z</time>
      </trkpt>
      <trkpt lat="47.4435" lon="6.79821">
        <ele>391</ele>
        <time>2016-01-31T09:22:53.000Z</time>
      </trkpt>
      <trkpt lat="47.44349" lon="6.79822">
        <ele>391</ele>
        <time>2016-01-31T09:22:54.000Z</time>
      </trkpt>
      <trkpt lat="47.44345" lon="6.79825">
        <ele>392</ele>
        <time>2016-01-31T09:22:58.000Z</time>
      </trkpt>
      <trkpt lat="47.44345" lon="6.79826">
        <ele>392</ele>
        <time>2016-01-31T09:22:59.000Z</time>
      </trkpt>
      <trkpt lat="47.44342" lon="6.7983">
        <ele>393</ele>
        <time>2016-01-31T09:23:03.000Z</time>
      </trkpt>
      <trkpt lat="47.44341" lon="6.79831">
        <ele>393</ele>
        <time>2016-01-31T09:23:04.000Z</time>
      </trkpt>
      <trkpt lat="47.44338" lon="6.79834">
        <ele>393</ele>
        <time>2016-01-31T09:23:08.000Z</time>
      </trkpt>
      <trkpt lat="47.44338" lon="6.79836">
        <ele>393</ele>
        <time>2016-01-31T09:23:09.000Z</time>
      </trkpt>
      <trkpt lat="47.44335" lon="6.79839">
        <ele>393</ele>
        <time>2016-01-31T09:23:12.000Z</time>
      </trkpt>
      <trkpt lat="47.44334" lon="6.7984">
        <ele>392</ele>
        <time>2016-01-31T09:23:13.000Z</time>
      </trkpt>
      <trkpt lat="47.44332" lon="6.79844">
        <ele>398</ele>
        <time>2016-01-31T09:23:15.000Z</time>
      </trkpt>
      <trkpt lat="47.44331" lon="6.79845">
        <ele>398</ele>
        <time>2016-01-31T09:23:16.000Z</time>
      </trkpt>
      <trkpt lat="47.44328" lon="6.79849">
        <ele>399</ele>
        <time>2016-01-31T09:23:19.000Z</time>
      </trkpt>
      <trkpt lat="47.44328" lon="6.7985">
        <ele>399</ele>
        <time>2016-01-31T09:23:20.000Z</time>
      </trkpt>
      <trkpt lat="47.44325" lon="6.79855">
        <ele>400</ele>
        <time>2016-01-31T09:23:25.000Z</time>
      </trkpt>
      <trkpt lat="47.44324" lon="6.79856">
        <ele>400</ele>
        <time>2016-01-31T09:23:26.000Z</time>
      </trkpt>
      <trkpt lat="47.44322" lon="6.7986">
        <ele>401</ele>
        <time>2016-01-31T09:23:29.000Z</time>
      </trkpt>
      <trkpt lat="47.44321" lon="6.79861">
        <ele>401</ele>
        <time>2016-01-31T09:23:30.000Z</time>
      </trkpt>
      <trkpt lat="47.44318" lon="6.79865">
        <ele>401</ele>
        <time>2016-01-31T09:23:34.000Z</time>
      </trkpt>
      <trkpt lat="47.44317" lon="6.79866">
        <ele>401</ele>
        <time>2016-01-31T09:23:35.000Z</time>
      </trkpt>
      <trkpt lat="47.44314" lon="6.79871">
        <ele>401</ele>
        <time>2016-01-31T09:23:39.000Z</time>
      </trkpt>
      <trkpt lat="47.44313" lon="6.79872">
        <ele>401</ele>
        <time>2016-01-31T09:23:40.000Z</time>
      </trkpt>
      <trkpt lat="47.4431" lon="6.79875">
        <ele>402</ele>
        <time>2016-01-31T09:23:45.000Z</time>
      </trkpt>
      <trkpt lat="47.44309" lon="6.79876">
        <ele>402</ele>
        <time>2016-01-31T09:23:46.000Z</time>
      </trkpt>
      <trkpt lat="47.44307" lon="6.79881">
        <ele>402</ele>
        <time>2016-01-31T09:23:57.025Z</time>
      </trkpt>
      <trkpt lat="47.44306" lon="6.79882">
        <ele>402</ele>
        <time>2016-01-31T09:23:58.000Z</time>
      </trkpt>
      <trkpt lat="47.44302" lon="6.79884">
        <ele>402</ele>
        <time>2016-01-31T09:24:10.000Z</time>
      </trkpt>
      <trkpt lat="47.44301" lon="6.79885">
        <ele>402</ele>
        <time>2016-01-31T09:24:11.000Z</time>
      </trkpt>
      <trkpt lat="47.44297" lon="6.79888">
        <ele>403</ele>
        <time>2016-01-31T09:24:16.000Z</time>
      </trkpt>
      <trkpt lat="47.44297" lon="6.79888">
        <ele>403</ele>
        <time>2016-01-31T09:24:17.000Z</time>
      </trkpt>
      <trkpt lat="47.44293" lon="6.7989">
        <ele>403</ele>
        <time>2016-01-31T09:24:21.000Z</time>
      </trkpt>
      <trkpt lat="47.44291" lon="6.7989">
        <ele>404</ele>
        <time>2016-01-31T09:24:22.000Z</time>
      </trkpt>
      <trkpt lat="47.44288" lon="6.79892">
        <ele>404</ele>
        <time>2016-01-31T09:24:25.000Z</time>
      </trkpt>
      <trkpt lat="47.44286" lon="6.79892">
        <ele>404</ele>
        <time>2016-01-31T09:24:26.000Z</time>
      </trkpt>
      <trkpt lat="47.44282" lon="6.79894">
        <ele>405</ele>
        <time>2016-01-31T09:24:29.000Z</time>
      </trkpt>
      <trkpt lat="47.4428" lon="6.79896">
        <ele>405</ele>
        <time>2016-01-31T09:24:30.000Z</time>
      </trkpt>
      <trkpt lat="47.44277" lon="6.79898">
        <ele>406</ele>
        <time>2016-01-31T09:24:32.000Z</time>
      </trkpt>
      <trkpt lat="47.44276" lon="6.79899">
        <ele>406</ele>
        <time>2016-01-31T09:24:33.000Z</time>
      </trkpt>
      <trkpt lat="47.44273" lon="6.79902">
        <ele>406</ele>
        <time>2016-01-31T09:24:36.000Z</time>
      </trkpt>
      <trkpt lat="47.44271" lon="6.79903">
        <ele>407</ele>
        <time>2016-01-31T09:24:37.000Z</time>
      </trkpt>
      <trkpt lat="47.44268" lon="6.79905">
        <ele>407</ele>
        <time>2016-01-31T09:24:39.000Z</time>
      </trkpt>
      <trkpt lat="47.44266" lon="6.79906">
        <ele>408</ele>
        <time>2016-01-31T09:24:40.000Z</time>
      </trkpt>
      <trkpt lat="47.44263" lon="6.79907">
        <ele>408</ele>
        <time>2016-01-31T09:24:42.000Z</time>
      </trkpt>
      <trkpt lat="47.44262" lon="6.79908">
        <ele>409</ele>
        <time>2016-01-31T09:24:43.000Z</time>
      </trkpt>
      <trkpt lat="47.44258" lon="6.79911">
        <ele>409</ele>
        <time>2016-01-31T09:24:47.000Z</time>
      </trkpt>
      <trkpt lat="47.44257" lon="6.79912">
        <ele>410</ele>
        <time>2016-01-31T09:24:48.000Z</time>
      </trkpt>
      <trkpt lat="47.44254" lon="6.79915">
        <ele>411</ele>
        <time>2016-01-31T09:24:51.000Z</time>
      </trkpt>
      <trkpt lat="47.44253" lon="6.79916">
        <ele>411</ele>
        <time>2016-01-31T09:24:52.000Z</time>
      </trkpt>
      <trkpt lat="47.44249" lon="6.79918">
        <ele>412</ele>
        <time>2016-01-31T09:24:54.000Z</time>
      </trkpt>
      <trkpt lat="47.44248" lon="6.79919">
        <ele>412</ele>
        <time>2016-01-31T09:24:55.000Z</time>
      </trkpt>
      <trkpt lat="47.44244" lon="6.79923">
        <ele>413</ele>
        <time>2016-01-31T09:24:58.000Z</time>
      </trkpt>
      <trkpt lat="47.44243" lon="6.79924">
        <ele>413</ele>
        <time>2016-01-31T09:24:59.000Z</time>
      </trkpt>
      <trkpt lat="47.4424" lon="6.79927">
        <ele>413</ele>
        <time>2016-01-31T09:25:03.000Z</time>
      </trkpt>
      <trkpt lat="47.44238" lon="6.79927">
        <ele>414</ele>
        <time>2016-01-31T09:25:04.000Z</time>
      </trkpt>
      <trkpt lat="47.44235" lon="6.79929">
        <ele>414</ele>
        <time>2016-01-31T09:25:06.000Z</time>
      </trkpt>
      <trkpt lat="47.44234" lon="6.7993">
        <ele>414</ele>
        <time>2016-01-31T09:25:07.000Z</time>
      </trkpt>
      <trkpt lat="47.44231" lon="6.7993">
        <ele>414</ele>
        <time>2016-01-31T09:25:09.000Z</time>
      </trkpt>
      <trkpt lat="47.44229" lon="6.79931">
        <ele>414</ele>
        <time>2016-01-31T09:25:10.000Z</time>
      </trkpt>
      <trkpt lat="47.44226" lon="6.79933">
        <ele>415</ele>
        <time>2016-01-31T09:25:12.000Z</time>
      </trkpt>
      <trkpt lat="47.44224" lon="6.79934">
        <ele>415</ele>
        <time>2016-01-31T09:25:13.000Z</time>
      </trkpt>
      <trkpt lat="47.4422" lon="6.79937">
        <ele>415</ele>
        <time>2016-01-31T09:25:16.000Z</time>
      </trkpt>
      <trkpt lat="47.44219" lon="6.79938">
        <ele>415</ele>
        <time>2016-01-31T09:25:17.000Z</time>
      </trkpt>
      <trkpt lat="47.44215" lon="6.79941">
        <ele>415</ele>
        <time>2016-01-31T09:25:21.000Z</time>
      </trkpt>
      <trkpt lat="47.44214" lon="6.79941">
        <ele>416</ele>
        <time>2016-01-31T09:25:22.000Z</time>
      </trkpt>
      <trkpt lat="47.44211" lon="6.79943">
        <ele>416</ele>
        <time>2016-01-31T09:25:26.000Z</time>
      </trkpt>
      <trkpt lat="47.44209" lon="6.79943">
        <ele>416</ele>
        <time>2016-01-31T09:25:27.000Z</time>
      </trkpt>
      <trkpt lat="47.44206" lon="6.79941">
        <ele>416</ele>
        <time>2016-01-31T09:25:30.000Z</time>
      </trkpt>
      <trkpt lat="47.44205" lon="6.7994">
        <ele>417</ele>
        <time>2016-01-31T09:25:31.000Z</time>
      </trkpt>
      <trkpt lat="47.44202" lon="6.79936">
        <ele>417</ele>
        <time>2016-01-31T09:25:33.000Z</time>
      </trkpt>
      <trkpt lat="47.44201" lon="6.79934">
        <ele>417</ele>
        <time>2016-01-31T09:25:34.000Z</time>
      </trkpt>
      <trkpt lat="47.442" lon="6.7993">
        <ele>418</ele>
        <time>2016-01-31T09:25:36.000Z</time>
      </trkpt>
      <trkpt lat="47.44198" lon="6.79928">
        <ele>418</ele>
        <time>2016-01-31T09:25:37.000Z</time>
      </trkpt>
      <trkpt lat="47.44196" lon="6.79922">
        <ele>419</ele>
        <time>2016-01-31T09:25:40.000Z</time>
      </trkpt>
      <trkpt lat="47.44196" lon="6.7992">
        <ele>419</ele>
        <time>2016-01-31T09:25:41.000Z</time>
      </trkpt>
      <trkpt lat="47.44193" lon="6.79915">
        <ele>424</ele>
        <time>2016-01-31T09:25:44.000Z</time>
      </trkpt>
      <trkpt lat="47.44192" lon="6.79913">
        <ele>425</ele>
        <time>2016-01-31T09:25:45.000Z</time>
      </trkpt>
      <trkpt lat="47.44189" lon="6.79909">
        <ele>425</ele>
        <time>2016-01-31T09:25:48.000Z</time>
      </trkpt>
      <trkpt lat="47.44188" lon="6.79908">
        <ele>425</ele>
        <time>2016-01-31T09:25:49.000Z</time>
      </trkpt>
      <trkpt lat="47.44186" lon="6.79902">
        <ele>425</ele>
        <time>2016-01-31T09:25:54.000Z</time>
      </trkpt>
      <trkpt lat="47.44186" lon="6.79901">
        <ele>425</ele>
        <time>2016-01-31T09:25:55.000Z</time>
      </trkpt>
      <trkpt lat="47.44184" lon="6.79895">
        <ele>425</ele>
        <time>2016-01-31T09:25:58.000Z</time>
      </trkpt>
      <trkpt lat="47.44184" lon="6.79894">
        <ele>425</ele>
        <time>2016-01-31T09:25:59.000Z</time>
      </trkpt>
      <trkpt lat="47.44184" lon="6.79887">
        <ele>426</ele>
        <time>2016-01-31T09:26:02.000Z</time>
      </trkpt>
      <trkpt lat="47.44184" lon="6.79885">
        <ele>426</ele>
        <time>2016-01-31T09:26:03.000Z</time>
      </trkpt>
      <trkpt lat="47.44183" lon="6.7988">
        <ele>426</ele>
        <time>2016-01-31T09:26:06.000Z</time>
      </trkpt>
      <trkpt lat="47.44182" lon="6.79879">
        <ele>426</ele>
        <time>2016-01-31T09:26:07.000Z</time>
      </trkpt>
      <trkpt lat="47.4418" lon="6.79875">
        <ele>426</ele>
        <time>2016-01-31T09:26:09.000Z</time>
      </trkpt>
      <trkpt lat="47.4418" lon="6.79872">
        <ele>426</ele>
        <time>2016-01-31T09:26:10.000Z</time>
      </trkpt>
      <trkpt lat="47.44182" lon="6.79866">
        <ele>427</ele>
        <time>2016-01-31T09:26:12.000Z</time>
      </trkpt>
      <trkpt lat="47.44182" lon="6.79864">
        <ele>427</ele>
        <time>2016-01-31T09:26:13.000Z</time>
      </trkpt>
      <trkpt lat="47.44183" lon="6.79858">
        <ele>427</ele>
        <time>2016-01-31T09:26:16.000Z</time>
      </trkpt>
      <trkpt lat="47.44184" lon="6.79855">
        <ele>428</ele>
        <time>2016-01-31T09:26:17.000Z</time>
      </trkpt>
      <trkpt lat="47.44185" lon="6.79851">
        <ele>428</ele>
        <time>2016-01-31T09:26:19.000Z</time>
      </trkpt>
      <trkpt lat="47.44185" lon="6.79848">
        <ele>428</ele>
        <time>2016-01-31T09:26:20.000Z</time>
      </trkpt>
      <trkpt lat="47.44183" lon="6.79842">
        <ele>429</ele>
        <time>2016-01-31T09:26:23.000Z</time>
      </trkpt>
      <trkpt lat="47.44182" lon="6.7984">
        <ele>430</ele>
        <time>2016-01-31T09:26:24.000Z</time>
      </trkpt>
      <trkpt lat="47.44181" lon="6.79835">
        <ele>430</ele>
        <time>2016-01-31T09:26:27.000Z</time>
      </trkpt>
      <trkpt lat="47.4418" lon="6.79833">
        <ele>433</ele>
        <time>2016-01-31T09:26:28.000Z</time>
      </trkpt>
      <trkpt lat="47.4418" lon="6.79828">
        <ele>433</ele>
        <time>2016-01-31T09:26:30.000Z</time>
      </trkpt>
      <trkpt lat="47.44181" lon="6.79825">
        <ele>433</ele>
        <time>2016-01-31T09:26:31.000Z</time>
      </trkpt>
      <trkpt lat="47.44181" lon="6.79819">
        <ele>432</ele>
        <time>2016-01-31T09:26:34.000Z</time>
      </trkpt>
      <trkpt lat="47.4418" lon="6.79817">
        <ele>432</ele>
        <time>2016-01-31T09:26:35.000Z</time>
      </trkpt>
      <trkpt lat="47.44177" lon="6.79813">
        <ele>432</ele>
        <time>2016-01-31T09:26:38.000Z</time>
      </trkpt>
      <trkpt lat="47.44177" lon="6.79811">
        <ele>432</ele>
        <time>2016-01-31T09:26:39.000Z</time>
      </trkpt>
      <trkpt lat="47.44177" lon="6.79805">
        <ele>432</ele>
        <time>2016-01-31T09:26:42.000Z</time>
      </trkpt>
      <trkpt lat="47.44177" lon="6.79802">
        <ele>432</ele>
        <time>2016-01-31T09:26:43.000Z</time>
      </trkpt>
      <trkpt lat="47.44178" lon="6.79797">
        <ele>432</ele>
        <time>2016-01-31T09:26:45.000Z</time>
      </trkpt>
      <trkpt lat="47.44178" lon="6.79795">
        <ele>432</ele>
        <time>2016-01-31T09:26:46.000Z</time>
      </trkpt>
      <trkpt lat="47.44177" lon="6.7979">
        <ele>433</ele>
        <time>2016-01-31T09:26:48.000Z</time>
      </trkpt>
      <trkpt lat="47.44177" lon="6.79788">
        <ele>433</ele>
        <time>2016-01-31T09:26:49.000Z</time>
      </trkpt>
      <trkpt lat="47.44175" lon="6.79782">
        <ele>433</ele>
        <time>2016-01-31T09:26:52.000Z</time>
      </trkpt>
      <trkpt lat="47.44174" lon="6.7978">
        <ele>433</ele>
        <time>2016-01-31T09:26:53.000Z</time>
      </trkpt>
      <trkpt lat="47.44175" lon="6.79776">
        <ele>434</ele>
        <time>2016-01-31T09:26:55.000Z</time>
      </trkpt>
      <trkpt lat="47.44175" lon="6.79774">
        <ele>434</ele>
        <time>2016-01-31T09:26:56.000Z</time>
      </trkpt>
      <trkpt lat="47.44176" lon="6.79769">
        <ele>434</ele>
        <time>2016-01-31T09:26:58.000Z</time>
      </trkpt>
      <trkpt lat="47.44176" lon="6.79767">
        <ele>435</ele>
        <time>2016-01-31T09:26:59.000Z</time>
      </trkpt>
      <trkpt lat="47.44176" lon="6.79762">
        <ele>435</ele>
        <time>2016-01-31T09:27:02.000Z</time>
      </trkpt>
      <trkpt lat="47.44177" lon="6.79759">
        <ele>436</ele>
        <time>2016-01-31T09:27:03.000Z</time>
      </trkpt>
      <trkpt lat="47.44178" lon="6.79754">
        <ele>436</ele>
        <time>2016-01-31T09:27:05.000Z</time>
      </trkpt>
      <trkpt lat="47.44178" lon="6.79752">
        <ele>436</ele>
        <time>2016-01-31T09:27:06.000Z</time>
      </trkpt>
      <trkpt lat="47.44178" lon="6.79747">
        <ele>438</ele>
        <time>2016-01-31T09:27:08.000Z</time>
      </trkpt>
      <trkpt lat="47.44178" lon="6.79745">
        <ele>437</ele>
        <time>2016-01-31T09:27:09.000Z</time>
      </trkpt>
      <trkpt lat="47.44177" lon="6.7974">
        <ele>437</ele>
        <time>2016-01-31T09:27:11.000Z</time>
      </trkpt>
      <trkpt lat="47.44177" lon="6.79738">
        <ele>437</ele>
        <time>2016-01-31T09:27:12.000Z</time>
      </trkpt>
      <trkpt lat="47.44178" lon="6.79733">
        <ele>437</ele>
        <time>2016-01-31T09:27:14.000Z</time>
      </trkpt>
      <trkpt lat="47.44177" lon="6.79732">
        <ele>437</ele>
        <time>2016-01-31T09:27:15.000Z</time>
      </trkpt>
      <trkpt lat="47.44176" lon="6.79725">
        <ele>436</ele>
        <time>2016-01-31T09:27:18.000Z</time>
      </trkpt>
      <trkpt lat="47.44176" lon="6.79723">
        <ele>436</ele>
        <time>2016-01-31T09:27:19.000Z</time>
      </trkpt>
      <trkpt lat="47.44176" lon="6.79718">
        <ele>436</ele>
        <time>2016-01-31T09:27:21.000Z</time>
      </trkpt>
      <trkpt lat="47.44176" lon="6.79716">
        <ele>436</ele>
        <time>2016-01-31T09:27:22.000Z</time>
      </trkpt>
      <trkpt lat="47.44175" lon="6.79711">
        <ele>436</ele>
        <time>2016-01-31T09:27:24.000Z</time>
      </trkpt>
      <trkpt lat="47.44174" lon="6.79709">
        <ele>436</ele>
        <time>2016-01-31T09:27:25.000Z</time>
      </trkpt>
      <trkpt lat="47.44174" lon="6.79705">
        <ele>437</ele>
        <time>2016-01-31T09:27:27.000Z</time>
      </trkpt>
      <trkpt lat="47.44175" lon="6.79702">
        <ele>437</ele>
        <time>2016-01-31T09:27:28.000Z</time>
      </trkpt>
      <trkpt lat="47.44176" lon="6.79696">
        <ele>437</ele>
        <time>2016-01-31T09:27:30.000Z</time>
      </trkpt>
      <trkpt lat="47.44176" lon="6.79693">
        <ele>437</ele>
        <time>2016-01-31T09:27:31.000Z</time>
      </trkpt>
      <trkpt lat="47.44176" lon="6.79688">
        <ele>438</ele>
        <time>2016-01-31T09:27:33.000Z</time>
      </trkpt>
      <trkpt lat="47.44176" lon="6.79686">
        <ele>438</ele>
        <time>2016-01-31T09:27:34.000Z</time>
      </trkpt>
      <trkpt lat="47.44175" lon="6.7968">
        <ele>439</ele>
        <time>2016-01-31T09:27:37.000Z</time>
      </trkpt>
      <trkpt lat="47.44174" lon="6.79678">
        <ele>439</ele>
        <time>2016-01-31T09:27:38.000Z</time>
      </trkpt>
      <trkpt lat="47.44171" lon="6.79674">
        <ele>440</ele>
        <time>2016-01-31T09:27:43.000Z</time>
      </trkpt>
      <trkpt lat="47.44169" lon="6.79673">
        <ele>441</ele>
        <time>2016-01-31T09:27:44.000Z</time>
      </trkpt>
      <trkpt lat="47.44166" lon="6.79673">
        <ele>444</ele>
        <time>2016-01-31T09:27:47.000Z</time>
      </trkpt>
      <trkpt lat="47.44165" lon="6.79673">
        <ele>444</ele>
        <time>2016-01-31T09:27:48.000Z</time>
      </trkpt>
      <trkpt lat="47.44162" lon="6.79669">
        <ele>444</ele>
        <time>2016-01-31T09:27:56.000Z</time>
      </trkpt>
      <trkpt lat="47.44161" lon="6.79668">
        <ele>444</ele>
        <time>2016-01-31T09:27:57.000Z</time>
      </trkpt>
      <trkpt lat="47.44159" lon="6.79663">
        <ele>444</ele>
        <time>2016-01-31T09:28:02.000Z</time>
      </trkpt>
      <trkpt lat="47.44159" lon="6.7966">
        <ele>445</ele>
        <time>2016-01-31T09:28:03.000Z</time>
      </trkpt>
      <trkpt lat="47.44157" lon="6.79655">
        <ele>445</ele>
        <time>2016-01-31T09:28:05.000Z</time>
      </trkpt>
      <trkpt lat="47.44156" lon="6.79652">
        <ele>445</ele>
        <time>2016-01-31T09:28:06.000Z</time>
      </trkpt>
      <trkpt lat="47.44154" lon="6.79647">
        <ele>446</ele>
        <time>2016-01-31T09:28:08.000Z</time>
      </trkpt>
      <trkpt lat="47.44153" lon="6.79645">
        <ele>446</ele>
        <time>2016-01-31T09:28:09.000Z</time>
      </trkpt>
      <trkpt lat="47.44149" lon="6.79642">
        <ele>446</ele>
        <time>2016-01-31T09:28:12.000Z</time>
      </trkpt>
      <trkpt lat="47.44147" lon="6.79641">
        <ele>446</ele>
        <time>2016-01-31T09:28:13.000Z</time>
      </trkpt>
      <trkpt lat="47.44143" lon="6.79639">
        <ele>446</ele>
        <time>2016-01-31T09:28:16.000Z</time>
      </trkpt>
      <trkpt lat="47.44142" lon="6.79638">
        <ele>447</ele>
        <time>2016-01-31T09:28:17.000Z</time>
      </trkpt>
      <trkpt lat="47.44138" lon="6.79634">
        <ele>447</ele>
        <time>2016-01-31T09:28:21.000Z</time>
      </trkpt>
      <trkpt lat="47.44137" lon="6.79634">
        <ele>447</ele>
        <time>2016-01-31T09:28:22.000Z</time>
      </trkpt>
      <trkpt lat="47.44133" lon="6.79633">
        <ele>447</ele>
        <time>2016-01-31T09:28:24.000Z</time>
      </trkpt>
      <trkpt lat="47.44131" lon="6.79633">
        <ele>447</ele>
        <time>2016-01-31T09:28:25.000Z</time>
      </trkpt>
      <trkpt lat="47.44127" lon="6.79632">
        <ele>447</ele>
        <time>2016-01-31T09:28:27.000Z</time>
      </trkpt>
      <trkpt lat="47.44126" lon="6.79631">
        <ele>447</ele>
        <time>2016-01-31T09:28:28.000Z</time>
      </trkpt>
      <trkpt lat="47.44122" lon="6.79629">
        <ele>448</ele>
        <time>2016-01-31T09:28:32.000Z</time>
      </trkpt>
      <trkpt lat="47.44121" lon="6.79628">
        <ele>448</ele>
        <time>2016-01-31T09:28:33.000Z</time>
      </trkpt>
      <trkpt lat="47.44117" lon="6.79626">
        <ele>448</ele>
        <time>2016-01-31T09:28:37.000Z</time>
      </trkpt>
      <trkpt lat="47.44117" lon="6.79626">
        <ele>448</ele>
        <time>2016-01-31T09:28:38.000Z</time>
      </trkpt>
      <trkpt lat="47.44114" lon="6.79622">
        <ele>448</ele>
        <time>2016-01-31T09:28:42.000Z</time>
      </trkpt>
      <trkpt lat="47.44113" lon="6.79621">
        <ele>448</ele>
        <time>2016-01-31T09:28:43.000Z</time>
      </trkpt>
      <trkpt lat="47.44109" lon="6.79618">
        <ele>448</ele>
        <time>2016-01-31T09:28:46.000Z</time>
      </trkpt>
      <trkpt lat="47.44108" lon="6.79618">
        <ele>448</ele>
        <time>2016-01-31T09:28:47.000Z</time>
      </trkpt>
      <trkpt lat="47.44104" lon="6.79615">
        <ele>449</ele>
        <time>2016-01-31T09:28:51.000Z</time>
      </trkpt>
      <trkpt lat="47.44103" lon="6.79615">
        <ele>449</ele>
        <time>2016-01-31T09:28:52.000Z</time>
      </trkpt>
      <trkpt lat="47.441" lon="6.79612">
        <ele>449</ele>
        <time>2016-01-31T09:28:55.000Z</time>
      </trkpt>
      <trkpt lat="47.44098" lon="6.79611">
        <ele>449</ele>
        <time>2016-01-31T09:28:56.000Z</time>
      </trkpt>
      <trkpt lat="47.44094" lon="6.79609">
        <ele>449</ele>
        <time>2016-01-31T09:28:58.000Z</time>
      </trkpt>
      <trkpt lat="47.44092" lon="6.79608">
        <ele>449</ele>
        <time>2016-01-31T09:28:59.000Z</time>
      </trkpt>
      <trkpt lat="47.44089" lon="6.79606">
        <ele>450</ele>
        <time>2016-01-31T09:29:02.000Z</time>
      </trkpt>
      <trkpt lat="47.44087" lon="6.79606">
        <ele>450</ele>
        <time>2016-01-31T09:29:03.000Z</time>
      </trkpt>
      <trkpt lat="47.44085" lon="6.79605">
        <ele>450</ele>
        <time>2016-01-31T09:29:05.000Z</time>
      </trkpt>
      <trkpt lat="47.44083" lon="6.79605">
        <ele>453</ele>
        <time>2016-01-31T09:29:06.000Z</time>
      </trkpt>
      <trkpt lat="47.44079" lon="6.79604">
        <ele>453</ele>
        <time>2016-01-31T09:29:08.000Z</time>
      </trkpt>
      <trkpt lat="47.44077" lon="6.79603">
        <ele>453</ele>
        <time>2016-01-31T09:29:09.000Z</time>
      </trkpt>
      <trkpt lat="47.44073" lon="6.796">
        <ele>453</ele>
        <time>2016-01-31T09:29:11.000Z</time>
      </trkpt>
      <trkpt lat="47.44072" lon="6.79599">
        <ele>453</ele>
        <time>2016-01-31T09:29:12.000Z</time>
      </trkpt>
      <trkpt lat="47.44068" lon="6.79595">
        <ele>453</ele>
        <time>2016-01-31T09:29:15.000Z</time>
      </trkpt>
      <trkpt lat="47.44067" lon="6.79594">
        <ele>453</ele>
        <time>2016-01-31T09:29:16.000Z</time>
      </trkpt>
      <trkpt lat="47.44063" lon="6.79592">
        <ele>453</ele>
        <time>2016-01-31T09:29:18.000Z</time>
      </trkpt>
      <trkpt lat="47.44062" lon="6.79591">
        <ele>454</ele>
        <time>2016-01-31T09:29:19.000Z</time>
      </trkpt>
      <trkpt lat="47.44058" lon="6.79589">
        <ele>454</ele>
        <time>2016-01-31T09:29:21.000Z</time>
      </trkpt>
      <trkpt lat="47.44056" lon="6.79589">
        <ele>454</ele>
        <time>2016-01-31T09:29:22.000Z</time>
      </trkpt>
      <trkpt lat="47.44053" lon="6.79589">
        <ele>454</ele>
        <time>2016-01-31T09:29:24.000Z</time>
      </trkpt>
      <trkpt lat="47.44052" lon="6.79589">
        <ele>454</ele>
        <time>2016-01-31T09:29:25.000Z</time>
      </trkpt>
      <trkpt lat="47.44048" lon="6.79587">
        <ele>454</ele>
        <time>2016-01-31T09:29:31.000Z</time>
      </trkpt>
      <trkpt lat="47.44047" lon="6.79586">
        <ele>454</ele>
        <time>2016-01-31T09:29:32.000Z</time>
      </trkpt>
      <trkpt lat="47.44044" lon="6.79584">
        <ele>454</ele>
        <time>2016-01-31T09:29:35.000Z</time>
      </trkpt>
      <trkpt lat="47.44043" lon="6.79584">
        <ele>454</ele>
        <time>2016-01-31T09:29:36.000Z</time>
      </trkpt>
      <trkpt lat="47.44039" lon="6.79583">
        <ele>454</ele>
        <time>2016-01-31T09:29:38.000Z</time>
      </trkpt>
      <trkpt lat="47.44038" lon="6.79583">
        <ele>454</ele>
        <time>2016-01-31T09:29:39.000Z</time>
      </trkpt>
      <trkpt lat="47.44034" lon="6.79582">
        <ele>455</ele>
        <time>2016-01-31T09:29:42.000Z</time>
      </trkpt>
      <trkpt lat="47.44033" lon="6.79581">
        <ele>455</ele>
        <time>2016-01-31T09:29:43.000Z</time>
      </trkpt>
      <trkpt lat="47.44028" lon="6.79581">
        <ele>455</ele>
        <time>2016-01-31T09:29:47.000Z</time>
      </trkpt>
      <trkpt lat="47.44027" lon="6.7958">
        <ele>455</ele>
        <time>2016-01-31T09:29:48.000Z</time>
      </trkpt>
      <trkpt lat="47.44024" lon="6.7958">
        <ele>455</ele>
        <time>2016-01-31T09:29:50.000Z</time>
      </trkpt>
      <trkpt lat="47.44023" lon="6.7958">
        <ele>455</ele>
        <time>2016-01-31T09:29:51.000Z</time>
      </trkpt>
      <trkpt lat="47.44019" lon="6.7958">
        <ele>455</ele>
        <time>2016-01-31T09:29:54.000Z</time>
      </trkpt>
      <trkpt lat="47.44018" lon="6.7958">
        <ele>455</ele>
        <time>2016-01-31T09:29:55.000Z</time>
      </trkpt>
      <trkpt lat="47.44014" lon="6.79582">
        <ele>455</ele>
        <time>2016-01-31T09:29:59.000Z</time>
      </trkpt>
      <trkpt lat="47.44012" lon="6.79583">
        <ele>455</ele>
        <time>2016-01-31T09:30:00.000Z</time>
      </trkpt>
      <trkpt lat="47.44009" lon="6.79584">
        <ele>456</ele>
        <time>2016-01-31T09:30:02.000Z</time>
      </trkpt>
      <trkpt lat="47.44007" lon="6.79585">
        <ele>456</ele>
        <time>2016-01-31T09:30:03.000Z</time>
      </trkpt>
      <trkpt lat="47.44003" lon="6.79587">
        <ele>456</ele>
        <time>2016-01-31T09:30:05.000Z</time>
      </trkpt>
      <trkpt lat="47.44001" lon="6.79587">
        <ele>456</ele>
        <time>2016-01-31T09:30:06.000Z</time>
      </trkpt>
      <trkpt lat="47.43997" lon="6.79588">
        <ele>457</ele>
        <time>2016-01-31T09:30:08.000Z</time>
      </trkpt>
      <trkpt lat="47.43995" lon="6.79589">
        <ele>457</ele>
        <time>2016-01-31T09:30:09.000Z</time>
      </trkpt>
      <trkpt lat="47.43991" lon="6.79592">
        <ele>457</ele>
        <time>2016-01-31T09:30:11.000Z</time>
      </trkpt>
      <trkpt lat="47.43989" lon="6.79593">
        <ele>457</ele>
        <time>2016-01-31T09:30:12.000Z</time>
      </trkpt>
      <trkpt lat="47.43987" lon="6.79595">
        <ele>458</ele>
        <time>2016-01-31T09:30:13.000Z</time>
      </trkpt>
      <trkpt lat="47.43985" lon="6.79596">
        <ele>458</ele>
        <time>2016-01-31T09:30:14.000Z</time>
      </trkpt>
      <trkpt lat="47.43981" lon="6.79598">
        <ele>458</ele>
        <time>2016-01-31T09:30:16.000Z</time>
      </trkpt>
      <trkpt lat="47.43979" lon="6.79599">
        <ele>458</ele>
        <time>2016-01-31T09:30:17.000Z</time>
      </trkpt>
      <trkpt lat="47.43976" lon="6.79602">
        <ele>458</ele>
        <time>2016-01-31T09:30:21.000Z</time>
      </trkpt>
      <trkpt lat="47.43974" lon="6.79602">
        <ele>458</ele>
        <time>2016-01-31T09:30:22.000Z</time>
      </trkpt>
      <trkpt lat="47.4397" lon="6.79605">
        <ele>459</ele>
        <time>2016-01-31T09:30:25.000Z</time>
      </trkpt>
      <trkpt lat="47.43969" lon="6.79605">
        <ele>459</ele>
        <time>2016-01-31T09:30:26.000Z</time>
      </trkpt>
      <trkpt lat="47.43965" lon="6.79606">
        <ele>459</ele>
        <time>2016-01-31T09:30:29.000Z</time>
      </trkpt>
      <trkpt lat="47.43964" lon="6.79606">
        <ele>459</ele>
        <time>2016-01-31T09:30:30.000Z</time>
      </trkpt>
      <trkpt lat="47.43959" lon="6.79605">
        <ele>459</ele>
        <time>2016-01-31T09:30:33.000Z</time>
      </trkpt>
      <trkpt lat="47.43958" lon="6.79604">
        <ele>459</ele>
        <time>2016-01-31T09:30:34.000Z</time>
      </trkpt>
      <trkpt lat="47.43955" lon="6.79603">
        <ele>459</ele>
        <time>2016-01-31T09:30:36.000Z</time>
      </trkpt>
      <trkpt lat="47.43953" lon="6.79602">
        <ele>459</ele>
        <time>2016-01-31T09:30:37.000Z</time>
      </trkpt>
      <trkpt lat="47.43949" lon="6.796">
        <ele>459</ele>
        <time>2016-01-31T09:30:39.000Z</time>
      </trkpt>
      <trkpt lat="47.43947" lon="6.79599">
        <ele>460</ele>
        <time>2016-01-31T09:30:40.000Z</time>
      </trkpt>
      <trkpt lat="47.43944" lon="6.79597">
        <ele>460</ele>
        <time>2016-01-31T09:30:42.000Z</time>
      </trkpt>
      <trkpt lat="47.43942" lon="6.79597">
        <ele>460</ele>
        <time>2016-01-31T09:30:43.000Z</time>
      </trkpt>
      <trkpt lat="47.43939" lon="6.79596">
        <ele>460</ele>
        <time>2016-01-31T09:30:45.000Z</time>
      </trkpt>
      <trkpt lat="47.43937" lon="6.79595">
        <ele>460</ele>
        <time>2016-01-31T09:30:46.000Z</time>
      </trkpt>
      <trkpt lat="47.43935" lon="6.79594">
        <ele>460</ele>
        <time>2016-01-31T09:30:47.000Z</time>
      </trkpt>
      <trkpt lat="47.43932" lon="6.79593">
        <ele>460</ele>
        <time>2016-01-31T09:30:48.000Z</time>
      </trkpt>
      <trkpt lat="47.4393" lon="6.79591">
        <ele>461</ele>
        <time>2016-01-31T09:30:49.000Z</time>
      </trkpt>
      <trkpt lat="47.43928" lon="6.79589">
        <ele>461</ele>
        <time>2016-01-31T09:30:50.000Z</time>
      </trkpt>
      <trkpt lat="47.43925" lon="6.79587">
        <ele>461</ele>
        <time>2016-01-31T09:30:51.000Z</time>
      </trkpt>
      <trkpt lat="47.43923" lon="6.79586">
        <ele>461</ele>
        <time>2016-01-31T09:30:52.000Z</time>
      </trkpt>
      <trkpt lat="47.43921" lon="6.79584">
        <ele>462</ele>
        <time>2016-01-31T09:30:53.000Z</time>
      </trkpt>
      <trkpt lat="47.43918" lon="6.79582">
        <ele>462</ele>
        <time>2016-01-31T09:30:54.000Z</time>
      </trkpt>
      <trkpt lat="47.43916" lon="6.79581">
        <ele>462</ele>
        <time>2016-01-31T09:30:55.000Z</time>
      </trkpt>
      <trkpt lat="47.43914" lon="6.79579">
        <ele>463</ele>
        <time>2016-01-31T09:30:56.000Z</time>
      </trkpt>
      <trkpt lat="47.43912" lon="6.79578">
        <ele>463</ele>
        <time>2016-01-31T09:30:57.000Z</time>
      </trkpt>
      <trkpt lat="47.43909" lon="6.79577">
        <ele>463</ele>
        <time>2016-01-31T09:30:58.000Z</time>
      </trkpt>
      <trkpt lat="47.43907" lon="6.79576">
        <ele>463</ele>
        <time>2016-01-31T09:30:59.000Z</time>
      </trkpt>
      <trkpt lat="47.43904" lon="6.79574">
        <ele>464</ele>
        <time>2016-01-31T09:31:00.000Z</time>
      </trkpt>
      <trkpt lat="47.43902" lon="6.79573">
        <ele>464</ele>
        <time>2016-01-31T09:31:01.000Z</time>
      </trkpt>
      <trkpt lat="47.43899" lon="6.79571">
        <ele>464</ele>
        <time>2016-01-31T09:31:02.000Z</time>
      </trkpt>
      <trkpt lat="47.43897" lon="6.79569">
        <ele>464</ele>
        <time>2016-01-31T09:31:03.000Z</time>
      </trkpt>
      <trkpt lat="47.43895" lon="6.79568">
        <ele>464</ele>
        <time>2016-01-31T09:31:04.000Z</time>
      </trkpt>
      <trkpt lat="47.43891" lon="6.79566">
        <ele>465</ele>
        <time>2016-01-31T09:31:07.000Z</time>
      </trkpt>
      <trkpt lat="47.4389" lon="6.79565">
        <ele>465</ele>
        <time>2016-01-31T09:31:08.000Z</time>
      </trkpt>
      <trkpt lat="47.43887" lon="6.79561">
        <ele>465</ele>
        <time>2016-01-31T09:31:11.000Z</time>
      </trkpt>
      <trkpt lat="47.43886" lon="6.7956">
        <ele>465</ele>
        <time>2016-01-31T09:31:12.000Z</time>
      </trkpt>
      <trkpt lat="47.43882" lon="6.79557">
        <ele>465</ele>
        <time>2016-01-31T09:31:16.000Z</time>
      </trkpt>
      <trkpt lat="47.43881" lon="6.79556">
        <ele>465</ele>
        <time>2016-01-31T09:31:17.000Z</time>
      </trkpt>
      <trkpt lat="47.43879" lon="6.79555">
        <ele>465</ele>
        <time>2016-01-31T09:31:19.000Z</time>
      </trkpt>
      <trkpt lat="47.43877" lon="6.79555">
        <ele>465</ele>
        <time>2016-01-31T09:31:20.000Z</time>
      </trkpt>
      <trkpt lat="47.43873" lon="6.79554">
        <ele>466</ele>
        <time>2016-01-31T09:31:22.000Z</time>
      </trkpt>
      <trkpt lat="47.43871" lon="6.79553">
        <ele>466</ele>
        <time>2016-01-31T09:31:23.000Z</time>
      </trkpt>
      <trkpt lat="47.43867" lon="6.79551">
        <ele>466</ele>
        <time>2016-01-31T09:31:25.000Z</time>
      </trkpt>
      <trkpt lat="47.43866" lon="6.7955">
        <ele>466</ele>
        <time>2016-01-31T09:31:26.000Z</time>
      </trkpt>
      <trkpt lat="47.43862" lon="6.79548">
        <ele>466</ele>
        <time>2016-01-31T09:31:28.000Z</time>
      </trkpt>
      <trkpt lat="47.4386" lon="6.79548">
        <ele>466</ele>
        <time>2016-01-31T09:31:29.000Z</time>
      </trkpt>
      <trkpt lat="47.43857" lon="6.79547">
        <ele>466</ele>
        <time>2016-01-31T09:31:31.000Z</time>
      </trkpt>
      <trkpt lat="47.43855" lon="6.79547">
        <ele>466</ele>
        <time>2016-01-31T09:31:32.000Z</time>
      </trkpt>
      <trkpt lat="47.43852" lon="6.79547">
        <ele>466</ele>
        <time>2016-01-31T09:31:34.000Z</time>
      </trkpt>
      <trkpt lat="47.4385" lon="6.79548">
        <ele>466</ele>
        <time>2016-01-31T09:31:35.000Z</time>
      </trkpt>
      <trkpt lat="47.43847" lon="6.79549">
        <ele>466</ele>
        <time>2016-01-31T09:31:37.000Z</time>
      </trkpt>
      <trkpt lat="47.43845" lon="6.79549">
        <ele>466</ele>
        <time>2016-01-31T09:31:38.000Z</time>
      </trkpt>
      <trkpt lat="47.43842" lon="6.79551">
        <ele>466</ele>
        <time>2016-01-31T09:31:40.000Z</time>
      </trkpt>
      <trkpt lat="47.43841" lon="6.79551">
        <ele>466</ele>
        <time>2016-01-31T09:31:41.000Z</time>
      </trkpt>
      <trkpt lat="47.43838" lon="6.79553">
        <ele>466</ele>
        <time>2016-01-31T09:31:43.000Z</time>
      </trkpt>
      <trkpt lat="47.43836" lon="6.79553">
        <ele>466</ele>
        <time>2016-01-31T09:31:44.000Z</time>
      </trkpt>
      <trkpt lat="47.43832" lon="6.79553">
        <ele>470</ele>
        <time>2016-01-31T09:31:47.000Z</time>
      </trkpt>
      <trkpt lat="47.4383" lon="6.79554">
        <ele>470</ele>
        <time>2016-01-31T09:31:48.000Z</time>
      </trkpt>
      <trkpt lat="47.43827" lon="6.79555">
        <ele>470</ele>
        <time>2016-01-31T09:31:50.000Z</time>
      </trkpt>
      <trkpt lat="47.43825" lon="6.79555">
        <ele>470</ele>
        <time>2016-01-31T09:31:51.000Z</time>
      </trkpt>
      <trkpt lat="47.43821" lon="6.79556">
        <ele>470</ele>
        <time>2016-01-31T09:31:54.000Z</time>
      </trkpt>
      <trkpt lat="47.43819" lon="6.79556">
        <ele>470</ele>
        <time>2016-01-31T09:31:55.000Z</time>
      </trkpt>
      <trkpt lat="47.43815" lon="6.79557">
        <ele>470</ele>
        <time>2016-01-31T09:31:58.000Z</time>
      </trkpt>
      <trkpt lat="47.43813" lon="6.79558">
        <ele>470</ele>
        <time>2016-01-31T09:31:59.000Z</time>
      </trkpt>
      <trkpt lat="47.43811" lon="6.79561">
        <ele>470</ele>
        <time>2016-01-31T09:32:01.000Z</time>
      </trkpt>
      <trkpt lat="47.4381" lon="6.79562">
        <ele>470</ele>
        <time>2016-01-31T09:32:02.000Z</time>
      </trkpt>
      <trkpt lat="47.43807" lon="6.79567">
        <ele>470</ele>
        <time>2016-01-31T09:32:05.000Z</time>
      </trkpt>
      <trkpt lat="47.43807" lon="6.79568">
        <ele>470</ele>
        <time>2016-01-31T09:32:06.000Z</time>
      </trkpt>
      <trkpt lat="47.43805" lon="6.79563">
        <ele>470</ele>
        <time>2016-01-31T09:32:19.000Z</time>
      </trkpt>
      <trkpt lat="47.43804" lon="6.79561">
        <ele>470</ele>
        <time>2016-01-31T09:32:20.000Z</time>
      </trkpt>
      <trkpt lat="47.43804" lon="6.79558">
        <ele>470</ele>
        <time>2016-01-31T09:32:21.000Z</time>
      </trkpt>
      <trkpt lat="47.43803" lon="6.79555">
        <ele>470</ele>
        <time>2016-01-31T09:32:22.000Z</time>
      </trkpt>
      <trkpt lat="47.43801" lon="6.79549">
        <ele>470</ele>
        <time>2016-01-31T09:32:24.000Z</time>
      </trkpt>
      <trkpt lat="47.43801" lon="6.79547">
        <ele>470</ele>
        <time>2016-01-31T09:32:25.000Z</time>
      </trkpt>
      <trkpt lat="47.43801" lon="6.79543">
        <ele>470</ele>
        <time>2016-01-31T09:32:27.000Z</time>
      </trkpt>
      <trkpt lat="47.438" lon="6.7954">
        <ele>470</ele>
        <time>2016-01-31T09:32:28.000Z</time>
      </trkpt>
      <trkpt lat="47.43798" lon="6.79534">
        <ele>471</ele>
        <time>2016-01-31T09:32:30.000Z</time>
      </trkpt>
      <trkpt lat="47.43797" lon="6.79531">
        <ele>471</ele>
        <time>2016-01-31T09:32:31.000Z</time>
      </trkpt>
      <trkpt lat="47.43795" lon="6.79526">
        <ele>471</ele>
        <time>2016-01-31T09:32:33.000Z</time>
      </trkpt>
      <trkpt lat="47.43794" lon="6.79523">
        <ele>471</ele>
        <time>2016-01-31T09:32:34.000Z</time>
      </trkpt>
      <trkpt lat="47.43792" lon="6.79519">
        <ele>471</ele>
        <time>2016-01-31T09:32:36.000Z</time>
      </trkpt>
      <trkpt lat="47.43791" lon="6.79516">
        <ele>471</ele>
        <time>2016-01-31T09:32:37.000Z</time>
      </trkpt>
      <trkpt lat="47.4379" lon="6.79513">
        <ele>471</ele>
        <time>2016-01-31T09:32:38.000Z</time>
      </trkpt>
      <trkpt lat="47.43789" lon="6.7951">
        <ele>471</ele>
        <time>2016-01-31T09:32:39.000Z</time>
      </trkpt>
      <trkpt lat="47.43788" lon="6.79506">
        <ele>471</ele>
        <time>2016-01-31T09:32:40.000Z</time>
      </trkpt>
      <trkpt lat="47.43787" lon="6.79501">
        <ele>471</ele>
        <time>2016-01-31T09:32:41.000Z</time>
      </trkpt>
      <trkpt lat="47.43786" lon="6.79497">
        <ele>470</ele>
        <time>2016-01-31T09:32:42.000Z</time>
      </trkpt>
      <trkpt lat="47.43785" lon="6.79492">
        <ele>470</ele>
        <time>2016-01-31T09:32:43.000Z</time>
      </trkpt>
      <trkpt lat="47.43784" lon="6.79487">
        <ele>470</ele>
        <time>2016-01-31T09:32:44.000Z</time>
      </trkpt>
      <trkpt lat="47.43784" lon="6.79483">
        <ele>470</ele>
        <time>2016-01-31T09:32:45.000Z</time>
      </trkpt>
      <trkpt lat="47.43783" lon="6.79479">
        <ele>470</ele>
        <time>2016-01-31T09:32:46.000Z</time>
      </trkpt>
      <trkpt lat="47.43781" lon="6.79476">
        <ele>470</ele>
        <time>2016-01-31T09:32:47.000Z</time>
      </trkpt>
      <trkpt lat="47.4378" lon="6.79473">
        <ele>470</ele>
        <time>2016-01-31T09:32:48.000Z</time>
      </trkpt>
      <trkpt lat="47.43779" lon="6.79469">
        <ele>470</ele>
        <time>2016-01-31T09:32:49.000Z</time>
      </trkpt>
      <trkpt lat="47.43778" lon="6.79463">
        <ele>470</ele>
        <time>2016-01-31T09:32:51.000Z</time>
      </trkpt>
      <trkpt lat="47.43777" lon="6.7946">
        <ele>469</ele>
        <time>2016-01-31T09:32:52.000Z</time>
      </trkpt>
      <trkpt lat="47.43775" lon="6.79454">
        <ele>469</ele>
        <time>2016-01-31T09:32:54.000Z</time>
      </trkpt>
      <trkpt lat="47.43774" lon="6.79451">
        <ele>469</ele>
        <time>2016-01-31T09:32:55.000Z</time>
      </trkpt>
      <trkpt lat="47.43773" lon="6.79448">
        <ele>469</ele>
        <time>2016-01-31T09:32:56.000Z</time>
      </trkpt>
      <trkpt lat="47.43773" lon="6.79444">
        <ele>469</ele>
        <time>2016-01-31T09:32:57.000Z</time>
      </trkpt>
      <trkpt lat="47.43772" lon="6.7944">
        <ele>469</ele>
        <time>2016-01-31T09:32:58.000Z</time>
      </trkpt>
      <trkpt lat="47.43772" lon="6.79437">
        <ele>469</ele>
        <time>2016-01-31T09:32:59.000Z</time>
      </trkpt>
      <trkpt lat="47.4377" lon="6.79432">
        <ele>469</ele>
        <time>2016-01-31T09:33:01.000Z</time>
      </trkpt>
      <trkpt lat="47.43769" lon="6.79432">
        <ele>469</ele>
        <time>2016-01-31T09:33:02.000Z</time>
      </trkpt>
      <trkpt lat="47.43765" lon="6.7943">
        <ele>469</ele>
        <time>2016-01-31T09:33:06.000Z</time>
      </trkpt>
      <trkpt lat="47.43764" lon="6.7943">
        <ele>469</ele>
        <time>2016-01-31T09:33:07.000Z</time>
      </trkpt>
      <trkpt lat="47.43759" lon="6.7943">
        <ele>470</ele>
        <time>2016-01-31T09:33:13.000Z</time>
      </trkpt>
      <trkpt lat="47.43758" lon="6.79431">
        <ele>470</ele>
        <time>2016-01-31T09:33:14.000Z</time>
      </trkpt>
      <trkpt lat="47.43755" lon="6.79431">
        <ele>470</ele>
        <time>2016-01-31T09:33:16.000Z</time>
      </trkpt>
      <trkpt lat="47.43753" lon="6.79432">
        <ele>470</ele>
        <time>2016-01-31T09:33:17.000Z</time>
      </trkpt>
      <trkpt lat="47.4375" lon="6.79434">
        <ele>470</ele>
        <time>2016-01-31T09:33:19.000Z</time>
      </trkpt>
      <trkpt lat="47.43748" lon="6.79435">
        <ele>471</ele>
        <time>2016-01-31T09:33:20.000Z</time>
      </trkpt>
      <trkpt lat="47.43746" lon="6.79436">
        <ele>471</ele>
        <time>2016-01-31T09:33:21.000Z</time>
      </trkpt>
      <trkpt lat="47.43744" lon="6.79438">
        <ele>471</ele>
        <time>2016-01-31T09:33:22.000Z</time>
      </trkpt>
      <trkpt lat="47.43741" lon="6.79438">
        <ele>471</ele>
        <time>2016-01-31T09:33:23.000Z</time>
      </trkpt>
      <trkpt lat="47.43739" lon="6.79439">
        <ele>471</ele>
        <time>2016-01-31T09:33:24.000Z</time>
      </trkpt>
      <trkpt lat="47.43736" lon="6.79438">
        <ele>471</ele>
        <time>2016-01-31T09:33:25.000Z</time>
      </trkpt>
      <trkpt lat="47.43733" lon="6.79438">
        <ele>471</ele>
        <time>2016-01-31T09:33:26.000Z</time>
      </trkpt>
      <trkpt lat="47.43731" lon="6.79437">
        <ele>471</ele>
        <time>2016-01-31T09:33:27.000Z</time>
      </trkpt>
      <trkpt lat="47.43728" lon="6.79436">
        <ele>471</ele>
        <time>2016-01-31T09:33:28.000Z</time>
      </trkpt>
      <trkpt lat="47.43725" lon="6.79436">
        <ele>471</ele>
        <time>2016-01-31T09:33:29.000Z</time>
      </trkpt>
      <trkpt lat="47.43723" lon="6.79436">
        <ele>471</ele>
        <time>2016-01-31T09:33:30.000Z</time>
      </trkpt>
      <trkpt lat="47.43719" lon="6.79437">
        <ele>471</ele>
        <time>2016-01-31T09:33:32.000Z</time>
      </trkpt>
      <trkpt lat="47.43717" lon="6.79437">
        <ele>471</ele>
        <time>2016-01-31T09:33:33.000Z</time>
      </trkpt>
      <trkpt lat="47.43713" lon="6.79437">
        <ele>471</ele>
        <time>2016-01-31T09:33:35.000Z</time>
      </trkpt>
      <trkpt lat="47.43711" lon="6.79438">
        <ele>472</ele>
        <time>2016-01-31T09:33:36.000Z</time>
      </trkpt>
      <trkpt lat="47.43708" lon="6.79441">
        <ele>472</ele>
        <time>2016-01-31T09:33:38.000Z</time>
      </trkpt>
      <trkpt lat="47.43707" lon="6.79442">
        <ele>472</ele>
        <time>2016-01-31T09:33:39.000Z</time>
      </trkpt>
      <trkpt lat="47.43703" lon="6.79445">
        <ele>472</ele>
        <time>2016-01-31T09:33:41.000Z</time>
      </trkpt>
      <trkpt lat="47.43701" lon="6.79447">
        <ele>472</ele>
        <time>2016-01-31T09:33:42.000Z</time>
      </trkpt>
      <trkpt lat="47.43699" lon="6.79448">
        <ele>472</ele>
        <time>2016-01-31T09:33:43.000Z</time>
      </trkpt>
      <trkpt lat="47.43697" lon="6.7945">
        <ele>472</ele>
        <time>2016-01-31T09:33:44.000Z</time>
      </trkpt>
      <trkpt lat="47.43693" lon="6.79453">
        <ele>472</ele>
        <time>2016-01-31T09:33:46.000Z</time>
      </trkpt>
      <trkpt lat="47.43691" lon="6.79454">
        <ele>472</ele>
        <time>2016-01-31T09:33:47.000Z</time>
      </trkpt>
      <trkpt lat="47.43687" lon="6.79456">
        <ele>472</ele>
        <time>2016-01-31T09:33:49.000Z</time>
      </trkpt>
      <trkpt lat="47.43685" lon="6.79457">
        <ele>472</ele>
        <time>2016-01-31T09:33:50.000Z</time>
      </trkpt>
      <trkpt lat="47.43682" lon="6.79458">
        <ele>472</ele>
        <time>2016-01-31T09:33:52.000Z</time>
      </trkpt>
      <trkpt lat="47.4368" lon="6.79459">
        <ele>473</ele>
        <time>2016-01-31T09:33:53.000Z</time>
      </trkpt>
      <trkpt lat="47.43676" lon="6.79459">
        <ele>473</ele>
        <time>2016-01-31T09:33:55.000Z</time>
      </trkpt>
      <trkpt lat="47.43674" lon="6.79459">
        <ele>473</ele>
        <time>2016-01-31T09:33:56.000Z</time>
      </trkpt>
      <trkpt lat="47.43671" lon="6.7946">
        <ele>473</ele>
        <time>2016-01-31T09:33:57.000Z</time>
      </trkpt>
      <trkpt lat="47.43669" lon="6.7946">
        <ele>473</ele>
        <time>2016-01-31T09:33:58.000Z</time>
      </trkpt>
      <trkpt lat="47.43666" lon="6.7946">
        <ele>473</ele>
        <time>2016-01-31T09:33:59.000Z</time>
      </trkpt>
      <trkpt lat="47.43664" lon="6.7946">
        <ele>473</ele>
        <time>2016-01-31T09:34:00.000Z</time>
      </trkpt>
      <trkpt lat="47.4366" lon="6.79461">
        <ele>473</ele>
        <time>2016-01-31T09:34:02.000Z</time>
      </trkpt>
      <trkpt lat="47.43658" lon="6.79462">
        <ele>473</ele>
        <time>2016-01-31T09:34:03.000Z</time>
      </trkpt>
      <trkpt lat="47.43654" lon="6.79462">
        <ele>473</ele>
        <time>2016-01-31T09:34:05.000Z</time>
      </trkpt>
      <trkpt lat="47.43652" lon="6.79461">
        <ele>473</ele>
        <time>2016-01-31T09:34:06.000Z</time>
      </trkpt>
      <trkpt lat="47.43648" lon="6.7946">
        <ele>473</ele>
        <time>2016-01-31T09:34:08.000Z</time>
      </trkpt>
      <trkpt lat="47.43646" lon="6.79459">
        <ele>473</ele>
        <time>2016-01-31T09:34:09.000Z</time>
      </trkpt>
      <trkpt lat="47.43642" lon="6.79458">
        <ele>473</ele>
        <time>2016-01-31T09:34:11.000Z</time>
      </trkpt>
      <trkpt lat="47.4364" lon="6.79457">
        <ele>473</ele>
        <time>2016-01-31T09:34:12.000Z</time>
      </trkpt>
      <trkpt lat="47.43636" lon="6.79456">
        <ele>473</ele>
        <time>2016-01-31T09:34:14.000Z</time>
      </trkpt>
      <trkpt lat="47.43634" lon="6.79455">
        <ele>473</ele>
        <time>2016-01-31T09:34:15.000Z</time>
      </trkpt>
      <trkpt lat="47.43631" lon="6.79453">
        <ele>473</ele>
        <time>2016-01-31T09:34:16.000Z</time>
      </trkpt>
      <trkpt lat="47.43628" lon="6.79451">
        <ele>473</ele>
        <time>2016-01-31T09:34:17.000Z</time>
      </trkpt>
      <trkpt lat="47.43625" lon="6.7945">
        <ele>473</ele>
        <time>2016-01-31T09:34:18.000Z</time>
      </trkpt>
      <trkpt lat="47.43623" lon="6.79449">
        <ele>472</ele>
        <time>2016-01-31T09:34:19.000Z</time>
      </trkpt>
      <trkpt lat="47.4362" lon="6.79448">
        <ele>472</ele>
        <time>2016-01-31T09:34:20.000Z</time>
      </trkpt>
      <trkpt lat="47.43617" lon="6.79448">
        <ele>472</ele>
        <time>2016-01-31T09:34:21.000Z</time>
      </trkpt>
      <trkpt lat="47.43615" lon="6.79448">
        <ele>472</ele>
        <time>2016-01-31T09:34:22.000Z</time>
      </trkpt>
      <trkpt lat="47.43613" lon="6.79449">
        <ele>472</ele>
        <time>2016-01-31T09:34:23.000Z</time>
      </trkpt>
      <trkpt lat="47.43608" lon="6.79451">
        <ele>472</ele>
        <time>2016-01-31T09:34:25.000Z</time>
      </trkpt>
      <trkpt lat="47.43606" lon="6.79452">
        <ele>473</ele>
        <time>2016-01-31T09:34:26.000Z</time>
      </trkpt>
      <trkpt lat="47.43602" lon="6.79453">
        <ele>473</ele>
        <time>2016-01-31T09:34:28.000Z</time>
      </trkpt>
      <trkpt lat="47.436" lon="6.79454">
        <ele>473</ele>
        <time>2016-01-31T09:34:29.000Z</time>
      </trkpt>
      <trkpt lat="47.43598" lon="6.79453">
        <ele>473</ele>
        <time>2016-01-31T09:34:30.000Z</time>
      </trkpt>
      <trkpt lat="47.43595" lon="6.79453">
        <ele>473</ele>
        <time>2016-01-31T09:34:31.000Z</time>
      </trkpt>
      <trkpt lat="47.43593" lon="6.79452">
        <ele>472</ele>
        <time>2016-01-31T09:34:32.000Z</time>
      </trkpt>
      <trkpt lat="47.4359" lon="6.79453">
        <ele>473</ele>
        <time>2016-01-31T09:34:33.000Z</time>
      </trkpt>
      <trkpt lat="47.43587" lon="6.79455">
        <ele>473</ele>
        <time>2016-01-31T09:34:35.000Z</time>
      </trkpt>
      <trkpt lat="47.43584" lon="6.79456">
        <ele>473</ele>
        <time>2016-01-31T09:34:36.000Z</time>
      </trkpt>
      <trkpt lat="47.43582" lon="6.79457">
        <ele>470</ele>
        <time>2016-01-31T09:34:37.000Z</time>
      </trkpt>
      <trkpt lat="47.4358" lon="6.79458">
        <ele>470</ele>
        <time>2016-01-31T09:34:38.000Z</time>
      </trkpt>
      <trkpt lat="47.43576" lon="6.79459">
        <ele>470</ele>
        <time>2016-01-31T09:34:40.000Z</time>
      </trkpt>
      <trkpt lat="47.43574" lon="6.79461">
        <ele>470</ele>
        <time>2016-01-31T09:34:41.000Z</time>
      </trkpt>
      <trkpt lat="47.4357" lon="6.79462">
        <ele>470</ele>
        <time>2016-01-31T09:34:43.000Z</time>
      </trkpt>
      <trkpt lat="47.43568" lon="6.79462">
        <ele>470</ele>
        <time>2016-01-31T09:34:44.000Z</time>
      </trkpt>
      <trkpt lat="47.43565" lon="6.79463">
        <ele>470</ele>
        <time>2016-01-31T09:34:45.000Z</time>
      </trkpt>
      <trkpt lat="47.43563" lon="6.79464">
        <ele>470</ele>
        <time>2016-01-31T09:34:46.000Z</time>
      </trkpt>
      <trkpt lat="47.43561" lon="6.79466">
        <ele>470</ele>
        <time>2016-01-31T09:34:47.000Z</time>
      </trkpt>
      <trkpt lat="47.43558" lon="6.79467">
        <ele>470</ele>
        <time>2016-01-31T09:34:48.000Z</time>
      </trkpt>
      <trkpt lat="47.43554" lon="6.79469">
        <ele>470</ele>
        <time>2016-01-31T09:34:50.000Z</time>
      </trkpt>
      <trkpt lat="47.43552" lon="6.7947">
        <ele>470</ele>
        <time>2016-01-31T09:34:51.000Z</time>
      </trkpt>
      <trkpt lat="47.43548" lon="6.79471">
        <ele>470</ele>
        <time>2016-01-31T09:34:53.000Z</time>
      </trkpt>
      <trkpt lat="47.43546" lon="6.79472">
        <ele>470</ele>
        <time>2016-01-31T09:34:54.000Z</time>
      </trkpt>
      <trkpt lat="47.43543" lon="6.79472">
        <ele>470</ele>
        <time>2016-01-31T09:34:55.000Z</time>
      </trkpt>
      <trkpt lat="47.43541" lon="6.79472">
        <ele>470</ele>
        <time>2016-01-31T09:34:56.000Z</time>
      </trkpt>
      <trkpt lat="47.43537" lon="6.79474">
        <ele>470</ele>
        <time>2016-01-31T09:34:58.000Z</time>
      </trkpt>
      <trkpt lat="47.43535" lon="6.79476">
        <ele>470</ele>
        <time>2016-01-31T09:34:59.000Z</time>
      </trkpt>
      <trkpt lat="47.43531" lon="6.79478">
        <ele>470</ele>
        <time>2016-01-31T09:35:01.000Z</time>
      </trkpt>
      <trkpt lat="47.43529" lon="6.79479">
        <ele>470</ele>
        <time>2016-01-31T09:35:02.000Z</time>
      </trkpt>
      <trkpt lat="47.43527" lon="6.7948">
        <ele>471</ele>
        <time>2016-01-31T09:35:03.000Z</time>
      </trkpt>
      <trkpt lat="47.43524" lon="6.79481">
        <ele>471</ele>
        <time>2016-01-31T09:35:04.000Z</time>
      </trkpt>
      <trkpt lat="47.43522" lon="6.79483">
        <ele>471</ele>
        <time>2016-01-31T09:35:05.000Z</time>
      </trkpt>
      <trkpt lat="47.43519" lon="6.79485">
        <ele>472</ele>
        <time>2016-01-31T09:35:06.000Z</time>
      </trkpt>
      <trkpt lat="47.43516" lon="6.79486">
        <ele>473</ele>
        <time>2016-01-31T09:35:07.000Z</time>
      </trkpt>
      <trkpt lat="47.43513" lon="6.79488">
        <ele>473</ele>
        <time>2016-01-31T09:35:08.000Z</time>
      </trkpt>
      <trkpt lat="47.4351" lon="6.79489">
        <ele>474</ele>
        <time>2016-01-31T09:35:09.000Z</time>
      </trkpt>
      <trkpt lat="47.43508" lon="6.7949">
        <ele>475</ele>
        <time>2016-01-31T09:35:10.000Z</time>
      </trkpt>
      <trkpt lat="47.43503" lon="6.79492">
        <ele>476</ele>
        <time>2016-01-31T09:35:12.000Z</time>
      </trkpt>
      <trkpt lat="47.43502" lon="6.79493">
        <ele>477</ele>
        <time>2016-01-31T09:35:13.000Z</time>
      </trkpt>
      <trkpt lat="47.43498" lon="6.79496">
        <ele>475</ele>
        <time>2016-01-31T09:35:15.000Z</time>
      </trkpt>
      <trkpt lat="47.43497" lon="6.79497">
        <ele>476</ele>
        <time>2016-01-31T09:35:16.000Z</time>
      </trkpt>
      <trkpt lat="47.43494" lon="6.79499">
        <ele>474</ele>
        <time>2016-01-31T09:35:18.000Z</time>
      </trkpt>
      <trkpt lat="47.43492" lon="6.79499">
        <ele>472</ele>
        <time>2016-01-31T09:35:19.000Z</time>
      </trkpt>
      <trkpt lat="47.43489" lon="6.79501">
        <ele>479</ele>
        <time>2016-01-31T09:35:20.000Z</time>
      </trkpt>
      <trkpt lat="47.43487" lon="6.79503">
        <ele>479</ele>
        <time>2016-01-31T09:35:21.000Z</time>
      </trkpt>
      <trkpt lat="47.43483" lon="6.79506">
        <ele>479</ele>
        <time>2016-01-31T09:35:23.000Z</time>
      </trkpt>
      <trkpt lat="47.4348" lon="6.79507">
        <ele>479</ele>
        <time>2016-01-31T09:35:24.000Z</time>
      </trkpt>
      <trkpt lat="47.43478" lon="6.79509">
        <ele>479</ele>
        <time>2016-01-31T09:35:25.000Z</time>
      </trkpt>
      <trkpt lat="47.43476" lon="6.79511">
        <ele>479</ele>
        <time>2016-01-31T09:35:26.000Z</time>
      </trkpt>
      <trkpt lat="47.43473" lon="6.79513">
        <ele>478</ele>
        <time>2016-01-31T09:35:27.000Z</time>
      </trkpt>
      <trkpt lat="47.43471" lon="6.79515">
        <ele>478</ele>
        <time>2016-01-31T09:35:28.000Z</time>
      </trkpt>
      <trkpt lat="47.43469" lon="6.79517">
        <ele>478</ele>
        <time>2016-01-31T09:35:29.000Z</time>
      </trkpt>
      <trkpt lat="47.43466" lon="6.79518">
        <ele>478</ele>
        <time>2016-01-31T09:35:30.000Z</time>
      </trkpt>
      <trkpt lat="47.43462" lon="6.7952">
        <ele>478</ele>
        <time>2016-01-31T09:35:32.000Z</time>
      </trkpt>
      <trkpt lat="47.43461" lon="6.79521">
        <ele>478</ele>
        <time>2016-01-31T09:35:33.000Z</time>
      </trkpt>
      <trkpt lat="47.43457" lon="6.79523">
        <ele>477</ele>
        <time>2016-01-31T09:35:35.000Z</time>
      </trkpt>
      <trkpt lat="47.43454" lon="6.79524">
        <ele>477</ele>
        <time>2016-01-31T09:35:36.000Z</time>
      </trkpt>
      <trkpt lat="47.43451" lon="6.79525">
        <ele>477</ele>
        <time>2016-01-31T09:35:37.000Z</time>
      </trkpt>
      <trkpt lat="47.43449" lon="6.79526">
        <ele>477</ele>
        <time>2016-01-31T09:35:38.000Z</time>
      </trkpt>
      <trkpt lat="47.43445" lon="6.79529">
        <ele>477</ele>
        <time>2016-01-31T09:35:40.000Z</time>
      </trkpt>
      <trkpt lat="47.43443" lon="6.79531">
        <ele>477</ele>
        <time>2016-01-31T09:35:41.000Z</time>
      </trkpt>
      <trkpt lat="47.43441" lon="6.79532">
        <ele>477</ele>
        <time>2016-01-31T09:35:42.000Z</time>
      </trkpt>
      <trkpt lat="47.43438" lon="6.79533">
        <ele>477</ele>
        <time>2016-01-31T09:35:43.000Z</time>
      </trkpt>
      <trkpt lat="47.43435" lon="6.79534">
        <ele>477</ele>
        <time>2016-01-31T09:35:44.000Z</time>
      </trkpt>
      <trkpt lat="47.43431" lon="6.79534">
        <ele>477</ele>
        <time>2016-01-31T09:35:45.000Z</time>
      </trkpt>
      <trkpt lat="47.43428" lon="6.79534">
        <ele>476</ele>
        <time>2016-01-31T09:35:46.000Z</time>
      </trkpt>
      <trkpt lat="47.43425" lon="6.79533">
        <ele>476</ele>
        <time>2016-01-31T09:35:47.000Z</time>
      </trkpt>
      <trkpt lat="47.43422" lon="6.79532">
        <ele>476</ele>
        <time>2016-01-31T09:35:48.000Z</time>
      </trkpt>
      <trkpt lat="47.43419" lon="6.79531">
        <ele>476</ele>
        <time>2016-01-31T09:35:49.000Z</time>
      </trkpt>
      <trkpt lat="47.43416" lon="6.79531">
        <ele>471</ele>
        <time>2016-01-31T09:35:50.000Z</time>
      </trkpt>
      <trkpt lat="47.43414" lon="6.7953">
        <ele>471</ele>
        <time>2016-01-31T09:35:51.000Z</time>
      </trkpt>
      <trkpt lat="47.4341" lon="6.7953">
        <ele>471</ele>
        <time>2016-01-31T09:35:53.000Z</time>
      </trkpt>
      <trkpt lat="47.43407" lon="6.79531">
        <ele>471</ele>
        <time>2016-01-31T09:35:54.000Z</time>
      </trkpt>
      <trkpt lat="47.43405" lon="6.79532">
        <ele>471</ele>
        <time>2016-01-31T09:35:55.000Z</time>
      </trkpt>
      <trkpt lat="47.43403" lon="6.79533">
        <ele>471</ele>
        <time>2016-01-31T09:35:56.000Z</time>
      </trkpt>
      <trkpt lat="47.43399" lon="6.79536">
        <ele>471</ele>
        <time>2016-01-31T09:35:58.000Z</time>
      </trkpt>
      <trkpt lat="47.43398" lon="6.79536">
        <ele>471</ele>
        <time>2016-01-31T09:35:59.000Z</time>
      </trkpt>
      <trkpt lat="47.43394" lon="6.79538">
        <ele>472</ele>
        <time>2016-01-31T09:36:01.000Z</time>
      </trkpt>
      <trkpt lat="47.43393" lon="6.79539">
        <ele>472</ele>
        <time>2016-01-31T09:36:02.000Z</time>
      </trkpt>
      <trkpt lat="47.4339" lon="6.7954">
        <ele>472</ele>
        <time>2016-01-31T09:36:04.000Z</time>
      </trkpt>
      <trkpt lat="47.43388" lon="6.79541">
        <ele>472</ele>
        <time>2016-01-31T09:36:05.000Z</time>
      </trkpt>
      <trkpt lat="47.43384" lon="6.79543">
        <ele>472</ele>
        <time>2016-01-31T09:36:07.000Z</time>
      </trkpt>
      <trkpt lat="47.43382" lon="6.79544">
        <ele>472</ele>
        <time>2016-01-31T09:36:08.000Z</time>
      </trkpt>
      <trkpt lat="47.43379" lon="6.79545">
        <ele>472</ele>
        <time>2016-01-31T09:36:10.000Z</time>
      </trkpt>
      <trkpt lat="47.43378" lon="6.79546">
        <ele>472</ele>
        <time>2016-01-31T09:36:11.000Z</time>
      </trkpt>
      <trkpt lat="47.43373" lon="6.79546">
        <ele>472</ele>
        <time>2016-01-31T09:36:14.000Z</time>
      </trkpt>
      <trkpt lat="47.43372" lon="6.79547">
        <ele>472</ele>
        <time>2016-01-31T09:36:15.000Z</time>
      </trkpt>
      <trkpt lat="47.43369" lon="6.79549">
        <ele>473</ele>
        <time>2016-01-31T09:36:17.000Z</time>
      </trkpt>
      <trkpt lat="47.43367" lon="6.7955">
        <ele>473</ele>
        <time>2016-01-31T09:36:18.000Z</time>
      </trkpt>
      <trkpt lat="47.43364" lon="6.7955">
        <ele>473</ele>
        <time>2016-01-31T09:36:21.000Z</time>
      </trkpt>
      <trkpt lat="47.43362" lon="6.7955">
        <ele>473</ele>
        <time>2016-01-31T09:36:22.000Z</time>
      </trkpt>
      <trkpt lat="47.43359" lon="6.79551">
        <ele>473</ele>
        <time>2016-01-31T09:36:24.000Z</time>
      </trkpt>
      <trkpt lat="47.43357" lon="6.79551">
        <ele>473</ele>
        <time>2016-01-31T09:36:25.000Z</time>
      </trkpt>
      <trkpt lat="47.43353" lon="6.79552">
        <ele>473</ele>
        <time>2016-01-31T09:36:27.000Z</time>
      </trkpt>
      <trkpt lat="47.43351" lon="6.79553">
        <ele>474</ele>
        <time>2016-01-31T09:36:28.000Z</time>
      </trkpt>
      <trkpt lat="47.43349" lon="6.79555">
        <ele>474</ele>
        <time>2016-01-31T09:36:29.000Z</time>
      </trkpt>
      <trkpt lat="47.43347" lon="6.79557">
        <ele>474</ele>
        <time>2016-01-31T09:36:30.000Z</time>
      </trkpt>
      <trkpt lat="47.43343" lon="6.79558">
        <ele>475</ele>
        <time>2016-01-31T09:36:32.000Z</time>
      </trkpt>
      <trkpt lat="47.43341" lon="6.79559">
        <ele>475</ele>
        <time>2016-01-31T09:36:33.000Z</time>
      </trkpt>
      <trkpt lat="47.43337" lon="6.79559">
        <ele>475</ele>
        <time>2016-01-31T09:36:35.000Z</time>
      </trkpt>
      <trkpt lat="47.43335" lon="6.79559">
        <ele>476</ele>
        <time>2016-01-31T09:36:36.000Z</time>
      </trkpt>
      <trkpt lat="47.43331" lon="6.7956">
        <ele>474</ele>
        <time>2016-01-31T09:36:38.000Z</time>
      </trkpt>
      <trkpt lat="47.43329" lon="6.79562">
        <ele>474</ele>
        <time>2016-01-31T09:36:39.000Z</time>
      </trkpt>
      <trkpt lat="47.43326" lon="6.79565">
        <ele>475</ele>
        <time>2016-01-31T09:36:41.000Z</time>
      </trkpt>
      <trkpt lat="47.43324" lon="6.79566">
        <ele>475</ele>
        <time>2016-01-31T09:36:42.000Z</time>
      </trkpt>
      <trkpt lat="47.4332" lon="6.79568">
        <ele>475</ele>
        <time>2016-01-31T09:36:44.000Z</time>
      </trkpt>
      <trkpt lat="47.43318" lon="6.79569">
        <ele>475</ele>
        <time>2016-01-31T09:36:45.000Z</time>
      </trkpt>
      <trkpt lat="47.43314" lon="6.79571">
        <ele>475</ele>
        <time>2016-01-31T09:36:47.000Z</time>
      </trkpt>
      <trkpt lat="47.43312" lon="6.79572">
        <ele>475</ele>
        <time>2016-01-31T09:36:48.000Z</time>
      </trkpt>
      <trkpt lat="47.43309" lon="6.79573">
        <ele>475</ele>
        <time>2016-01-31T09:36:49.000Z</time>
      </trkpt>
      <trkpt lat="47.43307" lon="6.79574">
        <ele>474</ele>
        <time>2016-01-31T09:36:50.000Z</time>
      </trkpt>
      <trkpt lat="47.43303" lon="6.79575">
        <ele>474</ele>
        <time>2016-01-31T09:36:52.000Z</time>
      </trkpt>
      <trkpt lat="47.43301" lon="6.79576">
        <ele>474</ele>
        <time>2016-01-31T09:36:53.000Z</time>
      </trkpt>
      <trkpt lat="47.43297" lon="6.79575">
        <ele>474</ele>
        <time>2016-01-31T09:36:55.000Z</time>
      </trkpt>
      <trkpt lat="47.43295" lon="6.79575">
        <ele>473</ele>
        <time>2016-01-31T09:36:56.000Z</time>
      </trkpt>
      <trkpt lat="47.43291" lon="6.79575">
        <ele>473</ele>
        <time>2016-01-31T09:36:58.000Z</time>
      </trkpt>
      <trkpt lat="47.43289" lon="6.79575">
        <ele>474</ele>
        <time>2016-01-31T09:36:59.000Z</time>
      </trkpt>
      <trkpt lat="47.43285" lon="6.79576">
        <ele>474</ele>
        <time>2016-01-31T09:37:00.000Z</time>
      </trkpt>
      <trkpt lat="47.43282" lon="6.79576">
        <ele>474</ele>
        <time>2016-01-31T09:37:01.000Z</time>
      </trkpt>
      <trkpt lat="47.43278" lon="6.79575">
        <ele>474</ele>
        <time>2016-01-31T09:37:02.000Z</time>
      </trkpt>
      <trkpt lat="47.43275" lon="6.79575">
        <ele>475</ele>
        <time>2016-01-31T09:37:03.000Z</time>
      </trkpt>
      <trkpt lat="47.43272" lon="6.79574">
        <ele>475</ele>
        <time>2016-01-31T09:37:04.000Z</time>
      </trkpt>
      <trkpt lat="47.43269" lon="6.79573">
        <ele>476</ele>
        <time>2016-01-31T09:37:05.000Z</time>
      </trkpt>
      <trkpt lat="47.43266" lon="6.79573">
        <ele>476</ele>
        <time>2016-01-31T09:37:06.000Z</time>
      </trkpt>
      <trkpt lat="47.43263" lon="6.79572">
        <ele>477</ele>
        <time>2016-01-31T09:37:07.000Z</time>
      </trkpt>
      <trkpt lat="47.4326" lon="6.79572">
        <ele>478</ele>
        <time>2016-01-31T09:37:09.000Z</time>
      </trkpt>
      <trkpt lat="47.43258" lon="6.79573">
        <ele>478</ele>
        <time>2016-01-31T09:37:10.000Z</time>
      </trkpt>
      <trkpt lat="47.43255" lon="6.79574">
        <ele>480</ele>
        <time>2016-01-31T09:37:12.000Z</time>
      </trkpt>
      <trkpt lat="47.43253" lon="6.79575">
        <ele>481</ele>
        <time>2016-01-31T09:37:13.000Z</time>
      </trkpt>
      <trkpt lat="47.43251" lon="6.79577">
        <ele>482</ele>
        <time>2016-01-31T09:37:14.000Z</time>
      </trkpt>
      <trkpt lat="47.43249" lon="6.79578">
        <ele>483</ele>
        <time>2016-01-31T09:37:15.000Z</time>
      </trkpt>
      <trkpt lat="47.43247" lon="6.79579">
        <ele>483</ele>
        <time>2016-01-31T09:37:16.000Z</time>
      </trkpt>
      <trkpt lat="47.43244" lon="6.79579">
        <ele>482</ele>
        <time>2016-01-31T09:37:17.000Z</time>
      </trkpt>
      <trkpt lat="47.43242" lon="6.79578">
        <ele>480</ele>
        <time>2016-01-31T09:37:18.000Z</time>
      </trkpt>
      <trkpt lat="47.4324" lon="6.79577">
        <ele>479</ele>
        <time>2016-01-31T09:37:19.000Z</time>
      </trkpt>
      <trkpt lat="47.43236" lon="6.79574">
        <ele>476</ele>
        <time>2016-01-31T09:37:22.000Z</time>
      </trkpt>
      <trkpt lat="47.43235" lon="6.79572">
        <ele>476</ele>
        <time>2016-01-31T09:37:23.000Z</time>
      </trkpt>
      <trkpt lat="47.43232" lon="6.7957">
        <ele>474</ele>
        <time>2016-01-31T09:37:25.000Z</time>
      </trkpt>
      <trkpt lat="47.43231" lon="6.79569">
        <ele>474</ele>
        <time>2016-01-31T09:37:26.000Z</time>
      </trkpt>
      <trkpt lat="47.43227" lon="6.79568">
        <ele>473</ele>
        <time>2016-01-31T09:37:28.000Z</time>
      </trkpt>
      <trkpt lat="47.43225" lon="6.79569">
        <ele>473</ele>
        <time>2016-01-31T09:37:29.000Z</time>
      </trkpt>
      <trkpt lat="47.43221" lon="6.7957">
        <ele>472</ele>
        <time>2016-01-31T09:37:31.000Z</time>
      </trkpt>
      <trkpt lat="47.43219" lon="6.79571">
        <ele>472</ele>
        <time>2016-01-31T09:37:32.000Z</time>
      </trkpt>
      <trkpt lat="47.43215" lon="6.79572">
        <ele>472</ele>
        <time>2016-01-31T09:37:34.000Z</time>
      </trkpt>
      <trkpt lat="47.43214" lon="6.79572">
        <ele>472</ele>
        <time>2016-01-31T09:37:35.000Z</time>
      </trkpt>
      <trkpt lat="47.4321" lon="6.79571">
        <ele>471</ele>
        <time>2016-01-31T09:37:37.000Z</time>
      </trkpt>
      <trkpt lat="47.43208" lon="6.7957">
        <ele>471</ele>
        <time>2016-01-31T09:37:38.000Z</time>
      </trkpt>
      <trkpt lat="47.43205" lon="6.79569">
        <ele>471</ele>
        <time>2016-01-31T09:37:39.000Z</time>
      </trkpt>
      <trkpt lat="47.43203" lon="6.79569">
        <ele>471</ele>
        <time>2016-01-31T09:37:40.000Z</time>
      </trkpt>
      <trkpt lat="47.432" lon="6.79569">
        <ele>471</ele>
        <time>2016-01-31T09:37:41.000Z</time>
      </trkpt>
      <trkpt lat="47.43198" lon="6.7957">
        <ele>472</ele>
        <time>2016-01-31T09:37:42.000Z</time>
      </trkpt>
      <trkpt lat="47.43195" lon="6.79571">
        <ele>472</ele>
        <time>2016-01-31T09:37:43.000Z</time>
      </trkpt>
      <trkpt lat="47.43193" lon="6.79572">
        <ele>473</ele>
        <time>2016-01-31T09:37:44.000Z</time>
      </trkpt>
      <trkpt lat="47.4319" lon="6.79572">
        <ele>473</ele>
        <time>2016-01-31T09:37:45.000Z</time>
      </trkpt>
      <trkpt lat="47.43188" lon="6.79574">
        <ele>474</ele>
        <time>2016-01-31T09:37:46.000Z</time>
      </trkpt>
      <trkpt lat="47.43186" lon="6.79576">
        <ele>475</ele>
        <time>2016-01-31T09:37:47.000Z</time>
      </trkpt>
      <trkpt lat="47.43184" lon="6.79578">
        <ele>476</ele>
        <time>2016-01-31T09:37:48.000Z</time>
      </trkpt>
      <trkpt lat="47.43182" lon="6.7958">
        <ele>476</ele>
        <time>2016-01-31T09:37:49.000Z</time>
      </trkpt>
      <trkpt lat="47.4318" lon="6.79582">
        <ele>477</ele>
        <time>2016-01-31T09:37:50.000Z</time>
      </trkpt>
      <trkpt lat="47.43178" lon="6.79585">
        <ele>486</ele>
        <time>2016-01-31T09:37:51.000Z</time>
      </trkpt>
      <trkpt lat="47.43177" lon="6.79587">
        <ele>486</ele>
        <time>2016-01-31T09:37:52.000Z</time>
      </trkpt>
      <trkpt lat="47.43174" lon="6.79591">
        <ele>486</ele>
        <time>2016-01-31T09:37:54.000Z</time>
      </trkpt>
      <trkpt lat="47.43173" lon="6.79593">
        <ele>486</ele>
        <time>2016-01-31T09:37:55.000Z</time>
      </trkpt>
      <trkpt lat="47.4317" lon="6.79597">
        <ele>487</ele>
        <time>2016-01-31T09:37:57.000Z</time>
      </trkpt>
      <trkpt lat="47.4317" lon="6.79599">
        <ele>487</ele>
        <time>2016-01-31T09:37:57.998Z</time>
      </trkpt>
      <trkpt lat="47.43166" lon="6.79603">
        <ele>487</ele>
        <time>2016-01-31T09:38:01.000Z</time>
      </trkpt>
      <trkpt lat="47.43165" lon="6.79605">
        <ele>487</ele>
        <time>2016-01-31T09:38:02.000Z</time>
      </trkpt>
      <trkpt lat="47.43162" lon="6.79606">
        <ele>487</ele>
        <time>2016-01-31T09:38:05.000Z</time>
      </trkpt>
      <trkpt lat="47.43161" lon="6.79607">
        <ele>488</ele>
        <time>2016-01-31T09:38:06.000Z</time>
      </trkpt>
      <trkpt lat="47.43157" lon="6.7961">
        <ele>488</ele>
        <time>2016-01-31T09:38:09.000Z</time>
      </trkpt>
      <trkpt lat="47.43156" lon="6.7961">
        <ele>488</ele>
        <time>2016-01-31T09:38:10.000Z</time>
      </trkpt>
      <trkpt lat="47.43152" lon="6.7961">
        <ele>488</ele>
        <time>2016-01-31T09:38:13.000Z</time>
      </trkpt>
      <trkpt lat="47.43151" lon="6.79609">
        <ele>488</ele>
        <time>2016-01-31T09:38:14.000Z</time>
      </trkpt>
      <trkpt lat="47.43148" lon="6.79607">
        <ele>488</ele>
        <time>2016-01-31T09:38:16.000Z</time>
      </trkpt>
      <trkpt lat="47.43146" lon="6.79606">
        <ele>488</ele>
        <time>2016-01-31T09:38:17.000Z</time>
      </trkpt>
      <trkpt lat="47.43142" lon="6.79604">
        <ele>488</ele>
        <time>2016-01-31T09:38:19.000Z</time>
      </trkpt>
      <trkpt lat="47.43141" lon="6.79603">
        <ele>488</ele>
        <time>2016-01-31T09:38:20.000Z</time>
      </trkpt>
      <trkpt lat="47.43137" lon="6.796">
        <ele>488</ele>
        <time>2016-01-31T09:38:23.000Z</time>
      </trkpt>
      <trkpt lat="47.43136" lon="6.79598">
        <ele>488</ele>
        <time>2016-01-31T09:38:24.000Z</time>
      </trkpt>
      <trkpt lat="47.43133" lon="6.79594">
        <ele>488</ele>
        <time>2016-01-31T09:38:27.000Z</time>
      </trkpt>
      <trkpt lat="47.43132" lon="6.79593">
        <ele>487</ele>
        <time>2016-01-31T09:38:28.000Z</time>
      </trkpt>
      <trkpt lat="47.43128" lon="6.79589">
        <ele>487</ele>
        <time>2016-01-31T09:38:31.000Z</time>
      </trkpt>
      <trkpt lat="47.43126" lon="6.7959">
        <ele>487</ele>
        <time>2016-01-31T09:38:32.000Z</time>
      </trkpt>
      <trkpt lat="47.43123" lon="6.79592">
        <ele>487</ele>
        <time>2016-01-31T09:38:34.000Z</time>
      </trkpt>
      <trkpt lat="47.43121" lon="6.79593">
        <ele>487</ele>
        <time>2016-01-31T09:38:35.000Z</time>
      </trkpt>
      <trkpt lat="47.43117" lon="6.79595">
        <ele>488</ele>
        <time>2016-01-31T09:38:37.000Z</time>
      </trkpt>
      <trkpt lat="47.43116" lon="6.79595">
        <ele>487</ele>
        <time>2016-01-31T09:38:38.000Z</time>
      </trkpt>
      <trkpt lat="47.43111" lon="6.79596">
        <ele>487</ele>
        <time>2016-01-31T09:38:41.000Z</time>
      </trkpt>
      <trkpt lat="47.4311" lon="6.79596">
        <ele>487</ele>
        <time>2016-01-31T09:38:42.000Z</time>
      </trkpt>
      <trkpt lat="47.43107" lon="6.79596">
        <ele>487</ele>
        <time>2016-01-31T09:38:44.000Z</time>
      </trkpt>
      <trkpt lat="47.43105" lon="6.79595">
        <ele>487</ele>
        <time>2016-01-31T09:38:45.000Z</time>
      </trkpt>
      <trkpt lat="47.43102" lon="6.79595">
        <ele>487</ele>
        <time>2016-01-31T09:38:47.000Z</time>
      </trkpt>
      <trkpt lat="47.431" lon="6.79594">
        <ele>487</ele>
        <time>2016-01-31T09:38:48.000Z</time>
      </trkpt>
      <trkpt lat="47.43097" lon="6.79592">
        <ele>487</ele>
        <time>2016-01-31T09:38:50.000Z</time>
      </trkpt>
      <trkpt lat="47.43095" lon="6.7959">
        <ele>487</ele>
        <time>2016-01-31T09:38:51.000Z</time>
      </trkpt>
      <trkpt lat="47.43094" lon="6.79587">
        <ele>486</ele>
        <time>2016-01-31T09:38:52.000Z</time>
      </trkpt>
      <trkpt lat="47.43092" lon="6.79584">
        <ele>486</ele>
        <time>2016-01-31T09:38:53.000Z</time>
      </trkpt>
      <trkpt lat="47.4309" lon="6.79579">
        <ele>480</ele>
        <time>2016-01-31T09:38:55.000Z</time>
      </trkpt>
      <trkpt lat="47.43089" lon="6.79576">
        <ele>479</ele>
        <time>2016-01-31T09:38:56.000Z</time>
      </trkpt>
      <trkpt lat="47.43088" lon="6.7957">
        <ele>476</ele>
        <time>2016-01-31T09:38:59.000Z</time>
      </trkpt>
      <trkpt lat="47.43087" lon="6.79569">
        <ele>476</ele>
        <time>2016-01-31T09:39:00.000Z</time>
      </trkpt>
      <trkpt lat="47.43083" lon="6.79569">
        <ele>477</ele>
        <time>2016-01-31T09:40:56.000Z</time>
      </trkpt>
      <trkpt lat="47.43082" lon="6.79569">
        <ele>477</ele>
        <time>2016-01-31T09:40:57.000Z</time>
      </trkpt>
      <trkpt lat="47.43078" lon="6.79569">
        <ele>477</ele>
        <time>2016-01-31T09:42:18.000Z</time>
      </trkpt>
      <trkpt lat="47.43078" lon="6.79569">
        <ele>477</ele>
        <time>2016-01-31T09:42:19.000Z</time>
      </trkpt>
      <trkpt lat="47.4308" lon="6.79573">
        <ele>479</ele>
        <time>2016-01-31T09:44:13.000Z</time>
      </trkpt>
      <trkpt lat="47.43081" lon="6.79574">
        <ele>479</ele>
        <time>2016-01-31T09:44:14.000Z</time>
      </trkpt>
      <trkpt lat="47.43084" lon="6.79579">
        <ele>482</ele>
        <time>2016-01-31T09:44:18.000Z</time>
      </trkpt>
      <trkpt lat="47.43083" lon="6.79581">
        <ele>483</ele>
        <time>2016-01-31T09:44:19.000Z</time>
      </trkpt>
      <trkpt lat="47.43081" lon="6.79585">
        <ele>486</ele>
        <time>2016-01-31T09:44:21.000Z</time>
      </trkpt>
      <trkpt lat="47.4308" lon="6.79587">
        <ele>486</ele>
        <time>2016-01-31T09:44:22.000Z</time>
      </trkpt>
      <trkpt lat="47.43081" lon="6.79593">
        <ele>486</ele>
        <time>2016-01-31T09:44:28.000Z</time>
      </trkpt>
      <trkpt lat="47.43082" lon="6.79594">
        <ele>487</ele>
        <time>2016-01-31T09:44:29.000Z</time>
      </trkpt>
      <trkpt lat="47.43079" lon="6.79599">
        <ele>487</ele>
        <time>2016-01-31T09:44:35.000Z</time>
      </trkpt>
      <trkpt lat="47.43079" lon="6.79601">
        <ele>487</ele>
        <time>2016-01-31T09:44:36.000Z</time>
      </trkpt>
      <trkpt lat="47.4308" lon="6.79607">
        <ele>488</ele>
        <time>2016-01-31T09:44:41.000Z</time>
      </trkpt>
      <trkpt lat="47.4308" lon="6.79608">
        <ele>488</ele>
        <time>2016-01-31T09:44:42.000Z</time>
      </trkpt>
      <trkpt lat="47.43079" lon="6.79612">
        <ele>488</ele>
        <time>2016-01-31T09:44:49.000Z</time>
      </trkpt>
      <trkpt lat="47.43077" lon="6.79613">
        <ele>488</ele>
        <time>2016-01-31T09:44:50.000Z</time>
      </trkpt>
      <trkpt lat="47.43074" lon="6.79614">
        <ele>488</ele>
        <time>2016-01-31T09:44:52.000Z</time>
      </trkpt>
      <trkpt lat="47.43073" lon="6.79615">
        <ele>488</ele>
        <time>2016-01-31T09:44:53.000Z</time>
      </trkpt>
      <trkpt lat="47.4307" lon="6.79618">
        <ele>489</ele>
        <time>2016-01-31T09:44:55.000Z</time>
      </trkpt>
      <trkpt lat="47.43068" lon="6.79619">
        <ele>489</ele>
        <time>2016-01-31T09:44:56.000Z</time>
      </trkpt>
      <trkpt lat="47.43066" lon="6.79622">
        <ele>489</ele>
        <time>2016-01-31T09:44:57.000Z</time>
      </trkpt>
      <trkpt lat="47.43064" lon="6.79626">
        <ele>489</ele>
        <time>2016-01-31T09:44:58.000Z</time>
      </trkpt>
      <trkpt lat="47.43061" lon="6.7963">
        <ele>489</ele>
        <time>2016-01-31T09:44:59.000Z</time>
      </trkpt>
      <trkpt lat="47.43053" lon="6.7964">
        <ele>490</ele>
        <time>2016-01-31T09:45:00.000Z</time>
      </trkpt>
      <trkpt lat="47.43049" lon="6.79646">
        <ele>490</ele>
        <time>2016-01-31T09:45:01.000Z</time>
      </trkpt>
      <trkpt lat="47.43045" lon="6.79651">
        <ele>490</ele>
        <time>2016-01-31T09:45:02.000Z</time>
      </trkpt>
      <trkpt lat="47.43042" lon="6.79656">
        <ele>490</ele>
        <time>2016-01-31T09:45:03.000Z</time>
      </trkpt>
      <trkpt lat="47.4304" lon="6.7966">
        <ele>490</ele>
        <time>2016-01-31T09:45:04.000Z</time>
      </trkpt>
      <trkpt lat="47.43038" lon="6.79664">
        <ele>491</ele>
        <time>2016-01-31T09:45:05.000Z</time>
      </trkpt>
      <trkpt lat="47.43037" lon="6.79668">
        <ele>492</ele>
        <time>2016-01-31T09:45:06.000Z</time>
      </trkpt>
      <trkpt lat="47.43037" lon="6.79674">
        <ele>492</ele>
        <time>2016-01-31T09:45:07.000Z</time>
      </trkpt>
      <trkpt lat="47.43036" lon="6.79679">
        <ele>492</ele>
        <time>2016-01-31T09:45:08.000Z</time>
      </trkpt>
      <trkpt lat="47.43035" lon="6.79685">
        <ele>492</ele>
        <time>2016-01-31T09:45:09.000Z</time>
      </trkpt>
      <trkpt lat="47.43034" lon="6.79691">
        <ele>492</ele>
        <time>2016-01-31T09:45:10.000Z</time>
      </trkpt>
      <trkpt lat="47.43033" lon="6.79695">
        <ele>492</ele>
        <time>2016-01-31T09:45:11.000Z</time>
      </trkpt>
      <trkpt lat="47.43031" lon="6.797">
        <ele>492</ele>
        <time>2016-01-31T09:45:12.000Z</time>
      </trkpt>
      <trkpt lat="47.4303" lon="6.79705">
        <ele>492</ele>
        <time>2016-01-31T09:45:13.000Z</time>
      </trkpt>
      <trkpt lat="47.4303" lon="6.79709">
        <ele>492</ele>
        <time>2016-01-31T09:45:14.000Z</time>
      </trkpt>
      <trkpt lat="47.43028" lon="6.79713">
        <ele>492</ele>
        <time>2016-01-31T09:45:15.000Z</time>
      </trkpt>
      <trkpt lat="47.43027" lon="6.79716">
        <ele>492</ele>
        <time>2016-01-31T09:45:16.000Z</time>
      </trkpt>
      <trkpt lat="47.43026" lon="6.7972">
        <ele>492</ele>
        <time>2016-01-31T09:45:17.000Z</time>
      </trkpt>
      <trkpt lat="47.43024" lon="6.79723">
        <ele>492</ele>
        <time>2016-01-31T09:45:18.000Z</time>
      </trkpt>
      <trkpt lat="47.43022" lon="6.79727">
        <ele>492</ele>
        <time>2016-01-31T09:45:19.000Z</time>
      </trkpt>
      <trkpt lat="47.43021" lon="6.7973">
        <ele>492</ele>
        <time>2016-01-31T09:45:20.000Z</time>
      </trkpt>
      <trkpt lat="47.4302" lon="6.79733">
        <ele>492</ele>
        <time>2016-01-31T09:45:21.000Z</time>
      </trkpt>
      <trkpt lat="47.43018" lon="6.79737">
        <ele>492</ele>
        <time>2016-01-31T09:45:22.000Z</time>
      </trkpt>
      <trkpt lat="47.43016" lon="6.7974">
        <ele>492</ele>
        <time>2016-01-31T09:45:23.000Z</time>
      </trkpt>
      <trkpt lat="47.43015" lon="6.79744">
        <ele>492</ele>
        <time>2016-01-31T09:45:24.000Z</time>
      </trkpt>
      <trkpt lat="47.43014" lon="6.79748">
        <ele>493</ele>
        <time>2016-01-31T09:45:25.000Z</time>
      </trkpt>
      <trkpt lat="47.43013" lon="6.79751">
        <ele>492</ele>
        <time>2016-01-31T09:45:26.000Z</time>
      </trkpt>
      <trkpt lat="47.43013" lon="6.79755">
        <ele>492</ele>
        <time>2016-01-31T09:45:27.000Z</time>
      </trkpt>
      <trkpt lat="47.43013" lon="6.79761">
        <ele>492</ele>
        <time>2016-01-31T09:45:29.000Z</time>
      </trkpt>
      <trkpt lat="47.43012" lon="6.79764">
        <ele>492</ele>
        <time>2016-01-31T09:45:30.000Z</time>
      </trkpt>
      <trkpt lat="47.43011" lon="6.79768">
        <ele>492</ele>
        <time>2016-01-31T09:45:31.000Z</time>
      </trkpt>
      <trkpt lat="47.4301" lon="6.79772">
        <ele>492</ele>
        <time>2016-01-31T09:45:32.000Z</time>
      </trkpt>
      <trkpt lat="47.43008" lon="6.79776">
        <ele>492</ele>
        <time>2016-01-31T09:45:33.000Z</time>
      </trkpt>
      <trkpt lat="47.43006" lon="6.79779">
        <ele>492</ele>
        <time>2016-01-31T09:45:34.000Z</time>
      </trkpt>
      <trkpt lat="47.43003" lon="6.79782">
        <ele>492</ele>
        <time>2016-01-31T09:45:35.000Z</time>
      </trkpt>
      <trkpt lat="47.43001" lon="6.79784">
        <ele>492</ele>
        <time>2016-01-31T09:45:36.000Z</time>
      </trkpt>
      <trkpt lat="47.42998" lon="6.79788">
        <ele>493</ele>
        <time>2016-01-31T09:45:38.000Z</time>
      </trkpt>
      <trkpt lat="47.42996" lon="6.79788">
        <ele>493</ele>
        <time>2016-01-31T09:45:39.000Z</time>
      </trkpt>
      <trkpt lat="47.42993" lon="6.79787">
        <ele>492</ele>
        <time>2016-01-31T09:45:41.000Z</time>
      </trkpt>
      <trkpt lat="47.42991" lon="6.79786">
        <ele>492</ele>
        <time>2016-01-31T09:45:41.980Z</time>
      </trkpt>
      <trkpt lat="47.42989" lon="6.79784">
        <ele>492</ele>
        <time>2016-01-31T09:45:43.000Z</time>
      </trkpt>
      <trkpt lat="47.42986" lon="6.79783">
        <ele>492</ele>
        <time>2016-01-31T09:45:44.000Z</time>
      </trkpt>
      <trkpt lat="47.42984" lon="6.79782">
        <ele>492</ele>
        <time>2016-01-31T09:45:45.000Z</time>
      </trkpt>
      <trkpt lat="47.42981" lon="6.79781">
        <ele>492</ele>
        <time>2016-01-31T09:45:46.000Z</time>
      </trkpt>
      <trkpt lat="47.42978" lon="6.7978">
        <ele>492</ele>
        <time>2016-01-31T09:45:47.000Z</time>
      </trkpt>
      <trkpt lat="47.42974" lon="6.79779">
        <ele>492</ele>
        <time>2016-01-31T09:45:48.000Z</time>
      </trkpt>
      <trkpt lat="47.42969" lon="6.79778">
        <ele>492</ele>
        <time>2016-01-31T09:45:49.000Z</time>
      </trkpt>
      <trkpt lat="47.42964" lon="6.79778">
        <ele>492</ele>
        <time>2016-01-31T09:45:50.000Z</time>
      </trkpt>
      <trkpt lat="47.42959" lon="6.79778">
        <ele>492</ele>
        <time>2016-01-31T09:45:51.000Z</time>
      </trkpt>
      <trkpt lat="47.42946" lon="6.79779">
        <ele>492</ele>
        <time>2016-01-31T09:45:52.000Z</time>
      </trkpt>
      <trkpt lat="47.42941" lon="6.79778">
        <ele>492</ele>
        <time>2016-01-31T09:45:53.000Z</time>
      </trkpt>
      <trkpt lat="47.42935" lon="6.79778">
        <ele>492</ele>
        <time>2016-01-31T09:45:54.000Z</time>
      </trkpt>
      <trkpt lat="47.42931" lon="6.79777">
        <ele>492</ele>
        <time>2016-01-31T09:45:55.000Z</time>
      </trkpt>
      <trkpt lat="47.42926" lon="6.79777">
        <ele>492</ele>
        <time>2016-01-31T09:45:56.000Z</time>
      </trkpt>
      <trkpt lat="47.42922" lon="6.79777">
        <ele>491</ele>
        <time>2016-01-31T09:45:57.000Z</time>
      </trkpt>
      <trkpt lat="47.42917" lon="6.79776">
        <ele>491</ele>
        <time>2016-01-31T09:45:58.000Z</time>
      </trkpt>
      <trkpt lat="47.42911" lon="6.79775">
        <ele>489</ele>
        <time>2016-01-31T09:45:59.000Z</time>
      </trkpt>
      <trkpt lat="47.42905" lon="6.79776">
        <ele>489</ele>
        <time>2016-01-31T09:46:00.000Z</time>
      </trkpt>
      <trkpt lat="47.42899" lon="6.79778">
        <ele>489</ele>
        <time>2016-01-31T09:46:01.000Z</time>
      </trkpt>
      <trkpt lat="47.42892" lon="6.79778">
        <ele>489</ele>
        <time>2016-01-31T09:46:02.000Z</time>
      </trkpt>
      <trkpt lat="47.42885" lon="6.79779">
        <ele>489</ele>
        <time>2016-01-31T09:46:03.000Z</time>
      </trkpt>
      <trkpt lat="47.42881" lon="6.79779">
        <ele>489</ele>
        <time>2016-01-31T09:46:04.000Z</time>
      </trkpt>
      <trkpt lat="47.42875" lon="6.7978">
        <ele>488</ele>
        <time>2016-01-31T09:46:05.000Z</time>
      </trkpt>
      <trkpt lat="47.4287" lon="6.79781">
        <ele>488</ele>
        <time>2016-01-31T09:46:06.000Z</time>
      </trkpt>
      <trkpt lat="47.42865" lon="6.79782">
        <ele>488</ele>
        <time>2016-01-31T09:46:07.000Z</time>
      </trkpt>
      <trkpt lat="47.42859" lon="6.79783">
        <ele>488</ele>
        <time>2016-01-31T09:46:08.000Z</time>
      </trkpt>
      <trkpt lat="47.42852" lon="6.79785">
        <ele>488</ele>
        <time>2016-01-31T09:46:09.000Z</time>
      </trkpt>
      <trkpt lat="47.42845" lon="6.79788">
        <ele>488</ele>
        <time>2016-01-31T09:46:10.000Z</time>
      </trkpt>
      <trkpt lat="47.42839" lon="6.79791">
        <ele>487</ele>
        <time>2016-01-31T09:46:11.000Z</time>
      </trkpt>
      <trkpt lat="47.42835" lon="6.79792">
        <ele>487</ele>
        <time>2016-01-31T09:46:12.000Z</time>
      </trkpt>
      <trkpt lat="47.42828" lon="6.79793">
        <ele>488</ele>
        <time>2016-01-31T09:46:13.000Z</time>
      </trkpt>
      <trkpt lat="47.42824" lon="6.79794">
        <ele>488</ele>
        <time>2016-01-31T09:46:14.000Z</time>
      </trkpt>
      <trkpt lat="47.42819" lon="6.79795">
        <ele>488</ele>
        <time>2016-01-31T09:46:15.000Z</time>
      </trkpt>
      <trkpt lat="47.42815" lon="6.79798">
        <ele>488</ele>
        <time>2016-01-31T09:46:16.000Z</time>
      </trkpt>
      <trkpt lat="47.42809" lon="6.798">
        <ele>489</ele>
        <time>2016-01-31T09:46:17.000Z</time>
      </trkpt>
      <trkpt lat="47.42803" lon="6.79801">
        <ele>489</ele>
        <time>2016-01-31T09:46:18.000Z</time>
      </trkpt>
      <trkpt lat="47.42798" lon="6.79802">
        <ele>489</ele>
        <time>2016-01-31T09:46:19.000Z</time>
      </trkpt>
      <trkpt lat="47.42794" lon="6.79803">
        <ele>489</ele>
        <time>2016-01-31T09:46:20.000Z</time>
      </trkpt>
      <trkpt lat="47.42788" lon="6.79802">
        <ele>489</ele>
        <time>2016-01-31T09:46:21.000Z</time>
      </trkpt>
      <trkpt lat="47.42785" lon="6.79803">
        <ele>490</ele>
        <time>2016-01-31T09:46:22.000Z</time>
      </trkpt>
      <trkpt lat="47.42781" lon="6.79805">
        <ele>490</ele>
        <time>2016-01-31T09:46:23.000Z</time>
      </trkpt>
      <trkpt lat="47.42776" lon="6.79806">
        <ele>490</ele>
        <time>2016-01-31T09:46:24.000Z</time>
      </trkpt>
      <trkpt lat="47.42772" lon="6.79806">
        <ele>490</ele>
        <time>2016-01-31T09:46:25.000Z</time>
      </trkpt>
      <trkpt lat="47.42768" lon="6.79807">
        <ele>490</ele>
        <time>2016-01-31T09:46:26.000Z</time>
      </trkpt>
      <trkpt lat="47.42764" lon="6.79808">
        <ele>490</ele>
        <time>2016-01-31T09:46:27.000Z</time>
      </trkpt>
      <trkpt lat="47.42761" lon="6.79808">
        <ele>491</ele>
        <time>2016-01-31T09:46:28.000Z</time>
      </trkpt>
      <trkpt lat="47.42758" lon="6.79808">
        <ele>491</ele>
        <time>2016-01-31T09:46:29.000Z</time>
      </trkpt>
      <trkpt lat="47.42755" lon="6.79809">
        <ele>491</ele>
        <time>2016-01-31T09:46:30.000Z</time>
      </trkpt>
      <trkpt lat="47.42752" lon="6.79809">
        <ele>491</ele>
        <time>2016-01-31T09:46:31.000Z</time>
      </trkpt>
      <trkpt lat="47.4275" lon="6.7981">
        <ele>494</ele>
        <time>2016-01-31T09:46:32.000Z</time>
      </trkpt>
      <trkpt lat="47.42747" lon="6.79811">
        <ele>494</ele>
        <time>2016-01-31T09:46:33.000Z</time>
      </trkpt>
      <trkpt lat="47.42744" lon="6.79812">
        <ele>494</ele>
        <time>2016-01-31T09:46:34.000Z</time>
      </trkpt>
      <trkpt lat="47.42741" lon="6.79812">
        <ele>494</ele>
        <time>2016-01-31T09:46:35.000Z</time>
      </trkpt>
      <trkpt lat="47.42739" lon="6.79813">
        <ele>494</ele>
        <time>2016-01-31T09:46:36.000Z</time>
      </trkpt>
      <trkpt lat="47.42736" lon="6.79814">
        <ele>494</ele>
        <time>2016-01-31T09:46:37.000Z</time>
      </trkpt>
      <trkpt lat="47.42733" lon="6.79815">
        <ele>494</ele>
        <time>2016-01-31T09:46:38.000Z</time>
      </trkpt>
      <trkpt lat="47.42731" lon="6.79815">
        <ele>494</ele>
        <time>2016-01-31T09:46:39.000Z</time>
      </trkpt>
      <trkpt lat="47.42727" lon="6.79816">
        <ele>495</ele>
        <time>2016-01-31T09:46:41.000Z</time>
      </trkpt>
      <trkpt lat="47.42725" lon="6.79816">
        <ele>495</ele>
        <time>2016-01-31T09:46:42.000Z</time>
      </trkpt>
      <trkpt lat="47.42721" lon="6.79817">
        <ele>495</ele>
        <time>2016-01-31T09:46:44.000Z</time>
      </trkpt>
      <trkpt lat="47.42718" lon="6.79817">
        <ele>495</ele>
        <time>2016-01-31T09:46:45.000Z</time>
      </trkpt>
      <trkpt lat="47.42715" lon="6.79818">
        <ele>495</ele>
        <time>2016-01-31T09:46:46.000Z</time>
      </trkpt>
      <trkpt lat="47.42712" lon="6.79819">
        <ele>495</ele>
        <time>2016-01-31T09:46:47.000Z</time>
      </trkpt>
      <trkpt lat="47.42709" lon="6.7982">
        <ele>495</ele>
        <time>2016-01-31T09:46:48.000Z</time>
      </trkpt>
      <trkpt lat="47.42705" lon="6.79822">
        <ele>495</ele>
        <time>2016-01-31T09:46:49.000Z</time>
      </trkpt>
      <trkpt lat="47.42703" lon="6.79823">
        <ele>496</ele>
        <time>2016-01-31T09:46:50.000Z</time>
      </trkpt>
      <trkpt lat="47.427" lon="6.79824">
        <ele>496</ele>
        <time>2016-01-31T09:46:51.000Z</time>
      </trkpt>
      <trkpt lat="47.42698" lon="6.79824">
        <ele>496</ele>
        <time>2016-01-31T09:46:52.000Z</time>
      </trkpt>
      <trkpt lat="47.42695" lon="6.79825">
        <ele>496</ele>
        <time>2016-01-31T09:46:53.000Z</time>
      </trkpt>
      <trkpt lat="47.42691" lon="6.79826">
        <ele>496</ele>
        <time>2016-01-31T09:46:55.000Z</time>
      </trkpt>
      <trkpt lat="47.42688" lon="6.79827">
        <ele>496</ele>
        <time>2016-01-31T09:46:56.000Z</time>
      </trkpt>
      <trkpt lat="47.42686" lon="6.79827">
        <ele>496</ele>
        <time>2016-01-31T09:46:57.000Z</time>
      </trkpt>
      <trkpt lat="47.42683" lon="6.79828">
        <ele>497</ele>
        <time>2016-01-31T09:46:58.000Z</time>
      </trkpt>
      <trkpt lat="47.4268" lon="6.79829">
        <ele>497</ele>
        <time>2016-01-31T09:46:59.000Z</time>
      </trkpt>
      <trkpt lat="47.42678" lon="6.7983">
        <ele>497</ele>
        <time>2016-01-31T09:47:00.000Z</time>
      </trkpt>
      <trkpt lat="47.42675" lon="6.79831">
        <ele>497</ele>
        <time>2016-01-31T09:47:01.000Z</time>
      </trkpt>
      <trkpt lat="47.42673" lon="6.79831">
        <ele>497</ele>
        <time>2016-01-31T09:47:02.000Z</time>
      </trkpt>
      <trkpt lat="47.42669" lon="6.79832">
        <ele>498</ele>
        <time>2016-01-31T09:47:04.000Z</time>
      </trkpt>
      <trkpt lat="47.42667" lon="6.79832">
        <ele>498</ele>
        <time>2016-01-31T09:47:05.000Z</time>
      </trkpt>
      <trkpt lat="47.42663" lon="6.79832">
        <ele>498</ele>
        <time>2016-01-31T09:47:07.000Z</time>
      </trkpt>
      <trkpt lat="47.42661" lon="6.79832">
        <ele>499</ele>
        <time>2016-01-31T09:47:08.000Z</time>
      </trkpt>
      <trkpt lat="47.42656" lon="6.79832">
        <ele>499</ele>
        <time>2016-01-31T09:47:10.000Z</time>
      </trkpt>
      <trkpt lat="47.42654" lon="6.79832">
        <ele>499</ele>
        <time>2016-01-31T09:47:11.000Z</time>
      </trkpt>
      <trkpt lat="47.4265" lon="6.79833">
        <ele>500</ele>
        <time>2016-01-31T09:47:13.000Z</time>
      </trkpt>
      <trkpt lat="47.42648" lon="6.79834">
        <ele>500</ele>
        <time>2016-01-31T09:47:14.000Z</time>
      </trkpt>
      <trkpt lat="47.42645" lon="6.79834">
        <ele>500</ele>
        <time>2016-01-31T09:47:15.000Z</time>
      </trkpt>
      <trkpt lat="47.42643" lon="6.79834">
        <ele>500</ele>
        <time>2016-01-31T09:47:16.000Z</time>
      </trkpt>
      <trkpt lat="47.42639" lon="6.79835">
        <ele>500</ele>
        <time>2016-01-31T09:47:18.000Z</time>
      </trkpt>
      <trkpt lat="47.42636" lon="6.79835">
        <ele>501</ele>
        <time>2016-01-31T09:47:19.000Z</time>
      </trkpt>
      <trkpt lat="47.42634" lon="6.79835">
        <ele>501</ele>
        <time>2016-01-31T09:47:20.000Z</time>
      </trkpt>
      <trkpt lat="47.42632" lon="6.79836">
        <ele>501</ele>
        <time>2016-01-31T09:47:21.000Z</time>
      </trkpt>
      <trkpt lat="47.42627" lon="6.79836">
        <ele>501</ele>
        <time>2016-01-31T09:47:23.000Z</time>
      </trkpt>
      <trkpt lat="47.42625" lon="6.79837">
        <ele>501</ele>
        <time>2016-01-31T09:47:24.000Z</time>
      </trkpt>
      <trkpt lat="47.42623" lon="6.79837">
        <ele>501</ele>
        <time>2016-01-31T09:47:25.000Z</time>
      </trkpt>
      <trkpt lat="47.4262" lon="6.79837">
        <ele>501</ele>
        <time>2016-01-31T09:47:26.000Z</time>
      </trkpt>
      <trkpt lat="47.42618" lon="6.79837">
        <ele>502</ele>
        <time>2016-01-31T09:47:27.000Z</time>
      </trkpt>
      <trkpt lat="47.42616" lon="6.79837">
        <ele>502</ele>
        <time>2016-01-31T09:47:28.000Z</time>
      </trkpt>
      <trkpt lat="47.42614" lon="6.79838">
        <ele>502</ele>
        <time>2016-01-31T09:47:29.000Z</time>
      </trkpt>
      <trkpt lat="47.42611" lon="6.79839">
        <ele>502</ele>
        <time>2016-01-31T09:47:30.000Z</time>
      </trkpt>
      <trkpt lat="47.42609" lon="6.79839">
        <ele>502</ele>
        <time>2016-01-31T09:47:31.000Z</time>
      </trkpt>
      <trkpt lat="47.42606" lon="6.79839">
        <ele>502</ele>
        <time>2016-01-31T09:47:32.000Z</time>
      </trkpt>
      <trkpt lat="47.42604" lon="6.79838">
        <ele>502</ele>
        <time>2016-01-31T09:47:33.000Z</time>
      </trkpt>
      <trkpt lat="47.42601" lon="6.79838">
        <ele>502</ele>
        <time>2016-01-31T09:47:34.000Z</time>
      </trkpt>
      <trkpt lat="47.42598" lon="6.79838">
        <ele>503</ele>
        <time>2016-01-31T09:47:35.000Z</time>
      </trkpt>
      <trkpt lat="47.42595" lon="6.79838">
        <ele>503</ele>
        <time>2016-01-31T09:47:36.000Z</time>
      </trkpt>
      <trkpt lat="47.42592" lon="6.79838">
        <ele>503</ele>
        <time>2016-01-31T09:47:37.000Z</time>
      </trkpt>
      <trkpt lat="47.42589" lon="6.79838">
        <ele>503</ele>
        <time>2016-01-31T09:47:38.000Z</time>
      </trkpt>
      <trkpt lat="47.42585" lon="6.79838">
        <ele>504</ele>
        <time>2016-01-31T09:47:39.000Z</time>
      </trkpt>
      <trkpt lat="47.42582" lon="6.79838">
        <ele>505</ele>
        <time>2016-01-31T09:47:40.000Z</time>
      </trkpt>
      <trkpt lat="47.42578" lon="6.79838">
        <ele>505</ele>
        <time>2016-01-31T09:47:41.000Z</time>
      </trkpt>
      <trkpt lat="47.42575" lon="6.79837">
        <ele>505</ele>
        <time>2016-01-31T09:47:42.000Z</time>
      </trkpt>
      <trkpt lat="47.42572" lon="6.79838">
        <ele>505</ele>
        <time>2016-01-31T09:47:43.000Z</time>
      </trkpt>
      <trkpt lat="47.42569" lon="6.79838">
        <ele>506</ele>
        <time>2016-01-31T09:47:44.000Z</time>
      </trkpt>
      <trkpt lat="47.42566" lon="6.79838">
        <ele>506</ele>
        <time>2016-01-31T09:47:45.000Z</time>
      </trkpt>
      <trkpt lat="47.42562" lon="6.79838">
        <ele>506</ele>
        <time>2016-01-31T09:47:46.000Z</time>
      </trkpt>
      <trkpt lat="47.42559" lon="6.79839">
        <ele>506</ele>
        <time>2016-01-31T09:47:47.000Z</time>
      </trkpt>
      <trkpt lat="47.42556" lon="6.79839">
        <ele>507</ele>
        <time>2016-01-31T09:47:48.000Z</time>
      </trkpt>
      <trkpt lat="47.42553" lon="6.79839">
        <ele>507</ele>
        <time>2016-01-31T09:47:49.000Z</time>
      </trkpt>
      <trkpt lat="47.4255" lon="6.79839">
        <ele>507</ele>
        <time>2016-01-31T09:47:50.000Z</time>
      </trkpt>
      <trkpt lat="47.42548" lon="6.7984">
        <ele>507</ele>
        <time>2016-01-31T09:47:51.000Z</time>
      </trkpt>
      <trkpt lat="47.42545" lon="6.7984">
        <ele>507</ele>
        <time>2016-01-31T09:47:52.000Z</time>
      </trkpt>
      <trkpt lat="47.42543" lon="6.79841">
        <ele>507</ele>
        <time>2016-01-31T09:47:53.000Z</time>
      </trkpt>
      <trkpt lat="47.4254" lon="6.79842">
        <ele>508</ele>
        <time>2016-01-31T09:47:54.000Z</time>
      </trkpt>
      <trkpt lat="47.42537" lon="6.79842">
        <ele>508</ele>
        <time>2016-01-31T09:47:55.000Z</time>
      </trkpt>
      <trkpt lat="47.42535" lon="6.79841">
        <ele>508</ele>
        <time>2016-01-31T09:47:56.000Z</time>
      </trkpt>
      <trkpt lat="47.42531" lon="6.79841">
        <ele>508</ele>
        <time>2016-01-31T09:47:58.000Z</time>
      </trkpt>
      <trkpt lat="47.42528" lon="6.79841">
        <ele>508</ele>
        <time>2016-01-31T09:47:59.000Z</time>
      </trkpt>
      <trkpt lat="47.42526" lon="6.79842">
        <ele>509</ele>
        <time>2016-01-31T09:48:00.000Z</time>
      </trkpt>
      <trkpt lat="47.42523" lon="6.79842">
        <ele>509</ele>
        <time>2016-01-31T09:48:01.000Z</time>
      </trkpt>
      <trkpt lat="47.4252" lon="6.79842">
        <ele>509</ele>
        <time>2016-01-31T09:48:02.000Z</time>
      </trkpt>
      <trkpt lat="47.42517" lon="6.79843">
        <ele>509</ele>
        <time>2016-01-31T09:48:03.000Z</time>
      </trkpt>
      <trkpt lat="47.42514" lon="6.79844">
        <ele>509</ele>
        <time>2016-01-31T09:48:04.000Z</time>
      </trkpt>
      <trkpt lat="47.42511" lon="6.79846">
        <ele>510</ele>
        <time>2016-01-31T09:48:05.000Z</time>
      </trkpt>
      <trkpt lat="47.42508" lon="6.79848">
        <ele>510</ele>
        <time>2016-01-31T09:48:06.000Z</time>
      </trkpt>
      <trkpt lat="47.42504" lon="6.79849">
        <ele>510</ele>
        <time>2016-01-31T09:48:07.000Z</time>
      </trkpt>
      <trkpt lat="47.42501" lon="6.7985">
        <ele>510</ele>
        <time>2016-01-31T09:48:08.000Z</time>
      </trkpt>
      <trkpt lat="47.42498" lon="6.79852">
        <ele>513</ele>
        <time>2016-01-31T09:48:09.000Z</time>
      </trkpt>
      <trkpt lat="47.42495" lon="6.79852">
        <ele>513</ele>
        <time>2016-01-31T09:48:10.000Z</time>
      </trkpt>
      <trkpt lat="47.42492" lon="6.79853">
        <ele>513</ele>
        <time>2016-01-31T09:48:11.000Z</time>
      </trkpt>
      <trkpt lat="47.42489" lon="6.79853">
        <ele>513</ele>
        <time>2016-01-31T09:48:12.000Z</time>
      </trkpt>
      <trkpt lat="47.42486" lon="6.79854">
        <ele>513</ele>
        <time>2016-01-31T09:48:13.000Z</time>
      </trkpt>
      <trkpt lat="47.42484" lon="6.79854">
        <ele>513</ele>
        <time>2016-01-31T09:48:14.000Z</time>
      </trkpt>
      <trkpt lat="47.42481" lon="6.79854">
        <ele>513</ele>
        <time>2016-01-31T09:48:15.000Z</time>
      </trkpt>
      <trkpt lat="47.42478" lon="6.79854">
        <ele>513</ele>
        <time>2016-01-31T09:48:16.000Z</time>
      </trkpt>
      <trkpt lat="47.42476" lon="6.79854">
        <ele>513</ele>
        <time>2016-01-31T09:48:17.000Z</time>
      </trkpt>
      <trkpt lat="47.42473" lon="6.79853">
        <ele>513</ele>
        <time>2016-01-31T09:48:18.000Z</time>
      </trkpt>
      <trkpt lat="47.42471" lon="6.79852">
        <ele>514</ele>
        <time>2016-01-31T09:48:19.000Z</time>
      </trkpt>
      <trkpt lat="47.42469" lon="6.79851">
        <ele>514</ele>
        <time>2016-01-31T09:48:20.000Z</time>
      </trkpt>
      <trkpt lat="47.42466" lon="6.7985">
        <ele>514</ele>
        <time>2016-01-31T09:48:21.000Z</time>
      </trkpt>
      <trkpt lat="47.42462" lon="6.79849">
        <ele>514</ele>
        <time>2016-01-31T09:48:23.000Z</time>
      </trkpt>
      <trkpt lat="47.4246" lon="6.79848">
        <ele>514</ele>
        <time>2016-01-31T09:48:24.000Z</time>
      </trkpt>
      <trkpt lat="47.42456" lon="6.79847">
        <ele>514</ele>
        <time>2016-01-31T09:48:26.000Z</time>
      </trkpt>
      <trkpt lat="47.42454" lon="6.79847">
        <ele>514</ele>
        <time>2016-01-31T09:48:27.000Z</time>
      </trkpt>
      <trkpt lat="47.42451" lon="6.79847">
        <ele>514</ele>
        <time>2016-01-31T09:48:28.000Z</time>
      </trkpt>
      <trkpt lat="47.42448" lon="6.79848">
        <ele>514</ele>
        <time>2016-01-31T09:48:29.000Z</time>
      </trkpt>
      <trkpt lat="47.42446" lon="6.79848">
        <ele>514</ele>
        <time>2016-01-31T09:48:30.000Z</time>
      </trkpt>
      <trkpt lat="47.42443" lon="6.79848">
        <ele>515</ele>
        <time>2016-01-31T09:48:31.000Z</time>
      </trkpt>
      <trkpt lat="47.42439" lon="6.79847">
        <ele>515</ele>
        <time>2016-01-31T09:48:33.000Z</time>
      </trkpt>
      <trkpt lat="47.42436" lon="6.79848">
        <ele>515</ele>
        <time>2016-01-31T09:48:34.000Z</time>
      </trkpt>
      <trkpt lat="47.42434" lon="6.79848">
        <ele>515</ele>
        <time>2016-01-31T09:48:35.000Z</time>
      </trkpt>
      <trkpt lat="47.42432" lon="6.79848">
        <ele>515</ele>
        <time>2016-01-31T09:48:36.000Z</time>
      </trkpt>
      <trkpt lat="47.42427" lon="6.79848">
        <ele>515</ele>
        <time>2016-01-31T09:48:38.000Z</time>
      </trkpt>
      <trkpt lat="47.42425" lon="6.79849">
        <ele>515</ele>
        <time>2016-01-31T09:48:39.000Z</time>
      </trkpt>
      <trkpt lat="47.42422" lon="6.7985">
        <ele>515</ele>
        <time>2016-01-31T09:48:40.000Z</time>
      </trkpt>
      <trkpt lat="47.42419" lon="6.79851">
        <ele>515</ele>
        <time>2016-01-31T09:48:41.000Z</time>
      </trkpt>
      <trkpt lat="47.42416" lon="6.79852">
        <ele>518</ele>
        <time>2016-01-31T09:48:42.000Z</time>
      </trkpt>
      <trkpt lat="47.42412" lon="6.79854">
        <ele>518</ele>
        <time>2016-01-31T09:48:43.000Z</time>
      </trkpt>
      <trkpt lat="47.4241" lon="6.79855">
        <ele>518</ele>
        <time>2016-01-31T09:48:44.000Z</time>
      </trkpt>
      <trkpt lat="47.42407" lon="6.79857">
        <ele>519</ele>
        <time>2016-01-31T09:48:45.000Z</time>
      </trkpt>
      <trkpt lat="47.42405" lon="6.79859">
        <ele>519</ele>
        <time>2016-01-31T09:48:46.000Z</time>
      </trkpt>
      <trkpt lat="47.42403" lon="6.7986">
        <ele>519</ele>
        <time>2016-01-31T09:48:47.000Z</time>
      </trkpt>
      <trkpt lat="47.424" lon="6.79862">
        <ele>519</ele>
        <time>2016-01-31T09:48:48.000Z</time>
      </trkpt>
      <trkpt lat="47.42397" lon="6.79864">
        <ele>519</ele>
        <time>2016-01-31T09:48:49.000Z</time>
      </trkpt>
      <trkpt lat="47.42395" lon="6.79867">
        <ele>519</ele>
        <time>2016-01-31T09:48:50.000Z</time>
      </trkpt>
      <trkpt lat="47.42393" lon="6.79869">
        <ele>520</ele>
        <time>2016-01-31T09:48:51.000Z</time>
      </trkpt>
      <trkpt lat="47.4239" lon="6.79872">
        <ele>520</ele>
        <time>2016-01-31T09:48:52.000Z</time>
      </trkpt>
      <trkpt lat="47.42388" lon="6.79875">
        <ele>520</ele>
        <time>2016-01-31T09:48:53.000Z</time>
      </trkpt>
      <trkpt lat="47.42385" lon="6.79878">
        <ele>520</ele>
        <time>2016-01-31T09:48:54.000Z</time>
      </trkpt>
      <trkpt lat="47.42383" lon="6.79881">
        <ele>520</ele>
        <time>2016-01-31T09:48:55.000Z</time>
      </trkpt>
      <trkpt lat="47.4238" lon="6.79884">
        <ele>520</ele>
        <time>2016-01-31T09:48:56.000Z</time>
      </trkpt>
      <trkpt lat="47.42378" lon="6.79887">
        <ele>520</ele>
        <time>2016-01-31T09:48:57.000Z</time>
      </trkpt>
      <trkpt lat="47.42376" lon="6.79889">
        <ele>520</ele>
        <time>2016-01-31T09:48:58.000Z</time>
      </trkpt>
      <trkpt lat="47.42374" lon="6.79891">
        <ele>521</ele>
        <time>2016-01-31T09:48:59.000Z</time>
      </trkpt>
      <trkpt lat="47.42371" lon="6.79895">
        <ele>521</ele>
        <time>2016-01-31T09:49:01.000Z</time>
      </trkpt>
      <trkpt lat="47.42369" lon="6.79897">
        <ele>521</ele>
        <time>2016-01-31T09:49:02.000Z</time>
      </trkpt>
      <trkpt lat="47.42367" lon="6.79902">
        <ele>521</ele>
        <time>2016-01-31T09:49:04.000Z</time>
      </trkpt>
      <trkpt lat="47.42365" lon="6.79905">
        <ele>521</ele>
        <time>2016-01-31T09:49:05.000Z</time>
      </trkpt>
      <trkpt lat="47.42364" lon="6.79908">
        <ele>521</ele>
        <time>2016-01-31T09:49:06.000Z</time>
      </trkpt>
      <trkpt lat="47.42363" lon="6.79911">
        <ele>521</ele>
        <time>2016-01-31T09:49:07.000Z</time>
      </trkpt>
      <trkpt lat="47.42361" lon="6.79914">
        <ele>521</ele>
        <time>2016-01-31T09:49:08.000Z</time>
      </trkpt>
      <trkpt lat="47.4236" lon="6.79918">
        <ele>521</ele>
        <time>2016-01-31T09:49:09.000Z</time>
      </trkpt>
      <trkpt lat="47.42358" lon="6.7992">
        <ele>521</ele>
        <time>2016-01-31T09:49:10.000Z</time>
      </trkpt>
      <trkpt lat="47.42357" lon="6.79923">
        <ele>522</ele>
        <time>2016-01-31T09:49:11.000Z</time>
      </trkpt>
      <trkpt lat="47.42356" lon="6.79926">
        <ele>522</ele>
        <time>2016-01-31T09:49:12.000Z</time>
      </trkpt>
      <trkpt lat="47.42355" lon="6.7993">
        <ele>522</ele>
        <time>2016-01-31T09:49:13.000Z</time>
      </trkpt>
      <trkpt lat="47.42354" lon="6.79933">
        <ele>521</ele>
        <time>2016-01-31T09:49:14.000Z</time>
      </trkpt>
      <trkpt lat="47.42352" lon="6.79936">
        <ele>521</ele>
        <time>2016-01-31T09:49:15.000Z</time>
      </trkpt>
      <trkpt lat="47.42351" lon="6.79939">
        <ele>521</ele>
        <time>2016-01-31T09:49:16.000Z</time>
      </trkpt>
      <trkpt lat="47.42348" lon="6.79942">
        <ele>521</ele>
        <time>2016-01-31T09:49:17.000Z</time>
      </trkpt>
      <trkpt lat="47.42346" lon="6.79945">
        <ele>521</ele>
        <time>2016-01-31T09:49:18.000Z</time>
      </trkpt>
      <trkpt lat="47.42343" lon="6.79948">
        <ele>521</ele>
        <time>2016-01-31T09:49:19.000Z</time>
      </trkpt>
      <trkpt lat="47.42341" lon="6.79952">
        <ele>521</ele>
        <time>2016-01-31T09:49:20.000Z</time>
      </trkpt>
      <trkpt lat="47.42339" lon="6.79954">
        <ele>521</ele>
        <time>2016-01-31T09:49:21.000Z</time>
      </trkpt>
      <trkpt lat="47.42337" lon="6.79957">
        <ele>521</ele>
        <time>2016-01-31T09:49:22.000Z</time>
      </trkpt>
      <trkpt lat="47.42335" lon="6.79961">
        <ele>521</ele>
        <time>2016-01-31T09:49:23.000Z</time>
      </trkpt>
      <trkpt lat="47.42333" lon="6.79963">
        <ele>524</ele>
        <time>2016-01-31T09:49:24.000Z</time>
      </trkpt>
      <trkpt lat="47.42331" lon="6.79966">
        <ele>524</ele>
        <time>2016-01-31T09:49:25.000Z</time>
      </trkpt>
      <trkpt lat="47.42329" lon="6.79969">
        <ele>524</ele>
        <time>2016-01-31T09:49:26.000Z</time>
      </trkpt>
      <trkpt lat="47.42327" lon="6.79971">
        <ele>524</ele>
        <time>2016-01-31T09:49:27.000Z</time>
      </trkpt>
      <trkpt lat="47.42326" lon="6.79974">
        <ele>524</ele>
        <time>2016-01-31T09:49:28.000Z</time>
      </trkpt>
      <trkpt lat="47.42323" lon="6.79977">
        <ele>524</ele>
        <time>2016-01-31T09:49:29.000Z</time>
      </trkpt>
      <trkpt lat="47.42321" lon="6.79979">
        <ele>524</ele>
        <time>2016-01-31T09:49:30.000Z</time>
      </trkpt>
      <trkpt lat="47.42319" lon="6.79982">
        <ele>524</ele>
        <time>2016-01-31T09:49:31.000Z</time>
      </trkpt>
      <trkpt lat="47.42316" lon="6.79984">
        <ele>524</ele>
        <time>2016-01-31T09:49:32.000Z</time>
      </trkpt>
      <trkpt lat="47.42313" lon="6.79987">
        <ele>524</ele>
        <time>2016-01-31T09:49:33.000Z</time>
      </trkpt>
      <trkpt lat="47.42311" lon="6.7999">
        <ele>524</ele>
        <time>2016-01-31T09:49:34.000Z</time>
      </trkpt>
      <trkpt lat="47.42308" lon="6.79992">
        <ele>525</ele>
        <time>2016-01-31T09:49:35.000Z</time>
      </trkpt>
      <trkpt lat="47.42306" lon="6.79995">
        <ele>525</ele>
        <time>2016-01-31T09:49:36.000Z</time>
      </trkpt>
      <trkpt lat="47.42305" lon="6.79997">
        <ele>525</ele>
        <time>2016-01-31T09:49:37.000Z</time>
      </trkpt>
      <trkpt lat="47.42302" lon="6.80001">
        <ele>525</ele>
        <time>2016-01-31T09:49:39.000Z</time>
      </trkpt>
      <trkpt lat="47.42301" lon="6.80003">
        <ele>525</ele>
        <time>2016-01-31T09:49:40.000Z</time>
      </trkpt>
      <trkpt lat="47.42299" lon="6.80005">
        <ele>525</ele>
        <time>2016-01-31T09:49:41.000Z</time>
      </trkpt>
      <trkpt lat="47.42297" lon="6.80007">
        <ele>525</ele>
        <time>2016-01-31T09:49:42.000Z</time>
      </trkpt>
      <trkpt lat="47.42295" lon="6.8001">
        <ele>525</ele>
        <time>2016-01-31T09:49:43.000Z</time>
      </trkpt>
      <trkpt lat="47.42293" lon="6.80012">
        <ele>525</ele>
        <time>2016-01-31T09:49:44.000Z</time>
      </trkpt>
      <trkpt lat="47.42291" lon="6.80015">
        <ele>525</ele>
        <time>2016-01-31T09:49:45.000Z</time>
      </trkpt>
      <trkpt lat="47.42289" lon="6.80018">
        <ele>525</ele>
        <time>2016-01-31T09:49:46.000Z</time>
      </trkpt>
      <trkpt lat="47.42287" lon="6.80021">
        <ele>526</ele>
        <time>2016-01-31T09:49:47.000Z</time>
      </trkpt>
      <trkpt lat="47.42285" lon="6.80024">
        <ele>526</ele>
        <time>2016-01-31T09:49:48.000Z</time>
      </trkpt>
      <trkpt lat="47.42283" lon="6.80026">
        <ele>526</ele>
        <time>2016-01-31T09:49:49.000Z</time>
      </trkpt>
      <trkpt lat="47.42281" lon="6.80028">
        <ele>526</ele>
        <time>2016-01-31T09:49:50.000Z</time>
      </trkpt>
      <trkpt lat="47.42279" lon="6.8003">
        <ele>526</ele>
        <time>2016-01-31T09:49:51.000Z</time>
      </trkpt>
      <trkpt lat="47.42277" lon="6.80032">
        <ele>526</ele>
        <time>2016-01-31T09:49:52.000Z</time>
      </trkpt>
      <trkpt lat="47.42276" lon="6.80034">
        <ele>526</ele>
        <time>2016-01-31T09:49:53.000Z</time>
      </trkpt>
      <trkpt lat="47.42273" lon="6.80037">
        <ele>526</ele>
        <time>2016-01-31T09:49:54.000Z</time>
      </trkpt>
      <trkpt lat="47.42271" lon="6.8004">
        <ele>526</ele>
        <time>2016-01-31T09:49:55.000Z</time>
      </trkpt>
      <trkpt lat="47.42268" lon="6.80043">
        <ele>526</ele>
        <time>2016-01-31T09:49:56.000Z</time>
      </trkpt>
      <trkpt lat="47.42266" lon="6.80046">
        <ele>526</ele>
        <time>2016-01-31T09:49:57.000Z</time>
      </trkpt>
      <trkpt lat="47.42263" lon="6.80048">
        <ele>526</ele>
        <time>2016-01-31T09:49:58.000Z</time>
      </trkpt>
      <trkpt lat="47.42261" lon="6.80051">
        <ele>526</ele>
        <time>2016-01-31T09:49:59.000Z</time>
      </trkpt>
      <trkpt lat="47.42259" lon="6.80053">
        <ele>526</ele>
        <time>2016-01-31T09:50:00.000Z</time>
      </trkpt>
      <trkpt lat="47.42257" lon="6.80056">
        <ele>527</ele>
        <time>2016-01-31T09:50:01.000Z</time>
      </trkpt>
      <trkpt lat="47.42255" lon="6.80058">
        <ele>527</ele>
        <time>2016-01-31T09:50:02.000Z</time>
      </trkpt>
      <trkpt lat="47.42253" lon="6.80061">
        <ele>527</ele>
        <time>2016-01-31T09:50:03.000Z</time>
      </trkpt>
      <trkpt lat="47.4225" lon="6.80064">
        <ele>530</ele>
        <time>2016-01-31T09:50:04.000Z</time>
      </trkpt>
      <trkpt lat="47.42246" lon="6.80067">
        <ele>530</ele>
        <time>2016-01-31T09:50:05.000Z</time>
      </trkpt>
      <trkpt lat="47.42243" lon="6.80069">
        <ele>530</ele>
        <time>2016-01-31T09:50:06.000Z</time>
      </trkpt>
      <trkpt lat="47.42241" lon="6.80071">
        <ele>530</ele>
        <time>2016-01-31T09:50:07.000Z</time>
      </trkpt>
      <trkpt lat="47.42239" lon="6.80073">
        <ele>530</ele>
        <time>2016-01-31T09:50:08.000Z</time>
      </trkpt>
      <trkpt lat="47.42236" lon="6.80076">
        <ele>530</ele>
        <time>2016-01-31T09:50:10.000Z</time>
      </trkpt>
      <trkpt lat="47.42235" lon="6.80078">
        <ele>530</ele>
        <time>2016-01-31T09:50:11.000Z</time>
      </trkpt>
      <trkpt lat="47.42232" lon="6.80081">
        <ele>530</ele>
        <time>2016-01-31T09:50:12.000Z</time>
      </trkpt>
      <trkpt lat="47.4223" lon="6.80084">
        <ele>530</ele>
        <time>2016-01-31T09:50:13.000Z</time>
      </trkpt>
      <trkpt lat="47.42227" lon="6.80087">
        <ele>530</ele>
        <time>2016-01-31T09:50:14.000Z</time>
      </trkpt>
      <trkpt lat="47.42223" lon="6.80091">
        <ele>530</ele>
        <time>2016-01-31T09:50:15.000Z</time>
      </trkpt>
      <trkpt lat="47.4222" lon="6.80094">
        <ele>530</ele>
        <time>2016-01-31T09:50:16.000Z</time>
      </trkpt>
      <trkpt lat="47.42217" lon="6.80098">
        <ele>531</ele>
        <time>2016-01-31T09:50:17.000Z</time>
      </trkpt>
      <trkpt lat="47.42214" lon="6.801">
        <ele>531</ele>
        <time>2016-01-31T09:50:18.000Z</time>
      </trkpt>
      <trkpt lat="47.42211" lon="6.80103">
        <ele>531</ele>
        <time>2016-01-31T09:50:19.000Z</time>
      </trkpt>
      <trkpt lat="47.42207" lon="6.80106">
        <ele>531</ele>
        <time>2016-01-31T09:50:20.000Z</time>
      </trkpt>
      <trkpt lat="47.42203" lon="6.8011">
        <ele>531</ele>
        <time>2016-01-31T09:50:21.000Z</time>
      </trkpt>
      <trkpt lat="47.42199" lon="6.80114">
        <ele>531</ele>
        <time>2016-01-31T09:50:22.000Z</time>
      </trkpt>
      <trkpt lat="47.42196" lon="6.80117">
        <ele>531</ele>
        <time>2016-01-31T09:50:23.000Z</time>
      </trkpt>
      <trkpt lat="47.42192" lon="6.80121">
        <ele>531</ele>
        <time>2016-01-31T09:50:24.000Z</time>
      </trkpt>
      <trkpt lat="47.42189" lon="6.80124">
        <ele>531</ele>
        <time>2016-01-31T09:50:25.000Z</time>
      </trkpt>
      <trkpt lat="47.42186" lon="6.80126">
        <ele>531</ele>
        <time>2016-01-31T09:50:26.000Z</time>
      </trkpt>
      <trkpt lat="47.42183" lon="6.80129">
        <ele>531</ele>
        <time>2016-01-31T09:50:27.000Z</time>
      </trkpt>
      <trkpt lat="47.4218" lon="6.80131">
        <ele>531</ele>
        <time>2016-01-31T09:50:28.000Z</time>
      </trkpt>
      <trkpt lat="47.42177" lon="6.80134">
        <ele>531</ele>
        <time>2016-01-31T09:50:29.000Z</time>
      </trkpt>
      <trkpt lat="47.42173" lon="6.80137">
        <ele>531</ele>
        <time>2016-01-31T09:50:30.000Z</time>
      </trkpt>
      <trkpt lat="47.42169" lon="6.8014">
        <ele>531</ele>
        <time>2016-01-31T09:50:31.000Z</time>
      </trkpt>
      <trkpt lat="47.42166" lon="6.80143">
        <ele>532</ele>
        <time>2016-01-31T09:50:32.000Z</time>
      </trkpt>
      <trkpt lat="47.42162" lon="6.80146">
        <ele>532</ele>
        <time>2016-01-31T09:50:33.000Z</time>
      </trkpt>
      <trkpt lat="47.42159" lon="6.80149">
        <ele>532</ele>
        <time>2016-01-31T09:50:34.000Z</time>
      </trkpt>
      <trkpt lat="47.42155" lon="6.80152">
        <ele>532</ele>
        <time>2016-01-31T09:50:35.000Z</time>
      </trkpt>
      <trkpt lat="47.42152" lon="6.80155">
        <ele>532</ele>
        <time>2016-01-31T09:50:36.000Z</time>
      </trkpt>
      <trkpt lat="47.42148" lon="6.80158">
        <ele>532</ele>
        <time>2016-01-31T09:50:37.000Z</time>
      </trkpt>
      <trkpt lat="47.42145" lon="6.8016">
        <ele>531</ele>
        <time>2016-01-31T09:50:38.000Z</time>
      </trkpt>
      <trkpt lat="47.4214" lon="6.80163">
        <ele>531</ele>
        <time>2016-01-31T09:50:39.000Z</time>
      </trkpt>
      <trkpt lat="47.42136" lon="6.80165">
        <ele>531</ele>
        <time>2016-01-31T09:50:40.000Z</time>
      </trkpt>
      <trkpt lat="47.42132" lon="6.80169">
        <ele>530</ele>
        <time>2016-01-31T09:50:41.000Z</time>
      </trkpt>
      <trkpt lat="47.42128" lon="6.80172">
        <ele>530</ele>
        <time>2016-01-31T09:50:42.000Z</time>
      </trkpt>
      <trkpt lat="47.42125" lon="6.80176">
        <ele>530</ele>
        <time>2016-01-31T09:50:43.000Z</time>
      </trkpt>
      <trkpt lat="47.42123" lon="6.80181">
        <ele>529</ele>
        <time>2016-01-31T09:50:44.000Z</time>
      </trkpt>
      <trkpt lat="47.42122" lon="6.80186">
        <ele>529</ele>
        <time>2016-01-31T09:50:45.000Z</time>
      </trkpt>
      <trkpt lat="47.42122" lon="6.80191">
        <ele>529</ele>
        <time>2016-01-31T09:50:46.000Z</time>
      </trkpt>
      <trkpt lat="47.42123" lon="6.80196">
        <ele>529</ele>
        <time>2016-01-31T09:50:47.000Z</time>
      </trkpt>
      <trkpt lat="47.42125" lon="6.80201">
        <ele>529</ele>
        <time>2016-01-31T09:50:48.000Z</time>
      </trkpt>
      <trkpt lat="47.42127" lon="6.80207">
        <ele>529</ele>
        <time>2016-01-31T09:50:49.000Z</time>
      </trkpt>
      <trkpt lat="47.42129" lon="6.80212">
        <ele>529</ele>
        <time>2016-01-31T09:50:50.000Z</time>
      </trkpt>
      <trkpt lat="47.4213" lon="6.80216">
        <ele>529</ele>
        <time>2016-01-31T09:50:51.000Z</time>
      </trkpt>
      <trkpt lat="47.42131" lon="6.80221">
        <ele>529</ele>
        <time>2016-01-31T09:50:52.000Z</time>
      </trkpt>
      <trkpt lat="47.42133" lon="6.80226">
        <ele>529</ele>
        <time>2016-01-31T09:50:53.000Z</time>
      </trkpt>
      <trkpt lat="47.42138" lon="6.80231">
        <ele>529</ele>
        <time>2016-01-31T09:50:54.000Z</time>
      </trkpt>
      <trkpt lat="47.4214" lon="6.80234">
        <ele>529</ele>
        <time>2016-01-31T09:50:55.000Z</time>
      </trkpt>
      <trkpt lat="47.42142" lon="6.8024">
        <ele>529</ele>
        <time>2016-01-31T09:50:56.000Z</time>
      </trkpt>
      <trkpt lat="47.42144" lon="6.80245">
        <ele>529</ele>
        <time>2016-01-31T09:50:57.000Z</time>
      </trkpt>
      <trkpt lat="47.42145" lon="6.80249">
        <ele>529</ele>
        <time>2016-01-31T09:50:58.000Z</time>
      </trkpt>
      <trkpt lat="47.42147" lon="6.80252">
        <ele>527</ele>
        <time>2016-01-31T09:50:59.000Z</time>
      </trkpt>
      <trkpt lat="47.42148" lon="6.80257">
        <ele>527</ele>
        <time>2016-01-31T09:51:00.000Z</time>
      </trkpt>
      <trkpt lat="47.42151" lon="6.80261">
        <ele>527</ele>
        <time>2016-01-31T09:51:01.000Z</time>
      </trkpt>
      <trkpt lat="47.42152" lon="6.80266">
        <ele>527</ele>
        <time>2016-01-31T09:51:02.000Z</time>
      </trkpt>
      <trkpt lat="47.42154" lon="6.8027">
        <ele>526</ele>
        <time>2016-01-31T09:51:03.000Z</time>
      </trkpt>
      <trkpt lat="47.42157" lon="6.80274">
        <ele>526</ele>
        <time>2016-01-31T09:51:04.000Z</time>
      </trkpt>
      <trkpt lat="47.42158" lon="6.80279">
        <ele>526</ele>
        <time>2016-01-31T09:51:05.000Z</time>
      </trkpt>
      <trkpt lat="47.42159" lon="6.80283">
        <ele>526</ele>
        <time>2016-01-31T09:51:06.000Z</time>
      </trkpt>
      <trkpt lat="47.42161" lon="6.80287">
        <ele>525</ele>
        <time>2016-01-31T09:51:07.000Z</time>
      </trkpt>
      <trkpt lat="47.42163" lon="6.80292">
        <ele>525</ele>
        <time>2016-01-31T09:51:08.000Z</time>
      </trkpt>
      <trkpt lat="47.42165" lon="6.80297">
        <ele>525</ele>
        <time>2016-01-31T09:51:09.000Z</time>
      </trkpt>
      <trkpt lat="47.42168" lon="6.80302">
        <ele>525</ele>
        <time>2016-01-31T09:51:10.000Z</time>
      </trkpt>
      <trkpt lat="47.42171" lon="6.80307">
        <ele>525</ele>
        <time>2016-01-31T09:51:11.000Z</time>
      </trkpt>
      <trkpt lat="47.42177" lon="6.80321">
        <ele>525</ele>
        <time>2016-01-31T09:51:12.000Z</time>
      </trkpt>
      <trkpt lat="47.42182" lon="6.80329">
        <ele>524</ele>
        <time>2016-01-31T09:51:13.000Z</time>
      </trkpt>
      <trkpt lat="47.42186" lon="6.80335">
        <ele>522</ele>
        <time>2016-01-31T09:51:14.000Z</time>
      </trkpt>
      <trkpt lat="47.42191" lon="6.80343">
        <ele>522</ele>
        <time>2016-01-31T09:51:15.000Z</time>
      </trkpt>
      <trkpt lat="47.42194" lon="6.80347">
        <ele>522</ele>
        <time>2016-01-31T09:51:16.000Z</time>
      </trkpt>
      <trkpt lat="47.42195" lon="6.80354">
        <ele>522</ele>
        <time>2016-01-31T09:51:17.000Z</time>
      </trkpt>
      <trkpt lat="47.42196" lon="6.8036">
        <ele>521</ele>
        <time>2016-01-31T09:51:18.000Z</time>
      </trkpt>
      <trkpt lat="47.42197" lon="6.80368">
        <ele>521</ele>
        <time>2016-01-31T09:51:19.000Z</time>
      </trkpt>
      <trkpt lat="47.422" lon="6.80374">
        <ele>521</ele>
        <time>2016-01-31T09:51:20.000Z</time>
      </trkpt>
      <trkpt lat="47.42203" lon="6.80379">
        <ele>521</ele>
        <time>2016-01-31T09:51:21.000Z</time>
      </trkpt>
      <trkpt lat="47.42205" lon="6.80385">
        <ele>521</ele>
        <time>2016-01-31T09:51:22.000Z</time>
      </trkpt>
      <trkpt lat="47.42208" lon="6.8039">
        <ele>520</ele>
        <time>2016-01-31T09:51:23.000Z</time>
      </trkpt>
      <trkpt lat="47.42212" lon="6.80396">
        <ele>520</ele>
        <time>2016-01-31T09:51:24.000Z</time>
      </trkpt>
      <trkpt lat="47.42213" lon="6.80401">
        <ele>520</ele>
        <time>2016-01-31T09:51:25.000Z</time>
      </trkpt>
      <trkpt lat="47.42216" lon="6.80406">
        <ele>520</ele>
        <time>2016-01-31T09:51:26.000Z</time>
      </trkpt>
      <trkpt lat="47.42218" lon="6.80411">
        <ele>520</ele>
        <time>2016-01-31T09:51:27.000Z</time>
      </trkpt>
      <trkpt lat="47.4222" lon="6.80416">
        <ele>520</ele>
        <time>2016-01-31T09:51:28.000Z</time>
      </trkpt>
      <trkpt lat="47.42222" lon="6.80421">
        <ele>516</ele>
        <time>2016-01-31T09:51:29.000Z</time>
      </trkpt>
      <trkpt lat="47.42224" lon="6.80427">
        <ele>516</ele>
        <time>2016-01-31T09:51:30.000Z</time>
      </trkpt>
      <trkpt lat="47.42226" lon="6.80432">
        <ele>516</ele>
        <time>2016-01-31T09:51:31.000Z</time>
      </trkpt>
      <trkpt lat="47.42229" lon="6.80438">
        <ele>515</ele>
        <time>2016-01-31T09:51:32.000Z</time>
      </trkpt>
      <trkpt lat="47.42232" lon="6.80444">
        <ele>515</ele>
        <time>2016-01-31T09:51:33.000Z</time>
      </trkpt>
      <trkpt lat="47.42236" lon="6.8045">
        <ele>515</ele>
        <time>2016-01-31T09:51:34.000Z</time>
      </trkpt>
      <trkpt lat="47.42239" lon="6.80457">
        <ele>514</ele>
        <time>2016-01-31T09:51:35.000Z</time>
      </trkpt>
      <trkpt lat="47.42242" lon="6.80463">
        <ele>514</ele>
        <time>2016-01-31T09:51:36.000Z</time>
      </trkpt>
      <trkpt lat="47.42245" lon="6.80469">
        <ele>513</ele>
        <time>2016-01-31T09:51:37.000Z</time>
      </trkpt>
      <trkpt lat="47.42248" lon="6.80475">
        <ele>512</ele>
        <time>2016-01-31T09:51:38.000Z</time>
      </trkpt>
      <trkpt lat="47.4225" lon="6.80481">
        <ele>513</ele>
        <time>2016-01-31T09:51:39.000Z</time>
      </trkpt>
      <trkpt lat="47.42253" lon="6.80486">
        <ele>512</ele>
        <time>2016-01-31T09:51:40.000Z</time>
      </trkpt>
      <trkpt lat="47.42255" lon="6.80491">
        <ele>511</ele>
        <time>2016-01-31T09:51:41.000Z</time>
      </trkpt>
      <trkpt lat="47.42258" lon="6.80496">
        <ele>511</ele>
        <time>2016-01-31T09:51:42.000Z</time>
      </trkpt>
      <trkpt lat="47.4226" lon="6.805">
        <ele>511</ele>
        <time>2016-01-31T09:51:43.000Z</time>
      </trkpt>
      <trkpt lat="47.42261" lon="6.80503">
        <ele>508</ele>
        <time>2016-01-31T09:51:44.000Z</time>
      </trkpt>
      <trkpt lat="47.42263" lon="6.80506">
        <ele>508</ele>
        <time>2016-01-31T09:51:45.000Z</time>
      </trkpt>
      <trkpt lat="47.42265" lon="6.80509">
        <ele>508</ele>
        <time>2016-01-31T09:51:46.000Z</time>
      </trkpt>
      <trkpt lat="47.42267" lon="6.80513">
        <ele>508</ele>
        <time>2016-01-31T09:51:47.000Z</time>
      </trkpt>
      <trkpt lat="47.42269" lon="6.80516">
        <ele>508</ele>
        <time>2016-01-31T09:51:48.000Z</time>
      </trkpt>
      <trkpt lat="47.42272" lon="6.8052">
        <ele>507</ele>
        <time>2016-01-31T09:51:49.000Z</time>
      </trkpt>
      <trkpt lat="47.42274" lon="6.80524">
        <ele>507</ele>
        <time>2016-01-31T09:51:50.000Z</time>
      </trkpt>
      <trkpt lat="47.42276" lon="6.80528">
        <ele>507</ele>
        <time>2016-01-31T09:51:51.000Z</time>
      </trkpt>
      <trkpt lat="47.42278" lon="6.80532">
        <ele>507</ele>
        <time>2016-01-31T09:51:52.000Z</time>
      </trkpt>
      <trkpt lat="47.4228" lon="6.80536">
        <ele>507</ele>
        <time>2016-01-31T09:51:53.000Z</time>
      </trkpt>
      <trkpt lat="47.42282" lon="6.8054">
        <ele>506</ele>
        <time>2016-01-31T09:51:54.000Z</time>
      </trkpt>
      <trkpt lat="47.42284" lon="6.80545">
        <ele>506</ele>
        <time>2016-01-31T09:51:55.000Z</time>
      </trkpt>
      <trkpt lat="47.42287" lon="6.80549">
        <ele>506</ele>
        <time>2016-01-31T09:51:56.000Z</time>
      </trkpt>
      <trkpt lat="47.42289" lon="6.80553">
        <ele>506</ele>
        <time>2016-01-31T09:51:57.000Z</time>
      </trkpt>
      <trkpt lat="47.42292" lon="6.80557">
        <ele>506</ele>
        <time>2016-01-31T09:51:58.000Z</time>
      </trkpt>
      <trkpt lat="47.42294" lon="6.80561">
        <ele>506</ele>
        <time>2016-01-31T09:51:59.000Z</time>
      </trkpt>
      <trkpt lat="47.42299" lon="6.8057">
        <ele>506</ele>
        <time>2016-01-31T09:52:01.000Z</time>
      </trkpt>
      <trkpt lat="47.42302" lon="6.80574">
        <ele>506</ele>
        <time>2016-01-31T09:52:02.000Z</time>
      </trkpt>
      <trkpt lat="47.42304" lon="6.80579">
        <ele>506</ele>
        <time>2016-01-31T09:52:03.000Z</time>
      </trkpt>
      <trkpt lat="47.42306" lon="6.80583">
        <ele>506</ele>
        <time>2016-01-31T09:52:04.000Z</time>
      </trkpt>
      <trkpt lat="47.42309" lon="6.80587">
        <ele>501</ele>
        <time>2016-01-31T09:52:05.000Z</time>
      </trkpt>
      <trkpt lat="47.42311" lon="6.80591">
        <ele>501</ele>
        <time>2016-01-31T09:52:06.000Z</time>
      </trkpt>
      <trkpt lat="47.42314" lon="6.80595">
        <ele>501</ele>
        <time>2016-01-31T09:52:07.000Z</time>
      </trkpt>
      <trkpt lat="47.42317" lon="6.80599">
        <ele>501</ele>
        <time>2016-01-31T09:52:08.000Z</time>
      </trkpt>
      <trkpt lat="47.42319" lon="6.80604">
        <ele>501</ele>
        <time>2016-01-31T09:52:09.000Z</time>
      </trkpt>
      <trkpt lat="47.42322" lon="6.8061">
        <ele>501</ele>
        <time>2016-01-31T09:52:10.000Z</time>
      </trkpt>
      <trkpt lat="47.42326" lon="6.80615">
        <ele>500</ele>
        <time>2016-01-31T09:52:11.000Z</time>
      </trkpt>
      <trkpt lat="47.42329" lon="6.80621">
        <ele>500</ele>
        <time>2016-01-31T09:52:12.000Z</time>
      </trkpt>
      <trkpt lat="47.42332" lon="6.80625">
        <ele>500</ele>
        <time>2016-01-31T09:52:13.000Z</time>
      </trkpt>
      <trkpt lat="47.42336" lon="6.8063">
        <ele>504</ele>
        <time>2016-01-31T09:52:14.000Z</time>
      </trkpt>
      <trkpt lat="47.42339" lon="6.80635">
        <ele>503</ele>
        <time>2016-01-31T09:52:15.000Z</time>
      </trkpt>
      <trkpt lat="47.42343" lon="6.8064">
        <ele>503</ele>
        <time>2016-01-31T09:52:16.000Z</time>
      </trkpt>
      <trkpt lat="47.42347" lon="6.80645">
        <ele>503</ele>
        <time>2016-01-31T09:52:17.000Z</time>
      </trkpt>
      <trkpt lat="47.42351" lon="6.80648">
        <ele>503</ele>
        <time>2016-01-31T09:52:18.000Z</time>
      </trkpt>
      <trkpt lat="47.42355" lon="6.80651">
        <ele>503</ele>
        <time>2016-01-31T09:52:19.000Z</time>
      </trkpt>
      <trkpt lat="47.42359" lon="6.80654">
        <ele>503</ele>
        <time>2016-01-31T09:52:20.000Z</time>
      </trkpt>
      <trkpt lat="47.42362" lon="6.80656">
        <ele>503</ele>
        <time>2016-01-31T09:52:21.000Z</time>
      </trkpt>
      <trkpt lat="47.42365" lon="6.80657">
        <ele>503</ele>
        <time>2016-01-31T09:52:22.000Z</time>
      </trkpt>
      <trkpt lat="47.42368" lon="6.80658">
        <ele>504</ele>
        <time>2016-01-31T09:52:23.000Z</time>
      </trkpt>
      <trkpt lat="47.42371" lon="6.8066">
        <ele>504</ele>
        <time>2016-01-31T09:52:24.000Z</time>
      </trkpt>
      <trkpt lat="47.42374" lon="6.80661">
        <ele>504</ele>
        <time>2016-01-31T09:52:25.000Z</time>
      </trkpt>
      <trkpt lat="47.42376" lon="6.80662">
        <ele>504</ele>
        <time>2016-01-31T09:52:26.000Z</time>
      </trkpt>
      <trkpt lat="47.42379" lon="6.80662">
        <ele>504</ele>
        <time>2016-01-31T09:52:27.000Z</time>
      </trkpt>
      <trkpt lat="47.42381" lon="6.80663">
        <ele>504</ele>
        <time>2016-01-31T09:52:28.000Z</time>
      </trkpt>
      <trkpt lat="47.42383" lon="6.80665">
        <ele>505</ele>
        <time>2016-01-31T09:52:29.000Z</time>
      </trkpt>
      <trkpt lat="47.42385" lon="6.80666">
        <ele>505</ele>
        <time>2016-01-31T09:52:30.000Z</time>
      </trkpt>
      <trkpt lat="47.42389" lon="6.80668">
        <ele>503</ele>
        <time>2016-01-31T09:52:32.000Z</time>
      </trkpt>
      <trkpt lat="47.42391" lon="6.80669">
        <ele>503</ele>
        <time>2016-01-31T09:52:33.000Z</time>
      </trkpt>
      <trkpt lat="47.42394" lon="6.80672">
        <ele>503</ele>
        <time>2016-01-31T09:52:35.000Z</time>
      </trkpt>
      <trkpt lat="47.42395" lon="6.80674">
        <ele>503</ele>
        <time>2016-01-31T09:52:36.000Z</time>
      </trkpt>
      <trkpt lat="47.42397" lon="6.80677">
        <ele>504</ele>
        <time>2016-01-31T09:52:37.000Z</time>
      </trkpt>
      <trkpt lat="47.42398" lon="6.8068">
        <ele>503</ele>
        <time>2016-01-31T09:52:38.000Z</time>
      </trkpt>
      <trkpt lat="47.424" lon="6.80684">
        <ele>503</ele>
        <time>2016-01-31T09:52:39.000Z</time>
      </trkpt>
      <trkpt lat="47.42402" lon="6.80687">
        <ele>503</ele>
        <time>2016-01-31T09:52:40.000Z</time>
      </trkpt>
      <trkpt lat="47.42404" lon="6.8069">
        <ele>503</ele>
        <time>2016-01-31T09:52:41.000Z</time>
      </trkpt>
      <trkpt lat="47.42406" lon="6.80693">
        <ele>503</ele>
        <time>2016-01-31T09:52:42.000Z</time>
      </trkpt>
      <trkpt lat="47.42408" lon="6.80697">
        <ele>503</ele>
        <time>2016-01-31T09:52:43.000Z</time>
      </trkpt>
      <trkpt lat="47.42411" lon="6.807">
        <ele>503</ele>
        <time>2016-01-31T09:52:44.000Z</time>
      </trkpt>
      <trkpt lat="47.42413" lon="6.80704">
        <ele>503</ele>
        <time>2016-01-31T09:52:45.000Z</time>
      </trkpt>
      <trkpt lat="47.42415" lon="6.80708">
        <ele>503</ele>
        <time>2016-01-31T09:52:46.000Z</time>
      </trkpt>
      <trkpt lat="47.42418" lon="6.80711">
        <ele>501</ele>
        <time>2016-01-31T09:52:47.000Z</time>
      </trkpt>
      <trkpt lat="47.4242" lon="6.80715">
        <ele>501</ele>
        <time>2016-01-31T09:52:48.000Z</time>
      </trkpt>
      <trkpt lat="47.42422" lon="6.80719">
        <ele>501</ele>
        <time>2016-01-31T09:52:49.000Z</time>
      </trkpt>
      <trkpt lat="47.42424" lon="6.80723">
        <ele>501</ele>
        <time>2016-01-31T09:52:50.000Z</time>
      </trkpt>
      <trkpt lat="47.42427" lon="6.80727">
        <ele>501</ele>
        <time>2016-01-31T09:52:51.000Z</time>
      </trkpt>
      <trkpt lat="47.4243" lon="6.8073">
        <ele>501</ele>
        <time>2016-01-31T09:52:52.000Z</time>
      </trkpt>
      <trkpt lat="47.42432" lon="6.80734">
        <ele>501</ele>
        <time>2016-01-31T09:52:53.000Z</time>
      </trkpt>
      <trkpt lat="47.42435" lon="6.80739">
        <ele>501</ele>
        <time>2016-01-31T09:52:54.000Z</time>
      </trkpt>
      <trkpt lat="47.42437" lon="6.80744">
        <ele>501</ele>
        <time>2016-01-31T09:52:55.000Z</time>
      </trkpt>
      <trkpt lat="47.42439" lon="6.80749">
        <ele>501</ele>
        <time>2016-01-31T09:52:56.000Z</time>
      </trkpt>
      <trkpt lat="47.42442" lon="6.80754">
        <ele>501</ele>
        <time>2016-01-31T09:52:57.000Z</time>
      </trkpt>
      <trkpt lat="47.42445" lon="6.80758">
        <ele>500</ele>
        <time>2016-01-31T09:52:58.000Z</time>
      </trkpt>
      <trkpt lat="47.42449" lon="6.80762">
        <ele>500</ele>
        <time>2016-01-31T09:52:59.000Z</time>
      </trkpt>
      <trkpt lat="47.42458" lon="6.80768">
        <ele>499</ele>
        <time>2016-01-31T09:53:01.000Z</time>
      </trkpt>
      <trkpt lat="47.42462" lon="6.80771">
        <ele>498</ele>
        <time>2016-01-31T09:53:02.000Z</time>
      </trkpt>
      <trkpt lat="47.42467" lon="6.80775">
        <ele>498</ele>
        <time>2016-01-31T09:53:03.000Z</time>
      </trkpt>
      <trkpt lat="47.42471" lon="6.8078">
        <ele>498</ele>
        <time>2016-01-31T09:53:04.000Z</time>
      </trkpt>
      <trkpt lat="47.42483" lon="6.80798">
        <ele>498</ele>
        <time>2016-01-31T09:53:05.000Z</time>
      </trkpt>
      <trkpt lat="47.42489" lon="6.80804">
        <ele>498</ele>
        <time>2016-01-31T09:53:06.000Z</time>
      </trkpt>
      <trkpt lat="47.42494" lon="6.8081">
        <ele>499</ele>
        <time>2016-01-31T09:53:07.000Z</time>
      </trkpt>
      <trkpt lat="47.42499" lon="6.80816">
        <ele>499</ele>
        <time>2016-01-31T09:53:08.000Z</time>
      </trkpt>
      <trkpt lat="47.42504" lon="6.80822">
        <ele>496</ele>
        <time>2016-01-31T09:53:09.000Z</time>
      </trkpt>
      <trkpt lat="47.42508" lon="6.80827">
        <ele>496</ele>
        <time>2016-01-31T09:53:10.000Z</time>
      </trkpt>
      <trkpt lat="47.42513" lon="6.80835">
        <ele>498</ele>
        <time>2016-01-31T09:53:11.000Z</time>
      </trkpt>
      <trkpt lat="47.4252" lon="6.80839">
        <ele>497</ele>
        <time>2016-01-31T09:53:12.000Z</time>
      </trkpt>
      <trkpt lat="47.42525" lon="6.80842">
        <ele>497</ele>
        <time>2016-01-31T09:53:13.000Z</time>
      </trkpt>
      <trkpt lat="47.42532" lon="6.80844">
        <ele>496</ele>
        <time>2016-01-31T09:53:14.000Z</time>
      </trkpt>
      <trkpt lat="47.4254" lon="6.80846">
        <ele>496</ele>
        <time>2016-01-31T09:53:15.000Z</time>
      </trkpt>
      <trkpt lat="47.42546" lon="6.80848">
        <ele>495</ele>
        <time>2016-01-31T09:53:16.000Z</time>
      </trkpt>
      <trkpt lat="47.42555" lon="6.80851">
        <ele>495</ele>
        <time>2016-01-31T09:53:17.000Z</time>
      </trkpt>
      <trkpt lat="47.42563" lon="6.80858">
        <ele>494</ele>
        <time>2016-01-31T09:53:18.000Z</time>
      </trkpt>
      <trkpt lat="47.4257" lon="6.80863">
        <ele>494</ele>
        <time>2016-01-31T09:53:19.000Z</time>
      </trkpt>
      <trkpt lat="47.42577" lon="6.80868">
        <ele>494</ele>
        <time>2016-01-31T09:53:20.000Z</time>
      </trkpt>
      <trkpt lat="47.42582" lon="6.80871">
        <ele>494</ele>
        <time>2016-01-31T09:53:21.000Z</time>
      </trkpt>
      <trkpt lat="47.42587" lon="6.80875">
        <ele>488</ele>
        <time>2016-01-31T09:53:22.000Z</time>
      </trkpt>
      <trkpt lat="47.42592" lon="6.80876">
        <ele>488</ele>
        <time>2016-01-31T09:53:23.000Z</time>
      </trkpt>
      <trkpt lat="47.42597" lon="6.80878">
        <ele>488</ele>
        <time>2016-01-31T09:53:24.000Z</time>
      </trkpt>
      <trkpt lat="47.42601" lon="6.80881">
        <ele>488</ele>
        <time>2016-01-31T09:53:25.000Z</time>
      </trkpt>
      <trkpt lat="47.42609" lon="6.80886">
        <ele>487</ele>
        <time>2016-01-31T09:53:26.000Z</time>
      </trkpt>
      <trkpt lat="47.42614" lon="6.80891">
        <ele>487</ele>
        <time>2016-01-31T09:53:27.000Z</time>
      </trkpt>
      <trkpt lat="47.42617" lon="6.80897">
        <ele>487</ele>
        <time>2016-01-31T09:53:28.000Z</time>
      </trkpt>
      <trkpt lat="47.42616" lon="6.80906">
        <ele>488</ele>
        <time>2016-01-31T09:53:29.000Z</time>
      </trkpt>
      <trkpt lat="47.42618" lon="6.8091">
        <ele>488</ele>
        <time>2016-01-31T09:53:30.000Z</time>
      </trkpt>
      <trkpt lat="47.42621" lon="6.80913">
        <ele>487</ele>
        <time>2016-01-31T09:53:31.000Z</time>
      </trkpt>
      <trkpt lat="47.42624" lon="6.80916">
        <ele>487</ele>
        <time>2016-01-31T09:53:32.000Z</time>
      </trkpt>
      <trkpt lat="47.42628" lon="6.80918">
        <ele>487</ele>
        <time>2016-01-31T09:53:33.000Z</time>
      </trkpt>
      <trkpt lat="47.42632" lon="6.80921">
        <ele>487</ele>
        <time>2016-01-31T09:53:34.000Z</time>
      </trkpt>
      <trkpt lat="47.42637" lon="6.80924">
        <ele>487</ele>
        <time>2016-01-31T09:53:35.000Z</time>
      </trkpt>
      <trkpt lat="47.42642" lon="6.80927">
        <ele>486</ele>
        <time>2016-01-31T09:53:36.000Z</time>
      </trkpt>
      <trkpt lat="47.42645" lon="6.80929">
        <ele>486</ele>
        <time>2016-01-31T09:53:37.000Z</time>
      </trkpt>
      <trkpt lat="47.42648" lon="6.8093">
        <ele>486</ele>
        <time>2016-01-31T09:53:38.000Z</time>
      </trkpt>
      <trkpt lat="47.42651" lon="6.80931">
        <ele>486</ele>
        <time>2016-01-31T09:53:39.000Z</time>
      </trkpt>
      <trkpt lat="47.42654" lon="6.80933">
        <ele>486</ele>
        <time>2016-01-31T09:53:40.000Z</time>
      </trkpt>
      <trkpt lat="47.42657" lon="6.80935">
        <ele>486</ele>
        <time>2016-01-31T09:53:41.000Z</time>
      </trkpt>
      <trkpt lat="47.42661" lon="6.80937">
        <ele>486</ele>
        <time>2016-01-31T09:53:42.000Z</time>
      </trkpt>
      <trkpt lat="47.42664" lon="6.8094">
        <ele>486</ele>
        <time>2016-01-31T09:53:43.000Z</time>
      </trkpt>
      <trkpt lat="47.42667" lon="6.80942">
        <ele>483</ele>
        <time>2016-01-31T09:53:44.000Z</time>
      </trkpt>
      <trkpt lat="47.4267" lon="6.80944">
        <ele>483</ele>
        <time>2016-01-31T09:53:45.000Z</time>
      </trkpt>
      <trkpt lat="47.42672" lon="6.80946">
        <ele>483</ele>
        <time>2016-01-31T09:53:46.000Z</time>
      </trkpt>
      <trkpt lat="47.42674" lon="6.80947">
        <ele>483</ele>
        <time>2016-01-31T09:53:47.000Z</time>
      </trkpt>
      <trkpt lat="47.42676" lon="6.80949">
        <ele>483</ele>
        <time>2016-01-31T09:53:48.000Z</time>
      </trkpt>
      <trkpt lat="47.42678" lon="6.80951">
        <ele>483</ele>
        <time>2016-01-31T09:53:49.000Z</time>
      </trkpt>
      <trkpt lat="47.4268" lon="6.80953">
        <ele>483</ele>
        <time>2016-01-31T09:53:50.000Z</time>
      </trkpt>
      <trkpt lat="47.42682" lon="6.80955">
        <ele>483</ele>
        <time>2016-01-31T09:53:51.000Z</time>
      </trkpt>
      <trkpt lat="47.42683" lon="6.80958">
        <ele>483</ele>
        <time>2016-01-31T09:53:52.000Z</time>
      </trkpt>
      <trkpt lat="47.42686" lon="6.80962">
        <ele>483</ele>
        <time>2016-01-31T09:53:54.000Z</time>
      </trkpt>
      <trkpt lat="47.42688" lon="6.80965">
        <ele>483</ele>
        <time>2016-01-31T09:53:55.000Z</time>
      </trkpt>
      <trkpt lat="47.4269" lon="6.80968">
        <ele>483</ele>
        <time>2016-01-31T09:53:56.000Z</time>
      </trkpt>
      <trkpt lat="47.42692" lon="6.80971">
        <ele>483</ele>
        <time>2016-01-31T09:53:57.000Z</time>
      </trkpt>
      <trkpt lat="47.42694" lon="6.80974">
        <ele>483</ele>
        <time>2016-01-31T09:53:58.000Z</time>
      </trkpt>
      <trkpt lat="47.42697" lon="6.80977">
        <ele>483</ele>
        <time>2016-01-31T09:53:59.000Z</time>
      </trkpt>
      <trkpt lat="47.42699" lon="6.8098">
        <ele>483</ele>
        <time>2016-01-31T09:54:00.000Z</time>
      </trkpt>
      <trkpt lat="47.42702" lon="6.80983">
        <ele>483</ele>
        <time>2016-01-31T09:54:01.000Z</time>
      </trkpt>
      <trkpt lat="47.42704" lon="6.80986">
        <ele>483</ele>
        <time>2016-01-31T09:54:02.000Z</time>
      </trkpt>
      <trkpt lat="47.42707" lon="6.80988">
        <ele>483</ele>
        <time>2016-01-31T09:54:03.000Z</time>
      </trkpt>
      <trkpt lat="47.42709" lon="6.80991">
        <ele>483</ele>
        <time>2016-01-31T09:54:04.000Z</time>
      </trkpt>
      <trkpt lat="47.42711" lon="6.80994">
        <ele>483</ele>
        <time>2016-01-31T09:54:05.000Z</time>
      </trkpt>
      <trkpt lat="47.42714" lon="6.80998">
        <ele>484</ele>
        <time>2016-01-31T09:54:06.000Z</time>
      </trkpt>
      <trkpt lat="47.42716" lon="6.81003">
        <ele>480</ele>
        <time>2016-01-31T09:54:07.000Z</time>
      </trkpt>
      <trkpt lat="47.42719" lon="6.81006">
        <ele>480</ele>
        <time>2016-01-31T09:54:08.000Z</time>
      </trkpt>
      <trkpt lat="47.42721" lon="6.8101">
        <ele>480</ele>
        <time>2016-01-31T09:54:09.000Z</time>
      </trkpt>
      <trkpt lat="47.42725" lon="6.81014">
        <ele>480</ele>
        <time>2016-01-31T09:54:10.000Z</time>
      </trkpt>
      <trkpt lat="47.42728" lon="6.81017">
        <ele>480</ele>
        <time>2016-01-31T09:54:11.000Z</time>
      </trkpt>
      <trkpt lat="47.42731" lon="6.81021">
        <ele>480</ele>
        <time>2016-01-31T09:54:12.000Z</time>
      </trkpt>
      <trkpt lat="47.42733" lon="6.81024">
        <ele>480</ele>
        <time>2016-01-31T09:54:13.000Z</time>
      </trkpt>
      <trkpt lat="47.42737" lon="6.81028">
        <ele>480</ele>
        <time>2016-01-31T09:54:14.000Z</time>
      </trkpt>
      <trkpt lat="47.4274" lon="6.81033">
        <ele>479</ele>
        <time>2016-01-31T09:54:15.000Z</time>
      </trkpt>
      <trkpt lat="47.42744" lon="6.81038">
        <ele>479</ele>
        <time>2016-01-31T09:54:16.000Z</time>
      </trkpt>
      <trkpt lat="47.42747" lon="6.81043">
        <ele>478</ele>
        <time>2016-01-31T09:54:17.000Z</time>
      </trkpt>
      <trkpt lat="47.42751" lon="6.81047">
        <ele>479</ele>
        <time>2016-01-31T09:54:18.000Z</time>
      </trkpt>
      <trkpt lat="47.42755" lon="6.81051">
        <ele>478</ele>
        <time>2016-01-31T09:54:19.000Z</time>
      </trkpt>
      <trkpt lat="47.42758" lon="6.81056">
        <ele>478</ele>
        <time>2016-01-31T09:54:20.000Z</time>
      </trkpt>
      <trkpt lat="47.42762" lon="6.8106">
        <ele>478</ele>
        <time>2016-01-31T09:54:21.000Z</time>
      </trkpt>
      <trkpt lat="47.42765" lon="6.81064">
        <ele>477</ele>
        <time>2016-01-31T09:54:22.000Z</time>
      </trkpt>
      <trkpt lat="47.42769" lon="6.81067">
        <ele>477</ele>
        <time>2016-01-31T09:54:23.000Z</time>
      </trkpt>
      <trkpt lat="47.42772" lon="6.8107">
        <ele>477</ele>
        <time>2016-01-31T09:54:24.000Z</time>
      </trkpt>
      <trkpt lat="47.42775" lon="6.81074">
        <ele>477</ele>
        <time>2016-01-31T09:54:25.000Z</time>
      </trkpt>
      <trkpt lat="47.42778" lon="6.81078">
        <ele>477</ele>
        <time>2016-01-31T09:54:26.000Z</time>
      </trkpt>
      <trkpt lat="47.42781" lon="6.81082">
        <ele>477</ele>
        <time>2016-01-31T09:54:27.000Z</time>
      </trkpt>
      <trkpt lat="47.42784" lon="6.81087">
        <ele>473</ele>
        <time>2016-01-31T09:54:28.000Z</time>
      </trkpt>
      <trkpt lat="47.42787" lon="6.81091">
        <ele>473</ele>
        <time>2016-01-31T09:54:29.000Z</time>
      </trkpt>
      <trkpt lat="47.4279" lon="6.81095">
        <ele>473</ele>
        <time>2016-01-31T09:54:30.000Z</time>
      </trkpt>
      <trkpt lat="47.42793" lon="6.81098">
        <ele>473</ele>
        <time>2016-01-31T09:54:31.000Z</time>
      </trkpt>
      <trkpt lat="47.42795" lon="6.811">
        <ele>473</ele>
        <time>2016-01-31T09:54:32.000Z</time>
      </trkpt>
      <trkpt lat="47.42797" lon="6.81103">
        <ele>473</ele>
        <time>2016-01-31T09:54:33.000Z</time>
      </trkpt>
      <trkpt lat="47.428" lon="6.81104">
        <ele>473</ele>
        <time>2016-01-31T09:54:34.000Z</time>
      </trkpt>
      <trkpt lat="47.42803" lon="6.81107">
        <ele>473</ele>
        <time>2016-01-31T09:54:35.000Z</time>
      </trkpt>
      <trkpt lat="47.42806" lon="6.8111">
        <ele>473</ele>
        <time>2016-01-31T09:54:36.000Z</time>
      </trkpt>
      <trkpt lat="47.42809" lon="6.81112">
        <ele>473</ele>
        <time>2016-01-31T09:54:37.000Z</time>
      </trkpt>
      <trkpt lat="47.42812" lon="6.81115">
        <ele>473</ele>
        <time>2016-01-31T09:54:38.000Z</time>
      </trkpt>
      <trkpt lat="47.42815" lon="6.81118">
        <ele>473</ele>
        <time>2016-01-31T09:54:39.000Z</time>
      </trkpt>
      <trkpt lat="47.42818" lon="6.8112">
        <ele>473</ele>
        <time>2016-01-31T09:54:40.000Z</time>
      </trkpt>
      <trkpt lat="47.42821" lon="6.81121">
        <ele>473</ele>
        <time>2016-01-31T09:54:41.000Z</time>
      </trkpt>
      <trkpt lat="47.42824" lon="6.81123">
        <ele>473</ele>
        <time>2016-01-31T09:54:42.000Z</time>
      </trkpt>
      <trkpt lat="47.42828" lon="6.81126">
        <ele>473</ele>
        <time>2016-01-31T09:54:43.000Z</time>
      </trkpt>
      <trkpt lat="47.42831" lon="6.8113">
        <ele>472</ele>
        <time>2016-01-31T09:54:44.000Z</time>
      </trkpt>
      <trkpt lat="47.42834" lon="6.81134">
        <ele>472</ele>
        <time>2016-01-31T09:54:45.000Z</time>
      </trkpt>
      <trkpt lat="47.42837" lon="6.8114">
        <ele>472</ele>
        <time>2016-01-31T09:54:46.000Z</time>
      </trkpt>
      <trkpt lat="47.42839" lon="6.81146">
        <ele>472</ele>
        <time>2016-01-31T09:54:47.000Z</time>
      </trkpt>
      <trkpt lat="47.42842" lon="6.81151">
        <ele>471</ele>
        <time>2016-01-31T09:54:48.000Z</time>
      </trkpt>
      <trkpt lat="47.42845" lon="6.81156">
        <ele>471</ele>
        <time>2016-01-31T09:54:49.000Z</time>
      </trkpt>
      <trkpt lat="47.42848" lon="6.8116">
        <ele>471</ele>
        <time>2016-01-31T09:54:50.000Z</time>
      </trkpt>
      <trkpt lat="47.42851" lon="6.81164">
        <ele>471</ele>
        <time>2016-01-31T09:54:51.000Z</time>
      </trkpt>
      <trkpt lat="47.42855" lon="6.8117">
        <ele>470</ele>
        <time>2016-01-31T09:54:52.000Z</time>
      </trkpt>
      <trkpt lat="47.42858" lon="6.81177">
        <ele>469</ele>
        <time>2016-01-31T09:54:53.000Z</time>
      </trkpt>
      <trkpt lat="47.4286" lon="6.81184">
        <ele>469</ele>
        <time>2016-01-31T09:54:54.000Z</time>
      </trkpt>
      <trkpt lat="47.42863" lon="6.81192">
        <ele>469</ele>
        <time>2016-01-31T09:54:55.000Z</time>
      </trkpt>
      <trkpt lat="47.42865" lon="6.81199">
        <ele>468</ele>
        <time>2016-01-31T09:54:56.000Z</time>
      </trkpt>
      <trkpt lat="47.42868" lon="6.81207">
        <ele>468</ele>
        <time>2016-01-31T09:54:57.000Z</time>
      </trkpt>
      <trkpt lat="47.4287" lon="6.81214">
        <ele>468</ele>
        <time>2016-01-31T09:54:58.000Z</time>
      </trkpt>
      <trkpt lat="47.42872" lon="6.81221">
        <ele>468</ele>
        <time>2016-01-31T09:54:59.000Z</time>
      </trkpt>
      <trkpt lat="47.42874" lon="6.81227">
        <ele>467</ele>
        <time>2016-01-31T09:55:00.000Z</time>
      </trkpt>
      <trkpt lat="47.42876" lon="6.81233">
        <ele>467</ele>
        <time>2016-01-31T09:55:01.000Z</time>
      </trkpt>
      <trkpt lat="47.42878" lon="6.8124">
        <ele>467</ele>
        <time>2016-01-31T09:55:02.000Z</time>
      </trkpt>
      <trkpt lat="47.4288" lon="6.81247">
        <ele>467</ele>
        <time>2016-01-31T09:55:03.000Z</time>
      </trkpt>
      <trkpt lat="47.42882" lon="6.81252">
        <ele>463</ele>
        <time>2016-01-31T09:55:04.000Z</time>
      </trkpt>
      <trkpt lat="47.42884" lon="6.81257">
        <ele>463</ele>
        <time>2016-01-31T09:55:05.000Z</time>
      </trkpt>
      <trkpt lat="47.42885" lon="6.81261">
        <ele>463</ele>
        <time>2016-01-31T09:55:06.000Z</time>
      </trkpt>
      <trkpt lat="47.42887" lon="6.81264">
        <ele>463</ele>
        <time>2016-01-31T09:55:07.000Z</time>
      </trkpt>
      <trkpt lat="47.42889" lon="6.81268">
        <ele>463</ele>
        <time>2016-01-31T09:55:08.000Z</time>
      </trkpt>
      <trkpt lat="47.42891" lon="6.81272">
        <ele>463</ele>
        <time>2016-01-31T09:55:09.000Z</time>
      </trkpt>
      <trkpt lat="47.42893" lon="6.81275">
        <ele>463</ele>
        <time>2016-01-31T09:55:10.000Z</time>
      </trkpt>
      <trkpt lat="47.42895" lon="6.81278">
        <ele>463</ele>
        <time>2016-01-31T09:55:11.000Z</time>
      </trkpt>
      <trkpt lat="47.42898" lon="6.8128">
        <ele>463</ele>
        <time>2016-01-31T09:55:12.000Z</time>
      </trkpt>
      <trkpt lat="47.429" lon="6.81283">
        <ele>462</ele>
        <time>2016-01-31T09:55:13.000Z</time>
      </trkpt>
      <trkpt lat="47.42902" lon="6.81286">
        <ele>462</ele>
        <time>2016-01-31T09:55:14.000Z</time>
      </trkpt>
      <trkpt lat="47.42904" lon="6.81289">
        <ele>462</ele>
        <time>2016-01-31T09:55:15.000Z</time>
      </trkpt>
      <trkpt lat="47.42906" lon="6.81292">
        <ele>462</ele>
        <time>2016-01-31T09:55:16.000Z</time>
      </trkpt>
      <trkpt lat="47.42909" lon="6.81294">
        <ele>462</ele>
        <time>2016-01-31T09:55:17.000Z</time>
      </trkpt>
      <trkpt lat="47.42911" lon="6.81296">
        <ele>462</ele>
        <time>2016-01-31T09:55:18.000Z</time>
      </trkpt>
      <trkpt lat="47.42913" lon="6.81297">
        <ele>462</ele>
        <time>2016-01-31T09:55:19.000Z</time>
      </trkpt>
      <trkpt lat="47.42915" lon="6.81299">
        <ele>462</ele>
        <time>2016-01-31T09:55:20.000Z</time>
      </trkpt>
      <trkpt lat="47.42917" lon="6.81302">
        <ele>465</ele>
        <time>2016-01-31T09:55:21.000Z</time>
      </trkpt>
      <trkpt lat="47.4292" lon="6.81306">
        <ele>465</ele>
        <time>2016-01-31T09:55:23.000Z</time>
      </trkpt>
      <trkpt lat="47.42921" lon="6.81308">
        <ele>464</ele>
        <time>2016-01-31T09:55:24.000Z</time>
      </trkpt>
      <trkpt lat="47.42924" lon="6.81312">
        <ele>464</ele>
        <time>2016-01-31T09:55:26.000Z</time>
      </trkpt>
      <trkpt lat="47.42926" lon="6.81313">
        <ele>464</ele>
        <time>2016-01-31T09:55:27.000Z</time>
      </trkpt>
      <trkpt lat="47.42928" lon="6.81317">
        <ele>464</ele>
        <time>2016-01-31T09:55:29.000Z</time>
      </trkpt>
      <trkpt lat="47.4293" lon="6.81319">
        <ele>464</ele>
        <time>2016-01-31T09:55:30.000Z</time>
      </trkpt>
      <trkpt lat="47.42933" lon="6.81322">
        <ele>464</ele>
        <time>2016-01-31T09:55:32.000Z</time>
      </trkpt>
      <trkpt lat="47.42934" lon="6.81324">
        <ele>464</ele>
        <time>2016-01-31T09:55:33.000Z</time>
      </trkpt>
      <trkpt lat="47.42936" lon="6.81327">
        <ele>464</ele>
        <time>2016-01-31T09:55:35.000Z</time>
      </trkpt>
      <trkpt lat="47.42937" lon="6.81329">
        <ele>464</ele>
        <time>2016-01-31T09:55:36.000Z</time>
      </trkpt>
      <trkpt lat="47.4294" lon="6.81333">
        <ele>464</ele>
        <time>2016-01-31T09:55:38.000Z</time>
      </trkpt>
      <trkpt lat="47.42942" lon="6.81335">
        <ele>462</ele>
        <time>2016-01-31T09:55:39.000Z</time>
      </trkpt>
      <trkpt lat="47.42944" lon="6.81339">
        <ele>462</ele>
        <time>2016-01-31T09:55:41.000Z</time>
      </trkpt>
      <trkpt lat="47.42946" lon="6.81341">
        <ele>462</ele>
        <time>2016-01-31T09:55:42.000Z</time>
      </trkpt>
      <trkpt lat="47.42949" lon="6.81345">
        <ele>462</ele>
        <time>2016-01-31T09:55:44.000Z</time>
      </trkpt>
      <trkpt lat="47.42951" lon="6.81347">
        <ele>462</ele>
        <time>2016-01-31T09:55:45.000Z</time>
      </trkpt>
      <trkpt lat="47.42953" lon="6.8135">
        <ele>462</ele>
        <time>2016-01-31T09:55:46.000Z</time>
      </trkpt>
      <trkpt lat="47.42955" lon="6.81354">
        <ele>462</ele>
        <time>2016-01-31T09:55:47.000Z</time>
      </trkpt>
      <trkpt lat="47.42956" lon="6.81357">
        <ele>462</ele>
        <time>2016-01-31T09:55:48.000Z</time>
      </trkpt>
      <trkpt lat="47.42958" lon="6.81361">
        <ele>462</ele>
        <time>2016-01-31T09:55:49.000Z</time>
      </trkpt>
      <trkpt lat="47.4296" lon="6.81363">
        <ele>462</ele>
        <time>2016-01-31T09:55:50.000Z</time>
      </trkpt>
      <trkpt lat="47.42961" lon="6.81366">
        <ele>462</ele>
        <time>2016-01-31T09:55:51.000Z</time>
      </trkpt>
      <trkpt lat="47.42963" lon="6.81372">
        <ele>462</ele>
        <time>2016-01-31T09:55:53.000Z</time>
      </trkpt>
      <trkpt lat="47.42964" lon="6.81375">
        <ele>462</ele>
        <time>2016-01-31T09:55:54.000Z</time>
      </trkpt>
      <trkpt lat="47.42966" lon="6.81379">
        <ele>462</ele>
        <time>2016-01-31T09:55:55.000Z</time>
      </trkpt>
      <trkpt lat="47.42968" lon="6.81383">
        <ele>462</ele>
        <time>2016-01-31T09:55:56.000Z</time>
      </trkpt>
      <trkpt lat="47.4297" lon="6.81387">
        <ele>462</ele>
        <time>2016-01-31T09:55:57.000Z</time>
      </trkpt>
      <trkpt lat="47.42973" lon="6.8139">
        <ele>462</ele>
        <time>2016-01-31T09:55:58.000Z</time>
      </trkpt>
      <trkpt lat="47.42975" lon="6.81394">
        <ele>462</ele>
        <time>2016-01-31T09:55:59.000Z</time>
      </trkpt>
      <trkpt lat="47.42977" lon="6.81397">
        <ele>462</ele>
        <time>2016-01-31T09:56:00.000Z</time>
      </trkpt>
      <trkpt lat="47.4298" lon="6.81399">
        <ele>462</ele>
        <time>2016-01-31T09:56:01.000Z</time>
      </trkpt>
      <trkpt lat="47.42983" lon="6.81402">
        <ele>462</ele>
        <time>2016-01-31T09:56:02.000Z</time>
      </trkpt>
      <trkpt lat="47.42986" lon="6.81405">
        <ele>463</ele>
        <time>2016-01-31T09:56:03.000Z</time>
      </trkpt>
      <trkpt lat="47.42989" lon="6.81408">
        <ele>463</ele>
        <time>2016-01-31T09:56:04.000Z</time>
      </trkpt>
      <trkpt lat="47.42992" lon="6.8141">
        <ele>463</ele>
        <time>2016-01-31T09:56:05.000Z</time>
      </trkpt>
      <trkpt lat="47.42994" lon="6.81412">
        <ele>463</ele>
        <time>2016-01-31T09:56:06.000Z</time>
      </trkpt>
      <trkpt lat="47.42997" lon="6.81414">
        <ele>464</ele>
        <time>2016-01-31T09:56:07.000Z</time>
      </trkpt>
      <trkpt lat="47.42999" lon="6.81417">
        <ele>464</ele>
        <time>2016-01-31T09:56:08.000Z</time>
      </trkpt>
      <trkpt lat="47.43001" lon="6.8142">
        <ele>463</ele>
        <time>2016-01-31T09:56:09.000Z</time>
      </trkpt>
      <trkpt lat="47.43003" lon="6.81423">
        <ele>463</ele>
        <time>2016-01-31T09:56:10.000Z</time>
      </trkpt>
      <trkpt lat="47.43004" lon="6.81425">
        <ele>462</ele>
        <time>2016-01-31T09:56:11.000Z</time>
      </trkpt>
      <trkpt lat="47.43006" lon="6.81428">
        <ele>462</ele>
        <time>2016-01-31T09:56:12.000Z</time>
      </trkpt>
      <trkpt lat="47.43009" lon="6.8143">
        <ele>461</ele>
        <time>2016-01-31T09:56:13.000Z</time>
      </trkpt>
      <trkpt lat="47.43011" lon="6.81432">
        <ele>461</ele>
        <time>2016-01-31T09:56:14.000Z</time>
      </trkpt>
      <trkpt lat="47.43014" lon="6.81434">
        <ele>461</ele>
        <time>2016-01-31T09:56:15.000Z</time>
      </trkpt>
      <trkpt lat="47.43017" lon="6.81435">
        <ele>460</ele>
        <time>2016-01-31T09:56:16.000Z</time>
      </trkpt>
      <trkpt lat="47.43021" lon="6.81439">
        <ele>460</ele>
        <time>2016-01-31T09:56:17.000Z</time>
      </trkpt>
      <trkpt lat="47.43033" lon="6.81456">
        <ele>459</ele>
        <time>2016-01-31T09:56:18.000Z</time>
      </trkpt>
      <trkpt lat="47.43036" lon="6.81461">
        <ele>459</ele>
        <time>2016-01-31T09:56:19.000Z</time>
      </trkpt>
      <trkpt lat="47.43039" lon="6.81465">
        <ele>458</ele>
        <time>2016-01-31T09:56:20.000Z</time>
      </trkpt>
      <trkpt lat="47.43042" lon="6.81469">
        <ele>458</ele>
        <time>2016-01-31T09:56:21.000Z</time>
      </trkpt>
      <trkpt lat="47.43045" lon="6.81479">
        <ele>458</ele>
        <time>2016-01-31T09:56:22.000Z</time>
      </trkpt>
      <trkpt lat="47.43048" lon="6.81491">
        <ele>457</ele>
        <time>2016-01-31T09:56:23.000Z</time>
      </trkpt>
      <trkpt lat="47.43049" lon="6.81499">
        <ele>457</ele>
        <time>2016-01-31T09:56:24.000Z</time>
      </trkpt>
      <trkpt lat="47.4305" lon="6.81506">
        <ele>452</ele>
        <time>2016-01-31T09:56:25.000Z</time>
      </trkpt>
      <trkpt lat="47.4305" lon="6.81512">
        <ele>452</ele>
        <time>2016-01-31T09:56:26.000Z</time>
      </trkpt>
      <trkpt lat="47.43044" lon="6.81508">
        <ele>452</ele>
        <time>2016-01-31T09:56:27.000Z</time>
      </trkpt>
      <trkpt lat="47.43044" lon="6.81514">
        <ele>451</ele>
        <time>2016-01-31T09:56:30.000Z</time>
      </trkpt>
      <trkpt lat="47.43043" lon="6.81516">
        <ele>451</ele>
        <time>2016-01-31T09:56:31.000Z</time>
      </trkpt>
      <trkpt lat="47.43041" lon="6.8152">
        <ele>451</ele>
        <time>2016-01-31T09:56:34.000Z</time>
      </trkpt>
      <trkpt lat="47.4304" lon="6.81521">
        <ele>451</ele>
        <time>2016-01-31T09:56:35.000Z</time>
      </trkpt>
      <trkpt lat="47.43036" lon="6.81523">
        <ele>451</ele>
        <time>2016-01-31T09:56:39.000Z</time>
      </trkpt>
      <trkpt lat="47.43035" lon="6.81524">
        <ele>451</ele>
        <time>2016-01-31T09:56:40.000Z</time>
      </trkpt>
      <trkpt lat="47.43036" lon="6.81527">
        <ele>451</ele>
        <time>2016-01-31T09:56:42.000Z</time>
      </trkpt>
      <trkpt lat="47.43038" lon="6.8153">
        <ele>451</ele>
        <time>2016-01-31T09:56:43.000Z</time>
      </trkpt>
      <trkpt lat="47.4304" lon="6.81536">
        <ele>450</ele>
        <time>2016-01-31T09:56:49.000Z</time>
      </trkpt>
      <trkpt lat="47.4304" lon="6.81536">
        <ele>450</ele>
        <time>2016-01-31T09:56:50.000Z</time>
      </trkpt>
      <trkpt lat="47.43042" lon="6.81541">
        <ele>450</ele>
        <time>2016-01-31T09:58:02.000Z</time>
      </trkpt>
      <trkpt lat="47.43044" lon="6.81541">
        <ele>450</ele>
        <time>2016-01-31T09:58:03.000Z</time>
      </trkpt>
      <trkpt lat="47.4304" lon="6.81542">
        <ele>450</ele>
        <time>2016-01-31T09:58:07.000Z</time>
      </trkpt>
      <trkpt lat="47.43038" lon="6.81542">
        <ele>450</ele>
        <time>2016-01-31T09:58:08.000Z</time>
      </trkpt>
      <trkpt lat="47.43042" lon="6.81544">
        <ele>450</ele>
        <time>2016-01-31T09:58:15.000Z</time>
      </trkpt>
      <trkpt lat="47.43043" lon="6.81544">
        <ele>450</ele>
        <time>2016-01-31T09:58:16.000Z</time>
      </trkpt>
      <trkpt lat="47.43046" lon="6.81547">
        <ele>449</ele>
        <time>2016-01-31T09:58:59.000Z</time>
      </trkpt>
      <trkpt lat="47.43049" lon="6.81549">
        <ele>449</ele>
        <time>2016-01-31T09:59:01.000Z</time>
      </trkpt>
      <trkpt lat="47.43053" lon="6.81551">
        <ele>449</ele>
        <time>2016-01-31T09:59:03.000Z</time>
      </trkpt>
      <trkpt lat="47.43056" lon="6.81552">
        <ele>449</ele>
        <time>2016-01-31T09:59:04.000Z</time>
      </trkpt>
      <trkpt lat="47.43059" lon="6.81553">
        <ele>449</ele>
        <time>2016-01-31T09:59:05.000Z</time>
      </trkpt>
      <trkpt lat="47.43062" lon="6.81553">
        <ele>449</ele>
        <time>2016-01-31T09:59:06.000Z</time>
      </trkpt>
      <trkpt lat="47.43065" lon="6.81554">
        <ele>449</ele>
        <time>2016-01-31T09:59:07.000Z</time>
      </trkpt>
      <trkpt lat="47.43068" lon="6.81555">
        <ele>448</ele>
        <time>2016-01-31T09:59:08.000Z</time>
      </trkpt>
      <trkpt lat="47.43071" lon="6.81556">
        <ele>448</ele>
        <time>2016-01-31T09:59:09.000Z</time>
      </trkpt>
      <trkpt lat="47.43075" lon="6.81557">
        <ele>448</ele>
        <time>2016-01-31T09:59:10.000Z</time>
      </trkpt>
      <trkpt lat="47.43079" lon="6.81558">
        <ele>448</ele>
        <time>2016-01-31T09:59:11.000Z</time>
      </trkpt>
      <trkpt lat="47.43084" lon="6.81561">
        <ele>446</ele>
        <time>2016-01-31T09:59:12.000Z</time>
      </trkpt>
      <trkpt lat="47.43089" lon="6.81563">
        <ele>446</ele>
        <time>2016-01-31T09:59:13.000Z</time>
      </trkpt>
      <trkpt lat="47.43094" lon="6.81564">
        <ele>446</ele>
        <time>2016-01-31T09:59:14.000Z</time>
      </trkpt>
      <trkpt lat="47.431" lon="6.81564">
        <ele>446</ele>
        <time>2016-01-31T09:59:15.000Z</time>
      </trkpt>
      <trkpt lat="47.43104" lon="6.81564">
        <ele>446</ele>
        <time>2016-01-31T09:59:16.000Z</time>
      </trkpt>
      <trkpt lat="47.43108" lon="6.81566">
        <ele>446</ele>
        <time>2016-01-31T09:59:18.000Z</time>
      </trkpt>
      <trkpt lat="47.43109" lon="6.81566">
        <ele>446</ele>
        <time>2016-01-31T09:59:19.000Z</time>
      </trkpt>
      <trkpt lat="47.43113" lon="6.81568">
        <ele>446</ele>
        <time>2016-01-31T09:59:22.000Z</time>
      </trkpt>
      <trkpt lat="47.43115" lon="6.81569">
        <ele>446</ele>
        <time>2016-01-31T09:59:23.000Z</time>
      </trkpt>
      <trkpt lat="47.43118" lon="6.8157">
        <ele>446</ele>
        <time>2016-01-31T09:59:24.000Z</time>
      </trkpt>
      <trkpt lat="47.43121" lon="6.81571">
        <ele>446</ele>
        <time>2016-01-31T09:59:25.000Z</time>
      </trkpt>
      <trkpt lat="47.43123" lon="6.81572">
        <ele>445</ele>
        <time>2016-01-31T09:59:26.000Z</time>
      </trkpt>
      <trkpt lat="47.43126" lon="6.81572">
        <ele>445</ele>
        <time>2016-01-31T09:59:27.000Z</time>
      </trkpt>
      <trkpt lat="47.43129" lon="6.81573">
        <ele>445</ele>
        <time>2016-01-31T09:59:28.000Z</time>
      </trkpt>
      <trkpt lat="47.43132" lon="6.81574">
        <ele>445</ele>
        <time>2016-01-31T09:59:29.000Z</time>
      </trkpt>
      <trkpt lat="47.43136" lon="6.81575">
        <ele>445</ele>
        <time>2016-01-31T09:59:30.000Z</time>
      </trkpt>
      <trkpt lat="47.43141" lon="6.81576">
        <ele>445</ele>
        <time>2016-01-31T09:59:31.000Z</time>
      </trkpt>
      <trkpt lat="47.43159" lon="6.81582">
        <ele>442</ele>
        <time>2016-01-31T09:59:32.000Z</time>
      </trkpt>
      <trkpt lat="47.43166" lon="6.81584">
        <ele>441</ele>
        <time>2016-01-31T09:59:33.000Z</time>
      </trkpt>
      <trkpt lat="47.43173" lon="6.81584">
        <ele>440</ele>
        <time>2016-01-31T09:59:34.000Z</time>
      </trkpt>
      <trkpt lat="47.43177" lon="6.81584">
        <ele>439</ele>
        <time>2016-01-31T09:59:35.000Z</time>
      </trkpt>
      <trkpt lat="47.43183" lon="6.81588">
        <ele>438</ele>
        <time>2016-01-31T09:59:36.000Z</time>
      </trkpt>
      <trkpt lat="47.43188" lon="6.8159">
        <ele>438</ele>
        <time>2016-01-31T09:59:37.000Z</time>
      </trkpt>
      <trkpt lat="47.43192" lon="6.81591">
        <ele>438</ele>
        <time>2016-01-31T09:59:38.000Z</time>
      </trkpt>
      <trkpt lat="47.43197" lon="6.81592">
        <ele>438</ele>
        <time>2016-01-31T09:59:39.000Z</time>
      </trkpt>
      <trkpt lat="47.43203" lon="6.81591">
        <ele>437</ele>
        <time>2016-01-31T09:59:40.000Z</time>
      </trkpt>
      <trkpt lat="47.43212" lon="6.81597">
        <ele>437</ele>
        <time>2016-01-31T09:59:41.000Z</time>
      </trkpt>
      <trkpt lat="47.43217" lon="6.81598">
        <ele>438</ele>
        <time>2016-01-31T09:59:42.000Z</time>
      </trkpt>
      <trkpt lat="47.43223" lon="6.81601">
        <ele>438</ele>
        <time>2016-01-31T09:59:43.000Z</time>
      </trkpt>
      <trkpt lat="47.43231" lon="6.81612">
        <ele>437</ele>
        <time>2016-01-31T09:59:44.000Z</time>
      </trkpt>
      <trkpt lat="47.43238" lon="6.81617">
        <ele>437</ele>
        <time>2016-01-31T09:59:45.000Z</time>
      </trkpt>
      <trkpt lat="47.43245" lon="6.81623">
        <ele>436</ele>
        <time>2016-01-31T09:59:46.000Z</time>
      </trkpt>
      <trkpt lat="47.43251" lon="6.81628">
        <ele>437</ele>
        <time>2016-01-31T09:59:47.000Z</time>
      </trkpt>
      <trkpt lat="47.43257" lon="6.81632">
        <ele>436</ele>
        <time>2016-01-31T09:59:48.000Z</time>
      </trkpt>
      <trkpt lat="47.43262" lon="6.81638">
        <ele>436</ele>
        <time>2016-01-31T09:59:49.000Z</time>
      </trkpt>
      <trkpt lat="47.43266" lon="6.81644">
        <ele>435</ele>
        <time>2016-01-31T09:59:50.000Z</time>
      </trkpt>
      <trkpt lat="47.43267" lon="6.8165">
        <ele>435</ele>
        <time>2016-01-31T09:59:51.000Z</time>
      </trkpt>
      <trkpt lat="47.4327" lon="6.81654">
        <ele>435</ele>
        <time>2016-01-31T09:59:52.000Z</time>
      </trkpt>
      <trkpt lat="47.43271" lon="6.81659">
        <ele>434</ele>
        <time>2016-01-31T09:59:54.000Z</time>
      </trkpt>
      <trkpt lat="47.43271" lon="6.81662">
        <ele>434</ele>
        <time>2016-01-31T09:59:55.000Z</time>
      </trkpt>
      <trkpt lat="47.43273" lon="6.81666">
        <ele>434</ele>
        <time>2016-01-31T09:59:58.000Z</time>
      </trkpt>
      <trkpt lat="47.4327" lon="6.8167">
        <ele>427</ele>
        <time>2016-01-31T09:59:59.000Z</time>
      </trkpt>
      <trkpt lat="47.43268" lon="6.81674">
        <ele>427</ele>
        <time>2016-01-31T10:00:01.000Z</time>
      </trkpt>
      <trkpt lat="47.43268" lon="6.81676">
        <ele>427</ele>
        <time>2016-01-31T10:00:02.000Z</time>
      </trkpt>
      <trkpt lat="47.43269" lon="6.8168">
        <ele>426</ele>
        <time>2016-01-31T10:00:04.000Z</time>
      </trkpt>
      <trkpt lat="47.43271" lon="6.81682">
        <ele>426</ele>
        <time>2016-01-31T10:00:05.000Z</time>
      </trkpt>
      <trkpt lat="47.43274" lon="6.81683">
        <ele>425</ele>
        <time>2016-01-31T10:00:06.000Z</time>
      </trkpt>
      <trkpt lat="47.43278" lon="6.81684">
        <ele>425</ele>
        <time>2016-01-31T10:00:07.000Z</time>
      </trkpt>
      <trkpt lat="47.43281" lon="6.81683">
        <ele>425</ele>
        <time>2016-01-31T10:00:08.000Z</time>
      </trkpt>
      <trkpt lat="47.43284" lon="6.81683">
        <ele>425</ele>
        <time>2016-01-31T10:00:09.000Z</time>
      </trkpt>
      <trkpt lat="47.43288" lon="6.81684">
        <ele>425</ele>
        <time>2016-01-31T10:00:10.000Z</time>
      </trkpt>
      <trkpt lat="47.4329" lon="6.81685">
        <ele>425</ele>
        <time>2016-01-31T10:00:11.000Z</time>
      </trkpt>
      <trkpt lat="47.43293" lon="6.81687">
        <ele>425</ele>
        <time>2016-01-31T10:00:12.000Z</time>
      </trkpt>
      <trkpt lat="47.43295" lon="6.81688">
        <ele>425</ele>
        <time>2016-01-31T10:00:13.000Z</time>
      </trkpt>
      <trkpt lat="47.43298" lon="6.81688">
        <ele>425</ele>
        <time>2016-01-31T10:00:14.000Z</time>
      </trkpt>
      <trkpt lat="47.433" lon="6.8169">
        <ele>425</ele>
        <time>2016-01-31T10:00:15.000Z</time>
      </trkpt>
      <trkpt lat="47.43303" lon="6.81693">
        <ele>425</ele>
        <time>2016-01-31T10:00:16.000Z</time>
      </trkpt>
      <trkpt lat="47.43306" lon="6.81695">
        <ele>425</ele>
        <time>2016-01-31T10:00:17.000Z</time>
      </trkpt>
      <trkpt lat="47.43308" lon="6.81698">
        <ele>425</ele>
        <time>2016-01-31T10:00:18.000Z</time>
      </trkpt>
      <trkpt lat="47.4331" lon="6.81701">
        <ele>424</ele>
        <time>2016-01-31T10:00:19.000Z</time>
      </trkpt>
      <trkpt lat="47.43314" lon="6.81705">
        <ele>424</ele>
        <time>2016-01-31T10:00:21.000Z</time>
      </trkpt>
      <trkpt lat="47.43316" lon="6.81706">
        <ele>424</ele>
        <time>2016-01-31T10:00:22.000Z</time>
      </trkpt>
      <trkpt lat="47.43318" lon="6.81708">
        <ele>424</ele>
        <time>2016-01-31T10:00:23.000Z</time>
      </trkpt>
      <trkpt lat="47.43321" lon="6.8171">
        <ele>424</ele>
        <time>2016-01-31T10:00:24.000Z</time>
      </trkpt>
      <trkpt lat="47.43323" lon="6.81712">
        <ele>423</ele>
        <time>2016-01-31T10:00:25.000Z</time>
      </trkpt>
      <trkpt lat="47.43326" lon="6.81713">
        <ele>423</ele>
        <time>2016-01-31T10:00:26.000Z</time>
      </trkpt>
      <trkpt lat="47.43329" lon="6.81714">
        <ele>423</ele>
        <time>2016-01-31T10:00:27.000Z</time>
      </trkpt>
      <trkpt lat="47.43333" lon="6.81714">
        <ele>423</ele>
        <time>2016-01-31T10:00:28.000Z</time>
      </trkpt>
      <trkpt lat="47.43337" lon="6.81713">
        <ele>422</ele>
        <time>2016-01-31T10:00:29.000Z</time>
      </trkpt>
      <trkpt lat="47.43341" lon="6.81713">
        <ele>421</ele>
        <time>2016-01-31T10:00:30.000Z</time>
      </trkpt>
      <trkpt lat="47.43345" lon="6.81715">
        <ele>421</ele>
        <time>2016-01-31T10:00:31.000Z</time>
      </trkpt>
      <trkpt lat="47.43348" lon="6.81717">
        <ele>421</ele>
        <time>2016-01-31T10:00:32.000Z</time>
      </trkpt>
      <trkpt lat="47.4335" lon="6.8172">
        <ele>420</ele>
        <time>2016-01-31T10:00:33.000Z</time>
      </trkpt>
      <trkpt lat="47.43352" lon="6.81721">
        <ele>420</ele>
        <time>2016-01-31T10:00:34.000Z</time>
      </trkpt>
      <trkpt lat="47.43355" lon="6.81725">
        <ele>420</ele>
        <time>2016-01-31T10:00:40.000Z</time>
      </trkpt>
      <trkpt lat="47.43355" lon="6.81725">
        <ele>420</ele>
        <time>2016-01-31T10:00:41.000Z</time>
      </trkpt>
      <trkpt lat="47.43358" lon="6.81728">
        <ele>420</ele>
        <time>2016-01-31T10:01:04.000Z</time>
      </trkpt>
      <trkpt lat="47.43359" lon="6.81729">
        <ele>419</ele>
        <time>2016-01-31T10:01:05.000Z</time>
      </trkpt>
      <trkpt lat="47.43361" lon="6.81731">
        <ele>419</ele>
        <time>2016-01-31T10:01:06.000Z</time>
      </trkpt>
      <trkpt lat="47.43363" lon="6.81733">
        <ele>419</ele>
        <time>2016-01-31T10:01:07.000Z</time>
      </trkpt>
      <trkpt lat="47.43366" lon="6.81736">
        <ele>419</ele>
        <time>2016-01-31T10:01:08.000Z</time>
      </trkpt>
      <trkpt lat="47.43369" lon="6.81739">
        <ele>418</ele>
        <time>2016-01-31T10:01:09.000Z</time>
      </trkpt>
      <trkpt lat="47.43373" lon="6.81743">
        <ele>418</ele>
        <time>2016-01-31T10:01:10.000Z</time>
      </trkpt>
      <trkpt lat="47.43377" lon="6.81747">
        <ele>417</ele>
        <time>2016-01-31T10:01:11.000Z</time>
      </trkpt>
      <trkpt lat="47.4338" lon="6.8175">
        <ele>417</ele>
        <time>2016-01-31T10:01:12.000Z</time>
      </trkpt>
      <trkpt lat="47.43383" lon="6.81752">
        <ele>407</ele>
        <time>2016-01-31T10:01:13.000Z</time>
      </trkpt>
      <trkpt lat="47.43386" lon="6.81754">
        <ele>407</ele>
        <time>2016-01-31T10:01:14.000Z</time>
      </trkpt>
      <trkpt lat="47.43389" lon="6.81754">
        <ele>407</ele>
        <time>2016-01-31T10:01:15.000Z</time>
      </trkpt>
      <trkpt lat="47.43391" lon="6.81754">
        <ele>407</ele>
        <time>2016-01-31T10:01:16.000Z</time>
      </trkpt>
      <trkpt lat="47.43394" lon="6.81753">
        <ele>407</ele>
        <time>2016-01-31T10:01:17.000Z</time>
      </trkpt>
      <trkpt lat="47.43396" lon="6.81753">
        <ele>407</ele>
        <time>2016-01-31T10:01:18.000Z</time>
      </trkpt>
      <trkpt lat="47.43399" lon="6.81752">
        <ele>407</ele>
        <time>2016-01-31T10:01:19.000Z</time>
      </trkpt>
      <trkpt lat="47.43402" lon="6.81753">
        <ele>407</ele>
        <time>2016-01-31T10:01:20.000Z</time>
      </trkpt>
      <trkpt lat="47.43405" lon="6.81753">
        <ele>407</ele>
        <time>2016-01-31T10:01:21.000Z</time>
      </trkpt>
      <trkpt lat="47.43408" lon="6.81753">
        <ele>408</ele>
        <time>2016-01-31T10:01:22.000Z</time>
      </trkpt>
      <trkpt lat="47.4341" lon="6.81753">
        <ele>408</ele>
        <time>2016-01-31T10:01:23.000Z</time>
      </trkpt>
      <trkpt lat="47.43413" lon="6.81753">
        <ele>408</ele>
        <time>2016-01-31T10:01:24.000Z</time>
      </trkpt>
      <trkpt lat="47.43415" lon="6.81753">
        <ele>408</ele>
        <time>2016-01-31T10:01:25.000Z</time>
      </trkpt>
      <trkpt lat="47.43418" lon="6.81753">
        <ele>407</ele>
        <time>2016-01-31T10:01:26.000Z</time>
      </trkpt>
      <trkpt lat="47.43426" lon="6.81756">
        <ele>404</ele>
        <time>2016-01-31T10:01:27.000Z</time>
      </trkpt>
      <trkpt lat="47.4343" lon="6.81758">
        <ele>403</ele>
        <time>2016-01-31T10:01:28.000Z</time>
      </trkpt>
      <trkpt lat="47.43434" lon="6.8176">
        <ele>402</ele>
        <time>2016-01-31T10:01:29.000Z</time>
      </trkpt>
      <trkpt lat="47.43438" lon="6.81759">
        <ele>401</ele>
        <time>2016-01-31T10:01:31.000Z</time>
      </trkpt>
      <trkpt lat="47.43441" lon="6.81761">
        <ele>401</ele>
        <time>2016-01-31T10:01:32.000Z</time>
      </trkpt>
      <trkpt lat="47.43444" lon="6.81762">
        <ele>400</ele>
        <time>2016-01-31T10:01:33.000Z</time>
      </trkpt>
      <trkpt lat="47.43447" lon="6.81763">
        <ele>400</ele>
        <time>2016-01-31T10:01:34.000Z</time>
      </trkpt>
      <trkpt lat="47.43453" lon="6.81768">
        <ele>399</ele>
        <time>2016-01-31T10:01:35.000Z</time>
      </trkpt>
      <trkpt lat="47.43458" lon="6.81768">
        <ele>398</ele>
        <time>2016-01-31T10:01:36.000Z</time>
      </trkpt>
      <trkpt lat="47.43464" lon="6.81768">
        <ele>398</ele>
        <time>2016-01-31T10:01:37.000Z</time>
      </trkpt>
      <trkpt lat="47.4347" lon="6.81769">
        <ele>397</ele>
        <time>2016-01-31T10:01:38.000Z</time>
      </trkpt>
      <trkpt lat="47.43476" lon="6.81768">
        <ele>397</ele>
        <time>2016-01-31T10:01:39.000Z</time>
      </trkpt>
      <trkpt lat="47.43482" lon="6.81768">
        <ele>397</ele>
        <time>2016-01-31T10:01:40.000Z</time>
      </trkpt>
      <trkpt lat="47.43486" lon="6.81768">
        <ele>397</ele>
        <time>2016-01-31T10:01:41.000Z</time>
      </trkpt>
      <trkpt lat="47.43491" lon="6.81767">
        <ele>397</ele>
        <time>2016-01-31T10:01:42.000Z</time>
      </trkpt>
      <trkpt lat="47.43495" lon="6.81765">
        <ele>397</ele>
        <time>2016-01-31T10:01:43.000Z</time>
      </trkpt>
      <trkpt lat="47.43498" lon="6.81761">
        <ele>397</ele>
        <time>2016-01-31T10:01:44.000Z</time>
      </trkpt>
      <trkpt lat="47.43501" lon="6.81759">
        <ele>394</ele>
        <time>2016-01-31T10:01:45.000Z</time>
      </trkpt>
      <trkpt lat="47.43505" lon="6.81761">
        <ele>393</ele>
        <time>2016-01-31T10:01:51.000Z</time>
      </trkpt>
      <trkpt lat="47.43506" lon="6.8176">
        <ele>393</ele>
        <time>2016-01-31T10:01:52.000Z</time>
      </trkpt>
      <trkpt lat="47.4351" lon="6.81762">
        <ele>392</ele>
        <time>2016-01-31T10:02:15.000Z</time>
      </trkpt>
      <trkpt lat="47.43511" lon="6.81762">
        <ele>392</ele>
        <time>2016-01-31T10:02:16.000Z</time>
      </trkpt>
      <trkpt lat="47.43513" lon="6.81761">
        <ele>392</ele>
        <time>2016-01-31T10:02:18.000Z</time>
      </trkpt>
      <trkpt lat="47.43516" lon="6.81761">
        <ele>392</ele>
        <time>2016-01-31T10:02:19.000Z</time>
      </trkpt>
      <trkpt lat="47.43519" lon="6.8176">
        <ele>391</ele>
        <time>2016-01-31T10:02:20.000Z</time>
      </trkpt>
      <trkpt lat="47.43522" lon="6.81759">
        <ele>391</ele>
        <time>2016-01-31T10:02:21.000Z</time>
      </trkpt>
      <trkpt lat="47.43526" lon="6.81759">
        <ele>390</ele>
        <time>2016-01-31T10:02:22.000Z</time>
      </trkpt>
      <trkpt lat="47.4353" lon="6.81759">
        <ele>390</ele>
        <time>2016-01-31T10:02:23.000Z</time>
      </trkpt>
      <trkpt lat="47.43534" lon="6.8176">
        <ele>389</ele>
        <time>2016-01-31T10:02:24.000Z</time>
      </trkpt>
      <trkpt lat="47.43538" lon="6.81759">
        <ele>389</ele>
        <time>2016-01-31T10:02:25.000Z</time>
      </trkpt>
      <trkpt lat="47.43542" lon="6.81759">
        <ele>388</ele>
        <time>2016-01-31T10:02:26.000Z</time>
      </trkpt>
      <trkpt lat="47.43546" lon="6.81758">
        <ele>388</ele>
        <time>2016-01-31T10:02:27.000Z</time>
      </trkpt>
      <trkpt lat="47.43551" lon="6.8176">
        <ele>388</ele>
        <time>2016-01-31T10:02:28.000Z</time>
      </trkpt>
      <trkpt lat="47.43555" lon="6.81762">
        <ele>387</ele>
        <time>2016-01-31T10:02:29.000Z</time>
      </trkpt>
      <trkpt lat="47.43559" lon="6.81764">
        <ele>387</ele>
        <time>2016-01-31T10:02:30.000Z</time>
      </trkpt>
      <trkpt lat="47.43563" lon="6.81767">
        <ele>387</ele>
        <time>2016-01-31T10:02:31.000Z</time>
      </trkpt>
      <trkpt lat="47.43567" lon="6.81767">
        <ele>386</ele>
        <time>2016-01-31T10:02:32.000Z</time>
      </trkpt>
      <trkpt lat="47.43571" lon="6.81766">
        <ele>386</ele>
        <time>2016-01-31T10:02:33.000Z</time>
      </trkpt>
      <trkpt lat="47.43575" lon="6.81764">
        <ele>386</ele>
        <time>2016-01-31T10:02:34.000Z</time>
      </trkpt>
      <trkpt lat="47.43579" lon="6.8176">
        <ele>386</ele>
        <time>2016-01-31T10:02:35.000Z</time>
      </trkpt>
      <trkpt lat="47.43584" lon="6.81757">
        <ele>382</ele>
        <time>2016-01-31T10:02:36.000Z</time>
      </trkpt>
      <trkpt lat="47.43589" lon="6.81754">
        <ele>383</ele>
        <time>2016-01-31T10:02:37.000Z</time>
      </trkpt>
      <trkpt lat="47.43593" lon="6.81751">
        <ele>382</ele>
        <time>2016-01-31T10:02:38.000Z</time>
      </trkpt>
      <trkpt lat="47.43596" lon="6.81749">
        <ele>381</ele>
        <time>2016-01-31T10:02:39.000Z</time>
      </trkpt>
      <trkpt lat="47.43599" lon="6.81748">
        <ele>381</ele>
        <time>2016-01-31T10:02:40.000Z</time>
      </trkpt>
      <trkpt lat="47.43601" lon="6.81745">
        <ele>380</ele>
        <time>2016-01-31T10:02:42.000Z</time>
      </trkpt>
      <trkpt lat="47.43602" lon="6.81743">
        <ele>380</ele>
        <time>2016-01-31T10:02:43.000Z</time>
      </trkpt>
      <trkpt lat="47.43605" lon="6.81738">
        <ele>379</ele>
        <time>2016-01-31T10:02:45.000Z</time>
      </trkpt>
      <trkpt lat="47.43605" lon="6.81736">
        <ele>379</ele>
        <time>2016-01-31T10:02:46.000Z</time>
      </trkpt>
      <trkpt lat="47.43608" lon="6.81732">
        <ele>379</ele>
        <time>2016-01-31T10:02:51.000Z</time>
      </trkpt>
      <trkpt lat="47.43609" lon="6.81732">
        <ele>379</ele>
        <time>2016-01-31T10:02:52.000Z</time>
      </trkpt>
      <trkpt lat="47.43612" lon="6.81726">
        <ele>378</ele>
        <time>2016-01-31T10:02:55.000Z</time>
      </trkpt>
      <trkpt lat="47.43612" lon="6.81724">
        <ele>378</ele>
        <time>2016-01-31T10:02:56.000Z</time>
      </trkpt>
      <trkpt lat="47.43612" lon="6.81718">
        <ele>378</ele>
        <time>2016-01-31T10:02:58.000Z</time>
      </trkpt>
      <trkpt lat="47.43612" lon="6.81715">
        <ele>378</ele>
        <time>2016-01-31T10:02:59.000Z</time>
      </trkpt>
      <trkpt lat="47.43611" lon="6.81709">
        <ele>378</ele>
        <time>2016-01-31T10:03:01.000Z</time>
      </trkpt>
      <trkpt lat="47.43611" lon="6.81706">
        <ele>378</ele>
        <time>2016-01-31T10:03:02.000Z</time>
      </trkpt>
      <trkpt lat="47.43611" lon="6.81703">
        <ele>378</ele>
        <time>2016-01-31T10:03:03.000Z</time>
      </trkpt>
      <trkpt lat="47.43611" lon="6.81699">
        <ele>378</ele>
        <time>2016-01-31T10:03:04.000Z</time>
      </trkpt>
      <trkpt lat="47.4361" lon="6.81695">
        <ele>378</ele>
        <time>2016-01-31T10:03:05.000Z</time>
      </trkpt>
      <trkpt lat="47.4361" lon="6.81691">
        <ele>378</ele>
        <time>2016-01-31T10:03:06.000Z</time>
      </trkpt>
      <trkpt lat="47.43609" lon="6.81686">
        <ele>379</ele>
        <time>2016-01-31T10:03:07.000Z</time>
      </trkpt>
      <trkpt lat="47.43609" lon="6.81681">
        <ele>379</ele>
        <time>2016-01-31T10:03:08.000Z</time>
      </trkpt>
      <trkpt lat="47.43609" lon="6.81677">
        <ele>379</ele>
        <time>2016-01-31T10:03:09.000Z</time>
      </trkpt>
      <trkpt lat="47.43608" lon="6.81672">
        <ele>379</ele>
        <time>2016-01-31T10:03:10.000Z</time>
      </trkpt>
      <trkpt lat="47.43608" lon="6.81669">
        <ele>379</ele>
        <time>2016-01-31T10:03:11.000Z</time>
      </trkpt>
      <trkpt lat="47.43609" lon="6.81664">
        <ele>380</ele>
        <time>2016-01-31T10:03:12.000Z</time>
      </trkpt>
      <trkpt lat="47.4361" lon="6.8166">
        <ele>380</ele>
        <time>2016-01-31T10:03:13.000Z</time>
      </trkpt>
      <trkpt lat="47.4361" lon="6.81656">
        <ele>379</ele>
        <time>2016-01-31T10:03:14.000Z</time>
      </trkpt>
      <trkpt lat="47.43611" lon="6.81653">
        <ele>379</ele>
        <time>2016-01-31T10:03:15.000Z</time>
      </trkpt>
      <trkpt lat="47.43611" lon="6.81649">
        <ele>379</ele>
        <time>2016-01-31T10:03:16.000Z</time>
      </trkpt>
      <trkpt lat="47.43611" lon="6.81646">
        <ele>379</ele>
        <time>2016-01-31T10:03:17.000Z</time>
      </trkpt>
      <trkpt lat="47.43611" lon="6.81643">
        <ele>379</ele>
        <time>2016-01-31T10:03:18.000Z</time>
      </trkpt>
      <trkpt lat="47.4361" lon="6.81637">
        <ele>379</ele>
        <time>2016-01-31T10:03:20.000Z</time>
      </trkpt>
      <trkpt lat="47.4361" lon="6.81634">
        <ele>379</ele>
        <time>2016-01-31T10:03:21.000Z</time>
      </trkpt>
      <trkpt lat="47.43609" lon="6.81628">
        <ele>379</ele>
        <time>2016-01-31T10:03:23.000Z</time>
      </trkpt>
      <trkpt lat="47.43609" lon="6.81625">
        <ele>379</ele>
        <time>2016-01-31T10:03:24.000Z</time>
      </trkpt>
      <trkpt lat="47.43609" lon="6.81618">
        <ele>379</ele>
        <time>2016-01-31T10:03:26.000Z</time>
      </trkpt>
      <trkpt lat="47.43608" lon="6.81614">
        <ele>379</ele>
        <time>2016-01-31T10:03:27.000Z</time>
      </trkpt>
      <trkpt lat="47.43607" lon="6.81611">
        <ele>379</ele>
        <time>2016-01-31T10:03:28.000Z</time>
      </trkpt>
      <trkpt lat="47.43607" lon="6.81607">
        <ele>379</ele>
        <time>2016-01-31T10:03:29.000Z</time>
      </trkpt>
      <trkpt lat="47.43606" lon="6.81603">
        <ele>379</ele>
        <time>2016-01-31T10:03:30.000Z</time>
      </trkpt>
      <trkpt lat="47.43605" lon="6.816">
        <ele>379</ele>
        <time>2016-01-31T10:03:31.000Z</time>
      </trkpt>
      <trkpt lat="47.43603" lon="6.81596">
        <ele>379</ele>
        <time>2016-01-31T10:03:33.000Z</time>
      </trkpt>
      <trkpt lat="47.43602" lon="6.81595">
        <ele>380</ele>
        <time>2016-01-31T10:03:34.000Z</time>
      </trkpt>
      <trkpt lat="47.436" lon="6.81591">
        <ele>380</ele>
        <time>2016-01-31T10:03:36.000Z</time>
      </trkpt>
      <trkpt lat="47.43599" lon="6.81589">
        <ele>380</ele>
        <time>2016-01-31T10:03:37.000Z</time>
      </trkpt>
      <trkpt lat="47.43599" lon="6.81583">
        <ele>381</ele>
        <time>2016-01-31T10:03:39.000Z</time>
      </trkpt>
      <trkpt lat="47.43599" lon="6.8158">
        <ele>381</ele>
        <time>2016-01-31T10:03:40.000Z</time>
      </trkpt>
      <trkpt lat="47.43599" lon="6.81575">
        <ele>381</ele>
        <time>2016-01-31T10:03:42.000Z</time>
      </trkpt>
      <trkpt lat="47.436" lon="6.81573">
        <ele>381</ele>
        <time>2016-01-31T10:03:43.000Z</time>
      </trkpt>
      <trkpt lat="47.43598" lon="6.8157">
        <ele>381</ele>
        <time>2016-01-31T10:03:46.000Z</time>
      </trkpt>
      <trkpt lat="47.43596" lon="6.81568">
        <ele>381</ele>
        <time>2016-01-31T10:03:47.000Z</time>
      </trkpt>
      <trkpt lat="47.43594" lon="6.81565">
        <ele>381</ele>
        <time>2016-01-31T10:03:49.000Z</time>
      </trkpt>
      <trkpt lat="47.43593" lon="6.81563">
        <ele>381</ele>
        <time>2016-01-31T10:03:50.000Z</time>
      </trkpt>
      <trkpt lat="47.4359" lon="6.8156">
        <ele>381</ele>
        <time>2016-01-31T10:03:53.000Z</time>
      </trkpt>
      <trkpt lat="47.43589" lon="6.81558">
        <ele>381</ele>
        <time>2016-01-31T10:03:54.000Z</time>
      </trkpt>
      <trkpt lat="47.43586" lon="6.81555">
        <ele>381</ele>
        <time>2016-01-31T10:03:56.000Z</time>
      </trkpt>
      <trkpt lat="47.43584" lon="6.81553">
        <ele>381</ele>
        <time>2016-01-31T10:03:57.000Z</time>
      </trkpt>
      <trkpt lat="47.43583" lon="6.81547">
        <ele>384</ele>
        <time>2016-01-31T10:04:19.000Z</time>
      </trkpt>
      <trkpt lat="47.43582" lon="6.81546">
        <ele>384</ele>
        <time>2016-01-31T10:04:20.000Z</time>
      </trkpt>
      <trkpt lat="47.4358" lon="6.81543">
        <ele>385</ele>
        <time>2016-01-31T10:04:22.000Z</time>
      </trkpt>
      <trkpt lat="47.43578" lon="6.81542">
        <ele>385</ele>
        <time>2016-01-31T10:04:23.000Z</time>
      </trkpt>
      <trkpt lat="47.43576" lon="6.81538">
        <ele>385</ele>
        <time>2016-01-31T10:04:25.000Z</time>
      </trkpt>
      <trkpt lat="47.43574" lon="6.81537">
        <ele>385</ele>
        <time>2016-01-31T10:04:26.000Z</time>
      </trkpt>
      <trkpt lat="47.43572" lon="6.81531">
        <ele>385</ele>
        <time>2016-01-31T10:04:29.000Z</time>
      </trkpt>
      <trkpt lat="47.43571" lon="6.8153">
        <ele>385</ele>
        <time>2016-01-31T10:04:30.000Z</time>
      </trkpt>
      <trkpt lat="47.43568" lon="6.81527">
        <ele>385</ele>
        <time>2016-01-31T10:04:32.000Z</time>
      </trkpt>
      <trkpt lat="47.43567" lon="6.81526">
        <ele>385</ele>
        <time>2016-01-31T10:04:33.000Z</time>
      </trkpt>
      <trkpt lat="47.43564" lon="6.81523">
        <ele>385</ele>
        <time>2016-01-31T10:04:35.000Z</time>
      </trkpt>
      <trkpt lat="47.43563" lon="6.81521">
        <ele>385</ele>
        <time>2016-01-31T10:04:36.000Z</time>
      </trkpt>
      <trkpt lat="47.43561" lon="6.81515">
        <ele>384</ele>
        <time>2016-01-31T10:04:40.000Z</time>
      </trkpt>
      <trkpt lat="47.4356" lon="6.81515">
        <ele>384</ele>
        <time>2016-01-31T10:04:41.000Z</time>
      </trkpt>
      <trkpt lat="47.43557" lon="6.81511">
        <ele>385</ele>
        <time>2016-01-31T10:04:46.000Z</time>
      </trkpt>
      <trkpt lat="47.43556" lon="6.81511">
        <ele>385</ele>
        <time>2016-01-31T10:04:47.000Z</time>
      </trkpt>
      <trkpt lat="47.4356" lon="6.81514">
        <ele>385</ele>
        <time>2016-01-31T10:06:12.000Z</time>
      </trkpt>
      <trkpt lat="47.43561" lon="6.81513">
        <ele>384</ele>
        <time>2016-01-31T10:06:13.000Z</time>
      </trkpt>
      <trkpt lat="47.43565" lon="6.81509">
        <ele>384</ele>
        <time>2016-01-31T10:06:15.000Z</time>
      </trkpt>
      <trkpt lat="47.43567" lon="6.81507">
        <ele>384</ele>
        <time>2016-01-31T10:06:16.000Z</time>
      </trkpt>
      <trkpt lat="47.4357" lon="6.81502">
        <ele>384</ele>
        <time>2016-01-31T10:06:18.000Z</time>
      </trkpt>
      <trkpt lat="47.43571" lon="6.815">
        <ele>383</ele>
        <time>2016-01-31T10:06:19.000Z</time>
      </trkpt>
      <trkpt lat="47.43575" lon="6.81497">
        <ele>384</ele>
        <time>2016-01-31T10:06:21.000Z</time>
      </trkpt>
      <trkpt lat="47.43576" lon="6.81497">
        <ele>383</ele>
        <time>2016-01-31T10:06:22.000Z</time>
      </trkpt>
      <trkpt lat="47.4358" lon="6.81496">
        <ele>383</ele>
        <time>2016-01-31T10:06:24.000Z</time>
      </trkpt>
      <trkpt lat="47.43582" lon="6.81495">
        <ele>383</ele>
        <time>2016-01-31T10:06:25.000Z</time>
      </trkpt>
      <trkpt lat="47.43586" lon="6.81493">
        <ele>383</ele>
        <time>2016-01-31T10:06:28.000Z</time>
      </trkpt>
      <trkpt lat="47.43587" lon="6.81492">
        <ele>384</ele>
        <time>2016-01-31T10:06:29.000Z</time>
      </trkpt>
      <trkpt lat="47.43591" lon="6.81492">
        <ele>384</ele>
        <time>2016-01-31T10:06:38.000Z</time>
      </trkpt>
      <trkpt lat="47.43592" lon="6.81493">
        <ele>384</ele>
        <time>2016-01-31T10:06:39.000Z</time>
      </trkpt>
      <trkpt lat="47.43595" lon="6.81496">
        <ele>384</ele>
        <time>2016-01-31T10:06:42.000Z</time>
      </trkpt>
      <trkpt lat="47.43596" lon="6.81497">
        <ele>384</ele>
        <time>2016-01-31T10:06:43.000Z</time>
      </trkpt>
      <trkpt lat="47.436" lon="6.81498">
        <ele>384</ele>
        <time>2016-01-31T10:06:47.000Z</time>
      </trkpt>
      <trkpt lat="47.43601" lon="6.81499">
        <ele>384</ele>
        <time>2016-01-31T10:06:48.000Z</time>
      </trkpt>
      <trkpt lat="47.43606" lon="6.815">
        <ele>381</ele>
        <time>2016-01-31T10:06:51.000Z</time>
      </trkpt>
      <trkpt lat="47.43607" lon="6.81502">
        <ele>381</ele>
        <time>2016-01-31T10:06:52.000Z</time>
      </trkpt>
      <trkpt lat="47.4361" lon="6.81505">
        <ele>381</ele>
        <time>2016-01-31T10:06:55.000Z</time>
      </trkpt>
      <trkpt lat="47.43612" lon="6.81506">
        <ele>381</ele>
        <time>2016-01-31T10:06:56.000Z</time>
      </trkpt>
      <trkpt lat="47.43615" lon="6.81508">
        <ele>381</ele>
        <time>2016-01-31T10:06:58.000Z</time>
      </trkpt>
      <trkpt lat="47.43617" lon="6.81509">
        <ele>381</ele>
        <time>2016-01-31T10:06:59.000Z</time>
      </trkpt>
      <trkpt lat="47.43621" lon="6.81509">
        <ele>381</ele>
        <time>2016-01-31T10:07:01.000Z</time>
      </trkpt>
      <trkpt lat="47.43623" lon="6.8151">
        <ele>381</ele>
        <time>2016-01-31T10:07:02.000Z</time>
      </trkpt>
      <trkpt lat="47.43627" lon="6.8151">
        <ele>381</ele>
        <time>2016-01-31T10:07:04.000Z</time>
      </trkpt>
      <trkpt lat="47.43629" lon="6.81511">
        <ele>381</ele>
        <time>2016-01-31T10:07:05.000Z</time>
      </trkpt>
      <trkpt lat="47.43633" lon="6.81511">
        <ele>381</ele>
        <time>2016-01-31T10:07:07.000Z</time>
      </trkpt>
      <trkpt lat="47.43635" lon="6.8151">
        <ele>381</ele>
        <time>2016-01-31T10:07:08.000Z</time>
      </trkpt>
      <trkpt lat="47.43638" lon="6.81509">
        <ele>381</ele>
        <time>2016-01-31T10:07:10.000Z</time>
      </trkpt>
      <trkpt lat="47.4364" lon="6.81509">
        <ele>382</ele>
        <time>2016-01-31T10:07:11.000Z</time>
      </trkpt>
      <trkpt lat="47.43644" lon="6.81508">
        <ele>382</ele>
        <time>2016-01-31T10:07:13.000Z</time>
      </trkpt>
      <trkpt lat="47.43646" lon="6.81508">
        <ele>382</ele>
        <time>2016-01-31T10:07:14.000Z</time>
      </trkpt>
      <trkpt lat="47.43649" lon="6.81507">
        <ele>382</ele>
        <time>2016-01-31T10:07:16.000Z</time>
      </trkpt>
      <trkpt lat="47.43651" lon="6.81507">
        <ele>382</ele>
        <time>2016-01-31T10:07:17.000Z</time>
      </trkpt>
      <trkpt lat="47.43654" lon="6.81505">
        <ele>382</ele>
        <time>2016-01-31T10:07:19.000Z</time>
      </trkpt>
      <trkpt lat="47.43655" lon="6.81504">
        <ele>382</ele>
        <time>2016-01-31T10:07:20.000Z</time>
      </trkpt>
      <trkpt lat="47.43659" lon="6.81504">
        <ele>382</ele>
        <time>2016-01-31T10:07:25.000Z</time>
      </trkpt>
      <trkpt lat="47.4366" lon="6.81505">
        <ele>382</ele>
        <time>2016-01-31T10:07:26.000Z</time>
      </trkpt>
      <trkpt lat="47.43662" lon="6.81509">
        <ele>382</ele>
        <time>2016-01-31T10:07:28.000Z</time>
      </trkpt>
      <trkpt lat="47.43664" lon="6.8151">
        <ele>382</ele>
        <time>2016-01-31T10:07:29.000Z</time>
      </trkpt>
      <trkpt lat="47.43667" lon="6.81511">
        <ele>382</ele>
        <time>2016-01-31T10:07:31.000Z</time>
      </trkpt>
      <trkpt lat="47.43668" lon="6.81512">
        <ele>381</ele>
        <time>2016-01-31T10:07:32.000Z</time>
      </trkpt>
      <trkpt lat="47.43671" lon="6.81515">
        <ele>380</ele>
        <time>2016-01-31T10:07:34.000Z</time>
      </trkpt>
      <trkpt lat="47.43673" lon="6.81517">
        <ele>380</ele>
        <time>2016-01-31T10:07:35.000Z</time>
      </trkpt>
      <trkpt lat="47.43676" lon="6.8152">
        <ele>380</ele>
        <time>2016-01-31T10:07:37.000Z</time>
      </trkpt>
      <trkpt lat="47.43678" lon="6.81521">
        <ele>380</ele>
        <time>2016-01-31T10:07:38.000Z</time>
      </trkpt>
      <trkpt lat="47.43682" lon="6.81523">
        <ele>379</ele>
        <time>2016-01-31T10:07:41.000Z</time>
      </trkpt>
      <trkpt lat="47.43683" lon="6.81523">
        <ele>379</ele>
        <time>2016-01-31T10:07:42.000Z</time>
      </trkpt>
      <trkpt lat="47.43686" lon="6.81521">
        <ele>379</ele>
        <time>2016-01-31T10:07:44.000Z</time>
      </trkpt>
      <trkpt lat="47.43687" lon="6.81519">
        <ele>379</ele>
        <time>2016-01-31T10:07:45.000Z</time>
      </trkpt>
      <trkpt lat="47.4369" lon="6.81516">
        <ele>379</ele>
        <time>2016-01-31T10:07:47.000Z</time>
      </trkpt>
      <trkpt lat="47.43691" lon="6.81514">
        <ele>379</ele>
        <time>2016-01-31T10:07:48.000Z</time>
      </trkpt>
      <trkpt lat="47.43693" lon="6.8151">
        <ele>379</ele>
        <time>2016-01-31T10:07:50.000Z</time>
      </trkpt>
      <trkpt lat="47.43695" lon="6.81508">
        <ele>379</ele>
        <time>2016-01-31T10:07:51.000Z</time>
      </trkpt>
      <trkpt lat="47.43697" lon="6.81505">
        <ele>379</ele>
        <time>2016-01-31T10:07:52.000Z</time>
      </trkpt>
      <trkpt lat="47.437" lon="6.81502">
        <ele>379</ele>
        <time>2016-01-31T10:07:53.000Z</time>
      </trkpt>
      <trkpt lat="47.43703" lon="6.81499">
        <ele>380</ele>
        <time>2016-01-31T10:07:54.000Z</time>
      </trkpt>
      <trkpt lat="47.43706" lon="6.81496">
        <ele>380</ele>
        <time>2016-01-31T10:07:55.000Z</time>
      </trkpt>
      <trkpt lat="47.43709" lon="6.81493">
        <ele>379</ele>
        <time>2016-01-31T10:07:56.000Z</time>
      </trkpt>
      <trkpt lat="47.4371" lon="6.81491">
        <ele>379</ele>
        <time>2016-01-31T10:07:57.000Z</time>
      </trkpt>
      <trkpt lat="47.43714" lon="6.81489">
        <ele>379</ele>
        <time>2016-01-31T10:07:59.000Z</time>
      </trkpt>
      <trkpt lat="47.43716" lon="6.81489">
        <ele>379</ele>
        <time>2016-01-31T10:08:00.000Z</time>
      </trkpt>
      <trkpt lat="47.4372" lon="6.81489">
        <ele>378</ele>
        <time>2016-01-31T10:08:02.000Z</time>
      </trkpt>
      <trkpt lat="47.43722" lon="6.81488">
        <ele>378</ele>
        <time>2016-01-31T10:08:03.000Z</time>
      </trkpt>
      <trkpt lat="47.43725" lon="6.81487">
        <ele>378</ele>
        <time>2016-01-31T10:08:05.000Z</time>
      </trkpt>
      <trkpt lat="47.43727" lon="6.81486">
        <ele>378</ele>
        <time>2016-01-31T10:08:06.000Z</time>
      </trkpt>
      <trkpt lat="47.4373" lon="6.81485">
        <ele>378</ele>
        <time>2016-01-31T10:08:07.000Z</time>
      </trkpt>
      <trkpt lat="47.43732" lon="6.81484">
        <ele>378</ele>
        <time>2016-01-31T10:08:08.000Z</time>
      </trkpt>
      <trkpt lat="47.43734" lon="6.81483">
        <ele>378</ele>
        <time>2016-01-31T10:08:09.000Z</time>
      </trkpt>
      <trkpt lat="47.43736" lon="6.81482">
        <ele>377</ele>
        <time>2016-01-31T10:08:10.000Z</time>
      </trkpt>
      <trkpt lat="47.4374" lon="6.81481">
        <ele>377</ele>
        <time>2016-01-31T10:08:12.000Z</time>
      </trkpt>
      <trkpt lat="47.43742" lon="6.8148">
        <ele>377</ele>
        <time>2016-01-31T10:08:13.000Z</time>
      </trkpt>
      <trkpt lat="47.43746" lon="6.81479">
        <ele>377</ele>
        <time>2016-01-31T10:08:15.000Z</time>
      </trkpt>
      <trkpt lat="47.43749" lon="6.81479">
        <ele>377</ele>
        <time>2016-01-31T10:08:16.000Z</time>
      </trkpt>
      <trkpt lat="47.43751" lon="6.81478">
        <ele>374</ele>
        <time>2016-01-31T10:08:17.000Z</time>
      </trkpt>
      <trkpt lat="47.43753" lon="6.81478">
        <ele>374</ele>
        <time>2016-01-31T10:08:18.000Z</time>
      </trkpt>
      <trkpt lat="47.43756" lon="6.81479">
        <ele>374</ele>
        <time>2016-01-31T10:08:19.000Z</time>
      </trkpt>
      <trkpt lat="47.43758" lon="6.81479">
        <ele>374</ele>
        <time>2016-01-31T10:08:20.000Z</time>
      </trkpt>
      <trkpt lat="47.43762" lon="6.81479">
        <ele>374</ele>
        <time>2016-01-31T10:08:22.000Z</time>
      </trkpt>
      <trkpt lat="47.43765" lon="6.81479">
        <ele>374</ele>
        <time>2016-01-31T10:08:23.000Z</time>
      </trkpt>
      <trkpt lat="47.43767" lon="6.81479">
        <ele>373</ele>
        <time>2016-01-31T10:08:24.000Z</time>
      </trkpt>
      <trkpt lat="47.4377" lon="6.81479">
        <ele>373</ele>
        <time>2016-01-31T10:08:25.000Z</time>
      </trkpt>
      <trkpt lat="47.43772" lon="6.81479">
        <ele>373</ele>
        <time>2016-01-31T10:08:26.000Z</time>
      </trkpt>
      <trkpt lat="47.43775" lon="6.81479">
        <ele>373</ele>
        <time>2016-01-31T10:08:27.000Z</time>
      </trkpt>
      <trkpt lat="47.43777" lon="6.81479">
        <ele>373</ele>
        <time>2016-01-31T10:08:28.000Z</time>
      </trkpt>
      <trkpt lat="47.4378" lon="6.81479">
        <ele>373</ele>
        <time>2016-01-31T10:08:29.000Z</time>
      </trkpt>
      <trkpt lat="47.43782" lon="6.81479">
        <ele>373</ele>
        <time>2016-01-31T10:08:30.000Z</time>
      </trkpt>
      <trkpt lat="47.43784" lon="6.81479">
        <ele>373</ele>
        <time>2016-01-31T10:08:31.000Z</time>
      </trkpt>
      <trkpt lat="47.43788" lon="6.81478">
        <ele>373</ele>
        <time>2016-01-31T10:08:33.000Z</time>
      </trkpt>
      <trkpt lat="47.4379" lon="6.81478">
        <ele>373</ele>
        <time>2016-01-31T10:08:34.000Z</time>
      </trkpt>
      <trkpt lat="47.43793" lon="6.81478">
        <ele>373</ele>
        <time>2016-01-31T10:08:35.000Z</time>
      </trkpt>
      <trkpt lat="47.43795" lon="6.81478">
        <ele>373</ele>
        <time>2016-01-31T10:08:36.000Z</time>
      </trkpt>
      <trkpt lat="47.43797" lon="6.81479">
        <ele>373</ele>
        <time>2016-01-31T10:08:37.000Z</time>
      </trkpt>
      <trkpt lat="47.438" lon="6.81479">
        <ele>373</ele>
        <time>2016-01-31T10:08:38.000Z</time>
      </trkpt>
      <trkpt lat="47.43802" lon="6.8148">
        <ele>373</ele>
        <time>2016-01-31T10:08:39.000Z</time>
      </trkpt>
      <trkpt lat="47.43805" lon="6.8148">
        <ele>373</ele>
        <time>2016-01-31T10:08:40.000Z</time>
      </trkpt>
      <trkpt lat="47.43807" lon="6.8148">
        <ele>373</ele>
        <time>2016-01-31T10:08:41.000Z</time>
      </trkpt>
      <trkpt lat="47.4381" lon="6.8148">
        <ele>373</ele>
        <time>2016-01-31T10:08:42.000Z</time>
      </trkpt>
      <trkpt lat="47.43812" lon="6.8148">
        <ele>373</ele>
        <time>2016-01-31T10:08:43.000Z</time>
      </trkpt>
      <trkpt lat="47.43815" lon="6.8148">
        <ele>373</ele>
        <time>2016-01-31T10:08:44.000Z</time>
      </trkpt>
      <trkpt lat="47.43817" lon="6.8148">
        <ele>372</ele>
        <time>2016-01-31T10:08:45.000Z</time>
      </trkpt>
      <trkpt lat="47.43819" lon="6.8148">
        <ele>372</ele>
        <time>2016-01-31T10:08:46.000Z</time>
      </trkpt>
      <trkpt lat="47.43822" lon="6.8148">
        <ele>372</ele>
        <time>2016-01-31T10:08:47.000Z</time>
      </trkpt>
      <trkpt lat="47.43824" lon="6.8148">
        <ele>372</ele>
        <time>2016-01-31T10:08:48.000Z</time>
      </trkpt>
      <trkpt lat="47.43827" lon="6.81479">
        <ele>372</ele>
        <time>2016-01-31T10:08:49.000Z</time>
      </trkpt>
      <trkpt lat="47.4383" lon="6.8148">
        <ele>372</ele>
        <time>2016-01-31T10:08:50.000Z</time>
      </trkpt>
      <trkpt lat="47.43833" lon="6.8148">
        <ele>372</ele>
        <time>2016-01-31T10:08:51.000Z</time>
      </trkpt>
      <trkpt lat="47.43836" lon="6.8148">
        <ele>371</ele>
        <time>2016-01-31T10:08:52.000Z</time>
      </trkpt>
      <trkpt lat="47.43838" lon="6.81479">
        <ele>371</ele>
        <time>2016-01-31T10:08:53.000Z</time>
      </trkpt>
      <trkpt lat="47.43841" lon="6.81479">
        <ele>371</ele>
        <time>2016-01-31T10:08:54.000Z</time>
      </trkpt>
      <trkpt lat="47.43844" lon="6.81479">
        <ele>371</ele>
        <time>2016-01-31T10:08:55.000Z</time>
      </trkpt>
      <trkpt lat="47.43846" lon="6.81479">
        <ele>371</ele>
        <time>2016-01-31T10:08:56.000Z</time>
      </trkpt>
      <trkpt lat="47.4385" lon="6.81479">
        <ele>371</ele>
        <time>2016-01-31T10:08:58.000Z</time>
      </trkpt>
      <trkpt lat="47.43853" lon="6.81479">
        <ele>371</ele>
        <time>2016-01-31T10:08:59.000Z</time>
      </trkpt>
      <trkpt lat="47.43855" lon="6.81477">
        <ele>371</ele>
        <time>2016-01-31T10:09:00.000Z</time>
      </trkpt>
      <trkpt lat="47.43857" lon="6.81475">
        <ele>370</ele>
        <time>2016-01-31T10:09:01.000Z</time>
      </trkpt>
      <trkpt lat="47.43859" lon="6.81473">
        <ele>370</ele>
        <time>2016-01-31T10:09:02.000Z</time>
      </trkpt>
      <trkpt lat="47.43861" lon="6.8147">
        <ele>370</ele>
        <time>2016-01-31T10:09:03.000Z</time>
      </trkpt>
      <trkpt lat="47.43862" lon="6.81467">
        <ele>370</ele>
        <time>2016-01-31T10:09:04.000Z</time>
      </trkpt>
      <trkpt lat="47.43863" lon="6.81463">
        <ele>370</ele>
        <time>2016-01-31T10:09:05.001Z</time>
      </trkpt>
      <trkpt lat="47.43865" lon="6.8146">
        <ele>370</ele>
        <time>2016-01-31T10:09:06.000Z</time>
      </trkpt>
      <trkpt lat="47.43866" lon="6.81456">
        <ele>370</ele>
        <time>2016-01-31T10:09:07.000Z</time>
      </trkpt>
      <trkpt lat="47.43868" lon="6.81453">
        <ele>370</ele>
        <time>2016-01-31T10:09:08.000Z</time>
      </trkpt>
      <trkpt lat="47.43869" lon="6.81449">
        <ele>370</ele>
        <time>2016-01-31T10:09:09.000Z</time>
      </trkpt>
      <trkpt lat="47.43871" lon="6.81445">
        <ele>370</ele>
        <time>2016-01-31T10:09:10.000Z</time>
      </trkpt>
      <trkpt lat="47.43873" lon="6.81441">
        <ele>370</ele>
        <time>2016-01-31T10:09:11.000Z</time>
      </trkpt>
      <trkpt lat="47.43876" lon="6.81437">
        <ele>370</ele>
        <time>2016-01-31T10:09:12.000Z</time>
      </trkpt>
      <trkpt lat="47.43878" lon="6.81433">
        <ele>370</ele>
        <time>2016-01-31T10:09:13.000Z</time>
      </trkpt>
      <trkpt lat="47.4388" lon="6.81429">
        <ele>370</ele>
        <time>2016-01-31T10:09:14.000Z</time>
      </trkpt>
      <trkpt lat="47.43882" lon="6.81425">
        <ele>370</ele>
        <time>2016-01-31T10:09:15.000Z</time>
      </trkpt>
      <trkpt lat="47.43884" lon="6.8142">
        <ele>370</ele>
        <time>2016-01-31T10:09:16.000Z</time>
      </trkpt>
      <trkpt lat="47.43886" lon="6.81416">
        <ele>369</ele>
        <time>2016-01-31T10:09:16.999Z</time>
      </trkpt>
      <trkpt lat="47.43889" lon="6.81411">
        <ele>369</ele>
        <time>2016-01-31T10:09:18.000Z</time>
      </trkpt>
      <trkpt lat="47.43891" lon="6.81407">
        <ele>369</ele>
        <time>2016-01-31T10:09:19.000Z</time>
      </trkpt>
      <trkpt lat="47.43892" lon="6.814">
        <ele>369</ele>
        <time>2016-01-31T10:09:20.000Z</time>
      </trkpt>
      <trkpt lat="47.43894" lon="6.81394">
        <ele>369</ele>
        <time>2016-01-31T10:09:21.000Z</time>
      </trkpt>
      <trkpt lat="47.43897" lon="6.81389">
        <ele>369</ele>
        <time>2016-01-31T10:09:22.000Z</time>
      </trkpt>
      <trkpt lat="47.439" lon="6.81383">
        <ele>369</ele>
        <time>2016-01-31T10:09:23.000Z</time>
      </trkpt>
      <trkpt lat="47.43903" lon="6.81377">
        <ele>369</ele>
        <time>2016-01-31T10:09:24.000Z</time>
      </trkpt>
      <trkpt lat="47.43905" lon="6.81372">
        <ele>369</ele>
        <time>2016-01-31T10:09:25.000Z</time>
      </trkpt>
      <trkpt lat="47.43907" lon="6.81367">
        <ele>369</ele>
        <time>2016-01-31T10:09:26.000Z</time>
      </trkpt>
      <trkpt lat="47.4391" lon="6.81362">
        <ele>369</ele>
        <time>2016-01-31T10:09:26.999Z</time>
      </trkpt>
      <trkpt lat="47.43911" lon="6.81356">
        <ele>369</ele>
        <time>2016-01-31T10:09:28.000Z</time>
      </trkpt>
      <trkpt lat="47.43915" lon="6.81351">
        <ele>369</ele>
        <time>2016-01-31T10:09:29.000Z</time>
      </trkpt>
      <trkpt lat="47.43917" lon="6.81346">
        <ele>369</ele>
        <time>2016-01-31T10:09:30.000Z</time>
      </trkpt>
      <trkpt lat="47.4392" lon="6.8134">
        <ele>369</ele>
        <time>2016-01-31T10:09:31.000Z</time>
      </trkpt>
      <trkpt lat="47.43921" lon="6.81334">
        <ele>369</ele>
        <time>2016-01-31T10:09:32.000Z</time>
      </trkpt>
      <trkpt lat="47.43923" lon="6.81328">
        <ele>369</ele>
        <time>2016-01-31T10:09:33.000Z</time>
      </trkpt>
      <trkpt lat="47.43925" lon="6.81323">
        <ele>369</ele>
        <time>2016-01-31T10:09:34.000Z</time>
      </trkpt>
      <trkpt lat="47.43928" lon="6.81317">
        <ele>369</ele>
        <time>2016-01-31T10:09:35.000Z</time>
      </trkpt>
      <trkpt lat="47.4393" lon="6.81313">
        <ele>369</ele>
        <time>2016-01-31T10:09:36.000Z</time>
      </trkpt>
      <trkpt lat="47.43933" lon="6.81307">
        <ele>369</ele>
        <time>2016-01-31T10:09:37.000Z</time>
      </trkpt>
      <trkpt lat="47.43936" lon="6.81302">
        <ele>369</ele>
        <time>2016-01-31T10:09:38.000Z</time>
      </trkpt>
      <trkpt lat="47.43939" lon="6.81297">
        <ele>369</ele>
        <time>2016-01-31T10:09:39.001Z</time>
      </trkpt>
      <trkpt lat="47.43942" lon="6.81292">
        <ele>368</ele>
        <time>2016-01-31T10:09:40.000Z</time>
      </trkpt>
      <trkpt lat="47.43946" lon="6.81287">
        <ele>368</ele>
        <time>2016-01-31T10:09:40.999Z</time>
      </trkpt>
      <trkpt lat="47.43949" lon="6.81281">
        <ele>368</ele>
        <time>2016-01-31T10:09:42.000Z</time>
      </trkpt>
      <trkpt lat="47.43952" lon="6.81275">
        <ele>368</ele>
        <time>2016-01-31T10:09:43.000Z</time>
      </trkpt>
      <trkpt lat="47.43956" lon="6.81269">
        <ele>368</ele>
        <time>2016-01-31T10:09:44.000Z</time>
      </trkpt>
      <trkpt lat="47.43959" lon="6.81262">
        <ele>368</ele>
        <time>2016-01-31T10:09:45.000Z</time>
      </trkpt>
      <trkpt lat="47.4396" lon="6.81255">
        <ele>368</ele>
        <time>2016-01-31T10:09:46.000Z</time>
      </trkpt>
      <trkpt lat="47.43964" lon="6.81249">
        <ele>369</ele>
        <time>2016-01-31T10:09:47.000Z</time>
      </trkpt>
      <trkpt lat="47.43968" lon="6.81244">
        <ele>369</ele>
        <time>2016-01-31T10:09:48.000Z</time>
      </trkpt>
      <trkpt lat="47.43972" lon="6.81238">
        <ele>369</ele>
        <time>2016-01-31T10:09:49.000Z</time>
      </trkpt>
      <trkpt lat="47.43976" lon="6.81231">
        <ele>369</ele>
        <time>2016-01-31T10:09:49.999Z</time>
      </trkpt>
      <trkpt lat="47.43979" lon="6.81224">
        <ele>369</ele>
        <time>2016-01-31T10:09:51.000Z</time>
      </trkpt>
      <trkpt lat="47.43983" lon="6.81217">
        <ele>370</ele>
        <time>2016-01-31T10:09:52.000Z</time>
      </trkpt>
      <trkpt lat="47.43986" lon="6.81211">
        <ele>370</ele>
        <time>2016-01-31T10:09:53.000Z</time>
      </trkpt>
      <trkpt lat="47.4399" lon="6.81205">
        <ele>370</ele>
        <time>2016-01-31T10:09:54.000Z</time>
      </trkpt>
      <trkpt lat="47.43993" lon="6.812">
        <ele>370</ele>
        <time>2016-01-31T10:09:55.000Z</time>
      </trkpt>
      <trkpt lat="47.43996" lon="6.81195">
        <ele>370</ele>
        <time>2016-01-31T10:09:56.000Z</time>
      </trkpt>
      <trkpt lat="47.43999" lon="6.8119">
        <ele>370</ele>
        <time>2016-01-31T10:09:57.000Z</time>
      </trkpt>
      <trkpt lat="47.44" lon="6.81184">
        <ele>371</ele>
        <time>2016-01-31T10:09:58.000Z</time>
      </trkpt>
      <trkpt lat="47.44001" lon="6.81179">
        <ele>370</ele>
        <time>2016-01-31T10:09:59.000Z</time>
      </trkpt>
      <trkpt lat="47.44003" lon="6.81174">
        <ele>370</ele>
        <time>2016-01-31T10:10:00.000Z</time>
      </trkpt>
      <trkpt lat="47.44004" lon="6.8117">
        <ele>370</ele>
        <time>2016-01-31T10:10:01.000Z</time>
      </trkpt>
      <trkpt lat="47.44006" lon="6.81165">
        <ele>371</ele>
        <time>2016-01-31T10:10:02.000Z</time>
      </trkpt>
      <trkpt lat="47.44005" lon="6.81161">
        <ele>371</ele>
        <time>2016-01-31T10:10:03.000Z</time>
      </trkpt>
      <trkpt lat="47.44005" lon="6.81159">
        <ele>371</ele>
        <time>2016-01-31T10:10:04.000Z</time>
      </trkpt>
      <trkpt lat="47.44003" lon="6.81156">
        <ele>371</ele>
        <time>2016-01-31T10:10:04.999Z</time>
      </trkpt>
      <trkpt lat="47.44002" lon="6.81153">
        <ele>371</ele>
        <time>2016-01-31T10:10:06.000Z</time>
      </trkpt>
      <trkpt lat="47.44001" lon="6.8115">
        <ele>371</ele>
        <time>2016-01-31T10:10:07.000Z</time>
      </trkpt>
      <trkpt lat="47.43998" lon="6.81147">
        <ele>373</ele>
        <time>2016-01-31T10:10:08.000Z</time>
      </trkpt>
      <trkpt lat="47.43995" lon="6.81144">
        <ele>373</ele>
        <time>2016-01-31T10:10:09.000Z</time>
      </trkpt>
      <trkpt lat="47.43993" lon="6.81142">
        <ele>373</ele>
        <time>2016-01-31T10:10:10.000Z</time>
      </trkpt>
      <trkpt lat="47.4399" lon="6.81139">
        <ele>373</ele>
        <time>2016-01-31T10:10:11.000Z</time>
      </trkpt>
      <trkpt lat="47.43987" lon="6.81137">
        <ele>373</ele>
        <time>2016-01-31T10:10:12.000Z</time>
      </trkpt>
      <trkpt lat="47.43985" lon="6.81135">
        <ele>373</ele>
        <time>2016-01-31T10:10:13.000Z</time>
      </trkpt>
      <trkpt lat="47.43982" lon="6.81132">
        <ele>374</ele>
        <time>2016-01-31T10:10:14.000Z</time>
      </trkpt>
      <trkpt lat="47.43979" lon="6.8113">
        <ele>374</ele>
        <time>2016-01-31T10:10:15.000Z</time>
      </trkpt>
      <trkpt lat="47.43977" lon="6.81129">
        <ele>374</ele>
        <time>2016-01-31T10:10:16.000Z</time>
      </trkpt>
      <trkpt lat="47.43975" lon="6.81126">
        <ele>374</ele>
        <time>2016-01-31T10:10:17.000Z</time>
      </trkpt>
      <trkpt lat="47.43972" lon="6.81125">
        <ele>374</ele>
        <time>2016-01-31T10:10:18.000Z</time>
      </trkpt>
      <trkpt lat="47.4397" lon="6.81122">
        <ele>374</ele>
        <time>2016-01-31T10:10:19.000Z</time>
      </trkpt>
      <trkpt lat="47.43968" lon="6.8112">
        <ele>374</ele>
        <time>2016-01-31T10:10:20.000Z</time>
      </trkpt>
      <trkpt lat="47.43966" lon="6.81117">
        <ele>374</ele>
        <time>2016-01-31T10:10:21.000Z</time>
      </trkpt>
      <trkpt lat="47.43964" lon="6.81115">
        <ele>374</ele>
        <time>2016-01-31T10:10:22.000Z</time>
      </trkpt>
      <trkpt lat="47.43961" lon="6.81112">
        <ele>375</ele>
        <time>2016-01-31T10:10:24.001Z</time>
      </trkpt>
      <trkpt lat="47.43959" lon="6.8111">
        <ele>375</ele>
        <time>2016-01-31T10:10:25.000Z</time>
      </trkpt>
      <trkpt lat="47.43955" lon="6.81106">
        <ele>375</ele>
        <time>2016-01-31T10:10:27.000Z</time>
      </trkpt>
      <trkpt lat="47.43954" lon="6.81104">
        <ele>375</ele>
        <time>2016-01-31T10:10:28.000Z</time>
      </trkpt>
      <trkpt lat="47.4395" lon="6.811">
        <ele>375</ele>
        <time>2016-01-31T10:10:30.000Z</time>
      </trkpt>
      <trkpt lat="47.43949" lon="6.81099">
        <ele>375</ele>
        <time>2016-01-31T10:10:31.000Z</time>
      </trkpt>
      <trkpt lat="47.43946" lon="6.81096">
        <ele>376</ele>
        <time>2016-01-31T10:10:33.000Z</time>
      </trkpt>
      <trkpt lat="47.43945" lon="6.81094">
        <ele>376</ele>
        <time>2016-01-31T10:10:34.000Z</time>
      </trkpt>
      <trkpt lat="47.43942" lon="6.81091">
        <ele>376</ele>
        <time>2016-01-31T10:10:36.000Z</time>
      </trkpt>
      <trkpt lat="47.43941" lon="6.81089">
        <ele>376</ele>
        <time>2016-01-31T10:10:37.000Z</time>
      </trkpt>
      <trkpt lat="47.43938" lon="6.81086">
        <ele>376</ele>
        <time>2016-01-31T10:10:39.000Z</time>
      </trkpt>
      <trkpt lat="47.43937" lon="6.81084">
        <ele>376</ele>
        <time>2016-01-31T10:10:40.000Z</time>
      </trkpt>
      <trkpt lat="47.43934" lon="6.81081">
        <ele>378</ele>
        <time>2016-01-31T10:10:42.000Z</time>
      </trkpt>
      <trkpt lat="47.43932" lon="6.8108">
        <ele>378</ele>
        <time>2016-01-31T10:10:43.000Z</time>
      </trkpt>
      <trkpt lat="47.4393" lon="6.81077">
        <ele>378</ele>
        <time>2016-01-31T10:10:45.000Z</time>
      </trkpt>
      <trkpt lat="47.43928" lon="6.81075">
        <ele>378</ele>
        <time>2016-01-31T10:10:46.000Z</time>
      </trkpt>
      <trkpt lat="47.43925" lon="6.81072">
        <ele>379</ele>
        <time>2016-01-31T10:10:48.000Z</time>
      </trkpt>
      <trkpt lat="47.43924" lon="6.8107">
        <ele>379</ele>
        <time>2016-01-31T10:10:49.000Z</time>
      </trkpt>
      <trkpt lat="47.43922" lon="6.81067">
        <ele>379</ele>
        <time>2016-01-31T10:10:51.000Z</time>
      </trkpt>
      <trkpt lat="47.4392" lon="6.81065">
        <ele>379</ele>
        <time>2016-01-31T10:10:52.000Z</time>
      </trkpt>
      <trkpt lat="47.43918" lon="6.81063">
        <ele>379</ele>
        <time>2016-01-31T10:10:54.000Z</time>
      </trkpt>
      <trkpt lat="47.43916" lon="6.81061">
        <ele>384</ele>
        <time>2016-01-31T10:10:55.000Z</time>
      </trkpt>
      <trkpt lat="47.43914" lon="6.81059">
        <ele>384</ele>
        <time>2016-01-31T10:10:57.000Z</time>
      </trkpt>
      <trkpt lat="47.43912" lon="6.81057">
        <ele>384</ele>
        <time>2016-01-31T10:10:58.000Z</time>
      </trkpt>
      <trkpt lat="47.4391" lon="6.81053">
        <ele>385</ele>
        <time>2016-01-31T10:11:00.000Z</time>
      </trkpt>
      <trkpt lat="47.43908" lon="6.81051">
        <ele>385</ele>
        <time>2016-01-31T10:11:01.000Z</time>
      </trkpt>
      <trkpt lat="47.43906" lon="6.81048">
        <ele>386</ele>
        <time>2016-01-31T10:11:03.000Z</time>
      </trkpt>
      <trkpt lat="47.43904" lon="6.81046">
        <ele>386</ele>
        <time>2016-01-31T10:11:04.000Z</time>
      </trkpt>
      <trkpt lat="47.43902" lon="6.81044">
        <ele>386</ele>
        <time>2016-01-31T10:11:06.000Z</time>
      </trkpt>
      <trkpt lat="47.439" lon="6.81043">
        <ele>386</ele>
        <time>2016-01-31T10:11:07.000Z</time>
      </trkpt>
      <trkpt lat="47.43898" lon="6.8104">
        <ele>386</ele>
        <time>2016-01-31T10:11:09.000Z</time>
      </trkpt>
      <trkpt lat="47.43896" lon="6.81039">
        <ele>387</ele>
        <time>2016-01-31T10:11:10.000Z</time>
      </trkpt>
      <trkpt lat="47.43892" lon="6.81036">
        <ele>387</ele>
        <time>2016-01-31T10:11:13.000Z</time>
      </trkpt>
      <trkpt lat="47.43891" lon="6.81035">
        <ele>387</ele>
        <time>2016-01-31T10:11:14.000Z</time>
      </trkpt>
      <trkpt lat="47.43888" lon="6.81032">
        <ele>388</ele>
        <time>2016-01-31T10:11:17.000Z</time>
      </trkpt>
      <trkpt lat="47.43887" lon="6.8103">
        <ele>388</ele>
        <time>2016-01-31T10:11:18.000Z</time>
      </trkpt>
      <trkpt lat="47.43883" lon="6.81027">
        <ele>388</ele>
        <time>2016-01-31T10:11:21.000Z</time>
      </trkpt>
      <trkpt lat="47.43882" lon="6.81026">
        <ele>388</ele>
        <time>2016-01-31T10:11:22.000Z</time>
      </trkpt>
      <trkpt lat="47.43878" lon="6.81023">
        <ele>389</ele>
        <time>2016-01-31T10:11:25.000Z</time>
      </trkpt>
      <trkpt lat="47.43877" lon="6.81022">
        <ele>389</ele>
        <time>2016-01-31T10:11:26.000Z</time>
      </trkpt>
      <trkpt lat="47.43874" lon="6.81018">
        <ele>389</ele>
        <time>2016-01-31T10:11:29.000Z</time>
      </trkpt>
      <trkpt lat="47.43873" lon="6.81017">
        <ele>390</ele>
        <time>2016-01-31T10:11:30.000Z</time>
      </trkpt>
      <trkpt lat="47.4387" lon="6.81013">
        <ele>390</ele>
        <time>2016-01-31T10:11:33.000Z</time>
      </trkpt>
      <trkpt lat="47.43869" lon="6.81011">
        <ele>391</ele>
        <time>2016-01-31T10:11:34.000Z</time>
      </trkpt>
      <trkpt lat="47.43865" lon="6.81008">
        <ele>391</ele>
        <time>2016-01-31T10:11:38.000Z</time>
      </trkpt>
      <trkpt lat="47.43865" lon="6.81008">
        <ele>391</ele>
        <time>2016-01-31T10:11:39.000Z</time>
      </trkpt>
      <trkpt lat="47.43862" lon="6.81005">
        <ele>392</ele>
        <time>2016-01-31T10:11:42.000Z</time>
      </trkpt>
      <trkpt lat="47.43861" lon="6.81004">
        <ele>392</ele>
        <time>2016-01-31T10:11:43.000Z</time>
      </trkpt>
      <trkpt lat="47.43858" lon="6.80999">
        <ele>398</ele>
        <time>2016-01-31T10:11:46.000Z</time>
      </trkpt>
      <trkpt lat="47.43858" lon="6.80998">
        <ele>398</ele>
        <time>2016-01-31T10:11:47.000Z</time>
      </trkpt>
      <trkpt lat="47.43854" lon="6.80994">
        <ele>398</ele>
        <time>2016-01-31T10:11:52.000Z</time>
      </trkpt>
      <trkpt lat="47.43854" lon="6.80993">
        <ele>398</ele>
        <time>2016-01-31T10:11:53.000Z</time>
      </trkpt>
      <trkpt lat="47.43851" lon="6.8099">
        <ele>399</ele>
        <time>2016-01-31T10:11:57.000Z</time>
      </trkpt>
      <trkpt lat="47.4385" lon="6.80989">
        <ele>399</ele>
        <time>2016-01-31T10:11:58.000Z</time>
      </trkpt>
      <trkpt lat="47.4385" lon="6.80983">
        <ele>399</ele>
        <time>2016-01-31T10:12:03.000Z</time>
      </trkpt>
      <trkpt lat="47.4385" lon="6.80981">
        <ele>399</ele>
        <time>2016-01-31T10:12:04.000Z</time>
      </trkpt>
      <trkpt lat="47.43852" lon="6.80976">
        <ele>398</ele>
        <time>2016-01-31T10:12:07.000Z</time>
      </trkpt>
      <trkpt lat="47.43852" lon="6.80974">
        <ele>398</ele>
        <time>2016-01-31T10:12:08.000Z</time>
      </trkpt>
      <trkpt lat="47.43854" lon="6.80969">
        <ele>398</ele>
        <time>2016-01-31T10:12:11.000Z</time>
      </trkpt>
      <trkpt lat="47.43854" lon="6.80967">
        <ele>398</ele>
        <time>2016-01-31T10:12:12.000Z</time>
      </trkpt>
      <trkpt lat="47.43856" lon="6.80962">
        <ele>398</ele>
        <time>2016-01-31T10:12:15.000Z</time>
      </trkpt>
      <trkpt lat="47.43857" lon="6.80959">
        <ele>398</ele>
        <time>2016-01-31T10:12:16.000Z</time>
      </trkpt>
      <trkpt lat="47.43859" lon="6.80957">
        <ele>398</ele>
        <time>2016-01-31T10:12:17.000Z</time>
      </trkpt>
      <trkpt lat="47.4386" lon="6.80954">
        <ele>398</ele>
        <time>2016-01-31T10:12:18.000Z</time>
      </trkpt>
      <trkpt lat="47.43862" lon="6.8095">
        <ele>398</ele>
        <time>2016-01-31T10:12:19.000Z</time>
      </trkpt>
      <trkpt lat="47.43864" lon="6.80946">
        <ele>398</ele>
        <time>2016-01-31T10:12:20.000Z</time>
      </trkpt>
      <trkpt lat="47.43866" lon="6.80942">
        <ele>398</ele>
        <time>2016-01-31T10:12:21.000Z</time>
      </trkpt>
      <trkpt lat="47.43868" lon="6.80938">
        <ele>398</ele>
        <time>2016-01-31T10:12:22.000Z</time>
      </trkpt>
      <trkpt lat="47.4387" lon="6.80933">
        <ele>398</ele>
        <time>2016-01-31T10:12:23.000Z</time>
      </trkpt>
      <trkpt lat="47.43872" lon="6.80929">
        <ele>398</ele>
        <time>2016-01-31T10:12:24.000Z</time>
      </trkpt>
      <trkpt lat="47.43874" lon="6.80925">
        <ele>398</ele>
        <time>2016-01-31T10:12:25.000Z</time>
      </trkpt>
      <trkpt lat="47.43877" lon="6.80921">
        <ele>397</ele>
        <time>2016-01-31T10:12:26.000Z</time>
      </trkpt>
      <trkpt lat="47.43879" lon="6.80916">
        <ele>400</ele>
        <time>2016-01-31T10:12:27.000Z</time>
      </trkpt>
      <trkpt lat="47.43881" lon="6.80911">
        <ele>400</ele>
        <time>2016-01-31T10:12:28.000Z</time>
      </trkpt>
      <trkpt lat="47.43884" lon="6.80906">
        <ele>400</ele>
        <time>2016-01-31T10:12:29.000Z</time>
      </trkpt>
      <trkpt lat="47.43886" lon="6.80901">
        <ele>399</ele>
        <time>2016-01-31T10:12:30.000Z</time>
      </trkpt>
      <trkpt lat="47.43889" lon="6.80895">
        <ele>399</ele>
        <time>2016-01-31T10:12:31.000Z</time>
      </trkpt>
      <trkpt lat="47.43891" lon="6.8089">
        <ele>399</ele>
        <time>2016-01-31T10:12:32.000Z</time>
      </trkpt>
      <trkpt lat="47.43893" lon="6.80884">
        <ele>399</ele>
        <time>2016-01-31T10:12:33.000Z</time>
      </trkpt>
      <trkpt lat="47.43894" lon="6.80879">
        <ele>399</ele>
        <time>2016-01-31T10:12:34.000Z</time>
      </trkpt>
      <trkpt lat="47.43896" lon="6.80873">
        <ele>399</ele>
        <time>2016-01-31T10:12:35.000Z</time>
      </trkpt>
      <trkpt lat="47.43897" lon="6.80867">
        <ele>399</ele>
        <time>2016-01-31T10:12:36.000Z</time>
      </trkpt>
      <trkpt lat="47.43898" lon="6.80861">
        <ele>399</ele>
        <time>2016-01-31T10:12:37.000Z</time>
      </trkpt>
      <trkpt lat="47.439" lon="6.80855">
        <ele>399</ele>
        <time>2016-01-31T10:12:38.000Z</time>
      </trkpt>
      <trkpt lat="47.43902" lon="6.80849">
        <ele>398</ele>
        <time>2016-01-31T10:12:39.000Z</time>
      </trkpt>
      <trkpt lat="47.43904" lon="6.80844">
        <ele>398</ele>
        <time>2016-01-31T10:12:40.000Z</time>
      </trkpt>
      <trkpt lat="47.43906" lon="6.80838">
        <ele>397</ele>
        <time>2016-01-31T10:12:41.000Z</time>
      </trkpt>
      <trkpt lat="47.43908" lon="6.80833">
        <ele>397</ele>
        <time>2016-01-31T10:12:42.000Z</time>
      </trkpt>
      <trkpt lat="47.43911" lon="6.80828">
        <ele>397</ele>
        <time>2016-01-31T10:12:43.000Z</time>
      </trkpt>
      <trkpt lat="47.43914" lon="6.80823">
        <ele>398</ele>
        <time>2016-01-31T10:12:44.000Z</time>
      </trkpt>
      <trkpt lat="47.43916" lon="6.80819">
        <ele>398</ele>
        <time>2016-01-31T10:12:45.000Z</time>
      </trkpt>
      <trkpt lat="47.43918" lon="6.80815">
        <ele>392</ele>
        <time>2016-01-31T10:12:46.000Z</time>
      </trkpt>
      <trkpt lat="47.43919" lon="6.80811">
        <ele>392</ele>
        <time>2016-01-31T10:12:47.000Z</time>
      </trkpt>
      <trkpt lat="47.43921" lon="6.80806">
        <ele>392</ele>
        <time>2016-01-31T10:12:48.000Z</time>
      </trkpt>
      <trkpt lat="47.43922" lon="6.80802">
        <ele>392</ele>
        <time>2016-01-31T10:12:49.000Z</time>
      </trkpt>
      <trkpt lat="47.43925" lon="6.80798">
        <ele>391</ele>
        <time>2016-01-31T10:12:50.000Z</time>
      </trkpt>
      <trkpt lat="47.43927" lon="6.80793">
        <ele>391</ele>
        <time>2016-01-31T10:12:51.000Z</time>
      </trkpt>
      <trkpt lat="47.4393" lon="6.80787">
        <ele>391</ele>
        <time>2016-01-31T10:12:52.000Z</time>
      </trkpt>
      <trkpt lat="47.43933" lon="6.80782">
        <ele>391</ele>
        <time>2016-01-31T10:12:53.000Z</time>
      </trkpt>
      <trkpt lat="47.43936" lon="6.80778">
        <ele>391</ele>
        <time>2016-01-31T10:12:54.000Z</time>
      </trkpt>
      <trkpt lat="47.43939" lon="6.80773">
        <ele>391</ele>
        <time>2016-01-31T10:12:55.000Z</time>
      </trkpt>
      <trkpt lat="47.43941" lon="6.80769">
        <ele>391</ele>
        <time>2016-01-31T10:12:56.000Z</time>
      </trkpt>
      <trkpt lat="47.43943" lon="6.80764">
        <ele>391</ele>
        <time>2016-01-31T10:12:57.000Z</time>
      </trkpt>
      <trkpt lat="47.43945" lon="6.80758">
        <ele>391</ele>
        <time>2016-01-31T10:12:58.000Z</time>
      </trkpt>
      <trkpt lat="47.43947" lon="6.80753">
        <ele>391</ele>
        <time>2016-01-31T10:12:59.000Z</time>
      </trkpt>
      <trkpt lat="47.43949" lon="6.80748">
        <ele>392</ele>
        <time>2016-01-31T10:13:00.000Z</time>
      </trkpt>
      <trkpt lat="47.4395" lon="6.80743">
        <ele>392</ele>
        <time>2016-01-31T10:13:01.000Z</time>
      </trkpt>
      <trkpt lat="47.43952" lon="6.80738">
        <ele>392</ele>
        <time>2016-01-31T10:13:02.000Z</time>
      </trkpt>
      <trkpt lat="47.43953" lon="6.80734">
        <ele>392</ele>
        <time>2016-01-31T10:13:03.000Z</time>
      </trkpt>
      <trkpt lat="47.43955" lon="6.80729">
        <ele>391</ele>
        <time>2016-01-31T10:13:04.000Z</time>
      </trkpt>
      <trkpt lat="47.43957" lon="6.80724">
        <ele>391</ele>
        <time>2016-01-31T10:13:05.000Z</time>
      </trkpt>
      <trkpt lat="47.43959" lon="6.8072">
        <ele>391</ele>
        <time>2016-01-31T10:13:06.000Z</time>
      </trkpt>
      <trkpt lat="47.43961" lon="6.80715">
        <ele>391</ele>
        <time>2016-01-31T10:13:07.000Z</time>
      </trkpt>
      <trkpt lat="47.43963" lon="6.8071">
        <ele>391</ele>
        <time>2016-01-31T10:13:08.000Z</time>
      </trkpt>
      <trkpt lat="47.43966" lon="6.80706">
        <ele>391</ele>
        <time>2016-01-31T10:13:09.000Z</time>
      </trkpt>
      <trkpt lat="47.43968" lon="6.80702">
        <ele>391</ele>
        <time>2016-01-31T10:13:10.000Z</time>
      </trkpt>
      <trkpt lat="47.43969" lon="6.80698">
        <ele>391</ele>
        <time>2016-01-31T10:13:11.000Z</time>
      </trkpt>
      <trkpt lat="47.43971" lon="6.80694">
        <ele>391</ele>
        <time>2016-01-31T10:13:12.000Z</time>
      </trkpt>
      <trkpt lat="47.43971" lon="6.80689">
        <ele>390</ele>
        <time>2016-01-31T10:13:13.000Z</time>
      </trkpt>
      <trkpt lat="47.43971" lon="6.80684">
        <ele>390</ele>
        <time>2016-01-31T10:13:14.000Z</time>
      </trkpt>
      <trkpt lat="47.43971" lon="6.8068">
        <ele>390</ele>
        <time>2016-01-31T10:13:15.000Z</time>
      </trkpt>
      <trkpt lat="47.4397" lon="6.80675">
        <ele>390</ele>
        <time>2016-01-31T10:13:16.000Z</time>
      </trkpt>
      <trkpt lat="47.4397" lon="6.80671">
        <ele>390</ele>
        <time>2016-01-31T10:13:17.000Z</time>
      </trkpt>
      <trkpt lat="47.43969" lon="6.80667">
        <ele>391</ele>
        <time>2016-01-31T10:13:18.000Z</time>
      </trkpt>
      <trkpt lat="47.43968" lon="6.80662">
        <ele>391</ele>
        <time>2016-01-31T10:13:19.000Z</time>
      </trkpt>
      <trkpt lat="47.43968" lon="6.80658">
        <ele>391</ele>
        <time>2016-01-31T10:13:20.000Z</time>
      </trkpt>
      <trkpt lat="47.43968" lon="6.80654">
        <ele>391</ele>
        <time>2016-01-31T10:13:21.000Z</time>
      </trkpt>
      <trkpt lat="47.43968" lon="6.8065">
        <ele>391</ele>
        <time>2016-01-31T10:13:22.000Z</time>
      </trkpt>
      <trkpt lat="47.43968" lon="6.80646">
        <ele>391</ele>
        <time>2016-01-31T10:13:23.000Z</time>
      </trkpt>
      <trkpt lat="47.43969" lon="6.80642">
        <ele>391</ele>
        <time>2016-01-31T10:13:24.000Z</time>
      </trkpt>
      <trkpt lat="47.43969" lon="6.80637">
        <ele>391</ele>
        <time>2016-01-31T10:13:25.000Z</time>
      </trkpt>
      <trkpt lat="47.4397" lon="6.80633">
        <ele>391</ele>
        <time>2016-01-31T10:13:26.000Z</time>
      </trkpt>
      <trkpt lat="47.43971" lon="6.80629">
        <ele>391</ele>
        <time>2016-01-31T10:13:27.000Z</time>
      </trkpt>
      <trkpt lat="47.43972" lon="6.80624">
        <ele>391</ele>
        <time>2016-01-31T10:13:28.000Z</time>
      </trkpt>
      <trkpt lat="47.43973" lon="6.8062">
        <ele>391</ele>
        <time>2016-01-31T10:13:29.000Z</time>
      </trkpt>
      <trkpt lat="47.43975" lon="6.80615">
        <ele>391</ele>
        <time>2016-01-31T10:13:30.000Z</time>
      </trkpt>
      <trkpt lat="47.43976" lon="6.8061">
        <ele>391</ele>
        <time>2016-01-31T10:13:31.000Z</time>
      </trkpt>
      <trkpt lat="47.43977" lon="6.80605">
        <ele>390</ele>
        <time>2016-01-31T10:13:32.000Z</time>
      </trkpt>
      <trkpt lat="47.43977" lon="6.80599">
        <ele>390</ele>
        <time>2016-01-31T10:13:33.000Z</time>
      </trkpt>
      <trkpt lat="47.43977" lon="6.80594">
        <ele>390</ele>
        <time>2016-01-31T10:13:34.000Z</time>
      </trkpt>
      <trkpt lat="47.43976" lon="6.80589">
        <ele>390</ele>
        <time>2016-01-31T10:13:35.000Z</time>
      </trkpt>
      <trkpt lat="47.43974" lon="6.80585">
        <ele>390</ele>
        <time>2016-01-31T10:13:36.000Z</time>
      </trkpt>
      <trkpt lat="47.43972" lon="6.8058">
        <ele>390</ele>
        <time>2016-01-31T10:13:37.000Z</time>
      </trkpt>
      <trkpt lat="47.4397" lon="6.80576">
        <ele>391</ele>
        <time>2016-01-31T10:13:38.000Z</time>
      </trkpt>
      <trkpt lat="47.43968" lon="6.80571">
        <ele>391</ele>
        <time>2016-01-31T10:13:39.000Z</time>
      </trkpt>
      <trkpt lat="47.43965" lon="6.80566">
        <ele>391</ele>
        <time>2016-01-31T10:13:40.000Z</time>
      </trkpt>
      <trkpt lat="47.43963" lon="6.80561">
        <ele>391</ele>
        <time>2016-01-31T10:13:41.000Z</time>
      </trkpt>
      <trkpt lat="47.4396" lon="6.80556">
        <ele>391</ele>
        <time>2016-01-31T10:13:42.000Z</time>
      </trkpt>
      <trkpt lat="47.43957" lon="6.80552">
        <ele>392</ele>
        <time>2016-01-31T10:13:43.000Z</time>
      </trkpt>
      <trkpt lat="47.43954" lon="6.80547">
        <ele>392</ele>
        <time>2016-01-31T10:13:44.000Z</time>
      </trkpt>
      <trkpt lat="47.43952" lon="6.80542">
        <ele>392</ele>
        <time>2016-01-31T10:13:45.000Z</time>
      </trkpt>
      <trkpt lat="47.4395" lon="6.80537">
        <ele>392</ele>
        <time>2016-01-31T10:13:46.000Z</time>
      </trkpt>
      <trkpt lat="47.43949" lon="6.80531">
        <ele>392</ele>
        <time>2016-01-31T10:13:47.000Z</time>
      </trkpt>
      <trkpt lat="47.43949" lon="6.80524">
        <ele>392</ele>
        <time>2016-01-31T10:13:48.000Z</time>
      </trkpt>
      <trkpt lat="47.4395" lon="6.80518">
        <ele>392</ele>
        <time>2016-01-31T10:13:49.000Z</time>
      </trkpt>
      <trkpt lat="47.43952" lon="6.80513">
        <ele>392</ele>
        <time>2016-01-31T10:13:50.000Z</time>
      </trkpt>
      <trkpt lat="47.43954" lon="6.80508">
        <ele>392</ele>
        <time>2016-01-31T10:13:51.000Z</time>
      </trkpt>
      <trkpt lat="47.43957" lon="6.80503">
        <ele>392</ele>
        <time>2016-01-31T10:13:52.000Z</time>
      </trkpt>
      <trkpt lat="47.43959" lon="6.80499">
        <ele>397</ele>
        <time>2016-01-31T10:13:53.000Z</time>
      </trkpt>
      <trkpt lat="47.43961" lon="6.80496">
        <ele>397</ele>
        <time>2016-01-31T10:13:54.000Z</time>
      </trkpt>
      <trkpt lat="47.43963" lon="6.80493">
        <ele>397</ele>
        <time>2016-01-31T10:13:55.000Z</time>
      </trkpt>
      <trkpt lat="47.43965" lon="6.8049">
        <ele>397</ele>
        <time>2016-01-31T10:13:56.000Z</time>
      </trkpt>
      <trkpt lat="47.43966" lon="6.80488">
        <ele>397</ele>
        <time>2016-01-31T10:13:57.000Z</time>
      </trkpt>
      <trkpt lat="47.43969" lon="6.80484">
        <ele>397</ele>
        <time>2016-01-31T10:13:59.000Z</time>
      </trkpt>
      <trkpt lat="47.43971" lon="6.80482">
        <ele>397</ele>
        <time>2016-01-31T10:14:00.000Z</time>
      </trkpt>
      <trkpt lat="47.43973" lon="6.8048">
        <ele>397</ele>
        <time>2016-01-31T10:14:01.000Z</time>
      </trkpt>
      <trkpt lat="47.43975" lon="6.80477">
        <ele>397</ele>
        <time>2016-01-31T10:14:02.000Z</time>
      </trkpt>
      <trkpt lat="47.43978" lon="6.80474">
        <ele>397</ele>
        <time>2016-01-31T10:14:04.000Z</time>
      </trkpt>
      <trkpt lat="47.43979" lon="6.80472">
        <ele>397</ele>
        <time>2016-01-31T10:14:05.000Z</time>
      </trkpt>
      <trkpt lat="47.43982" lon="6.80469">
        <ele>398</ele>
        <time>2016-01-31T10:14:08.000Z</time>
      </trkpt>
      <trkpt lat="47.43983" lon="6.80467">
        <ele>398</ele>
        <time>2016-01-31T10:14:09.000Z</time>
      </trkpt>
      <trkpt lat="47.43985" lon="6.80462">
        <ele>399</ele>
        <time>2016-01-31T10:14:14.000Z</time>
      </trkpt>
      <trkpt lat="47.43986" lon="6.80461">
        <ele>399</ele>
        <time>2016-01-31T10:14:15.000Z</time>
      </trkpt>
      <trkpt lat="47.43989" lon="6.80458">
        <ele>399</ele>
        <time>2016-01-31T10:14:17.000Z</time>
      </trkpt>
      <trkpt lat="47.43992" lon="6.80457">
        <ele>399</ele>
        <time>2016-01-31T10:14:18.000Z</time>
      </trkpt>
      <trkpt lat="47.43995" lon="6.80456">
        <ele>399</ele>
        <time>2016-01-31T10:14:19.000Z</time>
      </trkpt>
      <trkpt lat="47.43998" lon="6.80455">
        <ele>399</ele>
        <time>2016-01-31T10:14:20.000Z</time>
      </trkpt>
      <trkpt lat="47.44001" lon="6.80453">
        <ele>393</ele>
        <time>2016-01-31T10:14:21.000Z</time>
      </trkpt>
      <trkpt lat="47.44003" lon="6.80452">
        <ele>393</ele>
        <time>2016-01-31T10:14:22.000Z</time>
      </trkpt>
      <trkpt lat="47.44006" lon="6.8045">
        <ele>393</ele>
        <time>2016-01-31T10:14:23.000Z</time>
      </trkpt>
      <trkpt lat="47.44009" lon="6.80448">
        <ele>393</ele>
        <time>2016-01-31T10:14:24.000Z</time>
      </trkpt>
      <trkpt lat="47.44012" lon="6.80446">
        <ele>394</ele>
        <time>2016-01-31T10:14:25.000Z</time>
      </trkpt>
      <trkpt lat="47.44016" lon="6.80437">
        <ele>394</ele>
        <time>2016-01-31T10:14:26.000Z</time>
      </trkpt>
      <trkpt lat="47.44019" lon="6.80434">
        <ele>395</ele>
        <time>2016-01-31T10:14:27.000Z</time>
      </trkpt>
      <trkpt lat="47.4402" lon="6.80428">
        <ele>395</ele>
        <time>2016-01-31T10:14:28.000Z</time>
      </trkpt>
      <trkpt lat="47.44022" lon="6.80425">
        <ele>395</ele>
        <time>2016-01-31T10:14:29.000Z</time>
      </trkpt>
      <trkpt lat="47.44024" lon="6.80422">
        <ele>395</ele>
        <time>2016-01-31T10:14:30.000Z</time>
      </trkpt>
      <trkpt lat="47.44027" lon="6.8042">
        <ele>394</ele>
        <time>2016-01-31T10:14:31.000Z</time>
      </trkpt>
      <trkpt lat="47.44028" lon="6.80416">
        <ele>399</ele>
        <time>2016-01-31T10:14:32.000Z</time>
      </trkpt>
      <trkpt lat="47.44029" lon="6.80412">
        <ele>399</ele>
        <time>2016-01-31T10:14:33.000Z</time>
      </trkpt>
      <trkpt lat="47.4403" lon="6.80408">
        <ele>399</ele>
        <time>2016-01-31T10:14:34.000Z</time>
      </trkpt>
      <trkpt lat="47.44032" lon="6.80403">
        <ele>398</ele>
        <time>2016-01-31T10:14:35.000Z</time>
      </trkpt>
      <trkpt lat="47.44033" lon="6.80399">
        <ele>398</ele>
        <time>2016-01-31T10:14:36.000Z</time>
      </trkpt>
      <trkpt lat="47.44035" lon="6.80397">
        <ele>398</ele>
        <time>2016-01-31T10:14:37.000Z</time>
      </trkpt>
      <trkpt lat="47.44037" lon="6.80395">
        <ele>398</ele>
        <time>2016-01-31T10:14:38.000Z</time>
      </trkpt>
      <trkpt lat="47.44039" lon="6.80392">
        <ele>397</ele>
        <time>2016-01-31T10:14:39.000Z</time>
      </trkpt>
      <trkpt lat="47.44042" lon="6.80389">
        <ele>397</ele>
        <time>2016-01-31T10:14:40.000Z</time>
      </trkpt>
      <trkpt lat="47.44044" lon="6.80386">
        <ele>397</ele>
        <time>2016-01-31T10:14:41.000Z</time>
      </trkpt>
      <trkpt lat="47.44046" lon="6.80382">
        <ele>397</ele>
        <time>2016-01-31T10:14:42.000Z</time>
      </trkpt>
      <trkpt lat="47.44048" lon="6.80379">
        <ele>397</ele>
        <time>2016-01-31T10:14:43.000Z</time>
      </trkpt>
      <trkpt lat="47.4405" lon="6.80376">
        <ele>397</ele>
        <time>2016-01-31T10:14:44.000Z</time>
      </trkpt>
      <trkpt lat="47.44051" lon="6.80373">
        <ele>396</ele>
        <time>2016-01-31T10:14:45.000Z</time>
      </trkpt>
      <trkpt lat="47.44053" lon="6.8037">
        <ele>396</ele>
        <time>2016-01-31T10:14:46.000Z</time>
      </trkpt>
      <trkpt lat="47.44056" lon="6.80365">
        <ele>396</ele>
        <time>2016-01-31T10:14:48.000Z</time>
      </trkpt>
      <trkpt lat="47.44057" lon="6.80363">
        <ele>396</ele>
        <time>2016-01-31T10:14:49.000Z</time>
      </trkpt>
      <trkpt lat="47.44059" lon="6.80358">
        <ele>396</ele>
        <time>2016-01-31T10:14:51.000Z</time>
      </trkpt>
      <trkpt lat="47.4406" lon="6.80356">
        <ele>396</ele>
        <time>2016-01-31T10:14:52.000Z</time>
      </trkpt>
      <trkpt lat="47.44063" lon="6.80353">
        <ele>395</ele>
        <time>2016-01-31T10:14:54.000Z</time>
      </trkpt>
      <trkpt lat="47.44064" lon="6.80351">
        <ele>395</ele>
        <time>2016-01-31T10:14:55.000Z</time>
      </trkpt>
      <trkpt lat="47.44067" lon="6.80349">
        <ele>395</ele>
        <time>2016-01-31T10:14:57.000Z</time>
      </trkpt>
      <trkpt lat="47.44069" lon="6.80346">
        <ele>395</ele>
        <time>2016-01-31T10:14:58.000Z</time>
      </trkpt>
      <trkpt lat="47.44071" lon="6.80342">
        <ele>394</ele>
        <time>2016-01-31T10:15:00.000Z</time>
      </trkpt>
      <trkpt lat="47.44071" lon="6.8034">
        <ele>394</ele>
        <time>2016-01-31T10:15:01.000Z</time>
      </trkpt>
      <trkpt lat="47.44074" lon="6.80334">
        <ele>393</ele>
        <time>2016-01-31T10:15:04.000Z</time>
      </trkpt>
      <trkpt lat="47.44074" lon="6.80332">
        <ele>395</ele>
        <time>2016-01-31T10:15:05.000Z</time>
      </trkpt>
      <trkpt lat="47.44077" lon="6.80327">
        <ele>395</ele>
        <time>2016-01-31T10:15:08.000Z</time>
      </trkpt>
      <trkpt lat="47.44078" lon="6.80325">
        <ele>395</ele>
        <time>2016-01-31T10:15:09.000Z</time>
      </trkpt>
      <trkpt lat="47.44079" lon="6.80319">
        <ele>396</ele>
        <time>2016-01-31T10:15:11.000Z</time>
      </trkpt>
      <trkpt lat="47.44079" lon="6.80316">
        <ele>397</ele>
        <time>2016-01-31T10:15:12.000Z</time>
      </trkpt>
      <trkpt lat="47.44079" lon="6.80311">
        <ele>398</ele>
        <time>2016-01-31T10:15:14.000Z</time>
      </trkpt>
      <trkpt lat="47.44079" lon="6.80308">
        <ele>399</ele>
        <time>2016-01-31T10:15:15.000Z</time>
      </trkpt>
      <trkpt lat="47.44079" lon="6.80303">
        <ele>399</ele>
        <time>2016-01-31T10:15:17.000Z</time>
      </trkpt>
      <trkpt lat="47.4408" lon="6.803">
        <ele>399</ele>
        <time>2016-01-31T10:15:18.000Z</time>
      </trkpt>
      <trkpt lat="47.44081" lon="6.80294">
        <ele>400</ele>
        <time>2016-01-31T10:15:21.000Z</time>
      </trkpt>
      <trkpt lat="47.44081" lon="6.80293">
        <ele>400</ele>
        <time>2016-01-31T10:15:22.000Z</time>
      </trkpt>
      <trkpt lat="47.44082" lon="6.80288">
        <ele>400</ele>
        <time>2016-01-31T10:15:24.000Z</time>
      </trkpt>
      <trkpt lat="47.44083" lon="6.80285">
        <ele>400</ele>
        <time>2016-01-31T10:15:25.000Z</time>
      </trkpt>
      <trkpt lat="47.44084" lon="6.80279">
        <ele>392</ele>
        <time>2016-01-31T10:15:27.000Z</time>
      </trkpt>
      <trkpt lat="47.44084" lon="6.80276">
        <ele>392</ele>
        <time>2016-01-31T10:15:28.000Z</time>
      </trkpt>
      <trkpt lat="47.44085" lon="6.8027">
        <ele>393</ele>
        <time>2016-01-31T10:15:30.000Z</time>
      </trkpt>
      <trkpt lat="47.44086" lon="6.80267">
        <ele>393</ele>
        <time>2016-01-31T10:15:31.000Z</time>
      </trkpt>
      <trkpt lat="47.44087" lon="6.80261">
        <ele>394</ele>
        <time>2016-01-31T10:15:33.000Z</time>
      </trkpt>
      <trkpt lat="47.44087" lon="6.80258">
        <ele>394</ele>
        <time>2016-01-31T10:15:34.000Z</time>
      </trkpt>
      <trkpt lat="47.44088" lon="6.80253">
        <ele>395</ele>
        <time>2016-01-31T10:15:36.000Z</time>
      </trkpt>
      <trkpt lat="47.44089" lon="6.8025">
        <ele>395</ele>
        <time>2016-01-31T10:15:37.000Z</time>
      </trkpt>
      <trkpt lat="47.44091" lon="6.80245">
        <ele>396</ele>
        <time>2016-01-31T10:15:39.000Z</time>
      </trkpt>
      <trkpt lat="47.44092" lon="6.80243">
        <ele>396</ele>
        <time>2016-01-31T10:15:40.000Z</time>
      </trkpt>
      <trkpt lat="47.44096" lon="6.80238">
        <ele>396</ele>
        <time>2016-01-31T10:15:42.000Z</time>
      </trkpt>
      <trkpt lat="47.44097" lon="6.80236">
        <ele>396</ele>
        <time>2016-01-31T10:15:43.000Z</time>
      </trkpt>
      <trkpt lat="47.44099" lon="6.80231">
        <ele>396</ele>
        <time>2016-01-31T10:15:45.000Z</time>
      </trkpt>
      <trkpt lat="47.44099" lon="6.80228">
        <ele>396</ele>
        <time>2016-01-31T10:15:46.000Z</time>
      </trkpt>
      <trkpt lat="47.44102" lon="6.80224">
        <ele>396</ele>
        <time>2016-01-31T10:15:52.000Z</time>
      </trkpt>
      <trkpt lat="47.44104" lon="6.80226">
        <ele>396</ele>
        <time>2016-01-31T10:15:53.000Z</time>
      </trkpt>
      <trkpt lat="47.44107" lon="6.80229">
        <ele>396</ele>
        <time>2016-01-31T10:15:54.000Z</time>
      </trkpt>
      <trkpt lat="47.4411" lon="6.80232">
        <ele>396</ele>
        <time>2016-01-31T10:15:55.000Z</time>
      </trkpt>
      <trkpt lat="47.44114" lon="6.80234">
        <ele>396</ele>
        <time>2016-01-31T10:15:56.000Z</time>
      </trkpt>
      <trkpt lat="47.44118" lon="6.80237">
        <ele>395</ele>
        <time>2016-01-31T10:15:57.000Z</time>
      </trkpt>
      <trkpt lat="47.44122" lon="6.80239">
        <ele>395</ele>
        <time>2016-01-31T10:15:58.000Z</time>
      </trkpt>
      <trkpt lat="47.44126" lon="6.8024">
        <ele>395</ele>
        <time>2016-01-31T10:15:59.000Z</time>
      </trkpt>
      <trkpt lat="47.44129" lon="6.80243">
        <ele>395</ele>
        <time>2016-01-31T10:16:00.000Z</time>
      </trkpt>
      <trkpt lat="47.44132" lon="6.80245">
        <ele>394</ele>
        <time>2016-01-31T10:16:01.000Z</time>
      </trkpt>
      <trkpt lat="47.44135" lon="6.80247">
        <ele>394</ele>
        <time>2016-01-31T10:16:02.000Z</time>
      </trkpt>
      <trkpt lat="47.44138" lon="6.8025">
        <ele>394</ele>
        <time>2016-01-31T10:16:03.000Z</time>
      </trkpt>
      <trkpt lat="47.44141" lon="6.80252">
        <ele>390</ele>
        <time>2016-01-31T10:16:04.000Z</time>
      </trkpt>
      <trkpt lat="47.44145" lon="6.80254">
        <ele>390</ele>
        <time>2016-01-31T10:16:05.000Z</time>
      </trkpt>
      <trkpt lat="47.44154" lon="6.80253">
        <ele>389</ele>
        <time>2016-01-31T10:16:06.000Z</time>
      </trkpt>
      <trkpt lat="47.44161" lon="6.80255">
        <ele>389</ele>
        <time>2016-01-31T10:16:07.000Z</time>
      </trkpt>
      <trkpt lat="47.44168" lon="6.80258">
        <ele>387</ele>
        <time>2016-01-31T10:16:08.000Z</time>
      </trkpt>
      <trkpt lat="47.44175" lon="6.80261">
        <ele>386</ele>
        <time>2016-01-31T10:16:09.000Z</time>
      </trkpt>
      <trkpt lat="47.44181" lon="6.80263">
        <ele>386</ele>
        <time>2016-01-31T10:16:10.000Z</time>
      </trkpt>
      <trkpt lat="47.44186" lon="6.80265">
        <ele>385</ele>
        <time>2016-01-31T10:16:11.000Z</time>
      </trkpt>
      <trkpt lat="47.4419" lon="6.80267">
        <ele>385</ele>
        <time>2016-01-31T10:16:12.000Z</time>
      </trkpt>
      <trkpt lat="47.44194" lon="6.80268">
        <ele>384</ele>
        <time>2016-01-31T10:16:13.000Z</time>
      </trkpt>
      <trkpt lat="47.44198" lon="6.80268">
        <ele>384</ele>
        <time>2016-01-31T10:16:14.000Z</time>
      </trkpt>
      <trkpt lat="47.44202" lon="6.80267">
        <ele>384</ele>
        <time>2016-01-31T10:16:15.000Z</time>
      </trkpt>
      <trkpt lat="47.44204" lon="6.80265">
        <ele>384</ele>
        <time>2016-01-31T10:16:16.000Z</time>
      </trkpt>
      <trkpt lat="47.44207" lon="6.80263">
        <ele>384</ele>
        <time>2016-01-31T10:16:17.000Z</time>
      </trkpt>
      <trkpt lat="47.44211" lon="6.80263">
        <ele>383</ele>
        <time>2016-01-31T10:16:19.000Z</time>
      </trkpt>
      <trkpt lat="47.44213" lon="6.80261">
        <ele>383</ele>
        <time>2016-01-31T10:16:20.000Z</time>
      </trkpt>
      <trkpt lat="47.44215" lon="6.80261">
        <ele>383</ele>
        <time>2016-01-31T10:16:21.000Z</time>
      </trkpt>
      <trkpt lat="47.44217" lon="6.80261">
        <ele>383</ele>
        <time>2016-01-31T10:16:22.000Z</time>
      </trkpt>
      <trkpt lat="47.44219" lon="6.80261">
        <ele>383</ele>
        <time>2016-01-31T10:16:23.000Z</time>
      </trkpt>
      <trkpt lat="47.44222" lon="6.80261">
        <ele>383</ele>
        <time>2016-01-31T10:16:24.000Z</time>
      </trkpt>
      <trkpt lat="47.44225" lon="6.80262">
        <ele>383</ele>
        <time>2016-01-31T10:16:25.000Z</time>
      </trkpt>
      <trkpt lat="47.44227" lon="6.80263">
        <ele>383</ele>
        <time>2016-01-31T10:16:26.000Z</time>
      </trkpt>
      <trkpt lat="47.4423" lon="6.80264">
        <ele>383</ele>
        <time>2016-01-31T10:16:27.000Z</time>
      </trkpt>
      <trkpt lat="47.44232" lon="6.80264">
        <ele>383</ele>
        <time>2016-01-31T10:16:28.000Z</time>
      </trkpt>
      <trkpt lat="47.44235" lon="6.80262">
        <ele>383</ele>
        <time>2016-01-31T10:16:29.000Z</time>
      </trkpt>
      <trkpt lat="47.44238" lon="6.8026">
        <ele>383</ele>
        <time>2016-01-31T10:16:30.000Z</time>
      </trkpt>
      <trkpt lat="47.44241" lon="6.80258">
        <ele>383</ele>
        <time>2016-01-31T10:16:31.000Z</time>
      </trkpt>
      <trkpt lat="47.44244" lon="6.80257">
        <ele>383</ele>
        <time>2016-01-31T10:16:32.000Z</time>
      </trkpt>
      <trkpt lat="47.44247" lon="6.80255">
        <ele>383</ele>
        <time>2016-01-31T10:16:33.000Z</time>
      </trkpt>
      <trkpt lat="47.44249" lon="6.80254">
        <ele>383</ele>
        <time>2016-01-31T10:16:34.000Z</time>
      </trkpt>
      <trkpt lat="47.44252" lon="6.80252">
        <ele>382</ele>
        <time>2016-01-31T10:16:35.000Z</time>
      </trkpt>
      <trkpt lat="47.44254" lon="6.80251">
        <ele>382</ele>
        <time>2016-01-31T10:16:36.000Z</time>
      </trkpt>
      <trkpt lat="47.44256" lon="6.80249">
        <ele>383</ele>
        <time>2016-01-31T10:16:37.000Z</time>
      </trkpt>
      <trkpt lat="47.44259" lon="6.80248">
        <ele>383</ele>
        <time>2016-01-31T10:16:38.000Z</time>
      </trkpt>
      <trkpt lat="47.44261" lon="6.80244">
        <ele>382</ele>
        <time>2016-01-31T10:16:40.000Z</time>
      </trkpt>
      <trkpt lat="47.44262" lon="6.80242">
        <ele>382</ele>
        <time>2016-01-31T10:16:41.000Z</time>
      </trkpt>
      <trkpt lat="47.44262" lon="6.80238">
        <ele>382</ele>
        <time>2016-01-31T10:16:42.000Z</time>
      </trkpt>
      <trkpt lat="47.44262" lon="6.80235">
        <ele>382</ele>
        <time>2016-01-31T10:16:43.000Z</time>
      </trkpt>
      <trkpt lat="47.44262" lon="6.80231">
        <ele>382</ele>
        <time>2016-01-31T10:16:44.000Z</time>
      </trkpt>
      <trkpt lat="47.44262" lon="6.80227">
        <ele>382</ele>
        <time>2016-01-31T10:16:45.000Z</time>
      </trkpt>
      <trkpt lat="47.44262" lon="6.80222">
        <ele>382</ele>
        <time>2016-01-31T10:16:47.000Z</time>
      </trkpt>
      <trkpt lat="47.44262" lon="6.80219">
        <ele>382</ele>
        <time>2016-01-31T10:16:48.000Z</time>
      </trkpt>
      <trkpt lat="47.44264" lon="6.80214">
        <ele>382</ele>
        <time>2016-01-31T10:16:51.000Z</time>
      </trkpt>
      <trkpt lat="47.44264" lon="6.80213">
        <ele>383</ele>
        <time>2016-01-31T10:16:52.000Z</time>
      </trkpt>
      <trkpt lat="47.44265" lon="6.80207">
        <ele>383</ele>
        <time>2016-01-31T10:16:55.000Z</time>
      </trkpt>
      <trkpt lat="47.44265" lon="6.80206">
        <ele>383</ele>
        <time>2016-01-31T10:16:56.000Z</time>
      </trkpt>
      <trkpt lat="47.44264" lon="6.80199">
        <ele>383</ele>
        <time>2016-01-31T10:17:00.000Z</time>
      </trkpt>
      <trkpt lat="47.44264" lon="6.80197">
        <ele>383</ele>
        <time>2016-01-31T10:17:01.000Z</time>
      </trkpt>
      <trkpt lat="47.44264" lon="6.80192">
        <ele>384</ele>
        <time>2016-01-31T10:17:03.000Z</time>
      </trkpt>
      <trkpt lat="47.44265" lon="6.80189">
        <ele>384</ele>
        <time>2016-01-31T10:17:04.000Z</time>
      </trkpt>
      <trkpt lat="47.44266" lon="6.80183">
        <ele>384</ele>
        <time>2016-01-31T10:17:06.000Z</time>
      </trkpt>
      <trkpt lat="47.44267" lon="6.80181">
        <ele>384</ele>
        <time>2016-01-31T10:17:07.000Z</time>
      </trkpt>
      <trkpt lat="47.4427" lon="6.80175">
        <ele>384</ele>
        <time>2016-01-31T10:17:09.000Z</time>
      </trkpt>
      <trkpt lat="47.44271" lon="6.80173">
        <ele>384</ele>
        <time>2016-01-31T10:17:10.000Z</time>
      </trkpt>
      <trkpt lat="47.44273" lon="6.8017">
        <ele>384</ele>
        <time>2016-01-31T10:17:11.000Z</time>
      </trkpt>
      <trkpt lat="47.44275" lon="6.80167">
        <ele>384</ele>
        <time>2016-01-31T10:17:12.000Z</time>
      </trkpt>
      <trkpt lat="47.44277" lon="6.80164">
        <ele>386</ele>
        <time>2016-01-31T10:17:13.000Z</time>
      </trkpt>
      <trkpt lat="47.44279" lon="6.80161">
        <ele>386</ele>
        <time>2016-01-31T10:17:14.000Z</time>
      </trkpt>
      <trkpt lat="47.44281" lon="6.80158">
        <ele>386</ele>
        <time>2016-01-31T10:17:15.000Z</time>
      </trkpt>
      <trkpt lat="47.44283" lon="6.80154">
        <ele>386</ele>
        <time>2016-01-31T10:17:16.000Z</time>
      </trkpt>
      <trkpt lat="47.44285" lon="6.8015">
        <ele>386</ele>
        <time>2016-01-31T10:17:17.000Z</time>
      </trkpt>
      <trkpt lat="47.44286" lon="6.80146">
        <ele>386</ele>
        <time>2016-01-31T10:17:18.000Z</time>
      </trkpt>
      <trkpt lat="47.44288" lon="6.80142">
        <ele>386</ele>
        <time>2016-01-31T10:17:19.000Z</time>
      </trkpt>
      <trkpt lat="47.4429" lon="6.80138">
        <ele>386</ele>
        <time>2016-01-31T10:17:20.000Z</time>
      </trkpt>
      <trkpt lat="47.44292" lon="6.80134">
        <ele>386</ele>
        <time>2016-01-31T10:17:21.000Z</time>
      </trkpt>
      <trkpt lat="47.44294" lon="6.8013">
        <ele>386</ele>
        <time>2016-01-31T10:17:22.000Z</time>
      </trkpt>
      <trkpt lat="47.44295" lon="6.80126">
        <ele>386</ele>
        <time>2016-01-31T10:17:23.000Z</time>
      </trkpt>
      <trkpt lat="47.44297" lon="6.80123">
        <ele>386</ele>
        <time>2016-01-31T10:17:24.000Z</time>
      </trkpt>
      <trkpt lat="47.44298" lon="6.80118">
        <ele>386</ele>
        <time>2016-01-31T10:17:25.000Z</time>
      </trkpt>
      <trkpt lat="47.443" lon="6.80113">
        <ele>386</ele>
        <time>2016-01-31T10:17:26.000Z</time>
      </trkpt>
      <trkpt lat="47.44301" lon="6.80108">
        <ele>386</ele>
        <time>2016-01-31T10:17:27.000Z</time>
      </trkpt>
      <trkpt lat="47.44301" lon="6.80103">
        <ele>386</ele>
        <time>2016-01-31T10:17:28.000Z</time>
      </trkpt>
      <trkpt lat="47.44302" lon="6.80099">
        <ele>386</ele>
        <time>2016-01-31T10:17:29.000Z</time>
      </trkpt>
      <trkpt lat="47.44302" lon="6.80094">
        <ele>386</ele>
        <time>2016-01-31T10:17:30.000Z</time>
      </trkpt>
      <trkpt lat="47.44303" lon="6.8009">
        <ele>386</ele>
        <time>2016-01-31T10:17:31.000Z</time>
      </trkpt>
      <trkpt lat="47.44303" lon="6.80086">
        <ele>385</ele>
        <time>2016-01-31T10:17:32.000Z</time>
      </trkpt>
      <trkpt lat="47.44304" lon="6.80082">
        <ele>388</ele>
        <time>2016-01-31T10:17:33.000Z</time>
      </trkpt>
      <trkpt lat="47.44305" lon="6.80079">
        <ele>388</ele>
        <time>2016-01-31T10:17:34.000Z</time>
      </trkpt>
      <trkpt lat="47.44305" lon="6.80075">
        <ele>388</ele>
        <time>2016-01-31T10:17:35.000Z</time>
      </trkpt>
      <trkpt lat="47.44306" lon="6.80071">
        <ele>388</ele>
        <time>2016-01-31T10:17:36.000Z</time>
      </trkpt>
      <trkpt lat="47.44307" lon="6.80068">
        <ele>388</ele>
        <time>2016-01-31T10:17:37.000Z</time>
      </trkpt>
      <trkpt lat="47.44308" lon="6.80064">
        <ele>388</ele>
        <time>2016-01-31T10:17:38.000Z</time>
      </trkpt>
      <trkpt lat="47.44308" lon="6.80059">
        <ele>389</ele>
        <time>2016-01-31T10:17:39.000Z</time>
      </trkpt>
      <trkpt lat="47.44309" lon="6.80055">
        <ele>389</ele>
        <time>2016-01-31T10:17:40.000Z</time>
      </trkpt>
      <trkpt lat="47.4431" lon="6.8005">
        <ele>389</ele>
        <time>2016-01-31T10:17:41.000Z</time>
      </trkpt>
      <trkpt lat="47.4431" lon="6.80046">
        <ele>389</ele>
        <time>2016-01-31T10:17:42.000Z</time>
      </trkpt>
      <trkpt lat="47.44311" lon="6.80042">
        <ele>389</ele>
        <time>2016-01-31T10:17:43.000Z</time>
      </trkpt>
      <trkpt lat="47.44311" lon="6.80037">
        <ele>389</ele>
        <time>2016-01-31T10:17:44.000Z</time>
      </trkpt>
      <trkpt lat="47.44312" lon="6.80034">
        <ele>389</ele>
        <time>2016-01-31T10:17:45.000Z</time>
      </trkpt>
      <trkpt lat="47.44313" lon="6.8003">
        <ele>389</ele>
        <time>2016-01-31T10:17:46.000Z</time>
      </trkpt>
      <trkpt lat="47.44314" lon="6.80027">
        <ele>389</ele>
        <time>2016-01-31T10:17:47.000Z</time>
      </trkpt>
      <trkpt lat="47.44315" lon="6.80024">
        <ele>389</ele>
        <time>2016-01-31T10:17:48.000Z</time>
      </trkpt>
      <trkpt lat="47.44316" lon="6.80021">
        <ele>389</ele>
        <time>2016-01-31T10:17:49.000Z</time>
      </trkpt>
      <trkpt lat="47.44316" lon="6.80017">
        <ele>388</ele>
        <time>2016-01-31T10:17:50.000Z</time>
      </trkpt>
      <trkpt lat="47.44316" lon="6.80012">
        <ele>388</ele>
        <time>2016-01-31T10:17:51.000Z</time>
      </trkpt>
      <trkpt lat="47.44316" lon="6.80006">
        <ele>388</ele>
        <time>2016-01-31T10:17:52.000Z</time>
      </trkpt>
      <trkpt lat="47.44316" lon="6.80001">
        <ele>388</ele>
        <time>2016-01-31T10:17:53.000Z</time>
      </trkpt>
      <trkpt lat="47.44316" lon="6.79995">
        <ele>391</ele>
        <time>2016-01-31T10:17:54.000Z</time>
      </trkpt>
      <trkpt lat="47.44316" lon="6.7999">
        <ele>391</ele>
        <time>2016-01-31T10:17:55.000Z</time>
      </trkpt>
      <trkpt lat="47.44316" lon="6.79986">
        <ele>392</ele>
        <time>2016-01-31T10:17:56.000Z</time>
      </trkpt>
      <trkpt lat="47.44317" lon="6.79981">
        <ele>392</ele>
        <time>2016-01-31T10:17:57.000Z</time>
      </trkpt>
      <trkpt lat="47.44317" lon="6.79975">
        <ele>393</ele>
        <time>2016-01-31T10:17:58.000Z</time>
      </trkpt>
      <trkpt lat="47.44319" lon="6.79969">
        <ele>393</ele>
        <time>2016-01-31T10:17:59.000Z</time>
      </trkpt>
      <trkpt lat="47.4432" lon="6.79964">
        <ele>394</ele>
        <time>2016-01-31T10:18:00.000Z</time>
      </trkpt>
      <trkpt lat="47.44322" lon="6.79959">
        <ele>394</ele>
        <time>2016-01-31T10:18:01.000Z</time>
      </trkpt>
      <trkpt lat="47.44323" lon="6.79954">
        <ele>394</ele>
        <time>2016-01-31T10:18:02.000Z</time>
      </trkpt>
      <trkpt lat="47.44325" lon="6.7995">
        <ele>394</ele>
        <time>2016-01-31T10:18:03.000Z</time>
      </trkpt>
      <trkpt lat="47.44327" lon="6.79947">
        <ele>394</ele>
        <time>2016-01-31T10:18:04.000Z</time>
      </trkpt>
      <trkpt lat="47.44329" lon="6.79944">
        <ele>393</ele>
        <time>2016-01-31T10:18:05.000Z</time>
      </trkpt>
      <trkpt lat="47.44331" lon="6.79941">
        <ele>393</ele>
        <time>2016-01-31T10:18:06.000Z</time>
      </trkpt>
      <trkpt lat="47.44333" lon="6.79939">
        <ele>393</ele>
        <time>2016-01-31T10:18:07.000Z</time>
      </trkpt>
      <trkpt lat="47.44335" lon="6.79935">
        <ele>385</ele>
        <time>2016-01-31T10:18:08.000Z</time>
      </trkpt>
      <trkpt lat="47.44336" lon="6.79932">
        <ele>385</ele>
        <time>2016-01-31T10:18:09.000Z</time>
      </trkpt>
      <trkpt lat="47.44338" lon="6.79929">
        <ele>385</ele>
        <time>2016-01-31T10:18:10.000Z</time>
      </trkpt>
      <trkpt lat="47.44339" lon="6.79925">
        <ele>386</ele>
        <time>2016-01-31T10:18:11.000Z</time>
      </trkpt>
      <trkpt lat="47.4434" lon="6.79921">
        <ele>386</ele>
        <time>2016-01-31T10:18:12.000Z</time>
      </trkpt>
      <trkpt lat="47.44342" lon="6.79917">
        <ele>386</ele>
        <time>2016-01-31T10:18:13.000Z</time>
      </trkpt>
      <trkpt lat="47.44343" lon="6.79913">
        <ele>387</ele>
        <time>2016-01-31T10:18:14.000Z</time>
      </trkpt>
      <trkpt lat="47.44345" lon="6.79909">
        <ele>387</ele>
        <time>2016-01-31T10:18:15.000Z</time>
      </trkpt>
      <trkpt lat="47.44347" lon="6.79904">
        <ele>386</ele>
        <time>2016-01-31T10:18:16.000Z</time>
      </trkpt>
      <trkpt lat="47.4435" lon="6.79899">
        <ele>386</ele>
        <time>2016-01-31T10:18:17.000Z</time>
      </trkpt>
      <trkpt lat="47.44352" lon="6.79894">
        <ele>386</ele>
        <time>2016-01-31T10:18:18.000Z</time>
      </trkpt>
      <trkpt lat="47.44354" lon="6.79889">
        <ele>385</ele>
        <time>2016-01-31T10:18:19.000Z</time>
      </trkpt>
      <trkpt lat="47.44356" lon="6.79884">
        <ele>385</ele>
        <time>2016-01-31T10:18:20.000Z</time>
      </trkpt>
      <trkpt lat="47.44357" lon="6.79881">
        <ele>385</ele>
        <time>2016-01-31T10:18:21.000Z</time>
      </trkpt>
      <trkpt lat="47.44358" lon="6.79877">
        <ele>385</ele>
        <time>2016-01-31T10:18:22.000Z</time>
      </trkpt>
      <trkpt lat="47.4436" lon="6.79874">
        <ele>385</ele>
        <time>2016-01-31T10:18:23.000Z</time>
      </trkpt>
      <trkpt lat="47.44362" lon="6.79872">
        <ele>385</ele>
        <time>2016-01-31T10:18:24.000Z</time>
      </trkpt>
      <trkpt lat="47.44366" lon="6.79872">
        <ele>385</ele>
        <time>2016-01-31T10:18:25.000Z</time>
      </trkpt>
      <trkpt lat="47.4437" lon="6.79872">
        <ele>384</ele>
        <time>2016-01-31T10:18:26.000Z</time>
      </trkpt>
      <trkpt lat="47.44374" lon="6.79874">
        <ele>384</ele>
        <time>2016-01-31T10:18:27.000Z</time>
      </trkpt>
      <trkpt lat="47.44378" lon="6.79875">
        <ele>383</ele>
        <time>2016-01-31T10:18:28.000Z</time>
      </trkpt>
      <trkpt lat="47.44381" lon="6.79877">
        <ele>383</ele>
        <time>2016-01-31T10:18:29.000Z</time>
      </trkpt>
      <trkpt lat="47.44384" lon="6.79879">
        <ele>383</ele>
        <time>2016-01-31T10:18:30.000Z</time>
      </trkpt>
      <trkpt lat="47.44388" lon="6.7988">
        <ele>382</ele>
        <time>2016-01-31T10:18:31.000Z</time>
      </trkpt>
      <trkpt lat="47.44391" lon="6.79881">
        <ele>382</ele>
        <time>2016-01-31T10:18:32.000Z</time>
      </trkpt>
      <trkpt lat="47.44395" lon="6.79881">
        <ele>382</ele>
        <time>2016-01-31T10:18:33.000Z</time>
      </trkpt>
      <trkpt lat="47.444" lon="6.79882">
        <ele>381</ele>
        <time>2016-01-31T10:18:34.000Z</time>
      </trkpt>
      <trkpt lat="47.44405" lon="6.79883">
        <ele>381</ele>
        <time>2016-01-31T10:18:35.000Z</time>
      </trkpt>
      <trkpt lat="47.4441" lon="6.79884">
        <ele>381</ele>
        <time>2016-01-31T10:18:36.000Z</time>
      </trkpt>
      <trkpt lat="47.4442" lon="6.79885">
        <ele>373</ele>
        <time>2016-01-31T10:18:37.000Z</time>
      </trkpt>
      <trkpt lat="47.44426" lon="6.79888">
        <ele>373</ele>
        <time>2016-01-31T10:18:38.000Z</time>
      </trkpt>
      <trkpt lat="47.44431" lon="6.7989">
        <ele>373</ele>
        <time>2016-01-31T10:18:39.000Z</time>
      </trkpt>
      <trkpt lat="47.44436" lon="6.79891">
        <ele>373</ele>
        <time>2016-01-31T10:18:40.000Z</time>
      </trkpt>
      <trkpt lat="47.44442" lon="6.79893">
        <ele>372</ele>
        <time>2016-01-31T10:18:41.000Z</time>
      </trkpt>
      <trkpt lat="47.44448" lon="6.79896">
        <ele>372</ele>
        <time>2016-01-31T10:18:42.000Z</time>
      </trkpt>
      <trkpt lat="47.44453" lon="6.79897">
        <ele>372</ele>
        <time>2016-01-31T10:18:43.000Z</time>
      </trkpt>
      <trkpt lat="47.44458" lon="6.799">
        <ele>371</ele>
        <time>2016-01-31T10:18:44.000Z</time>
      </trkpt>
      <trkpt lat="47.44464" lon="6.79903">
        <ele>371</ele>
        <time>2016-01-31T10:18:45.000Z</time>
      </trkpt>
      <trkpt lat="47.44469" lon="6.79908">
        <ele>370</ele>
        <time>2016-01-31T10:18:46.000Z</time>
      </trkpt>
      <trkpt lat="47.44476" lon="6.79911">
        <ele>370</ele>
        <time>2016-01-31T10:18:47.000Z</time>
      </trkpt>
      <trkpt lat="47.44483" lon="6.79913">
        <ele>369</ele>
        <time>2016-01-31T10:18:48.000Z</time>
      </trkpt>
      <trkpt lat="47.44489" lon="6.79915">
        <ele>368</ele>
        <time>2016-01-31T10:18:49.000Z</time>
      </trkpt>
      <trkpt lat="47.44495" lon="6.79917">
        <ele>367</ele>
        <time>2016-01-31T10:18:50.000Z</time>
      </trkpt>
      <trkpt lat="47.44502" lon="6.79917">
        <ele>366</ele>
        <time>2016-01-31T10:18:51.000Z</time>
      </trkpt>
      <trkpt lat="47.44509" lon="6.79917">
        <ele>365</ele>
        <time>2016-01-31T10:18:52.000Z</time>
      </trkpt>
      <trkpt lat="47.44516" lon="6.79919">
        <ele>365</ele>
        <time>2016-01-31T10:18:53.000Z</time>
      </trkpt>
      <trkpt lat="47.44523" lon="6.7992">
        <ele>365</ele>
        <time>2016-01-31T10:18:54.000Z</time>
      </trkpt>
      <trkpt lat="47.44531" lon="6.79921">
        <ele>365</ele>
        <time>2016-01-31T10:18:55.000Z</time>
      </trkpt>
      <trkpt lat="47.44539" lon="6.79923">
        <ele>364</ele>
        <time>2016-01-31T10:18:56.000Z</time>
      </trkpt>
      <trkpt lat="47.44546" lon="6.79925">
        <ele>364</ele>
        <time>2016-01-31T10:18:57.000Z</time>
      </trkpt>
      <trkpt lat="47.44552" lon="6.79926">
        <ele>364</ele>
        <time>2016-01-31T10:18:58.000Z</time>
      </trkpt>
      <trkpt lat="47.44559" lon="6.79927">
        <ele>364</ele>
        <time>2016-01-31T10:18:59.000Z</time>
      </trkpt>
      <trkpt lat="47.44565" lon="6.79929">
        <ele>364</ele>
        <time>2016-01-31T10:19:00.000Z</time>
      </trkpt>
      <trkpt lat="47.44572" lon="6.7993">
        <ele>364</ele>
        <time>2016-01-31T10:19:01.000Z</time>
      </trkpt>
      <trkpt lat="47.44579" lon="6.79933">
        <ele>364</ele>
        <time>2016-01-31T10:19:02.000Z</time>
      </trkpt>
      <trkpt lat="47.44585" lon="6.79936">
        <ele>362</ele>
        <time>2016-01-31T10:19:03.000Z</time>
      </trkpt>
      <trkpt lat="47.44591" lon="6.79937">
        <ele>362</ele>
        <time>2016-01-31T10:19:04.000Z</time>
      </trkpt>
      <trkpt lat="47.44597" lon="6.79938">
        <ele>362</ele>
        <time>2016-01-31T10:19:05.000Z</time>
      </trkpt>
      <trkpt lat="47.44603" lon="6.7994">
        <ele>362</ele>
        <time>2016-01-31T10:19:06.000Z</time>
      </trkpt>
      <trkpt lat="47.44609" lon="6.7994">
        <ele>362</ele>
        <time>2016-01-31T10:19:07.000Z</time>
      </trkpt>
      <trkpt lat="47.44615" lon="6.79943">
        <ele>362</ele>
        <time>2016-01-31T10:19:08.000Z</time>
      </trkpt>
      <trkpt lat="47.4462" lon="6.79945">
        <ele>362</ele>
        <time>2016-01-31T10:19:09.000Z</time>
      </trkpt>
      <trkpt lat="47.44624" lon="6.79948">
        <ele>362</ele>
        <time>2016-01-31T10:19:10.000Z</time>
      </trkpt>
      <trkpt lat="47.44628" lon="6.79949">
        <ele>362</ele>
        <time>2016-01-31T10:19:11.000Z</time>
      </trkpt>
      <trkpt lat="47.44632" lon="6.79951">
        <ele>362</ele>
        <time>2016-01-31T10:19:12.000Z</time>
      </trkpt>
      <trkpt lat="47.44636" lon="6.79952">
        <ele>362</ele>
        <time>2016-01-31T10:19:13.000Z</time>
      </trkpt>
      <trkpt lat="47.4464" lon="6.79952">
        <ele>362</ele>
        <time>2016-01-31T10:19:14.000Z</time>
      </trkpt>
      <trkpt lat="47.44644" lon="6.79952">
        <ele>362</ele>
        <time>2016-01-31T10:19:15.000Z</time>
      </trkpt>
      <trkpt lat="47.44647" lon="6.79953">
        <ele>361</ele>
        <time>2016-01-31T10:19:16.000Z</time>
      </trkpt>
      <trkpt lat="47.44651" lon="6.79953">
        <ele>361</ele>
        <time>2016-01-31T10:19:17.000Z</time>
      </trkpt>
      <trkpt lat="47.44655" lon="6.79954">
        <ele>361</ele>
        <time>2016-01-31T10:19:18.000Z</time>
      </trkpt>
      <trkpt lat="47.44659" lon="6.79954">
        <ele>361</ele>
        <time>2016-01-31T10:19:19.000Z</time>
      </trkpt>
      <trkpt lat="47.44664" lon="6.79955">
        <ele>361</ele>
        <time>2016-01-31T10:19:20.000Z</time>
      </trkpt>
      <trkpt lat="47.44669" lon="6.79955">
        <ele>360</ele>
        <time>2016-01-31T10:19:21.000Z</time>
      </trkpt>
      <trkpt lat="47.44674" lon="6.79957">
        <ele>360</ele>
        <time>2016-01-31T10:19:22.000Z</time>
      </trkpt>
      <trkpt lat="47.44678" lon="6.79959">
        <ele>359</ele>
        <time>2016-01-31T10:19:23.000Z</time>
      </trkpt>
      <trkpt lat="47.44684" lon="6.79961">
        <ele>359</ele>
        <time>2016-01-31T10:19:24.000Z</time>
      </trkpt>
      <trkpt lat="47.44689" lon="6.79963">
        <ele>359</ele>
        <time>2016-01-31T10:19:25.000Z</time>
      </trkpt>
      <trkpt lat="47.44694" lon="6.79965">
        <ele>359</ele>
        <time>2016-01-31T10:19:26.000Z</time>
      </trkpt>
      <trkpt lat="47.447" lon="6.79965">
        <ele>359</ele>
        <time>2016-01-31T10:19:27.000Z</time>
      </trkpt>
      <trkpt lat="47.44706" lon="6.79967">
        <ele>359</ele>
        <time>2016-01-31T10:19:28.000Z</time>
      </trkpt>
      <trkpt lat="47.44712" lon="6.79967">
        <ele>359</ele>
        <time>2016-01-31T10:19:29.000Z</time>
      </trkpt>
      <trkpt lat="47.44719" lon="6.79969">
        <ele>359</ele>
        <time>2016-01-31T10:19:30.000Z</time>
      </trkpt>
      <trkpt lat="47.44725" lon="6.79971">
        <ele>359</ele>
        <time>2016-01-31T10:19:31.000Z</time>
      </trkpt>
      <trkpt lat="47.44732" lon="6.79972">
        <ele>359</ele>
        <time>2016-01-31T10:19:32.000Z</time>
      </trkpt>
      <trkpt lat="47.44738" lon="6.79974">
        <ele>359</ele>
        <time>2016-01-31T10:19:33.000Z</time>
      </trkpt>
      <trkpt lat="47.44744" lon="6.79975">
        <ele>358</ele>
        <time>2016-01-31T10:19:34.000Z</time>
      </trkpt>
      <trkpt lat="47.44751" lon="6.79976">
        <ele>357</ele>
        <time>2016-01-31T10:19:35.000Z</time>
      </trkpt>
      <trkpt lat="47.44757" lon="6.79978">
        <ele>357</ele>
        <time>2016-01-31T10:19:36.000Z</time>
      </trkpt>
      <trkpt lat="47.44763" lon="6.7998">
        <ele>357</ele>
        <time>2016-01-31T10:19:37.000Z</time>
      </trkpt>
      <trkpt lat="47.4477" lon="6.79981">
        <ele>356</ele>
        <time>2016-01-31T10:19:38.000Z</time>
      </trkpt>
      <trkpt lat="47.44776" lon="6.79983">
        <ele>356</ele>
        <time>2016-01-31T10:19:39.000Z</time>
      </trkpt>
      <trkpt lat="47.4478" lon="6.79985">
        <ele>356</ele>
        <time>2016-01-31T10:19:40.000Z</time>
      </trkpt>
      <trkpt lat="47.44785" lon="6.79987">
        <ele>356</ele>
        <time>2016-01-31T10:19:41.000Z</time>
      </trkpt>
      <trkpt lat="47.44788" lon="6.79989">
        <ele>356</ele>
        <time>2016-01-31T10:19:42.000Z</time>
      </trkpt>
      <trkpt lat="47.44789" lon="6.79986">
        <ele>356</ele>
        <time>2016-01-31T10:19:43.000Z</time>
      </trkpt>
      <trkpt lat="47.44789" lon="6.7998">
        <ele>356</ele>
        <time>2016-01-31T10:19:47.000Z</time>
      </trkpt>
      <trkpt lat="47.44789" lon="6.79978">
        <ele>356</ele>
        <time>2016-01-31T10:19:48.000Z</time>
      </trkpt>
      <trkpt lat="47.4479" lon="6.79973">
        <ele>356</ele>
        <time>2016-01-31T10:19:50.000Z</time>
      </trkpt>
      <trkpt lat="47.4479" lon="6.7997">
        <ele>356</ele>
        <time>2016-01-31T10:19:51.000Z</time>
      </trkpt>
      <trkpt lat="47.44791" lon="6.79967">
        <ele>356</ele>
        <time>2016-01-31T10:19:52.000Z</time>
      </trkpt>
      <trkpt lat="47.44792" lon="6.79962">
        <ele>356</ele>
        <time>2016-01-31T10:19:53.000Z</time>
      </trkpt>
      <trkpt lat="47.44792" lon="6.79957">
        <ele>356</ele>
        <time>2016-01-31T10:19:54.000Z</time>
      </trkpt>
      <trkpt lat="47.44793" lon="6.79952">
        <ele>356</ele>
        <time>2016-01-31T10:19:55.000Z</time>
      </trkpt>
      <trkpt lat="47.44793" lon="6.79947">
        <ele>356</ele>
        <time>2016-01-31T10:19:56.000Z</time>
      </trkpt>
      <trkpt lat="47.44794" lon="6.79942">
        <ele>356</ele>
        <time>2016-01-31T10:19:57.000Z</time>
      </trkpt>
      <trkpt lat="47.44794" lon="6.79937">
        <ele>356</ele>
        <time>2016-01-31T10:19:58.000Z</time>
      </trkpt>
      <trkpt lat="47.44795" lon="6.79932">
        <ele>356</ele>
        <time>2016-01-31T10:19:59.000Z</time>
      </trkpt>
      <trkpt lat="47.44795" lon="6.79926">
        <ele>356</ele>
        <time>2016-01-31T10:20:00.001Z</time>
      </trkpt>
      <trkpt lat="47.44796" lon="6.79921">
        <ele>356</ele>
        <time>2016-01-31T10:20:01.000Z</time>
      </trkpt>
      <trkpt lat="47.44797" lon="6.79916">
        <ele>355</ele>
        <time>2016-01-31T10:20:02.000Z</time>
      </trkpt>
      <trkpt lat="47.44797" lon="6.7991">
        <ele>355</ele>
        <time>2016-01-31T10:20:03.000Z</time>
      </trkpt>
      <trkpt lat="47.44798" lon="6.79905">
        <ele>355</ele>
        <time>2016-01-31T10:20:04.000Z</time>
      </trkpt>
      <trkpt lat="47.44799" lon="6.799">
        <ele>355</ele>
        <time>2016-01-31T10:20:05.000Z</time>
      </trkpt>
      <trkpt lat="47.448" lon="6.79895">
        <ele>355</ele>
        <time>2016-01-31T10:20:06.000Z</time>
      </trkpt>
      <trkpt lat="47.448" lon="6.7989">
        <ele>355</ele>
        <time>2016-01-31T10:20:07.000Z</time>
      </trkpt>
      <trkpt lat="47.44801" lon="6.79886">
        <ele>355</ele>
        <time>2016-01-31T10:20:08.000Z</time>
      </trkpt>
      <trkpt lat="47.44802" lon="6.79881">
        <ele>355</ele>
        <time>2016-01-31T10:20:09.000Z</time>
      </trkpt>
      <trkpt lat="47.44802" lon="6.79877">
        <ele>355</ele>
        <time>2016-01-31T10:20:10.000Z</time>
      </trkpt>
      <trkpt lat="47.44803" lon="6.79873">
        <ele>355</ele>
        <time>2016-01-31T10:20:11.000Z</time>
      </trkpt>
      <trkpt lat="47.44804" lon="6.79869">
        <ele>355</ele>
        <time>2016-01-31T10:20:12.000Z</time>
      </trkpt>
      <trkpt lat="47.44805" lon="6.79865">
        <ele>354</ele>
        <time>2016-01-31T10:20:13.000Z</time>
      </trkpt>
      <trkpt lat="47.44805" lon="6.79861">
        <ele>354</ele>
        <time>2016-01-31T10:20:14.000Z</time>
      </trkpt>
      <trkpt lat="47.44806" lon="6.79857">
        <ele>354</ele>
        <time>2016-01-31T10:20:15.000Z</time>
      </trkpt>
      <trkpt lat="47.44806" lon="6.79852">
        <ele>354</ele>
        <time>2016-01-31T10:20:16.000Z</time>
      </trkpt>
      <trkpt lat="47.44806" lon="6.79848">
        <ele>354</ele>
        <time>2016-01-31T10:20:17.000Z</time>
      </trkpt>
      <trkpt lat="47.44807" lon="6.79844">
        <ele>354</ele>
        <time>2016-01-31T10:20:18.000Z</time>
      </trkpt>
      <trkpt lat="47.44807" lon="6.7984">
        <ele>354</ele>
        <time>2016-01-31T10:20:19.000Z</time>
      </trkpt>
      <trkpt lat="47.44808" lon="6.79834">
        <ele>354</ele>
        <time>2016-01-31T10:20:21.000Z</time>
      </trkpt>
      <trkpt lat="47.44809" lon="6.79831">
        <ele>353</ele>
        <time>2016-01-31T10:20:22.000Z</time>
      </trkpt>
      <trkpt lat="47.4481" lon="6.79828">
        <ele>353</ele>
        <time>2016-01-31T10:20:23.000Z</time>
      </trkpt>
      <trkpt lat="47.4481" lon="6.79825">
        <ele>353</ele>
        <time>2016-01-31T10:20:24.002Z</time>
      </trkpt>
      <trkpt lat="47.44811" lon="6.79822">
        <ele>353</ele>
        <time>2016-01-31T10:20:25.001Z</time>
      </trkpt>
      <trkpt lat="47.44812" lon="6.79818">
        <ele>353</ele>
        <time>2016-01-31T10:20:26.000Z</time>
      </trkpt>
      <trkpt lat="47.44813" lon="6.79815">
        <ele>353</ele>
        <time>2016-01-31T10:20:27.000Z</time>
      </trkpt>
      <trkpt lat="47.44813" lon="6.79811">
        <ele>353</ele>
        <time>2016-01-31T10:20:28.000Z</time>
      </trkpt>
      <trkpt lat="47.44813" lon="6.79808">
        <ele>353</ele>
        <time>2016-01-31T10:20:29.000Z</time>
      </trkpt>
      <trkpt lat="47.44814" lon="6.79805">
        <ele>353</ele>
        <time>2016-01-31T10:20:30.000Z</time>
      </trkpt>
      <trkpt lat="47.44815" lon="6.79801">
        <ele>353</ele>
        <time>2016-01-31T10:20:31.000Z</time>
      </trkpt>
      <trkpt lat="47.44816" lon="6.79797">
        <ele>353</ele>
        <time>2016-01-31T10:20:32.000Z</time>
      </trkpt>
      <trkpt lat="47.44817" lon="6.79793">
        <ele>353</ele>
        <time>2016-01-31T10:20:33.000Z</time>
      </trkpt>
      <trkpt lat="47.44817" lon="6.79788">
        <ele>353</ele>
        <time>2016-01-31T10:20:34.000Z</time>
      </trkpt>
      <trkpt lat="47.44818" lon="6.79784">
        <ele>353</ele>
        <time>2016-01-31T10:20:34.999Z</time>
      </trkpt>
      <trkpt lat="47.44819" lon="6.79779">
        <ele>352</ele>
        <time>2016-01-31T10:20:36.000Z</time>
      </trkpt>
      <trkpt lat="47.4482" lon="6.79774">
        <ele>352</ele>
        <time>2016-01-31T10:20:37.000Z</time>
      </trkpt>
      <trkpt lat="47.44821" lon="6.7977">
        <ele>352</ele>
        <time>2016-01-31T10:20:38.000Z</time>
      </trkpt>
      <trkpt lat="47.44822" lon="6.79765">
        <ele>352</ele>
        <time>2016-01-31T10:20:38.999Z</time>
      </trkpt>
      <trkpt lat="47.44822" lon="6.79761">
        <ele>352</ele>
        <time>2016-01-31T10:20:40.001Z</time>
      </trkpt>
      <trkpt lat="47.44822" lon="6.79756">
        <ele>352</ele>
        <time>2016-01-31T10:20:41.000Z</time>
      </trkpt>
      <trkpt lat="47.44823" lon="6.79752">
        <ele>352</ele>
        <time>2016-01-31T10:20:42.000Z</time>
      </trkpt>
      <trkpt lat="47.44823" lon="6.79748">
        <ele>350</ele>
        <time>2016-01-31T10:20:43.000Z</time>
      </trkpt>
      <trkpt lat="47.44823" lon="6.79745">
        <ele>349</ele>
        <time>2016-01-31T10:20:44.000Z</time>
      </trkpt>
      <trkpt lat="47.44824" lon="6.79742">
        <ele>349</ele>
        <time>2016-01-31T10:20:45.000Z</time>
      </trkpt>
      <trkpt lat="47.44824" lon="6.79738">
        <ele>349</ele>
        <time>2016-01-31T10:20:46.000Z</time>
      </trkpt>
      <trkpt lat="47.44824" lon="6.79734">
        <ele>349</ele>
        <time>2016-01-31T10:20:47.000Z</time>
      </trkpt>
      <trkpt lat="47.44825" lon="6.7973">
        <ele>348</ele>
        <time>2016-01-31T10:20:48.000Z</time>
      </trkpt>
      <trkpt lat="47.44827" lon="6.79727">
        <ele>348</ele>
        <time>2016-01-31T10:20:49.000Z</time>
      </trkpt>
      <trkpt lat="47.4483" lon="6.79725">
        <ele>348</ele>
        <time>2016-01-31T10:20:50.000Z</time>
      </trkpt>
      <trkpt lat="47.44834" lon="6.79723">
        <ele>347</ele>
        <time>2016-01-31T10:20:51.000Z</time>
      </trkpt>
      <trkpt lat="47.44837" lon="6.79721">
        <ele>347</ele>
        <time>2016-01-31T10:20:52.000Z</time>
      </trkpt>
      <trkpt lat="47.4484" lon="6.79719">
        <ele>347</ele>
        <time>2016-01-31T10:20:53.000Z</time>
      </trkpt>
      <trkpt lat="47.44844" lon="6.79718">
        <ele>347</ele>
        <time>2016-01-31T10:20:54.000Z</time>
      </trkpt>
      <trkpt lat="47.44847" lon="6.79717">
        <ele>347</ele>
        <time>2016-01-31T10:20:55.000Z</time>
      </trkpt>
      <trkpt lat="47.44851" lon="6.79717">
        <ele>347</ele>
        <time>2016-01-31T10:20:56.000Z</time>
      </trkpt>
      <trkpt lat="47.44855" lon="6.79717">
        <ele>347</ele>
        <time>2016-01-31T10:20:57.000Z</time>
      </trkpt>
      <trkpt lat="47.44859" lon="6.79718">
        <ele>347</ele>
        <time>2016-01-31T10:20:58.000Z</time>
      </trkpt>
      <trkpt lat="47.44863" lon="6.79719">
        <ele>347</ele>
        <time>2016-01-31T10:20:59.000Z</time>
      </trkpt>
      <trkpt lat="47.44866" lon="6.7972">
        <ele>347</ele>
        <time>2016-01-31T10:21:00.000Z</time>
      </trkpt>
      <trkpt lat="47.4487" lon="6.79722">
        <ele>347</ele>
        <time>2016-01-31T10:21:01.000Z</time>
      </trkpt>
      <trkpt lat="47.44874" lon="6.79724">
        <ele>347</ele>
        <time>2016-01-31T10:21:02.000Z</time>
      </trkpt>
      <trkpt lat="47.44878" lon="6.79726">
        <ele>347</ele>
        <time>2016-01-31T10:21:03.000Z</time>
      </trkpt>
      <trkpt lat="47.44882" lon="6.79728">
        <ele>347</ele>
        <time>2016-01-31T10:21:04.000Z</time>
      </trkpt>
      <trkpt lat="47.44886" lon="6.79729">
        <ele>347</ele>
        <time>2016-01-31T10:21:05.000Z</time>
      </trkpt>
      <trkpt lat="47.44889" lon="6.79732">
        <ele>347</ele>
        <time>2016-01-31T10:21:06.000Z</time>
      </trkpt>
      <trkpt lat="47.44893" lon="6.79734">
        <ele>348</ele>
        <time>2016-01-31T10:21:07.000Z</time>
      </trkpt>
      <trkpt lat="47.44896" lon="6.79737">
        <ele>348</ele>
        <time>2016-01-31T10:21:08.000Z</time>
      </trkpt>
      <trkpt lat="47.449" lon="6.79739">
        <ele>348</ele>
        <time>2016-01-31T10:21:09.000Z</time>
      </trkpt>
      <trkpt lat="47.44903" lon="6.79742">
        <ele>348</ele>
        <time>2016-01-31T10:21:10.000Z</time>
      </trkpt>
      <trkpt lat="47.44907" lon="6.79743">
        <ele>349</ele>
        <time>2016-01-31T10:21:11.000Z</time>
      </trkpt>
      <trkpt lat="47.44911" lon="6.79744">
        <ele>349</ele>
        <time>2016-01-31T10:21:12.000Z</time>
      </trkpt>
      <trkpt lat="47.44914" lon="6.79744">
        <ele>349</ele>
        <time>2016-01-31T10:21:13.000Z</time>
      </trkpt>
      <trkpt lat="47.44917" lon="6.79743">
        <ele>348</ele>
        <time>2016-01-31T10:21:14.000Z</time>
      </trkpt>
      <trkpt lat="47.4492" lon="6.79741">
        <ele>348</ele>
        <time>2016-01-31T10:21:15.000Z</time>
      </trkpt>
      <trkpt lat="47.44923" lon="6.79739">
        <ele>347</ele>
        <time>2016-01-31T10:21:16.000Z</time>
      </trkpt>
      <trkpt lat="47.44927" lon="6.79736">
        <ele>347</ele>
        <time>2016-01-31T10:21:17.000Z</time>
      </trkpt>
      <trkpt lat="47.4493" lon="6.79734">
        <ele>347</ele>
        <time>2016-01-31T10:21:18.000Z</time>
      </trkpt>
      <trkpt lat="47.44933" lon="6.79731">
        <ele>346</ele>
        <time>2016-01-31T10:21:19.000Z</time>
      </trkpt>
      <trkpt lat="47.44936" lon="6.79729">
        <ele>346</ele>
        <time>2016-01-31T10:21:20.000Z</time>
      </trkpt>
      <trkpt lat="47.44939" lon="6.79728">
        <ele>345</ele>
        <time>2016-01-31T10:21:21.000Z</time>
      </trkpt>
      <trkpt lat="47.44943" lon="6.79726">
        <ele>345</ele>
        <time>2016-01-31T10:21:22.000Z</time>
      </trkpt>
      <trkpt lat="47.44946" lon="6.79726">
        <ele>345</ele>
        <time>2016-01-31T10:21:23.000Z</time>
      </trkpt>
      <trkpt lat="47.4495" lon="6.79725">
        <ele>345</ele>
        <time>2016-01-31T10:21:24.000Z</time>
      </trkpt>
      <trkpt lat="47.44953" lon="6.79724">
        <ele>345</ele>
        <time>2016-01-31T10:21:25.000Z</time>
      </trkpt>
      <trkpt lat="47.44957" lon="6.79723">
        <ele>344</ele>
        <time>2016-01-31T10:21:26.000Z</time>
      </trkpt>
      <trkpt lat="47.4496" lon="6.79721">
        <ele>344</ele>
        <time>2016-01-31T10:21:27.000Z</time>
      </trkpt>
      <trkpt lat="47.44962" lon="6.79717">
        <ele>344</ele>
        <time>2016-01-31T10:21:28.000Z</time>
      </trkpt>
      <trkpt lat="47.44964" lon="6.79714">
        <ele>344</ele>
        <time>2016-01-31T10:21:29.000Z</time>
      </trkpt>
      <trkpt lat="47.44966" lon="6.7971">
        <ele>344</ele>
        <time>2016-01-31T10:21:30.000Z</time>
      </trkpt>
      <trkpt lat="47.44968" lon="6.79706">
        <ele>343</ele>
        <time>2016-01-31T10:21:31.000Z</time>
      </trkpt>
      <trkpt lat="47.4497" lon="6.79702">
        <ele>343</ele>
        <time>2016-01-31T10:21:32.000Z</time>
      </trkpt>
      <trkpt lat="47.44973" lon="6.79697">
        <ele>343</ele>
        <time>2016-01-31T10:21:33.000Z</time>
      </trkpt>
      <trkpt lat="47.44976" lon="6.79693">
        <ele>342</ele>
        <time>2016-01-31T10:21:34.000Z</time>
      </trkpt>
      <trkpt lat="47.44979" lon="6.7969">
        <ele>342</ele>
        <time>2016-01-31T10:21:35.000Z</time>
      </trkpt>
      <trkpt lat="47.44983" lon="6.79689">
        <ele>342</ele>
        <time>2016-01-31T10:21:36.000Z</time>
      </trkpt>
      <trkpt lat="47.44987" lon="6.79689">
        <ele>341</ele>
        <time>2016-01-31T10:21:37.000Z</time>
      </trkpt>
      <trkpt lat="47.44991" lon="6.7969">
        <ele>341</ele>
        <time>2016-01-31T10:21:38.000Z</time>
      </trkpt>
      <trkpt lat="47.44994" lon="6.79692">
        <ele>341</ele>
        <time>2016-01-31T10:21:39.000Z</time>
      </trkpt>
      <trkpt lat="47.44998" lon="6.79694">
        <ele>342</ele>
        <time>2016-01-31T10:21:40.000Z</time>
      </trkpt>
      <trkpt lat="47.45001" lon="6.79697">
        <ele>339</ele>
        <time>2016-01-31T10:21:41.000Z</time>
      </trkpt>
      <trkpt lat="47.45003" lon="6.79699">
        <ele>339</ele>
        <time>2016-01-31T10:21:42.000Z</time>
      </trkpt>
      <trkpt lat="47.45005" lon="6.79701">
        <ele>339</ele>
        <time>2016-01-31T10:21:43.000Z</time>
      </trkpt>
      <trkpt lat="47.45007" lon="6.79703">
        <ele>339</ele>
        <time>2016-01-31T10:21:44.000Z</time>
      </trkpt>
      <trkpt lat="47.45011" lon="6.79705">
        <ele>339</ele>
        <time>2016-01-31T10:21:46.000Z</time>
      </trkpt>
      <trkpt lat="47.45013" lon="6.79706">
        <ele>339</ele>
        <time>2016-01-31T10:21:47.000Z</time>
      </trkpt>
      <trkpt lat="47.45016" lon="6.79708">
        <ele>340</ele>
        <time>2016-01-31T10:21:48.000Z</time>
      </trkpt>
      <trkpt lat="47.45019" lon="6.7971">
        <ele>340</ele>
        <time>2016-01-31T10:21:49.000Z</time>
      </trkpt>
      <trkpt lat="47.45024" lon="6.79713">
        <ele>340</ele>
        <time>2016-01-31T10:21:50.000Z</time>
      </trkpt>
      <trkpt lat="47.45028" lon="6.79715">
        <ele>340</ele>
        <time>2016-01-31T10:21:51.000Z</time>
      </trkpt>
      <trkpt lat="47.45033" lon="6.79714">
        <ele>339</ele>
        <time>2016-01-31T10:21:52.000Z</time>
      </trkpt>
      <trkpt lat="47.45036" lon="6.79712">
        <ele>339</ele>
        <time>2016-01-31T10:21:53.000Z</time>
      </trkpt>
      <trkpt lat="47.45038" lon="6.79709">
        <ele>339</ele>
        <time>2016-01-31T10:21:54.000Z</time>
      </trkpt>
      <trkpt lat="47.45039" lon="6.79706">
        <ele>339</ele>
        <time>2016-01-31T10:21:55.000Z</time>
      </trkpt>
      <trkpt lat="47.4504" lon="6.797">
        <ele>339</ele>
        <time>2016-01-31T10:21:56.000Z</time>
      </trkpt>
      <trkpt lat="47.4504" lon="6.79693">
        <ele>338</ele>
        <time>2016-01-31T10:21:57.000Z</time>
      </trkpt>
      <trkpt lat="47.45041" lon="6.79684">
        <ele>338</ele>
        <time>2016-01-31T10:21:58.000Z</time>
      </trkpt>
      <trkpt lat="47.45042" lon="6.79676">
        <ele>338</ele>
        <time>2016-01-31T10:21:59.000Z</time>
      </trkpt>
      <trkpt lat="47.45044" lon="6.79668">
        <ele>338</ele>
        <time>2016-01-31T10:22:00.000Z</time>
      </trkpt>
      <trkpt lat="47.45045" lon="6.79661">
        <ele>335</ele>
        <time>2016-01-31T10:22:01.000Z</time>
      </trkpt>
      <trkpt lat="47.45047" lon="6.79654">
        <ele>335</ele>
        <time>2016-01-31T10:22:02.000Z</time>
      </trkpt>
      <trkpt lat="47.45049" lon="6.79648">
        <ele>335</ele>
        <time>2016-01-31T10:22:03.000Z</time>
      </trkpt>
      <trkpt lat="47.45051" lon="6.79643">
        <ele>335</ele>
        <time>2016-01-31T10:22:04.000Z</time>
      </trkpt>
      <trkpt lat="47.45052" lon="6.7964">
        <ele>335</ele>
        <time>2016-01-31T10:22:05.000Z</time>
      </trkpt>
      <trkpt lat="47.45053" lon="6.79634">
        <ele>335</ele>
        <time>2016-01-31T10:22:07.000Z</time>
      </trkpt>
      <trkpt lat="47.45054" lon="6.7963">
        <ele>335</ele>
        <time>2016-01-31T10:22:08.000Z</time>
      </trkpt>
      <trkpt lat="47.45055" lon="6.79627">
        <ele>334</ele>
        <time>2016-01-31T10:22:09.000Z</time>
      </trkpt>
      <trkpt lat="47.45058" lon="6.79623">
        <ele>334</ele>
        <time>2016-01-31T10:22:10.000Z</time>
      </trkpt>
      <trkpt lat="47.45061" lon="6.7962">
        <ele>334</ele>
        <time>2016-01-31T10:22:11.000Z</time>
      </trkpt>
      <trkpt lat="47.45064" lon="6.79616">
        <ele>334</ele>
        <time>2016-01-31T10:22:12.000Z</time>
      </trkpt>
      <trkpt lat="47.45067" lon="6.79613">
        <ele>334</ele>
        <time>2016-01-31T10:22:13.000Z</time>
      </trkpt>
      <trkpt lat="47.4507" lon="6.79609">
        <ele>334</ele>
        <time>2016-01-31T10:22:14.000Z</time>
      </trkpt>
      <trkpt lat="47.45073" lon="6.79605">
        <ele>334</ele>
        <time>2016-01-31T10:22:15.000Z</time>
      </trkpt>
      <trkpt lat="47.45075" lon="6.79601">
        <ele>334</ele>
        <time>2016-01-31T10:22:16.000Z</time>
      </trkpt>
      <trkpt lat="47.45078" lon="6.79597">
        <ele>334</ele>
        <time>2016-01-31T10:22:17.000Z</time>
      </trkpt>
      <trkpt lat="47.45081" lon="6.79594">
        <ele>334</ele>
        <time>2016-01-31T10:22:18.000Z</time>
      </trkpt>
      <trkpt lat="47.45084" lon="6.7959">
        <ele>333</ele>
        <time>2016-01-31T10:22:19.000Z</time>
      </trkpt>
      <trkpt lat="47.45087" lon="6.79587">
        <ele>333</ele>
        <time>2016-01-31T10:22:20.000Z</time>
      </trkpt>
      <trkpt lat="47.45089" lon="6.79584">
        <ele>333</ele>
        <time>2016-01-31T10:22:21.000Z</time>
      </trkpt>
      <trkpt lat="47.45092" lon="6.7958">
        <ele>333</ele>
        <time>2016-01-31T10:22:22.000Z</time>
      </trkpt>
      <trkpt lat="47.45095" lon="6.79577">
        <ele>333</ele>
        <time>2016-01-31T10:22:23.000Z</time>
      </trkpt>
      <trkpt lat="47.45097" lon="6.79573">
        <ele>333</ele>
        <time>2016-01-31T10:22:24.000Z</time>
      </trkpt>
      <trkpt lat="47.451" lon="6.7957">
        <ele>333</ele>
        <time>2016-01-31T10:22:25.000Z</time>
      </trkpt>
      <trkpt lat="47.45102" lon="6.79566">
        <ele>333</ele>
        <time>2016-01-31T10:22:26.000Z</time>
      </trkpt>
      <trkpt lat="47.45104" lon="6.79562">
        <ele>333</ele>
        <time>2016-01-31T10:22:27.000Z</time>
      </trkpt>
      <trkpt lat="47.45106" lon="6.79559">
        <ele>333</ele>
        <time>2016-01-31T10:22:28.000Z</time>
      </trkpt>
      <trkpt lat="47.45108" lon="6.79556">
        <ele>333</ele>
        <time>2016-01-31T10:22:29.000Z</time>
      </trkpt>
      <trkpt lat="47.45111" lon="6.79553">
        <ele>333</ele>
        <time>2016-01-31T10:22:30.000Z</time>
      </trkpt>
      <trkpt lat="47.45113" lon="6.7955">
        <ele>333</ele>
        <time>2016-01-31T10:22:31.001Z</time>
      </trkpt>
      <trkpt lat="47.45115" lon="6.79546">
        <ele>333</ele>
        <time>2016-01-31T10:22:32.000Z</time>
      </trkpt>
      <trkpt lat="47.45118" lon="6.79543">
        <ele>333</ele>
        <time>2016-01-31T10:22:32.999Z</time>
      </trkpt>
      <trkpt lat="47.4512" lon="6.79539">
        <ele>333</ele>
        <time>2016-01-31T10:22:34.000Z</time>
      </trkpt>
      <trkpt lat="47.45122" lon="6.79535">
        <ele>333</ele>
        <time>2016-01-31T10:22:35.000Z</time>
      </trkpt>
      <trkpt lat="47.45125" lon="6.79532">
        <ele>333</ele>
        <time>2016-01-31T10:22:36.000Z</time>
      </trkpt>
      <trkpt lat="47.45127" lon="6.7953">
        <ele>333</ele>
        <time>2016-01-31T10:22:37.000Z</time>
      </trkpt>
      <trkpt lat="47.45129" lon="6.79527">
        <ele>333</ele>
        <time>2016-01-31T10:22:38.000Z</time>
      </trkpt>
      <trkpt lat="47.4513" lon="6.79524">
        <ele>333</ele>
        <time>2016-01-31T10:22:39.000Z</time>
      </trkpt>
      <trkpt lat="47.45131" lon="6.79519">
        <ele>333</ele>
        <time>2016-01-31T10:22:40.000Z</time>
      </trkpt>
      <trkpt lat="47.45132" lon="6.79515">
        <ele>333</ele>
        <time>2016-01-31T10:22:41.000Z</time>
      </trkpt>
      <trkpt lat="47.45133" lon="6.79509">
        <ele>333</ele>
        <time>2016-01-31T10:22:42.000Z</time>
      </trkpt>
      <trkpt lat="47.45134" lon="6.79504">
        <ele>333</ele>
        <time>2016-01-31T10:22:43.000Z</time>
      </trkpt>
      <trkpt lat="47.45135" lon="6.79498">
        <ele>333</ele>
        <time>2016-01-31T10:22:44.000Z</time>
      </trkpt>
      <trkpt lat="47.45136" lon="6.79493">
        <ele>333</ele>
        <time>2016-01-31T10:22:44.999Z</time>
      </trkpt>
      <trkpt lat="47.45137" lon="6.79487">
        <ele>333</ele>
        <time>2016-01-31T10:22:46.000Z</time>
      </trkpt>
      <trkpt lat="47.45138" lon="6.79482">
        <ele>333</ele>
        <time>2016-01-31T10:22:47.000Z</time>
      </trkpt>
      <trkpt lat="47.45138" lon="6.79476">
        <ele>333</ele>
        <time>2016-01-31T10:22:48.000Z</time>
      </trkpt>
      <trkpt lat="47.45139" lon="6.7947">
        <ele>333</ele>
        <time>2016-01-31T10:22:49.000Z</time>
      </trkpt>
      <trkpt lat="47.45141" lon="6.79464">
        <ele>333</ele>
        <time>2016-01-31T10:22:50.000Z</time>
      </trkpt>
      <trkpt lat="47.45142" lon="6.79458">
        <ele>333</ele>
        <time>2016-01-31T10:22:51.000Z</time>
      </trkpt>
      <trkpt lat="47.45143" lon="6.79452">
        <ele>333</ele>
        <time>2016-01-31T10:22:52.000Z</time>
      </trkpt>
      <trkpt lat="47.45144" lon="6.79446">
        <ele>333</ele>
        <time>2016-01-31T10:22:53.000Z</time>
      </trkpt>
      <trkpt lat="47.45145" lon="6.79441">
        <ele>333</ele>
        <time>2016-01-31T10:22:54.000Z</time>
      </trkpt>
      <trkpt lat="47.45146" lon="6.79436">
        <ele>333</ele>
        <time>2016-01-31T10:22:55.000Z</time>
      </trkpt>
      <trkpt lat="47.45147" lon="6.79432">
        <ele>333</ele>
        <time>2016-01-31T10:22:56.000Z</time>
      </trkpt>
      <trkpt lat="47.45148" lon="6.79427">
        <ele>333</ele>
        <time>2016-01-31T10:22:57.000Z</time>
      </trkpt>
      <trkpt lat="47.45149" lon="6.79422">
        <ele>333</ele>
        <time>2016-01-31T10:22:58.000Z</time>
      </trkpt>
      <trkpt lat="47.4515" lon="6.79417">
        <ele>333</ele>
        <time>2016-01-31T10:22:59.000Z</time>
      </trkpt>
      <trkpt lat="47.45151" lon="6.79412">
        <ele>333</ele>
        <time>2016-01-31T10:23:00.000Z</time>
      </trkpt>
      <trkpt lat="47.45152" lon="6.79407">
        <ele>333</ele>
        <time>2016-01-31T10:23:01.000Z</time>
      </trkpt>
      <trkpt lat="47.45154" lon="6.79403">
        <ele>333</ele>
        <time>2016-01-31T10:23:02.000Z</time>
      </trkpt>
      <trkpt lat="47.45155" lon="6.79398">
        <ele>333</ele>
        <time>2016-01-31T10:23:03.000Z</time>
      </trkpt>
      <trkpt lat="47.45156" lon="6.79394">
        <ele>334</ele>
        <time>2016-01-31T10:23:04.000Z</time>
      </trkpt>
      <trkpt lat="47.45158" lon="6.79391">
        <ele>334</ele>
        <time>2016-01-31T10:23:05.000Z</time>
      </trkpt>
      <trkpt lat="47.4516" lon="6.79387">
        <ele>334</ele>
        <time>2016-01-31T10:23:06.000Z</time>
      </trkpt>
      <trkpt lat="47.45162" lon="6.79384">
        <ele>334</ele>
        <time>2016-01-31T10:23:07.000Z</time>
      </trkpt>
      <trkpt lat="47.45165" lon="6.79381">
        <ele>334</ele>
        <time>2016-01-31T10:23:08.000Z</time>
      </trkpt>
      <trkpt lat="47.45169" lon="6.79373">
        <ele>333</ele>
        <time>2016-01-31T10:23:09.000Z</time>
      </trkpt>
      <trkpt lat="47.45171" lon="6.79366">
        <ele>334</ele>
        <time>2016-01-31T10:23:10.000Z</time>
      </trkpt>
      <trkpt lat="47.45173" lon="6.79359">
        <ele>334</ele>
        <time>2016-01-31T10:23:11.000Z</time>
      </trkpt>
      <trkpt lat="47.45175" lon="6.79353">
        <ele>334</ele>
        <time>2016-01-31T10:23:12.000Z</time>
      </trkpt>
      <trkpt lat="47.45175" lon="6.79346">
        <ele>334</ele>
        <time>2016-01-31T10:23:13.000Z</time>
      </trkpt>
      <trkpt lat="47.45176" lon="6.79339">
        <ele>334</ele>
        <time>2016-01-31T10:23:14.000Z</time>
      </trkpt>
      <trkpt lat="47.45178" lon="6.79332">
        <ele>335</ele>
        <time>2016-01-31T10:23:15.000Z</time>
      </trkpt>
      <trkpt lat="47.4518" lon="6.79325">
        <ele>335</ele>
        <time>2016-01-31T10:23:16.000Z</time>
      </trkpt>
      <trkpt lat="47.45181" lon="6.79318">
        <ele>334</ele>
        <time>2016-01-31T10:23:17.000Z</time>
      </trkpt>
      <trkpt lat="47.45183" lon="6.79311">
        <ele>334</ele>
        <time>2016-01-31T10:23:18.000Z</time>
      </trkpt>
      <trkpt lat="47.45184" lon="6.79305">
        <ele>334</ele>
        <time>2016-01-31T10:23:19.000Z</time>
      </trkpt>
      <trkpt lat="47.45185" lon="6.79298">
        <ele>334</ele>
        <time>2016-01-31T10:23:20.000Z</time>
      </trkpt>
      <trkpt lat="47.45186" lon="6.79292">
        <ele>334</ele>
        <time>2016-01-31T10:23:21.000Z</time>
      </trkpt>
      <trkpt lat="47.45188" lon="6.79286">
        <ele>334</ele>
        <time>2016-01-31T10:23:22.000Z</time>
      </trkpt>
      <trkpt lat="47.45189" lon="6.7928">
        <ele>334</ele>
        <time>2016-01-31T10:23:23.000Z</time>
      </trkpt>
      <trkpt lat="47.45191" lon="6.79274">
        <ele>334</ele>
        <time>2016-01-31T10:23:24.000Z</time>
      </trkpt>
      <trkpt lat="47.45192" lon="6.79269">
        <ele>335</ele>
        <time>2016-01-31T10:23:25.000Z</time>
      </trkpt>
      <trkpt lat="47.45194" lon="6.79264">
        <ele>335</ele>
        <time>2016-01-31T10:23:26.000Z</time>
      </trkpt>
      <trkpt lat="47.45196" lon="6.79258">
        <ele>335</ele>
        <time>2016-01-31T10:23:27.000Z</time>
      </trkpt>
      <trkpt lat="47.45199" lon="6.79253">
        <ele>334</ele>
        <time>2016-01-31T10:23:28.000Z</time>
      </trkpt>
      <trkpt lat="47.452" lon="6.79248">
        <ele>334</ele>
        <time>2016-01-31T10:23:29.000Z</time>
      </trkpt>
      <trkpt lat="47.45202" lon="6.79242">
        <ele>334</ele>
        <time>2016-01-31T10:23:30.000Z</time>
      </trkpt>
      <trkpt lat="47.45203" lon="6.79237">
        <ele>334</ele>
        <time>2016-01-31T10:23:31.000Z</time>
      </trkpt>
      <trkpt lat="47.45203" lon="6.79231">
        <ele>334</ele>
        <time>2016-01-31T10:23:32.000Z</time>
      </trkpt>
      <trkpt lat="47.45204" lon="6.79225">
        <ele>334</ele>
        <time>2016-01-31T10:23:33.000Z</time>
      </trkpt>
      <trkpt lat="47.45205" lon="6.79218">
        <ele>334</ele>
        <time>2016-01-31T10:23:34.000Z</time>
      </trkpt>
      <trkpt lat="47.45206" lon="6.79211">
        <ele>334</ele>
        <time>2016-01-31T10:23:35.000Z</time>
      </trkpt>
      <trkpt lat="47.45208" lon="6.79206">
        <ele>334</ele>
        <time>2016-01-31T10:23:36.000Z</time>
      </trkpt>
      <trkpt lat="47.45209" lon="6.79201">
        <ele>334</ele>
        <time>2016-01-31T10:23:37.000Z</time>
      </trkpt>
      <trkpt lat="47.45211" lon="6.79196">
        <ele>334</ele>
        <time>2016-01-31T10:23:38.000Z</time>
      </trkpt>
      <trkpt lat="47.45212" lon="6.7919">
        <ele>334</ele>
        <time>2016-01-31T10:23:39.000Z</time>
      </trkpt>
      <trkpt lat="47.45214" lon="6.79184">
        <ele>333</ele>
        <time>2016-01-31T10:23:40.000Z</time>
      </trkpt>
      <trkpt lat="47.45215" lon="6.79178">
        <ele>333</ele>
        <time>2016-01-31T10:23:41.000Z</time>
      </trkpt>
      <trkpt lat="47.45216" lon="6.79172">
        <ele>333</ele>
        <time>2016-01-31T10:23:42.000Z</time>
      </trkpt>
      <trkpt lat="47.45218" lon="6.79166">
        <ele>333</ele>
        <time>2016-01-31T10:23:43.000Z</time>
      </trkpt>
      <trkpt lat="47.45219" lon="6.79161">
        <ele>333</ele>
        <time>2016-01-31T10:23:44.000Z</time>
      </trkpt>
      <trkpt lat="47.45221" lon="6.79155">
        <ele>333</ele>
        <time>2016-01-31T10:23:45.000Z</time>
      </trkpt>
      <trkpt lat="47.45222" lon="6.79149">
        <ele>333</ele>
        <time>2016-01-31T10:23:46.000Z</time>
      </trkpt>
      <trkpt lat="47.45225" lon="6.79143">
        <ele>333</ele>
        <time>2016-01-31T10:23:47.000Z</time>
      </trkpt>
      <trkpt lat="47.45229" lon="6.7914">
        <ele>333</ele>
        <time>2016-01-31T10:23:48.000Z</time>
      </trkpt>
      <trkpt lat="47.45233" lon="6.79138">
        <ele>333</ele>
        <time>2016-01-31T10:23:49.000Z</time>
      </trkpt>
      <trkpt lat="47.45238" lon="6.79136">
        <ele>333</ele>
        <time>2016-01-31T10:23:50.000Z</time>
      </trkpt>
      <trkpt lat="47.45243" lon="6.79135">
        <ele>333</ele>
        <time>2016-01-31T10:23:51.000Z</time>
      </trkpt>
      <trkpt lat="47.45247" lon="6.7913">
        <ele>333</ele>
        <time>2016-01-31T10:23:52.000Z</time>
      </trkpt>
      <trkpt lat="47.45252" lon="6.79125">
        <ele>332</ele>
        <time>2016-01-31T10:23:53.000Z</time>
      </trkpt>
      <trkpt lat="47.45253" lon="6.79121">
        <ele>332</ele>
        <time>2016-01-31T10:23:54.000Z</time>
      </trkpt>
      <trkpt lat="47.45256" lon="6.79114">
        <ele>332</ele>
        <time>2016-01-31T10:23:55.000Z</time>
      </trkpt>
      <trkpt lat="47.45258" lon="6.79107">
        <ele>332</ele>
        <time>2016-01-31T10:23:55.999Z</time>
      </trkpt>
      <trkpt lat="47.4526" lon="6.79099">
        <ele>332</ele>
        <time>2016-01-31T10:23:57.000Z</time>
      </trkpt>
      <trkpt lat="47.45263" lon="6.79093">
        <ele>332</ele>
        <time>2016-01-31T10:23:58.000Z</time>
      </trkpt>
      <trkpt lat="47.45266" lon="6.79086">
        <ele>332</ele>
        <time>2016-01-31T10:23:59.000Z</time>
      </trkpt>
      <trkpt lat="47.45268" lon="6.79077">
        <ele>332</ele>
        <time>2016-01-31T10:24:00.000Z</time>
      </trkpt>
      <trkpt lat="47.45269" lon="6.7907">
        <ele>332</ele>
        <time>2016-01-31T10:24:01.000Z</time>
      </trkpt>
      <trkpt lat="47.45271" lon="6.79062">
        <ele>331</ele>
        <time>2016-01-31T10:24:02.000Z</time>
      </trkpt>
      <trkpt lat="47.45273" lon="6.79056">
        <ele>331</ele>
        <time>2016-01-31T10:24:03.000Z</time>
      </trkpt>
      <trkpt lat="47.45275" lon="6.79048">
        <ele>331</ele>
        <time>2016-01-31T10:24:04.000Z</time>
      </trkpt>
      <trkpt lat="47.45277" lon="6.79041">
        <ele>331</ele>
        <time>2016-01-31T10:24:05.000Z</time>
      </trkpt>
      <trkpt lat="47.45279" lon="6.79035">
        <ele>331</ele>
        <time>2016-01-31T10:24:06.000Z</time>
      </trkpt>
      <trkpt lat="47.45282" lon="6.7903">
        <ele>331</ele>
        <time>2016-01-31T10:24:07.000Z</time>
      </trkpt>
      <trkpt lat="47.45286" lon="6.79025">
        <ele>331</ele>
        <time>2016-01-31T10:24:08.000Z</time>
      </trkpt>
      <trkpt lat="47.4529" lon="6.79019">
        <ele>331</ele>
        <time>2016-01-31T10:24:09.000Z</time>
      </trkpt>
      <trkpt lat="47.45293" lon="6.79013">
        <ele>331</ele>
        <time>2016-01-31T10:24:10.000Z</time>
      </trkpt>
      <trkpt lat="47.45296" lon="6.79008">
        <ele>331</ele>
        <time>2016-01-31T10:24:11.000Z</time>
      </trkpt>
      <trkpt lat="47.453" lon="6.79002">
        <ele>331</ele>
        <time>2016-01-31T10:24:12.000Z</time>
      </trkpt>
      <trkpt lat="47.45303" lon="6.78996">
        <ele>331</ele>
        <time>2016-01-31T10:24:13.000Z</time>
      </trkpt>
      <trkpt lat="47.45306" lon="6.7899">
        <ele>331</ele>
        <time>2016-01-31T10:24:14.000Z</time>
      </trkpt>
      <trkpt lat="47.45309" lon="6.78986">
        <ele>331</ele>
        <time>2016-01-31T10:24:15.000Z</time>
      </trkpt>
      <trkpt lat="47.45312" lon="6.78981">
        <ele>331</ele>
        <time>2016-01-31T10:24:16.000Z</time>
      </trkpt>
      <trkpt lat="47.45315" lon="6.78978">
        <ele>331</ele>
        <time>2016-01-31T10:24:17.001Z</time>
      </trkpt>
      <trkpt lat="47.45318" lon="6.78974">
        <ele>331</ele>
        <time>2016-01-31T10:24:18.000Z</time>
      </trkpt>
      <trkpt lat="47.45321" lon="6.7897">
        <ele>331</ele>
        <time>2016-01-31T10:24:19.000Z</time>
      </trkpt>
      <trkpt lat="47.45324" lon="6.78967">
        <ele>331</ele>
        <time>2016-01-31T10:24:20.000Z</time>
      </trkpt>
      <trkpt lat="47.45327" lon="6.78962">
        <ele>331</ele>
        <time>2016-01-31T10:24:21.000Z</time>
      </trkpt>
      <trkpt lat="47.45331" lon="6.78959">
        <ele>331</ele>
        <time>2016-01-31T10:24:22.000Z</time>
      </trkpt>
      <trkpt lat="47.45334" lon="6.78956">
        <ele>331</ele>
        <time>2016-01-31T10:24:23.000Z</time>
      </trkpt>
      <trkpt lat="47.45336" lon="6.78951">
        <ele>331</ele>
        <time>2016-01-31T10:24:24.000Z</time>
      </trkpt>
      <trkpt lat="47.45339" lon="6.78948">
        <ele>331</ele>
        <time>2016-01-31T10:24:25.000Z</time>
      </trkpt>
      <trkpt lat="47.45342" lon="6.78945">
        <ele>331</ele>
        <time>2016-01-31T10:24:26.000Z</time>
      </trkpt>
      <trkpt lat="47.45344" lon="6.78942">
        <ele>331</ele>
        <time>2016-01-31T10:24:27.000Z</time>
      </trkpt>
      <trkpt lat="47.45347" lon="6.78939">
        <ele>331</ele>
        <time>2016-01-31T10:24:28.000Z</time>
      </trkpt>
      <trkpt lat="47.4535" lon="6.78936">
        <ele>331</ele>
        <time>2016-01-31T10:24:29.000Z</time>
      </trkpt>
      <trkpt lat="47.45352" lon="6.78933">
        <ele>331</ele>
        <time>2016-01-31T10:24:30.000Z</time>
      </trkpt>
      <trkpt lat="47.45356" lon="6.78928">
        <ele>331</ele>
        <time>2016-01-31T10:24:31.000Z</time>
      </trkpt>
      <trkpt lat="47.45358" lon="6.78924">
        <ele>331</ele>
        <time>2016-01-31T10:24:32.000Z</time>
      </trkpt>
      <trkpt lat="47.4536" lon="6.7892">
        <ele>331</ele>
        <time>2016-01-31T10:24:33.000Z</time>
      </trkpt>
      <trkpt lat="47.45362" lon="6.78916">
        <ele>332</ele>
        <time>2016-01-31T10:24:34.000Z</time>
      </trkpt>
      <trkpt lat="47.45365" lon="6.78911">
        <ele>332</ele>
        <time>2016-01-31T10:24:35.000Z</time>
      </trkpt>
      <trkpt lat="47.45368" lon="6.78908">
        <ele>332</ele>
        <time>2016-01-31T10:24:36.000Z</time>
      </trkpt>
      <trkpt lat="47.45371" lon="6.78904">
        <ele>332</ele>
        <time>2016-01-31T10:24:37.000Z</time>
      </trkpt>
      <trkpt lat="47.45374" lon="6.78901">
        <ele>332</ele>
        <time>2016-01-31T10:24:38.000Z</time>
      </trkpt>
      <trkpt lat="47.45377" lon="6.78897">
        <ele>332</ele>
        <time>2016-01-31T10:24:39.000Z</time>
      </trkpt>
      <trkpt lat="47.4538" lon="6.78894">
        <ele>332</ele>
        <time>2016-01-31T10:24:40.000Z</time>
      </trkpt>
      <trkpt lat="47.45383" lon="6.7889">
        <ele>332</ele>
        <time>2016-01-31T10:24:41.000Z</time>
      </trkpt>
      <trkpt lat="47.45386" lon="6.78887">
        <ele>332</ele>
        <time>2016-01-31T10:24:42.000Z</time>
      </trkpt>
      <trkpt lat="47.45389" lon="6.78885">
        <ele>332</ele>
        <time>2016-01-31T10:24:43.000Z</time>
      </trkpt>
      <trkpt lat="47.45391" lon="6.78882">
        <ele>332</ele>
        <time>2016-01-31T10:24:44.000Z</time>
      </trkpt>
      <trkpt lat="47.45393" lon="6.7888">
        <ele>332</ele>
        <time>2016-01-31T10:24:45.000Z</time>
      </trkpt>
      <trkpt lat="47.45394" lon="6.78877">
        <ele>332</ele>
        <time>2016-01-31T10:24:46.000Z</time>
      </trkpt>
      <trkpt lat="47.45396" lon="6.78874">
        <ele>332</ele>
        <time>2016-01-31T10:24:47.000Z</time>
      </trkpt>
      <trkpt lat="47.45398" lon="6.7887">
        <ele>332</ele>
        <time>2016-01-31T10:24:48.000Z</time>
      </trkpt>
      <trkpt lat="47.454" lon="6.78866">
        <ele>332</ele>
        <time>2016-01-31T10:24:49.000Z</time>
      </trkpt>
      <trkpt lat="47.45402" lon="6.78861">
        <ele>332</ele>
        <time>2016-01-31T10:24:50.000Z</time>
      </trkpt>
      <trkpt lat="47.45404" lon="6.78857">
        <ele>332</ele>
        <time>2016-01-31T10:24:51.000Z</time>
      </trkpt>
      <trkpt lat="47.45406" lon="6.78853">
        <ele>332</ele>
        <time>2016-01-31T10:24:52.000Z</time>
      </trkpt>
      <trkpt lat="47.45409" lon="6.7885">
        <ele>332</ele>
        <time>2016-01-31T10:24:53.000Z</time>
      </trkpt>
      <trkpt lat="47.45412" lon="6.78846">
        <ele>332</ele>
        <time>2016-01-31T10:24:54.000Z</time>
      </trkpt>
      <trkpt lat="47.45415" lon="6.78843">
        <ele>332</ele>
        <time>2016-01-31T10:24:55.000Z</time>
      </trkpt>
      <trkpt lat="47.45418" lon="6.78839">
        <ele>332</ele>
        <time>2016-01-31T10:24:56.000Z</time>
      </trkpt>
      <trkpt lat="47.45421" lon="6.78835">
        <ele>332</ele>
        <time>2016-01-31T10:24:57.000Z</time>
      </trkpt>
      <trkpt lat="47.45423" lon="6.78832">
        <ele>332</ele>
        <time>2016-01-31T10:24:58.000Z</time>
      </trkpt>
      <trkpt lat="47.45426" lon="6.78828">
        <ele>332</ele>
        <time>2016-01-31T10:24:59.000Z</time>
      </trkpt>
      <trkpt lat="47.45429" lon="6.78825">
        <ele>333</ele>
        <time>2016-01-31T10:25:00.000Z</time>
      </trkpt>
      <trkpt lat="47.45432" lon="6.78822">
        <ele>333</ele>
        <time>2016-01-31T10:25:01.000Z</time>
      </trkpt>
      <trkpt lat="47.45435" lon="6.78819">
        <ele>333</ele>
        <time>2016-01-31T10:25:02.000Z</time>
      </trkpt>
      <trkpt lat="47.45437" lon="6.78815">
        <ele>333</ele>
        <time>2016-01-31T10:25:03.000Z</time>
      </trkpt>
      <trkpt lat="47.4544" lon="6.78812">
        <ele>333</ele>
        <time>2016-01-31T10:25:04.000Z</time>
      </trkpt>
      <trkpt lat="47.45443" lon="6.78809">
        <ele>333</ele>
        <time>2016-01-31T10:25:05.000Z</time>
      </trkpt>
      <trkpt lat="47.45446" lon="6.78806">
        <ele>333</ele>
        <time>2016-01-31T10:25:06.000Z</time>
      </trkpt>
      <trkpt lat="47.45449" lon="6.78803">
        <ele>333</ele>
        <time>2016-01-31T10:25:07.000Z</time>
      </trkpt>
      <trkpt lat="47.45452" lon="6.788">
        <ele>333</ele>
        <time>2016-01-31T10:25:08.000Z</time>
      </trkpt>
      <trkpt lat="47.45455" lon="6.78797">
        <ele>333</ele>
        <time>2016-01-31T10:25:09.000Z</time>
      </trkpt>
      <trkpt lat="47.45458" lon="6.78794">
        <ele>333</ele>
        <time>2016-01-31T10:25:10.000Z</time>
      </trkpt>
      <trkpt lat="47.45461" lon="6.7879">
        <ele>333</ele>
        <time>2016-01-31T10:25:11.000Z</time>
      </trkpt>
      <trkpt lat="47.45464" lon="6.78787">
        <ele>333</ele>
        <time>2016-01-31T10:25:12.000Z</time>
      </trkpt>
      <trkpt lat="47.45468" lon="6.78784">
        <ele>333</ele>
        <time>2016-01-31T10:25:13.000Z</time>
      </trkpt>
      <trkpt lat="47.45471" lon="6.78781">
        <ele>333</ele>
        <time>2016-01-31T10:25:14.000Z</time>
      </trkpt>
      <trkpt lat="47.45474" lon="6.78779">
        <ele>334</ele>
        <time>2016-01-31T10:25:15.000Z</time>
      </trkpt>
      <trkpt lat="47.45478" lon="6.78776">
        <ele>334</ele>
        <time>2016-01-31T10:25:16.000Z</time>
      </trkpt>
      <trkpt lat="47.45481" lon="6.78773">
        <ele>334</ele>
        <time>2016-01-31T10:25:17.000Z</time>
      </trkpt>
      <trkpt lat="47.45483" lon="6.7877">
        <ele>334</ele>
        <time>2016-01-31T10:25:18.000Z</time>
      </trkpt>
      <trkpt lat="47.45486" lon="6.78767">
        <ele>334</ele>
        <time>2016-01-31T10:25:19.000Z</time>
      </trkpt>
      <trkpt lat="47.45488" lon="6.78765">
        <ele>334</ele>
        <time>2016-01-31T10:25:20.000Z</time>
      </trkpt>
      <trkpt lat="47.45489" lon="6.78762">
        <ele>334</ele>
        <time>2016-01-31T10:25:21.000Z</time>
      </trkpt>
      <trkpt lat="47.45489" lon="6.78755">
        <ele>334</ele>
        <time>2016-01-31T10:25:23.000Z</time>
      </trkpt>
      <trkpt lat="47.45487" lon="6.78751">
        <ele>334</ele>
        <time>2016-01-31T10:25:24.000Z</time>
      </trkpt>
      <trkpt lat="47.45485" lon="6.78747">
        <ele>335</ele>
        <time>2016-01-31T10:25:25.000Z</time>
      </trkpt>
      <trkpt lat="47.45483" lon="6.78742">
        <ele>335</ele>
        <time>2016-01-31T10:25:26.000Z</time>
      </trkpt>
      <trkpt lat="47.45481" lon="6.78737">
        <ele>335</ele>
        <time>2016-01-31T10:25:27.000Z</time>
      </trkpt>
      <trkpt lat="47.45479" lon="6.78732">
        <ele>335</ele>
        <time>2016-01-31T10:25:28.000Z</time>
      </trkpt>
      <trkpt lat="47.45476" lon="6.78727">
        <ele>335</ele>
        <time>2016-01-31T10:25:29.000Z</time>
      </trkpt>
      <trkpt lat="47.45474" lon="6.78721">
        <ele>335</ele>
        <time>2016-01-31T10:25:30.000Z</time>
      </trkpt>
      <trkpt lat="47.45471" lon="6.78716">
        <ele>335</ele>
        <time>2016-01-31T10:25:31.000Z</time>
      </trkpt>
      <trkpt lat="47.45465" lon="6.7871">
        <ele>335</ele>
        <time>2016-01-31T10:25:32.000Z</time>
      </trkpt>
      <trkpt lat="47.45463" lon="6.78704">
        <ele>335</ele>
        <time>2016-01-31T10:25:33.000Z</time>
      </trkpt>
      <trkpt lat="47.45459" lon="6.78699">
        <ele>335</ele>
        <time>2016-01-31T10:25:34.000Z</time>
      </trkpt>
      <trkpt lat="47.45457" lon="6.78694">
        <ele>335</ele>
        <time>2016-01-31T10:25:35.000Z</time>
      </trkpt>
      <trkpt lat="47.45454" lon="6.78688">
        <ele>335</ele>
        <time>2016-01-31T10:25:36.000Z</time>
      </trkpt>
      <trkpt lat="47.45451" lon="6.78683">
        <ele>335</ele>
        <time>2016-01-31T10:25:37.000Z</time>
      </trkpt>
      <trkpt lat="47.45448" lon="6.78678">
        <ele>335</ele>
        <time>2016-01-31T10:25:38.000Z</time>
      </trkpt>
      <trkpt lat="47.45445" lon="6.78672">
        <ele>335</ele>
        <time>2016-01-31T10:25:39.000Z</time>
      </trkpt>
      <trkpt lat="47.45442" lon="6.78666">
        <ele>337</ele>
        <time>2016-01-31T10:25:40.000Z</time>
      </trkpt>
      <trkpt lat="47.45439" lon="6.78661">
        <ele>337</ele>
        <time>2016-01-31T10:25:41.000Z</time>
      </trkpt>
      <trkpt lat="47.45437" lon="6.78656">
        <ele>337</ele>
        <time>2016-01-31T10:25:42.000Z</time>
      </trkpt>
      <trkpt lat="47.45434" lon="6.78651">
        <ele>337</ele>
        <time>2016-01-31T10:25:43.000Z</time>
      </trkpt>
      <trkpt lat="47.45432" lon="6.78645">
        <ele>337</ele>
        <time>2016-01-31T10:25:44.000Z</time>
      </trkpt>
      <trkpt lat="47.45429" lon="6.7864">
        <ele>337</ele>
        <time>2016-01-31T10:25:45.000Z</time>
      </trkpt>
      <trkpt lat="47.45427" lon="6.78634">
        <ele>338</ele>
        <time>2016-01-31T10:25:46.000Z</time>
      </trkpt>
      <trkpt lat="47.45424" lon="6.78629">
        <ele>338</ele>
        <time>2016-01-31T10:25:47.000Z</time>
      </trkpt>
      <trkpt lat="47.45422" lon="6.78624">
        <ele>338</ele>
        <time>2016-01-31T10:25:48.000Z</time>
      </trkpt>
      <trkpt lat="47.45419" lon="6.7862">
        <ele>338</ele>
        <time>2016-01-31T10:25:49.000Z</time>
      </trkpt>
      <trkpt lat="47.45417" lon="6.78615">
        <ele>336</ele>
        <time>2016-01-31T10:25:50.000Z</time>
      </trkpt>
      <trkpt lat="47.45414" lon="6.7861">
        <ele>336</ele>
        <time>2016-01-31T10:25:51.000Z</time>
      </trkpt>
      <trkpt lat="47.45412" lon="6.78605">
        <ele>337</ele>
        <time>2016-01-31T10:25:52.000Z</time>
      </trkpt>
      <trkpt lat="47.45409" lon="6.786">
        <ele>337</ele>
        <time>2016-01-31T10:25:53.000Z</time>
      </trkpt>
      <trkpt lat="47.45407" lon="6.78595">
        <ele>337</ele>
        <time>2016-01-31T10:25:54.000Z</time>
      </trkpt>
      <trkpt lat="47.45404" lon="6.7859">
        <ele>337</ele>
        <time>2016-01-31T10:25:55.000Z</time>
      </trkpt>
      <trkpt lat="47.45402" lon="6.78586">
        <ele>337</ele>
        <time>2016-01-31T10:25:56.000Z</time>
      </trkpt>
      <trkpt lat="47.45399" lon="6.78581">
        <ele>339</ele>
        <time>2016-01-31T10:25:57.000Z</time>
      </trkpt>
      <trkpt lat="47.45397" lon="6.78576">
        <ele>339</ele>
        <time>2016-01-31T10:25:58.000Z</time>
      </trkpt>
      <trkpt lat="47.45394" lon="6.78572">
        <ele>339</ele>
        <time>2016-01-31T10:25:59.000Z</time>
      </trkpt>
      <trkpt lat="47.45392" lon="6.78567">
        <ele>339</ele>
        <time>2016-01-31T10:26:00.000Z</time>
      </trkpt>
      <trkpt lat="47.45389" lon="6.78562">
        <ele>339</ele>
        <time>2016-01-31T10:26:01.000Z</time>
      </trkpt>
      <trkpt lat="47.45387" lon="6.78558">
        <ele>339</ele>
        <time>2016-01-31T10:26:02.000Z</time>
      </trkpt>
      <trkpt lat="47.45385" lon="6.78553">
        <ele>339</ele>
        <time>2016-01-31T10:26:03.000Z</time>
      </trkpt>
      <trkpt lat="47.45382" lon="6.78549">
        <ele>339</ele>
        <time>2016-01-31T10:26:04.000Z</time>
      </trkpt>
      <trkpt lat="47.4538" lon="6.78544">
        <ele>339</ele>
        <time>2016-01-31T10:26:05.000Z</time>
      </trkpt>
      <trkpt lat="47.45378" lon="6.7854">
        <ele>339</ele>
        <time>2016-01-31T10:26:06.000Z</time>
      </trkpt>
      <trkpt lat="47.45377" lon="6.78535">
        <ele>339</ele>
        <time>2016-01-31T10:26:07.000Z</time>
      </trkpt>
      <trkpt lat="47.45376" lon="6.7853">
        <ele>339</ele>
        <time>2016-01-31T10:26:08.000Z</time>
      </trkpt>
      <trkpt lat="47.45375" lon="6.78526">
        <ele>339</ele>
        <time>2016-01-31T10:26:09.000Z</time>
      </trkpt>
      <trkpt lat="47.45375" lon="6.78521">
        <ele>339</ele>
        <time>2016-01-31T10:26:10.000Z</time>
      </trkpt>
      <trkpt lat="47.45374" lon="6.78517">
        <ele>339</ele>
        <time>2016-01-31T10:26:11.000Z</time>
      </trkpt>
      <trkpt lat="47.45374" lon="6.78513">
        <ele>339</ele>
        <time>2016-01-31T10:26:12.000Z</time>
      </trkpt>
      <trkpt lat="47.45373" lon="6.78508">
        <ele>339</ele>
        <time>2016-01-31T10:26:13.000Z</time>
      </trkpt>
      <trkpt lat="47.45373" lon="6.78504">
        <ele>339</ele>
        <time>2016-01-31T10:26:14.000Z</time>
      </trkpt>
      <trkpt lat="47.45372" lon="6.785">
        <ele>339</ele>
        <time>2016-01-31T10:26:15.000Z</time>
      </trkpt>
      <trkpt lat="47.45372" lon="6.78496">
        <ele>341</ele>
        <time>2016-01-31T10:26:16.000Z</time>
      </trkpt>
      <trkpt lat="47.45373" lon="6.78492">
        <ele>342</ele>
        <time>2016-01-31T10:26:17.000Z</time>
      </trkpt>
      <trkpt lat="47.45374" lon="6.78489">
        <ele>342</ele>
        <time>2016-01-31T10:26:18.000Z</time>
      </trkpt>
      <trkpt lat="47.45375" lon="6.78486">
        <ele>342</ele>
        <time>2016-01-31T10:26:19.000Z</time>
      </trkpt>
      <trkpt lat="47.45378" lon="6.78484">
        <ele>342</ele>
        <time>2016-01-31T10:26:20.000Z</time>
      </trkpt>
      <trkpt lat="47.45381" lon="6.78483">
        <ele>342</ele>
        <time>2016-01-31T10:26:21.000Z</time>
      </trkpt>
      <trkpt lat="47.45385" lon="6.78484">
        <ele>342</ele>
        <time>2016-01-31T10:26:22.000Z</time>
      </trkpt>
      <trkpt lat="47.45388" lon="6.78486">
        <ele>342</ele>
        <time>2016-01-31T10:26:23.000Z</time>
      </trkpt>
      <trkpt lat="47.45391" lon="6.78489">
        <ele>343</ele>
        <time>2016-01-31T10:26:24.000Z</time>
      </trkpt>
      <trkpt lat="47.45395" lon="6.78492">
        <ele>343</ele>
        <time>2016-01-31T10:26:25.000Z</time>
      </trkpt>
      <trkpt lat="47.45398" lon="6.78495">
        <ele>343</ele>
        <time>2016-01-31T10:26:26.000Z</time>
      </trkpt>
      <trkpt lat="47.454" lon="6.78498">
        <ele>343</ele>
        <time>2016-01-31T10:26:27.000Z</time>
      </trkpt>
      <trkpt lat="47.45403" lon="6.78501">
        <ele>342</ele>
        <time>2016-01-31T10:26:28.000Z</time>
      </trkpt>
      <trkpt lat="47.45406" lon="6.78504">
        <ele>342</ele>
        <time>2016-01-31T10:26:29.000Z</time>
      </trkpt>
      <trkpt lat="47.45409" lon="6.78507">
        <ele>342</ele>
        <time>2016-01-31T10:26:30.000Z</time>
      </trkpt>
      <trkpt lat="47.45411" lon="6.78509">
        <ele>342</ele>
        <time>2016-01-31T10:26:31.000Z</time>
      </trkpt>
      <trkpt lat="47.45414" lon="6.78511">
        <ele>342</ele>
        <time>2016-01-31T10:26:32.000Z</time>
      </trkpt>
      <trkpt lat="47.45417" lon="6.78513">
        <ele>344</ele>
        <time>2016-01-31T10:26:33.000Z</time>
      </trkpt>
      <trkpt lat="47.4542" lon="6.78514">
        <ele>344</ele>
        <time>2016-01-31T10:26:34.000Z</time>
      </trkpt>
      <trkpt lat="47.45423" lon="6.78515">
        <ele>344</ele>
        <time>2016-01-31T10:26:35.000Z</time>
      </trkpt>
      <trkpt lat="47.45426" lon="6.78516">
        <ele>344</ele>
        <time>2016-01-31T10:26:36.000Z</time>
      </trkpt>
      <trkpt lat="47.45429" lon="6.78517">
        <ele>344</ele>
        <time>2016-01-31T10:26:37.000Z</time>
      </trkpt>
      <trkpt lat="47.45432" lon="6.78517">
        <ele>344</ele>
        <time>2016-01-31T10:26:38.000Z</time>
      </trkpt>
      <trkpt lat="47.45434" lon="6.78517">
        <ele>344</ele>
        <time>2016-01-31T10:26:39.000Z</time>
      </trkpt>
      <trkpt lat="47.45437" lon="6.78516">
        <ele>344</ele>
        <time>2016-01-31T10:26:40.000Z</time>
      </trkpt>
      <trkpt lat="47.4544" lon="6.78515">
        <ele>344</ele>
        <time>2016-01-31T10:26:41.000Z</time>
      </trkpt>
      <trkpt lat="47.45443" lon="6.78515">
        <ele>344</ele>
        <time>2016-01-31T10:26:42.000Z</time>
      </trkpt>
      <trkpt lat="47.45445" lon="6.78514">
        <ele>344</ele>
        <time>2016-01-31T10:26:43.000Z</time>
      </trkpt>
      <trkpt lat="47.45448" lon="6.78513">
        <ele>344</ele>
        <time>2016-01-31T10:26:44.000Z</time>
      </trkpt>
      <trkpt lat="47.45451" lon="6.78512">
        <ele>344</ele>
        <time>2016-01-31T10:26:45.000Z</time>
      </trkpt>
      <trkpt lat="47.45454" lon="6.78511">
        <ele>344</ele>
        <time>2016-01-31T10:26:46.000Z</time>
      </trkpt>
      <trkpt lat="47.45457" lon="6.78509">
        <ele>344</ele>
        <time>2016-01-31T10:26:47.000Z</time>
      </trkpt>
      <trkpt lat="47.4546" lon="6.78507">
        <ele>344</ele>
        <time>2016-01-31T10:26:48.000Z</time>
      </trkpt>
      <trkpt lat="47.45463" lon="6.78505">
        <ele>345</ele>
        <time>2016-01-31T10:26:49.000Z</time>
      </trkpt>
      <trkpt lat="47.45465" lon="6.78503">
        <ele>345</ele>
        <time>2016-01-31T10:26:50.000Z</time>
      </trkpt>
      <trkpt lat="47.45468" lon="6.78501">
        <ele>345</ele>
        <time>2016-01-31T10:26:51.000Z</time>
      </trkpt>
      <trkpt lat="47.45471" lon="6.78499">
        <ele>347</ele>
        <time>2016-01-31T10:26:52.000Z</time>
      </trkpt>
      <trkpt lat="47.45474" lon="6.78497">
        <ele>348</ele>
        <time>2016-01-31T10:26:53.000Z</time>
      </trkpt>
      <trkpt lat="47.45477" lon="6.78494">
        <ele>348</ele>
        <time>2016-01-31T10:26:54.000Z</time>
      </trkpt>
      <trkpt lat="47.45479" lon="6.78492">
        <ele>348</ele>
        <time>2016-01-31T10:26:55.000Z</time>
      </trkpt>
      <trkpt lat="47.45482" lon="6.7849">
        <ele>348</ele>
        <time>2016-01-31T10:26:56.000Z</time>
      </trkpt>
      <trkpt lat="47.45485" lon="6.78488">
        <ele>348</ele>
        <time>2016-01-31T10:26:57.000Z</time>
      </trkpt>
      <trkpt lat="47.45488" lon="6.78487">
        <ele>348</ele>
        <time>2016-01-31T10:26:58.000Z</time>
      </trkpt>
      <trkpt lat="47.45491" lon="6.78485">
        <ele>348</ele>
        <time>2016-01-31T10:26:59.000Z</time>
      </trkpt>
      <trkpt lat="47.45495" lon="6.78483">
        <ele>348</ele>
        <time>2016-01-31T10:27:00.000Z</time>
      </trkpt>
      <trkpt lat="47.45498" lon="6.78482">
        <ele>348</ele>
        <time>2016-01-31T10:27:01.000Z</time>
      </trkpt>
      <trkpt lat="47.45501" lon="6.78479">
        <ele>350</ele>
        <time>2016-01-31T10:27:02.000Z</time>
      </trkpt>
      <trkpt lat="47.45504" lon="6.78477">
        <ele>350</ele>
        <time>2016-01-31T10:27:03.000Z</time>
      </trkpt>
      <trkpt lat="47.45507" lon="6.78475">
        <ele>350</ele>
        <time>2016-01-31T10:27:04.000Z</time>
      </trkpt>
      <trkpt lat="47.4551" lon="6.78473">
        <ele>350</ele>
        <time>2016-01-31T10:27:05.000Z</time>
      </trkpt>
      <trkpt lat="47.45513" lon="6.78471">
        <ele>350</ele>
        <time>2016-01-31T10:27:06.000Z</time>
      </trkpt>
      <trkpt lat="47.45517" lon="6.78469">
        <ele>350</ele>
        <time>2016-01-31T10:27:07.000Z</time>
      </trkpt>
      <trkpt lat="47.4552" lon="6.78467">
        <ele>350</ele>
        <time>2016-01-31T10:27:08.000Z</time>
      </trkpt>
      <trkpt lat="47.45523" lon="6.78465">
        <ele>351</ele>
        <time>2016-01-31T10:27:09.000Z</time>
      </trkpt>
      <trkpt lat="47.45527" lon="6.78463">
        <ele>351</ele>
        <time>2016-01-31T10:27:10.000Z</time>
      </trkpt>
      <trkpt lat="47.4553" lon="6.78461">
        <ele>351</ele>
        <time>2016-01-31T10:27:11.000Z</time>
      </trkpt>
      <trkpt lat="47.45533" lon="6.78459">
        <ele>351</ele>
        <time>2016-01-31T10:27:12.000Z</time>
      </trkpt>
      <trkpt lat="47.45536" lon="6.78456">
        <ele>351</ele>
        <time>2016-01-31T10:27:13.000Z</time>
      </trkpt>
      <trkpt lat="47.45539" lon="6.78454">
        <ele>351</ele>
        <time>2016-01-31T10:27:14.000Z</time>
      </trkpt>
      <trkpt lat="47.45543" lon="6.78452">
        <ele>351</ele>
        <time>2016-01-31T10:27:15.000Z</time>
      </trkpt>
      <trkpt lat="47.45546" lon="6.78451">
        <ele>351</ele>
        <time>2016-01-31T10:27:16.000Z</time>
      </trkpt>
      <trkpt lat="47.4555" lon="6.78449">
        <ele>351</ele>
        <time>2016-01-31T10:27:17.000Z</time>
      </trkpt>
      <trkpt lat="47.45553" lon="6.78447">
        <ele>351</ele>
        <time>2016-01-31T10:27:18.000Z</time>
      </trkpt>
      <trkpt lat="47.45556" lon="6.78446">
        <ele>352</ele>
        <time>2016-01-31T10:27:19.000Z</time>
      </trkpt>
      <trkpt lat="47.4556" lon="6.78444">
        <ele>352</ele>
        <time>2016-01-31T10:27:20.000Z</time>
      </trkpt>
      <trkpt lat="47.45563" lon="6.78442">
        <ele>352</ele>
        <time>2016-01-31T10:27:21.000Z</time>
      </trkpt>
      <trkpt lat="47.45567" lon="6.78441">
        <ele>352</ele>
        <time>2016-01-31T10:27:22.000Z</time>
      </trkpt>
      <trkpt lat="47.4557" lon="6.78439">
        <ele>352</ele>
        <time>2016-01-31T10:27:23.000Z</time>
      </trkpt>
      <trkpt lat="47.45573" lon="6.78437">
        <ele>352</ele>
        <time>2016-01-31T10:27:24.000Z</time>
      </trkpt>
      <trkpt lat="47.45577" lon="6.78435">
        <ele>352</ele>
        <time>2016-01-31T10:27:25.000Z</time>
      </trkpt>
      <trkpt lat="47.4558" lon="6.78433">
        <ele>353</ele>
        <time>2016-01-31T10:27:26.000Z</time>
      </trkpt>
      <trkpt lat="47.45584" lon="6.78431">
        <ele>353</ele>
        <time>2016-01-31T10:27:27.000Z</time>
      </trkpt>
      <trkpt lat="47.45587" lon="6.7843">
        <ele>354</ele>
        <time>2016-01-31T10:27:28.000Z</time>
      </trkpt>
      <trkpt lat="47.4559" lon="6.78428">
        <ele>354</ele>
        <time>2016-01-31T10:27:29.000Z</time>
      </trkpt>
      <trkpt lat="47.45594" lon="6.78426">
        <ele>354</ele>
        <time>2016-01-31T10:27:30.000Z</time>
      </trkpt>
      <trkpt lat="47.45598" lon="6.78424">
        <ele>354</ele>
        <time>2016-01-31T10:27:31.000Z</time>
      </trkpt>
      <trkpt lat="47.45601" lon="6.78422">
        <ele>354</ele>
        <time>2016-01-31T10:27:32.000Z</time>
      </trkpt>
      <trkpt lat="47.45605" lon="6.7842">
        <ele>354</ele>
        <time>2016-01-31T10:27:33.000Z</time>
      </trkpt>
      <trkpt lat="47.45608" lon="6.78418">
        <ele>354</ele>
        <time>2016-01-31T10:27:34.000Z</time>
      </trkpt>
      <trkpt lat="47.45612" lon="6.78417">
        <ele>354</ele>
        <time>2016-01-31T10:27:35.000Z</time>
      </trkpt>
      <trkpt lat="47.45616" lon="6.78415">
        <ele>355</ele>
        <time>2016-01-31T10:27:36.000Z</time>
      </trkpt>
      <trkpt lat="47.45619" lon="6.78414">
        <ele>355</ele>
        <time>2016-01-31T10:27:37.000Z</time>
      </trkpt>
      <trkpt lat="47.45623" lon="6.78412">
        <ele>355</ele>
        <time>2016-01-31T10:27:38.000Z</time>
      </trkpt>
      <trkpt lat="47.45626" lon="6.78411">
        <ele>355</ele>
        <time>2016-01-31T10:27:39.000Z</time>
      </trkpt>
      <trkpt lat="47.4563" lon="6.78409">
        <ele>355</ele>
        <time>2016-01-31T10:27:40.000Z</time>
      </trkpt>
      <trkpt lat="47.45633" lon="6.78408">
        <ele>355</ele>
        <time>2016-01-31T10:27:41.000Z</time>
      </trkpt>
      <trkpt lat="47.45636" lon="6.78406">
        <ele>355</ele>
        <time>2016-01-31T10:27:42.000Z</time>
      </trkpt>
      <trkpt lat="47.4564" lon="6.78404">
        <ele>355</ele>
        <time>2016-01-31T10:27:43.000Z</time>
      </trkpt>
      <trkpt lat="47.45643" lon="6.78402">
        <ele>355</ele>
        <time>2016-01-31T10:27:44.000Z</time>
      </trkpt>
      <trkpt lat="47.45647" lon="6.784">
        <ele>356</ele>
        <time>2016-01-31T10:27:45.000Z</time>
      </trkpt>
      <trkpt lat="47.4565" lon="6.78399">
        <ele>356</ele>
        <time>2016-01-31T10:27:46.000Z</time>
      </trkpt>
      <trkpt lat="47.45654" lon="6.78398">
        <ele>356</ele>
        <time>2016-01-31T10:27:47.000Z</time>
      </trkpt>
      <trkpt lat="47.45657" lon="6.78397">
        <ele>356</ele>
        <time>2016-01-31T10:27:48.000Z</time>
      </trkpt>
      <trkpt lat="47.45661" lon="6.78396">
        <ele>356</ele>
        <time>2016-01-31T10:27:49.000Z</time>
      </trkpt>
      <trkpt lat="47.45665" lon="6.78395">
        <ele>356</ele>
        <time>2016-01-31T10:27:50.000Z</time>
      </trkpt>
      <trkpt lat="47.45669" lon="6.78394">
        <ele>358</ele>
        <time>2016-01-31T10:27:51.000Z</time>
      </trkpt>
      <trkpt lat="47.45673" lon="6.78394">
        <ele>358</ele>
        <time>2016-01-31T10:27:52.000Z</time>
      </trkpt>
      <trkpt lat="47.45677" lon="6.78393">
        <ele>358</ele>
        <time>2016-01-31T10:27:53.000Z</time>
      </trkpt>
      <trkpt lat="47.4568" lon="6.78393">
        <ele>358</ele>
        <time>2016-01-31T10:27:54.000Z</time>
      </trkpt>
      <trkpt lat="47.45684" lon="6.78392">
        <ele>358</ele>
        <time>2016-01-31T10:27:55.000Z</time>
      </trkpt>
      <trkpt lat="47.45688" lon="6.78392">
        <ele>358</ele>
        <time>2016-01-31T10:27:56.000Z</time>
      </trkpt>
      <trkpt lat="47.45692" lon="6.78392">
        <ele>358</ele>
        <time>2016-01-31T10:27:57.000Z</time>
      </trkpt>
      <trkpt lat="47.45695" lon="6.78392">
        <ele>358</ele>
        <time>2016-01-31T10:27:58.000Z</time>
      </trkpt>
      <trkpt lat="47.45699" lon="6.78391">
        <ele>359</ele>
        <time>2016-01-31T10:27:59.000Z</time>
      </trkpt>
      <trkpt lat="47.45702" lon="6.78391">
        <ele>359</ele>
        <time>2016-01-31T10:28:00.000Z</time>
      </trkpt>
      <trkpt lat="47.45706" lon="6.78391">
        <ele>359</ele>
        <time>2016-01-31T10:28:01.000Z</time>
      </trkpt>
      <trkpt lat="47.45709" lon="6.78392">
        <ele>359</ele>
        <time>2016-01-31T10:28:02.000Z</time>
      </trkpt>
      <trkpt lat="47.45713" lon="6.78392">
        <ele>359</ele>
        <time>2016-01-31T10:28:03.000Z</time>
      </trkpt>
      <trkpt lat="47.45716" lon="6.78392">
        <ele>359</ele>
        <time>2016-01-31T10:28:04.000Z</time>
      </trkpt>
      <trkpt lat="47.45719" lon="6.78392">
        <ele>359</ele>
        <time>2016-01-31T10:28:05.000Z</time>
      </trkpt>
      <trkpt lat="47.45723" lon="6.78392">
        <ele>359</ele>
        <time>2016-01-31T10:28:06.000Z</time>
      </trkpt>
      <trkpt lat="47.45726" lon="6.78392">
        <ele>359</ele>
        <time>2016-01-31T10:28:07.000Z</time>
      </trkpt>
      <trkpt lat="47.45729" lon="6.78392">
        <ele>359</ele>
        <time>2016-01-31T10:28:08.000Z</time>
      </trkpt>
      <trkpt lat="47.45732" lon="6.78393">
        <ele>359</ele>
        <time>2016-01-31T10:28:09.000Z</time>
      </trkpt>
      <trkpt lat="47.45735" lon="6.78393">
        <ele>359</ele>
        <time>2016-01-31T10:28:10.000Z</time>
      </trkpt>
      <trkpt lat="47.45738" lon="6.78394">
        <ele>360</ele>
        <time>2016-01-31T10:28:11.000Z</time>
      </trkpt>
      <trkpt lat="47.45741" lon="6.78394">
        <ele>360</ele>
        <time>2016-01-31T10:28:12.000Z</time>
      </trkpt>
      <trkpt lat="47.45745" lon="6.78394">
        <ele>360</ele>
        <time>2016-01-31T10:28:13.000Z</time>
      </trkpt>
      <trkpt lat="47.45748" lon="6.78395">
        <ele>360</ele>
        <time>2016-01-31T10:28:14.000Z</time>
      </trkpt>
      <trkpt lat="47.45751" lon="6.78396">
        <ele>364</ele>
        <time>2016-01-31T10:28:15.000Z</time>
      </trkpt>
      <trkpt lat="47.45754" lon="6.78397">
        <ele>364</ele>
        <time>2016-01-31T10:28:16.000Z</time>
      </trkpt>
      <trkpt lat="47.45757" lon="6.78398">
        <ele>364</ele>
        <time>2016-01-31T10:28:17.000Z</time>
      </trkpt>
      <trkpt lat="47.4576" lon="6.78399">
        <ele>364</ele>
        <time>2016-01-31T10:28:18.000Z</time>
      </trkpt>
      <trkpt lat="47.45763" lon="6.784">
        <ele>364</ele>
        <time>2016-01-31T10:28:19.000Z</time>
      </trkpt>
      <trkpt lat="47.45766" lon="6.78401">
        <ele>364</ele>
        <time>2016-01-31T10:28:20.000Z</time>
      </trkpt>
      <trkpt lat="47.45769" lon="6.78402">
        <ele>365</ele>
        <time>2016-01-31T10:28:21.000Z</time>
      </trkpt>
      <trkpt lat="47.45772" lon="6.78404">
        <ele>365</ele>
        <time>2016-01-31T10:28:22.000Z</time>
      </trkpt>
      <trkpt lat="47.45775" lon="6.78405">
        <ele>365</ele>
        <time>2016-01-31T10:28:23.000Z</time>
      </trkpt>
      <trkpt lat="47.45777" lon="6.78407">
        <ele>365</ele>
        <time>2016-01-31T10:28:24.000Z</time>
      </trkpt>
      <trkpt lat="47.4578" lon="6.78408">
        <ele>365</ele>
        <time>2016-01-31T10:28:25.000Z</time>
      </trkpt>
      <trkpt lat="47.45782" lon="6.7841">
        <ele>366</ele>
        <time>2016-01-31T10:28:26.000Z</time>
      </trkpt>
      <trkpt lat="47.45785" lon="6.78412">
        <ele>366</ele>
        <time>2016-01-31T10:28:27.000Z</time>
      </trkpt>
      <trkpt lat="47.45787" lon="6.78414">
        <ele>366</ele>
        <time>2016-01-31T10:28:28.000Z</time>
      </trkpt>
      <trkpt lat="47.4579" lon="6.78416">
        <ele>366</ele>
        <time>2016-01-31T10:28:29.000Z</time>
      </trkpt>
      <trkpt lat="47.45792" lon="6.78418">
        <ele>365</ele>
        <time>2016-01-31T10:28:30.000Z</time>
      </trkpt>
      <trkpt lat="47.45795" lon="6.7842">
        <ele>365</ele>
        <time>2016-01-31T10:28:31.000Z</time>
      </trkpt>
      <trkpt lat="47.45797" lon="6.78422">
        <ele>365</ele>
        <time>2016-01-31T10:28:32.000Z</time>
      </trkpt>
      <trkpt lat="47.45799" lon="6.78424">
        <ele>365</ele>
        <time>2016-01-31T10:28:33.000Z</time>
      </trkpt>
      <trkpt lat="47.45803" lon="6.78427">
        <ele>366</ele>
        <time>2016-01-31T10:28:35.000Z</time>
      </trkpt>
      <trkpt lat="47.45805" lon="6.78428">
        <ele>366</ele>
        <time>2016-01-31T10:28:36.000Z</time>
      </trkpt>
      <trkpt lat="47.45807" lon="6.78429">
        <ele>366</ele>
        <time>2016-01-31T10:28:37.000Z</time>
      </trkpt>
      <trkpt lat="47.45809" lon="6.78431">
        <ele>366</ele>
        <time>2016-01-31T10:28:38.000Z</time>
      </trkpt>
      <trkpt lat="47.45811" lon="6.78433">
        <ele>366</ele>
        <time>2016-01-31T10:28:39.000Z</time>
      </trkpt>
      <trkpt lat="47.45813" lon="6.78435">
        <ele>366</ele>
        <time>2016-01-31T10:28:40.000Z</time>
      </trkpt>
      <trkpt lat="47.45816" lon="6.78438">
        <ele>366</ele>
        <time>2016-01-31T10:28:41.000Z</time>
      </trkpt>
      <trkpt lat="47.45818" lon="6.7844">
        <ele>366</ele>
        <time>2016-01-31T10:28:42.000Z</time>
      </trkpt>
      <trkpt lat="47.4582" lon="6.78443">
        <ele>366</ele>
        <time>2016-01-31T10:28:43.000Z</time>
      </trkpt>
      <trkpt lat="47.45822" lon="6.78446">
        <ele>366</ele>
        <time>2016-01-31T10:28:44.000Z</time>
      </trkpt>
      <trkpt lat="47.45823" lon="6.78448">
        <ele>366</ele>
        <time>2016-01-31T10:28:45.000Z</time>
      </trkpt>
      <trkpt lat="47.45825" lon="6.7845">
        <ele>366</ele>
        <time>2016-01-31T10:28:46.000Z</time>
      </trkpt>
      <trkpt lat="47.45827" lon="6.78452">
        <ele>366</ele>
        <time>2016-01-31T10:28:47.000Z</time>
      </trkpt>
      <trkpt lat="47.45829" lon="6.78454">
        <ele>366</ele>
        <time>2016-01-31T10:28:48.000Z</time>
      </trkpt>
      <trkpt lat="47.45832" lon="6.78456">
        <ele>366</ele>
        <time>2016-01-31T10:28:49.000Z</time>
      </trkpt>
      <trkpt lat="47.45834" lon="6.78458">
        <ele>374</ele>
        <time>2016-01-31T10:28:50.000Z</time>
      </trkpt>
      <trkpt lat="47.45836" lon="6.7846">
        <ele>374</ele>
        <time>2016-01-31T10:28:51.000Z</time>
      </trkpt>
      <trkpt lat="47.45838" lon="6.78462">
        <ele>374</ele>
        <time>2016-01-31T10:28:52.000Z</time>
      </trkpt>
      <trkpt lat="47.4584" lon="6.78465">
        <ele>374</ele>
        <time>2016-01-31T10:28:53.000Z</time>
      </trkpt>
      <trkpt lat="47.45842" lon="6.78467">
        <ele>374</ele>
        <time>2016-01-31T10:28:54.000Z</time>
      </trkpt>
      <trkpt lat="47.45844" lon="6.78469">
        <ele>374</ele>
        <time>2016-01-31T10:28:55.000Z</time>
      </trkpt>
      <trkpt lat="47.45846" lon="6.7847">
        <ele>374</ele>
        <time>2016-01-31T10:28:56.000Z</time>
      </trkpt>
      <trkpt lat="47.4585" lon="6.78471">
        <ele>374</ele>
        <time>2016-01-31T10:28:58.000Z</time>
      </trkpt>
      <trkpt lat="47.45852" lon="6.78472">
        <ele>374</ele>
        <time>2016-01-31T10:28:59.000Z</time>
      </trkpt>
      <trkpt lat="47.45855" lon="6.78474">
        <ele>375</ele>
        <time>2016-01-31T10:29:01.000Z</time>
      </trkpt>
      <trkpt lat="47.45857" lon="6.78475">
        <ele>375</ele>
        <time>2016-01-31T10:29:02.000Z</time>
      </trkpt>
      <trkpt lat="47.4586" lon="6.78476">
        <ele>375</ele>
        <time>2016-01-31T10:29:04.000Z</time>
      </trkpt>
      <trkpt lat="47.45861" lon="6.78477">
        <ele>375</ele>
        <time>2016-01-31T10:29:05.000Z</time>
      </trkpt>
      <trkpt lat="47.45865" lon="6.7848">
        <ele>375</ele>
        <time>2016-01-31T10:29:07.000Z</time>
      </trkpt>
      <trkpt lat="47.45867" lon="6.78481">
        <ele>376</ele>
        <time>2016-01-31T10:29:08.000Z</time>
      </trkpt>
      <trkpt lat="47.45869" lon="6.78484">
        <ele>376</ele>
        <time>2016-01-31T10:29:09.000Z</time>
      </trkpt>
      <trkpt lat="47.45871" lon="6.78486">
        <ele>376</ele>
        <time>2016-01-31T10:29:10.000Z</time>
      </trkpt>
      <trkpt lat="47.45873" lon="6.78488">
        <ele>376</ele>
        <time>2016-01-31T10:29:11.000Z</time>
      </trkpt>
      <trkpt lat="47.45875" lon="6.7849">
        <ele>376</ele>
        <time>2016-01-31T10:29:12.000Z</time>
      </trkpt>
      <trkpt lat="47.45877" lon="6.78492">
        <ele>377</ele>
        <time>2016-01-31T10:29:13.000Z</time>
      </trkpt>
      <trkpt lat="47.45879" lon="6.78495">
        <ele>377</ele>
        <time>2016-01-31T10:29:14.000Z</time>
      </trkpt>
      <trkpt lat="47.4588" lon="6.78497">
        <ele>377</ele>
        <time>2016-01-31T10:29:15.000Z</time>
      </trkpt>
      <trkpt lat="47.45882" lon="6.78499">
        <ele>377</ele>
        <time>2016-01-31T10:29:16.000Z</time>
      </trkpt>
      <trkpt lat="47.45884" lon="6.78502">
        <ele>376</ele>
        <time>2016-01-31T10:29:17.000Z</time>
      </trkpt>
      <trkpt lat="47.45886" lon="6.78504">
        <ele>376</ele>
        <time>2016-01-31T10:29:18.000Z</time>
      </trkpt>
      <trkpt lat="47.45888" lon="6.78507">
        <ele>376</ele>
        <time>2016-01-31T10:29:19.000Z</time>
      </trkpt>
      <trkpt lat="47.45889" lon="6.78508">
        <ele>376</ele>
        <time>2016-01-31T10:29:20.000Z</time>
      </trkpt>
      <trkpt lat="47.45892" lon="6.78511">
        <ele>377</ele>
        <time>2016-01-31T10:29:22.000Z</time>
      </trkpt>
      <trkpt lat="47.45894" lon="6.78511">
        <ele>377</ele>
        <time>2016-01-31T10:29:23.000Z</time>
      </trkpt>
      <trkpt lat="47.45897" lon="6.78514">
        <ele>377</ele>
        <time>2016-01-31T10:29:25.000Z</time>
      </trkpt>
      <trkpt lat="47.45898" lon="6.78516">
        <ele>377</ele>
        <time>2016-01-31T10:29:26.000Z</time>
      </trkpt>
      <trkpt lat="47.459" lon="6.78518">
        <ele>377</ele>
        <time>2016-01-31T10:29:27.000Z</time>
      </trkpt>
      <trkpt lat="47.45902" lon="6.7852">
        <ele>377</ele>
        <time>2016-01-31T10:29:28.000Z</time>
      </trkpt>
      <trkpt lat="47.45903" lon="6.78523">
        <ele>377</ele>
        <time>2016-01-31T10:29:29.000Z</time>
      </trkpt>
      <trkpt lat="47.45905" lon="6.78526">
        <ele>377</ele>
        <time>2016-01-31T10:29:30.000Z</time>
      </trkpt>
      <trkpt lat="47.45908" lon="6.7853">
        <ele>377</ele>
        <time>2016-01-31T10:29:32.000Z</time>
      </trkpt>
      <trkpt lat="47.4591" lon="6.78532">
        <ele>377</ele>
        <time>2016-01-31T10:29:33.000Z</time>
      </trkpt>
      <trkpt lat="47.45914" lon="6.78534">
        <ele>377</ele>
        <time>2016-01-31T10:29:35.000Z</time>
      </trkpt>
      <trkpt lat="47.45916" lon="6.78536">
        <ele>377</ele>
        <time>2016-01-31T10:29:36.000Z</time>
      </trkpt>
      <trkpt lat="47.45918" lon="6.78537">
        <ele>386</ele>
        <time>2016-01-31T10:29:37.000Z</time>
      </trkpt>
      <trkpt lat="47.4592" lon="6.78539">
        <ele>386</ele>
        <time>2016-01-31T10:29:38.000Z</time>
      </trkpt>
      <trkpt lat="47.45922" lon="6.7854">
        <ele>386</ele>
        <time>2016-01-31T10:29:39.000Z</time>
      </trkpt>
      <trkpt lat="47.45925" lon="6.7854">
        <ele>386</ele>
        <time>2016-01-31T10:29:40.000Z</time>
      </trkpt>
      <trkpt lat="47.45928" lon="6.7854">
        <ele>386</ele>
        <time>2016-01-31T10:29:41.000Z</time>
      </trkpt>
      <trkpt lat="47.4593" lon="6.7854">
        <ele>387</ele>
        <time>2016-01-31T10:29:42.000Z</time>
      </trkpt>
      <trkpt lat="47.45933" lon="6.78539">
        <ele>387</ele>
        <time>2016-01-31T10:29:43.000Z</time>
      </trkpt>
      <trkpt lat="47.45935" lon="6.78538">
        <ele>387</ele>
        <time>2016-01-31T10:29:44.000Z</time>
      </trkpt>
      <trkpt lat="47.45938" lon="6.78536">
        <ele>387</ele>
        <time>2016-01-31T10:29:45.000Z</time>
      </trkpt>
      <trkpt lat="47.4594" lon="6.78535">
        <ele>388</ele>
        <time>2016-01-31T10:29:46.000Z</time>
      </trkpt>
      <trkpt lat="47.45944" lon="6.78531">
        <ele>388</ele>
        <time>2016-01-31T10:29:48.000Z</time>
      </trkpt>
      <trkpt lat="47.45945" lon="6.78528">
        <ele>388</ele>
        <time>2016-01-31T10:29:49.000Z</time>
      </trkpt>
      <trkpt lat="47.45946" lon="6.78522">
        <ele>388</ele>
        <time>2016-01-31T10:29:51.000Z</time>
      </trkpt>
      <trkpt lat="47.45945" lon="6.78518">
        <ele>388</ele>
        <time>2016-01-31T10:29:52.000Z</time>
      </trkpt>
      <trkpt lat="47.45945" lon="6.78515">
        <ele>388</ele>
        <time>2016-01-31T10:29:53.000Z</time>
      </trkpt>
      <trkpt lat="47.45944" lon="6.78512">
        <ele>388</ele>
        <time>2016-01-31T10:29:54.000Z</time>
      </trkpt>
      <trkpt lat="47.45944" lon="6.78508">
        <ele>388</ele>
        <time>2016-01-31T10:29:55.000Z</time>
      </trkpt>
      <trkpt lat="47.45943" lon="6.78504">
        <ele>387</ele>
        <time>2016-01-31T10:29:56.000Z</time>
      </trkpt>
      <trkpt lat="47.45942" lon="6.785">
        <ele>387</ele>
        <time>2016-01-31T10:29:57.000Z</time>
      </trkpt>
      <trkpt lat="47.45942" lon="6.78496">
        <ele>389</ele>
        <time>2016-01-31T10:29:58.000Z</time>
      </trkpt>
      <trkpt lat="47.45941" lon="6.78492">
        <ele>389</ele>
        <time>2016-01-31T10:29:59.000Z</time>
      </trkpt>
      <trkpt lat="47.45941" lon="6.78488">
        <ele>389</ele>
        <time>2016-01-31T10:30:00.000Z</time>
      </trkpt>
      <trkpt lat="47.4594" lon="6.78484">
        <ele>390</ele>
        <time>2016-01-31T10:30:01.000Z</time>
      </trkpt>
      <trkpt lat="47.45939" lon="6.7848">
        <ele>390</ele>
        <time>2016-01-31T10:30:02.000Z</time>
      </trkpt>
      <trkpt lat="47.45938" lon="6.78477">
        <ele>390</ele>
        <time>2016-01-31T10:30:03.000Z</time>
      </trkpt>
      <trkpt lat="47.45937" lon="6.78474">
        <ele>390</ele>
        <time>2016-01-31T10:30:04.000Z</time>
      </trkpt>
      <trkpt lat="47.45937" lon="6.78467">
        <ele>390</ele>
        <time>2016-01-31T10:30:06.000Z</time>
      </trkpt>
      <trkpt lat="47.45936" lon="6.78464">
        <ele>390</ele>
        <time>2016-01-31T10:30:07.000Z</time>
      </trkpt>
      <trkpt lat="47.45936" lon="6.78459">
        <ele>391</ele>
        <time>2016-01-31T10:30:09.000Z</time>
      </trkpt>
      <trkpt lat="47.45937" lon="6.78456">
        <ele>391</ele>
        <time>2016-01-31T10:30:10.000Z</time>
      </trkpt>
      <trkpt lat="47.45938" lon="6.78453">
        <ele>391</ele>
        <time>2016-01-31T10:30:11.000Z</time>
      </trkpt>
      <trkpt lat="47.45939" lon="6.7845">
        <ele>391</ele>
        <time>2016-01-31T10:30:12.000Z</time>
      </trkpt>
      <trkpt lat="47.45942" lon="6.78445">
        <ele>391</ele>
        <time>2016-01-31T10:30:14.000Z</time>
      </trkpt>
      <trkpt lat="47.45944" lon="6.78443">
        <ele>392</ele>
        <time>2016-01-31T10:30:15.000Z</time>
      </trkpt>
      <trkpt lat="47.45945" lon="6.78441">
        <ele>392</ele>
        <time>2016-01-31T10:30:16.000Z</time>
      </trkpt>
      <trkpt lat="47.45947" lon="6.78439">
        <ele>392</ele>
        <time>2016-01-31T10:30:17.000Z</time>
      </trkpt>
      <trkpt lat="47.45949" lon="6.78437">
        <ele>392</ele>
        <time>2016-01-31T10:30:18.000Z</time>
      </trkpt>
      <trkpt lat="47.45951" lon="6.78435">
        <ele>392</ele>
        <time>2016-01-31T10:30:19.000Z</time>
      </trkpt>
      <trkpt lat="47.45954" lon="6.78432">
        <ele>393</ele>
        <time>2016-01-31T10:30:21.000Z</time>
      </trkpt>
      <trkpt lat="47.45956" lon="6.7843">
        <ele>393</ele>
        <time>2016-01-31T10:30:22.000Z</time>
      </trkpt>
      <trkpt lat="47.45958" lon="6.78427">
        <ele>393</ele>
        <time>2016-01-31T10:30:24.000Z</time>
      </trkpt>
      <trkpt lat="47.45959" lon="6.78425">
        <ele>393</ele>
        <time>2016-01-31T10:30:25.000Z</time>
      </trkpt>
      <trkpt lat="47.45962" lon="6.78423">
        <ele>394</ele>
        <time>2016-01-31T10:30:27.000Z</time>
      </trkpt>
      <trkpt lat="47.45965" lon="6.78424">
        <ele>394</ele>
        <time>2016-01-31T10:30:28.000Z</time>
      </trkpt>
      <trkpt lat="47.45968" lon="6.78426">
        <ele>395</ele>
        <time>2016-01-31T10:30:30.000Z</time>
      </trkpt>
      <trkpt lat="47.45968" lon="6.78428">
        <ele>395</ele>
        <time>2016-01-31T10:30:31.000Z</time>
      </trkpt>
      <trkpt lat="47.45968" lon="6.78434">
        <ele>394</ele>
        <time>2016-01-31T10:30:36.000Z</time>
      </trkpt>
      <trkpt lat="47.45968" lon="6.78435">
        <ele>394</ele>
        <time>2016-01-31T10:30:37.000Z</time>
      </trkpt>
      <trkpt lat="47.4597" lon="6.7844">
        <ele>394</ele>
        <time>2016-01-31T10:30:40.000Z</time>
      </trkpt>
      <trkpt lat="47.45971" lon="6.78441">
        <ele>394</ele>
        <time>2016-01-31T10:30:41.000Z</time>
      </trkpt>
      <trkpt lat="47.45974" lon="6.78445">
        <ele>395</ele>
        <time>2016-01-31T10:30:44.000Z</time>
      </trkpt>
      <trkpt lat="47.45975" lon="6.78447">
        <ele>395</ele>
        <time>2016-01-31T10:30:45.000Z</time>
      </trkpt>
      <trkpt lat="47.45977" lon="6.7845">
        <ele>395</ele>
        <time>2016-01-31T10:30:47.000Z</time>
      </trkpt>
      <trkpt lat="47.45978" lon="6.78452">
        <ele>395</ele>
        <time>2016-01-31T10:30:48.000Z</time>
      </trkpt>
      <trkpt lat="47.4598" lon="6.78455">
        <ele>395</ele>
        <time>2016-01-31T10:30:50.000Z</time>
      </trkpt>
      <trkpt lat="47.45981" lon="6.78457">
        <ele>395</ele>
        <time>2016-01-31T10:30:51.000Z</time>
      </trkpt>
      <trkpt lat="47.45984" lon="6.78461">
        <ele>395</ele>
        <time>2016-01-31T10:30:53.000Z</time>
      </trkpt>
      <trkpt lat="47.45985" lon="6.78462">
        <ele>395</ele>
        <time>2016-01-31T10:30:54.000Z</time>
      </trkpt>
      <trkpt lat="47.45988" lon="6.78463">
        <ele>395</ele>
        <time>2016-01-31T10:30:56.000Z</time>
      </trkpt>
      <trkpt lat="47.4599" lon="6.78463">
        <ele>395</ele>
        <time>2016-01-31T10:30:57.000Z</time>
      </trkpt>
      <trkpt lat="47.45994" lon="6.78463">
        <ele>396</ele>
        <time>2016-01-31T10:31:00.000Z</time>
      </trkpt>
      <trkpt lat="47.45995" lon="6.78462">
        <ele>396</ele>
        <time>2016-01-31T10:31:01.000Z</time>
      </trkpt>
      <trkpt lat="47.46" lon="6.78462">
        <ele>396</ele>
        <time>2016-01-31T10:31:04.000Z</time>
      </trkpt>
      <trkpt lat="47.46001" lon="6.78462">
        <ele>404</ele>
        <time>2016-01-31T10:31:05.000Z</time>
      </trkpt>
      <trkpt lat="47.46005" lon="6.78462">
        <ele>404</ele>
        <time>2016-01-31T10:31:08.000Z</time>
      </trkpt>
      <trkpt lat="47.46007" lon="6.78461">
        <ele>404</ele>
        <time>2016-01-31T10:31:09.000Z</time>
      </trkpt>
      <trkpt lat="47.4601" lon="6.78461">
        <ele>404</ele>
        <time>2016-01-31T10:31:11.000Z</time>
      </trkpt>
      <trkpt lat="47.46012" lon="6.78461">
        <ele>404</ele>
        <time>2016-01-31T10:31:12.000Z</time>
      </trkpt>
      <trkpt lat="47.46015" lon="6.78463">
        <ele>404</ele>
        <time>2016-01-31T10:31:14.000Z</time>
      </trkpt>
      <trkpt lat="47.46016" lon="6.78465">
        <ele>404</ele>
        <time>2016-01-31T10:31:15.000Z</time>
      </trkpt>
      <trkpt lat="47.4602" lon="6.78466">
        <ele>405</ele>
        <time>2016-01-31T10:31:18.000Z</time>
      </trkpt>
      <trkpt lat="47.46021" lon="6.78467">
        <ele>405</ele>
        <time>2016-01-31T10:31:19.000Z</time>
      </trkpt>
      <trkpt lat="47.46024" lon="6.78469">
        <ele>405</ele>
        <time>2016-01-31T10:31:22.000Z</time>
      </trkpt>
      <trkpt lat="47.46026" lon="6.7847">
        <ele>405</ele>
        <time>2016-01-31T10:31:23.000Z</time>
      </trkpt>
      <trkpt lat="47.4603" lon="6.78471">
        <ele>405</ele>
        <time>2016-01-31T10:31:26.000Z</time>
      </trkpt>
      <trkpt lat="47.46031" lon="6.78471">
        <ele>405</ele>
        <time>2016-01-31T10:31:27.000Z</time>
      </trkpt>
      <trkpt lat="47.46036" lon="6.7847">
        <ele>406</ele>
        <time>2016-01-31T10:31:32.000Z</time>
      </trkpt>
      <trkpt lat="47.46037" lon="6.7847">
        <ele>406</ele>
        <time>2016-01-31T10:31:33.000Z</time>
      </trkpt>
      <trkpt lat="47.4604" lon="6.78471">
        <ele>406</ele>
        <time>2016-01-31T10:31:35.000Z</time>
      </trkpt>
      <trkpt lat="47.46042" lon="6.78472">
        <ele>406</ele>
        <time>2016-01-31T10:31:36.000Z</time>
      </trkpt>
      <trkpt lat="47.46044" lon="6.78474">
        <ele>406</ele>
        <time>2016-01-31T10:31:37.000Z</time>
      </trkpt>
      <trkpt lat="47.46046" lon="6.78475">
        <ele>406</ele>
        <time>2016-01-31T10:31:38.000Z</time>
      </trkpt>
      <trkpt lat="47.46049" lon="6.78477">
        <ele>406</ele>
        <time>2016-01-31T10:31:39.000Z</time>
      </trkpt>
      <trkpt lat="47.46051" lon="6.78479">
        <ele>407</ele>
        <time>2016-01-31T10:31:40.000Z</time>
      </trkpt>
      <trkpt lat="47.46055" lon="6.78482">
        <ele>407</ele>
        <time>2016-01-31T10:31:42.000Z</time>
      </trkpt>
      <trkpt lat="47.46056" lon="6.78484">
        <ele>407</ele>
        <time>2016-01-31T10:31:43.000Z</time>
      </trkpt>
      <trkpt lat="47.46059" lon="6.78486">
        <ele>407</ele>
        <time>2016-01-31T10:31:45.000Z</time>
      </trkpt>
      <trkpt lat="47.4606" lon="6.78487">
        <ele>407</ele>
        <time>2016-01-31T10:31:46.000Z</time>
      </trkpt>
      <trkpt lat="47.46063" lon="6.7849">
        <ele>408</ele>
        <time>2016-01-31T10:31:48.000Z</time>
      </trkpt>
      <trkpt lat="47.46064" lon="6.78491">
        <ele>408</ele>
        <time>2016-01-31T10:31:49.000Z</time>
      </trkpt>
      <trkpt lat="47.46067" lon="6.78495">
        <ele>408</ele>
        <time>2016-01-31T10:31:51.000Z</time>
      </trkpt>
      <trkpt lat="47.46068" lon="6.78496">
        <ele>409</ele>
        <time>2016-01-31T10:31:52.000Z</time>
      </trkpt>
      <trkpt lat="47.46072" lon="6.785">
        <ele>409</ele>
        <time>2016-01-31T10:31:54.000Z</time>
      </trkpt>
      <trkpt lat="47.46073" lon="6.78502">
        <ele>408</ele>
        <time>2016-01-31T10:31:55.000Z</time>
      </trkpt>
      <trkpt lat="47.46076" lon="6.78506">
        <ele>408</ele>
        <time>2016-01-31T10:31:57.000Z</time>
      </trkpt>
      <trkpt lat="47.46078" lon="6.78508">
        <ele>408</ele>
        <time>2016-01-31T10:31:58.000Z</time>
      </trkpt>
      <trkpt lat="47.4608" lon="6.78511">
        <ele>408</ele>
        <time>2016-01-31T10:32:00.000Z</time>
      </trkpt>
      <trkpt lat="47.46082" lon="6.78511">
        <ele>408</ele>
        <time>2016-01-31T10:32:01.000Z</time>
      </trkpt>
      <trkpt lat="47.46086" lon="6.78511">
        <ele>410</ele>
        <time>2016-01-31T10:32:04.000Z</time>
      </trkpt>
      <trkpt lat="47.46087" lon="6.7851">
        <ele>410</ele>
        <time>2016-01-31T10:32:05.000Z</time>
      </trkpt>
      <trkpt lat="47.46091" lon="6.78508">
        <ele>410</ele>
        <time>2016-01-31T10:32:09.000Z</time>
      </trkpt>
      <trkpt lat="47.46092" lon="6.78508">
        <ele>410</ele>
        <time>2016-01-31T10:32:10.000Z</time>
      </trkpt>
      <trkpt lat="47.46095" lon="6.78507">
        <ele>409</ele>
        <time>2016-01-31T10:32:13.000Z</time>
      </trkpt>
      <trkpt lat="47.46096" lon="6.78507">
        <ele>409</ele>
        <time>2016-01-31T10:32:14.000Z</time>
      </trkpt>
      <trkpt lat="47.461" lon="6.78507">
        <ele>409</ele>
        <time>2016-01-31T10:32:17.000Z</time>
      </trkpt>
      <trkpt lat="47.46101" lon="6.78506">
        <ele>409</ele>
        <time>2016-01-31T10:32:18.000Z</time>
      </trkpt>
      <trkpt lat="47.46105" lon="6.78505">
        <ele>409</ele>
        <time>2016-01-31T10:32:21.000Z</time>
      </trkpt>
      <trkpt lat="47.46106" lon="6.78504">
        <ele>409</ele>
        <time>2016-01-31T10:32:22.000Z</time>
      </trkpt>
      <trkpt lat="47.46111" lon="6.78502">
        <ele>409</ele>
        <time>2016-01-31T10:32:25.000Z</time>
      </trkpt>
      <trkpt lat="47.46112" lon="6.78501">
        <ele>409</ele>
        <time>2016-01-31T10:32:26.000Z</time>
      </trkpt>
      <trkpt lat="47.46115" lon="6.785">
        <ele>409</ele>
        <time>2016-01-31T10:32:28.000Z</time>
      </trkpt>
      <trkpt lat="47.46117" lon="6.78499">
        <ele>411</ele>
        <time>2016-01-31T10:32:29.000Z</time>
      </trkpt>
      <trkpt lat="47.4612" lon="6.78497">
        <ele>411</ele>
        <time>2016-01-31T10:32:31.000Z</time>
      </trkpt>
      <trkpt lat="47.46122" lon="6.78496">
        <ele>411</ele>
        <time>2016-01-31T10:32:32.000Z</time>
      </trkpt>
      <trkpt lat="47.46124" lon="6.78495">
        <ele>410</ele>
        <time>2016-01-31T10:32:33.000Z</time>
      </trkpt>
      <trkpt lat="47.46127" lon="6.78494">
        <ele>410</ele>
        <time>2016-01-31T10:32:34.000Z</time>
      </trkpt>
      <trkpt lat="47.46129" lon="6.78493">
        <ele>410</ele>
        <time>2016-01-31T10:32:35.000Z</time>
      </trkpt>
      <trkpt lat="47.46132" lon="6.78492">
        <ele>410</ele>
        <time>2016-01-31T10:32:36.000Z</time>
      </trkpt>
      <trkpt lat="47.46135" lon="6.78491">
        <ele>410</ele>
        <time>2016-01-31T10:32:37.000Z</time>
      </trkpt>
      <trkpt lat="47.46138" lon="6.78491">
        <ele>410</ele>
        <time>2016-01-31T10:32:38.000Z</time>
      </trkpt>
      <trkpt lat="47.4614" lon="6.78491">
        <ele>410</ele>
        <time>2016-01-31T10:32:39.000Z</time>
      </trkpt>
      <trkpt lat="47.46143" lon="6.78491">
        <ele>410</ele>
        <time>2016-01-31T10:32:40.000Z</time>
      </trkpt>
      <trkpt lat="47.46146" lon="6.78491">
        <ele>410</ele>
        <time>2016-01-31T10:32:41.000Z</time>
      </trkpt>
      <trkpt lat="47.46149" lon="6.7849">
        <ele>410</ele>
        <time>2016-01-31T10:32:42.000Z</time>
      </trkpt>
      <trkpt lat="47.46151" lon="6.7849">
        <ele>410</ele>
        <time>2016-01-31T10:32:43.000Z</time>
      </trkpt>
      <trkpt lat="47.46153" lon="6.78489">
        <ele>410</ele>
        <time>2016-01-31T10:32:44.000Z</time>
      </trkpt>
      <trkpt lat="47.46157" lon="6.78488">
        <ele>410</ele>
        <time>2016-01-31T10:32:46.000Z</time>
      </trkpt>
      <trkpt lat="47.4616" lon="6.78487">
        <ele>410</ele>
        <time>2016-01-31T10:32:47.000Z</time>
      </trkpt>
      <trkpt lat="47.46162" lon="6.78486">
        <ele>410</ele>
        <time>2016-01-31T10:32:48.000Z</time>
      </trkpt>
      <trkpt lat="47.46166" lon="6.78485">
        <ele>410</ele>
        <time>2016-01-31T10:32:49.000Z</time>
      </trkpt>
      <trkpt lat="47.4617" lon="6.78483">
        <ele>408</ele>
        <time>2016-01-31T10:32:50.000Z</time>
      </trkpt>
      <trkpt lat="47.46174" lon="6.78481">
        <ele>408</ele>
        <time>2016-01-31T10:32:51.000Z</time>
      </trkpt>
      <trkpt lat="47.46179" lon="6.78478">
        <ele>408</ele>
        <time>2016-01-31T10:32:52.000Z</time>
      </trkpt>
      <trkpt lat="47.46184" lon="6.78477">
        <ele>408</ele>
        <time>2016-01-31T10:32:53.000Z</time>
      </trkpt>
      <trkpt lat="47.46189" lon="6.78475">
        <ele>408</ele>
        <time>2016-01-31T10:32:54.000Z</time>
      </trkpt>
      <trkpt lat="47.46194" lon="6.78474">
        <ele>407</ele>
        <time>2016-01-31T10:32:55.000Z</time>
      </trkpt>
      <trkpt lat="47.46199" lon="6.78472">
        <ele>407</ele>
        <time>2016-01-31T10:32:56.000Z</time>
      </trkpt>
      <trkpt lat="47.46204" lon="6.78471">
        <ele>407</ele>
        <time>2016-01-31T10:32:57.000Z</time>
      </trkpt>
      <trkpt lat="47.46208" lon="6.78469">
        <ele>407</ele>
        <time>2016-01-31T10:32:58.000Z</time>
      </trkpt>
      <trkpt lat="47.46213" lon="6.78468">
        <ele>407</ele>
        <time>2016-01-31T10:32:59.000Z</time>
      </trkpt>
      <trkpt lat="47.4623" lon="6.78465">
        <ele>406</ele>
        <time>2016-01-31T10:33:00.000Z</time>
      </trkpt>
      <trkpt lat="47.46235" lon="6.78464">
        <ele>406</ele>
        <time>2016-01-31T10:33:01.000Z</time>
      </trkpt>
      <trkpt lat="47.46242" lon="6.78462">
        <ele>406</ele>
        <time>2016-01-31T10:33:02.000Z</time>
      </trkpt>
      <trkpt lat="47.46249" lon="6.78459">
        <ele>406</ele>
        <time>2016-01-31T10:33:03.000Z</time>
      </trkpt>
      <trkpt lat="47.46255" lon="6.78457">
        <ele>403</ele>
        <time>2016-01-31T10:33:04.000Z</time>
      </trkpt>
      <trkpt lat="47.4626" lon="6.78455">
        <ele>403</ele>
        <time>2016-01-31T10:33:05.000Z</time>
      </trkpt>
      <trkpt lat="47.46265" lon="6.78453">
        <ele>403</ele>
        <time>2016-01-31T10:33:06.000Z</time>
      </trkpt>
      <trkpt lat="47.46272" lon="6.7845">
        <ele>403</ele>
        <time>2016-01-31T10:33:07.000Z</time>
      </trkpt>
      <trkpt lat="47.46278" lon="6.78447">
        <ele>403</ele>
        <time>2016-01-31T10:33:08.000Z</time>
      </trkpt>
      <trkpt lat="47.46283" lon="6.78445">
        <ele>403</ele>
        <time>2016-01-31T10:33:09.000Z</time>
      </trkpt>
      <trkpt lat="47.46286" lon="6.78444">
        <ele>403</ele>
        <time>2016-01-31T10:33:10.000Z</time>
      </trkpt>
      <trkpt lat="47.4629" lon="6.78443">
        <ele>402</ele>
        <time>2016-01-31T10:33:11.000Z</time>
      </trkpt>
      <trkpt lat="47.46297" lon="6.7844">
        <ele>402</ele>
        <time>2016-01-31T10:33:12.000Z</time>
      </trkpt>
      <trkpt lat="47.46302" lon="6.78439">
        <ele>402</ele>
        <time>2016-01-31T10:33:13.000Z</time>
      </trkpt>
      <trkpt lat="47.46307" lon="6.78438">
        <ele>402</ele>
        <time>2016-01-31T10:33:14.000Z</time>
      </trkpt>
      <trkpt lat="47.46311" lon="6.78436">
        <ele>402</ele>
        <time>2016-01-31T10:33:15.000Z</time>
      </trkpt>
      <trkpt lat="47.46315" lon="6.78435">
        <ele>402</ele>
        <time>2016-01-31T10:33:16.000Z</time>
      </trkpt>
      <trkpt lat="47.4632" lon="6.78431">
        <ele>401</ele>
        <time>2016-01-31T10:33:17.000Z</time>
      </trkpt>
      <trkpt lat="47.46325" lon="6.78429">
        <ele>401</ele>
        <time>2016-01-31T10:33:18.000Z</time>
      </trkpt>
      <trkpt lat="47.4633" lon="6.78427">
        <ele>401</ele>
        <time>2016-01-31T10:33:19.000Z</time>
      </trkpt>
      <trkpt lat="47.46335" lon="6.78424">
        <ele>401</ele>
        <time>2016-01-31T10:33:20.000Z</time>
      </trkpt>
      <trkpt lat="47.46341" lon="6.78422">
        <ele>401</ele>
        <time>2016-01-31T10:33:21.000Z</time>
      </trkpt>
      <trkpt lat="47.46345" lon="6.78419">
        <ele>401</ele>
        <time>2016-01-31T10:33:22.000Z</time>
      </trkpt>
      <trkpt lat="47.46349" lon="6.78415">
        <ele>398</ele>
        <time>2016-01-31T10:33:23.000Z</time>
      </trkpt>
      <trkpt lat="47.46353" lon="6.78414">
        <ele>398</ele>
        <time>2016-01-31T10:33:24.000Z</time>
      </trkpt>
      <trkpt lat="47.46358" lon="6.78413">
        <ele>398</ele>
        <time>2016-01-31T10:33:25.000Z</time>
      </trkpt>
      <trkpt lat="47.46363" lon="6.78413">
        <ele>397</ele>
        <time>2016-01-31T10:33:26.000Z</time>
      </trkpt>
      <trkpt lat="47.46367" lon="6.78413">
        <ele>397</ele>
        <time>2016-01-31T10:33:27.000Z</time>
      </trkpt>
      <trkpt lat="47.4637" lon="6.78415">
        <ele>397</ele>
        <time>2016-01-31T10:33:28.000Z</time>
      </trkpt>
      <trkpt lat="47.46373" lon="6.78419">
        <ele>402</ele>
        <time>2016-01-31T10:33:29.000Z</time>
      </trkpt>
      <trkpt lat="47.46373" lon="6.7842">
        <ele>402</ele>
        <time>2016-01-31T10:33:30.000Z</time>
      </trkpt>
      <trkpt lat="47.46377" lon="6.78421">
        <ele>402</ele>
        <time>2016-01-31T10:33:42.000Z</time>
      </trkpt>
      <trkpt lat="47.46378" lon="6.78416">
        <ele>397</ele>
        <time>2016-01-31T10:33:43.000Z</time>
      </trkpt>
      <trkpt lat="47.46378" lon="6.78413">
        <ele>397</ele>
        <time>2016-01-31T10:33:44.000Z</time>
      </trkpt>
      <trkpt lat="47.46379" lon="6.78408">
        <ele>397</ele>
        <time>2016-01-31T10:33:45.000Z</time>
      </trkpt>
      <trkpt lat="47.46379" lon="6.78402">
        <ele>397</ele>
        <time>2016-01-31T10:33:46.000Z</time>
      </trkpt>
      <trkpt lat="47.4638" lon="6.7839">
        <ele>396</ele>
        <time>2016-01-31T10:33:47.000Z</time>
      </trkpt>
      <trkpt lat="47.46382" lon="6.78383">
        <ele>396</ele>
        <time>2016-01-31T10:33:48.000Z</time>
      </trkpt>
      <trkpt lat="47.46386" lon="6.78376">
        <ele>395</ele>
        <time>2016-01-31T10:33:49.000Z</time>
      </trkpt>
      <trkpt lat="47.46392" lon="6.78371">
        <ele>395</ele>
        <time>2016-01-31T10:33:50.000Z</time>
      </trkpt>
      <trkpt lat="47.46397" lon="6.78364">
        <ele>394</ele>
        <time>2016-01-31T10:33:51.000Z</time>
      </trkpt>
      <trkpt lat="47.46402" lon="6.78357">
        <ele>393</ele>
        <time>2016-01-31T10:33:52.000Z</time>
      </trkpt>
      <trkpt lat="47.46406" lon="6.78353">
        <ele>393</ele>
        <time>2016-01-31T10:33:53.000Z</time>
      </trkpt>
      <trkpt lat="47.4641" lon="6.7835">
        <ele>392</ele>
        <time>2016-01-31T10:33:54.000Z</time>
      </trkpt>
      <trkpt lat="47.46414" lon="6.78345">
        <ele>391</ele>
        <time>2016-01-31T10:33:55.000Z</time>
      </trkpt>
      <trkpt lat="47.46419" lon="6.78341">
        <ele>389</ele>
        <time>2016-01-31T10:33:56.000Z</time>
      </trkpt>
      <trkpt lat="47.46423" lon="6.78335">
        <ele>389</ele>
        <time>2016-01-31T10:33:57.000Z</time>
      </trkpt>
      <trkpt lat="47.46429" lon="6.78329">
        <ele>386</ele>
        <time>2016-01-31T10:33:58.000Z</time>
      </trkpt>
      <trkpt lat="47.46434" lon="6.78323">
        <ele>385</ele>
        <time>2016-01-31T10:33:59.000Z</time>
      </trkpt>
      <trkpt lat="47.46437" lon="6.78319">
        <ele>385</ele>
        <time>2016-01-31T10:34:00.000Z</time>
      </trkpt>
      <trkpt lat="47.46441" lon="6.78315">
        <ele>385</ele>
        <time>2016-01-31T10:34:01.000Z</time>
      </trkpt>
      <trkpt lat="47.46445" lon="6.7831">
        <ele>384</ele>
        <time>2016-01-31T10:34:02.000Z</time>
      </trkpt>
      <trkpt lat="47.4645" lon="6.7831">
        <ele>384</ele>
        <time>2016-01-31T10:34:03.000Z</time>
      </trkpt>
      <trkpt lat="47.46454" lon="6.78309">
        <ele>384</ele>
        <time>2016-01-31T10:34:04.000Z</time>
      </trkpt>
      <trkpt lat="47.46457" lon="6.78308">
        <ele>384</ele>
        <time>2016-01-31T10:34:05.000Z</time>
      </trkpt>
      <trkpt lat="47.46461" lon="6.78312">
        <ele>384</ele>
        <time>2016-01-31T10:34:06.000Z</time>
      </trkpt>
      <trkpt lat="47.46464" lon="6.78315">
        <ele>384</ele>
        <time>2016-01-31T10:34:07.000Z</time>
      </trkpt>
      <trkpt lat="47.46467" lon="6.78318">
        <ele>384</ele>
        <time>2016-01-31T10:34:08.000Z</time>
      </trkpt>
      <trkpt lat="47.46469" lon="6.78319">
        <ele>384</ele>
        <time>2016-01-31T10:34:09.000Z</time>
      </trkpt>
      <trkpt lat="47.46472" lon="6.78322">
        <ele>384</ele>
        <time>2016-01-31T10:34:10.000Z</time>
      </trkpt>
      <trkpt lat="47.46475" lon="6.78324">
        <ele>385</ele>
        <time>2016-01-31T10:34:11.000Z</time>
      </trkpt>
      <trkpt lat="47.46478" lon="6.78326">
        <ele>385</ele>
        <time>2016-01-31T10:34:12.000Z</time>
      </trkpt>
      <trkpt lat="47.46481" lon="6.78329">
        <ele>385</ele>
        <time>2016-01-31T10:34:13.000Z</time>
      </trkpt>
      <trkpt lat="47.46485" lon="6.78331">
        <ele>385</ele>
        <time>2016-01-31T10:34:14.000Z</time>
      </trkpt>
      <trkpt lat="47.46488" lon="6.78335">
        <ele>389</ele>
        <time>2016-01-31T10:34:15.000Z</time>
      </trkpt>
      <trkpt lat="47.46493" lon="6.78342">
        <ele>389</ele>
        <time>2016-01-31T10:34:16.000Z</time>
      </trkpt>
      <trkpt lat="47.46497" lon="6.78348">
        <ele>390</ele>
        <time>2016-01-31T10:34:17.000Z</time>
      </trkpt>
      <trkpt lat="47.46501" lon="6.78351">
        <ele>387</ele>
        <time>2016-01-31T10:34:18.000Z</time>
      </trkpt>
      <trkpt lat="47.46504" lon="6.78356">
        <ele>388</ele>
        <time>2016-01-31T10:34:19.000Z</time>
      </trkpt>
      <trkpt lat="47.46509" lon="6.78359">
        <ele>388</ele>
        <time>2016-01-31T10:34:20.000Z</time>
      </trkpt>
      <trkpt lat="47.46512" lon="6.78362">
        <ele>388</ele>
        <time>2016-01-31T10:34:21.000Z</time>
      </trkpt>
      <trkpt lat="47.46515" lon="6.78366">
        <ele>388</ele>
        <time>2016-01-31T10:34:22.000Z</time>
      </trkpt>
      <trkpt lat="47.46519" lon="6.78369">
        <ele>388</ele>
        <time>2016-01-31T10:34:23.000Z</time>
      </trkpt>
      <trkpt lat="47.46522" lon="6.78371">
        <ele>388</ele>
        <time>2016-01-31T10:34:24.000Z</time>
      </trkpt>
      <trkpt lat="47.46525" lon="6.78372">
        <ele>388</ele>
        <time>2016-01-31T10:34:25.000Z</time>
      </trkpt>
      <trkpt lat="47.4653" lon="6.78375">
        <ele>388</ele>
        <time>2016-01-31T10:34:26.000Z</time>
      </trkpt>
      <trkpt lat="47.46533" lon="6.78379">
        <ele>388</ele>
        <time>2016-01-31T10:34:27.000Z</time>
      </trkpt>
      <trkpt lat="47.46537" lon="6.78382">
        <ele>388</ele>
        <time>2016-01-31T10:34:28.000Z</time>
      </trkpt>
      <trkpt lat="47.46541" lon="6.78385">
        <ele>388</ele>
        <time>2016-01-31T10:34:29.000Z</time>
      </trkpt>
      <trkpt lat="47.46545" lon="6.78388">
        <ele>388</ele>
        <time>2016-01-31T10:34:30.000Z</time>
      </trkpt>
      <trkpt lat="47.46549" lon="6.78391">
        <ele>388</ele>
        <time>2016-01-31T10:34:31.000Z</time>
      </trkpt>
      <trkpt lat="47.46552" lon="6.78395">
        <ele>387</ele>
        <time>2016-01-31T10:34:32.000Z</time>
      </trkpt>
      <trkpt lat="47.46555" lon="6.78399">
        <ele>387</ele>
        <time>2016-01-31T10:34:33.000Z</time>
      </trkpt>
      <trkpt lat="47.46557" lon="6.78404">
        <ele>387</ele>
        <time>2016-01-31T10:34:34.000Z</time>
      </trkpt>
      <trkpt lat="47.46558" lon="6.78409">
        <ele>387</ele>
        <time>2016-01-31T10:34:35.000Z</time>
      </trkpt>
      <trkpt lat="47.46559" lon="6.78414">
        <ele>387</ele>
        <time>2016-01-31T10:34:36.000Z</time>
      </trkpt>
      <trkpt lat="47.4656" lon="6.78419">
        <ele>390</ele>
        <time>2016-01-31T10:34:37.000Z</time>
      </trkpt>
      <trkpt lat="47.46561" lon="6.78424">
        <ele>390</ele>
        <time>2016-01-31T10:34:38.000Z</time>
      </trkpt>
      <trkpt lat="47.46562" lon="6.78428">
        <ele>390</ele>
        <time>2016-01-31T10:34:39.000Z</time>
      </trkpt>
      <trkpt lat="47.46562" lon="6.78433">
        <ele>390</ele>
        <time>2016-01-31T10:34:40.000Z</time>
      </trkpt>
      <trkpt lat="47.46562" lon="6.78437">
        <ele>390</ele>
        <time>2016-01-31T10:34:41.000Z</time>
      </trkpt>
      <trkpt lat="47.46561" lon="6.7844">
        <ele>390</ele>
        <time>2016-01-31T10:34:42.000Z</time>
      </trkpt>
      <trkpt lat="47.46561" lon="6.78444">
        <ele>390</ele>
        <time>2016-01-31T10:34:43.000Z</time>
      </trkpt>
      <trkpt lat="47.46559" lon="6.7845">
        <ele>390</ele>
        <time>2016-01-31T10:34:45.000Z</time>
      </trkpt>
      <trkpt lat="47.46559" lon="6.78453">
        <ele>390</ele>
        <time>2016-01-31T10:34:46.000Z</time>
      </trkpt>
      <trkpt lat="47.46558" lon="6.78458">
        <ele>391</ele>
        <time>2016-01-31T10:34:48.000Z</time>
      </trkpt>
      <trkpt lat="47.46557" lon="6.78461">
        <ele>391</ele>
        <time>2016-01-31T10:34:49.000Z</time>
      </trkpt>
      <trkpt lat="47.46556" lon="6.78466">
        <ele>391</ele>
        <time>2016-01-31T10:34:51.000Z</time>
      </trkpt>
      <trkpt lat="47.46556" lon="6.78468">
        <ele>391</ele>
        <time>2016-01-31T10:34:52.000Z</time>
      </trkpt>
      <trkpt lat="47.46555" lon="6.78474">
        <ele>391</ele>
        <time>2016-01-31T10:34:54.000Z</time>
      </trkpt>
      <trkpt lat="47.46555" lon="6.78477">
        <ele>391</ele>
        <time>2016-01-31T10:34:55.000Z</time>
      </trkpt>
      <trkpt lat="47.46554" lon="6.7848">
        <ele>391</ele>
        <time>2016-01-31T10:34:56.000Z</time>
      </trkpt>
      <trkpt lat="47.46554" lon="6.78484">
        <ele>391</ele>
        <time>2016-01-31T10:34:57.000Z</time>
      </trkpt>
      <trkpt lat="47.46553" lon="6.7849">
        <ele>391</ele>
        <time>2016-01-31T10:34:59.000Z</time>
      </trkpt>
      <trkpt lat="47.46552" lon="6.78493">
        <ele>391</ele>
        <time>2016-01-31T10:35:00.000Z</time>
      </trkpt>
      <trkpt lat="47.46552" lon="6.78497">
        <ele>391</ele>
        <time>2016-01-31T10:35:01.000Z</time>
      </trkpt>
      <trkpt lat="47.46551" lon="6.785">
        <ele>391</ele>
        <time>2016-01-31T10:35:02.000Z</time>
      </trkpt>
      <trkpt lat="47.46551" lon="6.78503">
        <ele>392</ele>
        <time>2016-01-31T10:35:02.998Z</time>
      </trkpt>
      <trkpt lat="47.46549" lon="6.78508">
        <ele>393</ele>
        <time>2016-01-31T10:35:04.000Z</time>
      </trkpt>
      <trkpt lat="47.46548" lon="6.78512">
        <ele>393</ele>
        <time>2016-01-31T10:35:05.000Z</time>
      </trkpt>
      <trkpt lat="47.46547" lon="6.78515">
        <ele>393</ele>
        <time>2016-01-31T10:35:06.000Z</time>
      </trkpt>
      <trkpt lat="47.46546" lon="6.78518">
        <ele>393</ele>
        <time>2016-01-31T10:35:07.000Z</time>
      </trkpt>
      <trkpt lat="47.46545" lon="6.78521">
        <ele>393</ele>
        <time>2016-01-31T10:35:08.000Z</time>
      </trkpt>
      <trkpt lat="47.46545" lon="6.78525">
        <ele>393</ele>
        <time>2016-01-31T10:35:09.000Z</time>
      </trkpt>
      <trkpt lat="47.46545" lon="6.78528">
        <ele>393</ele>
        <time>2016-01-31T10:35:10.000Z</time>
      </trkpt>
      <trkpt lat="47.46546" lon="6.78532">
        <ele>393</ele>
        <time>2016-01-31T10:35:11.000Z</time>
      </trkpt>
      <trkpt lat="47.46547" lon="6.78536">
        <ele>394</ele>
        <time>2016-01-31T10:35:12.000Z</time>
      </trkpt>
      <trkpt lat="47.46547" lon="6.78539">
        <ele>394</ele>
        <time>2016-01-31T10:35:13.000Z</time>
      </trkpt>
      <trkpt lat="47.46547" lon="6.78543">
        <ele>394</ele>
        <time>2016-01-31T10:35:14.000Z</time>
      </trkpt>
      <trkpt lat="47.46547" lon="6.78546">
        <ele>394</ele>
        <time>2016-01-31T10:35:15.000Z</time>
      </trkpt>
      <trkpt lat="47.46546" lon="6.78549">
        <ele>394</ele>
        <time>2016-01-31T10:35:16.000Z</time>
      </trkpt>
      <trkpt lat="47.46546" lon="6.78553">
        <ele>394</ele>
        <time>2016-01-31T10:35:17.000Z</time>
      </trkpt>
      <trkpt lat="47.46546" lon="6.78556">
        <ele>394</ele>
        <time>2016-01-31T10:35:18.000Z</time>
      </trkpt>
      <trkpt lat="47.46545" lon="6.7856">
        <ele>394</ele>
        <time>2016-01-31T10:35:19.000Z</time>
      </trkpt>
      <trkpt lat="47.46545" lon="6.78563">
        <ele>394</ele>
        <time>2016-01-31T10:35:20.000Z</time>
      </trkpt>
      <trkpt lat="47.46545" lon="6.78567">
        <ele>394</ele>
        <time>2016-01-31T10:35:21.000Z</time>
      </trkpt>
      <trkpt lat="47.46546" lon="6.78571">
        <ele>394</ele>
        <time>2016-01-31T10:35:22.000Z</time>
      </trkpt>
      <trkpt lat="47.46547" lon="6.78574">
        <ele>394</ele>
        <time>2016-01-31T10:35:23.000Z</time>
      </trkpt>
      <trkpt lat="47.46547" lon="6.78578">
        <ele>394</ele>
        <time>2016-01-31T10:35:24.000Z</time>
      </trkpt>
      <trkpt lat="47.46548" lon="6.78582">
        <ele>394</ele>
        <time>2016-01-31T10:35:25.000Z</time>
      </trkpt>
      <trkpt lat="47.46549" lon="6.78585">
        <ele>395</ele>
        <time>2016-01-31T10:35:26.000Z</time>
      </trkpt>
      <trkpt lat="47.4655" lon="6.78589">
        <ele>395</ele>
        <time>2016-01-31T10:35:27.000Z</time>
      </trkpt>
      <trkpt lat="47.4655" lon="6.78593">
        <ele>395</ele>
        <time>2016-01-31T10:35:28.000Z</time>
      </trkpt>
      <trkpt lat="47.46551" lon="6.78597">
        <ele>395</ele>
        <time>2016-01-31T10:35:29.000Z</time>
      </trkpt>
      <trkpt lat="47.46551" lon="6.78601">
        <ele>395</ele>
        <time>2016-01-31T10:35:30.000Z</time>
      </trkpt>
      <trkpt lat="47.46551" lon="6.78605">
        <ele>395</ele>
        <time>2016-01-31T10:35:31.000Z</time>
      </trkpt>
      <trkpt lat="47.46552" lon="6.78609">
        <ele>395</ele>
        <time>2016-01-31T10:35:32.000Z</time>
      </trkpt>
      <trkpt lat="47.46552" lon="6.78613">
        <ele>395</ele>
        <time>2016-01-31T10:35:33.000Z</time>
      </trkpt>
      <trkpt lat="47.46553" lon="6.78617">
        <ele>395</ele>
        <time>2016-01-31T10:35:34.000Z</time>
      </trkpt>
      <trkpt lat="47.46553" lon="6.78621">
        <ele>394</ele>
        <time>2016-01-31T10:35:35.000Z</time>
      </trkpt>
      <trkpt lat="47.46553" lon="6.78625">
        <ele>394</ele>
        <time>2016-01-31T10:35:36.000Z</time>
      </trkpt>
      <trkpt lat="47.46553" lon="6.78629">
        <ele>394</ele>
        <time>2016-01-31T10:35:37.000Z</time>
      </trkpt>
      <trkpt lat="47.46553" lon="6.78633">
        <ele>394</ele>
        <time>2016-01-31T10:35:38.000Z</time>
      </trkpt>
      <trkpt lat="47.46552" lon="6.78636">
        <ele>394</ele>
        <time>2016-01-31T10:35:39.000Z</time>
      </trkpt>
      <trkpt lat="47.46552" lon="6.7864">
        <ele>394</ele>
        <time>2016-01-31T10:35:40.000Z</time>
      </trkpt>
      <trkpt lat="47.46552" lon="6.78644">
        <ele>394</ele>
        <time>2016-01-31T10:35:41.000Z</time>
      </trkpt>
      <trkpt lat="47.46552" lon="6.78648">
        <ele>394</ele>
        <time>2016-01-31T10:35:42.000Z</time>
      </trkpt>
      <trkpt lat="47.46552" lon="6.78652">
        <ele>394</ele>
        <time>2016-01-31T10:35:43.000Z</time>
      </trkpt>
      <trkpt lat="47.46552" lon="6.78656">
        <ele>394</ele>
        <time>2016-01-31T10:35:44.000Z</time>
      </trkpt>
      <trkpt lat="47.46552" lon="6.7866">
        <ele>394</ele>
        <time>2016-01-31T10:35:45.000Z</time>
      </trkpt>
      <trkpt lat="47.46552" lon="6.78664">
        <ele>394</ele>
        <time>2016-01-31T10:35:46.000Z</time>
      </trkpt>
      <trkpt lat="47.46552" lon="6.78668">
        <ele>392</ele>
        <time>2016-01-31T10:35:47.000Z</time>
      </trkpt>
      <trkpt lat="47.46552" lon="6.78672">
        <ele>392</ele>
        <time>2016-01-31T10:35:48.000Z</time>
      </trkpt>
      <trkpt lat="47.46552" lon="6.78675">
        <ele>392</ele>
        <time>2016-01-31T10:35:49.000Z</time>
      </trkpt>
      <trkpt lat="47.46551" lon="6.78679">
        <ele>392</ele>
        <time>2016-01-31T10:35:50.000Z</time>
      </trkpt>
      <trkpt lat="47.46551" lon="6.78683">
        <ele>392</ele>
        <time>2016-01-31T10:35:51.000Z</time>
      </trkpt>
      <trkpt lat="47.46551" lon="6.78687">
        <ele>393</ele>
        <time>2016-01-31T10:35:52.000Z</time>
      </trkpt>
      <trkpt lat="47.46551" lon="6.7869">
        <ele>393</ele>
        <time>2016-01-31T10:35:53.000Z</time>
      </trkpt>
      <trkpt lat="47.46551" lon="6.78693">
        <ele>392</ele>
        <time>2016-01-31T10:35:54.000Z</time>
      </trkpt>
      <trkpt lat="47.46551" lon="6.78697">
        <ele>392</ele>
        <time>2016-01-31T10:35:55.000Z</time>
      </trkpt>
      <trkpt lat="47.46552" lon="6.787">
        <ele>392</ele>
        <time>2016-01-31T10:35:56.000Z</time>
      </trkpt>
      <trkpt lat="47.46553" lon="6.78703">
        <ele>392</ele>
        <time>2016-01-31T10:35:57.000Z</time>
      </trkpt>
      <trkpt lat="47.46556" lon="6.78704">
        <ele>392</ele>
        <time>2016-01-31T10:35:58.000Z</time>
      </trkpt>
      <trkpt lat="47.4656" lon="6.78704">
        <ele>392</ele>
        <time>2016-01-31T10:35:59.000Z</time>
      </trkpt>
      <trkpt lat="47.46569" lon="6.78701">
        <ele>391</ele>
        <time>2016-01-31T10:36:00.000Z</time>
      </trkpt>
      <trkpt lat="47.46574" lon="6.78702">
        <ele>390</ele>
        <time>2016-01-31T10:36:01.000Z</time>
      </trkpt>
      <trkpt lat="47.46579" lon="6.78702">
        <ele>390</ele>
        <time>2016-01-31T10:36:02.000Z</time>
      </trkpt>
      <trkpt lat="47.46584" lon="6.78701">
        <ele>383</ele>
        <time>2016-01-31T10:36:03.000Z</time>
      </trkpt>
      <trkpt lat="47.4659" lon="6.78702">
        <ele>383</ele>
        <time>2016-01-31T10:36:04.000Z</time>
      </trkpt>
      <trkpt lat="47.46596" lon="6.78701">
        <ele>383</ele>
        <time>2016-01-31T10:36:05.000Z</time>
      </trkpt>
      <trkpt lat="47.46602" lon="6.787">
        <ele>383</ele>
        <time>2016-01-31T10:36:06.000Z</time>
      </trkpt>
      <trkpt lat="47.46607" lon="6.787">
        <ele>382</ele>
        <time>2016-01-31T10:36:07.000Z</time>
      </trkpt>
      <trkpt lat="47.46613" lon="6.78699">
        <ele>382</ele>
        <time>2016-01-31T10:36:08.000Z</time>
      </trkpt>
      <trkpt lat="47.46618" lon="6.78699">
        <ele>382</ele>
        <time>2016-01-31T10:36:09.000Z</time>
      </trkpt>
      <trkpt lat="47.46624" lon="6.78698">
        <ele>382</ele>
        <time>2016-01-31T10:36:10.000Z</time>
      </trkpt>
      <trkpt lat="47.4663" lon="6.78698">
        <ele>382</ele>
        <time>2016-01-31T10:36:11.000Z</time>
      </trkpt>
      <trkpt lat="47.46635" lon="6.78699">
        <ele>381</ele>
        <time>2016-01-31T10:36:12.000Z</time>
      </trkpt>
      <trkpt lat="47.4664" lon="6.78696">
        <ele>381</ele>
        <time>2016-01-31T10:36:13.000Z</time>
      </trkpt>
      <trkpt lat="47.46647" lon="6.78697">
        <ele>381</ele>
        <time>2016-01-31T10:36:14.000Z</time>
      </trkpt>
      <trkpt lat="47.46652" lon="6.78696">
        <ele>381</ele>
        <time>2016-01-31T10:36:15.000Z</time>
      </trkpt>
      <trkpt lat="47.46657" lon="6.78696">
        <ele>381</ele>
        <time>2016-01-31T10:36:16.000Z</time>
      </trkpt>
      <trkpt lat="47.46662" lon="6.78697">
        <ele>381</ele>
        <time>2016-01-31T10:36:17.000Z</time>
      </trkpt>
      <trkpt lat="47.46666" lon="6.78695">
        <ele>381</ele>
        <time>2016-01-31T10:36:19.000Z</time>
      </trkpt>
      <trkpt lat="47.46668" lon="6.78694">
        <ele>377</ele>
        <time>2016-01-31T10:36:20.000Z</time>
      </trkpt>
      <trkpt lat="47.46671" lon="6.78695">
        <ele>376</ele>
        <time>2016-01-31T10:36:21.000Z</time>
      </trkpt>
      <trkpt lat="47.46674" lon="6.78694">
        <ele>376</ele>
        <time>2016-01-31T10:36:22.000Z</time>
      </trkpt>
      <trkpt lat="47.46678" lon="6.78695">
        <ele>376</ele>
        <time>2016-01-31T10:36:23.000Z</time>
      </trkpt>
      <trkpt lat="47.46681" lon="6.78694">
        <ele>376</ele>
        <time>2016-01-31T10:36:24.000Z</time>
      </trkpt>
      <trkpt lat="47.46684" lon="6.78694">
        <ele>376</ele>
        <time>2016-01-31T10:36:25.000Z</time>
      </trkpt>
      <trkpt lat="47.46688" lon="6.78694">
        <ele>376</ele>
        <time>2016-01-31T10:36:26.000Z</time>
      </trkpt>
      <trkpt lat="47.46692" lon="6.78694">
        <ele>375</ele>
        <time>2016-01-31T10:36:27.000Z</time>
      </trkpt>
      <trkpt lat="47.46696" lon="6.78693">
        <ele>375</ele>
        <time>2016-01-31T10:36:28.000Z</time>
      </trkpt>
      <trkpt lat="47.46702" lon="6.78695">
        <ele>375</ele>
        <time>2016-01-31T10:36:29.000Z</time>
      </trkpt>
      <trkpt lat="47.46707" lon="6.78695">
        <ele>374</ele>
        <time>2016-01-31T10:36:30.000Z</time>
      </trkpt>
      <trkpt lat="47.46712" lon="6.78697">
        <ele>374</ele>
        <time>2016-01-31T10:36:31.000Z</time>
      </trkpt>
      <trkpt lat="47.46717" lon="6.78698">
        <ele>374</ele>
        <time>2016-01-31T10:36:32.000Z</time>
      </trkpt>
      <trkpt lat="47.4672" lon="6.78695">
        <ele>374</ele>
        <time>2016-01-31T10:36:34.000Z</time>
      </trkpt>
      <trkpt lat="47.46723" lon="6.78694">
        <ele>374</ele>
        <time>2016-01-31T10:36:35.000Z</time>
      </trkpt>
      <trkpt lat="47.46726" lon="6.78691">
        <ele>374</ele>
        <time>2016-01-31T10:36:58.000Z</time>
      </trkpt>
      <trkpt lat="47.46727" lon="6.7869">
        <ele>373</ele>
        <time>2016-01-31T10:36:59.000Z</time>
      </trkpt>
      <trkpt lat="47.46731" lon="6.78688">
        <ele>373</ele>
        <time>2016-01-31T10:37:01.000Z</time>
      </trkpt>
      <trkpt lat="47.46734" lon="6.78687">
        <ele>373</ele>
        <time>2016-01-31T10:37:02.000Z</time>
      </trkpt>
      <trkpt lat="47.46737" lon="6.78686">
        <ele>373</ele>
        <time>2016-01-31T10:37:03.000Z</time>
      </trkpt>
      <trkpt lat="47.4674" lon="6.78686">
        <ele>373</ele>
        <time>2016-01-31T10:37:04.000Z</time>
      </trkpt>
      <trkpt lat="47.46743" lon="6.78684">
        <ele>373</ele>
        <time>2016-01-31T10:37:05.000Z</time>
      </trkpt>
      <trkpt lat="47.46746" lon="6.78684">
        <ele>373</ele>
        <time>2016-01-31T10:37:06.000Z</time>
      </trkpt>
      <trkpt lat="47.4675" lon="6.78682">
        <ele>369</ele>
        <time>2016-01-31T10:37:08.000Z</time>
      </trkpt>
      <trkpt lat="47.46752" lon="6.78682">
        <ele>369</ele>
        <time>2016-01-31T10:37:09.000Z</time>
      </trkpt>
      <trkpt lat="47.46755" lon="6.78678">
        <ele>370</ele>
        <time>2016-01-31T10:37:11.000Z</time>
      </trkpt>
      <trkpt lat="47.46756" lon="6.78676">
        <ele>370</ele>
        <time>2016-01-31T10:37:12.000Z</time>
      </trkpt>
      <trkpt lat="47.46757" lon="6.78672">
        <ele>370</ele>
        <time>2016-01-31T10:37:13.000Z</time>
      </trkpt>
      <trkpt lat="47.46758" lon="6.78669">
        <ele>370</ele>
        <time>2016-01-31T10:37:14.000Z</time>
      </trkpt>
      <trkpt lat="47.46758" lon="6.78666">
        <ele>371</ele>
        <time>2016-01-31T10:37:15.000Z</time>
      </trkpt>
      <trkpt lat="47.46759" lon="6.78662">
        <ele>370</ele>
        <time>2016-01-31T10:37:16.000Z</time>
      </trkpt>
      <trkpt lat="47.46761" lon="6.78659">
        <ele>370</ele>
        <time>2016-01-31T10:37:17.000Z</time>
      </trkpt>
      <trkpt lat="47.46763" lon="6.78656">
        <ele>370</ele>
        <time>2016-01-31T10:37:18.000Z</time>
      </trkpt>
      <trkpt lat="47.46766" lon="6.78653">
        <ele>369</ele>
        <time>2016-01-31T10:37:19.000Z</time>
      </trkpt>
      <trkpt lat="47.4677" lon="6.78652">
        <ele>369</ele>
        <time>2016-01-31T10:37:20.000Z</time>
      </trkpt>
      <trkpt lat="47.46773" lon="6.78652">
        <ele>369</ele>
        <time>2016-01-31T10:37:21.000Z</time>
      </trkpt>
      <trkpt lat="47.46776" lon="6.78653">
        <ele>369</ele>
        <time>2016-01-31T10:37:22.000Z</time>
      </trkpt>
      <trkpt lat="47.46779" lon="6.78655">
        <ele>368</ele>
        <time>2016-01-31T10:37:24.000Z</time>
      </trkpt>
      <trkpt lat="47.4678" lon="6.78655">
        <ele>368</ele>
        <time>2016-01-31T10:37:25.000Z</time>
      </trkpt>
      <trkpt lat="47.46784" lon="6.78655">
        <ele>368</ele>
        <time>2016-01-31T10:37:31.000Z</time>
      </trkpt>
      <trkpt lat="47.46786" lon="6.78654">
        <ele>368</ele>
        <time>2016-01-31T10:37:32.000Z</time>
      </trkpt>
      <trkpt lat="47.46788" lon="6.78652">
        <ele>368</ele>
        <time>2016-01-31T10:37:33.000Z</time>
      </trkpt>
      <trkpt lat="47.4679" lon="6.78649">
        <ele>367</ele>
        <time>2016-01-31T10:37:34.000Z</time>
      </trkpt>
      <trkpt lat="47.46793" lon="6.78646">
        <ele>367</ele>
        <time>2016-01-31T10:37:35.000Z</time>
      </trkpt>
      <trkpt lat="47.46795" lon="6.78642">
        <ele>367</ele>
        <time>2016-01-31T10:37:36.000Z</time>
      </trkpt>
      <trkpt lat="47.46797" lon="6.78638">
        <ele>367</ele>
        <time>2016-01-31T10:37:37.000Z</time>
      </trkpt>
      <trkpt lat="47.468" lon="6.78634">
        <ele>367</ele>
        <time>2016-01-31T10:37:38.000Z</time>
      </trkpt>
      <trkpt lat="47.46802" lon="6.78629">
        <ele>367</ele>
        <time>2016-01-31T10:37:39.000Z</time>
      </trkpt>
      <trkpt lat="47.46803" lon="6.78624">
        <ele>366</ele>
        <time>2016-01-31T10:37:40.000Z</time>
      </trkpt>
      <trkpt lat="47.46806" lon="6.78619">
        <ele>366</ele>
        <time>2016-01-31T10:37:41.000Z</time>
      </trkpt>
      <trkpt lat="47.46808" lon="6.78614">
        <ele>366</ele>
        <time>2016-01-31T10:37:42.000Z</time>
      </trkpt>
      <trkpt lat="47.46811" lon="6.78609">
        <ele>366</ele>
        <time>2016-01-31T10:37:43.000Z</time>
      </trkpt>
      <trkpt lat="47.46815" lon="6.78603">
        <ele>365</ele>
        <time>2016-01-31T10:37:44.000Z</time>
      </trkpt>
      <trkpt lat="47.46819" lon="6.78598">
        <ele>364</ele>
        <time>2016-01-31T10:37:45.000Z</time>
      </trkpt>
      <trkpt lat="47.46829" lon="6.78587">
        <ele>362</ele>
        <time>2016-01-31T10:37:46.000Z</time>
      </trkpt>
      <trkpt lat="47.46833" lon="6.78583">
        <ele>360</ele>
        <time>2016-01-31T10:37:47.000Z</time>
      </trkpt>
      <trkpt lat="47.46835" lon="6.78578">
        <ele>359</ele>
        <time>2016-01-31T10:37:48.000Z</time>
      </trkpt>
      <trkpt lat="47.46837" lon="6.78576">
        <ele>358</ele>
        <time>2016-01-31T10:37:49.000Z</time>
      </trkpt>
      <trkpt lat="47.46841" lon="6.78577">
        <ele>358</ele>
        <time>2016-01-31T10:37:50.000Z</time>
      </trkpt>
      <trkpt lat="47.46844" lon="6.78574">
        <ele>357</ele>
        <time>2016-01-31T10:37:51.000Z</time>
      </trkpt>
      <trkpt lat="47.46848" lon="6.78573">
        <ele>357</ele>
        <time>2016-01-31T10:37:52.000Z</time>
      </trkpt>
      <trkpt lat="47.46854" lon="6.78572">
        <ele>356</ele>
        <time>2016-01-31T10:37:53.000Z</time>
      </trkpt>
      <trkpt lat="47.46863" lon="6.78568">
        <ele>355</ele>
        <time>2016-01-31T10:37:54.000Z</time>
      </trkpt>
      <trkpt lat="47.46872" lon="6.78573">
        <ele>354</ele>
        <time>2016-01-31T10:37:55.000Z</time>
      </trkpt>
      <trkpt lat="47.46881" lon="6.78573">
        <ele>353</ele>
        <time>2016-01-31T10:37:56.000Z</time>
      </trkpt>
      <trkpt lat="47.4689" lon="6.78574">
        <ele>352</ele>
        <time>2016-01-31T10:37:57.000Z</time>
      </trkpt>
      <trkpt lat="47.46897" lon="6.78576">
        <ele>352</ele>
        <time>2016-01-31T10:37:58.000Z</time>
      </trkpt>
      <trkpt lat="47.46903" lon="6.78577">
        <ele>351</ele>
        <time>2016-01-31T10:37:59.000Z</time>
      </trkpt>
      <trkpt lat="47.46909" lon="6.78584">
        <ele>350</ele>
        <time>2016-01-31T10:38:00.000Z</time>
      </trkpt>
      <trkpt lat="47.46915" lon="6.78588">
        <ele>350</ele>
        <time>2016-01-31T10:38:01.000Z</time>
      </trkpt>
      <trkpt lat="47.4692" lon="6.78593">
        <ele>351</ele>
        <time>2016-01-31T10:38:02.000Z</time>
      </trkpt>
      <trkpt lat="47.46923" lon="6.78591">
        <ele>351</ele>
        <time>2016-01-31T10:38:06.000Z</time>
      </trkpt>
      <trkpt lat="47.46924" lon="6.7859">
        <ele>351</ele>
        <time>2016-01-31T10:38:07.000Z</time>
      </trkpt>
      <trkpt lat="47.46929" lon="6.78591">
        <ele>352</ele>
        <time>2016-01-31T10:38:10.000Z</time>
      </trkpt>
      <trkpt lat="47.4693" lon="6.78592">
        <ele>352</ele>
        <time>2016-01-31T10:38:11.000Z</time>
      </trkpt>
      <trkpt lat="47.46934" lon="6.78594">
        <ele>353</ele>
        <time>2016-01-31T10:38:14.000Z</time>
      </trkpt>
      <trkpt lat="47.46934" lon="6.78594">
        <ele>353</ele>
        <time>2016-01-31T10:38:15.000Z</time>
      </trkpt>
      <trkpt lat="47.46939" lon="6.78593">
        <ele>353</ele>
        <time>2016-01-31T10:38:20.000Z</time>
      </trkpt>
      <trkpt lat="47.46939" lon="6.78593">
        <ele>353</ele>
        <time>2016-01-31T10:38:21.000Z</time>
      </trkpt>
      <trkpt lat="47.46943" lon="6.7859">
        <ele>354</ele>
        <time>2016-01-31T10:38:26.000Z</time>
      </trkpt>
      <trkpt lat="47.46943" lon="6.78589">
        <ele>354</ele>
        <time>2016-01-31T10:38:27.000Z</time>
      </trkpt>
      <trkpt lat="47.46946" lon="6.78585">
        <ele>354</ele>
        <time>2016-01-31T10:38:31.000Z</time>
      </trkpt>
      <trkpt lat="47.46947" lon="6.78584">
        <ele>354</ele>
        <time>2016-01-31T10:38:32.000Z</time>
      </trkpt>
      <trkpt lat="47.4695" lon="6.78581">
        <ele>353</ele>
        <time>2016-01-31T10:38:36.000Z</time>
      </trkpt>
      <trkpt lat="47.46951" lon="6.78581">
        <ele>353</ele>
        <time>2016-01-31T10:38:37.000Z</time>
      </trkpt>
      <trkpt lat="47.46955" lon="6.78579">
        <ele>354</ele>
        <time>2016-01-31T10:38:41.000Z</time>
      </trkpt>
      <trkpt lat="47.46956" lon="6.78579">
        <ele>354</ele>
        <time>2016-01-31T10:38:42.000Z</time>
      </trkpt>
      <trkpt lat="47.4696" lon="6.78578">
        <ele>354</ele>
        <time>2016-01-31T10:38:46.000Z</time>
      </trkpt>
      <trkpt lat="47.46961" lon="6.78578">
        <ele>354</ele>
        <time>2016-01-31T10:38:47.000Z</time>
      </trkpt>
      <trkpt lat="47.46966" lon="6.78576">
        <ele>355</ele>
        <time>2016-01-31T10:38:51.000Z</time>
      </trkpt>
      <trkpt lat="47.46967" lon="6.78576">
        <ele>355</ele>
        <time>2016-01-31T10:38:52.000Z</time>
      </trkpt>
      <trkpt lat="47.4697" lon="6.78573">
        <ele>355</ele>
        <time>2016-01-31T10:38:57.000Z</time>
      </trkpt>
      <trkpt lat="47.46971" lon="6.78571">
        <ele>355</ele>
        <time>2016-01-31T10:38:58.000Z</time>
      </trkpt>
      <trkpt lat="47.46973" lon="6.78567">
        <ele>355</ele>
        <time>2016-01-31T10:39:01.000Z</time>
      </trkpt>
      <trkpt lat="47.46974" lon="6.78566">
        <ele>356</ele>
        <time>2016-01-31T10:39:02.000Z</time>
      </trkpt>
      <trkpt lat="47.46976" lon="6.78564">
        <ele>356</ele>
        <time>2016-01-31T10:39:04.000Z</time>
      </trkpt>
      <trkpt lat="47.46978" lon="6.78563">
        <ele>356</ele>
        <time>2016-01-31T10:39:05.000Z</time>
      </trkpt>
      <trkpt lat="47.4698" lon="6.78561">
        <ele>356</ele>
        <time>2016-01-31T10:39:07.000Z</time>
      </trkpt>
      <trkpt lat="47.46982" lon="6.7856">
        <ele>356</ele>
        <time>2016-01-31T10:39:08.000Z</time>
      </trkpt>
      <trkpt lat="47.46985" lon="6.78559">
        <ele>356</ele>
        <time>2016-01-31T10:39:10.000Z</time>
      </trkpt>
      <trkpt lat="47.46986" lon="6.78558">
        <ele>356</ele>
        <time>2016-01-31T10:39:11.000Z</time>
      </trkpt>
      <trkpt lat="47.46989" lon="6.78557">
        <ele>356</ele>
        <time>2016-01-31T10:39:13.000Z</time>
      </trkpt>
      <trkpt lat="47.46991" lon="6.78556">
        <ele>356</ele>
        <time>2016-01-31T10:39:14.000Z</time>
      </trkpt>
      <trkpt lat="47.46994" lon="6.78553">
        <ele>356</ele>
        <time>2016-01-31T10:39:16.000Z</time>
      </trkpt>
      <trkpt lat="47.46995" lon="6.78551">
        <ele>356</ele>
        <time>2016-01-31T10:39:17.000Z</time>
      </trkpt>
      <trkpt lat="47.46998" lon="6.78548">
        <ele>356</ele>
        <time>2016-01-31T10:39:19.000Z</time>
      </trkpt>
      <trkpt lat="47.46999" lon="6.78546">
        <ele>356</ele>
        <time>2016-01-31T10:39:20.000Z</time>
      </trkpt>
      <trkpt lat="47.47001" lon="6.78542">
        <ele>361</ele>
        <time>2016-01-31T10:39:22.000Z</time>
      </trkpt>
      <trkpt lat="47.47002" lon="6.78541">
        <ele>361</ele>
        <time>2016-01-31T10:39:23.000Z</time>
      </trkpt>
      <trkpt lat="47.47006" lon="6.78538">
        <ele>361</ele>
        <time>2016-01-31T10:39:25.999Z</time>
      </trkpt>
      <trkpt lat="47.47007" lon="6.78537">
        <ele>361</ele>
        <time>2016-01-31T10:39:27.000Z</time>
      </trkpt>
      <trkpt lat="47.47009" lon="6.78535">
        <ele>361</ele>
        <time>2016-01-31T10:39:28.000Z</time>
      </trkpt>
      <trkpt lat="47.47012" lon="6.78534">
        <ele>361</ele>
        <time>2016-01-31T10:39:29.000Z</time>
      </trkpt>
      <trkpt lat="47.47014" lon="6.78533">
        <ele>361</ele>
        <time>2016-01-31T10:39:30.000Z</time>
      </trkpt>
      <trkpt lat="47.47016" lon="6.78533">
        <ele>361</ele>
        <time>2016-01-31T10:39:31.000Z</time>
      </trkpt>
      <trkpt lat="47.47021" lon="6.78532">
        <ele>361</ele>
        <time>2016-01-31T10:39:33.000Z</time>
      </trkpt>
      <trkpt lat="47.47023" lon="6.78531">
        <ele>361</ele>
        <time>2016-01-31T10:39:34.000Z</time>
      </trkpt>
      <trkpt lat="47.47027" lon="6.78532">
        <ele>361</ele>
        <time>2016-01-31T10:39:36.000Z</time>
      </trkpt>
      <trkpt lat="47.47029" lon="6.78532">
        <ele>361</ele>
        <time>2016-01-31T10:39:37.000Z</time>
      </trkpt>
      <trkpt lat="47.47032" lon="6.78531">
        <ele>361</ele>
        <time>2016-01-31T10:39:39.000Z</time>
      </trkpt>
      <trkpt lat="47.47034" lon="6.78529">
        <ele>361</ele>
        <time>2016-01-31T10:39:40.000Z</time>
      </trkpt>
      <trkpt lat="47.47036" lon="6.78527">
        <ele>361</ele>
        <time>2016-01-31T10:39:41.000Z</time>
      </trkpt>
      <trkpt lat="47.47038" lon="6.78525">
        <ele>361</ele>
        <time>2016-01-31T10:39:42.000Z</time>
      </trkpt>
      <trkpt lat="47.47041" lon="6.78523">
        <ele>361</ele>
        <time>2016-01-31T10:39:43.000Z</time>
      </trkpt>
      <trkpt lat="47.47043" lon="6.78521">
        <ele>361</ele>
        <time>2016-01-31T10:39:44.000Z</time>
      </trkpt>
      <trkpt lat="47.47046" lon="6.7852">
        <ele>361</ele>
        <time>2016-01-31T10:39:45.000Z</time>
      </trkpt>
      <trkpt lat="47.47049" lon="6.78518">
        <ele>361</ele>
        <time>2016-01-31T10:39:46.000Z</time>
      </trkpt>
      <trkpt lat="47.47051" lon="6.78517">
        <ele>361</ele>
        <time>2016-01-31T10:39:47.000Z</time>
      </trkpt>
      <trkpt lat="47.47053" lon="6.78515">
        <ele>361</ele>
        <time>2016-01-31T10:39:48.000Z</time>
      </trkpt>
      <trkpt lat="47.47055" lon="6.78514">
        <ele>361</ele>
        <time>2016-01-31T10:39:49.000Z</time>
      </trkpt>
      <trkpt lat="47.47058" lon="6.78512">
        <ele>361</ele>
        <time>2016-01-31T10:39:50.000Z</time>
      </trkpt>
      <trkpt lat="47.4706" lon="6.7851">
        <ele>361</ele>
        <time>2016-01-31T10:39:51.000Z</time>
      </trkpt>
      <trkpt lat="47.47063" lon="6.78508">
        <ele>361</ele>
        <time>2016-01-31T10:39:52.000Z</time>
      </trkpt>
      <trkpt lat="47.47065" lon="6.78506">
        <ele>361</ele>
        <time>2016-01-31T10:39:53.000Z</time>
      </trkpt>
      <trkpt lat="47.47068" lon="6.78504">
        <ele>361</ele>
        <time>2016-01-31T10:39:54.000Z</time>
      </trkpt>
      <trkpt lat="47.47071" lon="6.78502">
        <ele>361</ele>
        <time>2016-01-31T10:39:55.000Z</time>
      </trkpt>
      <trkpt lat="47.47073" lon="6.78501">
        <ele>361</ele>
        <time>2016-01-31T10:39:56.000Z</time>
      </trkpt>
      <trkpt lat="47.47077" lon="6.785">
        <ele>359</ele>
        <time>2016-01-31T10:39:58.000Z</time>
      </trkpt>
      <trkpt lat="47.47078" lon="6.78499">
        <ele>359</ele>
        <time>2016-01-31T10:39:59.000Z</time>
      </trkpt>
      <trkpt lat="47.47082" lon="6.78499">
        <ele>360</ele>
        <time>2016-01-31T10:40:01.000Z</time>
      </trkpt>
      <trkpt lat="47.47084" lon="6.78497">
        <ele>360</ele>
        <time>2016-01-31T10:40:02.000Z</time>
      </trkpt>
      <trkpt lat="47.47087" lon="6.78494">
        <ele>360</ele>
        <time>2016-01-31T10:40:04.000Z</time>
      </trkpt>
      <trkpt lat="47.47088" lon="6.78493">
        <ele>359</ele>
        <time>2016-01-31T10:40:05.000Z</time>
      </trkpt>
      <trkpt lat="47.47091" lon="6.7849">
        <ele>359</ele>
        <time>2016-01-31T10:40:07.000Z</time>
      </trkpt>
      <trkpt lat="47.47092" lon="6.7849">
        <ele>359</ele>
        <time>2016-01-31T10:40:08.000Z</time>
      </trkpt>
      <trkpt lat="47.47095" lon="6.78488">
        <ele>359</ele>
        <time>2016-01-31T10:40:10.000Z</time>
      </trkpt>
      <trkpt lat="47.47097" lon="6.78486">
        <ele>359</ele>
        <time>2016-01-31T10:40:11.000Z</time>
      </trkpt>
      <trkpt lat="47.47101" lon="6.78484">
        <ele>359</ele>
        <time>2016-01-31T10:40:13.000Z</time>
      </trkpt>
      <trkpt lat="47.47103" lon="6.78483">
        <ele>359</ele>
        <time>2016-01-31T10:40:14.000Z</time>
      </trkpt>
      <trkpt lat="47.47107" lon="6.78482">
        <ele>359</ele>
        <time>2016-01-31T10:40:16.000Z</time>
      </trkpt>
      <trkpt lat="47.47109" lon="6.78481">
        <ele>359</ele>
        <time>2016-01-31T10:40:17.000Z</time>
      </trkpt>
      <trkpt lat="47.47113" lon="6.78479">
        <ele>359</ele>
        <time>2016-01-31T10:40:19.000Z</time>
      </trkpt>
      <trkpt lat="47.47115" lon="6.78478">
        <ele>359</ele>
        <time>2016-01-31T10:40:20.000Z</time>
      </trkpt>
      <trkpt lat="47.47117" lon="6.78477">
        <ele>359</ele>
        <time>2016-01-31T10:40:21.000Z</time>
      </trkpt>
      <trkpt lat="47.47119" lon="6.78475">
        <ele>359</ele>
        <time>2016-01-31T10:40:22.000Z</time>
      </trkpt>
      <trkpt lat="47.47122" lon="6.78473">
        <ele>359</ele>
        <time>2016-01-31T10:40:23.000Z</time>
      </trkpt>
      <trkpt lat="47.47124" lon="6.78471">
        <ele>359</ele>
        <time>2016-01-31T10:40:24.000Z</time>
      </trkpt>
      <trkpt lat="47.47126" lon="6.78469">
        <ele>358</ele>
        <time>2016-01-31T10:40:25.000Z</time>
      </trkpt>
      <trkpt lat="47.47128" lon="6.78467">
        <ele>358</ele>
        <time>2016-01-31T10:40:26.000Z</time>
      </trkpt>
      <trkpt lat="47.4713" lon="6.78465">
        <ele>358</ele>
        <time>2016-01-31T10:40:27.000Z</time>
      </trkpt>
      <trkpt lat="47.47132" lon="6.78463">
        <ele>358</ele>
        <time>2016-01-31T10:40:28.000Z</time>
      </trkpt>
      <trkpt lat="47.47135" lon="6.78461">
        <ele>358</ele>
        <time>2016-01-31T10:40:29.000Z</time>
      </trkpt>
      <trkpt lat="47.47137" lon="6.78458">
        <ele>358</ele>
        <time>2016-01-31T10:40:30.000Z</time>
      </trkpt>
      <trkpt lat="47.4714" lon="6.78455">
        <ele>358</ele>
        <time>2016-01-31T10:40:31.000Z</time>
      </trkpt>
      <trkpt lat="47.47142" lon="6.78452">
        <ele>358</ele>
        <time>2016-01-31T10:40:32.000Z</time>
      </trkpt>
      <trkpt lat="47.47145" lon="6.78451">
        <ele>358</ele>
        <time>2016-01-31T10:40:33.000Z</time>
      </trkpt>
      <trkpt lat="47.47148" lon="6.7845">
        <ele>358</ele>
        <time>2016-01-31T10:40:34.000Z</time>
      </trkpt>
      <trkpt lat="47.47151" lon="6.78451">
        <ele>358</ele>
        <time>2016-01-31T10:40:35.000Z</time>
      </trkpt>
      <trkpt lat="47.47154" lon="6.78451">
        <ele>358</ele>
        <time>2016-01-31T10:40:36.000Z</time>
      </trkpt>
      <trkpt lat="47.47156" lon="6.78452">
        <ele>358</ele>
        <time>2016-01-31T10:40:37.000Z</time>
      </trkpt>
      <trkpt lat="47.47158" lon="6.78452">
        <ele>358</ele>
        <time>2016-01-31T10:40:38.000Z</time>
      </trkpt>
      <trkpt lat="47.47161" lon="6.78453">
        <ele>358</ele>
        <time>2016-01-31T10:40:39.000Z</time>
      </trkpt>
      <trkpt lat="47.47163" lon="6.78453">
        <ele>358</ele>
        <time>2016-01-31T10:40:40.000Z</time>
      </trkpt>
      <trkpt lat="47.47167" lon="6.78455">
        <ele>358</ele>
        <time>2016-01-31T10:40:42.000Z</time>
      </trkpt>
      <trkpt lat="47.47168" lon="6.78456">
        <ele>360</ele>
        <time>2016-01-31T10:40:43.000Z</time>
      </trkpt>
      <trkpt lat="47.47171" lon="6.78457">
        <ele>360</ele>
        <time>2016-01-31T10:40:45.000Z</time>
      </trkpt>
      <trkpt lat="47.47173" lon="6.78457">
        <ele>360</ele>
        <time>2016-01-31T10:40:46.000Z</time>
      </trkpt>
      <trkpt lat="47.47177" lon="6.78458">
        <ele>360</ele>
        <time>2016-01-31T10:40:48.000Z</time>
      </trkpt>
      <trkpt lat="47.47179" lon="6.78458">
        <ele>360</ele>
        <time>2016-01-31T10:40:49.000Z</time>
      </trkpt>
      <trkpt lat="47.47183" lon="6.78459">
        <ele>360</ele>
        <time>2016-01-31T10:40:51.000Z</time>
      </trkpt>
      <trkpt lat="47.47184" lon="6.7846">
        <ele>360</ele>
        <time>2016-01-31T10:40:52.000Z</time>
      </trkpt>
      <trkpt lat="47.47188" lon="6.78461">
        <ele>360</ele>
        <time>2016-01-31T10:40:54.000Z</time>
      </trkpt>
      <trkpt lat="47.4719" lon="6.78462">
        <ele>360</ele>
        <time>2016-01-31T10:40:55.000Z</time>
      </trkpt>
      <trkpt lat="47.47192" lon="6.78463">
        <ele>360</ele>
        <time>2016-01-31T10:40:56.000Z</time>
      </trkpt>
      <trkpt lat="47.47195" lon="6.78465">
        <ele>360</ele>
        <time>2016-01-31T10:40:57.000Z</time>
      </trkpt>
      <trkpt lat="47.47197" lon="6.78466">
        <ele>360</ele>
        <time>2016-01-31T10:40:58.000Z</time>
      </trkpt>
      <trkpt lat="47.47199" lon="6.78467">
        <ele>360</ele>
        <time>2016-01-31T10:40:59.000Z</time>
      </trkpt>
      <trkpt lat="47.47201" lon="6.78468">
        <ele>360</ele>
        <time>2016-01-31T10:41:00.000Z</time>
      </trkpt>
      <trkpt lat="47.47204" lon="6.78469">
        <ele>360</ele>
        <time>2016-01-31T10:41:01.000Z</time>
      </trkpt>
      <trkpt lat="47.47206" lon="6.7847">
        <ele>360</ele>
        <time>2016-01-31T10:41:02.000Z</time>
      </trkpt>
      <trkpt lat="47.47208" lon="6.78471">
        <ele>360</ele>
        <time>2016-01-31T10:41:03.000Z</time>
      </trkpt>
      <trkpt lat="47.4721" lon="6.78472">
        <ele>360</ele>
        <time>2016-01-31T10:41:04.000Z</time>
      </trkpt>
      <trkpt lat="47.47212" lon="6.78473">
        <ele>360</ele>
        <time>2016-01-31T10:41:05.000Z</time>
      </trkpt>
      <trkpt lat="47.47215" lon="6.78474">
        <ele>360</ele>
        <time>2016-01-31T10:41:06.000Z</time>
      </trkpt>
      <trkpt lat="47.47217" lon="6.78475">
        <ele>360</ele>
        <time>2016-01-31T10:41:07.000Z</time>
      </trkpt>
      <trkpt lat="47.47219" lon="6.78476">
        <ele>360</ele>
        <time>2016-01-31T10:41:08.000Z</time>
      </trkpt>
      <trkpt lat="47.47222" lon="6.78477">
        <ele>360</ele>
        <time>2016-01-31T10:41:09.000Z</time>
      </trkpt>
      <trkpt lat="47.47224" lon="6.78479">
        <ele>360</ele>
        <time>2016-01-31T10:41:10.000Z</time>
      </trkpt>
      <trkpt lat="47.47226" lon="6.7848">
        <ele>361</ele>
        <time>2016-01-31T10:41:11.000Z</time>
      </trkpt>
      <trkpt lat="47.47229" lon="6.78482">
        <ele>361</ele>
        <time>2016-01-31T10:41:12.000Z</time>
      </trkpt>
      <trkpt lat="47.47231" lon="6.78484">
        <ele>361</ele>
        <time>2016-01-31T10:41:13.000Z</time>
      </trkpt>
      <trkpt lat="47.47233" lon="6.78485">
        <ele>361</ele>
        <time>2016-01-31T10:41:14.000Z</time>
      </trkpt>
      <trkpt lat="47.47235" lon="6.78487">
        <ele>361</ele>
        <time>2016-01-31T10:41:15.000Z</time>
      </trkpt>
      <trkpt lat="47.47239" lon="6.78487">
        <ele>361</ele>
        <time>2016-01-31T10:41:17.000Z</time>
      </trkpt>
      <trkpt lat="47.47242" lon="6.78488">
        <ele>361</ele>
        <time>2016-01-31T10:41:18.000Z</time>
      </trkpt>
      <trkpt lat="47.47244" lon="6.78489">
        <ele>361</ele>
        <time>2016-01-31T10:41:19.000Z</time>
      </trkpt>
      <trkpt lat="47.47246" lon="6.78491">
        <ele>361</ele>
        <time>2016-01-31T10:41:20.000Z</time>
      </trkpt>
      <trkpt lat="47.47249" lon="6.78492">
        <ele>361</ele>
        <time>2016-01-31T10:41:21.000Z</time>
      </trkpt>
      <trkpt lat="47.47251" lon="6.78493">
        <ele>362</ele>
        <time>2016-01-31T10:41:22.000Z</time>
      </trkpt>
      <trkpt lat="47.47254" lon="6.78494">
        <ele>362</ele>
        <time>2016-01-31T10:41:23.000Z</time>
      </trkpt>
      <trkpt lat="47.47256" lon="6.78495">
        <ele>362</ele>
        <time>2016-01-31T10:41:24.000Z</time>
      </trkpt>
      <trkpt lat="47.47258" lon="6.78496">
        <ele>362</ele>
        <time>2016-01-31T10:41:25.000Z</time>
      </trkpt>
      <trkpt lat="47.47261" lon="6.78498">
        <ele>362</ele>
        <time>2016-01-31T10:41:26.000Z</time>
      </trkpt>
      <trkpt lat="47.47264" lon="6.785">
        <ele>362</ele>
        <time>2016-01-31T10:41:28.000Z</time>
      </trkpt>
      <trkpt lat="47.47265" lon="6.78501">
        <ele>363</ele>
        <time>2016-01-31T10:41:29.000Z</time>
      </trkpt>
      <trkpt lat="47.47269" lon="6.78504">
        <ele>363</ele>
        <time>2016-01-31T10:41:32.000Z</time>
      </trkpt>
      <trkpt lat="47.4727" lon="6.78504">
        <ele>363</ele>
        <time>2016-01-31T10:41:33.000Z</time>
      </trkpt>
      <trkpt lat="47.47273" lon="6.78507">
        <ele>363</ele>
        <time>2016-01-31T10:41:36.000Z</time>
      </trkpt>
      <trkpt lat="47.47274" lon="6.78507">
        <ele>363</ele>
        <time>2016-01-31T10:41:37.000Z</time>
      </trkpt>
      <trkpt lat="47.47277" lon="6.78509">
        <ele>363</ele>
        <time>2016-01-31T10:41:40.000Z</time>
      </trkpt>
      <trkpt lat="47.47279" lon="6.78511">
        <ele>363</ele>
        <time>2016-01-31T10:41:41.000Z</time>
      </trkpt>
      <trkpt lat="47.47281" lon="6.78514">
        <ele>363</ele>
        <time>2016-01-31T10:41:42.000Z</time>
      </trkpt>
      <trkpt lat="47.47284" lon="6.78516">
        <ele>363</ele>
        <time>2016-01-31T10:41:43.000Z</time>
      </trkpt>
      <trkpt lat="47.47286" lon="6.78519">
        <ele>363</ele>
        <time>2016-01-31T10:41:44.000Z</time>
      </trkpt>
      <trkpt lat="47.47288" lon="6.78521">
        <ele>363</ele>
        <time>2016-01-31T10:41:45.000Z</time>
      </trkpt>
      <trkpt lat="47.47292" lon="6.78523">
        <ele>363</ele>
        <time>2016-01-31T10:41:47.000Z</time>
      </trkpt>
      <trkpt lat="47.47295" lon="6.78524">
        <ele>364</ele>
        <time>2016-01-31T10:41:48.000Z</time>
      </trkpt>
      <trkpt lat="47.47299" lon="6.78525">
        <ele>364</ele>
        <time>2016-01-31T10:41:50.000Z</time>
      </trkpt>
      <trkpt lat="47.47301" lon="6.78526">
        <ele>364</ele>
        <time>2016-01-31T10:41:51.000Z</time>
      </trkpt>
      <trkpt lat="47.47305" lon="6.78528">
        <ele>364</ele>
        <time>2016-01-31T10:41:53.000Z</time>
      </trkpt>
      <trkpt lat="47.47307" lon="6.78528">
        <ele>364</ele>
        <time>2016-01-31T10:41:54.000Z</time>
      </trkpt>
      <trkpt lat="47.47311" lon="6.7853">
        <ele>364</ele>
        <time>2016-01-31T10:41:56.000Z</time>
      </trkpt>
      <trkpt lat="47.47313" lon="6.78531">
        <ele>364</ele>
        <time>2016-01-31T10:41:57.000Z</time>
      </trkpt>
      <trkpt lat="47.47317" lon="6.78533">
        <ele>364</ele>
        <time>2016-01-31T10:41:59.000Z</time>
      </trkpt>
      <trkpt lat="47.47319" lon="6.78534">
        <ele>364</ele>
        <time>2016-01-31T10:42:00.000Z</time>
      </trkpt>
      <trkpt lat="47.47323" lon="6.78536">
        <ele>364</ele>
        <time>2016-01-31T10:42:02.000Z</time>
      </trkpt>
      <trkpt lat="47.47325" lon="6.78537">
        <ele>364</ele>
        <time>2016-01-31T10:42:03.000Z</time>
      </trkpt>
      <trkpt lat="47.47329" lon="6.78539">
        <ele>364</ele>
        <time>2016-01-31T10:42:05.000Z</time>
      </trkpt>
      <trkpt lat="47.47331" lon="6.7854">
        <ele>364</ele>
        <time>2016-01-31T10:42:06.000Z</time>
      </trkpt>
      <trkpt lat="47.47334" lon="6.78541">
        <ele>365</ele>
        <time>2016-01-31T10:42:08.000Z</time>
      </trkpt>
      <trkpt lat="47.47336" lon="6.78542">
        <ele>365</ele>
        <time>2016-01-31T10:42:09.000Z</time>
      </trkpt>
      <trkpt lat="47.4734" lon="6.78544">
        <ele>365</ele>
        <time>2016-01-31T10:42:11.000Z</time>
      </trkpt>
      <trkpt lat="47.47341" lon="6.78545">
        <ele>365</ele>
        <time>2016-01-31T10:42:12.000Z</time>
      </trkpt>
      <trkpt lat="47.47345" lon="6.78546">
        <ele>365</ele>
        <time>2016-01-31T10:42:14.000Z</time>
      </trkpt>
      <trkpt lat="47.47347" lon="6.78547">
        <ele>365</ele>
        <time>2016-01-31T10:42:15.000Z</time>
      </trkpt>
      <trkpt lat="47.4735" lon="6.78549">
        <ele>365</ele>
        <time>2016-01-31T10:42:17.000Z</time>
      </trkpt>
      <trkpt lat="47.47352" lon="6.7855">
        <ele>365</ele>
        <time>2016-01-31T10:42:18.000Z</time>
      </trkpt>
      <trkpt lat="47.47356" lon="6.78551">
        <ele>365</ele>
        <time>2016-01-31T10:42:20.000Z</time>
      </trkpt>
      <trkpt lat="47.47357" lon="6.78552">
        <ele>365</ele>
        <time>2016-01-31T10:42:21.000Z</time>
      </trkpt>
      <trkpt lat="47.47361" lon="6.78553">
        <ele>365</ele>
        <time>2016-01-31T10:42:23.000Z</time>
      </trkpt>
      <trkpt lat="47.47362" lon="6.78555">
        <ele>365</ele>
        <time>2016-01-31T10:42:24.000Z</time>
      </trkpt>
      <trkpt lat="47.47365" lon="6.78556">
        <ele>365</ele>
        <time>2016-01-31T10:42:26.000Z</time>
      </trkpt>
      <trkpt lat="47.47367" lon="6.78557">
        <ele>365</ele>
        <time>2016-01-31T10:42:27.000Z</time>
      </trkpt>
      <trkpt lat="47.4737" lon="6.7856">
        <ele>365</ele>
        <time>2016-01-31T10:42:29.000Z</time>
      </trkpt>
      <trkpt lat="47.47372" lon="6.78561">
        <ele>365</ele>
        <time>2016-01-31T10:42:30.000Z</time>
      </trkpt>
      <trkpt lat="47.47376" lon="6.78563">
        <ele>365</ele>
        <time>2016-01-31T10:42:32.000Z</time>
      </trkpt>
      <trkpt lat="47.47378" lon="6.78563">
        <ele>365</ele>
        <time>2016-01-31T10:42:33.000Z</time>
      </trkpt>
      <trkpt lat="47.47382" lon="6.78565">
        <ele>365</ele>
        <time>2016-01-31T10:42:35.000Z</time>
      </trkpt>
      <trkpt lat="47.47383" lon="6.78566">
        <ele>365</ele>
        <time>2016-01-31T10:42:36.000Z</time>
      </trkpt>
      <trkpt lat="47.47386" lon="6.78567">
        <ele>365</ele>
        <time>2016-01-31T10:42:37.000Z</time>
      </trkpt>
      <trkpt lat="47.47388" lon="6.78569">
        <ele>365</ele>
        <time>2016-01-31T10:42:38.000Z</time>
      </trkpt>
      <trkpt lat="47.4739" lon="6.7857">
        <ele>365</ele>
        <time>2016-01-31T10:42:39.000Z</time>
      </trkpt>
      <trkpt lat="47.47393" lon="6.78571">
        <ele>365</ele>
        <time>2016-01-31T10:42:40.000Z</time>
      </trkpt>
      <trkpt lat="47.47395" lon="6.78572">
        <ele>365</ele>
        <time>2016-01-31T10:42:41.000Z</time>
      </trkpt>
      <trkpt lat="47.47397" lon="6.78572">
        <ele>365</ele>
        <time>2016-01-31T10:42:42.000Z</time>
      </trkpt>
      <trkpt lat="47.474" lon="6.78573">
        <ele>365</ele>
        <time>2016-01-31T10:42:43.000Z</time>
      </trkpt>
      <trkpt lat="47.47402" lon="6.78575">
        <ele>365</ele>
        <time>2016-01-31T10:42:44.000Z</time>
      </trkpt>
      <trkpt lat="47.47405" lon="6.78576">
        <ele>365</ele>
        <time>2016-01-31T10:42:45.000Z</time>
      </trkpt>
      <trkpt lat="47.47407" lon="6.78578">
        <ele>366</ele>
        <time>2016-01-31T10:42:46.000Z</time>
      </trkpt>
      <trkpt lat="47.4741" lon="6.7858">
        <ele>366</ele>
        <time>2016-01-31T10:42:47.000Z</time>
      </trkpt>
      <trkpt lat="47.47412" lon="6.78581">
        <ele>366</ele>
        <time>2016-01-31T10:42:48.000Z</time>
      </trkpt>
      <trkpt lat="47.47414" lon="6.78583">
        <ele>366</ele>
        <time>2016-01-31T10:42:49.000Z</time>
      </trkpt>
      <trkpt lat="47.47417" lon="6.78584">
        <ele>366</ele>
        <time>2016-01-31T10:42:50.000Z</time>
      </trkpt>
      <trkpt lat="47.47421" lon="6.78586">
        <ele>366</ele>
        <time>2016-01-31T10:42:52.000Z</time>
      </trkpt>
      <trkpt lat="47.47423" lon="6.78587">
        <ele>365</ele>
        <time>2016-01-31T10:42:53.000Z</time>
      </trkpt>
      <trkpt lat="47.47425" lon="6.78589">
        <ele>365</ele>
        <time>2016-01-31T10:42:54.000Z</time>
      </trkpt>
      <trkpt lat="47.47428" lon="6.7859">
        <ele>365</ele>
        <time>2016-01-31T10:42:55.000Z</time>
      </trkpt>
      <trkpt lat="47.47431" lon="6.78592">
        <ele>365</ele>
        <time>2016-01-31T10:42:56.000Z</time>
      </trkpt>
      <trkpt lat="47.47434" lon="6.78594">
        <ele>365</ele>
        <time>2016-01-31T10:42:57.000Z</time>
      </trkpt>
      <trkpt lat="47.47437" lon="6.78595">
        <ele>365</ele>
        <time>2016-01-31T10:42:58.000Z</time>
      </trkpt>
      <trkpt lat="47.47441" lon="6.78594">
        <ele>364</ele>
        <time>2016-01-31T10:42:59.000Z</time>
      </trkpt>
      <trkpt lat="47.47445" lon="6.78594">
        <ele>364</ele>
        <time>2016-01-31T10:43:00.000Z</time>
      </trkpt>
      <trkpt lat="47.47448" lon="6.78592">
        <ele>364</ele>
        <time>2016-01-31T10:43:01.000Z</time>
      </trkpt>
      <trkpt lat="47.47452" lon="6.78591">
        <ele>364</ele>
        <time>2016-01-31T10:43:02.000Z</time>
      </trkpt>
      <trkpt lat="47.47455" lon="6.7859">
        <ele>364</ele>
        <time>2016-01-31T10:43:03.000Z</time>
      </trkpt>
      <trkpt lat="47.47458" lon="6.78589">
        <ele>364</ele>
        <time>2016-01-31T10:43:04.000Z</time>
      </trkpt>
      <trkpt lat="47.47462" lon="6.78588">
        <ele>363</ele>
        <time>2016-01-31T10:43:05.000Z</time>
      </trkpt>
      <trkpt lat="47.47466" lon="6.78589">
        <ele>363</ele>
        <time>2016-01-31T10:43:06.000Z</time>
      </trkpt>
      <trkpt lat="47.4747" lon="6.78589">
        <ele>363</ele>
        <time>2016-01-31T10:43:07.000Z</time>
      </trkpt>
      <trkpt lat="47.47475" lon="6.78589">
        <ele>363</ele>
        <time>2016-01-31T10:43:08.000Z</time>
      </trkpt>
      <trkpt lat="47.47482" lon="6.7859">
        <ele>362</ele>
        <time>2016-01-31T10:43:09.000Z</time>
      </trkpt>
      <trkpt lat="47.47486" lon="6.78588">
        <ele>362</ele>
        <time>2016-01-31T10:43:10.000Z</time>
      </trkpt>
      <trkpt lat="47.47493" lon="6.78583">
        <ele>362</ele>
        <time>2016-01-31T10:43:11.000Z</time>
      </trkpt>
      <trkpt lat="47.47497" lon="6.78579">
        <ele>361</ele>
        <time>2016-01-31T10:43:12.000Z</time>
      </trkpt>
      <trkpt lat="47.47501" lon="6.78574">
        <ele>360</ele>
        <time>2016-01-31T10:43:13.000Z</time>
      </trkpt>
      <trkpt lat="47.47503" lon="6.78569">
        <ele>359</ele>
        <time>2016-01-31T10:43:14.000Z</time>
      </trkpt>
      <trkpt lat="47.47506" lon="6.78564">
        <ele>359</ele>
        <time>2016-01-31T10:43:15.000Z</time>
      </trkpt>
      <trkpt lat="47.4751" lon="6.7856">
        <ele>358</ele>
        <time>2016-01-31T10:43:16.000Z</time>
      </trkpt>
      <trkpt lat="47.47512" lon="6.78556">
        <ele>358</ele>
        <time>2016-01-31T10:43:17.000Z</time>
      </trkpt>
      <trkpt lat="47.47515" lon="6.7855">
        <ele>358</ele>
        <time>2016-01-31T10:43:18.000Z</time>
      </trkpt>
      <trkpt lat="47.47518" lon="6.78544">
        <ele>357</ele>
        <time>2016-01-31T10:43:19.000Z</time>
      </trkpt>
      <trkpt lat="47.47522" lon="6.78539">
        <ele>357</ele>
        <time>2016-01-31T10:43:20.000Z</time>
      </trkpt>
      <trkpt lat="47.47525" lon="6.78535">
        <ele>357</ele>
        <time>2016-01-31T10:43:21.000Z</time>
      </trkpt>
      <trkpt lat="47.47528" lon="6.7853">
        <ele>357</ele>
        <time>2016-01-31T10:43:22.000Z</time>
      </trkpt>
      <trkpt lat="47.47531" lon="6.78526">
        <ele>357</ele>
        <time>2016-01-31T10:43:23.000Z</time>
      </trkpt>
      <trkpt lat="47.47533" lon="6.78522">
        <ele>357</ele>
        <time>2016-01-31T10:43:24.000Z</time>
      </trkpt>
      <trkpt lat="47.47536" lon="6.78518">
        <ele>357</ele>
        <time>2016-01-31T10:43:25.000Z</time>
      </trkpt>
      <trkpt lat="47.47538" lon="6.78515">
        <ele>357</ele>
        <time>2016-01-31T10:43:26.000Z</time>
      </trkpt>
      <trkpt lat="47.4754" lon="6.78512">
        <ele>356</ele>
        <time>2016-01-31T10:43:27.000Z</time>
      </trkpt>
      <trkpt lat="47.47542" lon="6.7851">
        <ele>356</ele>
        <time>2016-01-31T10:43:28.000Z</time>
      </trkpt>
      <trkpt lat="47.47544" lon="6.78507">
        <ele>356</ele>
        <time>2016-01-31T10:43:29.000Z</time>
      </trkpt>
      <trkpt lat="47.47547" lon="6.78504">
        <ele>356</ele>
        <time>2016-01-31T10:43:30.000Z</time>
      </trkpt>
      <trkpt lat="47.47549" lon="6.785">
        <ele>356</ele>
        <time>2016-01-31T10:43:31.000Z</time>
      </trkpt>
      <trkpt lat="47.47552" lon="6.78496">
        <ele>356</ele>
        <time>2016-01-31T10:43:32.000Z</time>
      </trkpt>
      <trkpt lat="47.47555" lon="6.78493">
        <ele>355</ele>
        <time>2016-01-31T10:43:33.000Z</time>
      </trkpt>
      <trkpt lat="47.47558" lon="6.78488">
        <ele>355</ele>
        <time>2016-01-31T10:43:34.000Z</time>
      </trkpt>
      <trkpt lat="47.47562" lon="6.78484">
        <ele>355</ele>
        <time>2016-01-31T10:43:35.000Z</time>
      </trkpt>
      <trkpt lat="47.47566" lon="6.78479">
        <ele>355</ele>
        <time>2016-01-31T10:43:36.000Z</time>
      </trkpt>
      <trkpt lat="47.47571" lon="6.78474">
        <ele>355</ele>
        <time>2016-01-31T10:43:37.000Z</time>
      </trkpt>
      <trkpt lat="47.47576" lon="6.78469">
        <ele>355</ele>
        <time>2016-01-31T10:43:38.000Z</time>
      </trkpt>
      <trkpt lat="47.47581" lon="6.78464">
        <ele>355</ele>
        <time>2016-01-31T10:43:39.000Z</time>
      </trkpt>
      <trkpt lat="47.47586" lon="6.78459">
        <ele>349</ele>
        <time>2016-01-31T10:43:40.000Z</time>
      </trkpt>
      <trkpt lat="47.4759" lon="6.78454">
        <ele>349</ele>
        <time>2016-01-31T10:43:41.000Z</time>
      </trkpt>
      <trkpt lat="47.47593" lon="6.78449">
        <ele>349</ele>
        <time>2016-01-31T10:43:42.000Z</time>
      </trkpt>
      <trkpt lat="47.47597" lon="6.78444">
        <ele>349</ele>
        <time>2016-01-31T10:43:43.000Z</time>
      </trkpt>
      <trkpt lat="47.476" lon="6.78438">
        <ele>349</ele>
        <time>2016-01-31T10:43:44.000Z</time>
      </trkpt>
      <trkpt lat="47.47603" lon="6.78432">
        <ele>349</ele>
        <time>2016-01-31T10:43:45.000Z</time>
      </trkpt>
      <trkpt lat="47.47607" lon="6.78428">
        <ele>348</ele>
        <time>2016-01-31T10:43:46.000Z</time>
      </trkpt>
      <trkpt lat="47.4761" lon="6.78423">
        <ele>348</ele>
        <time>2016-01-31T10:43:47.000Z</time>
      </trkpt>
      <trkpt lat="47.47613" lon="6.78419">
        <ele>348</ele>
        <time>2016-01-31T10:43:48.000Z</time>
      </trkpt>
      <trkpt lat="47.47616" lon="6.78414">
        <ele>348</ele>
        <time>2016-01-31T10:43:49.000Z</time>
      </trkpt>
      <trkpt lat="47.47619" lon="6.7841">
        <ele>347</ele>
        <time>2016-01-31T10:43:50.000Z</time>
      </trkpt>
      <trkpt lat="47.47621" lon="6.78405">
        <ele>347</ele>
        <time>2016-01-31T10:43:51.000Z</time>
      </trkpt>
      <trkpt lat="47.47623" lon="6.78401">
        <ele>347</ele>
        <time>2016-01-31T10:43:52.000Z</time>
      </trkpt>
      <trkpt lat="47.47625" lon="6.78397">
        <ele>347</ele>
        <time>2016-01-31T10:43:53.000Z</time>
      </trkpt>
      <trkpt lat="47.47627" lon="6.78394">
        <ele>347</ele>
        <time>2016-01-31T10:43:54.000Z</time>
      </trkpt>
      <trkpt lat="47.47629" lon="6.78392">
        <ele>347</ele>
        <time>2016-01-31T10:43:55.000Z</time>
      </trkpt>
      <trkpt lat="47.47631" lon="6.78389">
        <ele>346</ele>
        <time>2016-01-31T10:43:57.000Z</time>
      </trkpt>
      <trkpt lat="47.47633" lon="6.78388">
        <ele>346</ele>
        <time>2016-01-31T10:43:58.000Z</time>
      </trkpt>
      <trkpt lat="47.47636" lon="6.78389">
        <ele>346</ele>
        <time>2016-01-31T10:44:01.000Z</time>
      </trkpt>
      <trkpt lat="47.47637" lon="6.7839">
        <ele>346</ele>
        <time>2016-01-31T10:44:02.000Z</time>
      </trkpt>
      <trkpt lat="47.4764" lon="6.78391">
        <ele>346</ele>
        <time>2016-01-31T10:44:04.000Z</time>
      </trkpt>
      <trkpt lat="47.47642" lon="6.7839">
        <ele>346</ele>
        <time>2016-01-31T10:44:05.000Z</time>
      </trkpt>
      <trkpt lat="47.47645" lon="6.78389">
        <ele>346</ele>
        <time>2016-01-31T10:44:06.000Z</time>
      </trkpt>
      <trkpt lat="47.47648" lon="6.78389">
        <ele>345</ele>
        <time>2016-01-31T10:44:07.000Z</time>
      </trkpt>
      <trkpt lat="47.4765" lon="6.78394">
        <ele>345</ele>
        <time>2016-01-31T10:44:24.000Z</time>
      </trkpt>
      <trkpt lat="47.47651" lon="6.78395">
        <ele>345</ele>
        <time>2016-01-31T10:44:25.000Z</time>
      </trkpt>
      <trkpt lat="47.47652" lon="6.78401">
        <ele>345</ele>
        <time>2016-01-31T10:44:31.000Z</time>
      </trkpt>
      <trkpt lat="47.47653" lon="6.78404">
        <ele>344</ele>
        <time>2016-01-31T10:44:32.000Z</time>
      </trkpt>
      <trkpt lat="47.47654" lon="6.78409">
        <ele>344</ele>
        <time>2016-01-31T10:44:34.000Z</time>
      </trkpt>
      <trkpt lat="47.47657" lon="6.78423">
        <ele>343</ele>
        <time>2016-01-31T10:44:35.000Z</time>
      </trkpt>
      <trkpt lat="47.47657" lon="6.78428">
        <ele>344</ele>
        <time>2016-01-31T10:44:36.000Z</time>
      </trkpt>
      <trkpt lat="47.47658" lon="6.7843">
        <ele>344</ele>
        <time>2016-01-31T10:44:37.000Z</time>
      </trkpt>
      <trkpt lat="47.47657" lon="6.78423">
        <ele>343</ele>
        <time>2016-01-31T10:45:04.000Z</time>
      </trkpt>
      <trkpt lat="47.47657" lon="6.78422">
        <ele>343</ele>
        <time>2016-01-31T10:45:05.000Z</time>
      </trkpt>
      <trkpt lat="47.47659" lon="6.78418">
        <ele>343</ele>
        <time>2016-01-31T10:45:09.000Z</time>
      </trkpt>
      <trkpt lat="47.4766" lon="6.78417">
        <ele>342</ele>
        <time>2016-01-31T10:45:10.000Z</time>
      </trkpt>
      <trkpt lat="47.47662" lon="6.78413">
        <ele>342</ele>
        <time>2016-01-31T10:45:13.000Z</time>
      </trkpt>
      <trkpt lat="47.47663" lon="6.78412">
        <ele>342</ele>
        <time>2016-01-31T10:45:14.000Z</time>
      </trkpt>
      <trkpt lat="47.47666" lon="6.78408">
        <ele>343</ele>
        <time>2016-01-31T10:45:17.000Z</time>
      </trkpt>
      <trkpt lat="47.47668" lon="6.78406">
        <ele>341</ele>
        <time>2016-01-31T10:45:18.000Z</time>
      </trkpt>
      <trkpt lat="47.4767" lon="6.78401">
        <ele>341</ele>
        <time>2016-01-31T10:45:20.000Z</time>
      </trkpt>
      <trkpt lat="47.47673" lon="6.78395">
        <ele>341</ele>
        <time>2016-01-31T10:45:21.000Z</time>
      </trkpt>
      <trkpt lat="47.47677" lon="6.78389">
        <ele>341</ele>
        <time>2016-01-31T10:45:22.000Z</time>
      </trkpt>
      <trkpt lat="47.47682" lon="6.78382">
        <ele>341</ele>
        <time>2016-01-31T10:45:23.000Z</time>
      </trkpt>
      <trkpt lat="47.47687" lon="6.78375">
        <ele>341</ele>
        <time>2016-01-31T10:45:24.000Z</time>
      </trkpt>
      <trkpt lat="47.47691" lon="6.78368">
        <ele>341</ele>
        <time>2016-01-31T10:45:25.000Z</time>
      </trkpt>
      <trkpt lat="47.47695" lon="6.7836">
        <ele>341</ele>
        <time>2016-01-31T10:45:26.000Z</time>
      </trkpt>
      <trkpt lat="47.47698" lon="6.78353">
        <ele>341</ele>
        <time>2016-01-31T10:45:27.000Z</time>
      </trkpt>
      <trkpt lat="47.47701" lon="6.78345">
        <ele>341</ele>
        <time>2016-01-31T10:45:28.000Z</time>
      </trkpt>
      <trkpt lat="47.47705" lon="6.7833">
        <ele>339</ele>
        <time>2016-01-31T10:45:29.000Z</time>
      </trkpt>
      <trkpt lat="47.47707" lon="6.78323">
        <ele>338</ele>
        <time>2016-01-31T10:45:30.000Z</time>
      </trkpt>
      <trkpt lat="47.47708" lon="6.78317">
        <ele>338</ele>
        <time>2016-01-31T10:45:31.000Z</time>
      </trkpt>
      <trkpt lat="47.47708" lon="6.7831">
        <ele>338</ele>
        <time>2016-01-31T10:45:32.000Z</time>
      </trkpt>
      <trkpt lat="47.47708" lon="6.78304">
        <ele>338</ele>
        <time>2016-01-31T10:45:33.000Z</time>
      </trkpt>
      <trkpt lat="47.47708" lon="6.78297">
        <ele>338</ele>
        <time>2016-01-31T10:45:34.000Z</time>
      </trkpt>
      <trkpt lat="47.47706" lon="6.78288">
        <ele>338</ele>
        <time>2016-01-31T10:45:35.000Z</time>
      </trkpt>
      <trkpt lat="47.47705" lon="6.7828">
        <ele>337</ele>
        <time>2016-01-31T10:45:36.000Z</time>
      </trkpt>
      <trkpt lat="47.47702" lon="6.7827">
        <ele>337</ele>
        <time>2016-01-31T10:45:37.000Z</time>
      </trkpt>
      <trkpt lat="47.47699" lon="6.78262">
        <ele>337</ele>
        <time>2016-01-31T10:45:38.000Z</time>
      </trkpt>
      <trkpt lat="47.47696" lon="6.78254">
        <ele>337</ele>
        <time>2016-01-31T10:45:39.000Z</time>
      </trkpt>
      <trkpt lat="47.47693" lon="6.78246">
        <ele>334</ele>
        <time>2016-01-31T10:45:40.000Z</time>
      </trkpt>
      <trkpt lat="47.4769" lon="6.78238">
        <ele>334</ele>
        <time>2016-01-31T10:45:41.000Z</time>
      </trkpt>
      <trkpt lat="47.47687" lon="6.78229">
        <ele>334</ele>
        <time>2016-01-31T10:45:42.000Z</time>
      </trkpt>
      <trkpt lat="47.47684" lon="6.7822">
        <ele>334</ele>
        <time>2016-01-31T10:45:43.000Z</time>
      </trkpt>
      <trkpt lat="47.47683" lon="6.78209">
        <ele>333</ele>
        <time>2016-01-31T10:45:44.000Z</time>
      </trkpt>
      <trkpt lat="47.47683" lon="6.78197">
        <ele>332</ele>
        <time>2016-01-31T10:45:45.000Z</time>
      </trkpt>
      <trkpt lat="47.47683" lon="6.78186">
        <ele>332</ele>
        <time>2016-01-31T10:45:46.000Z</time>
      </trkpt>
      <trkpt lat="47.47685" lon="6.78175">
        <ele>332</ele>
        <time>2016-01-31T10:45:47.000Z</time>
      </trkpt>
      <trkpt lat="47.47688" lon="6.78163">
        <ele>329</ele>
        <time>2016-01-31T10:45:48.000Z</time>
      </trkpt>
      <trkpt lat="47.47691" lon="6.78152">
        <ele>328</ele>
        <time>2016-01-31T10:45:49.000Z</time>
      </trkpt>
      <trkpt lat="47.47694" lon="6.7814">
        <ele>327</ele>
        <time>2016-01-31T10:45:50.000Z</time>
      </trkpt>
      <trkpt lat="47.47699" lon="6.78127">
        <ele>327</ele>
        <time>2016-01-31T10:45:51.000Z</time>
      </trkpt>
      <trkpt lat="47.47704" lon="6.78114">
        <ele>326</ele>
        <time>2016-01-31T10:45:52.000Z</time>
      </trkpt>
      <trkpt lat="47.47709" lon="6.78102">
        <ele>326</ele>
        <time>2016-01-31T10:45:53.000Z</time>
      </trkpt>
      <trkpt lat="47.47713" lon="6.78091">
        <ele>325</ele>
        <time>2016-01-31T10:45:54.000Z</time>
      </trkpt>
      <trkpt lat="47.47717" lon="6.78081">
        <ele>322</ele>
        <time>2016-01-31T10:45:55.000Z</time>
      </trkpt>
      <trkpt lat="47.47721" lon="6.78071">
        <ele>322</ele>
        <time>2016-01-31T10:45:56.000Z</time>
      </trkpt>
      <trkpt lat="47.47724" lon="6.7806">
        <ele>322</ele>
        <time>2016-01-31T10:45:57.000Z</time>
      </trkpt>
      <trkpt lat="47.47726" lon="6.7805">
        <ele>322</ele>
        <time>2016-01-31T10:45:58.000Z</time>
      </trkpt>
      <trkpt lat="47.47726" lon="6.78039">
        <ele>322</ele>
        <time>2016-01-31T10:45:59.000Z</time>
      </trkpt>
      <trkpt lat="47.47726" lon="6.78028">
        <ele>322</ele>
        <time>2016-01-31T10:46:00.000Z</time>
      </trkpt>
      <trkpt lat="47.47725" lon="6.78017">
        <ele>321</ele>
        <time>2016-01-31T10:46:01.000Z</time>
      </trkpt>
      <trkpt lat="47.47723" lon="6.78007">
        <ele>321</ele>
        <time>2016-01-31T10:46:02.000Z</time>
      </trkpt>
      <trkpt lat="47.47722" lon="6.77996">
        <ele>320</ele>
        <time>2016-01-31T10:46:03.000Z</time>
      </trkpt>
      <trkpt lat="47.4772" lon="6.77986">
        <ele>320</ele>
        <time>2016-01-31T10:46:04.000Z</time>
      </trkpt>
      <trkpt lat="47.47718" lon="6.77976">
        <ele>320</ele>
        <time>2016-01-31T10:46:05.000Z</time>
      </trkpt>
      <trkpt lat="47.47717" lon="6.77967">
        <ele>320</ele>
        <time>2016-01-31T10:46:06.000Z</time>
      </trkpt>
      <trkpt lat="47.47716" lon="6.77957">
        <ele>320</ele>
        <time>2016-01-31T10:46:07.000Z</time>
      </trkpt>
      <trkpt lat="47.47714" lon="6.77948">
        <ele>320</ele>
        <time>2016-01-31T10:46:08.000Z</time>
      </trkpt>
      <trkpt lat="47.47712" lon="6.77938">
        <ele>320</ele>
        <time>2016-01-31T10:46:09.000Z</time>
      </trkpt>
      <trkpt lat="47.47711" lon="6.77929">
        <ele>320</ele>
        <time>2016-01-31T10:46:10.000Z</time>
      </trkpt>
      <trkpt lat="47.4771" lon="6.77922">
        <ele>320</ele>
        <time>2016-01-31T10:46:11.000Z</time>
      </trkpt>
      <trkpt lat="47.47709" lon="6.77912">
        <ele>318</ele>
        <time>2016-01-31T10:46:12.000Z</time>
      </trkpt>
      <trkpt lat="47.47707" lon="6.77904">
        <ele>318</ele>
        <time>2016-01-31T10:46:13.000Z</time>
      </trkpt>
      <trkpt lat="47.47706" lon="6.77895">
        <ele>318</ele>
        <time>2016-01-31T10:46:14.000Z</time>
      </trkpt>
      <trkpt lat="47.47705" lon="6.77887">
        <ele>318</ele>
        <time>2016-01-31T10:46:15.000Z</time>
      </trkpt>
      <trkpt lat="47.47704" lon="6.77878">
        <ele>318</ele>
        <time>2016-01-31T10:46:16.000Z</time>
      </trkpt>
      <trkpt lat="47.47703" lon="6.7787">
        <ele>318</ele>
        <time>2016-01-31T10:46:17.000Z</time>
      </trkpt>
      <trkpt lat="47.47702" lon="6.77861">
        <ele>318</ele>
        <time>2016-01-31T10:46:18.000Z</time>
      </trkpt>
      <trkpt lat="47.47701" lon="6.77853">
        <ele>318</ele>
        <time>2016-01-31T10:46:19.000Z</time>
      </trkpt>
      <trkpt lat="47.47701" lon="6.77844">
        <ele>318</ele>
        <time>2016-01-31T10:46:20.000Z</time>
      </trkpt>
      <trkpt lat="47.47701" lon="6.77835">
        <ele>318</ele>
        <time>2016-01-31T10:46:21.000Z</time>
      </trkpt>
      <trkpt lat="47.47701" lon="6.77826">
        <ele>317</ele>
        <time>2016-01-31T10:46:22.000Z</time>
      </trkpt>
      <trkpt lat="47.47702" lon="6.77818">
        <ele>317</ele>
        <time>2016-01-31T10:46:23.000Z</time>
      </trkpt>
      <trkpt lat="47.47702" lon="6.77809">
        <ele>317</ele>
        <time>2016-01-31T10:46:24.000Z</time>
      </trkpt>
      <trkpt lat="47.47703" lon="6.778">
        <ele>317</ele>
        <time>2016-01-31T10:46:25.000Z</time>
      </trkpt>
      <trkpt lat="47.47703" lon="6.77792">
        <ele>317</ele>
        <time>2016-01-31T10:46:26.000Z</time>
      </trkpt>
      <trkpt lat="47.47703" lon="6.77784">
        <ele>317</ele>
        <time>2016-01-31T10:46:27.000Z</time>
      </trkpt>
      <trkpt lat="47.47703" lon="6.77775">
        <ele>316</ele>
        <time>2016-01-31T10:46:28.000Z</time>
      </trkpt>
      <trkpt lat="47.47703" lon="6.77766">
        <ele>316</ele>
        <time>2016-01-31T10:46:29.000Z</time>
      </trkpt>
      <trkpt lat="47.47704" lon="6.77758">
        <ele>316</ele>
        <time>2016-01-31T10:46:30.000Z</time>
      </trkpt>
      <trkpt lat="47.47705" lon="6.7775">
        <ele>316</ele>
        <time>2016-01-31T10:46:31.000Z</time>
      </trkpt>
      <trkpt lat="47.47707" lon="6.77742">
        <ele>316</ele>
        <time>2016-01-31T10:46:32.000Z</time>
      </trkpt>
      <trkpt lat="47.47708" lon="6.77734">
        <ele>316</ele>
        <time>2016-01-31T10:46:33.000Z</time>
      </trkpt>
      <trkpt lat="47.4771" lon="6.77726">
        <ele>316</ele>
        <time>2016-01-31T10:46:34.000Z</time>
      </trkpt>
      <trkpt lat="47.47713" lon="6.77719">
        <ele>316</ele>
        <time>2016-01-31T10:46:35.000Z</time>
      </trkpt>
      <trkpt lat="47.47715" lon="6.77712">
        <ele>315</ele>
        <time>2016-01-31T10:46:36.000Z</time>
      </trkpt>
      <trkpt lat="47.47715" lon="6.77708">
        <ele>315</ele>
        <time>2016-01-31T10:46:37.000Z</time>
      </trkpt>
      <trkpt lat="47.47716" lon="6.77702">
        <ele>315</ele>
        <time>2016-01-31T10:46:38.000Z</time>
      </trkpt>
      <trkpt lat="47.47715" lon="6.77697">
        <ele>315</ele>
        <time>2016-01-31T10:46:39.000Z</time>
      </trkpt>
      <trkpt lat="47.47713" lon="6.7769">
        <ele>315</ele>
        <time>2016-01-31T10:46:40.000Z</time>
      </trkpt>
      <trkpt lat="47.47711" lon="6.77684">
        <ele>315</ele>
        <time>2016-01-31T10:46:41.000Z</time>
      </trkpt>
      <trkpt lat="47.47709" lon="6.77677">
        <ele>315</ele>
        <time>2016-01-31T10:46:42.000Z</time>
      </trkpt>
      <trkpt lat="47.47707" lon="6.7767">
        <ele>315</ele>
        <time>2016-01-31T10:46:43.000Z</time>
      </trkpt>
      <trkpt lat="47.47706" lon="6.77662">
        <ele>314</ele>
        <time>2016-01-31T10:46:44.000Z</time>
      </trkpt>
      <trkpt lat="47.47705" lon="6.77653">
        <ele>314</ele>
        <time>2016-01-31T10:46:45.000Z</time>
      </trkpt>
      <trkpt lat="47.47705" lon="6.77645">
        <ele>314</ele>
        <time>2016-01-31T10:46:46.000Z</time>
      </trkpt>
      <trkpt lat="47.47704" lon="6.77636">
        <ele>314</ele>
        <time>2016-01-31T10:46:47.000Z</time>
      </trkpt>
      <trkpt lat="47.47702" lon="6.77627">
        <ele>314</ele>
        <time>2016-01-31T10:46:48.000Z</time>
      </trkpt>
      <trkpt lat="47.47701" lon="6.77619">
        <ele>314</ele>
        <time>2016-01-31T10:46:49.000Z</time>
      </trkpt>
      <trkpt lat="47.477" lon="6.7761">
        <ele>314</ele>
        <time>2016-01-31T10:46:50.000Z</time>
      </trkpt>
      <trkpt lat="47.47696" lon="6.77604">
        <ele>314</ele>
        <time>2016-01-31T10:46:51.000Z</time>
      </trkpt>
      <trkpt lat="47.47693" lon="6.77597">
        <ele>314</ele>
        <time>2016-01-31T10:46:52.000Z</time>
      </trkpt>
      <trkpt lat="47.4769" lon="6.7759">
        <ele>314</ele>
        <time>2016-01-31T10:46:53.000Z</time>
      </trkpt>
      <trkpt lat="47.47686" lon="6.77584">
        <ele>314</ele>
        <time>2016-01-31T10:46:54.000Z</time>
      </trkpt>
      <trkpt lat="47.47681" lon="6.77579">
        <ele>314</ele>
        <time>2016-01-31T10:46:55.000Z</time>
      </trkpt>
      <trkpt lat="47.47677" lon="6.77573">
        <ele>314</ele>
        <time>2016-01-31T10:46:56.000Z</time>
      </trkpt>
      <trkpt lat="47.47673" lon="6.77567">
        <ele>314</ele>
        <time>2016-01-31T10:46:57.000Z</time>
      </trkpt>
      <trkpt lat="47.47669" lon="6.7756">
        <ele>314</ele>
        <time>2016-01-31T10:46:58.000Z</time>
      </trkpt>
      <trkpt lat="47.47665" lon="6.77553">
        <ele>315</ele>
        <time>2016-01-31T10:46:59.000Z</time>
      </trkpt>
      <trkpt lat="47.4766" lon="6.77547">
        <ele>315</ele>
        <time>2016-01-31T10:47:00.000Z</time>
      </trkpt>
      <trkpt lat="47.47656" lon="6.77541">
        <ele>315</ele>
        <time>2016-01-31T10:47:01.000Z</time>
      </trkpt>
      <trkpt lat="47.47652" lon="6.77535">
        <ele>315</ele>
        <time>2016-01-31T10:47:02.000Z</time>
      </trkpt>
      <trkpt lat="47.47648" lon="6.77528">
        <ele>315</ele>
        <time>2016-01-31T10:47:03.000Z</time>
      </trkpt>
      <trkpt lat="47.47644" lon="6.77523">
        <ele>315</ele>
        <time>2016-01-31T10:47:04.000Z</time>
      </trkpt>
      <trkpt lat="47.4764" lon="6.77517">
        <ele>315</ele>
        <time>2016-01-31T10:47:05.000Z</time>
      </trkpt>
      <trkpt lat="47.47636" lon="6.77512">
        <ele>315</ele>
        <time>2016-01-31T10:47:06.000Z</time>
      </trkpt>
      <trkpt lat="47.47632" lon="6.77507">
        <ele>315</ele>
        <time>2016-01-31T10:47:07.000Z</time>
      </trkpt>
      <trkpt lat="47.47628" lon="6.77499">
        <ele>314</ele>
        <time>2016-01-31T10:47:08.000Z</time>
      </trkpt>
      <trkpt lat="47.47624" lon="6.77494">
        <ele>314</ele>
        <time>2016-01-31T10:47:09.000Z</time>
      </trkpt>
      <trkpt lat="47.47619" lon="6.7749">
        <ele>314</ele>
        <time>2016-01-31T10:47:10.000Z</time>
      </trkpt>
      <trkpt lat="47.47615" lon="6.77485">
        <ele>314</ele>
        <time>2016-01-31T10:47:11.000Z</time>
      </trkpt>
      <trkpt lat="47.47611" lon="6.77479">
        <ele>314</ele>
        <time>2016-01-31T10:47:12.000Z</time>
      </trkpt>
      <trkpt lat="47.47607" lon="6.77474">
        <ele>314</ele>
        <time>2016-01-31T10:47:13.000Z</time>
      </trkpt>
      <trkpt lat="47.47602" lon="6.7747">
        <ele>314</ele>
        <time>2016-01-31T10:47:14.000Z</time>
      </trkpt>
      <trkpt lat="47.47598" lon="6.77465">
        <ele>314</ele>
        <time>2016-01-31T10:47:15.000Z</time>
      </trkpt>
      <trkpt lat="47.47594" lon="6.77461">
        <ele>314</ele>
        <time>2016-01-31T10:47:16.000Z</time>
      </trkpt>
      <trkpt lat="47.4759" lon="6.77457">
        <ele>314</ele>
        <time>2016-01-31T10:47:17.000Z</time>
      </trkpt>
      <trkpt lat="47.47588" lon="6.7745">
        <ele>314</ele>
        <time>2016-01-31T10:47:18.000Z</time>
      </trkpt>
      <trkpt lat="47.47589" lon="6.77442">
        <ele>314</ele>
        <time>2016-01-31T10:47:19.000Z</time>
      </trkpt>
      <trkpt lat="47.4759" lon="6.77436">
        <ele>314</ele>
        <time>2016-01-31T10:47:20.000Z</time>
      </trkpt>
      <trkpt lat="47.47594" lon="6.77429">
        <ele>314</ele>
        <time>2016-01-31T10:47:21.000Z</time>
      </trkpt>
      <trkpt lat="47.47597" lon="6.77423">
        <ele>314</ele>
        <time>2016-01-31T10:47:22.000Z</time>
      </trkpt>
      <trkpt lat="47.476" lon="6.77416">
        <ele>313</ele>
        <time>2016-01-31T10:47:23.000Z</time>
      </trkpt>
      <trkpt lat="47.47602" lon="6.7741">
        <ele>313</ele>
        <time>2016-01-31T10:47:24.000Z</time>
      </trkpt>
      <trkpt lat="47.47606" lon="6.77406">
        <ele>313</ele>
        <time>2016-01-31T10:47:25.000Z</time>
      </trkpt>
      <trkpt lat="47.47609" lon="6.774">
        <ele>313</ele>
        <time>2016-01-31T10:47:26.000Z</time>
      </trkpt>
      <trkpt lat="47.47611" lon="6.77392">
        <ele>312</ele>
        <time>2016-01-31T10:47:27.000Z</time>
      </trkpt>
      <trkpt lat="47.47614" lon="6.77384">
        <ele>312</ele>
        <time>2016-01-31T10:47:28.000Z</time>
      </trkpt>
      <trkpt lat="47.47616" lon="6.77375">
        <ele>312</ele>
        <time>2016-01-31T10:47:29.000Z</time>
      </trkpt>
      <trkpt lat="47.47618" lon="6.77367">
        <ele>312</ele>
        <time>2016-01-31T10:47:30.000Z</time>
      </trkpt>
      <trkpt lat="47.47621" lon="6.77358">
        <ele>312</ele>
        <time>2016-01-31T10:47:31.000Z</time>
      </trkpt>
      <trkpt lat="47.47623" lon="6.7735">
        <ele>312</ele>
        <time>2016-01-31T10:47:32.000Z</time>
      </trkpt>
      <trkpt lat="47.47627" lon="6.77341">
        <ele>312</ele>
        <time>2016-01-31T10:47:33.000Z</time>
      </trkpt>
      <trkpt lat="47.47629" lon="6.77334">
        <ele>312</ele>
        <time>2016-01-31T10:47:34.000Z</time>
      </trkpt>
      <trkpt lat="47.47631" lon="6.77327">
        <ele>311</ele>
        <time>2016-01-31T10:47:35.000Z</time>
      </trkpt>
      <trkpt lat="47.47635" lon="6.77319">
        <ele>311</ele>
        <time>2016-01-31T10:47:36.000Z</time>
      </trkpt>
      <trkpt lat="47.47637" lon="6.77311">
        <ele>311</ele>
        <time>2016-01-31T10:47:37.000Z</time>
      </trkpt>
      <trkpt lat="47.47638" lon="6.77303">
        <ele>311</ele>
        <time>2016-01-31T10:47:38.000Z</time>
      </trkpt>
      <trkpt lat="47.47639" lon="6.77294">
        <ele>311</ele>
        <time>2016-01-31T10:47:39.000Z</time>
      </trkpt>
      <trkpt lat="47.47638" lon="6.77285">
        <ele>311</ele>
        <time>2016-01-31T10:47:40.000Z</time>
      </trkpt>
      <trkpt lat="47.47636" lon="6.77278">
        <ele>311</ele>
        <time>2016-01-31T10:47:41.000Z</time>
      </trkpt>
      <trkpt lat="47.47632" lon="6.77273">
        <ele>311</ele>
        <time>2016-01-31T10:47:42.000Z</time>
      </trkpt>
      <trkpt lat="47.47627" lon="6.77268">
        <ele>311</ele>
        <time>2016-01-31T10:47:43.000Z</time>
      </trkpt>
      <trkpt lat="47.47622" lon="6.77263">
        <ele>311</ele>
        <time>2016-01-31T10:47:44.000Z</time>
      </trkpt>
      <trkpt lat="47.47617" lon="6.77259">
        <ele>311</ele>
        <time>2016-01-31T10:47:45.000Z</time>
      </trkpt>
      <trkpt lat="47.47611" lon="6.77254">
        <ele>311</ele>
        <time>2016-01-31T10:47:46.000Z</time>
      </trkpt>
      <trkpt lat="47.47607" lon="6.7725">
        <ele>311</ele>
        <time>2016-01-31T10:47:47.000Z</time>
      </trkpt>
      <trkpt lat="47.47602" lon="6.77247">
        <ele>311</ele>
        <time>2016-01-31T10:47:48.000Z</time>
      </trkpt>
      <trkpt lat="47.47597" lon="6.77242">
        <ele>311</ele>
        <time>2016-01-31T10:47:49.000Z</time>
      </trkpt>
      <trkpt lat="47.47592" lon="6.77238">
        <ele>311</ele>
        <time>2016-01-31T10:47:50.000Z</time>
      </trkpt>
      <trkpt lat="47.47587" lon="6.77234">
        <ele>311</ele>
        <time>2016-01-31T10:47:51.000Z</time>
      </trkpt>
      <trkpt lat="47.47582" lon="6.77231">
        <ele>311</ele>
        <time>2016-01-31T10:47:52.000Z</time>
      </trkpt>
      <trkpt lat="47.47577" lon="6.77227">
        <ele>311</ele>
        <time>2016-01-31T10:47:53.000Z</time>
      </trkpt>
      <trkpt lat="47.47572" lon="6.77223">
        <ele>311</ele>
        <time>2016-01-31T10:47:54.000Z</time>
      </trkpt>
      <trkpt lat="47.47567" lon="6.77219">
        <ele>311</ele>
        <time>2016-01-31T10:47:55.000Z</time>
      </trkpt>
      <trkpt lat="47.47563" lon="6.77214">
        <ele>311</ele>
        <time>2016-01-31T10:47:56.000Z</time>
      </trkpt>
      <trkpt lat="47.47558" lon="6.7721">
        <ele>311</ele>
        <time>2016-01-31T10:47:57.000Z</time>
      </trkpt>
      <trkpt lat="47.47554" lon="6.77207">
        <ele>310</ele>
        <time>2016-01-31T10:47:58.000Z</time>
      </trkpt>
      <trkpt lat="47.47549" lon="6.77203">
        <ele>310</ele>
        <time>2016-01-31T10:47:59.000Z</time>
      </trkpt>
      <trkpt lat="47.47544" lon="6.772">
        <ele>310</ele>
        <time>2016-01-31T10:48:00.000Z</time>
      </trkpt>
      <trkpt lat="47.47539" lon="6.77198">
        <ele>310</ele>
        <time>2016-01-31T10:48:01.000Z</time>
      </trkpt>
      <trkpt lat="47.47535" lon="6.77196">
        <ele>310</ele>
        <time>2016-01-31T10:48:02.000Z</time>
      </trkpt>
      <trkpt lat="47.4753" lon="6.77194">
        <ele>310</ele>
        <time>2016-01-31T10:48:03.000Z</time>
      </trkpt>
      <trkpt lat="47.47526" lon="6.77192">
        <ele>310</ele>
        <time>2016-01-31T10:48:04.000Z</time>
      </trkpt>
      <trkpt lat="47.47522" lon="6.77189">
        <ele>310</ele>
        <time>2016-01-31T10:48:05.000Z</time>
      </trkpt>
      <trkpt lat="47.47519" lon="6.77183">
        <ele>310</ele>
        <time>2016-01-31T10:48:06.000Z</time>
      </trkpt>
      <trkpt lat="47.47517" lon="6.77177">
        <ele>310</ele>
        <time>2016-01-31T10:48:07.000Z</time>
      </trkpt>
      <trkpt lat="47.47516" lon="6.7717">
        <ele>310</ele>
        <time>2016-01-31T10:48:08.000Z</time>
      </trkpt>
      <trkpt lat="47.47517" lon="6.77162">
        <ele>309</ele>
        <time>2016-01-31T10:48:09.000Z</time>
      </trkpt>
      <trkpt lat="47.47518" lon="6.77155">
        <ele>310</ele>
        <time>2016-01-31T10:48:10.000Z</time>
      </trkpt>
      <trkpt lat="47.4752" lon="6.77148">
        <ele>310</ele>
        <time>2016-01-31T10:48:11.000Z</time>
      </trkpt>
      <trkpt lat="47.47521" lon="6.77141">
        <ele>310</ele>
        <time>2016-01-31T10:48:12.000Z</time>
      </trkpt>
      <trkpt lat="47.47525" lon="6.77135">
        <ele>310</ele>
        <time>2016-01-31T10:48:13.000Z</time>
      </trkpt>
      <trkpt lat="47.4753" lon="6.77137">
        <ele>310</ele>
        <time>2016-01-31T10:48:14.000Z</time>
      </trkpt>
      <trkpt lat="47.47535" lon="6.77135">
        <ele>310</ele>
        <time>2016-01-31T10:48:15.000Z</time>
      </trkpt>
      <trkpt lat="47.47539" lon="6.77137">
        <ele>310</ele>
        <time>2016-01-31T10:48:16.000Z</time>
      </trkpt>
      <trkpt lat="47.47543" lon="6.7714">
        <ele>310</ele>
        <time>2016-01-31T10:48:17.000Z</time>
      </trkpt>
      <trkpt lat="47.47547" lon="6.77144">
        <ele>310</ele>
        <time>2016-01-31T10:48:18.000Z</time>
      </trkpt>
      <trkpt lat="47.47552" lon="6.77148">
        <ele>310</ele>
        <time>2016-01-31T10:48:19.000Z</time>
      </trkpt>
      <trkpt lat="47.47556" lon="6.77151">
        <ele>310</ele>
        <time>2016-01-31T10:48:20.000Z</time>
      </trkpt>
      <trkpt lat="47.47561" lon="6.77155">
        <ele>310</ele>
        <time>2016-01-31T10:48:21.000Z</time>
      </trkpt>
      <trkpt lat="47.47565" lon="6.77159">
        <ele>310</ele>
        <time>2016-01-31T10:48:22.000Z</time>
      </trkpt>
      <trkpt lat="47.4757" lon="6.77162">
        <ele>309</ele>
        <time>2016-01-31T10:48:23.000Z</time>
      </trkpt>
      <trkpt lat="47.47574" lon="6.77166">
        <ele>309</ele>
        <time>2016-01-31T10:48:24.000Z</time>
      </trkpt>
      <trkpt lat="47.47579" lon="6.7717">
        <ele>309</ele>
        <time>2016-01-31T10:48:25.000Z</time>
      </trkpt>
      <trkpt lat="47.47583" lon="6.77173">
        <ele>309</ele>
        <time>2016-01-31T10:48:26.000Z</time>
      </trkpt>
      <trkpt lat="47.47587" lon="6.77177">
        <ele>309</ele>
        <time>2016-01-31T10:48:27.000Z</time>
      </trkpt>
      <trkpt lat="47.47591" lon="6.7718">
        <ele>310</ele>
        <time>2016-01-31T10:48:28.000Z</time>
      </trkpt>
      <trkpt lat="47.47596" lon="6.77183">
        <ele>310</ele>
        <time>2016-01-31T10:48:29.000Z</time>
      </trkpt>
      <trkpt lat="47.476" lon="6.77185">
        <ele>310</ele>
        <time>2016-01-31T10:48:30.000Z</time>
      </trkpt>
      <trkpt lat="47.47605" lon="6.77186">
        <ele>310</ele>
        <time>2016-01-31T10:48:31.000Z</time>
      </trkpt>
      <trkpt lat="47.4761" lon="6.77184">
        <ele>310</ele>
        <time>2016-01-31T10:48:32.000Z</time>
      </trkpt>
      <trkpt lat="47.47615" lon="6.77179">
        <ele>310</ele>
        <time>2016-01-31T10:48:33.000Z</time>
      </trkpt>
      <trkpt lat="47.47617" lon="6.77173">
        <ele>310</ele>
        <time>2016-01-31T10:48:34.000Z</time>
      </trkpt>
      <trkpt lat="47.47619" lon="6.77167">
        <ele>310</ele>
        <time>2016-01-31T10:48:35.000Z</time>
      </trkpt>
      <trkpt lat="47.47622" lon="6.77162">
        <ele>310</ele>
        <time>2016-01-31T10:48:36.000Z</time>
      </trkpt>
      <trkpt lat="47.47624" lon="6.77156">
        <ele>310</ele>
        <time>2016-01-31T10:48:37.000Z</time>
      </trkpt>
      <trkpt lat="47.47625" lon="6.77149">
        <ele>310</ele>
        <time>2016-01-31T10:48:38.000Z</time>
      </trkpt>
      <trkpt lat="47.47628" lon="6.77145">
        <ele>310</ele>
        <time>2016-01-31T10:48:39.000Z</time>
      </trkpt>
      <trkpt lat="47.4763" lon="6.77139">
        <ele>310</ele>
        <time>2016-01-31T10:48:40.000Z</time>
      </trkpt>
      <trkpt lat="47.47632" lon="6.77134">
        <ele>310</ele>
        <time>2016-01-31T10:48:41.000Z</time>
      </trkpt>
      <trkpt lat="47.47633" lon="6.7713">
        <ele>310</ele>
        <time>2016-01-31T10:48:42.000Z</time>
      </trkpt>
      <trkpt lat="47.47634" lon="6.77126">
        <ele>310</ele>
        <time>2016-01-31T10:48:43.000Z</time>
      </trkpt>
      <trkpt lat="47.47635" lon="6.77122">
        <ele>310</ele>
        <time>2016-01-31T10:48:44.000Z</time>
      </trkpt>
      <trkpt lat="47.47635" lon="6.77117">
        <ele>310</ele>
        <time>2016-01-31T10:48:45.000Z</time>
      </trkpt>
      <trkpt lat="47.47636" lon="6.77113">
        <ele>310</ele>
        <time>2016-01-31T10:48:46.000Z</time>
      </trkpt>
      <trkpt lat="47.47636" lon="6.77108">
        <ele>310</ele>
        <time>2016-01-31T10:48:47.000Z</time>
      </trkpt>
      <trkpt lat="47.47637" lon="6.77104">
        <ele>310</ele>
        <time>2016-01-31T10:48:48.000Z</time>
      </trkpt>
      <trkpt lat="47.47638" lon="6.77099">
        <ele>311</ele>
        <time>2016-01-31T10:48:49.000Z</time>
      </trkpt>
      <trkpt lat="47.47639" lon="6.77094">
        <ele>311</ele>
        <time>2016-01-31T10:48:50.000Z</time>
      </trkpt>
      <trkpt lat="47.4764" lon="6.7709">
        <ele>311</ele>
        <time>2016-01-31T10:48:51.000Z</time>
      </trkpt>
      <trkpt lat="47.4764" lon="6.77086">
        <ele>311</ele>
        <time>2016-01-31T10:48:52.000Z</time>
      </trkpt>
      <trkpt lat="47.47641" lon="6.77081">
        <ele>311</ele>
        <time>2016-01-31T10:48:53.000Z</time>
      </trkpt>
      <trkpt lat="47.47641" lon="6.77077">
        <ele>311</ele>
        <time>2016-01-31T10:48:54.000Z</time>
      </trkpt>
      <trkpt lat="47.47642" lon="6.77072">
        <ele>311</ele>
        <time>2016-01-31T10:48:55.000Z</time>
      </trkpt>
      <trkpt lat="47.47642" lon="6.77067">
        <ele>311</ele>
        <time>2016-01-31T10:48:56.000Z</time>
      </trkpt>
      <trkpt lat="47.47643" lon="6.77061">
        <ele>311</ele>
        <time>2016-01-31T10:48:57.000Z</time>
      </trkpt>
      <trkpt lat="47.47644" lon="6.77055">
        <ele>311</ele>
        <time>2016-01-31T10:48:58.000Z</time>
      </trkpt>
      <trkpt lat="47.47645" lon="6.77049">
        <ele>311</ele>
        <time>2016-01-31T10:48:59.000Z</time>
      </trkpt>
      <trkpt lat="47.47646" lon="6.77043">
        <ele>311</ele>
        <time>2016-01-31T10:49:00.000Z</time>
      </trkpt>
      <trkpt lat="47.47647" lon="6.77033">
        <ele>311</ele>
        <time>2016-01-31T10:49:01.000Z</time>
      </trkpt>
      <trkpt lat="47.47648" lon="6.77024">
        <ele>311</ele>
        <time>2016-01-31T10:49:02.000Z</time>
      </trkpt>
      <trkpt lat="47.47649" lon="6.77016">
        <ele>311</ele>
        <time>2016-01-31T10:49:02.999Z</time>
      </trkpt>
      <trkpt lat="47.47651" lon="6.77006">
        <ele>311</ele>
        <time>2016-01-31T10:49:04.000Z</time>
      </trkpt>
      <trkpt lat="47.47654" lon="6.76997">
        <ele>311</ele>
        <time>2016-01-31T10:49:05.000Z</time>
      </trkpt>
      <trkpt lat="47.47658" lon="6.76987">
        <ele>311</ele>
        <time>2016-01-31T10:49:06.000Z</time>
      </trkpt>
      <trkpt lat="47.47661" lon="6.76978">
        <ele>311</ele>
        <time>2016-01-31T10:49:07.000Z</time>
      </trkpt>
      <trkpt lat="47.47664" lon="6.76969">
        <ele>311</ele>
        <time>2016-01-31T10:49:08.000Z</time>
      </trkpt>
      <trkpt lat="47.47667" lon="6.76961">
        <ele>311</ele>
        <time>2016-01-31T10:49:09.000Z</time>
      </trkpt>
      <trkpt lat="47.47671" lon="6.7695">
        <ele>311</ele>
        <time>2016-01-31T10:49:10.000Z</time>
      </trkpt>
      <trkpt lat="47.47674" lon="6.76941">
        <ele>311</ele>
        <time>2016-01-31T10:49:11.000Z</time>
      </trkpt>
      <trkpt lat="47.47678" lon="6.76931">
        <ele>311</ele>
        <time>2016-01-31T10:49:12.000Z</time>
      </trkpt>
      <trkpt lat="47.47681" lon="6.76922">
        <ele>311</ele>
        <time>2016-01-31T10:49:13.000Z</time>
      </trkpt>
      <trkpt lat="47.47684" lon="6.76914">
        <ele>311</ele>
        <time>2016-01-31T10:49:14.000Z</time>
      </trkpt>
      <trkpt lat="47.47687" lon="6.76906">
        <ele>311</ele>
        <time>2016-01-31T10:49:15.000Z</time>
      </trkpt>
      <trkpt lat="47.4769" lon="6.76898">
        <ele>311</ele>
        <time>2016-01-31T10:49:16.000Z</time>
      </trkpt>
      <trkpt lat="47.47692" lon="6.76892">
        <ele>311</ele>
        <time>2016-01-31T10:49:17.000Z</time>
      </trkpt>
      <trkpt lat="47.47694" lon="6.76884">
        <ele>311</ele>
        <time>2016-01-31T10:49:18.000Z</time>
      </trkpt>
      <trkpt lat="47.47697" lon="6.76876">
        <ele>311</ele>
        <time>2016-01-31T10:49:19.000Z</time>
      </trkpt>
      <trkpt lat="47.47699" lon="6.76869">
        <ele>311</ele>
        <time>2016-01-31T10:49:20.000Z</time>
      </trkpt>
      <trkpt lat="47.47701" lon="6.76862">
        <ele>311</ele>
        <time>2016-01-31T10:49:21.000Z</time>
      </trkpt>
      <trkpt lat="47.47703" lon="6.76854">
        <ele>311</ele>
        <time>2016-01-31T10:49:22.000Z</time>
      </trkpt>
      <trkpt lat="47.47705" lon="6.76848">
        <ele>311</ele>
        <time>2016-01-31T10:49:23.000Z</time>
      </trkpt>
      <trkpt lat="47.47707" lon="6.7684">
        <ele>311</ele>
        <time>2016-01-31T10:49:24.000Z</time>
      </trkpt>
      <trkpt lat="47.4771" lon="6.76832">
        <ele>311</ele>
        <time>2016-01-31T10:49:25.000Z</time>
      </trkpt>
      <trkpt lat="47.47713" lon="6.76825">
        <ele>311</ele>
        <time>2016-01-31T10:49:26.000Z</time>
      </trkpt>
      <trkpt lat="47.47716" lon="6.76817">
        <ele>311</ele>
        <time>2016-01-31T10:49:27.000Z</time>
      </trkpt>
      <trkpt lat="47.47721" lon="6.7681">
        <ele>311</ele>
        <time>2016-01-31T10:49:28.000Z</time>
      </trkpt>
      <trkpt lat="47.47725" lon="6.76804">
        <ele>311</ele>
        <time>2016-01-31T10:49:29.000Z</time>
      </trkpt>
      <trkpt lat="47.47729" lon="6.768">
        <ele>311</ele>
        <time>2016-01-31T10:49:30.000Z</time>
      </trkpt>
      <trkpt lat="47.47733" lon="6.76796">
        <ele>311</ele>
        <time>2016-01-31T10:49:31.000Z</time>
      </trkpt>
      <trkpt lat="47.47738" lon="6.76795">
        <ele>311</ele>
        <time>2016-01-31T10:49:32.000Z</time>
      </trkpt>
      <trkpt lat="47.47742" lon="6.76794">
        <ele>311</ele>
        <time>2016-01-31T10:49:33.000Z</time>
      </trkpt>
      <trkpt lat="47.47746" lon="6.76792">
        <ele>311</ele>
        <time>2016-01-31T10:49:34.000Z</time>
      </trkpt>
      <trkpt lat="47.47749" lon="6.76792">
        <ele>311</ele>
        <time>2016-01-31T10:49:35.000Z</time>
      </trkpt>
      <trkpt lat="47.47753" lon="6.76793">
        <ele>311</ele>
        <time>2016-01-31T10:49:36.000Z</time>
      </trkpt>
      <trkpt lat="47.47757" lon="6.76793">
        <ele>311</ele>
        <time>2016-01-31T10:49:37.000Z</time>
      </trkpt>
      <trkpt lat="47.47761" lon="6.76793">
        <ele>311</ele>
        <time>2016-01-31T10:49:38.000Z</time>
      </trkpt>
      <trkpt lat="47.47767" lon="6.76793">
        <ele>311</ele>
        <time>2016-01-31T10:49:39.000Z</time>
      </trkpt>
      <trkpt lat="47.47772" lon="6.76794">
        <ele>311</ele>
        <time>2016-01-31T10:49:40.000Z</time>
      </trkpt>
      <trkpt lat="47.47778" lon="6.76796">
        <ele>311</ele>
        <time>2016-01-31T10:49:41.000Z</time>
      </trkpt>
      <trkpt lat="47.47783" lon="6.76799">
        <ele>311</ele>
        <time>2016-01-31T10:49:42.000Z</time>
      </trkpt>
      <trkpt lat="47.47789" lon="6.76801">
        <ele>311</ele>
        <time>2016-01-31T10:49:43.000Z</time>
      </trkpt>
      <trkpt lat="47.47795" lon="6.76804">
        <ele>310</ele>
        <time>2016-01-31T10:49:44.000Z</time>
      </trkpt>
      <trkpt lat="47.47802" lon="6.76807">
        <ele>310</ele>
        <time>2016-01-31T10:49:45.000Z</time>
      </trkpt>
      <trkpt lat="47.47808" lon="6.76809">
        <ele>310</ele>
        <time>2016-01-31T10:49:46.000Z</time>
      </trkpt>
      <trkpt lat="47.47814" lon="6.7681">
        <ele>310</ele>
        <time>2016-01-31T10:49:47.000Z</time>
      </trkpt>
      <trkpt lat="47.47821" lon="6.76808">
        <ele>310</ele>
        <time>2016-01-31T10:49:48.000Z</time>
      </trkpt>
      <trkpt lat="47.47826" lon="6.76804">
        <ele>310</ele>
        <time>2016-01-31T10:49:49.000Z</time>
      </trkpt>
      <trkpt lat="47.47832" lon="6.76797">
        <ele>310</ele>
        <time>2016-01-31T10:49:50.000Z</time>
      </trkpt>
      <trkpt lat="47.47836" lon="6.7679">
        <ele>311</ele>
        <time>2016-01-31T10:49:51.000Z</time>
      </trkpt>
      <trkpt lat="47.4784" lon="6.76782">
        <ele>311</ele>
        <time>2016-01-31T10:49:52.000Z</time>
      </trkpt>
      <trkpt lat="47.47844" lon="6.76773">
        <ele>311</ele>
        <time>2016-01-31T10:49:53.000Z</time>
      </trkpt>
      <trkpt lat="47.47847" lon="6.76764">
        <ele>311</ele>
        <time>2016-01-31T10:49:54.000Z</time>
      </trkpt>
      <trkpt lat="47.47851" lon="6.76756">
        <ele>311</ele>
        <time>2016-01-31T10:49:55.000Z</time>
      </trkpt>
      <trkpt lat="47.47855" lon="6.76748">
        <ele>310</ele>
        <time>2016-01-31T10:49:56.000Z</time>
      </trkpt>
      <trkpt lat="47.47859" lon="6.7674">
        <ele>310</ele>
        <time>2016-01-31T10:49:57.000Z</time>
      </trkpt>
      <trkpt lat="47.47863" lon="6.76733">
        <ele>310</ele>
        <time>2016-01-31T10:49:58.000Z</time>
      </trkpt>
      <trkpt lat="47.47868" lon="6.76725">
        <ele>310</ele>
        <time>2016-01-31T10:49:59.000Z</time>
      </trkpt>
      <trkpt lat="47.47871" lon="6.76717">
        <ele>310</ele>
        <time>2016-01-31T10:50:00.000Z</time>
      </trkpt>
      <trkpt lat="47.47875" lon="6.7671">
        <ele>310</ele>
        <time>2016-01-31T10:50:01.000Z</time>
      </trkpt>
      <trkpt lat="47.47878" lon="6.76702">
        <ele>310</ele>
        <time>2016-01-31T10:50:02.000Z</time>
      </trkpt>
      <trkpt lat="47.47882" lon="6.76694">
        <ele>310</ele>
        <time>2016-01-31T10:50:03.000Z</time>
      </trkpt>
      <trkpt lat="47.47885" lon="6.76686">
        <ele>310</ele>
        <time>2016-01-31T10:50:04.000Z</time>
      </trkpt>
      <trkpt lat="47.47889" lon="6.76678">
        <ele>310</ele>
        <time>2016-01-31T10:50:05.000Z</time>
      </trkpt>
      <trkpt lat="47.47892" lon="6.7667">
        <ele>310</ele>
        <time>2016-01-31T10:50:06.000Z</time>
      </trkpt>
      <trkpt lat="47.47896" lon="6.76664">
        <ele>310</ele>
        <time>2016-01-31T10:50:07.000Z</time>
      </trkpt>
      <trkpt lat="47.479" lon="6.76658">
        <ele>310</ele>
        <time>2016-01-31T10:50:08.000Z</time>
      </trkpt>
      <trkpt lat="47.47905" lon="6.76652">
        <ele>310</ele>
        <time>2016-01-31T10:50:09.000Z</time>
      </trkpt>
      <trkpt lat="47.47909" lon="6.76647">
        <ele>310</ele>
        <time>2016-01-31T10:50:10.000Z</time>
      </trkpt>
      <trkpt lat="47.47914" lon="6.76642">
        <ele>310</ele>
        <time>2016-01-31T10:50:11.000Z</time>
      </trkpt>
      <trkpt lat="47.47919" lon="6.76639">
        <ele>311</ele>
        <time>2016-01-31T10:50:12.000Z</time>
      </trkpt>
      <trkpt lat="47.47923" lon="6.76636">
        <ele>311</ele>
        <time>2016-01-31T10:50:13.000Z</time>
      </trkpt>
      <trkpt lat="47.47927" lon="6.76633">
        <ele>311</ele>
        <time>2016-01-31T10:50:14.000Z</time>
      </trkpt>
      <trkpt lat="47.47932" lon="6.76631">
        <ele>311</ele>
        <time>2016-01-31T10:50:15.000Z</time>
      </trkpt>
      <trkpt lat="47.47936" lon="6.76628">
        <ele>311</ele>
        <time>2016-01-31T10:50:16.000Z</time>
      </trkpt>
      <trkpt lat="47.4794" lon="6.76626">
        <ele>311</ele>
        <time>2016-01-31T10:50:17.000Z</time>
      </trkpt>
      <trkpt lat="47.47943" lon="6.76624">
        <ele>311</ele>
        <time>2016-01-31T10:50:18.000Z</time>
      </trkpt>
      <trkpt lat="47.47947" lon="6.76621">
        <ele>311</ele>
        <time>2016-01-31T10:50:19.000Z</time>
      </trkpt>
      <trkpt lat="47.4795" lon="6.76618">
        <ele>311</ele>
        <time>2016-01-31T10:50:20.000Z</time>
      </trkpt>
      <trkpt lat="47.47954" lon="6.76616">
        <ele>311</ele>
        <time>2016-01-31T10:50:21.000Z</time>
      </trkpt>
      <trkpt lat="47.47958" lon="6.76613">
        <ele>311</ele>
        <time>2016-01-31T10:50:22.000Z</time>
      </trkpt>
      <trkpt lat="47.47962" lon="6.76611">
        <ele>311</ele>
        <time>2016-01-31T10:50:23.000Z</time>
      </trkpt>
      <trkpt lat="47.47966" lon="6.76609">
        <ele>311</ele>
        <time>2016-01-31T10:50:24.000Z</time>
      </trkpt>
      <trkpt lat="47.4797" lon="6.76606">
        <ele>311</ele>
        <time>2016-01-31T10:50:25.000Z</time>
      </trkpt>
      <trkpt lat="47.47973" lon="6.76604">
        <ele>311</ele>
        <time>2016-01-31T10:50:26.000Z</time>
      </trkpt>
      <trkpt lat="47.47977" lon="6.76602">
        <ele>311</ele>
        <time>2016-01-31T10:50:27.000Z</time>
      </trkpt>
      <trkpt lat="47.47981" lon="6.766">
        <ele>311</ele>
        <time>2016-01-31T10:50:28.000Z</time>
      </trkpt>
      <trkpt lat="47.47985" lon="6.76598">
        <ele>312</ele>
        <time>2016-01-31T10:50:29.000Z</time>
      </trkpt>
      <trkpt lat="47.47989" lon="6.76598">
        <ele>312</ele>
        <time>2016-01-31T10:50:30.000Z</time>
      </trkpt>
      <trkpt lat="47.47994" lon="6.76597">
        <ele>312</ele>
        <time>2016-01-31T10:50:31.000Z</time>
      </trkpt>
      <trkpt lat="47.47998" lon="6.76594">
        <ele>312</ele>
        <time>2016-01-31T10:50:32.000Z</time>
      </trkpt>
      <trkpt lat="47.48003" lon="6.76592">
        <ele>312</ele>
        <time>2016-01-31T10:50:33.000Z</time>
      </trkpt>
      <trkpt lat="47.48007" lon="6.76588">
        <ele>312</ele>
        <time>2016-01-31T10:50:34.000Z</time>
      </trkpt>
      <trkpt lat="47.48012" lon="6.76586">
        <ele>312</ele>
        <time>2016-01-31T10:50:35.000Z</time>
      </trkpt>
      <trkpt lat="47.48016" lon="6.76582">
        <ele>312</ele>
        <time>2016-01-31T10:50:36.000Z</time>
      </trkpt>
      <trkpt lat="47.4802" lon="6.76578">
        <ele>312</ele>
        <time>2016-01-31T10:50:37.000Z</time>
      </trkpt>
      <trkpt lat="47.48025" lon="6.76575">
        <ele>312</ele>
        <time>2016-01-31T10:50:38.000Z</time>
      </trkpt>
      <trkpt lat="47.48029" lon="6.7657">
        <ele>312</ele>
        <time>2016-01-31T10:50:39.000Z</time>
      </trkpt>
      <trkpt lat="47.48034" lon="6.76566">
        <ele>312</ele>
        <time>2016-01-31T10:50:40.000Z</time>
      </trkpt>
      <trkpt lat="47.48039" lon="6.76562">
        <ele>312</ele>
        <time>2016-01-31T10:50:41.000Z</time>
      </trkpt>
      <trkpt lat="47.48043" lon="6.76558">
        <ele>312</ele>
        <time>2016-01-31T10:50:42.000Z</time>
      </trkpt>
      <trkpt lat="47.48048" lon="6.76554">
        <ele>312</ele>
        <time>2016-01-31T10:50:43.000Z</time>
      </trkpt>
      <trkpt lat="47.48052" lon="6.7655">
        <ele>312</ele>
        <time>2016-01-31T10:50:44.000Z</time>
      </trkpt>
      <trkpt lat="47.48057" lon="6.76545">
        <ele>312</ele>
        <time>2016-01-31T10:50:45.000Z</time>
      </trkpt>
      <trkpt lat="47.48062" lon="6.76542">
        <ele>312</ele>
        <time>2016-01-31T10:50:46.000Z</time>
      </trkpt>
      <trkpt lat="47.48067" lon="6.76537">
        <ele>312</ele>
        <time>2016-01-31T10:50:47.000Z</time>
      </trkpt>
      <trkpt lat="47.48072" lon="6.76533">
        <ele>312</ele>
        <time>2016-01-31T10:50:48.000Z</time>
      </trkpt>
      <trkpt lat="47.48076" lon="6.76529">
        <ele>312</ele>
        <time>2016-01-31T10:50:49.000Z</time>
      </trkpt>
      <trkpt lat="47.48081" lon="6.76524">
        <ele>313</ele>
        <time>2016-01-31T10:50:50.000Z</time>
      </trkpt>
      <trkpt lat="47.48086" lon="6.76521">
        <ele>317</ele>
        <time>2016-01-31T10:50:51.000Z</time>
      </trkpt>
      <trkpt lat="47.4809" lon="6.76517">
        <ele>317</ele>
        <time>2016-01-31T10:50:52.000Z</time>
      </trkpt>
      <trkpt lat="47.48094" lon="6.76513">
        <ele>317</ele>
        <time>2016-01-31T10:50:53.000Z</time>
      </trkpt>
      <trkpt lat="47.48098" lon="6.76509">
        <ele>317</ele>
        <time>2016-01-31T10:50:54.000Z</time>
      </trkpt>
      <trkpt lat="47.48102" lon="6.76508">
        <ele>318</ele>
        <time>2016-01-31T10:50:55.000Z</time>
      </trkpt>
      <trkpt lat="47.48106" lon="6.76511">
        <ele>318</ele>
        <time>2016-01-31T10:50:56.000Z</time>
      </trkpt>
      <trkpt lat="47.48108" lon="6.76517">
        <ele>319</ele>
        <time>2016-01-31T10:50:57.000Z</time>
      </trkpt>
      <trkpt lat="47.48111" lon="6.76522">
        <ele>319</ele>
        <time>2016-01-31T10:50:58.000Z</time>
      </trkpt>
      <trkpt lat="47.48115" lon="6.76528">
        <ele>320</ele>
        <time>2016-01-31T10:50:59.000Z</time>
      </trkpt>
      <trkpt lat="47.48118" lon="6.76533">
        <ele>320</ele>
        <time>2016-01-31T10:51:00.000Z</time>
      </trkpt>
      <trkpt lat="47.48121" lon="6.76538">
        <ele>320</ele>
        <time>2016-01-31T10:51:01.000Z</time>
      </trkpt>
      <trkpt lat="47.4812" lon="6.76547">
        <ele>319</ele>
        <time>2016-01-31T10:51:02.000Z</time>
      </trkpt>
      <trkpt lat="47.48116" lon="6.76555">
        <ele>319</ele>
        <time>2016-01-31T10:51:03.000Z</time>
      </trkpt>
      <trkpt lat="47.48112" lon="6.76561">
        <ele>318</ele>
        <time>2016-01-31T10:51:04.000Z</time>
      </trkpt>
      <trkpt lat="47.48108" lon="6.76569">
        <ele>317</ele>
        <time>2016-01-31T10:51:05.000Z</time>
      </trkpt>
      <trkpt lat="47.48105" lon="6.76575">
        <ele>316</ele>
        <time>2016-01-31T10:51:06.000Z</time>
      </trkpt>
      <trkpt lat="47.48101" lon="6.76583">
        <ele>316</ele>
        <time>2016-01-31T10:51:07.000Z</time>
      </trkpt>
      <trkpt lat="47.48099" lon="6.76592">
        <ele>313</ele>
        <time>2016-01-31T10:51:08.000Z</time>
      </trkpt>
      <trkpt lat="47.48098" lon="6.766">
        <ele>313</ele>
        <time>2016-01-31T10:51:09.000Z</time>
      </trkpt>
      <trkpt lat="47.48097" lon="6.76609">
        <ele>313</ele>
        <time>2016-01-31T10:51:10.000Z</time>
      </trkpt>
      <trkpt lat="47.48099" lon="6.76619">
        <ele>313</ele>
        <time>2016-01-31T10:51:11.000Z</time>
      </trkpt>
      <trkpt lat="47.481" lon="6.76626">
        <ele>313</ele>
        <time>2016-01-31T10:51:12.000Z</time>
      </trkpt>
      <trkpt lat="47.48104" lon="6.76633">
        <ele>313</ele>
        <time>2016-01-31T10:51:13.000Z</time>
      </trkpt>
      <trkpt lat="47.48107" lon="6.76639">
        <ele>313</ele>
        <time>2016-01-31T10:51:14.000Z</time>
      </trkpt>
      <trkpt lat="47.4811" lon="6.76646">
        <ele>313</ele>
        <time>2016-01-31T10:51:15.000Z</time>
      </trkpt>
      <trkpt lat="47.48113" lon="6.76652">
        <ele>313</ele>
        <time>2016-01-31T10:51:16.000Z</time>
      </trkpt>
      <trkpt lat="47.48117" lon="6.76659">
        <ele>313</ele>
        <time>2016-01-31T10:51:17.000Z</time>
      </trkpt>
      <trkpt lat="47.4812" lon="6.76665">
        <ele>313</ele>
        <time>2016-01-31T10:51:18.000Z</time>
      </trkpt>
      <trkpt lat="47.48124" lon="6.76671">
        <ele>312</ele>
        <time>2016-01-31T10:51:19.000Z</time>
      </trkpt>
      <trkpt lat="47.48128" lon="6.76678">
        <ele>312</ele>
        <time>2016-01-31T10:51:20.000Z</time>
      </trkpt>
      <trkpt lat="47.48132" lon="6.76685">
        <ele>312</ele>
        <time>2016-01-31T10:51:21.000Z</time>
      </trkpt>
      <trkpt lat="47.48136" lon="6.76694">
        <ele>312</ele>
        <time>2016-01-31T10:51:22.000Z</time>
      </trkpt>
      <trkpt lat="47.4814" lon="6.76701">
        <ele>312</ele>
        <time>2016-01-31T10:51:23.000Z</time>
      </trkpt>
      <trkpt lat="47.48144" lon="6.76709">
        <ele>312</ele>
        <time>2016-01-31T10:51:24.000Z</time>
      </trkpt>
      <trkpt lat="47.48148" lon="6.76717">
        <ele>312</ele>
        <time>2016-01-31T10:51:25.000Z</time>
      </trkpt>
      <trkpt lat="47.48152" lon="6.76724">
        <ele>312</ele>
        <time>2016-01-31T10:51:26.000Z</time>
      </trkpt>
      <trkpt lat="47.48155" lon="6.76732">
        <ele>312</ele>
        <time>2016-01-31T10:51:27.000Z</time>
      </trkpt>
      <trkpt lat="47.48159" lon="6.76738">
        <ele>313</ele>
        <time>2016-01-31T10:51:28.000Z</time>
      </trkpt>
      <trkpt lat="47.48163" lon="6.76745">
        <ele>313</ele>
        <time>2016-01-31T10:51:29.000Z</time>
      </trkpt>
      <trkpt lat="47.48168" lon="6.76751">
        <ele>313</ele>
        <time>2016-01-31T10:51:30.000Z</time>
      </trkpt>
      <trkpt lat="47.48173" lon="6.76757">
        <ele>313</ele>
        <time>2016-01-31T10:51:31.000Z</time>
      </trkpt>
      <trkpt lat="47.48177" lon="6.76764">
        <ele>313</ele>
        <time>2016-01-31T10:51:32.000Z</time>
      </trkpt>
      <trkpt lat="47.48182" lon="6.76769">
        <ele>312</ele>
        <time>2016-01-31T10:51:33.000Z</time>
      </trkpt>
      <trkpt lat="47.48187" lon="6.76774">
        <ele>312</ele>
        <time>2016-01-31T10:51:34.000Z</time>
      </trkpt>
      <trkpt lat="47.48192" lon="6.76779">
        <ele>312</ele>
        <time>2016-01-31T10:51:35.000Z</time>
      </trkpt>
      <trkpt lat="47.48198" lon="6.76783">
        <ele>312</ele>
        <time>2016-01-31T10:51:36.000Z</time>
      </trkpt>
      <trkpt lat="47.48203" lon="6.76786">
        <ele>312</ele>
        <time>2016-01-31T10:51:37.000Z</time>
      </trkpt>
      <trkpt lat="47.48209" lon="6.76788">
        <ele>312</ele>
        <time>2016-01-31T10:51:38.000Z</time>
      </trkpt>
      <trkpt lat="47.48215" lon="6.76791">
        <ele>312</ele>
        <time>2016-01-31T10:51:39.000Z</time>
      </trkpt>
      <trkpt lat="47.4822" lon="6.76794">
        <ele>312</ele>
        <time>2016-01-31T10:51:40.000Z</time>
      </trkpt>
      <trkpt lat="47.48226" lon="6.76796">
        <ele>312</ele>
        <time>2016-01-31T10:51:41.000Z</time>
      </trkpt>
      <trkpt lat="47.48231" lon="6.76798">
        <ele>312</ele>
        <time>2016-01-31T10:51:42.000Z</time>
      </trkpt>
      <trkpt lat="47.48237" lon="6.76803">
        <ele>312</ele>
        <time>2016-01-31T10:51:43.000Z</time>
      </trkpt>
      <trkpt lat="47.48242" lon="6.76807">
        <ele>312</ele>
        <time>2016-01-31T10:51:44.000Z</time>
      </trkpt>
      <trkpt lat="47.48247" lon="6.76812">
        <ele>312</ele>
        <time>2016-01-31T10:51:45.000Z</time>
      </trkpt>
      <trkpt lat="47.48252" lon="6.76817">
        <ele>312</ele>
        <time>2016-01-31T10:51:46.000Z</time>
      </trkpt>
      <trkpt lat="47.48256" lon="6.76822">
        <ele>312</ele>
        <time>2016-01-31T10:51:47.000Z</time>
      </trkpt>
      <trkpt lat="47.4826" lon="6.76828">
        <ele>312</ele>
        <time>2016-01-31T10:51:48.000Z</time>
      </trkpt>
      <trkpt lat="47.48264" lon="6.76834">
        <ele>311</ele>
        <time>2016-01-31T10:51:49.000Z</time>
      </trkpt>
      <trkpt lat="47.48268" lon="6.76841">
        <ele>311</ele>
        <time>2016-01-31T10:51:50.000Z</time>
      </trkpt>
      <trkpt lat="47.48272" lon="6.76847">
        <ele>311</ele>
        <time>2016-01-31T10:51:51.000Z</time>
      </trkpt>
      <trkpt lat="47.48276" lon="6.76853">
        <ele>310</ele>
        <time>2016-01-31T10:51:52.000Z</time>
      </trkpt>
      <trkpt lat="47.4828" lon="6.76859">
        <ele>310</ele>
        <time>2016-01-31T10:51:53.000Z</time>
      </trkpt>
      <trkpt lat="47.48285" lon="6.76865">
        <ele>310</ele>
        <time>2016-01-31T10:51:54.000Z</time>
      </trkpt>
      <trkpt lat="47.4829" lon="6.7687">
        <ele>310</ele>
        <time>2016-01-31T10:51:55.000Z</time>
      </trkpt>
      <trkpt lat="47.48295" lon="6.76875">
        <ele>310</ele>
        <time>2016-01-31T10:51:56.000Z</time>
      </trkpt>
      <trkpt lat="47.483" lon="6.7688">
        <ele>310</ele>
        <time>2016-01-31T10:51:57.000Z</time>
      </trkpt>
      <trkpt lat="47.48305" lon="6.76884">
        <ele>310</ele>
        <time>2016-01-31T10:51:58.000Z</time>
      </trkpt>
      <trkpt lat="47.4831" lon="6.76888">
        <ele>310</ele>
        <time>2016-01-31T10:51:59.000Z</time>
      </trkpt>
      <trkpt lat="47.48316" lon="6.76893">
        <ele>310</ele>
        <time>2016-01-31T10:52:00.000Z</time>
      </trkpt>
      <trkpt lat="47.48321" lon="6.76897">
        <ele>310</ele>
        <time>2016-01-31T10:52:01.000Z</time>
      </trkpt>
      <trkpt lat="47.48326" lon="6.76901">
        <ele>310</ele>
        <time>2016-01-31T10:52:02.000Z</time>
      </trkpt>
      <trkpt lat="47.48331" lon="6.76905">
        <ele>309</ele>
        <time>2016-01-31T10:52:03.000Z</time>
      </trkpt>
      <trkpt lat="47.48336" lon="6.76909">
        <ele>310</ele>
        <time>2016-01-31T10:52:04.000Z</time>
      </trkpt>
      <trkpt lat="47.48341" lon="6.76914">
        <ele>310</ele>
        <time>2016-01-31T10:52:05.000Z</time>
      </trkpt>
      <trkpt lat="47.48347" lon="6.76917">
        <ele>310</ele>
        <time>2016-01-31T10:52:06.000Z</time>
      </trkpt>
      <trkpt lat="47.48353" lon="6.7692">
        <ele>311</ele>
        <time>2016-01-31T10:52:07.000Z</time>
      </trkpt>
      <trkpt lat="47.48358" lon="6.76923">
        <ele>311</ele>
        <time>2016-01-31T10:52:08.000Z</time>
      </trkpt>
      <trkpt lat="47.48363" lon="6.76926">
        <ele>311</ele>
        <time>2016-01-31T10:52:09.000Z</time>
      </trkpt>
      <trkpt lat="47.48369" lon="6.76929">
        <ele>312</ele>
        <time>2016-01-31T10:52:10.000Z</time>
      </trkpt>
      <trkpt lat="47.48375" lon="6.76932">
        <ele>312</ele>
        <time>2016-01-31T10:52:11.000Z</time>
      </trkpt>
      <trkpt lat="47.4838" lon="6.76935">
        <ele>312</ele>
        <time>2016-01-31T10:52:12.000Z</time>
      </trkpt>
      <trkpt lat="47.48386" lon="6.76939">
        <ele>312</ele>
        <time>2016-01-31T10:52:13.000Z</time>
      </trkpt>
      <trkpt lat="47.48391" lon="6.76942">
        <ele>312</ele>
        <time>2016-01-31T10:52:14.000Z</time>
      </trkpt>
      <trkpt lat="47.48397" lon="6.76945">
        <ele>312</ele>
        <time>2016-01-31T10:52:15.000Z</time>
      </trkpt>
      <trkpt lat="47.48402" lon="6.76948">
        <ele>312</ele>
        <time>2016-01-31T10:52:16.000Z</time>
      </trkpt>
      <trkpt lat="47.48408" lon="6.76952">
        <ele>312</ele>
        <time>2016-01-31T10:52:17.000Z</time>
      </trkpt>
      <trkpt lat="47.48413" lon="6.76956">
        <ele>312</ele>
        <time>2016-01-31T10:52:18.000Z</time>
      </trkpt>
      <trkpt lat="47.48419" lon="6.76959">
        <ele>314</ele>
        <time>2016-01-31T10:52:19.000Z</time>
      </trkpt>
      <trkpt lat="47.48425" lon="6.76961">
        <ele>314</ele>
        <time>2016-01-31T10:52:20.000Z</time>
      </trkpt>
      <trkpt lat="47.4843" lon="6.76964">
        <ele>314</ele>
        <time>2016-01-31T10:52:21.000Z</time>
      </trkpt>
      <trkpt lat="47.48435" lon="6.76967">
        <ele>314</ele>
        <time>2016-01-31T10:52:22.000Z</time>
      </trkpt>
      <trkpt lat="47.48441" lon="6.7697">
        <ele>315</ele>
        <time>2016-01-31T10:52:23.000Z</time>
      </trkpt>
      <trkpt lat="47.48446" lon="6.76973">
        <ele>315</ele>
        <time>2016-01-31T10:52:24.000Z</time>
      </trkpt>
      <trkpt lat="47.48452" lon="6.76976">
        <ele>315</ele>
        <time>2016-01-31T10:52:25.000Z</time>
      </trkpt>
      <trkpt lat="47.48457" lon="6.7698">
        <ele>315</ele>
        <time>2016-01-31T10:52:26.000Z</time>
      </trkpt>
      <trkpt lat="47.48462" lon="6.76985">
        <ele>315</ele>
        <time>2016-01-31T10:52:27.000Z</time>
      </trkpt>
      <trkpt lat="47.48467" lon="6.76988">
        <ele>315</ele>
        <time>2016-01-31T10:52:28.000Z</time>
      </trkpt>
      <trkpt lat="47.48473" lon="6.7699">
        <ele>315</ele>
        <time>2016-01-31T10:52:29.000Z</time>
      </trkpt>
      <trkpt lat="47.48478" lon="6.76993">
        <ele>315</ele>
        <time>2016-01-31T10:52:30.000Z</time>
      </trkpt>
      <trkpt lat="47.48483" lon="6.76996">
        <ele>315</ele>
        <time>2016-01-31T10:52:31.000Z</time>
      </trkpt>
      <trkpt lat="47.48488" lon="6.76999">
        <ele>316</ele>
        <time>2016-01-31T10:52:32.000Z</time>
      </trkpt>
      <trkpt lat="47.48493" lon="6.77001">
        <ele>315</ele>
        <time>2016-01-31T10:52:33.000Z</time>
      </trkpt>
      <trkpt lat="47.48498" lon="6.77004">
        <ele>316</ele>
        <time>2016-01-31T10:52:34.000Z</time>
      </trkpt>
      <trkpt lat="47.48503" lon="6.77008">
        <ele>315</ele>
        <time>2016-01-31T10:52:35.000Z</time>
      </trkpt>
      <trkpt lat="47.48508" lon="6.77012">
        <ele>315</ele>
        <time>2016-01-31T10:52:36.000Z</time>
      </trkpt>
      <trkpt lat="47.48513" lon="6.77016">
        <ele>315</ele>
        <time>2016-01-31T10:52:37.000Z</time>
      </trkpt>
      <trkpt lat="47.48518" lon="6.7702">
        <ele>315</ele>
        <time>2016-01-31T10:52:38.000Z</time>
      </trkpt>
      <trkpt lat="47.48523" lon="6.77024">
        <ele>314</ele>
        <time>2016-01-31T10:52:39.000Z</time>
      </trkpt>
      <trkpt lat="47.48528" lon="6.77028">
        <ele>314</ele>
        <time>2016-01-31T10:52:40.000Z</time>
      </trkpt>
      <trkpt lat="47.48534" lon="6.77033">
        <ele>314</ele>
        <time>2016-01-31T10:52:41.000Z</time>
      </trkpt>
      <trkpt lat="47.48539" lon="6.77036">
        <ele>314</ele>
        <time>2016-01-31T10:52:42.000Z</time>
      </trkpt>
      <trkpt lat="47.48545" lon="6.7704">
        <ele>314</ele>
        <time>2016-01-31T10:52:43.000Z</time>
      </trkpt>
      <trkpt lat="47.4855" lon="6.77044">
        <ele>314</ele>
        <time>2016-01-31T10:52:44.000Z</time>
      </trkpt>
      <trkpt lat="47.48555" lon="6.77045">
        <ele>314</ele>
        <time>2016-01-31T10:52:45.000Z</time>
      </trkpt>
      <trkpt lat="47.4856" lon="6.77046">
        <ele>314</ele>
        <time>2016-01-31T10:52:46.000Z</time>
      </trkpt>
      <trkpt lat="47.48564" lon="6.77047">
        <ele>314</ele>
        <time>2016-01-31T10:52:47.000Z</time>
      </trkpt>
      <trkpt lat="47.48569" lon="6.7705">
        <ele>314</ele>
        <time>2016-01-31T10:52:48.000Z</time>
      </trkpt>
      <trkpt lat="47.48573" lon="6.77052">
        <ele>314</ele>
        <time>2016-01-31T10:52:49.000Z</time>
      </trkpt>
      <trkpt lat="47.48577" lon="6.77054">
        <ele>314</ele>
        <time>2016-01-31T10:52:50.000Z</time>
      </trkpt>
      <trkpt lat="47.48581" lon="6.77056">
        <ele>314</ele>
        <time>2016-01-31T10:52:51.000Z</time>
      </trkpt>
      <trkpt lat="47.48585" lon="6.7706">
        <ele>313</ele>
        <time>2016-01-31T10:52:52.000Z</time>
      </trkpt>
      <trkpt lat="47.4859" lon="6.77062">
        <ele>313</ele>
        <time>2016-01-31T10:52:53.000Z</time>
      </trkpt>
      <trkpt lat="47.48594" lon="6.77064">
        <ele>313</ele>
        <time>2016-01-31T10:52:54.000Z</time>
      </trkpt>
      <trkpt lat="47.48599" lon="6.77067">
        <ele>313</ele>
        <time>2016-01-31T10:52:55.000Z</time>
      </trkpt>
      <trkpt lat="47.48604" lon="6.77071">
        <ele>313</ele>
        <time>2016-01-31T10:52:56.000Z</time>
      </trkpt>
      <trkpt lat="47.48608" lon="6.77075">
        <ele>313</ele>
        <time>2016-01-31T10:52:57.000Z</time>
      </trkpt>
      <trkpt lat="47.48612" lon="6.77078">
        <ele>313</ele>
        <time>2016-01-31T10:52:58.000Z</time>
      </trkpt>
      <trkpt lat="47.48617" lon="6.7708">
        <ele>313</ele>
        <time>2016-01-31T10:52:59.000Z</time>
      </trkpt>
      <trkpt lat="47.48621" lon="6.77083">
        <ele>313</ele>
        <time>2016-01-31T10:53:00.000Z</time>
      </trkpt>
      <trkpt lat="47.48626" lon="6.77085">
        <ele>312</ele>
        <time>2016-01-31T10:53:01.000Z</time>
      </trkpt>
      <trkpt lat="47.4863" lon="6.77089">
        <ele>312</ele>
        <time>2016-01-31T10:53:02.000Z</time>
      </trkpt>
      <trkpt lat="47.48634" lon="6.77094">
        <ele>312</ele>
        <time>2016-01-31T10:53:03.000Z</time>
      </trkpt>
      <trkpt lat="47.48639" lon="6.77099">
        <ele>312</ele>
        <time>2016-01-31T10:53:04.000Z</time>
      </trkpt>
      <trkpt lat="47.48645" lon="6.77104">
        <ele>312</ele>
        <time>2016-01-31T10:53:05.000Z</time>
      </trkpt>
      <trkpt lat="47.48649" lon="6.7711">
        <ele>312</ele>
        <time>2016-01-31T10:53:06.000Z</time>
      </trkpt>
      <trkpt lat="47.48654" lon="6.77115">
        <ele>312</ele>
        <time>2016-01-31T10:53:07.000Z</time>
      </trkpt>
      <trkpt lat="47.48659" lon="6.77121">
        <ele>312</ele>
        <time>2016-01-31T10:53:08.000Z</time>
      </trkpt>
      <trkpt lat="47.48665" lon="6.77126">
        <ele>312</ele>
        <time>2016-01-31T10:53:09.000Z</time>
      </trkpt>
      <trkpt lat="47.4867" lon="6.77132">
        <ele>312</ele>
        <time>2016-01-31T10:53:10.000Z</time>
      </trkpt>
      <trkpt lat="47.48674" lon="6.77137">
        <ele>311</ele>
        <time>2016-01-31T10:53:11.000Z</time>
      </trkpt>
      <trkpt lat="47.48679" lon="6.77142">
        <ele>311</ele>
        <time>2016-01-31T10:53:12.000Z</time>
      </trkpt>
      <trkpt lat="47.48684" lon="6.77147">
        <ele>311</ele>
        <time>2016-01-31T10:53:13.000Z</time>
      </trkpt>
      <trkpt lat="47.48689" lon="6.77152">
        <ele>311</ele>
        <time>2016-01-31T10:53:14.000Z</time>
      </trkpt>
      <trkpt lat="47.48694" lon="6.77157">
        <ele>311</ele>
        <time>2016-01-31T10:53:15.000Z</time>
      </trkpt>
      <trkpt lat="47.48699" lon="6.77162">
        <ele>311</ele>
        <time>2016-01-31T10:53:16.000Z</time>
      </trkpt>
      <trkpt lat="47.48704" lon="6.77166">
        <ele>311</ele>
        <time>2016-01-31T10:53:17.000Z</time>
      </trkpt>
      <trkpt lat="47.48709" lon="6.7717">
        <ele>311</ele>
        <time>2016-01-31T10:53:18.000Z</time>
      </trkpt>
      <trkpt lat="47.48715" lon="6.77174">
        <ele>311</ele>
        <time>2016-01-31T10:53:19.000Z</time>
      </trkpt>
      <trkpt lat="47.4872" lon="6.77178">
        <ele>311</ele>
        <time>2016-01-31T10:53:20.000Z</time>
      </trkpt>
      <trkpt lat="47.48725" lon="6.77182">
        <ele>310</ele>
        <time>2016-01-31T10:53:21.000Z</time>
      </trkpt>
      <trkpt lat="47.4873" lon="6.77186">
        <ele>310</ele>
        <time>2016-01-31T10:53:22.000Z</time>
      </trkpt>
      <trkpt lat="47.48735" lon="6.7719">
        <ele>310</ele>
        <time>2016-01-31T10:53:23.000Z</time>
      </trkpt>
      <trkpt lat="47.48741" lon="6.77194">
        <ele>310</ele>
        <time>2016-01-31T10:53:24.000Z</time>
      </trkpt>
      <trkpt lat="47.48745" lon="6.77198">
        <ele>310</ele>
        <time>2016-01-31T10:53:25.000Z</time>
      </trkpt>
      <trkpt lat="47.48751" lon="6.77201">
        <ele>310</ele>
        <time>2016-01-31T10:53:26.000Z</time>
      </trkpt>
      <trkpt lat="47.48755" lon="6.77205">
        <ele>310</ele>
        <time>2016-01-31T10:53:27.000Z</time>
      </trkpt>
      <trkpt lat="47.4876" lon="6.7721">
        <ele>310</ele>
        <time>2016-01-31T10:53:28.000Z</time>
      </trkpt>
      <trkpt lat="47.48765" lon="6.77214">
        <ele>310</ele>
        <time>2016-01-31T10:53:29.000Z</time>
      </trkpt>
      <trkpt lat="47.48771" lon="6.77217">
        <ele>310</ele>
        <time>2016-01-31T10:53:30.000Z</time>
      </trkpt>
      <trkpt lat="47.48776" lon="6.77221">
        <ele>310</ele>
        <time>2016-01-31T10:53:31.000Z</time>
      </trkpt>
      <trkpt lat="47.48781" lon="6.77224">
        <ele>310</ele>
        <time>2016-01-31T10:53:32.000Z</time>
      </trkpt>
      <trkpt lat="47.48786" lon="6.77228">
        <ele>310</ele>
        <time>2016-01-31T10:53:33.000Z</time>
      </trkpt>
      <trkpt lat="47.4879" lon="6.77231">
        <ele>310</ele>
        <time>2016-01-31T10:53:34.000Z</time>
      </trkpt>
      <trkpt lat="47.48795" lon="6.77234">
        <ele>310</ele>
        <time>2016-01-31T10:53:35.000Z</time>
      </trkpt>
      <trkpt lat="47.488" lon="6.77238">
        <ele>310</ele>
        <time>2016-01-31T10:53:36.000Z</time>
      </trkpt>
      <trkpt lat="47.48805" lon="6.77242">
        <ele>311</ele>
        <time>2016-01-31T10:53:37.000Z</time>
      </trkpt>
      <trkpt lat="47.4881" lon="6.77246">
        <ele>311</ele>
        <time>2016-01-31T10:53:38.000Z</time>
      </trkpt>
      <trkpt lat="47.48815" lon="6.7725">
        <ele>311</ele>
        <time>2016-01-31T10:53:39.000Z</time>
      </trkpt>
      <trkpt lat="47.4882" lon="6.77254">
        <ele>310</ele>
        <time>2016-01-31T10:53:40.000Z</time>
      </trkpt>
      <trkpt lat="47.48825" lon="6.77257">
        <ele>310</ele>
        <time>2016-01-31T10:53:41.000Z</time>
      </trkpt>
      <trkpt lat="47.4883" lon="6.7726">
        <ele>310</ele>
        <time>2016-01-31T10:53:42.000Z</time>
      </trkpt>
      <trkpt lat="47.48835" lon="6.77264">
        <ele>311</ele>
        <time>2016-01-31T10:53:43.000Z</time>
      </trkpt>
      <trkpt lat="47.48839" lon="6.77267">
        <ele>310</ele>
        <time>2016-01-31T10:53:44.000Z</time>
      </trkpt>
      <trkpt lat="47.48844" lon="6.77271">
        <ele>310</ele>
        <time>2016-01-31T10:53:45.000Z</time>
      </trkpt>
      <trkpt lat="47.48849" lon="6.77274">
        <ele>310</ele>
        <time>2016-01-31T10:53:46.000Z</time>
      </trkpt>
      <trkpt lat="47.48855" lon="6.77277">
        <ele>310</ele>
        <time>2016-01-31T10:53:47.000Z</time>
      </trkpt>
      <trkpt lat="47.4886" lon="6.7728">
        <ele>310</ele>
        <time>2016-01-31T10:53:48.000Z</time>
      </trkpt>
      <trkpt lat="47.48865" lon="6.77283">
        <ele>310</ele>
        <time>2016-01-31T10:53:49.000Z</time>
      </trkpt>
      <trkpt lat="47.48871" lon="6.77285">
        <ele>310</ele>
        <time>2016-01-31T10:53:50.000Z</time>
      </trkpt>
      <trkpt lat="47.48877" lon="6.77286">
        <ele>310</ele>
        <time>2016-01-31T10:53:51.000Z</time>
      </trkpt>
      <trkpt lat="47.48882" lon="6.77288">
        <ele>310</ele>
        <time>2016-01-31T10:53:52.000Z</time>
      </trkpt>
      <trkpt lat="47.48888" lon="6.77289">
        <ele>310</ele>
        <time>2016-01-31T10:53:53.000Z</time>
      </trkpt>
      <trkpt lat="47.48893" lon="6.77291">
        <ele>310</ele>
        <time>2016-01-31T10:53:54.000Z</time>
      </trkpt>
      <trkpt lat="47.48899" lon="6.77292">
        <ele>310</ele>
        <time>2016-01-31T10:53:55.000Z</time>
      </trkpt>
      <trkpt lat="47.48904" lon="6.77295">
        <ele>310</ele>
        <time>2016-01-31T10:53:56.000Z</time>
      </trkpt>
      <trkpt lat="47.48909" lon="6.77297">
        <ele>310</ele>
        <time>2016-01-31T10:53:57.000Z</time>
      </trkpt>
      <trkpt lat="47.48913" lon="6.77299">
        <ele>310</ele>
        <time>2016-01-31T10:53:58.000Z</time>
      </trkpt>
      <trkpt lat="47.48918" lon="6.77301">
        <ele>311</ele>
        <time>2016-01-31T10:53:59.000Z</time>
      </trkpt>
      <trkpt lat="47.48922" lon="6.77302">
        <ele>311</ele>
        <time>2016-01-31T10:54:00.000Z</time>
      </trkpt>
      <trkpt lat="47.48926" lon="6.77305">
        <ele>311</ele>
        <time>2016-01-31T10:54:01.000Z</time>
      </trkpt>
      <trkpt lat="47.4893" lon="6.77306">
        <ele>311</ele>
        <time>2016-01-31T10:54:02.000Z</time>
      </trkpt>
      <trkpt lat="47.48934" lon="6.77308">
        <ele>311</ele>
        <time>2016-01-31T10:54:03.000Z</time>
      </trkpt>
      <trkpt lat="47.48938" lon="6.77309">
        <ele>311</ele>
        <time>2016-01-31T10:54:04.000Z</time>
      </trkpt>
      <trkpt lat="47.48941" lon="6.77309">
        <ele>311</ele>
        <time>2016-01-31T10:54:05.000Z</time>
      </trkpt>
      <trkpt lat="47.48945" lon="6.77311">
        <ele>311</ele>
        <time>2016-01-31T10:54:06.000Z</time>
      </trkpt>
      <trkpt lat="47.48949" lon="6.77313">
        <ele>311</ele>
        <time>2016-01-31T10:54:07.000Z</time>
      </trkpt>
      <trkpt lat="47.48953" lon="6.77314">
        <ele>311</ele>
        <time>2016-01-31T10:54:08.000Z</time>
      </trkpt>
      <trkpt lat="47.48957" lon="6.77314">
        <ele>311</ele>
        <time>2016-01-31T10:54:09.000Z</time>
      </trkpt>
      <trkpt lat="47.48962" lon="6.77314">
        <ele>311</ele>
        <time>2016-01-31T10:54:10.000Z</time>
      </trkpt>
      <trkpt lat="47.48967" lon="6.77316">
        <ele>311</ele>
        <time>2016-01-31T10:54:11.000Z</time>
      </trkpt>
      <trkpt lat="47.48971" lon="6.77316">
        <ele>311</ele>
        <time>2016-01-31T10:54:12.000Z</time>
      </trkpt>
      <trkpt lat="47.48975" lon="6.77316">
        <ele>311</ele>
        <time>2016-01-31T10:54:13.000Z</time>
      </trkpt>
      <trkpt lat="47.48979" lon="6.77316">
        <ele>311</ele>
        <time>2016-01-31T10:54:14.000Z</time>
      </trkpt>
      <trkpt lat="47.48983" lon="6.77317">
        <ele>311</ele>
        <time>2016-01-31T10:54:15.000Z</time>
      </trkpt>
      <trkpt lat="47.48987" lon="6.77317">
        <ele>311</ele>
        <time>2016-01-31T10:54:16.000Z</time>
      </trkpt>
      <trkpt lat="47.4899" lon="6.77317">
        <ele>311</ele>
        <time>2016-01-31T10:54:17.000Z</time>
      </trkpt>
      <trkpt lat="47.48994" lon="6.77317">
        <ele>311</ele>
        <time>2016-01-31T10:54:18.000Z</time>
      </trkpt>
      <trkpt lat="47.48997" lon="6.77317">
        <ele>311</ele>
        <time>2016-01-31T10:54:19.000Z</time>
      </trkpt>
      <trkpt lat="47.49001" lon="6.77317">
        <ele>311</ele>
        <time>2016-01-31T10:54:20.000Z</time>
      </trkpt>
      <trkpt lat="47.49005" lon="6.77318">
        <ele>311</ele>
        <time>2016-01-31T10:54:21.000Z</time>
      </trkpt>
      <trkpt lat="47.49008" lon="6.77317">
        <ele>311</ele>
        <time>2016-01-31T10:54:22.000Z</time>
      </trkpt>
      <trkpt lat="47.49013" lon="6.77318">
        <ele>311</ele>
        <time>2016-01-31T10:54:23.000Z</time>
      </trkpt>
      <trkpt lat="47.49018" lon="6.77317">
        <ele>311</ele>
        <time>2016-01-31T10:54:24.000Z</time>
      </trkpt>
      <trkpt lat="47.49022" lon="6.77318">
        <ele>311</ele>
        <time>2016-01-31T10:54:25.000Z</time>
      </trkpt>
      <trkpt lat="47.49027" lon="6.77319">
        <ele>311</ele>
        <time>2016-01-31T10:54:26.000Z</time>
      </trkpt>
      <trkpt lat="47.49031" lon="6.77319">
        <ele>311</ele>
        <time>2016-01-31T10:54:27.000Z</time>
      </trkpt>
      <trkpt lat="47.49036" lon="6.7732">
        <ele>311</ele>
        <time>2016-01-31T10:54:28.000Z</time>
      </trkpt>
      <trkpt lat="47.49041" lon="6.7732">
        <ele>311</ele>
        <time>2016-01-31T10:54:29.000Z</time>
      </trkpt>
      <trkpt lat="47.49045" lon="6.77321">
        <ele>311</ele>
        <time>2016-01-31T10:54:30.000Z</time>
      </trkpt>
      <trkpt lat="47.4905" lon="6.77321">
        <ele>311</ele>
        <time>2016-01-31T10:54:31.000Z</time>
      </trkpt>
      <trkpt lat="47.49056" lon="6.77322">
        <ele>311</ele>
        <time>2016-01-31T10:54:32.000Z</time>
      </trkpt>
      <trkpt lat="47.49061" lon="6.77322">
        <ele>311</ele>
        <time>2016-01-31T10:54:33.000Z</time>
      </trkpt>
      <trkpt lat="47.49066" lon="6.77323">
        <ele>311</ele>
        <time>2016-01-31T10:54:34.000Z</time>
      </trkpt>
      <trkpt lat="47.49071" lon="6.77323">
        <ele>311</ele>
        <time>2016-01-31T10:54:35.000Z</time>
      </trkpt>
      <trkpt lat="47.49077" lon="6.77323">
        <ele>311</ele>
        <time>2016-01-31T10:54:36.000Z</time>
      </trkpt>
      <trkpt lat="47.49082" lon="6.77323">
        <ele>311</ele>
        <time>2016-01-31T10:54:37.000Z</time>
      </trkpt>
      <trkpt lat="47.49087" lon="6.77324">
        <ele>311</ele>
        <time>2016-01-31T10:54:38.000Z</time>
      </trkpt>
      <trkpt lat="47.49092" lon="6.77324">
        <ele>311</ele>
        <time>2016-01-31T10:54:39.000Z</time>
      </trkpt>
      <trkpt lat="47.49097" lon="6.77325">
        <ele>311</ele>
        <time>2016-01-31T10:54:40.000Z</time>
      </trkpt>
      <trkpt lat="47.49102" lon="6.77325">
        <ele>311</ele>
        <time>2016-01-31T10:54:41.000Z</time>
      </trkpt>
      <trkpt lat="47.49107" lon="6.77325">
        <ele>311</ele>
        <time>2016-01-31T10:54:42.000Z</time>
      </trkpt>
      <trkpt lat="47.49112" lon="6.77326">
        <ele>311</ele>
        <time>2016-01-31T10:54:43.000Z</time>
      </trkpt>
      <trkpt lat="47.49116" lon="6.77326">
        <ele>311</ele>
        <time>2016-01-31T10:54:44.000Z</time>
      </trkpt>
      <trkpt lat="47.49121" lon="6.77326">
        <ele>311</ele>
        <time>2016-01-31T10:54:45.000Z</time>
      </trkpt>
      <trkpt lat="47.49125" lon="6.77326">
        <ele>311</ele>
        <time>2016-01-31T10:54:46.000Z</time>
      </trkpt>
      <trkpt lat="47.4913" lon="6.77326">
        <ele>311</ele>
        <time>2016-01-31T10:54:47.000Z</time>
      </trkpt>
      <trkpt lat="47.49135" lon="6.77326">
        <ele>311</ele>
        <time>2016-01-31T10:54:48.000Z</time>
      </trkpt>
      <trkpt lat="47.49139" lon="6.77328">
        <ele>311</ele>
        <time>2016-01-31T10:54:49.000Z</time>
      </trkpt>
      <trkpt lat="47.49143" lon="6.77328">
        <ele>311</ele>
        <time>2016-01-31T10:54:50.000Z</time>
      </trkpt>
      <trkpt lat="47.49148" lon="6.77328">
        <ele>311</ele>
        <time>2016-01-31T10:54:51.000Z</time>
      </trkpt>
      <trkpt lat="47.49151" lon="6.77329">
        <ele>311</ele>
        <time>2016-01-31T10:54:52.000Z</time>
      </trkpt>
      <trkpt lat="47.49155" lon="6.7733">
        <ele>310</ele>
        <time>2016-01-31T10:54:53.000Z</time>
      </trkpt>
      <trkpt lat="47.49159" lon="6.7733">
        <ele>310</ele>
        <time>2016-01-31T10:54:54.000Z</time>
      </trkpt>
      <trkpt lat="47.49163" lon="6.77331">
        <ele>310</ele>
        <time>2016-01-31T10:54:55.000Z</time>
      </trkpt>
      <trkpt lat="47.49167" lon="6.77331">
        <ele>310</ele>
        <time>2016-01-31T10:54:56.000Z</time>
      </trkpt>
      <trkpt lat="47.49171" lon="6.7733">
        <ele>310</ele>
        <time>2016-01-31T10:54:57.000Z</time>
      </trkpt>
      <trkpt lat="47.49176" lon="6.7733">
        <ele>310</ele>
        <time>2016-01-31T10:54:58.000Z</time>
      </trkpt>
      <trkpt lat="47.49181" lon="6.77329">
        <ele>310</ele>
        <time>2016-01-31T10:54:59.000Z</time>
      </trkpt>
      <trkpt lat="47.49185" lon="6.77329">
        <ele>310</ele>
        <time>2016-01-31T10:55:00.000Z</time>
      </trkpt>
      <trkpt lat="47.49189" lon="6.7733">
        <ele>310</ele>
        <time>2016-01-31T10:55:01.000Z</time>
      </trkpt>
      <trkpt lat="47.49192" lon="6.7733">
        <ele>310</ele>
        <time>2016-01-31T10:55:02.000Z</time>
      </trkpt>
      <trkpt lat="47.49196" lon="6.77329">
        <ele>310</ele>
        <time>2016-01-31T10:55:03.000Z</time>
      </trkpt>
      <trkpt lat="47.49199" lon="6.7733">
        <ele>310</ele>
        <time>2016-01-31T10:55:04.000Z</time>
      </trkpt>
      <trkpt lat="47.49203" lon="6.7733">
        <ele>310</ele>
        <time>2016-01-31T10:55:05.000Z</time>
      </trkpt>
      <trkpt lat="47.49208" lon="6.77332">
        <ele>310</ele>
        <time>2016-01-31T10:55:06.000Z</time>
      </trkpt>
      <trkpt lat="47.49212" lon="6.77332">
        <ele>310</ele>
        <time>2016-01-31T10:55:07.000Z</time>
      </trkpt>
      <trkpt lat="47.49218" lon="6.77333">
        <ele>310</ele>
        <time>2016-01-31T10:55:08.000Z</time>
      </trkpt>
      <trkpt lat="47.49223" lon="6.77333">
        <ele>310</ele>
        <time>2016-01-31T10:55:09.000Z</time>
      </trkpt>
      <trkpt lat="47.49228" lon="6.77333">
        <ele>310</ele>
        <time>2016-01-31T10:55:10.000Z</time>
      </trkpt>
      <trkpt lat="47.49233" lon="6.77334">
        <ele>310</ele>
        <time>2016-01-31T10:55:11.000Z</time>
      </trkpt>
      <trkpt lat="47.49237" lon="6.77334">
        <ele>310</ele>
        <time>2016-01-31T10:55:12.000Z</time>
      </trkpt>
      <trkpt lat="47.49242" lon="6.77333">
        <ele>310</ele>
        <time>2016-01-31T10:55:13.000Z</time>
      </trkpt>
      <trkpt lat="47.49247" lon="6.77331">
        <ele>310</ele>
        <time>2016-01-31T10:55:14.000Z</time>
      </trkpt>
      <trkpt lat="47.49252" lon="6.77328">
        <ele>310</ele>
        <time>2016-01-31T10:55:15.000Z</time>
      </trkpt>
      <trkpt lat="47.49256" lon="6.77325">
        <ele>310</ele>
        <time>2016-01-31T10:55:16.000Z</time>
      </trkpt>
      <trkpt lat="47.49262" lon="6.77324">
        <ele>310</ele>
        <time>2016-01-31T10:55:17.000Z</time>
      </trkpt>
      <trkpt lat="47.49267" lon="6.77322">
        <ele>310</ele>
        <time>2016-01-31T10:55:18.000Z</time>
      </trkpt>
      <trkpt lat="47.49273" lon="6.77321">
        <ele>310</ele>
        <time>2016-01-31T10:55:19.000Z</time>
      </trkpt>
      <trkpt lat="47.49279" lon="6.7732">
        <ele>310</ele>
        <time>2016-01-31T10:55:20.000Z</time>
      </trkpt>
      <trkpt lat="47.49286" lon="6.7732">
        <ele>311</ele>
        <time>2016-01-31T10:55:21.000Z</time>
      </trkpt>
      <trkpt lat="47.49292" lon="6.77322">
        <ele>311</ele>
        <time>2016-01-31T10:55:22.000Z</time>
      </trkpt>
      <trkpt lat="47.49299" lon="6.77323">
        <ele>311</ele>
        <time>2016-01-31T10:55:23.000Z</time>
      </trkpt>
      <trkpt lat="47.49305" lon="6.77324">
        <ele>310</ele>
        <time>2016-01-31T10:55:24.000Z</time>
      </trkpt>
      <trkpt lat="47.4931" lon="6.77324">
        <ele>310</ele>
        <time>2016-01-31T10:55:25.000Z</time>
      </trkpt>
      <trkpt lat="47.49316" lon="6.77325">
        <ele>310</ele>
        <time>2016-01-31T10:55:26.000Z</time>
      </trkpt>
      <trkpt lat="47.4932" lon="6.77326">
        <ele>310</ele>
        <time>2016-01-31T10:55:27.000Z</time>
      </trkpt>
      <trkpt lat="47.49324" lon="6.77329">
        <ele>310</ele>
        <time>2016-01-31T10:55:28.000Z</time>
      </trkpt>
      <trkpt lat="47.49328" lon="6.77331">
        <ele>310</ele>
        <time>2016-01-31T10:55:29.000Z</time>
      </trkpt>
      <trkpt lat="47.49332" lon="6.77335">
        <ele>310</ele>
        <time>2016-01-31T10:55:30.000Z</time>
      </trkpt>
      <trkpt lat="47.49335" lon="6.77337">
        <ele>310</ele>
        <time>2016-01-31T10:55:31.000Z</time>
      </trkpt>
      <trkpt lat="47.4934" lon="6.77339">
        <ele>310</ele>
        <time>2016-01-31T10:55:32.000Z</time>
      </trkpt>
      <trkpt lat="47.49344" lon="6.7734">
        <ele>310</ele>
        <time>2016-01-31T10:55:33.000Z</time>
      </trkpt>
      <trkpt lat="47.49349" lon="6.7734">
        <ele>310</ele>
        <time>2016-01-31T10:55:34.000Z</time>
      </trkpt>
      <trkpt lat="47.49353" lon="6.77341">
        <ele>310</ele>
        <time>2016-01-31T10:55:35.000Z</time>
      </trkpt>
      <trkpt lat="47.49358" lon="6.77341">
        <ele>310</ele>
        <time>2016-01-31T10:55:36.000Z</time>
      </trkpt>
      <trkpt lat="47.49363" lon="6.77342">
        <ele>310</ele>
        <time>2016-01-31T10:55:37.000Z</time>
      </trkpt>
      <trkpt lat="47.49368" lon="6.77342">
        <ele>310</ele>
        <time>2016-01-31T10:55:38.000Z</time>
      </trkpt>
      <trkpt lat="47.49373" lon="6.77343">
        <ele>310</ele>
        <time>2016-01-31T10:55:39.000Z</time>
      </trkpt>
      <trkpt lat="47.49378" lon="6.77343">
        <ele>310</ele>
        <time>2016-01-31T10:55:40.000Z</time>
      </trkpt>
      <trkpt lat="47.49383" lon="6.77344">
        <ele>310</ele>
        <time>2016-01-31T10:55:41.000Z</time>
      </trkpt>
      <trkpt lat="47.49387" lon="6.77344">
        <ele>310</ele>
        <time>2016-01-31T10:55:42.000Z</time>
      </trkpt>
      <trkpt lat="47.49393" lon="6.77344">
        <ele>310</ele>
        <time>2016-01-31T10:55:43.000Z</time>
      </trkpt>
      <trkpt lat="47.49398" lon="6.77344">
        <ele>310</ele>
        <time>2016-01-31T10:55:44.000Z</time>
      </trkpt>
      <trkpt lat="47.49403" lon="6.77344">
        <ele>311</ele>
        <time>2016-01-31T10:55:45.000Z</time>
      </trkpt>
      <trkpt lat="47.49408" lon="6.77345">
        <ele>311</ele>
        <time>2016-01-31T10:55:46.000Z</time>
      </trkpt>
      <trkpt lat="47.49413" lon="6.77344">
        <ele>311</ele>
        <time>2016-01-31T10:55:47.000Z</time>
      </trkpt>
      <trkpt lat="47.49418" lon="6.77345">
        <ele>311</ele>
        <time>2016-01-31T10:55:48.000Z</time>
      </trkpt>
      <trkpt lat="47.49424" lon="6.77346">
        <ele>311</ele>
        <time>2016-01-31T10:55:49.000Z</time>
      </trkpt>
      <trkpt lat="47.49429" lon="6.77346">
        <ele>311</ele>
        <time>2016-01-31T10:55:50.000Z</time>
      </trkpt>
      <trkpt lat="47.49434" lon="6.77346">
        <ele>311</ele>
        <time>2016-01-31T10:55:51.000Z</time>
      </trkpt>
      <trkpt lat="47.49439" lon="6.77347">
        <ele>311</ele>
        <time>2016-01-31T10:55:52.000Z</time>
      </trkpt>
      <trkpt lat="47.49444" lon="6.77347">
        <ele>311</ele>
        <time>2016-01-31T10:55:53.000Z</time>
      </trkpt>
      <trkpt lat="47.49449" lon="6.77349">
        <ele>311</ele>
        <time>2016-01-31T10:55:54.000Z</time>
      </trkpt>
      <trkpt lat="47.49455" lon="6.7735">
        <ele>311</ele>
        <time>2016-01-31T10:55:55.000Z</time>
      </trkpt>
      <trkpt lat="47.4946" lon="6.7735">
        <ele>311</ele>
        <time>2016-01-31T10:55:56.000Z</time>
      </trkpt>
      <trkpt lat="47.49464" lon="6.77351">
        <ele>311</ele>
        <time>2016-01-31T10:55:57.000Z</time>
      </trkpt>
      <trkpt lat="47.49469" lon="6.77351">
        <ele>311</ele>
        <time>2016-01-31T10:55:58.000Z</time>
      </trkpt>
      <trkpt lat="47.49474" lon="6.77353">
        <ele>311</ele>
        <time>2016-01-31T10:55:59.000Z</time>
      </trkpt>
      <trkpt lat="47.4948" lon="6.77353">
        <ele>311</ele>
        <time>2016-01-31T10:56:00.000Z</time>
      </trkpt>
      <trkpt lat="47.49485" lon="6.77353">
        <ele>312</ele>
        <time>2016-01-31T10:56:01.000Z</time>
      </trkpt>
      <trkpt lat="47.4949" lon="6.77354">
        <ele>312</ele>
        <time>2016-01-31T10:56:02.000Z</time>
      </trkpt>
      <trkpt lat="47.49495" lon="6.77353">
        <ele>312</ele>
        <time>2016-01-31T10:56:03.000Z</time>
      </trkpt>
      <trkpt lat="47.495" lon="6.77354">
        <ele>312</ele>
        <time>2016-01-31T10:56:04.000Z</time>
      </trkpt>
      <trkpt lat="47.49506" lon="6.77354">
        <ele>312</ele>
        <time>2016-01-31T10:56:05.000Z</time>
      </trkpt>
      <trkpt lat="47.49511" lon="6.77355">
        <ele>312</ele>
        <time>2016-01-31T10:56:06.000Z</time>
      </trkpt>
      <trkpt lat="47.49517" lon="6.77356">
        <ele>312</ele>
        <time>2016-01-31T10:56:07.000Z</time>
      </trkpt>
      <trkpt lat="47.49522" lon="6.77356">
        <ele>312</ele>
        <time>2016-01-31T10:56:08.000Z</time>
      </trkpt>
      <trkpt lat="47.49527" lon="6.77356">
        <ele>312</ele>
        <time>2016-01-31T10:56:09.000Z</time>
      </trkpt>
      <trkpt lat="47.49532" lon="6.77356">
        <ele>312</ele>
        <time>2016-01-31T10:56:10.000Z</time>
      </trkpt>
      <trkpt lat="47.49538" lon="6.77356">
        <ele>312</ele>
        <time>2016-01-31T10:56:11.000Z</time>
      </trkpt>
      <trkpt lat="47.49542" lon="6.77357">
        <ele>312</ele>
        <time>2016-01-31T10:56:12.000Z</time>
      </trkpt>
      <trkpt lat="47.49547" lon="6.77357">
        <ele>312</ele>
        <time>2016-01-31T10:56:13.000Z</time>
      </trkpt>
      <trkpt lat="47.49552" lon="6.77357">
        <ele>312</ele>
        <time>2016-01-31T10:56:14.000Z</time>
      </trkpt>
      <trkpt lat="47.49557" lon="6.77358">
        <ele>312</ele>
        <time>2016-01-31T10:56:15.000Z</time>
      </trkpt>
      <trkpt lat="47.49562" lon="6.77358">
        <ele>312</ele>
        <time>2016-01-31T10:56:16.000Z</time>
      </trkpt>
      <trkpt lat="47.49567" lon="6.77359">
        <ele>313</ele>
        <time>2016-01-31T10:56:17.000Z</time>
      </trkpt>
      <trkpt lat="47.49572" lon="6.7736">
        <ele>313</ele>
        <time>2016-01-31T10:56:18.000Z</time>
      </trkpt>
      <trkpt lat="47.49577" lon="6.7736">
        <ele>313</ele>
        <time>2016-01-31T10:56:19.000Z</time>
      </trkpt>
      <trkpt lat="47.49582" lon="6.7736">
        <ele>313</ele>
        <time>2016-01-31T10:56:20.000Z</time>
      </trkpt>
      <trkpt lat="47.49587" lon="6.7736">
        <ele>313</ele>
        <time>2016-01-31T10:56:21.000Z</time>
      </trkpt>
      <trkpt lat="47.49592" lon="6.7736">
        <ele>313</ele>
        <time>2016-01-31T10:56:22.000Z</time>
      </trkpt>
      <trkpt lat="47.49597" lon="6.77359">
        <ele>313</ele>
        <time>2016-01-31T10:56:23.000Z</time>
      </trkpt>
      <trkpt lat="47.49603" lon="6.77359">
        <ele>313</ele>
        <time>2016-01-31T10:56:24.000Z</time>
      </trkpt>
      <trkpt lat="47.49608" lon="6.77358">
        <ele>313</ele>
        <time>2016-01-31T10:56:25.000Z</time>
      </trkpt>
      <trkpt lat="47.49614" lon="6.77358">
        <ele>313</ele>
        <time>2016-01-31T10:56:26.000Z</time>
      </trkpt>
      <trkpt lat="47.49619" lon="6.77356">
        <ele>313</ele>
        <time>2016-01-31T10:56:27.000Z</time>
      </trkpt>
      <trkpt lat="47.49624" lon="6.77354">
        <ele>313</ele>
        <time>2016-01-31T10:56:28.000Z</time>
      </trkpt>
      <trkpt lat="47.49629" lon="6.77353">
        <ele>313</ele>
        <time>2016-01-31T10:56:29.000Z</time>
      </trkpt>
      <trkpt lat="47.49634" lon="6.77352">
        <ele>313</ele>
        <time>2016-01-31T10:56:30.000Z</time>
      </trkpt>
      <trkpt lat="47.49639" lon="6.77351">
        <ele>313</ele>
        <time>2016-01-31T10:56:31.000Z</time>
      </trkpt>
      <trkpt lat="47.49644" lon="6.7735">
        <ele>313</ele>
        <time>2016-01-31T10:56:32.000Z</time>
      </trkpt>
      <trkpt lat="47.49649" lon="6.77348">
        <ele>313</ele>
        <time>2016-01-31T10:56:33.000Z</time>
      </trkpt>
      <trkpt lat="47.49654" lon="6.77347">
        <ele>313</ele>
        <time>2016-01-31T10:56:34.000Z</time>
      </trkpt>
      <trkpt lat="47.49659" lon="6.77346">
        <ele>313</ele>
        <time>2016-01-31T10:56:35.000Z</time>
      </trkpt>
      <trkpt lat="47.49664" lon="6.77344">
        <ele>313</ele>
        <time>2016-01-31T10:56:36.000Z</time>
      </trkpt>
      <trkpt lat="47.49668" lon="6.77342">
        <ele>313</ele>
        <time>2016-01-31T10:56:37.000Z</time>
      </trkpt>
      <trkpt lat="47.49672" lon="6.77341">
        <ele>313</ele>
        <time>2016-01-31T10:56:38.000Z</time>
      </trkpt>
      <trkpt lat="47.49677" lon="6.7734">
        <ele>313</ele>
        <time>2016-01-31T10:56:39.000Z</time>
      </trkpt>
      <trkpt lat="47.49682" lon="6.77338">
        <ele>313</ele>
        <time>2016-01-31T10:56:40.000Z</time>
      </trkpt>
      <trkpt lat="47.49687" lon="6.77338">
        <ele>313</ele>
        <time>2016-01-31T10:56:41.000Z</time>
      </trkpt>
      <trkpt lat="47.49692" lon="6.77337">
        <ele>313</ele>
        <time>2016-01-31T10:56:42.000Z</time>
      </trkpt>
      <trkpt lat="47.49697" lon="6.77335">
        <ele>313</ele>
        <time>2016-01-31T10:56:43.000Z</time>
      </trkpt>
      <trkpt lat="47.49702" lon="6.77335">
        <ele>313</ele>
        <time>2016-01-31T10:56:44.000Z</time>
      </trkpt>
      <trkpt lat="47.49707" lon="6.77334">
        <ele>313</ele>
        <time>2016-01-31T10:56:45.000Z</time>
      </trkpt>
      <trkpt lat="47.49712" lon="6.77332">
        <ele>315</ele>
        <time>2016-01-31T10:56:46.000Z</time>
      </trkpt>
      <trkpt lat="47.49717" lon="6.77331">
        <ele>315</ele>
        <time>2016-01-31T10:56:47.000Z</time>
      </trkpt>
      <trkpt lat="47.49721" lon="6.7733">
        <ele>314</ele>
        <time>2016-01-31T10:56:48.000Z</time>
      </trkpt>
      <trkpt lat="47.49726" lon="6.77329">
        <ele>314</ele>
        <time>2016-01-31T10:56:49.000Z</time>
      </trkpt>
      <trkpt lat="47.49731" lon="6.77325">
        <ele>314</ele>
        <time>2016-01-31T10:56:50.000Z</time>
      </trkpt>
      <trkpt lat="47.49735" lon="6.77322">
        <ele>314</ele>
        <time>2016-01-31T10:56:51.000Z</time>
      </trkpt>
      <trkpt lat="47.4974" lon="6.77319">
        <ele>314</ele>
        <time>2016-01-31T10:56:52.000Z</time>
      </trkpt>
      <trkpt lat="47.49745" lon="6.77316">
        <ele>314</ele>
        <time>2016-01-31T10:56:53.000Z</time>
      </trkpt>
      <trkpt lat="47.49749" lon="6.77313">
        <ele>314</ele>
        <time>2016-01-31T10:56:54.000Z</time>
      </trkpt>
      <trkpt lat="47.49754" lon="6.77311">
        <ele>316</ele>
        <time>2016-01-31T10:56:55.000Z</time>
      </trkpt>
      <trkpt lat="47.49759" lon="6.77309">
        <ele>316</ele>
        <time>2016-01-31T10:56:56.000Z</time>
      </trkpt>
      <trkpt lat="47.49764" lon="6.77307">
        <ele>316</ele>
        <time>2016-01-31T10:56:57.000Z</time>
      </trkpt>
      <trkpt lat="47.49769" lon="6.77307">
        <ele>316</ele>
        <time>2016-01-31T10:56:58.000Z</time>
      </trkpt>
      <trkpt lat="47.49773" lon="6.77307">
        <ele>316</ele>
        <time>2016-01-31T10:56:59.000Z</time>
      </trkpt>
      <trkpt lat="47.49778" lon="6.77307">
        <ele>317</ele>
        <time>2016-01-31T10:57:00.000Z</time>
      </trkpt>
      <trkpt lat="47.49783" lon="6.77306">
        <ele>317</ele>
        <time>2016-01-31T10:57:01.000Z</time>
      </trkpt>
      <trkpt lat="47.49787" lon="6.77305">
        <ele>317</ele>
        <time>2016-01-31T10:57:02.000Z</time>
      </trkpt>
      <trkpt lat="47.49792" lon="6.77304">
        <ele>317</ele>
        <time>2016-01-31T10:57:03.000Z</time>
      </trkpt>
      <trkpt lat="47.49798" lon="6.77303">
        <ele>317</ele>
        <time>2016-01-31T10:57:04.000Z</time>
      </trkpt>
      <trkpt lat="47.49803" lon="6.77302">
        <ele>317</ele>
        <time>2016-01-31T10:57:05.000Z</time>
      </trkpt>
      <trkpt lat="47.49809" lon="6.77302">
        <ele>317</ele>
        <time>2016-01-31T10:57:06.000Z</time>
      </trkpt>
      <trkpt lat="47.49813" lon="6.77302">
        <ele>317</ele>
        <time>2016-01-31T10:57:07.000Z</time>
      </trkpt>
      <trkpt lat="47.49818" lon="6.77302">
        <ele>317</ele>
        <time>2016-01-31T10:57:08.000Z</time>
      </trkpt>
      <trkpt lat="47.49823" lon="6.77301">
        <ele>317</ele>
        <time>2016-01-31T10:57:09.000Z</time>
      </trkpt>
      <trkpt lat="47.49828" lon="6.773">
        <ele>318</ele>
        <time>2016-01-31T10:57:10.000Z</time>
      </trkpt>
      <trkpt lat="47.49832" lon="6.77299">
        <ele>318</ele>
        <time>2016-01-31T10:57:11.000Z</time>
      </trkpt>
      <trkpt lat="47.49836" lon="6.77299">
        <ele>318</ele>
        <time>2016-01-31T10:57:12.000Z</time>
      </trkpt>
      <trkpt lat="47.49841" lon="6.77298">
        <ele>319</ele>
        <time>2016-01-31T10:57:13.000Z</time>
      </trkpt>
      <trkpt lat="47.49845" lon="6.77296">
        <ele>319</ele>
        <time>2016-01-31T10:57:14.000Z</time>
      </trkpt>
      <trkpt lat="47.49851" lon="6.77295">
        <ele>319</ele>
        <time>2016-01-31T10:57:15.000Z</time>
      </trkpt>
      <trkpt lat="47.49854" lon="6.77292">
        <ele>319</ele>
        <time>2016-01-31T10:57:16.000Z</time>
      </trkpt>
      <trkpt lat="47.49859" lon="6.77292">
        <ele>319</ele>
        <time>2016-01-31T10:57:17.000Z</time>
      </trkpt>
      <trkpt lat="47.49864" lon="6.77292">
        <ele>319</ele>
        <time>2016-01-31T10:57:18.000Z</time>
      </trkpt>
      <trkpt lat="47.49869" lon="6.77291">
        <ele>319</ele>
        <time>2016-01-31T10:57:19.000Z</time>
      </trkpt>
      <trkpt lat="47.49875" lon="6.77291">
        <ele>319</ele>
        <time>2016-01-31T10:57:20.000Z</time>
      </trkpt>
      <trkpt lat="47.4988" lon="6.7729">
        <ele>319</ele>
        <time>2016-01-31T10:57:21.000Z</time>
      </trkpt>
      <trkpt lat="47.49885" lon="6.77289">
        <ele>319</ele>
        <time>2016-01-31T10:57:22.000Z</time>
      </trkpt>
      <trkpt lat="47.49889" lon="6.77288">
        <ele>319</ele>
        <time>2016-01-31T10:57:23.000Z</time>
      </trkpt>
      <trkpt lat="47.49895" lon="6.77288">
        <ele>319</ele>
        <time>2016-01-31T10:57:24.000Z</time>
      </trkpt>
      <trkpt lat="47.49899" lon="6.77284">
        <ele>320</ele>
        <time>2016-01-31T10:57:25.000Z</time>
      </trkpt>
      <trkpt lat="47.49904" lon="6.77282">
        <ele>320</ele>
        <time>2016-01-31T10:57:26.000Z</time>
      </trkpt>
      <trkpt lat="47.49909" lon="6.77283">
        <ele>320</ele>
        <time>2016-01-31T10:57:27.000Z</time>
      </trkpt>
      <trkpt lat="47.49913" lon="6.77281">
        <ele>320</ele>
        <time>2016-01-31T10:57:28.000Z</time>
      </trkpt>
      <trkpt lat="47.49917" lon="6.77277">
        <ele>319</ele>
        <time>2016-01-31T10:57:29.000Z</time>
      </trkpt>
      <trkpt lat="47.49921" lon="6.77271">
        <ele>319</ele>
        <time>2016-01-31T10:57:30.000Z</time>
      </trkpt>
      <trkpt lat="47.49927" lon="6.77265">
        <ele>320</ele>
        <time>2016-01-31T10:57:31.000Z</time>
      </trkpt>
      <trkpt lat="47.49932" lon="6.77262">
        <ele>320</ele>
        <time>2016-01-31T10:57:32.000Z</time>
      </trkpt>
      <trkpt lat="47.49937" lon="6.77262">
        <ele>319</ele>
        <time>2016-01-31T10:57:33.000Z</time>
      </trkpt>
      <trkpt lat="47.49941" lon="6.77261">
        <ele>319</ele>
        <time>2016-01-31T10:57:34.000Z</time>
      </trkpt>
      <trkpt lat="47.49946" lon="6.77258">
        <ele>318</ele>
        <time>2016-01-31T10:57:35.000Z</time>
      </trkpt>
      <trkpt lat="47.49952" lon="6.77254">
        <ele>318</ele>
        <time>2016-01-31T10:57:36.000Z</time>
      </trkpt>
      <trkpt lat="47.49957" lon="6.77252">
        <ele>318</ele>
        <time>2016-01-31T10:57:37.000Z</time>
      </trkpt>
      <trkpt lat="47.49962" lon="6.7725">
        <ele>329</ele>
        <time>2016-01-31T10:57:38.000Z</time>
      </trkpt>
      <trkpt lat="47.49966" lon="6.77245">
        <ele>329</ele>
        <time>2016-01-31T10:57:39.000Z</time>
      </trkpt>
      <trkpt lat="47.49971" lon="6.77241">
        <ele>328</ele>
        <time>2016-01-31T10:57:40.000Z</time>
      </trkpt>
      <trkpt lat="47.49975" lon="6.77239">
        <ele>328</ele>
        <time>2016-01-31T10:57:41.000Z</time>
      </trkpt>
      <trkpt lat="47.49979" lon="6.77236">
        <ele>328</ele>
        <time>2016-01-31T10:57:42.000Z</time>
      </trkpt>
      <trkpt lat="47.49984" lon="6.77234">
        <ele>327</ele>
        <time>2016-01-31T10:57:43.000Z</time>
      </trkpt>
      <trkpt lat="47.49989" lon="6.77233">
        <ele>327</ele>
        <time>2016-01-31T10:57:44.000Z</time>
      </trkpt>
      <trkpt lat="47.49993" lon="6.77231">
        <ele>327</ele>
        <time>2016-01-31T10:57:45.000Z</time>
      </trkpt>
      <trkpt lat="47.49998" lon="6.7723">
        <ele>327</ele>
        <time>2016-01-31T10:57:46.000Z</time>
      </trkpt>
      <trkpt lat="47.50002" lon="6.77228">
        <ele>325</ele>
        <time>2016-01-31T10:57:47.000Z</time>
      </trkpt>
      <trkpt lat="47.50005" lon="6.77227">
        <ele>326</ele>
        <time>2016-01-31T10:57:48.000Z</time>
      </trkpt>
      <trkpt lat="47.50009" lon="6.77226">
        <ele>326</ele>
        <time>2016-01-31T10:57:49.000Z</time>
      </trkpt>
      <trkpt lat="47.50011" lon="6.77224">
        <ele>327</ele>
        <time>2016-01-31T10:57:50.000Z</time>
      </trkpt>
      <trkpt lat="47.50015" lon="6.77223">
        <ele>327</ele>
        <time>2016-01-31T10:57:51.000Z</time>
      </trkpt>
      <trkpt lat="47.50018" lon="6.77223">
        <ele>327</ele>
        <time>2016-01-31T10:57:52.000Z</time>
      </trkpt>
      <trkpt lat="47.50022" lon="6.77221">
        <ele>328</ele>
        <time>2016-01-31T10:57:53.000Z</time>
      </trkpt>
      <trkpt lat="47.50025" lon="6.77218">
        <ele>328</ele>
        <time>2016-01-31T10:57:54.000Z</time>
      </trkpt>
      <trkpt lat="47.50029" lon="6.77216">
        <ele>329</ele>
        <time>2016-01-31T10:57:55.000Z</time>
      </trkpt>
      <trkpt lat="47.50034" lon="6.77215">
        <ele>329</ele>
        <time>2016-01-31T10:57:56.000Z</time>
      </trkpt>
      <trkpt lat="47.50038" lon="6.77213">
        <ele>329</ele>
        <time>2016-01-31T10:57:57.000Z</time>
      </trkpt>
      <trkpt lat="47.50043" lon="6.7721">
        <ele>330</ele>
        <time>2016-01-31T10:57:58.000Z</time>
      </trkpt>
      <trkpt lat="47.50047" lon="6.77207">
        <ele>330</ele>
        <time>2016-01-31T10:57:59.000Z</time>
      </trkpt>
      <trkpt lat="47.50052" lon="6.77206">
        <ele>330</ele>
        <time>2016-01-31T10:58:00.000Z</time>
      </trkpt>
      <trkpt lat="47.50057" lon="6.77205">
        <ele>330</ele>
        <time>2016-01-31T10:58:01.000Z</time>
      </trkpt>
      <trkpt lat="47.50063" lon="6.77204">
        <ele>330</ele>
        <time>2016-01-31T10:58:02.000Z</time>
      </trkpt>
      <trkpt lat="47.50068" lon="6.77205">
        <ele>330</ele>
        <time>2016-01-31T10:58:03.000Z</time>
      </trkpt>
      <trkpt lat="47.50073" lon="6.77203">
        <ele>330</ele>
        <time>2016-01-31T10:58:04.000Z</time>
      </trkpt>
      <trkpt lat="47.50076" lon="6.77201">
        <ele>331</ele>
        <time>2016-01-31T10:58:05.000Z</time>
      </trkpt>
      <trkpt lat="47.50081" lon="6.77197">
        <ele>331</ele>
        <time>2016-01-31T10:58:06.000Z</time>
      </trkpt>
      <trkpt lat="47.50085" lon="6.77196">
        <ele>327</ele>
        <time>2016-01-31T10:58:07.000Z</time>
      </trkpt>
      <trkpt lat="47.50089" lon="6.77194">
        <ele>328</ele>
        <time>2016-01-31T10:58:08.000Z</time>
      </trkpt>
      <trkpt lat="47.50095" lon="6.77195">
        <ele>327</ele>
        <time>2016-01-31T10:58:09.000Z</time>
      </trkpt>
      <trkpt lat="47.501" lon="6.77194">
        <ele>327</ele>
        <time>2016-01-31T10:58:10.000Z</time>
      </trkpt>
      <trkpt lat="47.50105" lon="6.77194">
        <ele>326</ele>
        <time>2016-01-31T10:58:11.000Z</time>
      </trkpt>
      <trkpt lat="47.50112" lon="6.77195">
        <ele>325</ele>
        <time>2016-01-31T10:58:12.000Z</time>
      </trkpt>
      <trkpt lat="47.50118" lon="6.77196">
        <ele>325</ele>
        <time>2016-01-31T10:58:13.000Z</time>
      </trkpt>
      <trkpt lat="47.50123" lon="6.77196">
        <ele>324</ele>
        <time>2016-01-31T10:58:14.000Z</time>
      </trkpt>
      <trkpt lat="47.5013" lon="6.77199">
        <ele>324</ele>
        <time>2016-01-31T10:58:15.000Z</time>
      </trkpt>
      <trkpt lat="47.50137" lon="6.77201">
        <ele>323</ele>
        <time>2016-01-31T10:58:16.000Z</time>
      </trkpt>
      <trkpt lat="47.50142" lon="6.77204">
        <ele>322</ele>
        <time>2016-01-31T10:58:17.000Z</time>
      </trkpt>
      <trkpt lat="47.50147" lon="6.77207">
        <ele>322</ele>
        <time>2016-01-31T10:58:18.000Z</time>
      </trkpt>
      <trkpt lat="47.50153" lon="6.77212">
        <ele>321</ele>
        <time>2016-01-31T10:58:19.000Z</time>
      </trkpt>
      <trkpt lat="47.50158" lon="6.77216">
        <ele>320</ele>
        <time>2016-01-31T10:58:20.000Z</time>
      </trkpt>
      <trkpt lat="47.50162" lon="6.77219">
        <ele>320</ele>
        <time>2016-01-31T10:58:21.000Z</time>
      </trkpt>
      <trkpt lat="47.50167" lon="6.77222">
        <ele>316</ele>
        <time>2016-01-31T10:58:22.000Z</time>
      </trkpt>
      <trkpt lat="47.50172" lon="6.77226">
        <ele>316</ele>
        <time>2016-01-31T10:58:23.000Z</time>
      </trkpt>
      <trkpt lat="47.50176" lon="6.7723">
        <ele>316</ele>
        <time>2016-01-31T10:58:24.000Z</time>
      </trkpt>
      <trkpt lat="47.50181" lon="6.77234">
        <ele>316</ele>
        <time>2016-01-31T10:58:25.000Z</time>
      </trkpt>
      <trkpt lat="47.50185" lon="6.77238">
        <ele>316</ele>
        <time>2016-01-31T10:58:26.000Z</time>
      </trkpt>
      <trkpt lat="47.5019" lon="6.77242">
        <ele>316</ele>
        <time>2016-01-31T10:58:27.000Z</time>
      </trkpt>
      <trkpt lat="47.50194" lon="6.77246">
        <ele>316</ele>
        <time>2016-01-31T10:58:28.000Z</time>
      </trkpt>
      <trkpt lat="47.50199" lon="6.7725">
        <ele>316</ele>
        <time>2016-01-31T10:58:29.000Z</time>
      </trkpt>
      <trkpt lat="47.50203" lon="6.77254">
        <ele>313</ele>
        <time>2016-01-31T10:58:30.000Z</time>
      </trkpt>
      <trkpt lat="47.50208" lon="6.77258">
        <ele>313</ele>
        <time>2016-01-31T10:58:31.000Z</time>
      </trkpt>
      <trkpt lat="47.50213" lon="6.77262">
        <ele>313</ele>
        <time>2016-01-31T10:58:32.000Z</time>
      </trkpt>
      <trkpt lat="47.50218" lon="6.77266">
        <ele>313</ele>
        <time>2016-01-31T10:58:33.000Z</time>
      </trkpt>
      <trkpt lat="47.50223" lon="6.77269">
        <ele>313</ele>
        <time>2016-01-31T10:58:34.000Z</time>
      </trkpt>
      <trkpt lat="47.50227" lon="6.77273">
        <ele>313</ele>
        <time>2016-01-31T10:58:35.000Z</time>
      </trkpt>
      <trkpt lat="47.50232" lon="6.77276">
        <ele>313</ele>
        <time>2016-01-31T10:58:36.000Z</time>
      </trkpt>
      <trkpt lat="47.50236" lon="6.77279">
        <ele>313</ele>
        <time>2016-01-31T10:58:37.000Z</time>
      </trkpt>
      <trkpt lat="47.50241" lon="6.77282">
        <ele>313</ele>
        <time>2016-01-31T10:58:38.000Z</time>
      </trkpt>
      <trkpt lat="47.50246" lon="6.77285">
        <ele>313</ele>
        <time>2016-01-31T10:58:39.000Z</time>
      </trkpt>
      <trkpt lat="47.5025" lon="6.77289">
        <ele>313</ele>
        <time>2016-01-31T10:58:40.000Z</time>
      </trkpt>
      <trkpt lat="47.50255" lon="6.77292">
        <ele>313</ele>
        <time>2016-01-31T10:58:41.000Z</time>
      </trkpt>
      <trkpt lat="47.5026" lon="6.77294">
        <ele>313</ele>
        <time>2016-01-31T10:58:42.000Z</time>
      </trkpt>
      <trkpt lat="47.50264" lon="6.77298">
        <ele>313</ele>
        <time>2016-01-31T10:58:43.000Z</time>
      </trkpt>
      <trkpt lat="47.50269" lon="6.77301">
        <ele>313</ele>
        <time>2016-01-31T10:58:44.000Z</time>
      </trkpt>
      <trkpt lat="47.50273" lon="6.77304">
        <ele>313</ele>
        <time>2016-01-31T10:58:45.000Z</time>
      </trkpt>
      <trkpt lat="47.50277" lon="6.77308">
        <ele>313</ele>
        <time>2016-01-31T10:58:46.000Z</time>
      </trkpt>
      <trkpt lat="47.50282" lon="6.77311">
        <ele>313</ele>
        <time>2016-01-31T10:58:47.000Z</time>
      </trkpt>
      <trkpt lat="47.50287" lon="6.77314">
        <ele>313</ele>
        <time>2016-01-31T10:58:48.000Z</time>
      </trkpt>
      <trkpt lat="47.50291" lon="6.77317">
        <ele>313</ele>
        <time>2016-01-31T10:58:49.000Z</time>
      </trkpt>
      <trkpt lat="47.50296" lon="6.77321">
        <ele>313</ele>
        <time>2016-01-31T10:58:50.000Z</time>
      </trkpt>
      <trkpt lat="47.503" lon="6.77323">
        <ele>312</ele>
        <time>2016-01-31T10:58:51.000Z</time>
      </trkpt>
      <trkpt lat="47.50305" lon="6.77327">
        <ele>312</ele>
        <time>2016-01-31T10:58:52.000Z</time>
      </trkpt>
      <trkpt lat="47.50309" lon="6.77331">
        <ele>312</ele>
        <time>2016-01-31T10:58:53.000Z</time>
      </trkpt>
      <trkpt lat="47.50314" lon="6.77335">
        <ele>312</ele>
        <time>2016-01-31T10:58:54.000Z</time>
      </trkpt>
      <trkpt lat="47.50318" lon="6.77338">
        <ele>312</ele>
        <time>2016-01-31T10:58:55.000Z</time>
      </trkpt>
      <trkpt lat="47.50323" lon="6.77342">
        <ele>312</ele>
        <time>2016-01-31T10:58:56.000Z</time>
      </trkpt>
      <trkpt lat="47.50328" lon="6.77346">
        <ele>312</ele>
        <time>2016-01-31T10:58:57.000Z</time>
      </trkpt>
      <trkpt lat="47.50332" lon="6.77349">
        <ele>312</ele>
        <time>2016-01-31T10:58:58.000Z</time>
      </trkpt>
      <trkpt lat="47.50337" lon="6.77354">
        <ele>312</ele>
        <time>2016-01-31T10:58:59.000Z</time>
      </trkpt>
      <trkpt lat="47.50341" lon="6.77357">
        <ele>312</ele>
        <time>2016-01-31T10:59:00.000Z</time>
      </trkpt>
      <trkpt lat="47.50346" lon="6.7736">
        <ele>312</ele>
        <time>2016-01-31T10:59:01.000Z</time>
      </trkpt>
      <trkpt lat="47.5035" lon="6.77364">
        <ele>312</ele>
        <time>2016-01-31T10:59:02.000Z</time>
      </trkpt>
      <trkpt lat="47.50355" lon="6.77367">
        <ele>312</ele>
        <time>2016-01-31T10:59:03.000Z</time>
      </trkpt>
      <trkpt lat="47.5036" lon="6.77371">
        <ele>312</ele>
        <time>2016-01-31T10:59:04.000Z</time>
      </trkpt>
      <trkpt lat="47.50364" lon="6.77375">
        <ele>312</ele>
        <time>2016-01-31T10:59:05.000Z</time>
      </trkpt>
      <trkpt lat="47.50369" lon="6.77379">
        <ele>312</ele>
        <time>2016-01-31T10:59:06.000Z</time>
      </trkpt>
      <trkpt lat="47.50373" lon="6.77382">
        <ele>312</ele>
        <time>2016-01-31T10:59:07.000Z</time>
      </trkpt>
      <trkpt lat="47.50378" lon="6.77386">
        <ele>312</ele>
        <time>2016-01-31T10:59:08.000Z</time>
      </trkpt>
      <trkpt lat="47.50382" lon="6.77389">
        <ele>312</ele>
        <time>2016-01-31T10:59:09.000Z</time>
      </trkpt>
      <trkpt lat="47.50387" lon="6.77393">
        <ele>312</ele>
        <time>2016-01-31T10:59:10.000Z</time>
      </trkpt>
      <trkpt lat="47.50391" lon="6.77396">
        <ele>312</ele>
        <time>2016-01-31T10:59:11.000Z</time>
      </trkpt>
      <trkpt lat="47.50395" lon="6.774">
        <ele>312</ele>
        <time>2016-01-31T10:59:12.000Z</time>
      </trkpt>
      <trkpt lat="47.504" lon="6.77403">
        <ele>312</ele>
        <time>2016-01-31T10:59:13.000Z</time>
      </trkpt>
      <trkpt lat="47.50404" lon="6.77407">
        <ele>311</ele>
        <time>2016-01-31T10:59:14.000Z</time>
      </trkpt>
      <trkpt lat="47.50409" lon="6.77411">
        <ele>311</ele>
        <time>2016-01-31T10:59:15.000Z</time>
      </trkpt>
      <trkpt lat="47.50413" lon="6.77415">
        <ele>311</ele>
        <time>2016-01-31T10:59:16.000Z</time>
      </trkpt>
      <trkpt lat="47.50417" lon="6.77419">
        <ele>311</ele>
        <time>2016-01-31T10:59:17.000Z</time>
      </trkpt>
      <trkpt lat="47.50422" lon="6.77423">
        <ele>311</ele>
        <time>2016-01-31T10:59:18.000Z</time>
      </trkpt>
      <trkpt lat="47.50426" lon="6.77426">
        <ele>312</ele>
        <time>2016-01-31T10:59:19.000Z</time>
      </trkpt>
      <trkpt lat="47.50431" lon="6.77431">
        <ele>312</ele>
        <time>2016-01-31T10:59:20.000Z</time>
      </trkpt>
      <trkpt lat="47.50435" lon="6.77435">
        <ele>312</ele>
        <time>2016-01-31T10:59:21.000Z</time>
      </trkpt>
      <trkpt lat="47.50439" lon="6.77438">
        <ele>312</ele>
        <time>2016-01-31T10:59:22.000Z</time>
      </trkpt>
      <trkpt lat="47.50444" lon="6.77441">
        <ele>312</ele>
        <time>2016-01-31T10:59:23.000Z</time>
      </trkpt>
      <trkpt lat="47.50448" lon="6.77445">
        <ele>312</ele>
        <time>2016-01-31T10:59:24.000Z</time>
      </trkpt>
      <trkpt lat="47.50452" lon="6.77449">
        <ele>312</ele>
        <time>2016-01-31T10:59:25.000Z</time>
      </trkpt>
      <trkpt lat="47.50457" lon="6.77453">
        <ele>312</ele>
        <time>2016-01-31T10:59:26.000Z</time>
      </trkpt>
      <trkpt lat="47.50462" lon="6.77457">
        <ele>313</ele>
        <time>2016-01-31T10:59:27.000Z</time>
      </trkpt>
      <trkpt lat="47.50466" lon="6.77461">
        <ele>313</ele>
        <time>2016-01-31T10:59:28.000Z</time>
      </trkpt>
      <trkpt lat="47.5047" lon="6.77465">
        <ele>313</ele>
        <time>2016-01-31T10:59:29.000Z</time>
      </trkpt>
      <trkpt lat="47.50475" lon="6.77467">
        <ele>313</ele>
        <time>2016-01-31T10:59:30.000Z</time>
      </trkpt>
      <trkpt lat="47.5048" lon="6.77471">
        <ele>313</ele>
        <time>2016-01-31T10:59:31.000Z</time>
      </trkpt>
      <trkpt lat="47.50484" lon="6.77474">
        <ele>313</ele>
        <time>2016-01-31T10:59:32.000Z</time>
      </trkpt>
      <trkpt lat="47.50488" lon="6.77477">
        <ele>313</ele>
        <time>2016-01-31T10:59:33.000Z</time>
      </trkpt>
      <trkpt lat="47.50492" lon="6.77481">
        <ele>313</ele>
        <time>2016-01-31T10:59:34.000Z</time>
      </trkpt>
      <trkpt lat="47.50497" lon="6.77485">
        <ele>313</ele>
        <time>2016-01-31T10:59:35.000Z</time>
      </trkpt>
      <trkpt lat="47.50501" lon="6.77488">
        <ele>314</ele>
        <time>2016-01-31T10:59:36.000Z</time>
      </trkpt>
      <trkpt lat="47.50506" lon="6.77491">
        <ele>314</ele>
        <time>2016-01-31T10:59:37.000Z</time>
      </trkpt>
      <trkpt lat="47.5051" lon="6.77494">
        <ele>314</ele>
        <time>2016-01-31T10:59:38.000Z</time>
      </trkpt>
      <trkpt lat="47.50514" lon="6.77498">
        <ele>314</ele>
        <time>2016-01-31T10:59:39.000Z</time>
      </trkpt>
      <trkpt lat="47.50519" lon="6.77501">
        <ele>314</ele>
        <time>2016-01-31T10:59:40.000Z</time>
      </trkpt>
      <trkpt lat="47.50523" lon="6.77503">
        <ele>314</ele>
        <time>2016-01-31T10:59:41.000Z</time>
      </trkpt>
      <trkpt lat="47.50527" lon="6.77506">
        <ele>314</ele>
        <time>2016-01-31T10:59:42.000Z</time>
      </trkpt>
      <trkpt lat="47.50532" lon="6.77509">
        <ele>314</ele>
        <time>2016-01-31T10:59:43.000Z</time>
      </trkpt>
      <trkpt lat="47.50536" lon="6.77512">
        <ele>313</ele>
        <time>2016-01-31T10:59:44.000Z</time>
      </trkpt>
      <trkpt lat="47.50541" lon="6.77517">
        <ele>313</ele>
        <time>2016-01-31T10:59:45.000Z</time>
      </trkpt>
      <trkpt lat="47.50545" lon="6.77521">
        <ele>313</ele>
        <time>2016-01-31T10:59:46.000Z</time>
      </trkpt>
      <trkpt lat="47.50549" lon="6.77527">
        <ele>313</ele>
        <time>2016-01-31T10:59:47.000Z</time>
      </trkpt>
      <trkpt lat="47.50551" lon="6.77533">
        <ele>313</ele>
        <time>2016-01-31T10:59:48.000Z</time>
      </trkpt>
      <trkpt lat="47.50554" lon="6.77537">
        <ele>313</ele>
        <time>2016-01-31T10:59:49.000Z</time>
      </trkpt>
      <trkpt lat="47.50556" lon="6.77543">
        <ele>313</ele>
        <time>2016-01-31T10:59:50.000Z</time>
      </trkpt>
      <trkpt lat="47.50559" lon="6.77548">
        <ele>313</ele>
        <time>2016-01-31T10:59:51.000Z</time>
      </trkpt>
      <trkpt lat="47.50564" lon="6.77549">
        <ele>313</ele>
        <time>2016-01-31T10:59:52.000Z</time>
      </trkpt>
      <trkpt lat="47.50567" lon="6.7755">
        <ele>313</ele>
        <time>2016-01-31T10:59:53.000Z</time>
      </trkpt>
      <trkpt lat="47.50572" lon="6.77551">
        <ele>313</ele>
        <time>2016-01-31T10:59:54.000Z</time>
      </trkpt>
      <trkpt lat="47.50577" lon="6.77548">
        <ele>313</ele>
        <time>2016-01-31T10:59:55.000Z</time>
      </trkpt>
      <trkpt lat="47.50579" lon="6.77544">
        <ele>313</ele>
        <time>2016-01-31T10:59:56.000Z</time>
      </trkpt>
      <trkpt lat="47.50581" lon="6.77538">
        <ele>313</ele>
        <time>2016-01-31T10:59:57.000Z</time>
      </trkpt>
      <trkpt lat="47.50585" lon="6.77534">
        <ele>313</ele>
        <time>2016-01-31T10:59:58.000Z</time>
      </trkpt>
      <trkpt lat="47.5059" lon="6.77532">
        <ele>313</ele>
        <time>2016-01-31T10:59:59.000Z</time>
      </trkpt>
      <trkpt lat="47.50593" lon="6.77531">
        <ele>313</ele>
        <time>2016-01-31T11:00:00.000Z</time>
      </trkpt>
      <trkpt lat="47.50597" lon="6.77531">
        <ele>313</ele>
        <time>2016-01-31T11:00:01.000Z</time>
      </trkpt>
      <trkpt lat="47.50602" lon="6.77529">
        <ele>313</ele>
        <time>2016-01-31T11:00:02.000Z</time>
      </trkpt>
      <trkpt lat="47.50606" lon="6.77528">
        <ele>313</ele>
        <time>2016-01-31T11:00:03.000Z</time>
      </trkpt>
      <trkpt lat="47.5061" lon="6.77528">
        <ele>313</ele>
        <time>2016-01-31T11:00:04.000Z</time>
      </trkpt>
      <trkpt lat="47.50615" lon="6.77528">
        <ele>313</ele>
        <time>2016-01-31T11:00:05.000Z</time>
      </trkpt>
      <trkpt lat="47.50619" lon="6.77527">
        <ele>313</ele>
        <time>2016-01-31T11:00:06.000Z</time>
      </trkpt>
      <trkpt lat="47.50622" lon="6.77525">
        <ele>313</ele>
        <time>2016-01-31T11:00:07.000Z</time>
      </trkpt>
      <trkpt lat="47.50627" lon="6.77525">
        <ele>313</ele>
        <time>2016-01-31T11:00:08.000Z</time>
      </trkpt>
      <trkpt lat="47.50632" lon="6.77523">
        <ele>313</ele>
        <time>2016-01-31T11:00:09.000Z</time>
      </trkpt>
      <trkpt lat="47.50636" lon="6.77523">
        <ele>313</ele>
        <time>2016-01-31T11:00:10.000Z</time>
      </trkpt>
      <trkpt lat="47.50641" lon="6.77524">
        <ele>313</ele>
        <time>2016-01-31T11:00:11.000Z</time>
      </trkpt>
      <trkpt lat="47.50645" lon="6.77526">
        <ele>313</ele>
        <time>2016-01-31T11:00:12.000Z</time>
      </trkpt>
      <trkpt lat="47.5065" lon="6.77526">
        <ele>313</ele>
        <time>2016-01-31T11:00:13.000Z</time>
      </trkpt>
      <trkpt lat="47.50655" lon="6.77528">
        <ele>313</ele>
        <time>2016-01-31T11:00:14.000Z</time>
      </trkpt>
      <trkpt lat="47.5066" lon="6.77529">
        <ele>313</ele>
        <time>2016-01-31T11:00:15.000Z</time>
      </trkpt>
      <trkpt lat="47.50664" lon="6.7753">
        <ele>313</ele>
        <time>2016-01-31T11:00:16.000Z</time>
      </trkpt>
      <trkpt lat="47.50669" lon="6.77529">
        <ele>313</ele>
        <time>2016-01-31T11:00:17.000Z</time>
      </trkpt>
      <trkpt lat="47.50673" lon="6.77528">
        <ele>313</ele>
        <time>2016-01-31T11:00:18.000Z</time>
      </trkpt>
      <trkpt lat="47.50679" lon="6.77529">
        <ele>313</ele>
        <time>2016-01-31T11:00:19.000Z</time>
      </trkpt>
      <trkpt lat="47.50685" lon="6.77528">
        <ele>313</ele>
        <time>2016-01-31T11:00:20.000Z</time>
      </trkpt>
      <trkpt lat="47.5069" lon="6.77527">
        <ele>313</ele>
        <time>2016-01-31T11:00:21.000Z</time>
      </trkpt>
      <trkpt lat="47.50695" lon="6.77527">
        <ele>313</ele>
        <time>2016-01-31T11:00:22.000Z</time>
      </trkpt>
      <trkpt lat="47.507" lon="6.77526">
        <ele>313</ele>
        <time>2016-01-31T11:00:23.000Z</time>
      </trkpt>
      <trkpt lat="47.50705" lon="6.77528">
        <ele>313</ele>
        <time>2016-01-31T11:00:24.000Z</time>
      </trkpt>
      <trkpt lat="47.50709" lon="6.7753">
        <ele>313</ele>
        <time>2016-01-31T11:00:25.000Z</time>
      </trkpt>
      <trkpt lat="47.50714" lon="6.77532">
        <ele>313</ele>
        <time>2016-01-31T11:00:26.000Z</time>
      </trkpt>
      <trkpt lat="47.50719" lon="6.77535">
        <ele>313</ele>
        <time>2016-01-31T11:00:27.000Z</time>
      </trkpt>
      <trkpt lat="47.50724" lon="6.77534">
        <ele>313</ele>
        <time>2016-01-31T11:00:28.000Z</time>
      </trkpt>
      <trkpt lat="47.50728" lon="6.77537">
        <ele>313</ele>
        <time>2016-01-31T11:00:29.000Z</time>
      </trkpt>
      <trkpt lat="47.50733" lon="6.7754">
        <ele>313</ele>
        <time>2016-01-31T11:00:30.000Z</time>
      </trkpt>
      <trkpt lat="47.50738" lon="6.77543">
        <ele>313</ele>
        <time>2016-01-31T11:00:31.000Z</time>
      </trkpt>
      <trkpt lat="47.50743" lon="6.77547">
        <ele>313</ele>
        <time>2016-01-31T11:00:32.000Z</time>
      </trkpt>
      <trkpt lat="47.50747" lon="6.7755">
        <ele>313</ele>
        <time>2016-01-31T11:00:33.000Z</time>
      </trkpt>
      <trkpt lat="47.50752" lon="6.77554">
        <ele>314</ele>
        <time>2016-01-31T11:00:34.000Z</time>
      </trkpt>
      <trkpt lat="47.50757" lon="6.77558">
        <ele>314</ele>
        <time>2016-01-31T11:00:35.000Z</time>
      </trkpt>
      <trkpt lat="47.50762" lon="6.7756">
        <ele>314</ele>
        <time>2016-01-31T11:00:36.000Z</time>
      </trkpt>
      <trkpt lat="47.50766" lon="6.77563">
        <ele>314</ele>
        <time>2016-01-31T11:00:37.000Z</time>
      </trkpt>
      <trkpt lat="47.50771" lon="6.77564">
        <ele>314</ele>
        <time>2016-01-31T11:00:38.000Z</time>
      </trkpt>
      <trkpt lat="47.50775" lon="6.77565">
        <ele>314</ele>
        <time>2016-01-31T11:00:39.000Z</time>
      </trkpt>
      <trkpt lat="47.50778" lon="6.7757">
        <ele>314</ele>
        <time>2016-01-31T11:00:40.000Z</time>
      </trkpt>
      <trkpt lat="47.50782" lon="6.77573">
        <ele>315</ele>
        <time>2016-01-31T11:00:41.000Z</time>
      </trkpt>
      <trkpt lat="47.50785" lon="6.77577">
        <ele>315</ele>
        <time>2016-01-31T11:00:42.000Z</time>
      </trkpt>
      <trkpt lat="47.50789" lon="6.77582">
        <ele>315</ele>
        <time>2016-01-31T11:00:43.000Z</time>
      </trkpt>
      <trkpt lat="47.50792" lon="6.77586">
        <ele>315</ele>
        <time>2016-01-31T11:00:44.000Z</time>
      </trkpt>
      <trkpt lat="47.50797" lon="6.77588">
        <ele>315</ele>
        <time>2016-01-31T11:00:45.000Z</time>
      </trkpt>
      <trkpt lat="47.508" lon="6.77592">
        <ele>315</ele>
        <time>2016-01-31T11:00:46.000Z</time>
      </trkpt>
      <trkpt lat="47.50804" lon="6.77597">
        <ele>315</ele>
        <time>2016-01-31T11:00:47.000Z</time>
      </trkpt>
      <trkpt lat="47.50808" lon="6.776">
        <ele>315</ele>
        <time>2016-01-31T11:00:48.000Z</time>
      </trkpt>
      <trkpt lat="47.50812" lon="6.77602">
        <ele>316</ele>
        <time>2016-01-31T11:00:49.000Z</time>
      </trkpt>
      <trkpt lat="47.50815" lon="6.77604">
        <ele>316</ele>
        <time>2016-01-31T11:00:50.000Z</time>
      </trkpt>
      <trkpt lat="47.50819" lon="6.77606">
        <ele>316</ele>
        <time>2016-01-31T11:00:51.000Z</time>
      </trkpt>
      <trkpt lat="47.50822" lon="6.77609">
        <ele>316</ele>
        <time>2016-01-31T11:00:52.000Z</time>
      </trkpt>
      <trkpt lat="47.50827" lon="6.77611">
        <ele>316</ele>
        <time>2016-01-31T11:00:53.000Z</time>
      </trkpt>
      <trkpt lat="47.50831" lon="6.77614">
        <ele>316</ele>
        <time>2016-01-31T11:00:54.000Z</time>
      </trkpt>
      <trkpt lat="47.50835" lon="6.77617">
        <ele>317</ele>
        <time>2016-01-31T11:00:55.000Z</time>
      </trkpt>
      <trkpt lat="47.50837" lon="6.7762">
        <ele>317</ele>
        <time>2016-01-31T11:00:56.000Z</time>
      </trkpt>
      <trkpt lat="47.5084" lon="6.77623">
        <ele>317</ele>
        <time>2016-01-31T11:00:57.000Z</time>
      </trkpt>
      <trkpt lat="47.50844" lon="6.77629">
        <ele>316</ele>
        <time>2016-01-31T11:00:58.000Z</time>
      </trkpt>
      <trkpt lat="47.50848" lon="6.77635">
        <ele>316</ele>
        <time>2016-01-31T11:00:59.000Z</time>
      </trkpt>
      <trkpt lat="47.50851" lon="6.77641">
        <ele>317</ele>
        <time>2016-01-31T11:01:00.000Z</time>
      </trkpt>
      <trkpt lat="47.50854" lon="6.77645">
        <ele>316</ele>
        <time>2016-01-31T11:01:01.000Z</time>
      </trkpt>
      <trkpt lat="47.50858" lon="6.7765">
        <ele>316</ele>
        <time>2016-01-31T11:01:02.000Z</time>
      </trkpt>
      <trkpt lat="47.50861" lon="6.77655">
        <ele>316</ele>
        <time>2016-01-31T11:01:03.000Z</time>
      </trkpt>
      <trkpt lat="47.50865" lon="6.77659">
        <ele>316</ele>
        <time>2016-01-31T11:01:04.000Z</time>
      </trkpt>
      <trkpt lat="47.50868" lon="6.77665">
        <ele>316</ele>
        <time>2016-01-31T11:01:05.000Z</time>
      </trkpt>
      <trkpt lat="47.50871" lon="6.77671">
        <ele>316</ele>
        <time>2016-01-31T11:01:06.000Z</time>
      </trkpt>
      <trkpt lat="47.50874" lon="6.77677">
        <ele>316</ele>
        <time>2016-01-31T11:01:07.000Z</time>
      </trkpt>
      <trkpt lat="47.50877" lon="6.77682">
        <ele>316</ele>
        <time>2016-01-31T11:01:08.000Z</time>
      </trkpt>
      <trkpt lat="47.50879" lon="6.77686">
        <ele>316</ele>
        <time>2016-01-31T11:01:09.000Z</time>
      </trkpt>
      <trkpt lat="47.50881" lon="6.77691">
        <ele>316</ele>
        <time>2016-01-31T11:01:10.000Z</time>
      </trkpt>
      <trkpt lat="47.50883" lon="6.77695">
        <ele>316</ele>
        <time>2016-01-31T11:01:11.000Z</time>
      </trkpt>
      <trkpt lat="47.50885" lon="6.77698">
        <ele>316</ele>
        <time>2016-01-31T11:01:12.000Z</time>
      </trkpt>
      <trkpt lat="47.50888" lon="6.777">
        <ele>316</ele>
        <time>2016-01-31T11:01:13.000Z</time>
      </trkpt>
      <trkpt lat="47.50891" lon="6.77698">
        <ele>316</ele>
        <time>2016-01-31T11:01:14.000Z</time>
      </trkpt>
      <trkpt lat="47.50894" lon="6.77697">
        <ele>316</ele>
        <time>2016-01-31T11:01:15.000Z</time>
      </trkpt>
      <trkpt lat="47.50898" lon="6.77697">
        <ele>316</ele>
        <time>2016-01-31T11:01:16.000Z</time>
      </trkpt>
      <trkpt lat="47.50902" lon="6.77696">
        <ele>316</ele>
        <time>2016-01-31T11:01:17.000Z</time>
      </trkpt>
      <trkpt lat="47.50906" lon="6.77695">
        <ele>316</ele>
        <time>2016-01-31T11:01:18.000Z</time>
      </trkpt>
      <trkpt lat="47.5091" lon="6.77694">
        <ele>316</ele>
        <time>2016-01-31T11:01:19.000Z</time>
      </trkpt>
      <trkpt lat="47.50914" lon="6.77694">
        <ele>316</ele>
        <time>2016-01-31T11:01:20.000Z</time>
      </trkpt>
      <trkpt lat="47.50918" lon="6.77694">
        <ele>315</ele>
        <time>2016-01-31T11:01:21.000Z</time>
      </trkpt>
      <trkpt lat="47.50922" lon="6.77694">
        <ele>315</ele>
        <time>2016-01-31T11:01:22.000Z</time>
      </trkpt>
      <trkpt lat="47.50926" lon="6.77694">
        <ele>315</ele>
        <time>2016-01-31T11:01:23.000Z</time>
      </trkpt>
      <trkpt lat="47.5093" lon="6.77694">
        <ele>315</ele>
        <time>2016-01-31T11:01:24.000Z</time>
      </trkpt>
      <trkpt lat="47.50933" lon="6.77694">
        <ele>315</ele>
        <time>2016-01-31T11:01:25.000Z</time>
      </trkpt>
      <trkpt lat="47.50936" lon="6.77693">
        <ele>315</ele>
        <time>2016-01-31T11:01:26.000Z</time>
      </trkpt>
      <trkpt lat="47.50939" lon="6.77693">
        <ele>315</ele>
        <time>2016-01-31T11:01:27.000Z</time>
      </trkpt>
      <trkpt lat="47.50941" lon="6.77693">
        <ele>315</ele>
        <time>2016-01-31T11:01:28.000Z</time>
      </trkpt>
      <trkpt lat="47.50945" lon="6.77694">
        <ele>315</ele>
        <time>2016-01-31T11:01:32.000Z</time>
      </trkpt>
      <trkpt lat="47.50945" lon="6.77694">
        <ele>315</ele>
        <time>2016-01-31T11:01:33.000Z</time>
      </trkpt>
      <trkpt lat="47.50949" lon="6.77694">
        <ele>315</ele>
        <time>2016-01-31T11:01:35.000Z</time>
      </trkpt>
      <trkpt lat="47.50952" lon="6.77693">
        <ele>315</ele>
        <time>2016-01-31T11:01:36.000Z</time>
      </trkpt>
      <trkpt lat="47.50956" lon="6.77691">
        <ele>315</ele>
        <time>2016-01-31T11:01:37.000Z</time>
      </trkpt>
      <trkpt lat="47.50959" lon="6.77688">
        <ele>315</ele>
        <time>2016-01-31T11:01:38.000Z</time>
      </trkpt>
      <trkpt lat="47.50962" lon="6.77686">
        <ele>315</ele>
        <time>2016-01-31T11:01:39.000Z</time>
      </trkpt>
      <trkpt lat="47.50966" lon="6.77685">
        <ele>315</ele>
        <time>2016-01-31T11:01:40.000Z</time>
      </trkpt>
      <trkpt lat="47.50969" lon="6.77685">
        <ele>315</ele>
        <time>2016-01-31T11:01:41.000Z</time>
      </trkpt>
      <trkpt lat="47.50972" lon="6.77687">
        <ele>315</ele>
        <time>2016-01-31T11:01:42.000Z</time>
      </trkpt>
      <trkpt lat="47.50976" lon="6.7769">
        <ele>315</ele>
        <time>2016-01-31T11:01:43.000Z</time>
      </trkpt>
      <trkpt lat="47.50979" lon="6.77694">
        <ele>315</ele>
        <time>2016-01-31T11:01:44.000Z</time>
      </trkpt>
      <trkpt lat="47.50982" lon="6.77697">
        <ele>315</ele>
        <time>2016-01-31T11:01:45.000Z</time>
      </trkpt>
      <trkpt lat="47.50985" lon="6.77701">
        <ele>315</ele>
        <time>2016-01-31T11:01:46.000Z</time>
      </trkpt>
      <trkpt lat="47.50989" lon="6.77704">
        <ele>315</ele>
        <time>2016-01-31T11:01:47.000Z</time>
      </trkpt>
      <trkpt lat="47.50992" lon="6.77708">
        <ele>315</ele>
        <time>2016-01-31T11:01:48.000Z</time>
      </trkpt>
      <trkpt lat="47.50996" lon="6.77711">
        <ele>315</ele>
        <time>2016-01-31T11:01:49.000Z</time>
      </trkpt>
      <trkpt lat="47.50999" lon="6.77715">
        <ele>315</ele>
        <time>2016-01-31T11:01:50.000Z</time>
      </trkpt>
      <trkpt lat="47.51002" lon="6.77718">
        <ele>316</ele>
        <time>2016-01-31T11:01:51.000Z</time>
      </trkpt>
      <trkpt lat="47.51006" lon="6.77721">
        <ele>316</ele>
        <time>2016-01-31T11:01:52.000Z</time>
      </trkpt>
      <trkpt lat="47.51009" lon="6.77724">
        <ele>316</ele>
        <time>2016-01-31T11:01:53.000Z</time>
      </trkpt>
      <trkpt lat="47.51012" lon="6.77727">
        <ele>317</ele>
        <time>2016-01-31T11:01:54.000Z</time>
      </trkpt>
      <trkpt lat="47.51015" lon="6.7773">
        <ele>317</ele>
        <time>2016-01-31T11:01:55.000Z</time>
      </trkpt>
      <trkpt lat="47.51018" lon="6.77733">
        <ele>317</ele>
        <time>2016-01-31T11:01:56.000Z</time>
      </trkpt>
      <trkpt lat="47.51021" lon="6.77736">
        <ele>317</ele>
        <time>2016-01-31T11:01:57.000Z</time>
      </trkpt>
      <trkpt lat="47.51024" lon="6.77738">
        <ele>317</ele>
        <time>2016-01-31T11:01:58.000Z</time>
      </trkpt>
      <trkpt lat="47.51027" lon="6.77741">
        <ele>317</ele>
        <time>2016-01-31T11:01:59.000Z</time>
      </trkpt>
      <trkpt lat="47.5103" lon="6.77744">
        <ele>317</ele>
        <time>2016-01-31T11:02:00.000Z</time>
      </trkpt>
      <trkpt lat="47.51033" lon="6.77746">
        <ele>317</ele>
        <time>2016-01-31T11:02:01.000Z</time>
      </trkpt>
      <trkpt lat="47.51036" lon="6.77748">
        <ele>317</ele>
        <time>2016-01-31T11:02:02.000Z</time>
      </trkpt>
      <trkpt lat="47.51039" lon="6.7775">
        <ele>318</ele>
        <time>2016-01-31T11:02:03.000Z</time>
      </trkpt>
      <trkpt lat="47.51041" lon="6.77753">
        <ele>318</ele>
        <time>2016-01-31T11:02:04.000Z</time>
      </trkpt>
      <trkpt lat="47.51044" lon="6.77755">
        <ele>318</ele>
        <time>2016-01-31T11:02:05.000Z</time>
      </trkpt>
      <trkpt lat="47.51046" lon="6.77757">
        <ele>318</ele>
        <time>2016-01-31T11:02:06.000Z</time>
      </trkpt>
      <trkpt lat="47.5105" lon="6.77761">
        <ele>318</ele>
        <time>2016-01-31T11:02:08.000Z</time>
      </trkpt>
      <trkpt lat="47.51051" lon="6.77762">
        <ele>318</ele>
        <time>2016-01-31T11:02:09.000Z</time>
      </trkpt>
      <trkpt lat="47.51053" lon="6.77764">
        <ele>318</ele>
        <time>2016-01-31T11:02:10.000Z</time>
      </trkpt>
      <trkpt lat="47.51056" lon="6.77765">
        <ele>318</ele>
        <time>2016-01-31T11:02:11.000Z</time>
      </trkpt>
      <trkpt lat="47.51059" lon="6.77767">
        <ele>318</ele>
        <time>2016-01-31T11:02:12.000Z</time>
      </trkpt>
      <trkpt lat="47.51062" lon="6.77768">
        <ele>318</ele>
        <time>2016-01-31T11:02:13.000Z</time>
      </trkpt>
      <trkpt lat="47.51066" lon="6.77769">
        <ele>319</ele>
        <time>2016-01-31T11:02:14.000Z</time>
      </trkpt>
      <trkpt lat="47.5107" lon="6.7777">
        <ele>319</ele>
        <time>2016-01-31T11:02:15.000Z</time>
      </trkpt>
      <trkpt lat="47.51073" lon="6.77771">
        <ele>319</ele>
        <time>2016-01-31T11:02:16.000Z</time>
      </trkpt>
      <trkpt lat="47.51076" lon="6.77771">
        <ele>319</ele>
        <time>2016-01-31T11:02:17.000Z</time>
      </trkpt>
      <trkpt lat="47.51079" lon="6.77772">
        <ele>319</ele>
        <time>2016-01-31T11:02:18.000Z</time>
      </trkpt>
      <trkpt lat="47.51082" lon="6.77773">
        <ele>319</ele>
        <time>2016-01-31T11:02:19.000Z</time>
      </trkpt>
      <trkpt lat="47.51085" lon="6.77773">
        <ele>321</ele>
        <time>2016-01-31T11:02:20.000Z</time>
      </trkpt>
      <trkpt lat="47.51088" lon="6.77774">
        <ele>321</ele>
        <time>2016-01-31T11:02:21.000Z</time>
      </trkpt>
      <trkpt lat="47.51091" lon="6.77774">
        <ele>321</ele>
        <time>2016-01-31T11:02:22.000Z</time>
      </trkpt>
      <trkpt lat="47.51094" lon="6.77774">
        <ele>321</ele>
        <time>2016-01-31T11:02:23.000Z</time>
      </trkpt>
      <trkpt lat="47.51097" lon="6.77775">
        <ele>321</ele>
        <time>2016-01-31T11:02:24.000Z</time>
      </trkpt>
      <trkpt lat="47.511" lon="6.77776">
        <ele>322</ele>
        <time>2016-01-31T11:02:25.000Z</time>
      </trkpt>
      <trkpt lat="47.51104" lon="6.77776">
        <ele>322</ele>
        <time>2016-01-31T11:02:26.000Z</time>
      </trkpt>
      <trkpt lat="47.51107" lon="6.77777">
        <ele>322</ele>
        <time>2016-01-31T11:02:27.000Z</time>
      </trkpt>
      <trkpt lat="47.5111" lon="6.77778">
        <ele>322</ele>
        <time>2016-01-31T11:02:28.000Z</time>
      </trkpt>
      <trkpt lat="47.51113" lon="6.77778">
        <ele>322</ele>
        <time>2016-01-31T11:02:29.000Z</time>
      </trkpt>
      <trkpt lat="47.51116" lon="6.77779">
        <ele>322</ele>
        <time>2016-01-31T11:02:30.000Z</time>
      </trkpt>
      <trkpt lat="47.51119" lon="6.77779">
        <ele>322</ele>
        <time>2016-01-31T11:02:31.000Z</time>
      </trkpt>
      <trkpt lat="47.51122" lon="6.77779">
        <ele>322</ele>
        <time>2016-01-31T11:02:32.000Z</time>
      </trkpt>
      <trkpt lat="47.51125" lon="6.7778">
        <ele>322</ele>
        <time>2016-01-31T11:02:33.000Z</time>
      </trkpt>
      <trkpt lat="47.51128" lon="6.7778">
        <ele>322</ele>
        <time>2016-01-31T11:02:34.000Z</time>
      </trkpt>
      <trkpt lat="47.5113" lon="6.7778">
        <ele>322</ele>
        <time>2016-01-31T11:02:35.000Z</time>
      </trkpt>
      <trkpt lat="47.51133" lon="6.7778">
        <ele>322</ele>
        <time>2016-01-31T11:02:36.000Z</time>
      </trkpt>
      <trkpt lat="47.51136" lon="6.7778">
        <ele>323</ele>
        <time>2016-01-31T11:02:37.000Z</time>
      </trkpt>
      <trkpt lat="47.51139" lon="6.7778">
        <ele>323</ele>
        <time>2016-01-31T11:02:38.000Z</time>
      </trkpt>
      <trkpt lat="47.51141" lon="6.7778">
        <ele>323</ele>
        <time>2016-01-31T11:02:39.000Z</time>
      </trkpt>
      <trkpt lat="47.51144" lon="6.7778">
        <ele>323</ele>
        <time>2016-01-31T11:02:40.000Z</time>
      </trkpt>
      <trkpt lat="47.51147" lon="6.7778">
        <ele>323</ele>
        <time>2016-01-31T11:02:41.000Z</time>
      </trkpt>
      <trkpt lat="47.51149" lon="6.7778">
        <ele>323</ele>
        <time>2016-01-31T11:02:42.000Z</time>
      </trkpt>
      <trkpt lat="47.51152" lon="6.77781">
        <ele>323</ele>
        <time>2016-01-31T11:02:43.000Z</time>
      </trkpt>
      <trkpt lat="47.51155" lon="6.77781">
        <ele>323</ele>
        <time>2016-01-31T11:02:44.000Z</time>
      </trkpt>
      <trkpt lat="47.51157" lon="6.77781">
        <ele>323</ele>
        <time>2016-01-31T11:02:45.000Z</time>
      </trkpt>
      <trkpt lat="47.5116" lon="6.77782">
        <ele>323</ele>
        <time>2016-01-31T11:02:46.000Z</time>
      </trkpt>
      <trkpt lat="47.51162" lon="6.77782">
        <ele>323</ele>
        <time>2016-01-31T11:02:47.000Z</time>
      </trkpt>
      <trkpt lat="47.51165" lon="6.77783">
        <ele>323</ele>
        <time>2016-01-31T11:02:48.000Z</time>
      </trkpt>
      <trkpt lat="47.51167" lon="6.77783">
        <ele>326</ele>
        <time>2016-01-31T11:02:49.000Z</time>
      </trkpt>
      <trkpt lat="47.51169" lon="6.77783">
        <ele>326</ele>
        <time>2016-01-31T11:02:50.000Z</time>
      </trkpt>
      <trkpt lat="47.51172" lon="6.77783">
        <ele>326</ele>
        <time>2016-01-31T11:02:51.000Z</time>
      </trkpt>
      <trkpt lat="47.51174" lon="6.77783">
        <ele>326</ele>
        <time>2016-01-31T11:02:52.000Z</time>
      </trkpt>
      <trkpt lat="47.51177" lon="6.77782">
        <ele>326</ele>
        <time>2016-01-31T11:02:53.000Z</time>
      </trkpt>
      <trkpt lat="47.51179" lon="6.77781">
        <ele>326</ele>
        <time>2016-01-31T11:02:54.000Z</time>
      </trkpt>
      <trkpt lat="47.51181" lon="6.77781">
        <ele>326</ele>
        <time>2016-01-31T11:02:55.000Z</time>
      </trkpt>
      <trkpt lat="47.51185" lon="6.77782">
        <ele>326</ele>
        <time>2016-01-31T11:02:57.000Z</time>
      </trkpt>
      <trkpt lat="47.51186" lon="6.77782">
        <ele>326</ele>
        <time>2016-01-31T11:02:58.000Z</time>
      </trkpt>
      <trkpt lat="47.51189" lon="6.77782">
        <ele>326</ele>
        <time>2016-01-31T11:03:02.000Z</time>
      </trkpt>
      <trkpt lat="47.51191" lon="6.77781">
        <ele>326</ele>
        <time>2016-01-31T11:03:03.000Z</time>
      </trkpt>
      <trkpt lat="47.51193" lon="6.77781">
        <ele>326</ele>
        <time>2016-01-31T11:03:04.000Z</time>
      </trkpt>
      <trkpt lat="47.51196" lon="6.77781">
        <ele>327</ele>
        <time>2016-01-31T11:03:05.000Z</time>
      </trkpt>
      <trkpt lat="47.512" lon="6.77782">
        <ele>327</ele>
        <time>2016-01-31T11:03:07.000Z</time>
      </trkpt>
      <trkpt lat="47.51202" lon="6.77782">
        <ele>327</ele>
        <time>2016-01-31T11:03:08.000Z</time>
      </trkpt>
      <trkpt lat="47.51205" lon="6.77783">
        <ele>327</ele>
        <time>2016-01-31T11:03:10.000Z</time>
      </trkpt>
      <trkpt lat="47.51207" lon="6.77783">
        <ele>327</ele>
        <time>2016-01-31T11:03:11.000Z</time>
      </trkpt>
      <trkpt lat="47.51211" lon="6.77784">
        <ele>327</ele>
        <time>2016-01-31T11:03:13.000Z</time>
      </trkpt>
      <trkpt lat="47.51213" lon="6.77784">
        <ele>327</ele>
        <time>2016-01-31T11:03:14.000Z</time>
      </trkpt>
      <trkpt lat="47.51217" lon="6.77783">
        <ele>327</ele>
        <time>2016-01-31T11:03:16.000Z</time>
      </trkpt>
      <trkpt lat="47.51219" lon="6.77782">
        <ele>327</ele>
        <time>2016-01-31T11:03:17.000Z</time>
      </trkpt>
      <trkpt lat="47.51222" lon="6.77782">
        <ele>327</ele>
        <time>2016-01-31T11:03:19.000Z</time>
      </trkpt>
      <trkpt lat="47.51224" lon="6.77782">
        <ele>327</ele>
        <time>2016-01-31T11:03:20.000Z</time>
      </trkpt>
      <trkpt lat="47.51228" lon="6.77782">
        <ele>328</ele>
        <time>2016-01-31T11:03:22.000Z</time>
      </trkpt>
      <trkpt lat="47.5123" lon="6.77782">
        <ele>328</ele>
        <time>2016-01-31T11:03:23.000Z</time>
      </trkpt>
      <trkpt lat="47.51234" lon="6.77781">
        <ele>328</ele>
        <time>2016-01-31T11:03:25.000Z</time>
      </trkpt>
      <trkpt lat="47.51236" lon="6.77781">
        <ele>328</ele>
        <time>2016-01-31T11:03:26.000Z</time>
      </trkpt>
      <trkpt lat="47.51239" lon="6.7778">
        <ele>328</ele>
        <time>2016-01-31T11:03:28.000Z</time>
      </trkpt>
      <trkpt lat="47.5124" lon="6.77779">
        <ele>328</ele>
        <time>2016-01-31T11:03:29.000Z</time>
      </trkpt>
      <trkpt lat="47.51244" lon="6.77779">
        <ele>328</ele>
        <time>2016-01-31T11:03:31.000Z</time>
      </trkpt>
      <trkpt lat="47.51245" lon="6.77779">
        <ele>328</ele>
        <time>2016-01-31T11:03:32.000Z</time>
      </trkpt>
      <trkpt lat="47.51249" lon="6.77778">
        <ele>328</ele>
        <time>2016-01-31T11:03:34.000Z</time>
      </trkpt>
      <trkpt lat="47.51251" lon="6.77778">
        <ele>333</ele>
        <time>2016-01-31T11:03:35.000Z</time>
      </trkpt>
      <trkpt lat="47.51255" lon="6.77779">
        <ele>333</ele>
        <time>2016-01-31T11:03:37.000Z</time>
      </trkpt>
      <trkpt lat="47.51257" lon="6.77779">
        <ele>334</ele>
        <time>2016-01-31T11:03:38.000Z</time>
      </trkpt>
      <trkpt lat="47.51261" lon="6.77779">
        <ele>334</ele>
        <time>2016-01-31T11:03:40.000Z</time>
      </trkpt>
      <trkpt lat="47.51263" lon="6.77778">
        <ele>334</ele>
        <time>2016-01-31T11:03:41.000Z</time>
      </trkpt>
      <trkpt lat="47.51266" lon="6.77778">
        <ele>334</ele>
        <time>2016-01-31T11:03:43.000Z</time>
      </trkpt>
      <trkpt lat="47.51268" lon="6.77778">
        <ele>334</ele>
        <time>2016-01-31T11:03:44.000Z</time>
      </trkpt>
      <trkpt lat="47.51271" lon="6.77777">
        <ele>334</ele>
        <time>2016-01-31T11:03:46.000Z</time>
      </trkpt>
      <trkpt lat="47.51273" lon="6.77777">
        <ele>335</ele>
        <time>2016-01-31T11:03:47.000Z</time>
      </trkpt>
      <trkpt lat="47.51276" lon="6.77777">
        <ele>335</ele>
        <time>2016-01-31T11:03:49.000Z</time>
      </trkpt>
      <trkpt lat="47.51278" lon="6.77776">
        <ele>335</ele>
        <time>2016-01-31T11:03:50.000Z</time>
      </trkpt>
      <trkpt lat="47.51281" lon="6.77776">
        <ele>335</ele>
        <time>2016-01-31T11:03:52.000Z</time>
      </trkpt>
      <trkpt lat="47.51283" lon="6.77776">
        <ele>335</ele>
        <time>2016-01-31T11:03:53.000Z</time>
      </trkpt>
      <trkpt lat="47.51286" lon="6.77776">
        <ele>336</ele>
        <time>2016-01-31T11:03:55.000Z</time>
      </trkpt>
      <trkpt lat="47.51288" lon="6.77776">
        <ele>336</ele>
        <time>2016-01-31T11:03:56.000Z</time>
      </trkpt>
      <trkpt lat="47.51292" lon="6.77777">
        <ele>336</ele>
        <time>2016-01-31T11:03:58.000Z</time>
      </trkpt>
      <trkpt lat="47.51293" lon="6.77776">
        <ele>336</ele>
        <time>2016-01-31T11:03:59.000Z</time>
      </trkpt>
      <trkpt lat="47.51297" lon="6.77776">
        <ele>337</ele>
        <time>2016-01-31T11:04:01.000Z</time>
      </trkpt>
      <trkpt lat="47.51298" lon="6.77775">
        <ele>337</ele>
        <time>2016-01-31T11:04:02.000Z</time>
      </trkpt>
      <trkpt lat="47.51302" lon="6.77774">
        <ele>337</ele>
        <time>2016-01-31T11:04:04.000Z</time>
      </trkpt>
      <trkpt lat="47.51304" lon="6.77774">
        <ele>337</ele>
        <time>2016-01-31T11:04:05.000Z</time>
      </trkpt>
      <trkpt lat="47.51307" lon="6.77774">
        <ele>338</ele>
        <time>2016-01-31T11:04:07.000Z</time>
      </trkpt>
      <trkpt lat="47.51309" lon="6.77773">
        <ele>338</ele>
        <time>2016-01-31T11:04:08.000Z</time>
      </trkpt>
      <trkpt lat="47.51312" lon="6.77772">
        <ele>338</ele>
        <time>2016-01-31T11:04:10.000Z</time>
      </trkpt>
      <trkpt lat="47.51314" lon="6.77772">
        <ele>338</ele>
        <time>2016-01-31T11:04:11.000Z</time>
      </trkpt>
      <trkpt lat="47.51317" lon="6.7777">
        <ele>339</ele>
        <time>2016-01-31T11:04:13.000Z</time>
      </trkpt>
      <trkpt lat="47.51318" lon="6.7777">
        <ele>339</ele>
        <time>2016-01-31T11:04:14.000Z</time>
      </trkpt>
      <trkpt lat="47.51321" lon="6.77771">
        <ele>339</ele>
        <time>2016-01-31T11:04:16.000Z</time>
      </trkpt>
      <trkpt lat="47.51323" lon="6.77771">
        <ele>339</ele>
        <time>2016-01-31T11:04:17.000Z</time>
      </trkpt>
      <trkpt lat="47.51327" lon="6.77773">
        <ele>339</ele>
        <time>2016-01-31T11:04:20.000Z</time>
      </trkpt>
      <trkpt lat="47.51328" lon="6.77774">
        <ele>339</ele>
        <time>2016-01-31T11:04:21.000Z</time>
      </trkpt>
      <trkpt lat="47.51332" lon="6.77778">
        <ele>339</ele>
        <time>2016-01-31T11:04:24.000Z</time>
      </trkpt>
      <trkpt lat="47.51333" lon="6.77778">
        <ele>339</ele>
        <time>2016-01-31T11:04:25.000Z</time>
      </trkpt>
      <trkpt lat="47.51337" lon="6.7778">
        <ele>348</ele>
        <time>2016-01-31T11:04:28.000Z</time>
      </trkpt>
      <trkpt lat="47.51338" lon="6.77779">
        <ele>348</ele>
        <time>2016-01-31T11:04:29.000Z</time>
      </trkpt>
      <trkpt lat="47.51341" lon="6.77778">
        <ele>348</ele>
        <time>2016-01-31T11:04:31.000Z</time>
      </trkpt>
      <trkpt lat="47.51342" lon="6.77776">
        <ele>348</ele>
        <time>2016-01-31T11:04:32.000Z</time>
      </trkpt>
      <trkpt lat="47.51345" lon="6.77773">
        <ele>348</ele>
        <time>2016-01-31T11:04:34.000Z</time>
      </trkpt>
      <trkpt lat="47.51347" lon="6.77772">
        <ele>348</ele>
        <time>2016-01-31T11:04:35.000Z</time>
      </trkpt>
      <trkpt lat="47.5135" lon="6.77769">
        <ele>348</ele>
        <time>2016-01-31T11:04:37.000Z</time>
      </trkpt>
      <trkpt lat="47.51351" lon="6.77768">
        <ele>348</ele>
        <time>2016-01-31T11:04:38.000Z</time>
      </trkpt>
      <trkpt lat="47.51354" lon="6.77766">
        <ele>348</ele>
        <time>2016-01-31T11:04:40.000Z</time>
      </trkpt>
      <trkpt lat="47.51356" lon="6.77765">
        <ele>349</ele>
        <time>2016-01-31T11:04:41.000Z</time>
      </trkpt>
      <trkpt lat="47.51359" lon="6.77764">
        <ele>349</ele>
        <time>2016-01-31T11:04:43.000Z</time>
      </trkpt>
      <trkpt lat="47.51361" lon="6.77763">
        <ele>349</ele>
        <time>2016-01-31T11:04:44.000Z</time>
      </trkpt>
      <trkpt lat="47.51364" lon="6.7776">
        <ele>349</ele>
        <time>2016-01-31T11:04:46.000Z</time>
      </trkpt>
      <trkpt lat="47.51365" lon="6.77759">
        <ele>350</ele>
        <time>2016-01-31T11:04:47.000Z</time>
      </trkpt>
      <trkpt lat="47.51368" lon="6.77756">
        <ele>350</ele>
        <time>2016-01-31T11:04:49.000Z</time>
      </trkpt>
      <trkpt lat="47.5137" lon="6.77755">
        <ele>350</ele>
        <time>2016-01-31T11:04:50.000Z</time>
      </trkpt>
      <trkpt lat="47.51373" lon="6.77753">
        <ele>351</ele>
        <time>2016-01-31T11:04:52.000Z</time>
      </trkpt>
      <trkpt lat="47.51374" lon="6.77753">
        <ele>351</ele>
        <time>2016-01-31T11:04:53.000Z</time>
      </trkpt>
      <trkpt lat="47.51378" lon="6.77752">
        <ele>351</ele>
        <time>2016-01-31T11:04:55.000Z</time>
      </trkpt>
      <trkpt lat="47.51379" lon="6.77751">
        <ele>351</ele>
        <time>2016-01-31T11:04:56.000Z</time>
      </trkpt>
      <trkpt lat="47.51382" lon="6.77749">
        <ele>354</ele>
        <time>2016-01-31T11:04:58.000Z</time>
      </trkpt>
      <trkpt lat="47.51384" lon="6.77749">
        <ele>354</ele>
        <time>2016-01-31T11:04:59.000Z</time>
      </trkpt>
      <trkpt lat="47.51387" lon="6.77747">
        <ele>355</ele>
        <time>2016-01-31T11:05:01.000Z</time>
      </trkpt>
      <trkpt lat="47.51388" lon="6.77746">
        <ele>355</ele>
        <time>2016-01-31T11:05:02.000Z</time>
      </trkpt>
      <trkpt lat="47.51391" lon="6.77744">
        <ele>355</ele>
        <time>2016-01-31T11:05:04.000Z</time>
      </trkpt>
      <trkpt lat="47.51392" lon="6.77743">
        <ele>355</ele>
        <time>2016-01-31T11:05:05.000Z</time>
      </trkpt>
      <trkpt lat="47.51396" lon="6.77741">
        <ele>356</ele>
        <time>2016-01-31T11:05:08.000Z</time>
      </trkpt>
      <trkpt lat="47.51398" lon="6.77741">
        <ele>356</ele>
        <time>2016-01-31T11:05:09.000Z</time>
      </trkpt>
      <trkpt lat="47.51401" lon="6.77739">
        <ele>356</ele>
        <time>2016-01-31T11:05:12.000Z</time>
      </trkpt>
      <trkpt lat="47.51403" lon="6.77738">
        <ele>356</ele>
        <time>2016-01-31T11:05:13.000Z</time>
      </trkpt>
      <trkpt lat="47.51406" lon="6.77736">
        <ele>356</ele>
        <time>2016-01-31T11:05:15.000Z</time>
      </trkpt>
      <trkpt lat="47.51407" lon="6.77734">
        <ele>356</ele>
        <time>2016-01-31T11:05:16.000Z</time>
      </trkpt>
      <trkpt lat="47.51411" lon="6.77731">
        <ele>356</ele>
        <time>2016-01-31T11:05:19.000Z</time>
      </trkpt>
      <trkpt lat="47.51412" lon="6.77731">
        <ele>357</ele>
        <time>2016-01-31T11:05:20.000Z</time>
      </trkpt>
      <trkpt lat="47.51416" lon="6.7773">
        <ele>357</ele>
        <time>2016-01-31T11:05:24.000Z</time>
      </trkpt>
      <trkpt lat="47.51417" lon="6.77731">
        <ele>362</ele>
        <time>2016-01-31T11:05:25.000Z</time>
      </trkpt>
      <trkpt lat="47.51421" lon="6.7773">
        <ele>362</ele>
        <time>2016-01-31T11:05:28.000Z</time>
      </trkpt>
      <trkpt lat="47.51422" lon="6.7773">
        <ele>362</ele>
        <time>2016-01-31T11:05:29.000Z</time>
      </trkpt>
      <trkpt lat="47.51425" lon="6.77728">
        <ele>363</ele>
        <time>2016-01-31T11:05:31.000Z</time>
      </trkpt>
      <trkpt lat="47.51426" lon="6.77727">
        <ele>363</ele>
        <time>2016-01-31T11:05:32.000Z</time>
      </trkpt>
      <trkpt lat="47.5143" lon="6.77725">
        <ele>363</ele>
        <time>2016-01-31T11:05:34.000Z</time>
      </trkpt>
      <trkpt lat="47.51431" lon="6.77725">
        <ele>364</ele>
        <time>2016-01-31T11:05:35.000Z</time>
      </trkpt>
      <trkpt lat="47.51435" lon="6.77724">
        <ele>364</ele>
        <time>2016-01-31T11:05:37.000Z</time>
      </trkpt>
      <trkpt lat="47.51436" lon="6.77723">
        <ele>364</ele>
        <time>2016-01-31T11:05:38.000Z</time>
      </trkpt>
      <trkpt lat="47.51439" lon="6.77722">
        <ele>364</ele>
        <time>2016-01-31T11:05:40.000Z</time>
      </trkpt>
      <trkpt lat="47.51441" lon="6.77721">
        <ele>365</ele>
        <time>2016-01-31T11:05:41.000Z</time>
      </trkpt>
      <trkpt lat="47.51444" lon="6.77719">
        <ele>365</ele>
        <time>2016-01-31T11:05:43.000Z</time>
      </trkpt>
      <trkpt lat="47.51446" lon="6.77718">
        <ele>365</ele>
        <time>2016-01-31T11:05:44.000Z</time>
      </trkpt>
      <trkpt lat="47.5145" lon="6.77717">
        <ele>366</ele>
        <time>2016-01-31T11:05:47.000Z</time>
      </trkpt>
      <trkpt lat="47.51451" lon="6.77717">
        <ele>366</ele>
        <time>2016-01-31T11:05:48.000Z</time>
      </trkpt>
      <trkpt lat="47.51454" lon="6.77717">
        <ele>366</ele>
        <time>2016-01-31T11:05:50.000Z</time>
      </trkpt>
      <trkpt lat="47.51456" lon="6.77717">
        <ele>366</ele>
        <time>2016-01-31T11:05:51.000Z</time>
      </trkpt>
      <trkpt lat="47.51459" lon="6.77716">
        <ele>366</ele>
        <time>2016-01-31T11:05:53.000Z</time>
      </trkpt>
      <trkpt lat="47.51461" lon="6.77715">
        <ele>366</ele>
        <time>2016-01-31T11:05:54.000Z</time>
      </trkpt>
      <trkpt lat="47.51465" lon="6.77715">
        <ele>366</ele>
        <time>2016-01-31T11:05:59.000Z</time>
      </trkpt>
      <trkpt lat="47.51465" lon="6.77715">
        <ele>366</ele>
        <time>2016-01-31T11:06:00.000Z</time>
      </trkpt>
      <trkpt lat="47.51468" lon="6.77716">
        <ele>366</ele>
        <time>2016-01-31T11:06:03.000Z</time>
      </trkpt>
      <trkpt lat="47.5147" lon="6.77715">
        <ele>366</ele>
        <time>2016-01-31T11:06:04.000Z</time>
      </trkpt>
      <trkpt lat="47.51473" lon="6.77714">
        <ele>367</ele>
        <time>2016-01-31T11:06:06.000Z</time>
      </trkpt>
      <trkpt lat="47.51475" lon="6.77713">
        <ele>367</ele>
        <time>2016-01-31T11:06:07.000Z</time>
      </trkpt>
      <trkpt lat="47.51478" lon="6.77713">
        <ele>367</ele>
        <time>2016-01-31T11:06:09.000Z</time>
      </trkpt>
      <trkpt lat="47.51479" lon="6.77713">
        <ele>367</ele>
        <time>2016-01-31T11:06:10.000Z</time>
      </trkpt>
      <trkpt lat="47.51482" lon="6.77713">
        <ele>367</ele>
        <time>2016-01-31T11:06:12.000Z</time>
      </trkpt>
      <trkpt lat="47.51484" lon="6.77713">
        <ele>367</ele>
        <time>2016-01-31T11:06:13.000Z</time>
      </trkpt>
      <trkpt lat="47.51488" lon="6.77713">
        <ele>367</ele>
        <time>2016-01-31T11:06:15.000Z</time>
      </trkpt>
      <trkpt lat="47.5149" lon="6.77713">
        <ele>367</ele>
        <time>2016-01-31T11:06:16.000Z</time>
      </trkpt>
      <trkpt lat="47.51493" lon="6.77713">
        <ele>367</ele>
        <time>2016-01-31T11:06:18.000Z</time>
      </trkpt>
      <trkpt lat="47.51495" lon="6.77712">
        <ele>367</ele>
        <time>2016-01-31T11:06:19.000Z</time>
      </trkpt>
      <trkpt lat="47.51499" lon="6.77712">
        <ele>367</ele>
        <time>2016-01-31T11:06:22.000Z</time>
      </trkpt>
      <trkpt lat="47.515" lon="6.77712">
        <ele>367</ele>
        <time>2016-01-31T11:06:23.000Z</time>
      </trkpt>
      <trkpt lat="47.51504" lon="6.77713">
        <ele>372</ele>
        <time>2016-01-31T11:06:27.000Z</time>
      </trkpt>
      <trkpt lat="47.51505" lon="6.77712">
        <ele>372</ele>
        <time>2016-01-31T11:06:28.000Z</time>
      </trkpt>
      <trkpt lat="47.51509" lon="6.77711">
        <ele>372</ele>
        <time>2016-01-31T11:06:31.000Z</time>
      </trkpt>
      <trkpt lat="47.51511" lon="6.7771">
        <ele>372</ele>
        <time>2016-01-31T11:06:32.000Z</time>
      </trkpt>
      <trkpt lat="47.51515" lon="6.77709">
        <ele>372</ele>
        <time>2016-01-31T11:06:35.000Z</time>
      </trkpt>
      <trkpt lat="47.51516" lon="6.77709">
        <ele>372</ele>
        <time>2016-01-31T11:06:36.000Z</time>
      </trkpt>
      <trkpt lat="47.51519" lon="6.77709">
        <ele>373</ele>
        <time>2016-01-31T11:06:38.000Z</time>
      </trkpt>
      <trkpt lat="47.51521" lon="6.7771">
        <ele>373</ele>
        <time>2016-01-31T11:06:39.000Z</time>
      </trkpt>
      <trkpt lat="47.51524" lon="6.7771">
        <ele>373</ele>
        <time>2016-01-31T11:06:41.000Z</time>
      </trkpt>
      <trkpt lat="47.51526" lon="6.77709">
        <ele>373</ele>
        <time>2016-01-31T11:06:42.000Z</time>
      </trkpt>
      <trkpt lat="47.51529" lon="6.77709">
        <ele>373</ele>
        <time>2016-01-31T11:06:44.000Z</time>
      </trkpt>
      <trkpt lat="47.51531" lon="6.77708">
        <ele>373</ele>
        <time>2016-01-31T11:06:45.000Z</time>
      </trkpt>
      <trkpt lat="47.51534" lon="6.77709">
        <ele>373</ele>
        <time>2016-01-31T11:06:47.000Z</time>
      </trkpt>
      <trkpt lat="47.51535" lon="6.7771">
        <ele>373</ele>
        <time>2016-01-31T11:06:48.000Z</time>
      </trkpt>
      <trkpt lat="47.51539" lon="6.77712">
        <ele>373</ele>
        <time>2016-01-31T11:06:50.000Z</time>
      </trkpt>
      <trkpt lat="47.51541" lon="6.77714">
        <ele>373</ele>
        <time>2016-01-31T11:06:51.000Z</time>
      </trkpt>
      <trkpt lat="47.51545" lon="6.77714">
        <ele>374</ele>
        <time>2016-01-31T11:06:54.000Z</time>
      </trkpt>
      <trkpt lat="47.51546" lon="6.77714">
        <ele>374</ele>
        <time>2016-01-31T11:06:55.000Z</time>
      </trkpt>
      <trkpt lat="47.51551" lon="6.77715">
        <ele>374</ele>
        <time>2016-01-31T11:06:58.000Z</time>
      </trkpt>
      <trkpt lat="47.51552" lon="6.77715">
        <ele>374</ele>
        <time>2016-01-31T11:06:59.000Z</time>
      </trkpt>
      <trkpt lat="47.51555" lon="6.77717">
        <ele>374</ele>
        <time>2016-01-31T11:07:02.000Z</time>
      </trkpt>
      <trkpt lat="47.51556" lon="6.77718">
        <ele>374</ele>
        <time>2016-01-31T11:07:03.000Z</time>
      </trkpt>
      <trkpt lat="47.5156" lon="6.77721">
        <ele>374</ele>
        <time>2016-01-31T11:07:06.000Z</time>
      </trkpt>
      <trkpt lat="47.51561" lon="6.77722">
        <ele>374</ele>
        <time>2016-01-31T11:07:07.000Z</time>
      </trkpt>
      <trkpt lat="47.51565" lon="6.77723">
        <ele>375</ele>
        <time>2016-01-31T11:07:10.000Z</time>
      </trkpt>
      <trkpt lat="47.51566" lon="6.77723">
        <ele>375</ele>
        <time>2016-01-31T11:07:11.000Z</time>
      </trkpt>
      <trkpt lat="47.5157" lon="6.77725">
        <ele>375</ele>
        <time>2016-01-31T11:07:14.000Z</time>
      </trkpt>
      <trkpt lat="47.51571" lon="6.77725">
        <ele>375</ele>
        <time>2016-01-31T11:07:15.000Z</time>
      </trkpt>
      <trkpt lat="47.51575" lon="6.77727">
        <ele>375</ele>
        <time>2016-01-31T11:07:18.000Z</time>
      </trkpt>
      <trkpt lat="47.51575" lon="6.77728">
        <ele>375</ele>
        <time>2016-01-31T11:07:19.000Z</time>
      </trkpt>
      <trkpt lat="47.51579" lon="6.77729">
        <ele>375</ele>
        <time>2016-01-31T11:07:27.000Z</time>
      </trkpt>
      <trkpt lat="47.5158" lon="6.7773">
        <ele>375</ele>
        <time>2016-01-31T11:07:28.000Z</time>
      </trkpt>
      <trkpt lat="47.51583" lon="6.77732">
        <ele>379</ele>
        <time>2016-01-31T11:07:30.000Z</time>
      </trkpt>
      <trkpt lat="47.51585" lon="6.77733">
        <ele>379</ele>
        <time>2016-01-31T11:07:30.999Z</time>
      </trkpt>
      <trkpt lat="47.51588" lon="6.77738">
        <ele>378</ele>
        <time>2016-01-31T11:07:33.000Z</time>
      </trkpt>
      <trkpt lat="47.51589" lon="6.77739">
        <ele>378</ele>
        <time>2016-01-31T11:07:34.000Z</time>
      </trkpt>
      <trkpt lat="47.51592" lon="6.77742">
        <ele>378</ele>
        <time>2016-01-31T11:07:37.000Z</time>
      </trkpt>
      <trkpt lat="47.51594" lon="6.77743">
        <ele>378</ele>
        <time>2016-01-31T11:07:38.000Z</time>
      </trkpt>
      <trkpt lat="47.51596" lon="6.77746">
        <ele>378</ele>
        <time>2016-01-31T11:07:40.000Z</time>
      </trkpt>
      <trkpt lat="47.51597" lon="6.77747">
        <ele>378</ele>
        <time>2016-01-31T11:07:41.000Z</time>
      </trkpt>
      <trkpt lat="47.51601" lon="6.77749">
        <ele>379</ele>
        <time>2016-01-31T11:07:44.000Z</time>
      </trkpt>
      <trkpt lat="47.51602" lon="6.77749">
        <ele>379</ele>
        <time>2016-01-31T11:07:45.000Z</time>
      </trkpt>
      <trkpt lat="47.51606" lon="6.77748">
        <ele>379</ele>
        <time>2016-01-31T11:07:47.000Z</time>
      </trkpt>
      <trkpt lat="47.51608" lon="6.77748">
        <ele>380</ele>
        <time>2016-01-31T11:07:48.000Z</time>
      </trkpt>
      <trkpt lat="47.51612" lon="6.77747">
        <ele>380</ele>
        <time>2016-01-31T11:07:50.000Z</time>
      </trkpt>
      <trkpt lat="47.51614" lon="6.77746">
        <ele>380</ele>
        <time>2016-01-31T11:07:51.000Z</time>
      </trkpt>
      <trkpt lat="47.51617" lon="6.77742">
        <ele>380</ele>
        <time>2016-01-31T11:07:53.000Z</time>
      </trkpt>
      <trkpt lat="47.51619" lon="6.7774">
        <ele>381</ele>
        <time>2016-01-31T11:07:54.000Z</time>
      </trkpt>
      <trkpt lat="47.51623" lon="6.77738">
        <ele>381</ele>
        <time>2016-01-31T11:07:56.000Z</time>
      </trkpt>
      <trkpt lat="47.51625" lon="6.77738">
        <ele>381</ele>
        <time>2016-01-31T11:07:57.000Z</time>
      </trkpt>
      <trkpt lat="47.51628" lon="6.77739">
        <ele>381</ele>
        <time>2016-01-31T11:07:58.000Z</time>
      </trkpt>
      <trkpt lat="47.5163" lon="6.77739">
        <ele>381</ele>
        <time>2016-01-31T11:07:59.000Z</time>
      </trkpt>
      <trkpt lat="47.51632" lon="6.77739">
        <ele>381</ele>
        <time>2016-01-31T11:08:00.000Z</time>
      </trkpt>
      <trkpt lat="47.51635" lon="6.77739">
        <ele>382</ele>
        <time>2016-01-31T11:08:01.000Z</time>
      </trkpt>
      <trkpt lat="47.51637" lon="6.77739">
        <ele>382</ele>
        <time>2016-01-31T11:08:02.000Z</time>
      </trkpt>
      <trkpt lat="47.51639" lon="6.77739">
        <ele>382</ele>
        <time>2016-01-31T11:08:03.000Z</time>
      </trkpt>
      <trkpt lat="47.51643" lon="6.7774">
        <ele>382</ele>
        <time>2016-01-31T11:08:05.000Z</time>
      </trkpt>
      <trkpt lat="47.51645" lon="6.7774">
        <ele>382</ele>
        <time>2016-01-31T11:08:06.000Z</time>
      </trkpt>
      <trkpt lat="47.51649" lon="6.77743">
        <ele>382</ele>
        <time>2016-01-31T11:08:08.000Z</time>
      </trkpt>
      <trkpt lat="47.51651" lon="6.77744">
        <ele>382</ele>
        <time>2016-01-31T11:08:09.000Z</time>
      </trkpt>
      <trkpt lat="47.51653" lon="6.77745">
        <ele>382</ele>
        <time>2016-01-31T11:08:10.000Z</time>
      </trkpt>
      <trkpt lat="47.51656" lon="6.77746">
        <ele>382</ele>
        <time>2016-01-31T11:08:11.000Z</time>
      </trkpt>
      <trkpt lat="47.5166" lon="6.77747">
        <ele>383</ele>
        <time>2016-01-31T11:08:13.000Z</time>
      </trkpt>
      <trkpt lat="47.51662" lon="6.77748">
        <ele>383</ele>
        <time>2016-01-31T11:08:14.000Z</time>
      </trkpt>
      <trkpt lat="47.51665" lon="6.77748">
        <ele>383</ele>
        <time>2016-01-31T11:08:16.000Z</time>
      </trkpt>
      <trkpt lat="47.51667" lon="6.77749">
        <ele>383</ele>
        <time>2016-01-31T11:08:17.000Z</time>
      </trkpt>
      <trkpt lat="47.5167" lon="6.77749">
        <ele>384</ele>
        <time>2016-01-31T11:08:19.000Z</time>
      </trkpt>
      <trkpt lat="47.51671" lon="6.77749">
        <ele>384</ele>
        <time>2016-01-31T11:08:20.000Z</time>
      </trkpt>
      <trkpt lat="47.51674" lon="6.77751">
        <ele>384</ele>
        <time>2016-01-31T11:08:23.000Z</time>
      </trkpt>
      <trkpt lat="47.51676" lon="6.77752">
        <ele>384</ele>
        <time>2016-01-31T11:08:24.000Z</time>
      </trkpt>
      <trkpt lat="47.51679" lon="6.77754">
        <ele>384</ele>
        <time>2016-01-31T11:08:26.000Z</time>
      </trkpt>
      <trkpt lat="47.5168" lon="6.77754">
        <ele>384</ele>
        <time>2016-01-31T11:08:27.000Z</time>
      </trkpt>
      <trkpt lat="47.51684" lon="6.77752">
        <ele>385</ele>
        <time>2016-01-31T11:08:29.000Z</time>
      </trkpt>
      <trkpt lat="47.51686" lon="6.77751">
        <ele>385</ele>
        <time>2016-01-31T11:08:30.000Z</time>
      </trkpt>
      <trkpt lat="47.51689" lon="6.77748">
        <ele>386</ele>
        <time>2016-01-31T11:08:32.000Z</time>
      </trkpt>
      <trkpt lat="47.5169" lon="6.77747">
        <ele>386</ele>
        <time>2016-01-31T11:08:33.000Z</time>
      </trkpt>
      <trkpt lat="47.51693" lon="6.77743">
        <ele>386</ele>
        <time>2016-01-31T11:08:36.000Z</time>
      </trkpt>
      <trkpt lat="47.51694" lon="6.77741">
        <ele>386</ele>
        <time>2016-01-31T11:08:37.000Z</time>
      </trkpt>
      <trkpt lat="47.51695" lon="6.77736">
        <ele>386</ele>
        <time>2016-01-31T11:08:40.000Z</time>
      </trkpt>
      <trkpt lat="47.51695" lon="6.77734">
        <ele>386</ele>
        <time>2016-01-31T11:08:41.000Z</time>
      </trkpt>
      <trkpt lat="47.51696" lon="6.77729">
        <ele>387</ele>
        <time>2016-01-31T11:08:44.000Z</time>
      </trkpt>
      <trkpt lat="47.51696" lon="6.77726">
        <ele>387</ele>
        <time>2016-01-31T11:08:45.000Z</time>
      </trkpt>
      <trkpt lat="47.51697" lon="6.7772">
        <ele>387</ele>
        <time>2016-01-31T11:08:48.000Z</time>
      </trkpt>
      <trkpt lat="47.51697" lon="6.77718">
        <ele>387</ele>
        <time>2016-01-31T11:08:49.000Z</time>
      </trkpt>
      <trkpt lat="47.51698" lon="6.77711">
        <ele>387</ele>
        <time>2016-01-31T11:08:52.000Z</time>
      </trkpt>
      <trkpt lat="47.51698" lon="6.77709">
        <ele>387</ele>
        <time>2016-01-31T11:08:53.000Z</time>
      </trkpt>
      <trkpt lat="47.51698" lon="6.77703">
        <ele>387</ele>
        <time>2016-01-31T11:08:56.000Z</time>
      </trkpt>
      <trkpt lat="47.51698" lon="6.777">
        <ele>387</ele>
        <time>2016-01-31T11:08:57.000Z</time>
      </trkpt>
      <trkpt lat="47.51699" lon="6.77696">
        <ele>387</ele>
        <time>2016-01-31T11:08:59.000Z</time>
      </trkpt>
      <trkpt lat="47.51699" lon="6.77694">
        <ele>387</ele>
        <time>2016-01-31T11:09:00.000Z</time>
      </trkpt>
      <trkpt lat="47.517" lon="6.77689">
        <ele>388</ele>
        <time>2016-01-31T11:09:02.000Z</time>
      </trkpt>
      <trkpt lat="47.51701" lon="6.77687">
        <ele>388</ele>
        <time>2016-01-31T11:09:03.000Z</time>
      </trkpt>
      <trkpt lat="47.51703" lon="6.77682">
        <ele>388</ele>
        <time>2016-01-31T11:09:05.000Z</time>
      </trkpt>
      <trkpt lat="47.51704" lon="6.77679">
        <ele>388</ele>
        <time>2016-01-31T11:09:06.000Z</time>
      </trkpt>
      <trkpt lat="47.51705" lon="6.77673">
        <ele>388</ele>
        <time>2016-01-31T11:09:08.000Z</time>
      </trkpt>
      <trkpt lat="47.51706" lon="6.7767">
        <ele>388</ele>
        <time>2016-01-31T11:09:09.000Z</time>
      </trkpt>
      <trkpt lat="47.51706" lon="6.77664">
        <ele>389</ele>
        <time>2016-01-31T11:09:11.000Z</time>
      </trkpt>
      <trkpt lat="47.51706" lon="6.77661">
        <ele>389</ele>
        <time>2016-01-31T11:09:12.000Z</time>
      </trkpt>
      <trkpt lat="47.51706" lon="6.77654">
        <ele>389</ele>
        <time>2016-01-31T11:09:14.000Z</time>
      </trkpt>
      <trkpt lat="47.51706" lon="6.77651">
        <ele>389</ele>
        <time>2016-01-31T11:09:15.000Z</time>
      </trkpt>
      <trkpt lat="47.51707" lon="6.77647">
        <ele>390</ele>
        <time>2016-01-31T11:09:16.000Z</time>
      </trkpt>
      <trkpt lat="47.51707" lon="6.77644">
        <ele>390</ele>
        <time>2016-01-31T11:09:17.000Z</time>
      </trkpt>
      <trkpt lat="47.51707" lon="6.77641">
        <ele>390</ele>
        <time>2016-01-31T11:09:18.000Z</time>
      </trkpt>
      <trkpt lat="47.51707" lon="6.77637">
        <ele>390</ele>
        <time>2016-01-31T11:09:19.000Z</time>
      </trkpt>
      <trkpt lat="47.51708" lon="6.77631">
        <ele>390</ele>
        <time>2016-01-31T11:09:21.000Z</time>
      </trkpt>
      <trkpt lat="47.51708" lon="6.77628">
        <ele>390</ele>
        <time>2016-01-31T11:09:22.000Z</time>
      </trkpt>
      <trkpt lat="47.51707" lon="6.77622">
        <ele>390</ele>
        <time>2016-01-31T11:09:24.000Z</time>
      </trkpt>
      <trkpt lat="47.51707" lon="6.77619">
        <ele>390</ele>
        <time>2016-01-31T11:09:25.000Z</time>
      </trkpt>
      <trkpt lat="47.51707" lon="6.77613">
        <ele>390</ele>
        <time>2016-01-31T11:09:27.000Z</time>
      </trkpt>
      <trkpt lat="47.51707" lon="6.77609">
        <ele>390</ele>
        <time>2016-01-31T11:09:28.000Z</time>
      </trkpt>
      <trkpt lat="47.51707" lon="6.77603">
        <ele>390</ele>
        <time>2016-01-31T11:09:30.000Z</time>
      </trkpt>
      <trkpt lat="47.51707" lon="6.776">
        <ele>390</ele>
        <time>2016-01-31T11:09:31.000Z</time>
      </trkpt>
      <trkpt lat="47.51708" lon="6.77594">
        <ele>390</ele>
        <time>2016-01-31T11:09:33.000Z</time>
      </trkpt>
      <trkpt lat="47.51709" lon="6.77591">
        <ele>390</ele>
        <time>2016-01-31T11:09:34.000Z</time>
      </trkpt>
      <trkpt lat="47.51712" lon="6.77587">
        <ele>390</ele>
        <time>2016-01-31T11:09:36.000Z</time>
      </trkpt>
      <trkpt lat="47.51714" lon="6.77585">
        <ele>390</ele>
        <time>2016-01-31T11:09:37.000Z</time>
      </trkpt>
      <trkpt lat="47.51716" lon="6.77584">
        <ele>390</ele>
        <time>2016-01-31T11:09:38.000Z</time>
      </trkpt>
      <trkpt lat="47.51718" lon="6.77582">
        <ele>390</ele>
        <time>2016-01-31T11:09:39.000Z</time>
      </trkpt>
      <trkpt lat="47.5172" lon="6.77578">
        <ele>390</ele>
        <time>2016-01-31T11:09:41.000Z</time>
      </trkpt>
      <trkpt lat="47.5172" lon="6.77574">
        <ele>390</ele>
        <time>2016-01-31T11:09:42.000Z</time>
      </trkpt>
      <trkpt lat="47.51718" lon="6.7757">
        <ele>390</ele>
        <time>2016-01-31T11:09:43.000Z</time>
      </trkpt>
      <trkpt lat="47.51716" lon="6.77566">
        <ele>390</ele>
        <time>2016-01-31T11:09:44.000Z</time>
      </trkpt>
      <trkpt lat="47.51715" lon="6.77561">
        <ele>390</ele>
        <time>2016-01-31T11:09:45.000Z</time>
      </trkpt>
      <trkpt lat="47.51715" lon="6.77556">
        <ele>390</ele>
        <time>2016-01-31T11:09:46.000Z</time>
      </trkpt>
      <trkpt lat="47.51715" lon="6.77551">
        <ele>390</ele>
        <time>2016-01-31T11:09:47.000Z</time>
      </trkpt>
      <trkpt lat="47.51716" lon="6.77546">
        <ele>390</ele>
        <time>2016-01-31T11:09:48.000Z</time>
      </trkpt>
      <trkpt lat="47.51718" lon="6.77541">
        <ele>390</ele>
        <time>2016-01-31T11:09:49.000Z</time>
      </trkpt>
      <trkpt lat="47.51719" lon="6.77536">
        <ele>390</ele>
        <time>2016-01-31T11:09:50.000Z</time>
      </trkpt>
      <trkpt lat="47.5172" lon="6.77531">
        <ele>390</ele>
        <time>2016-01-31T11:09:51.000Z</time>
      </trkpt>
      <trkpt lat="47.51722" lon="6.77526">
        <ele>390</ele>
        <time>2016-01-31T11:09:52.000Z</time>
      </trkpt>
      <trkpt lat="47.51723" lon="6.77521">
        <ele>390</ele>
        <time>2016-01-31T11:09:53.000Z</time>
      </trkpt>
      <trkpt lat="47.51724" lon="6.77515">
        <ele>390</ele>
        <time>2016-01-31T11:09:54.000Z</time>
      </trkpt>
      <trkpt lat="47.51724" lon="6.77509">
        <ele>390</ele>
        <time>2016-01-31T11:09:55.000Z</time>
      </trkpt>
      <trkpt lat="47.51725" lon="6.77503">
        <ele>390</ele>
        <time>2016-01-31T11:09:55.999Z</time>
      </trkpt>
      <trkpt lat="47.51726" lon="6.77495">
        <ele>389</ele>
        <time>2016-01-31T11:09:57.000Z</time>
      </trkpt>
      <trkpt lat="47.51727" lon="6.77488">
        <ele>389</ele>
        <time>2016-01-31T11:09:58.000Z</time>
      </trkpt>
      <trkpt lat="47.51731" lon="6.77482">
        <ele>389</ele>
        <time>2016-01-31T11:09:59.000Z</time>
      </trkpt>
      <trkpt lat="47.51735" lon="6.77479">
        <ele>389</ele>
        <time>2016-01-31T11:10:00.000Z</time>
      </trkpt>
      <trkpt lat="47.51739" lon="6.77479">
        <ele>389</ele>
        <time>2016-01-31T11:10:01.000Z</time>
      </trkpt>
      <trkpt lat="47.51743" lon="6.77479">
        <ele>389</ele>
        <time>2016-01-31T11:10:02.000Z</time>
      </trkpt>
      <trkpt lat="47.51747" lon="6.7748">
        <ele>389</ele>
        <time>2016-01-31T11:10:02.999Z</time>
      </trkpt>
      <trkpt lat="47.51751" lon="6.7748">
        <ele>389</ele>
        <time>2016-01-31T11:10:04.000Z</time>
      </trkpt>
      <trkpt lat="47.51755" lon="6.77479">
        <ele>389</ele>
        <time>2016-01-31T11:10:05.000Z</time>
      </trkpt>
      <trkpt lat="47.51759" lon="6.77479">
        <ele>389</ele>
        <time>2016-01-31T11:10:06.000Z</time>
      </trkpt>
      <trkpt lat="47.51762" lon="6.77479">
        <ele>389</ele>
        <time>2016-01-31T11:10:07.000Z</time>
      </trkpt>
      <trkpt lat="47.51766" lon="6.77479">
        <ele>389</ele>
        <time>2016-01-31T11:10:08.001Z</time>
      </trkpt>
      <trkpt lat="47.5177" lon="6.7748">
        <ele>388</ele>
        <time>2016-01-31T11:10:09.000Z</time>
      </trkpt>
      <trkpt lat="47.51774" lon="6.77481">
        <ele>388</ele>
        <time>2016-01-31T11:10:10.000Z</time>
      </trkpt>
      <trkpt lat="47.51779" lon="6.77484">
        <ele>388</ele>
        <time>2016-01-31T11:10:11.000Z</time>
      </trkpt>
      <trkpt lat="47.51783" lon="6.77487">
        <ele>388</ele>
        <time>2016-01-31T11:10:12.000Z</time>
      </trkpt>
      <trkpt lat="47.51787" lon="6.77489">
        <ele>388</ele>
        <time>2016-01-31T11:10:13.000Z</time>
      </trkpt>
      <trkpt lat="47.51791" lon="6.77491">
        <ele>388</ele>
        <time>2016-01-31T11:10:14.000Z</time>
      </trkpt>
      <trkpt lat="47.51796" lon="6.77493">
        <ele>388</ele>
        <time>2016-01-31T11:10:15.000Z</time>
      </trkpt>
      <trkpt lat="47.51801" lon="6.77494">
        <ele>388</ele>
        <time>2016-01-31T11:10:16.000Z</time>
      </trkpt>
      <trkpt lat="47.51805" lon="6.77494">
        <ele>388</ele>
        <time>2016-01-31T11:10:17.000Z</time>
      </trkpt>
      <trkpt lat="47.51806" lon="6.77488">
        <ele>388</ele>
        <time>2016-01-31T11:10:18.000Z</time>
      </trkpt>
      <trkpt lat="47.51807" lon="6.77484">
        <ele>388</ele>
        <time>2016-01-31T11:10:19.000Z</time>
      </trkpt>
      <trkpt lat="47.51805" lon="6.77479">
        <ele>388</ele>
        <time>2016-01-31T11:10:46.000Z</time>
      </trkpt>
      <trkpt lat="47.51804" lon="6.77479">
        <ele>388</ele>
        <time>2016-01-31T11:10:47.000Z</time>
      </trkpt>
      <trkpt lat="47.51804" lon="6.77472">
        <ele>388</ele>
        <time>2016-01-31T11:11:00.000Z</time>
      </trkpt>
      <trkpt lat="47.51804" lon="6.77472">
        <ele>388</ele>
        <time>2016-01-31T11:11:01.000Z</time>
      </trkpt>
      <trkpt lat="47.51804" lon="6.77473">
        <ele>388</ele>
        <time>2016-01-31T11:12:32.000Z</time>
      </trkpt>
    </trkseg>
  </trk>
</gpx>